<?xml version='1.0' encoding='UTF-8'?><gpx version="1.1" creator="JPX - https://github.com/jenetics/jpx" xmlns="http://www.topografix.com/GPX/1/1"><trk><trkseg><trkpt lat="44.0702571" lon="8.1702268"><ele>22.0</ele><time>2026-04-22T07:34:55.542Z</time></trkpt><trkpt lat="44.0701804" lon="8.1700618"><ele>22.0</ele><time>2026-04-22T07:34:59.543Z</time></trkpt><trkpt lat="44.0701374" lon="8.1699685"><ele>22.0</ele><time>2026-04-22T07:35:01.543Z</time></trkpt><trkpt lat="44.0700931" lon="8.169875"><ele>22.0</ele><time>2026-04-22T07:35:03.543Z</time></trkpt><trkpt lat="44.0700465" lon="8.1697794"><ele>22.0</ele><time>2026-04-22T07:35:08.543Z</time></trkpt><trkpt lat="44.0700283" lon="8.1696764"><ele>22.0</ele><time>2026-04-22T07:35:33.543Z</time></trkpt><trkpt lat="44.0699643" lon="8.1695303"><ele>22.0</ele><time>2026-04-22T07:35:53.543Z</time></trkpt><trkpt lat="44.0699255" lon="8.1694083"><ele>22.0</ele><time>2026-04-22T07:38:01.543Z</time></trkpt><trkpt lat="44.0699304" lon="8.1693115"><ele>22.0</ele><time>2026-04-22T07:38:34.542Z</time></trkpt><trkpt lat="44.0700074" lon="8.16924"><ele>22.0</ele><time>2026-04-22T07:38:36.543Z</time></trkpt><trkpt lat="44.0700601" lon="8.1691839"><ele>22.0</ele><time>2026-04-22T07:38:37.543Z</time></trkpt><trkpt lat="44.0701316" lon="8.1691268"><ele>22.0</ele><time>2026-04-22T07:38:38.543Z</time></trkpt><trkpt lat="44.0701982" lon="8.1690692"><ele>22.0</ele><time>2026-04-22T07:38:39.542Z</time></trkpt><trkpt lat="44.0702567" lon="8.1689888"><ele>22.0</ele><time>2026-04-22T07:38:41.543Z</time></trkpt><trkpt lat="44.0702338" lon="8.1688849"><ele>22.0</ele><time>2026-04-22T07:38:44.542Z</time></trkpt><trkpt lat="44.0702528" lon="8.1687993"><ele>22.0</ele><time>2026-04-22T07:38:46.543Z</time></trkpt><trkpt lat="44.0702732" lon="8.1686863"><ele>22.0</ele><time>2026-04-22T07:38:49.543Z</time></trkpt><trkpt lat="44.0703492" lon="8.1685609"><ele>22.0</ele><time>2026-04-22T07:38:51.543Z</time></trkpt><trkpt lat="44.0704002" lon="8.1685054"><ele>22.0</ele><time>2026-04-22T07:38:52.543Z</time></trkpt><trkpt lat="44.0704657" lon="8.168459"><ele>22.0</ele><time>2026-04-22T07:38:53.543Z</time></trkpt><trkpt lat="44.070529" lon="8.1684039"><ele>22.0</ele><time>2026-04-22T07:38:54.543Z</time></trkpt><trkpt lat="44.0705836" lon="8.1683535"><ele>22.0</ele><time>2026-04-22T07:38:55.543Z</time></trkpt><trkpt lat="44.070634" lon="8.1682722"><ele>22.0</ele><time>2026-04-22T07:38:57.543Z</time></trkpt><trkpt lat="44.0706892" lon="8.1682235"><ele>22.0</ele><time>2026-04-22T07:39:00.543Z</time></trkpt><trkpt lat="44.0707491" lon="8.1681731"><ele>22.333333333333332</ele><time>2026-04-22T07:39:02.542Z</time></trkpt><trkpt lat="44.0708533" lon="8.1680945"><ele>22.666666666666664</ele><time>2026-04-22T07:39:04.543Z</time></trkpt><trkpt lat="44.0709067" lon="8.1680337"><ele>23.0</ele><time>2026-04-22T07:39:05.542Z</time></trkpt><trkpt lat="44.0709709" lon="8.167973"><ele>23.333333333333332</ele><time>2026-04-22T07:39:06.543Z</time></trkpt><trkpt lat="44.0710409" lon="8.1679052"><ele>23.666666666666668</ele><time>2026-04-22T07:39:07.543Z</time></trkpt><trkpt lat="44.0711229" lon="8.1678364"><ele>24.0</ele><time>2026-04-22T07:39:08.543Z</time></trkpt><trkpt lat="44.0712054" lon="8.1677673"><ele>24.0</ele><time>2026-04-22T07:39:09.543Z</time></trkpt><trkpt lat="44.0712915" lon="8.1677002"><ele>24.0</ele><time>2026-04-22T07:39:10.543Z</time></trkpt><trkpt lat="44.0713772" lon="8.1676259"><ele>24.0</ele><time>2026-04-22T07:39:11.543Z</time></trkpt><trkpt lat="44.0714614" lon="8.1675517"><ele>24.0</ele><time>2026-04-22T07:39:12.543Z</time></trkpt><trkpt lat="44.0715495" lon="8.1674753"><ele>24.0</ele><time>2026-04-22T07:39:13.543Z</time></trkpt><trkpt lat="44.0716381" lon="8.1673849"><ele>24.6</ele><time>2026-04-22T07:39:14.543Z</time></trkpt><trkpt lat="44.0717253" lon="8.1673068"><ele>25.2</ele><time>2026-04-22T07:39:15.543Z</time></trkpt><trkpt lat="44.0718082" lon="8.1672249"><ele>25.800000000000004</ele><time>2026-04-22T07:39:16.543Z</time></trkpt><trkpt lat="44.0718958" lon="8.1671422"><ele>26.400000000000002</ele><time>2026-04-22T07:39:17.543Z</time></trkpt><trkpt lat="44.0719918" lon="8.1670734"><ele>27.0</ele><time>2026-04-22T07:39:18.543Z</time></trkpt><trkpt lat="44.072088" lon="8.1670051"><ele>27.0</ele><time>2026-04-22T07:39:19.542Z</time></trkpt><trkpt lat="44.0722049" lon="8.166951"><ele>27.0</ele><time>2026-04-22T07:39:20.543Z</time></trkpt><trkpt lat="44.072325" lon="8.16691"><ele>27.0</ele><time>2026-04-22T07:39:21.542Z</time></trkpt><trkpt lat="44.072454" lon="8.1668827"><ele>27.0</ele><time>2026-04-22T07:39:22.543Z</time></trkpt><trkpt lat="44.0725802" lon="8.1668552"><ele>26.75</ele><time>2026-04-22T07:39:23.542Z</time></trkpt><trkpt lat="44.0726995" lon="8.1668276"><ele>26.5</ele><time>2026-04-22T07:39:24.543Z</time></trkpt><trkpt lat="44.0728174" lon="8.1667549"><ele>26.25</ele><time>2026-04-22T07:39:25.543Z</time></trkpt><trkpt lat="44.0729229" lon="8.1666363"><ele>26.0</ele><time>2026-04-22T07:39:26.543Z</time></trkpt><trkpt lat="44.0730167" lon="8.1664935"><ele>26.0</ele><time>2026-04-22T07:39:27.543Z</time></trkpt><trkpt lat="44.0731057" lon="8.1663333"><ele>26.0</ele><time>2026-04-22T07:39:28.542Z</time></trkpt><trkpt lat="44.0732065" lon="8.1661662"><ele>26.0</ele><time>2026-04-22T07:39:29.543Z</time></trkpt><trkpt lat="44.0733114" lon="8.1660119"><ele>26.0</ele><time>2026-04-22T07:39:30.543Z</time></trkpt><trkpt lat="44.0734108" lon="8.1658607"><ele>26.0</ele><time>2026-04-22T07:39:31.542Z</time></trkpt><trkpt lat="44.0735034" lon="8.1656995"><ele>26.0</ele><time>2026-04-22T07:39:32.543Z</time></trkpt><trkpt lat="44.0735819" lon="8.1655394"><ele>26.0</ele><time>2026-04-22T07:39:33.543Z</time></trkpt><trkpt lat="44.0736457" lon="8.1653659"><ele>26.5</ele><time>2026-04-22T07:39:34.543Z</time></trkpt><trkpt lat="44.0736908" lon="8.1651816"><ele>27.0</ele><time>2026-04-22T07:39:35.543Z</time></trkpt><trkpt lat="44.0737318" lon="8.1650018"><ele>27.5</ele><time>2026-04-22T07:39:36.543Z</time></trkpt><trkpt lat="44.0737592" lon="8.1648121"><ele>28.0</ele><time>2026-04-22T07:39:37.543Z</time></trkpt><trkpt lat="44.0737845" lon="8.1646052"><ele>28.0</ele><time>2026-04-22T07:39:38.543Z</time></trkpt><trkpt lat="44.0738083" lon="8.1644008"><ele>28.0</ele><time>2026-04-22T07:39:39.543Z</time></trkpt><trkpt lat="44.0738388" lon="8.1641847"><ele>28.0</ele><time>2026-04-22T07:39:40.543Z</time></trkpt><trkpt lat="44.0738572" lon="8.1639694"><ele>28.0</ele><time>2026-04-22T07:39:41.543Z</time></trkpt><trkpt lat="44.0738808" lon="8.1637584"><ele>28.0</ele><time>2026-04-22T07:39:42.543Z</time></trkpt><trkpt lat="44.0739165" lon="8.1635603"><ele>28.0</ele><time>2026-04-22T07:39:43.543Z</time></trkpt><trkpt lat="44.073962" lon="8.1633741"><ele>28.0</ele><time>2026-04-22T07:39:44.543Z</time></trkpt><trkpt lat="44.0740111" lon="8.1631922"><ele>28.25</ele><time>2026-04-22T07:39:45.542Z</time></trkpt><trkpt lat="44.0740555" lon="8.1630131"><ele>28.5</ele><time>2026-04-22T07:39:46.542Z</time></trkpt><trkpt lat="44.0741004" lon="8.1628217"><ele>28.75</ele><time>2026-04-22T07:39:47.543Z</time></trkpt><trkpt lat="44.0741352" lon="8.1626115"><ele>29.0</ele><time>2026-04-22T07:39:48.543Z</time></trkpt><trkpt lat="44.07418" lon="8.162403"><ele>29.5</ele><time>2026-04-22T07:39:49.543Z</time></trkpt><trkpt lat="44.074231" lon="8.162209"><ele>30.0</ele><time>2026-04-22T07:39:50.543Z</time></trkpt><trkpt lat="44.0742921" lon="8.1620242"><ele>30.5</ele><time>2026-04-22T07:39:51.543Z</time></trkpt><trkpt lat="44.0743567" lon="8.1618385"><ele>31.0</ele><time>2026-04-22T07:39:52.543Z</time></trkpt><trkpt lat="44.0744298" lon="8.1616441"><ele>30.666666666666668</ele><time>2026-04-22T07:39:53.543Z</time></trkpt><trkpt lat="44.0745164" lon="8.1614554"><ele>30.333333333333336</ele><time>2026-04-22T07:39:54.543Z</time></trkpt><trkpt lat="44.0746109" lon="8.1612816"><ele>30.0</ele><time>2026-04-22T07:39:55.543Z</time></trkpt><trkpt lat="44.0747119" lon="8.1611306"><ele>30.0</ele><time>2026-04-22T07:39:56.543Z</time></trkpt><trkpt lat="44.0748144" lon="8.1609985"><ele>30.0</ele><time>2026-04-22T07:39:57.543Z</time></trkpt><trkpt lat="44.0749182" lon="8.1608491"><ele>30.0</ele><time>2026-04-22T07:39:58.542Z</time></trkpt><trkpt lat="44.0750245" lon="8.1607034"><ele>30.0</ele><time>2026-04-22T07:39:59.543Z</time></trkpt><trkpt lat="44.0751269" lon="8.1605569"><ele>31.0</ele><time>2026-04-22T07:40:00.543Z</time></trkpt><trkpt lat="44.0752071" lon="8.1603774"><ele>32.0</ele><time>2026-04-22T07:40:01.543Z</time></trkpt><trkpt lat="44.0752792" lon="8.1601908"><ele>33.0</ele><time>2026-04-22T07:40:02.543Z</time></trkpt><trkpt lat="44.0753562" lon="8.1600184"><ele>32.0</ele><time>2026-04-22T07:40:03.543Z</time></trkpt><trkpt lat="44.0754305" lon="8.1598471"><ele>31.0</ele><time>2026-04-22T07:40:04.543Z</time></trkpt><trkpt lat="44.0755142" lon="8.1596645"><ele>30.0</ele><time>2026-04-22T07:40:05.543Z</time></trkpt><trkpt lat="44.07561" lon="8.1595003"><ele>30.0</ele><time>2026-04-22T07:40:06.543Z</time></trkpt><trkpt lat="44.0757229" lon="8.1593382"><ele>30.0</ele><time>2026-04-22T07:40:07.543Z</time></trkpt><trkpt lat="44.0758414" lon="8.1591784"><ele>30.0</ele><time>2026-04-22T07:40:08.543Z</time></trkpt><trkpt lat="44.0759574" lon="8.1590383"><ele>30.333333333333336</ele><time>2026-04-22T07:40:09.543Z</time></trkpt><trkpt lat="44.0760705" lon="8.1588874"><ele>30.666666666666668</ele><time>2026-04-22T07:40:10.543Z</time></trkpt><trkpt lat="44.0761919" lon="8.1587411"><ele>31.0</ele><time>2026-04-22T07:40:11.543Z</time></trkpt><trkpt lat="44.0763212" lon="8.1585981"><ele>31.0</ele><time>2026-04-22T07:40:12.543Z</time></trkpt><trkpt lat="44.0764448" lon="8.1584557"><ele>31.0</ele><time>2026-04-22T07:40:13.543Z</time></trkpt><trkpt lat="44.0765785" lon="8.1583431"><ele>31.0</ele><time>2026-04-22T07:40:14.543Z</time></trkpt><trkpt lat="44.0767082" lon="8.158233"><ele>31.333333333333336</ele><time>2026-04-22T07:40:15.543Z</time></trkpt><trkpt lat="44.0768428" lon="8.1581339"><ele>31.666666666666664</ele><time>2026-04-22T07:40:16.543Z</time></trkpt><trkpt lat="44.0769855" lon="8.1580417"><ele>32.0</ele><time>2026-04-22T07:40:17.543Z</time></trkpt><trkpt lat="44.0771307" lon="8.157962"><ele>32.0</ele><time>2026-04-22T07:40:18.543Z</time></trkpt><trkpt lat="44.0772846" lon="8.1578817"><ele>32.0</ele><time>2026-04-22T07:40:19.543Z</time></trkpt><trkpt lat="44.0774353" lon="8.1578093"><ele>32.0</ele><time>2026-04-22T07:40:20.543Z</time></trkpt><trkpt lat="44.0775741" lon="8.157748"><ele>33.666666666666664</ele><time>2026-04-22T07:40:21.543Z</time></trkpt><trkpt lat="44.0777173" lon="8.1576923"><ele>35.333333333333336</ele><time>2026-04-22T07:40:22.543Z</time></trkpt><trkpt lat="44.0778687" lon="8.1576225"><ele>37.0</ele><time>2026-04-22T07:40:23.543Z</time></trkpt><trkpt lat="44.078019" lon="8.1575561"><ele>37.0</ele><time>2026-04-22T07:40:24.543Z</time></trkpt><trkpt lat="44.0781706" lon="8.1574763"><ele>37.0</ele><time>2026-04-22T07:40:25.542Z</time></trkpt><trkpt lat="44.0783123" lon="8.1573935"><ele>37.0</ele><time>2026-04-22T07:40:26.542Z</time></trkpt><trkpt lat="44.0784423" lon="8.1573169"><ele>36.75</ele><time>2026-04-22T07:40:27.542Z</time></trkpt><trkpt lat="44.0785567" lon="8.1572406"><ele>36.5</ele><time>2026-04-22T07:40:28.543Z</time></trkpt><trkpt lat="44.0786614" lon="8.1571707"><ele>36.25</ele><time>2026-04-22T07:40:29.542Z</time></trkpt><trkpt lat="44.0787582" lon="8.1571141"><ele>36.0</ele><time>2026-04-22T07:40:30.543Z</time></trkpt><trkpt lat="44.0788634" lon="8.1570596"><ele>36.0</ele><time>2026-04-22T07:40:31.543Z</time></trkpt><trkpt lat="44.0789714" lon="8.157007"><ele>36.0</ele><time>2026-04-22T07:40:32.543Z</time></trkpt><trkpt lat="44.0790818" lon="8.1569524"><ele>36.0</ele><time>2026-04-22T07:40:33.543Z</time></trkpt><trkpt lat="44.0791874" lon="8.1569038"><ele>36.0</ele><time>2026-04-22T07:40:34.543Z</time></trkpt><trkpt lat="44.0792969" lon="8.1568562"><ele>36.0</ele><time>2026-04-22T07:40:35.543Z</time></trkpt><trkpt lat="44.0793992" lon="8.1568068"><ele>36.0</ele><time>2026-04-22T07:40:36.542Z</time></trkpt><trkpt lat="44.0795034" lon="8.1567641"><ele>36.0</ele><time>2026-04-22T07:40:37.543Z</time></trkpt><trkpt lat="44.079608" lon="8.1567192"><ele>36.0</ele><time>2026-04-22T07:40:38.543Z</time></trkpt><trkpt lat="44.0797172" lon="8.1566728"><ele>36.0</ele><time>2026-04-22T07:40:39.543Z</time></trkpt><trkpt lat="44.0798365" lon="8.1566168"><ele>36.333333333333336</ele><time>2026-04-22T07:40:40.543Z</time></trkpt><trkpt lat="44.0799681" lon="8.1565523"><ele>36.66666666666667</ele><time>2026-04-22T07:40:41.543Z</time></trkpt><trkpt lat="44.0801231" lon="8.1564651"><ele>37.0</ele><time>2026-04-22T07:40:42.543Z</time></trkpt><trkpt lat="44.080287" lon="8.156373"><ele>37.0</ele><time>2026-04-22T07:40:43.543Z</time></trkpt><trkpt lat="44.0804439" lon="8.1562777"><ele>37.0</ele><time>2026-04-22T07:40:44.543Z</time></trkpt><trkpt lat="44.0805927" lon="8.1561771"><ele>37.0</ele><time>2026-04-22T07:40:45.542Z</time></trkpt><trkpt lat="44.0807323" lon="8.1560554"><ele>38.0</ele><time>2026-04-22T07:40:46.543Z</time></trkpt><trkpt lat="44.0808901" lon="8.1558991"><ele>39.0</ele><time>2026-04-22T07:40:47.543Z</time></trkpt><trkpt lat="44.081072" lon="8.1557303"><ele>40.0</ele><time>2026-04-22T07:40:48.543Z</time></trkpt><trkpt lat="44.081269" lon="8.1555454"><ele>40.0</ele><time>2026-04-22T07:40:49.543Z</time></trkpt><trkpt lat="44.0814699" lon="8.1553479"><ele>40.0</ele><time>2026-04-22T07:40:50.543Z</time></trkpt><trkpt lat="44.0816657" lon="8.1551751"><ele>41.333333333333336</ele><time>2026-04-22T07:40:51.543Z</time></trkpt><trkpt lat="44.0818497" lon="8.1550063"><ele>42.666666666666664</ele><time>2026-04-22T07:40:52.543Z</time></trkpt><trkpt lat="44.0820271" lon="8.1548378"><ele>44.0</ele><time>2026-04-22T07:40:53.542Z</time></trkpt><trkpt lat="44.0821856" lon="8.1546632"><ele>44.33333333333333</ele><time>2026-04-22T07:40:54.542Z</time></trkpt><trkpt lat="44.0823277" lon="8.1544711"><ele>44.666666666666664</ele><time>2026-04-22T07:40:55.543Z</time></trkpt><trkpt lat="44.0824759" lon="8.1542836"><ele>45.0</ele><time>2026-04-22T07:40:56.543Z</time></trkpt><trkpt lat="44.0826077" lon="8.1541083"><ele>45.666666666666664</ele><time>2026-04-22T07:40:57.543Z</time></trkpt><trkpt lat="44.0827335" lon="8.1539391"><ele>46.33333333333333</ele><time>2026-04-22T07:40:58.543Z</time></trkpt><trkpt lat="44.0828403" lon="8.1537582"><ele>47.0</ele><time>2026-04-22T07:40:59.542Z</time></trkpt><trkpt lat="44.0829487" lon="8.1535834"><ele>47.0</ele><time>2026-04-22T07:41:00.542Z</time></trkpt><trkpt lat="44.0830481" lon="8.1534028"><ele>47.0</ele><time>2026-04-22T07:41:01.543Z</time></trkpt><trkpt lat="44.0831508" lon="8.1532264"><ele>47.0</ele><time>2026-04-22T07:41:02.542Z</time></trkpt><trkpt lat="44.0832565" lon="8.153056"><ele>48.0</ele><time>2026-04-22T07:41:03.543Z</time></trkpt><trkpt lat="44.083357" lon="8.1528923"><ele>49.0</ele><time>2026-04-22T07:41:04.543Z</time></trkpt><trkpt lat="44.0834541" lon="8.1527487"><ele>50.0</ele><time>2026-04-22T07:41:05.543Z</time></trkpt><trkpt lat="44.0835289" lon="8.1526311"><ele>51.0</ele><time>2026-04-22T07:41:06.543Z</time></trkpt><trkpt lat="44.083607" lon="8.1525174"><ele>51.0</ele><time>2026-04-22T07:41:07.543Z</time></trkpt><trkpt lat="44.0836872" lon="8.1524005"><ele>51.0</ele><time>2026-04-22T07:41:08.542Z</time></trkpt><trkpt lat="44.0837696" lon="8.1522738"><ele>51.0</ele><time>2026-04-22T07:41:09.543Z</time></trkpt><trkpt lat="44.0838544" lon="8.1521573"><ele>51.0</ele><time>2026-04-22T07:41:10.543Z</time></trkpt><trkpt lat="44.0839392" lon="8.1520263"><ele>50.75</ele><time>2026-04-22T07:41:11.543Z</time></trkpt><trkpt lat="44.0840259" lon="8.1518872"><ele>50.5</ele><time>2026-04-22T07:41:12.543Z</time></trkpt><trkpt lat="44.0841113" lon="8.1517282"><ele>50.25</ele><time>2026-04-22T07:41:13.543Z</time></trkpt><trkpt lat="44.0842014" lon="8.1515852"><ele>50.0</ele><time>2026-04-22T07:41:14.543Z</time></trkpt><trkpt lat="44.0842911" lon="8.1514699"><ele>49.75</ele><time>2026-04-22T07:41:15.543Z</time></trkpt><trkpt lat="44.0843734" lon="8.1513565"><ele>49.5</ele><time>2026-04-22T07:41:16.543Z</time></trkpt><trkpt lat="44.0844532" lon="8.1512124"><ele>49.25</ele><time>2026-04-22T07:41:17.543Z</time></trkpt><trkpt lat="44.0845315" lon="8.1510764"><ele>49.0</ele><time>2026-04-22T07:41:18.542Z</time></trkpt><trkpt lat="44.0846091" lon="8.1509622"><ele>48.99999999999999</ele><time>2026-04-22T07:41:19.543Z</time></trkpt><trkpt lat="44.0846736" lon="8.1508603"><ele>49.0</ele><time>2026-04-22T07:41:20.543Z</time></trkpt><trkpt lat="44.0847321" lon="8.1507701"><ele>49.0</ele><time>2026-04-22T07:41:21.543Z</time></trkpt><trkpt lat="44.0847817" lon="8.1506741"><ele>49.0</ele><time>2026-04-22T07:41:22.543Z</time></trkpt><trkpt lat="44.0848223" lon="8.1505757"><ele>48.99999999999999</ele><time>2026-04-22T07:41:23.543Z</time></trkpt><trkpt lat="44.0848658" lon="8.1504966"><ele>49.0</ele><time>2026-04-22T07:41:24.543Z</time></trkpt><trkpt lat="44.0849338" lon="8.1504002"><ele>49.25</ele><time>2026-04-22T07:41:26.543Z</time></trkpt><trkpt lat="44.084962" lon="8.1502942"><ele>49.5</ele><time>2026-04-22T07:41:28.543Z</time></trkpt><trkpt lat="44.085013" lon="8.1501638"><ele>49.75</ele><time>2026-04-22T07:41:30.542Z</time></trkpt><trkpt lat="44.0850724" lon="8.1500302"><ele>50.0</ele><time>2026-04-22T07:41:31.543Z</time></trkpt><trkpt lat="44.085159" lon="8.1498605"><ele>50.0</ele><time>2026-04-22T07:41:32.543Z</time></trkpt><trkpt lat="44.0852541" lon="8.1496774"><ele>50.0</ele><time>2026-04-22T07:41:33.543Z</time></trkpt><trkpt lat="44.0853504" lon="8.149501"><ele>50.0</ele><time>2026-04-22T07:41:34.543Z</time></trkpt><trkpt lat="44.0854451" lon="8.1493331"><ele>50.0</ele><time>2026-04-22T07:41:35.542Z</time></trkpt><trkpt lat="44.0855462" lon="8.1491999"><ele>50.0</ele><time>2026-04-22T07:41:36.543Z</time></trkpt><trkpt lat="44.0856336" lon="8.1491026"><ele>50.0</ele><time>2026-04-22T07:41:37.543Z</time></trkpt><trkpt lat="44.0857131" lon="8.1490443"><ele>50.0</ele><time>2026-04-22T07:41:38.543Z</time></trkpt><trkpt lat="44.085786" lon="8.1489854"><ele>50.0</ele><time>2026-04-22T07:41:39.543Z</time></trkpt><trkpt lat="44.0858473" lon="8.1489007"><ele>50.66666666666667</ele><time>2026-04-22T07:41:40.543Z</time></trkpt><trkpt lat="44.0859044" lon="8.1488164"><ele>51.333333333333336</ele><time>2026-04-22T07:41:41.543Z</time></trkpt><trkpt lat="44.0859625" lon="8.1487336"><ele>52.0</ele><time>2026-04-22T07:41:42.543Z</time></trkpt><trkpt lat="44.0860204" lon="8.1486523"><ele>52.66666666666667</ele><time>2026-04-22T07:41:43.542Z</time></trkpt><trkpt lat="44.0860811" lon="8.1485768"><ele>53.333333333333336</ele><time>2026-04-22T07:41:44.543Z</time></trkpt><trkpt lat="44.0861454" lon="8.148499"><ele>54.0</ele><time>2026-04-22T07:41:45.543Z</time></trkpt><trkpt lat="44.0862205" lon="8.1484184"><ele>54.0</ele><time>2026-04-22T07:41:46.543Z</time></trkpt><trkpt lat="44.0862908" lon="8.1483278"><ele>54.00000000000001</ele><time>2026-04-22T07:41:47.543Z</time></trkpt><trkpt lat="44.0863573" lon="8.1482236"><ele>54.00000000000001</ele><time>2026-04-22T07:41:48.543Z</time></trkpt><trkpt lat="44.0864295" lon="8.1481267"><ele>54.0</ele><time>2026-04-22T07:41:49.543Z</time></trkpt><trkpt lat="44.0864969" lon="8.148025"><ele>54.0</ele><time>2026-04-22T07:41:50.542Z</time></trkpt><trkpt lat="44.0865665" lon="8.147937"><ele>54.6</ele><time>2026-04-22T07:41:51.542Z</time></trkpt><trkpt lat="44.0866396" lon="8.1478439"><ele>55.2</ele><time>2026-04-22T07:41:52.543Z</time></trkpt><trkpt lat="44.0867163" lon="8.1477392"><ele>55.800000000000004</ele><time>2026-04-22T07:41:53.543Z</time></trkpt><trkpt lat="44.0867962" lon="8.1476371"><ele>56.400000000000006</ele><time>2026-04-22T07:41:54.543Z</time></trkpt><trkpt lat="44.0868747" lon="8.1475415"><ele>57.0</ele><time>2026-04-22T07:41:55.543Z</time></trkpt><trkpt lat="44.0869429" lon="8.1474388"><ele>57.2</ele><time>2026-04-22T07:41:56.543Z</time></trkpt><trkpt lat="44.0870105" lon="8.1473472"><ele>57.400000000000006</ele><time>2026-04-22T07:41:57.543Z</time></trkpt><trkpt lat="44.0870817" lon="8.1472521"><ele>57.599999999999994</ele><time>2026-04-22T07:41:58.543Z</time></trkpt><trkpt lat="44.0871532" lon="8.1471525"><ele>57.8</ele><time>2026-04-22T07:41:59.543Z</time></trkpt><trkpt lat="44.0872253" lon="8.1470581"><ele>58.0</ele><time>2026-04-22T07:42:00.542Z</time></trkpt><trkpt lat="44.087294" lon="8.1469713"><ele>57.99999999999999</ele><time>2026-04-22T07:42:01.543Z</time></trkpt><trkpt lat="44.0873647" lon="8.1468806"><ele>58.0</ele><time>2026-04-22T07:42:02.543Z</time></trkpt><trkpt lat="44.0874302" lon="8.1467958"><ele>58.0</ele><time>2026-04-22T07:42:03.543Z</time></trkpt><trkpt lat="44.0874855" lon="8.1467202"><ele>58.0</ele><time>2026-04-22T07:42:04.542Z</time></trkpt><trkpt lat="44.0875381" lon="8.1466362"><ele>57.99999999999999</ele><time>2026-04-22T07:42:05.543Z</time></trkpt><trkpt lat="44.0875821" lon="8.1465445"><ele>58.0</ele><time>2026-04-22T07:42:06.543Z</time></trkpt><trkpt lat="44.0876264" lon="8.1464424"><ele>58.25</ele><time>2026-04-22T07:42:07.542Z</time></trkpt><trkpt lat="44.0876659" lon="8.1463226"><ele>58.5</ele><time>2026-04-22T07:42:08.542Z</time></trkpt><trkpt lat="44.0876952" lon="8.1461705"><ele>58.75</ele><time>2026-04-22T07:42:09.543Z</time></trkpt><trkpt lat="44.0877442" lon="8.1460028"><ele>59.0</ele><time>2026-04-22T07:42:10.543Z</time></trkpt><trkpt lat="44.0877938" lon="8.1458116"><ele>58.0</ele><time>2026-04-22T07:42:11.543Z</time></trkpt><trkpt lat="44.0878522" lon="8.1456147"><ele>57.0</ele><time>2026-04-22T07:42:12.543Z</time></trkpt><trkpt lat="44.0879193" lon="8.1454438"><ele>56.0</ele><time>2026-04-22T07:42:13.542Z</time></trkpt><trkpt lat="44.0879683" lon="8.1452778"><ele>55.0</ele><time>2026-04-22T07:42:14.543Z</time></trkpt><trkpt lat="44.0880048" lon="8.1451167"><ele>55.0</ele><time>2026-04-22T07:42:15.543Z</time></trkpt><trkpt lat="44.0880468" lon="8.1449574"><ele>55.0</ele><time>2026-04-22T07:42:16.543Z</time></trkpt><trkpt lat="44.0880958" lon="8.1448064"><ele>55.0</ele><time>2026-04-22T07:42:17.543Z</time></trkpt><trkpt lat="44.0881444" lon="8.1446471"><ele>55.0</ele><time>2026-04-22T07:42:18.543Z</time></trkpt><trkpt lat="44.0881799" lon="8.1444782"><ele>55.0</ele><time>2026-04-22T07:42:19.543Z</time></trkpt><trkpt lat="44.0882192" lon="8.1443044"><ele>55.0</ele><time>2026-04-22T07:42:20.543Z</time></trkpt><trkpt lat="44.0882608" lon="8.1441368"><ele>55.0</ele><time>2026-04-22T07:42:21.543Z</time></trkpt><trkpt lat="44.0883067" lon="8.1439715"><ele>55.0</ele><time>2026-04-22T07:42:22.543Z</time></trkpt><trkpt lat="44.0883517" lon="8.1438211"><ele>55.0</ele><time>2026-04-22T07:42:23.542Z</time></trkpt><trkpt lat="44.0883975" lon="8.1436716"><ele>55.0</ele><time>2026-04-22T07:42:24.543Z</time></trkpt><trkpt lat="44.0884399" lon="8.1435157"><ele>55.0</ele><time>2026-04-22T07:42:25.543Z</time></trkpt><trkpt lat="44.0884859" lon="8.1433706"><ele>55.0</ele><time>2026-04-22T07:42:26.543Z</time></trkpt><trkpt lat="44.088534" lon="8.1432249"><ele>53.75</ele><time>2026-04-22T07:42:27.543Z</time></trkpt><trkpt lat="44.0885864" lon="8.1430632"><ele>52.5</ele><time>2026-04-22T07:42:28.543Z</time></trkpt><trkpt lat="44.0886273" lon="8.142888"><ele>51.25</ele><time>2026-04-22T07:42:29.543Z</time></trkpt><trkpt lat="44.0886554" lon="8.1426928"><ele>50.0</ele><time>2026-04-22T07:42:30.543Z</time></trkpt><trkpt lat="44.0886795" lon="8.1424774"><ele>51.0</ele><time>2026-04-22T07:42:31.543Z</time></trkpt><trkpt lat="44.0887122" lon="8.1422197"><ele>52.0</ele><time>2026-04-22T07:42:32.543Z</time></trkpt><trkpt lat="44.0887515" lon="8.1419415"><ele>53.0</ele><time>2026-04-22T07:42:33.543Z</time></trkpt><trkpt lat="44.0887875" lon="8.141649"><ele>53.0</ele><time>2026-04-22T07:42:34.543Z</time></trkpt><trkpt lat="44.0888396" lon="8.1413468"><ele>53.0</ele><time>2026-04-22T07:42:35.543Z</time></trkpt><trkpt lat="44.0888887" lon="8.1410436"><ele>53.0</ele><time>2026-04-22T07:42:36.543Z</time></trkpt><trkpt lat="44.0889257" lon="8.1407573"><ele>52.0</ele><time>2026-04-22T07:42:37.543Z</time></trkpt><trkpt lat="44.0889573" lon="8.1404905"><ele>51.0</ele><time>2026-04-22T07:42:38.543Z</time></trkpt><trkpt lat="44.0889882" lon="8.1402293"><ele>50.0</ele><time>2026-04-22T07:42:39.543Z</time></trkpt><trkpt lat="44.0890281" lon="8.1399796"><ele>51.333333333333336</ele><time>2026-04-22T07:42:40.543Z</time></trkpt><trkpt lat="44.0890885" lon="8.1397529"><ele>52.66666666666667</ele><time>2026-04-22T07:42:41.542Z</time></trkpt><trkpt lat="44.0891922" lon="8.139546"><ele>54.0</ele><time>2026-04-22T07:42:42.543Z</time></trkpt><trkpt lat="44.089299" lon="8.1393431"><ele>53.66666666666667</ele><time>2026-04-22T07:42:43.543Z</time></trkpt><trkpt lat="44.0893964" lon="8.1391145"><ele>53.333333333333336</ele><time>2026-04-22T07:42:44.543Z</time></trkpt><trkpt lat="44.0894996" lon="8.1388844"><ele>53.0</ele><time>2026-04-22T07:42:45.543Z</time></trkpt><trkpt lat="44.0896016" lon="8.1386731"><ele>53.0</ele><time>2026-04-22T07:42:46.543Z</time></trkpt><trkpt lat="44.0897185" lon="8.1384497"><ele>53.0</ele><time>2026-04-22T07:42:47.543Z</time></trkpt><trkpt lat="44.0898426" lon="8.1382299"><ele>53.0</ele><time>2026-04-22T07:42:48.543Z</time></trkpt><trkpt lat="44.089962" lon="8.137994"><ele>54.66666666666667</ele><time>2026-04-22T07:42:49.543Z</time></trkpt><trkpt lat="44.0900891" lon="8.1377587"><ele>56.33333333333333</ele><time>2026-04-22T07:42:50.543Z</time></trkpt><trkpt lat="44.0902183" lon="8.137537"><ele>58.0</ele><time>2026-04-22T07:42:51.543Z</time></trkpt><trkpt lat="44.0903377" lon="8.1372938"><ele>58.0</ele><time>2026-04-22T07:42:52.543Z</time></trkpt><trkpt lat="44.0904457" lon="8.1370322"><ele>58.0</ele><time>2026-04-22T07:42:53.543Z</time></trkpt><trkpt lat="44.0905581" lon="8.1367735"><ele>58.0</ele><time>2026-04-22T07:42:54.543Z</time></trkpt><trkpt lat="44.0906791" lon="8.1365333"><ele>58.666666666666664</ele><time>2026-04-22T07:42:55.543Z</time></trkpt><trkpt lat="44.0908054" lon="8.1362965"><ele>59.33333333333333</ele><time>2026-04-22T07:42:56.542Z</time></trkpt><trkpt lat="44.0909149" lon="8.1360617"><ele>60.0</ele><time>2026-04-22T07:42:57.543Z</time></trkpt><trkpt lat="44.0910159" lon="8.1358405"><ele>59.33333333333333</ele><time>2026-04-22T07:42:58.543Z</time></trkpt><trkpt lat="44.0911291" lon="8.1356489"><ele>58.666666666666664</ele><time>2026-04-22T07:42:59.542Z</time></trkpt><trkpt lat="44.0912362" lon="8.135462"><ele>58.0</ele><time>2026-04-22T07:43:00.543Z</time></trkpt><trkpt lat="44.0913202" lon="8.1352553"><ele>58.0</ele><time>2026-04-22T07:43:01.543Z</time></trkpt><trkpt lat="44.0913821" lon="8.1350395"><ele>58.0</ele><time>2026-04-22T07:43:02.543Z</time></trkpt><trkpt lat="44.0914188" lon="8.134792"><ele>58.0</ele><time>2026-04-22T07:43:03.543Z</time></trkpt><trkpt lat="44.0914586" lon="8.1345043"><ele>61.5</ele><time>2026-04-22T07:43:04.543Z</time></trkpt><trkpt lat="44.0915097" lon="8.1341911"><ele>65.0</ele><time>2026-04-22T07:43:05.543Z</time></trkpt><trkpt lat="44.0915596" lon="8.1338693"><ele>67.0</ele><time>2026-04-22T07:43:06.543Z</time></trkpt><trkpt lat="44.0916004" lon="8.133548"><ele>69.0</ele><time>2026-04-22T07:43:07.543Z</time></trkpt><trkpt lat="44.0916401" lon="8.1332384"><ele>68.66666666666667</ele><time>2026-04-22T07:43:08.543Z</time></trkpt><trkpt lat="44.0916768" lon="8.1329486"><ele>68.33333333333334</ele><time>2026-04-22T07:43:09.543Z</time></trkpt><trkpt lat="44.0917249" lon="8.1326804"><ele>68.0</ele><time>2026-04-22T07:43:10.543Z</time></trkpt><trkpt lat="44.0917864" lon="8.1324543"><ele>67.66666666666667</ele><time>2026-04-22T07:43:11.542Z</time></trkpt><trkpt lat="44.091832" lon="8.132222"><ele>67.33333333333333</ele><time>2026-04-22T07:43:12.543Z</time></trkpt><trkpt lat="44.0918607" lon="8.131994"><ele>67.0</ele><time>2026-04-22T07:43:13.543Z</time></trkpt><trkpt lat="44.0918667" lon="8.1317477"><ele>67.0</ele><time>2026-04-22T07:43:14.543Z</time></trkpt><trkpt lat="44.0918508" lon="8.1314831"><ele>67.0</ele><time>2026-04-22T07:43:15.543Z</time></trkpt><trkpt lat="44.0918407" lon="8.1311955"><ele>67.0</ele><time>2026-04-22T07:43:16.542Z</time></trkpt><trkpt lat="44.0918368" lon="8.1309066"><ele>66.33333333333333</ele><time>2026-04-22T07:43:17.543Z</time></trkpt><trkpt lat="44.0918291" lon="8.1306327"><ele>65.66666666666667</ele><time>2026-04-22T07:43:18.543Z</time></trkpt><trkpt lat="44.0918411" lon="8.1303599"><ele>65.0</ele><time>2026-04-22T07:43:19.543Z</time></trkpt><trkpt lat="44.0918671" lon="8.1300909"><ele>66.0</ele><time>2026-04-22T07:43:20.543Z</time></trkpt><trkpt lat="44.0918988" lon="8.1298382"><ele>67.0</ele><time>2026-04-22T07:43:21.542Z</time></trkpt><trkpt lat="44.0919279" lon="8.129608"><ele>68.0</ele><time>2026-04-22T07:43:22.542Z</time></trkpt><trkpt lat="44.0919676" lon="8.1293983"><ele>68.0</ele><time>2026-04-22T07:43:23.543Z</time></trkpt><trkpt lat="44.0920206" lon="8.1292162"><ele>68.0</ele><time>2026-04-22T07:43:24.543Z</time></trkpt><trkpt lat="44.0920886" lon="8.1290411"><ele>68.0</ele><time>2026-04-22T07:43:25.543Z</time></trkpt><trkpt lat="44.0921772" lon="8.1288684"><ele>68.0</ele><time>2026-04-22T07:43:26.543Z</time></trkpt><trkpt lat="44.0922719" lon="8.1287019"><ele>68.5</ele><time>2026-04-22T07:43:27.543Z</time></trkpt><trkpt lat="44.0923639" lon="8.1285319"><ele>69.0</ele><time>2026-04-22T07:43:28.543Z</time></trkpt><trkpt lat="44.0924463" lon="8.1283794"><ele>69.5</ele><time>2026-04-22T07:43:29.543Z</time></trkpt><trkpt lat="44.0925289" lon="8.1282586"><ele>70.0</ele><time>2026-04-22T07:43:30.543Z</time></trkpt><trkpt lat="44.092622" lon="8.1281823"><ele>71.0</ele><time>2026-04-22T07:43:31.543Z</time></trkpt><trkpt lat="44.0927322" lon="8.1281276"><ele>72.0</ele><time>2026-04-22T07:43:32.543Z</time></trkpt><trkpt lat="44.0928598" lon="8.1280835"><ele>73.0</ele><time>2026-04-22T07:43:33.543Z</time></trkpt><trkpt lat="44.0930068" lon="8.1280502"><ele>74.0</ele><time>2026-04-22T07:43:34.543Z</time></trkpt><trkpt lat="44.0931639" lon="8.1280238"><ele>74.66666666666667</ele><time>2026-04-22T07:43:35.543Z</time></trkpt><trkpt lat="44.0933286" lon="8.1280183"><ele>75.33333333333333</ele><time>2026-04-22T07:43:36.543Z</time></trkpt><trkpt lat="44.0934999" lon="8.1280042"><ele>76.0</ele><time>2026-04-22T07:43:37.543Z</time></trkpt><trkpt lat="44.0936678" lon="8.1279724"><ele>76.0</ele><time>2026-04-22T07:43:38.543Z</time></trkpt><trkpt lat="44.0938336" lon="8.1279589"><ele>76.0</ele><time>2026-04-22T07:43:39.543Z</time></trkpt><trkpt lat="44.0939983" lon="8.1279788"><ele>76.0</ele><time>2026-04-22T07:43:40.543Z</time></trkpt><trkpt lat="44.0941649" lon="8.1280197"><ele>76.0</ele><time>2026-04-22T07:43:41.543Z</time></trkpt><trkpt lat="44.094343" lon="8.1280429"><ele>76.0</ele><time>2026-04-22T07:43:42.543Z</time></trkpt><trkpt lat="44.0945224" lon="8.1280389"><ele>76.0</ele><time>2026-04-22T07:43:43.543Z</time></trkpt><trkpt lat="44.0947154" lon="8.1280101"><ele>76.0</ele><time>2026-04-22T07:43:44.543Z</time></trkpt><trkpt lat="44.0949089" lon="8.1279524"><ele>76.0</ele><time>2026-04-22T07:43:45.543Z</time></trkpt><trkpt lat="44.0951052" lon="8.1278472"><ele>76.0</ele><time>2026-04-22T07:43:46.543Z</time></trkpt><trkpt lat="44.0952947" lon="8.1277399"><ele>76.33333333333333</ele><time>2026-04-22T07:43:47.543Z</time></trkpt><trkpt lat="44.095476" lon="8.1276188"><ele>76.66666666666667</ele><time>2026-04-22T07:43:48.543Z</time></trkpt><trkpt lat="44.0956495" lon="8.1274642"><ele>77.0</ele><time>2026-04-22T07:43:49.543Z</time></trkpt><trkpt lat="44.0958156" lon="8.1272852"><ele>78.66666666666667</ele><time>2026-04-22T07:43:50.542Z</time></trkpt><trkpt lat="44.0959717" lon="8.1270868"><ele>80.33333333333333</ele><time>2026-04-22T07:43:51.543Z</time></trkpt><trkpt lat="44.0961051" lon="8.1268581"><ele>82.0</ele><time>2026-04-22T07:43:52.543Z</time></trkpt><trkpt lat="44.0962352" lon="8.1266316"><ele>83.0</ele><time>2026-04-22T07:43:53.543Z</time></trkpt><trkpt lat="44.0963525" lon="8.1263787"><ele>84.0</ele><time>2026-04-22T07:43:54.543Z</time></trkpt><trkpt lat="44.0964634" lon="8.126126"><ele>85.0</ele><time>2026-04-22T07:43:55.543Z</time></trkpt><trkpt lat="44.0965728" lon="8.1258669"><ele>84.66666666666666</ele><time>2026-04-22T07:43:56.542Z</time></trkpt><trkpt lat="44.0966848" lon="8.1256424"><ele>84.33333333333333</ele><time>2026-04-22T07:43:57.543Z</time></trkpt><trkpt lat="44.0968005" lon="8.1254418"><ele>84.0</ele><time>2026-04-22T07:43:58.543Z</time></trkpt><trkpt lat="44.0969094" lon="8.1252817"><ele>84.0</ele><time>2026-04-22T07:43:59.543Z</time></trkpt><trkpt lat="44.09703" lon="8.1251527"><ele>84.0</ele><time>2026-04-22T07:44:00.543Z</time></trkpt><trkpt lat="44.0971518" lon="8.1250553"><ele>84.0</ele><time>2026-04-22T07:44:01.543Z</time></trkpt><trkpt lat="44.0972856" lon="8.1250242"><ele>84.0</ele><time>2026-04-22T07:44:02.543Z</time></trkpt><trkpt lat="44.097438" lon="8.1250219"><ele>87.0</ele><time>2026-04-22T07:44:03.543Z</time></trkpt><trkpt lat="44.0975991" lon="8.1250654"><ele>90.0</ele><time>2026-04-22T07:44:04.542Z</time></trkpt><trkpt lat="44.0977627" lon="8.1251379"><ele>93.0</ele><time>2026-04-22T07:44:05.543Z</time></trkpt><trkpt lat="44.0979327" lon="8.1252156"><ele>93.0</ele><time>2026-04-22T07:44:06.543Z</time></trkpt><trkpt lat="44.0981034" lon="8.125271"><ele>93.0</ele><time>2026-04-22T07:44:07.543Z</time></trkpt><trkpt lat="44.0982726" lon="8.1252942"><ele>93.0</ele><time>2026-04-22T07:44:08.543Z</time></trkpt><trkpt lat="44.0984398" lon="8.1253037"><ele>92.66666666666667</ele><time>2026-04-22T07:44:09.542Z</time></trkpt><trkpt lat="44.0986227" lon="8.125271"><ele>92.33333333333334</ele><time>2026-04-22T07:44:10.543Z</time></trkpt><trkpt lat="44.0987941" lon="8.1251824"><ele>92.0</ele><time>2026-04-22T07:44:11.543Z</time></trkpt><trkpt lat="44.0989386" lon="8.1250527"><ele>92.0</ele><time>2026-04-22T07:44:12.543Z</time></trkpt><trkpt lat="44.0990748" lon="8.1249042"><ele>92.0</ele><time>2026-04-22T07:44:13.542Z</time></trkpt><trkpt lat="44.0992217" lon="8.124704"><ele>92.0</ele><time>2026-04-22T07:44:14.543Z</time></trkpt><trkpt lat="44.0993644" lon="8.1244933"><ele>92.0</ele><time>2026-04-22T07:44:15.543Z</time></trkpt><trkpt lat="44.0995044" lon="8.1242969"><ele>92.0</ele><time>2026-04-22T07:44:16.543Z</time></trkpt><trkpt lat="44.0996415" lon="8.1241021"><ele>92.0</ele><time>2026-04-22T07:44:17.543Z</time></trkpt><trkpt lat="44.0997631" lon="8.1239025"><ele>92.33333333333334</ele><time>2026-04-22T07:44:18.543Z</time></trkpt><trkpt lat="44.0998718" lon="8.123727"><ele>92.66666666666667</ele><time>2026-04-22T07:44:19.543Z</time></trkpt><trkpt lat="44.0999933" lon="8.1235615"><ele>93.0</ele><time>2026-04-22T07:44:20.543Z</time></trkpt><trkpt lat="44.1001219" lon="8.1234055"><ele>93.0</ele><time>2026-04-22T07:44:21.542Z</time></trkpt><trkpt lat="44.1002642" lon="8.1232714"><ele>93.0</ele><time>2026-04-22T07:44:22.543Z</time></trkpt><trkpt lat="44.100421" lon="8.123167"><ele>93.0</ele><time>2026-04-22T07:44:23.543Z</time></trkpt><trkpt lat="44.100584" lon="8.1231006"><ele>95.33333333333334</ele><time>2026-04-22T07:44:24.543Z</time></trkpt><trkpt lat="44.1007492" lon="8.1230814"><ele>97.66666666666667</ele><time>2026-04-22T07:44:25.543Z</time></trkpt><trkpt lat="44.1009074" lon="8.1230919"><ele>100.0</ele><time>2026-04-22T07:44:26.543Z</time></trkpt><trkpt lat="44.1010543" lon="8.1231221"><ele>100.0</ele><time>2026-04-22T07:44:27.543Z</time></trkpt><trkpt lat="44.1011938" lon="8.1231811"><ele>100.0</ele><time>2026-04-22T07:44:28.543Z</time></trkpt><trkpt lat="44.1013258" lon="8.1232827"><ele>100.0</ele><time>2026-04-22T07:44:29.543Z</time></trkpt><trkpt lat="44.1014564" lon="8.1233896"><ele>100.0</ele><time>2026-04-22T07:44:30.543Z</time></trkpt><trkpt lat="44.1015694" lon="8.123485"><ele>99.4</ele><time>2026-04-22T07:44:31.543Z</time></trkpt><trkpt lat="44.1016566" lon="8.123574"><ele>98.8</ele><time>2026-04-22T07:44:32.543Z</time></trkpt><trkpt lat="44.1017463" lon="8.1236308"><ele>98.19999999999999</ele><time>2026-04-22T07:44:33.543Z</time></trkpt><trkpt lat="44.1018482" lon="8.123656"><ele>97.6</ele><time>2026-04-22T07:44:34.543Z</time></trkpt><trkpt lat="44.101958" lon="8.1236732"><ele>97.0</ele><time>2026-04-22T07:44:35.543Z</time></trkpt><trkpt lat="44.1020916" lon="8.1236891"><ele>97.0</ele><time>2026-04-22T07:44:36.542Z</time></trkpt><trkpt lat="44.1022512" lon="8.1237005"><ele>97.0</ele><time>2026-04-22T07:44:37.543Z</time></trkpt><trkpt lat="44.1024058" lon="8.1237114"><ele>97.0</ele><time>2026-04-22T07:44:38.542Z</time></trkpt><trkpt lat="44.1025618" lon="8.1237202"><ele>97.66666666666667</ele><time>2026-04-22T07:44:39.543Z</time></trkpt><trkpt lat="44.1027107" lon="8.1237515"><ele>98.33333333333334</ele><time>2026-04-22T07:44:40.542Z</time></trkpt><trkpt lat="44.1028555" lon="8.1237965"><ele>99.0</ele><time>2026-04-22T07:44:41.543Z</time></trkpt><trkpt lat="44.1030014" lon="8.1238638"><ele>99.0</ele><time>2026-04-22T07:44:42.542Z</time></trkpt><trkpt lat="44.1031336" lon="8.1239494"><ele>99.0</ele><time>2026-04-22T07:44:43.543Z</time></trkpt><trkpt lat="44.1032501" lon="8.1240197"><ele>99.0</ele><time>2026-04-22T07:44:44.543Z</time></trkpt><trkpt lat="44.1033642" lon="8.1240957"><ele>99.0</ele><time>2026-04-22T07:44:45.543Z</time></trkpt><trkpt lat="44.1034757" lon="8.1241813"><ele>100.6</ele><time>2026-04-22T07:44:46.542Z</time></trkpt><trkpt lat="44.1035858" lon="8.1242664"><ele>102.2</ele><time>2026-04-22T07:44:47.542Z</time></trkpt><trkpt lat="44.1036854" lon="8.1243384"><ele>103.79999999999998</ele><time>2026-04-22T07:44:48.543Z</time></trkpt><trkpt lat="44.103774" lon="8.1244096"><ele>105.39999999999999</ele><time>2026-04-22T07:44:49.543Z</time></trkpt><trkpt lat="44.103861" lon="8.1244637"><ele>107.0</ele><time>2026-04-22T07:44:50.543Z</time></trkpt><trkpt lat="44.1039444" lon="8.1245193"><ele>107.0</ele><time>2026-04-22T07:44:51.543Z</time></trkpt><trkpt lat="44.1040315" lon="8.1245854"><ele>106.99999999999999</ele><time>2026-04-22T07:44:52.543Z</time></trkpt><trkpt lat="44.1041194" lon="8.1246471"><ele>106.99999999999999</ele><time>2026-04-22T07:44:53.543Z</time></trkpt><trkpt lat="44.1042108" lon="8.1246922"><ele>107.0</ele><time>2026-04-22T07:44:54.543Z</time></trkpt><trkpt lat="44.1042956" lon="8.1247115"><ele>107.0</ele><time>2026-04-22T07:44:55.543Z</time></trkpt><trkpt lat="44.1043821" lon="8.1247013"><ele>106.49999999999999</ele><time>2026-04-22T07:44:56.542Z</time></trkpt><trkpt lat="44.1044657" lon="8.1246821"><ele>106.0</ele><time>2026-04-22T07:44:57.543Z</time></trkpt><trkpt lat="44.1045547" lon="8.1246558"><ele>105.5</ele><time>2026-04-22T07:44:58.543Z</time></trkpt><trkpt lat="44.104642" lon="8.1246253"><ele>105.0</ele><time>2026-04-22T07:44:59.543Z</time></trkpt><trkpt lat="44.1047252" lon="8.1245933"><ele>104.49999999999999</ele><time>2026-04-22T07:45:00.543Z</time></trkpt><trkpt lat="44.1048109" lon="8.1245738"><ele>104.0</ele><time>2026-04-22T07:45:01.543Z</time></trkpt><trkpt lat="44.1048951" lon="8.1245693"><ele>104.0</ele><time>2026-04-22T07:45:02.543Z</time></trkpt><trkpt lat="44.104978" lon="8.1245209"><ele>104.0</ele><time>2026-04-22T07:45:03.543Z</time></trkpt><trkpt lat="44.105075" lon="8.1244545"><ele>104.0</ele><time>2026-04-22T07:45:04.543Z</time></trkpt><trkpt lat="44.1051728" lon="8.1243597"><ele>104.0</ele><time>2026-04-22T07:45:05.543Z</time></trkpt><trkpt lat="44.1052779" lon="8.1242322"><ele>104.0</ele><time>2026-04-22T07:45:06.543Z</time></trkpt><trkpt lat="44.1053954" lon="8.1240898"><ele>104.0</ele><time>2026-04-22T07:45:07.543Z</time></trkpt><trkpt lat="44.1055177" lon="8.1239243"><ele>104.0</ele><time>2026-04-22T07:45:08.543Z</time></trkpt><trkpt lat="44.1056398" lon="8.1237573"><ele>105.0</ele><time>2026-04-22T07:45:09.543Z</time></trkpt><trkpt lat="44.1057695" lon="8.1236121"><ele>106.0</ele><time>2026-04-22T07:45:10.543Z</time></trkpt><trkpt lat="44.1059028" lon="8.1234608"><ele>107.0</ele><time>2026-04-22T07:45:11.543Z</time></trkpt><trkpt lat="44.1060568" lon="8.1233239"><ele>109.0</ele><time>2026-04-22T07:45:12.543Z</time></trkpt><trkpt lat="44.1062068" lon="8.123173"><ele>111.0</ele><time>2026-04-22T07:45:13.543Z</time></trkpt><trkpt lat="44.1063545" lon="8.1230168"><ele>113.0</ele><time>2026-04-22T07:45:14.542Z</time></trkpt><trkpt lat="44.106496" lon="8.1228556"><ele>109.0</ele><time>2026-04-22T07:45:15.542Z</time></trkpt><trkpt lat="44.1066479" lon="8.1227042"><ele>105.0</ele><time>2026-04-22T07:45:16.542Z</time></trkpt><trkpt lat="44.1068111" lon="8.1225587"><ele>101.0</ele><time>2026-04-22T07:45:17.542Z</time></trkpt><trkpt lat="44.1069704" lon="8.1224221"><ele>101.66666666666666</ele><time>2026-04-22T07:45:18.542Z</time></trkpt><trkpt lat="44.1071243" lon="8.122261"><ele>102.33333333333334</ele><time>2026-04-22T07:45:19.542Z</time></trkpt><trkpt lat="44.1072757" lon="8.1221182"><ele>103.0</ele><time>2026-04-22T07:45:20.541Z</time></trkpt><trkpt lat="44.1074185" lon="8.1219958"><ele>103.0</ele><time>2026-04-22T07:45:21.542Z</time></trkpt><trkpt lat="44.1075739" lon="8.1219092"><ele>103.0</ele><time>2026-04-22T07:45:22.541Z</time></trkpt><trkpt lat="44.107681" lon="8.1217837"><ele>103.0</ele><time>2026-04-22T07:45:23.542Z</time></trkpt><trkpt lat="44.1077737" lon="8.1216578"><ele>103.0</ele><time>2026-04-22T07:45:24.542Z</time></trkpt><trkpt lat="44.1078767" lon="8.1215181"><ele>103.33333333333334</ele><time>2026-04-22T07:45:25.542Z</time></trkpt><trkpt lat="44.107974" lon="8.121345"><ele>103.66666666666666</ele><time>2026-04-22T07:45:26.542Z</time></trkpt><trkpt lat="44.1080531" lon="8.1211458"><ele>104.0</ele><time>2026-04-22T07:45:27.542Z</time></trkpt><trkpt lat="44.1080989" lon="8.1209324"><ele>106.66666666666666</ele><time>2026-04-22T07:45:28.542Z</time></trkpt><trkpt lat="44.1081166" lon="8.1207138"><ele>109.33333333333334</ele><time>2026-04-22T07:45:29.542Z</time></trkpt><trkpt lat="44.1080814" lon="8.1204772"><ele>112.0</ele><time>2026-04-22T07:45:30.541Z</time></trkpt><trkpt lat="44.1080463" lon="8.1202498"><ele>112.0</ele><time>2026-04-22T07:45:31.542Z</time></trkpt><trkpt lat="44.1079993" lon="8.1200203"><ele>112.0</ele><time>2026-04-22T07:45:32.541Z</time></trkpt><trkpt lat="44.10796" lon="8.1197774"><ele>112.0</ele><time>2026-04-22T07:45:33.542Z</time></trkpt><trkpt lat="44.1079662" lon="8.1195454"><ele>113.66666666666667</ele><time>2026-04-22T07:45:34.542Z</time></trkpt><trkpt lat="44.1079957" lon="8.1193229"><ele>115.33333333333334</ele><time>2026-04-22T07:45:35.542Z</time></trkpt><trkpt lat="44.108026" lon="8.1190774"><ele>117.0</ele><time>2026-04-22T07:45:36.542Z</time></trkpt><trkpt lat="44.1080622" lon="8.1188156"><ele>119.66666666666666</ele><time>2026-04-22T07:45:37.542Z</time></trkpt><trkpt lat="44.1081024" lon="8.1185527"><ele>122.33333333333333</ele><time>2026-04-22T07:45:38.542Z</time></trkpt><trkpt lat="44.1081604" lon="8.1182996"><ele>125.0</ele><time>2026-04-22T07:45:39.542Z</time></trkpt><trkpt lat="44.108237" lon="8.1180596"><ele>120.33333333333333</ele><time>2026-04-22T07:45:40.542Z</time></trkpt><trkpt lat="44.1083316" lon="8.1178363"><ele>115.66666666666666</ele><time>2026-04-22T07:45:41.542Z</time></trkpt><trkpt lat="44.1084531" lon="8.1176542"><ele>111.0</ele><time>2026-04-22T07:45:42.542Z</time></trkpt><trkpt lat="44.1085582" lon="8.1175009"><ele>114.25</ele><time>2026-04-22T07:45:43.542Z</time></trkpt><trkpt lat="44.1086438" lon="8.1173509"><ele>117.5</ele><time>2026-04-22T07:45:44.542Z</time></trkpt><trkpt lat="44.1087104" lon="8.1171738"><ele>120.75</ele><time>2026-04-22T07:45:45.542Z</time></trkpt><trkpt lat="44.1087632" lon="8.1169876"><ele>124.0</ele><time>2026-04-22T07:45:46.542Z</time></trkpt><trkpt lat="44.1088171" lon="8.1167897"><ele>124.0</ele><time>2026-04-22T07:45:47.541Z</time></trkpt><trkpt lat="44.108871" lon="8.1165796"><ele>124.0</ele><time>2026-04-22T07:45:48.542Z</time></trkpt><trkpt lat="44.1089541" lon="8.1163823"><ele>124.0</ele><time>2026-04-22T07:45:49.542Z</time></trkpt><trkpt lat="44.1090502" lon="8.1162105"><ele>124.33333333333334</ele><time>2026-04-22T07:45:50.542Z</time></trkpt><trkpt lat="44.1091689" lon="8.1160668"><ele>124.66666666666666</ele><time>2026-04-22T07:45:51.542Z</time></trkpt><trkpt lat="44.1092843" lon="8.1159149"><ele>125.0</ele><time>2026-04-22T07:45:52.542Z</time></trkpt><trkpt lat="44.1093978" lon="8.1157849"><ele>133.25</ele><time>2026-04-22T07:45:53.542Z</time></trkpt><trkpt lat="44.1094966" lon="8.1156676"><ele>141.5</ele><time>2026-04-22T07:45:54.542Z</time></trkpt><trkpt lat="44.1095911" lon="8.1155592"><ele>149.75</ele><time>2026-04-22T07:45:55.542Z</time></trkpt><trkpt lat="44.1096883" lon="8.1154538"><ele>158.0</ele><time>2026-04-22T07:45:56.542Z</time></trkpt><trkpt lat="44.1097882" lon="8.1153691"><ele>158.0</ele><time>2026-04-22T07:45:57.542Z</time></trkpt><trkpt lat="44.109903" lon="8.1153077"><ele>158.0</ele><time>2026-04-22T07:45:58.542Z</time></trkpt><trkpt lat="44.11002" lon="8.1152626"><ele>158.0</ele><time>2026-04-22T07:45:59.542Z</time></trkpt><trkpt lat="44.1101326" lon="8.1152218"><ele>158.0</ele><time>2026-04-22T07:46:00.541Z</time></trkpt><trkpt lat="44.1102518" lon="8.1151796"><ele>151.25</ele><time>2026-04-22T07:46:01.542Z</time></trkpt><trkpt lat="44.1103664" lon="8.1151312"><ele>144.5</ele><time>2026-04-22T07:46:02.541Z</time></trkpt><trkpt lat="44.1104781" lon="8.1150787"><ele>137.75</ele><time>2026-04-22T07:46:03.542Z</time></trkpt><trkpt lat="44.1105865" lon="8.1150226"><ele>131.0</ele><time>2026-04-22T07:46:04.542Z</time></trkpt><trkpt lat="44.110692" lon="8.1149725"><ele>128.75</ele><time>2026-04-22T07:46:05.542Z</time></trkpt><trkpt lat="44.1107955" lon="8.1149227"><ele>126.5</ele><time>2026-04-22T07:46:06.542Z</time></trkpt><trkpt lat="44.1109021" lon="8.1148625"><ele>124.25</ele><time>2026-04-22T07:46:07.541Z</time></trkpt><trkpt lat="44.1110087" lon="8.1148274"><ele>122.0</ele><time>2026-04-22T07:46:08.542Z</time></trkpt><trkpt lat="44.1111176" lon="8.1147618"><ele>128.5</ele><time>2026-04-22T07:46:09.541Z</time></trkpt><trkpt lat="44.1112467" lon="8.1147046"><ele>135.0</ele><time>2026-04-22T07:46:10.542Z</time></trkpt><trkpt lat="44.1113561" lon="8.1146584"><ele>141.5</ele><time>2026-04-22T07:46:11.541Z</time></trkpt><trkpt lat="44.111462" lon="8.1146461"><ele>148.0</ele><time>2026-04-22T07:46:12.542Z</time></trkpt><trkpt lat="44.1115704" lon="8.1146625"><ele>145.6</ele><time>2026-04-22T07:46:13.542Z</time></trkpt><trkpt lat="44.1116821" lon="8.114686"><ele>143.20000000000002</ele><time>2026-04-22T07:46:14.542Z</time></trkpt><trkpt lat="44.1117846" lon="8.1147343"><ele>140.8</ele><time>2026-04-22T07:46:15.542Z</time></trkpt><trkpt lat="44.1118841" lon="8.1147956"><ele>138.4</ele><time>2026-04-22T07:46:16.541Z</time></trkpt><trkpt lat="44.1119792" lon="8.1148568"><ele>136.0</ele><time>2026-04-22T07:46:17.541Z</time></trkpt><trkpt lat="44.1120754" lon="8.114908"><ele>133.0</ele><time>2026-04-22T07:46:18.542Z</time></trkpt><trkpt lat="44.1121728" lon="8.1149741"><ele>130.0</ele><time>2026-04-22T07:46:19.542Z</time></trkpt><trkpt lat="44.1122907" lon="8.1150363"><ele>127.0</ele><time>2026-04-22T07:46:20.541Z</time></trkpt><trkpt lat="44.1123972" lon="8.1151124"><ele>124.0</ele><time>2026-04-22T07:46:21.542Z</time></trkpt><trkpt lat="44.1124934" lon="8.1151905"><ele>124.0</ele><time>2026-04-22T07:46:22.542Z</time></trkpt><trkpt lat="44.1125957" lon="8.1152576"><ele>124.0</ele><time>2026-04-22T07:46:23.542Z</time></trkpt><trkpt lat="44.1126914" lon="8.1153207"><ele>124.0</ele><time>2026-04-22T07:46:24.542Z</time></trkpt><trkpt lat="44.1127781" lon="8.115386"><ele>124.0</ele><time>2026-04-22T07:46:25.541Z</time></trkpt><trkpt lat="44.1128544" lon="8.115452"><ele>124.0</ele><time>2026-04-22T07:46:26.542Z</time></trkpt><trkpt lat="44.1129284" lon="8.1155112"><ele>124.00000000000001</ele><time>2026-04-22T07:46:27.542Z</time></trkpt><trkpt lat="44.1129978" lon="8.115566"><ele>124.0</ele><time>2026-04-22T07:46:28.542Z</time></trkpt><trkpt lat="44.1130613" lon="8.1155967"><ele>124.0</ele><time>2026-04-22T07:46:29.541Z</time></trkpt><trkpt lat="44.11314" lon="8.1155444"><ele>124.0</ele><time>2026-04-22T07:46:31.542Z</time></trkpt><trkpt lat="44.1131811" lon="8.1154503"><ele>124.00000000000001</ele><time>2026-04-22T07:46:33.542Z</time></trkpt><trkpt lat="44.1132704" lon="8.1153999"><ele>124.0</ele><time>2026-04-22T07:46:35.541Z</time></trkpt><trkpt lat="44.1133582" lon="8.1154494"><ele>126.0</ele><time>2026-04-22T07:46:37.541Z</time></trkpt><trkpt lat="44.1134142" lon="8.1155123"><ele>128.0</ele><time>2026-04-22T07:46:40.542Z</time></trkpt><trkpt lat="44.1134828" lon="8.1155062"><ele>130.0</ele><time>2026-04-22T07:49:37.542Z</time></trkpt><trkpt lat="44.1135833" lon="8.1155431"><ele>132.0</ele><time>2026-04-22T07:49:39.542Z</time></trkpt><trkpt lat="44.1136647" lon="8.1155777"><ele>134.0</ele><time>2026-04-22T07:49:40.542Z</time></trkpt><trkpt lat="44.1137946" lon="8.1156419"><ele>134.0</ele><time>2026-04-22T07:49:41.542Z</time></trkpt><trkpt lat="44.1139293" lon="8.1156918"><ele>134.0</ele><time>2026-04-22T07:49:42.542Z</time></trkpt><trkpt lat="44.114056" lon="8.11573"><ele>134.0</ele><time>2026-04-22T07:49:43.542Z</time></trkpt><trkpt lat="44.1141742" lon="8.1157573"><ele>134.0</ele><time>2026-04-22T07:49:44.542Z</time></trkpt><trkpt lat="44.1142916" lon="8.1157602"><ele>133.0</ele><time>2026-04-22T07:49:45.542Z</time></trkpt><trkpt lat="44.1144029" lon="8.115753"><ele>132.0</ele><time>2026-04-22T07:49:46.542Z</time></trkpt><trkpt lat="44.1145215" lon="8.1157269"><ele>131.0</ele><time>2026-04-22T07:49:47.542Z</time></trkpt><trkpt lat="44.1146313" lon="8.1156815"><ele>130.0</ele><time>2026-04-22T07:49:48.542Z</time></trkpt><trkpt lat="44.1147307" lon="8.1156327"><ele>134.6</ele><time>2026-04-22T07:49:49.541Z</time></trkpt><trkpt lat="44.1148343" lon="8.1155929"><ele>139.2</ele><time>2026-04-22T07:49:50.542Z</time></trkpt><trkpt lat="44.1149437" lon="8.1155845"><ele>143.8</ele><time>2026-04-22T07:49:51.542Z</time></trkpt><trkpt lat="44.1150529" lon="8.1155744"><ele>148.4</ele><time>2026-04-22T07:49:52.541Z</time></trkpt><trkpt lat="44.1151428" lon="8.1155882"><ele>153.0</ele><time>2026-04-22T07:49:53.541Z</time></trkpt><trkpt lat="44.1152298" lon="8.1155823"><ele>154.83333333333334</ele><time>2026-04-22T07:49:54.542Z</time></trkpt><trkpt lat="44.1152909" lon="8.1155523"><ele>156.66666666666666</ele><time>2026-04-22T07:49:55.541Z</time></trkpt><trkpt lat="44.1153647" lon="8.115435"><ele>158.5</ele><time>2026-04-22T07:49:57.542Z</time></trkpt><trkpt lat="44.1153829" lon="8.1153431"><ele>160.33333333333331</ele><time>2026-04-22T07:49:58.542Z</time></trkpt><trkpt lat="44.1153898" lon="8.1152271"><ele>162.16666666666666</ele><time>2026-04-22T07:49:59.542Z</time></trkpt><trkpt lat="44.1154042" lon="8.1151147"><ele>164.0</ele><time>2026-04-22T07:50:00.542Z</time></trkpt><trkpt lat="44.1154299" lon="8.1150098"><ele>164.0</ele><time>2026-04-22T07:50:01.542Z</time></trkpt><trkpt lat="44.1154765" lon="8.1149059"><ele>164.0</ele><time>2026-04-22T07:50:02.542Z</time></trkpt><trkpt lat="44.1155411" lon="8.1148093"><ele>164.0</ele><time>2026-04-22T07:50:03.542Z</time></trkpt><trkpt lat="44.115616" lon="8.1147055"><ele>164.0</ele><time>2026-04-22T07:50:04.542Z</time></trkpt><trkpt lat="44.1156907" lon="8.1145772"><ele>164.0</ele><time>2026-04-22T07:50:05.542Z</time></trkpt><trkpt lat="44.1157615" lon="8.114436"><ele>164.2</ele><time>2026-04-22T07:50:06.542Z</time></trkpt><trkpt lat="44.1158287" lon="8.1143021"><ele>164.39999999999998</ele><time>2026-04-22T07:50:07.542Z</time></trkpt><trkpt lat="44.1158928" lon="8.1141829"><ele>164.6</ele><time>2026-04-22T07:50:08.542Z</time></trkpt><trkpt lat="44.1159538" lon="8.1140896"><ele>164.8</ele><time>2026-04-22T07:50:09.542Z</time></trkpt><trkpt lat="44.1160163" lon="8.1139947"><ele>165.0</ele><time>2026-04-22T07:50:10.542Z</time></trkpt><trkpt lat="44.1161036" lon="8.1138943"><ele>163.5</ele><time>2026-04-22T07:50:11.541Z</time></trkpt><trkpt lat="44.1162216" lon="8.1138101"><ele>162.0</ele><time>2026-04-22T07:50:12.541Z</time></trkpt><trkpt lat="44.1163519" lon="8.1137294"><ele>160.5</ele><time>2026-04-22T07:50:13.541Z</time></trkpt><trkpt lat="44.1164661" lon="8.1136676"><ele>159.0</ele><time>2026-04-22T07:50:14.542Z</time></trkpt><trkpt lat="44.1165717" lon="8.1136146"><ele>159.0</ele><time>2026-04-22T07:50:15.542Z</time></trkpt><trkpt lat="44.1166705" lon="8.1135659"><ele>159.0</ele><time>2026-04-22T07:50:16.542Z</time></trkpt><trkpt lat="44.1167532" lon="8.1134954"><ele>159.0</ele><time>2026-04-22T07:50:17.542Z</time></trkpt><trkpt lat="44.1168218" lon="8.1134233"><ele>159.0</ele><time>2026-04-22T07:50:18.541Z</time></trkpt><trkpt lat="44.1168701" lon="8.1133225"><ele>159.0</ele><time>2026-04-22T07:50:19.542Z</time></trkpt><trkpt lat="44.1168751" lon="8.1132004"><ele>160.33333333333334</ele><time>2026-04-22T07:50:20.542Z</time></trkpt><trkpt lat="44.116867" lon="8.1130783"><ele>161.66666666666666</ele><time>2026-04-22T07:50:21.542Z</time></trkpt><trkpt lat="44.1168639" lon="8.1129698"><ele>163.0</ele><time>2026-04-22T07:50:22.541Z</time></trkpt><trkpt lat="44.1168828" lon="8.1128711"><ele>164.33333333333331</ele><time>2026-04-22T07:50:23.542Z</time></trkpt><trkpt lat="44.1169674" lon="8.1127729"><ele>165.66666666666666</ele><time>2026-04-22T07:50:25.541Z</time></trkpt><trkpt lat="44.1170369" lon="8.112789"><ele>167.0</ele><time>2026-04-22T07:50:26.541Z</time></trkpt><trkpt lat="44.1171405" lon="8.1129117"><ele>167.0</ele><time>2026-04-22T07:50:27.542Z</time></trkpt><trkpt lat="44.1172377" lon="8.1130411"><ele>167.0</ele><time>2026-04-22T07:50:28.542Z</time></trkpt><trkpt lat="44.1173237" lon="8.113165"><ele>167.0</ele><time>2026-04-22T07:50:29.542Z</time></trkpt><trkpt lat="44.1173975" lon="8.1132584"><ele>167.0</ele><time>2026-04-22T07:50:30.542Z</time></trkpt><trkpt lat="44.1174649" lon="8.1133424"><ele>167.0</ele><time>2026-04-22T07:50:31.542Z</time></trkpt><trkpt lat="44.1175274" lon="8.113401"><ele>163.0</ele><time>2026-04-22T07:50:32.541Z</time></trkpt><trkpt lat="44.1176136" lon="8.1134389"><ele>159.0</ele><time>2026-04-22T07:50:33.542Z</time></trkpt><trkpt lat="44.1177248" lon="8.1134448"><ele>155.0</ele><time>2026-04-22T07:50:34.542Z</time></trkpt><trkpt lat="44.1178647" lon="8.1134424"><ele>151.0</ele><time>2026-04-22T07:50:35.542Z</time></trkpt><trkpt lat="44.1180147" lon="8.1134434"><ele>151.0</ele><time>2026-04-22T07:50:36.542Z</time></trkpt><trkpt lat="44.1181625" lon="8.1134742"><ele>151.0</ele><time>2026-04-22T07:50:37.541Z</time></trkpt><trkpt lat="44.1183071" lon="8.1135172"><ele>151.0</ele><time>2026-04-22T07:50:38.542Z</time></trkpt><trkpt lat="44.1184459" lon="8.1135534"><ele>151.0</ele><time>2026-04-22T07:50:39.542Z</time></trkpt><trkpt lat="44.118579" lon="8.1136071"><ele>156.0</ele><time>2026-04-22T07:50:40.542Z</time></trkpt><trkpt lat="44.1187074" lon="8.1136651"><ele>161.0</ele><time>2026-04-22T07:50:41.542Z</time></trkpt><trkpt lat="44.1188309" lon="8.1137161"><ele>166.0</ele><time>2026-04-22T07:50:42.542Z</time></trkpt><trkpt lat="44.1189471" lon="8.1137781"><ele>171.0</ele><time>2026-04-22T07:50:43.542Z</time></trkpt><trkpt lat="44.1190342" lon="8.1138256"><ele>172.0</ele><time>2026-04-22T07:50:44.542Z</time></trkpt><trkpt lat="44.1191243" lon="8.1138309"><ele>173.0</ele><time>2026-04-22T07:50:45.542Z</time></trkpt><trkpt lat="44.1192023" lon="8.1138305"><ele>174.0</ele><time>2026-04-22T07:50:46.541Z</time></trkpt><trkpt lat="44.1192682" lon="8.1137963"><ele>175.0</ele><time>2026-04-22T07:50:47.541Z</time></trkpt><trkpt lat="44.1193291" lon="8.1137477"><ele>176.0</ele><time>2026-04-22T07:50:48.541Z</time></trkpt><trkpt lat="44.1193738" lon="8.1136588"><ele>177.0</ele><time>2026-04-22T07:50:49.542Z</time></trkpt><trkpt lat="44.1194103" lon="8.1135565"><ele>177.0</ele><time>2026-04-22T07:50:50.542Z</time></trkpt><trkpt lat="44.1194355" lon="8.1134409"><ele>177.0</ele><time>2026-04-22T07:50:51.542Z</time></trkpt><trkpt lat="44.1194509" lon="8.1133282"><ele>177.0</ele><time>2026-04-22T07:50:52.541Z</time></trkpt><trkpt lat="44.1194606" lon="8.1132092"><ele>177.0</ele><time>2026-04-22T07:50:53.542Z</time></trkpt><trkpt lat="44.1194747" lon="8.1130876"><ele>177.0</ele><time>2026-04-22T07:50:54.542Z</time></trkpt><trkpt lat="44.1195003" lon="8.1129677"><ele>177.0</ele><time>2026-04-22T07:50:55.542Z</time></trkpt><trkpt lat="44.1195275" lon="8.1128523"><ele>182.83333333333334</ele><time>2026-04-22T07:50:56.542Z</time></trkpt><trkpt lat="44.1195581" lon="8.1127385"><ele>188.66666666666669</ele><time>2026-04-22T07:50:57.542Z</time></trkpt><trkpt lat="44.1196044" lon="8.1126461"><ele>194.5</ele><time>2026-04-22T07:50:58.542Z</time></trkpt><trkpt lat="44.1196416" lon="8.1125485"><ele>200.33333333333334</ele><time>2026-04-22T07:50:59.542Z</time></trkpt><trkpt lat="44.1196713" lon="8.112461"><ele>206.16666666666669</ele><time>2026-04-22T07:51:00.542Z</time></trkpt><trkpt lat="44.1197028" lon="8.1123679"><ele>212.0</ele><time>2026-04-22T07:51:01.542Z</time></trkpt><trkpt lat="44.1197312" lon="8.112279"><ele>211.83333333333334</ele><time>2026-04-22T07:51:02.542Z</time></trkpt><trkpt lat="44.119762" lon="8.1122002"><ele>211.66666666666669</ele><time>2026-04-22T07:51:03.541Z</time></trkpt><trkpt lat="44.1198186" lon="8.1121243"><ele>211.5</ele><time>2026-04-22T07:51:05.542Z</time></trkpt><trkpt lat="44.1198998" lon="8.1121111"><ele>211.33333333333331</ele><time>2026-04-22T07:51:10.541Z</time></trkpt><trkpt lat="44.1199663" lon="8.1120286"><ele>211.16666666666666</ele><time>2026-04-22T07:51:17.542Z</time></trkpt><trkpt lat="44.1200349" lon="8.1119337"><ele>211.0</ele><time>2026-04-22T07:51:19.542Z</time></trkpt><trkpt lat="44.1201365" lon="8.1118301"><ele>211.0</ele><time>2026-04-22T07:51:21.542Z</time></trkpt><trkpt lat="44.1202068" lon="8.1117582"><ele>211.0</ele><time>2026-04-22T07:51:22.542Z</time></trkpt><trkpt lat="44.1202732" lon="8.1116696"><ele>211.0</ele><time>2026-04-22T07:51:23.542Z</time></trkpt><trkpt lat="44.1203374" lon="8.1115721"><ele>211.0</ele><time>2026-04-22T07:51:24.542Z</time></trkpt><trkpt lat="44.120403" lon="8.1114794"><ele>211.0</ele><time>2026-04-22T07:51:25.541Z</time></trkpt><trkpt lat="44.1204713" lon="8.1113798"><ele>212.8</ele><time>2026-04-22T07:51:26.542Z</time></trkpt><trkpt lat="44.1205336" lon="8.1112734"><ele>214.60000000000002</ele><time>2026-04-22T07:51:27.542Z</time></trkpt><trkpt lat="44.1206046" lon="8.1111534"><ele>216.4</ele><time>2026-04-22T07:51:28.542Z</time></trkpt><trkpt lat="44.1206552" lon="8.1110519"><ele>218.2</ele><time>2026-04-22T07:51:29.542Z</time></trkpt><trkpt lat="44.1206827" lon="8.110962"><ele>220.0</ele><time>2026-04-22T07:51:30.542Z</time></trkpt><trkpt lat="44.1207425" lon="8.1108569"><ele>219.99999999999997</ele><time>2026-04-22T07:51:32.542Z</time></trkpt><trkpt lat="44.120817" lon="8.1108714"><ele>220.0</ele><time>2026-04-22T07:51:34.542Z</time></trkpt><trkpt lat="44.1208681" lon="8.1109275"><ele>220.0</ele><time>2026-04-22T07:51:35.542Z</time></trkpt><trkpt lat="44.1209337" lon="8.1109946"><ele>220.0</ele><time>2026-04-22T07:51:36.542Z</time></trkpt><trkpt lat="44.1210101" lon="8.1110389"><ele>219.99999999999997</ele><time>2026-04-22T07:51:37.542Z</time></trkpt><trkpt lat="44.1210872" lon="8.1110524"><ele>220.0</ele><time>2026-04-22T07:51:38.542Z</time></trkpt><trkpt lat="44.1211541" lon="8.1109903"><ele>219.99999999999997</ele><time>2026-04-22T07:51:39.541Z</time></trkpt><trkpt lat="44.1212605" lon="8.1109236"><ele>220.0</ele><time>2026-04-22T07:51:41.542Z</time></trkpt><trkpt lat="44.1213701" lon="8.1109067"><ele>220.0</ele><time>2026-04-22T07:51:43.542Z</time></trkpt><trkpt lat="44.1214318" lon="8.1108845"><ele>220.0</ele><time>2026-04-22T07:51:45.541Z</time></trkpt><trkpt lat="44.1214906" lon="8.1108525"><ele>219.99999999999997</ele><time>2026-04-22T07:53:12.542Z</time></trkpt><trkpt lat="44.1215787" lon="8.1108649"><ele>220.0</ele><time>2026-04-22T07:53:14.542Z</time></trkpt><trkpt lat="44.1217019" lon="8.110857"><ele>220.2</ele><time>2026-04-22T07:53:16.542Z</time></trkpt><trkpt lat="44.1217611" lon="8.1108228"><ele>220.4</ele><time>2026-04-22T07:53:17.542Z</time></trkpt><trkpt lat="44.1218433" lon="8.110708"><ele>220.60000000000002</ele><time>2026-04-22T07:53:19.541Z</time></trkpt><trkpt lat="44.1219546" lon="8.1106079"><ele>220.8</ele><time>2026-04-22T07:53:21.542Z</time></trkpt><trkpt lat="44.1220763" lon="8.1105591"><ele>221.0</ele><time>2026-04-22T07:53:23.542Z</time></trkpt><trkpt lat="44.1221613" lon="8.110566"><ele>226.66666666666669</ele><time>2026-04-22T07:53:24.541Z</time></trkpt><trkpt lat="44.1222396" lon="8.1105622"><ele>232.33333333333334</ele><time>2026-04-22T07:53:25.541Z</time></trkpt><trkpt lat="44.1223165" lon="8.1105343"><ele>238.0</ele><time>2026-04-22T07:53:26.542Z</time></trkpt><trkpt lat="44.1224117" lon="8.1105082"><ele>243.66666666666669</ele><time>2026-04-22T07:53:27.542Z</time></trkpt><trkpt lat="44.1225018" lon="8.1104892"><ele>249.33333333333334</ele><time>2026-04-22T07:53:28.542Z</time></trkpt><trkpt lat="44.1225818" lon="8.1104593"><ele>255.0</ele><time>2026-04-22T07:53:29.542Z</time></trkpt><trkpt lat="44.1226657" lon="8.1104295"><ele>257.1666666666667</ele><time>2026-04-22T07:53:30.542Z</time></trkpt><trkpt lat="44.1227452" lon="8.1104097"><ele>259.3333333333333</ele><time>2026-04-22T07:53:31.542Z</time></trkpt><trkpt lat="44.1228164" lon="8.1104058"><ele>261.5</ele><time>2026-04-22T07:53:32.542Z</time></trkpt><trkpt lat="44.1228816" lon="8.1104179"><ele>263.66666666666663</ele><time>2026-04-22T07:53:33.542Z</time></trkpt><trkpt lat="44.1229649" lon="8.1104349"><ele>265.8333333333333</ele><time>2026-04-22T07:53:34.542Z</time></trkpt><trkpt lat="44.1230575" lon="8.1104384"><ele>268.0</ele><time>2026-04-22T07:53:35.542Z</time></trkpt><trkpt lat="44.1231416" lon="8.1104509"><ele>264.25</ele><time>2026-04-22T07:53:36.542Z</time></trkpt><trkpt lat="44.1232395" lon="8.1104749"><ele>260.5</ele><time>2026-04-22T07:53:37.542Z</time></trkpt><trkpt lat="44.123303" lon="8.1106268"><ele>256.75</ele><time>2026-04-22T07:53:38.542Z</time></trkpt><trkpt lat="44.123406" lon="8.1106985"><ele>253.0</ele><time>2026-04-22T07:53:39.541Z</time></trkpt><trkpt lat="44.1234982" lon="8.1107891"><ele>253.0</ele><time>2026-04-22T07:53:40.542Z</time></trkpt><trkpt lat="44.1236055" lon="8.1108658"><ele>253.0</ele><time>2026-04-22T07:53:41.542Z</time></trkpt><trkpt lat="44.1237187" lon="8.1108755"><ele>253.0</ele><time>2026-04-22T07:53:42.542Z</time></trkpt><trkpt lat="44.1238246" lon="8.110879"><ele>253.0</ele><time>2026-04-22T07:53:43.542Z</time></trkpt><trkpt lat="44.1239239" lon="8.1108826"><ele>253.0</ele><time>2026-04-22T07:53:44.542Z</time></trkpt><trkpt lat="44.1240111" lon="8.11091"><ele>253.33333333333331</ele><time>2026-04-22T07:53:45.542Z</time></trkpt><trkpt lat="44.12409" lon="8.110942"><ele>253.66666666666666</ele><time>2026-04-22T07:53:46.542Z</time></trkpt><trkpt lat="44.1241753" lon="8.110969"><ele>254.0</ele><time>2026-04-22T07:53:47.542Z</time></trkpt><trkpt lat="44.1242548" lon="8.1109758"><ele>254.33333333333331</ele><time>2026-04-22T07:53:48.542Z</time></trkpt><trkpt lat="44.1243229" lon="8.1109679"><ele>254.66666666666666</ele><time>2026-04-22T07:53:49.542Z</time></trkpt><trkpt lat="44.1243931" lon="8.1109217"><ele>255.0</ele><time>2026-04-22T07:53:50.541Z</time></trkpt><trkpt lat="44.1244588" lon="8.1108472"><ele>262.8</ele><time>2026-04-22T07:53:51.542Z</time></trkpt><trkpt lat="44.1245144" lon="8.1107251"><ele>270.6</ele><time>2026-04-22T07:53:52.541Z</time></trkpt><trkpt lat="44.1245641" lon="8.1105902"><ele>278.4</ele><time>2026-04-22T07:53:53.542Z</time></trkpt><trkpt lat="44.1246134" lon="8.1104595"><ele>286.2</ele><time>2026-04-22T07:53:54.542Z</time></trkpt><trkpt lat="44.1246621" lon="8.1103539"><ele>294.0</ele><time>2026-04-22T07:53:55.542Z</time></trkpt><trkpt lat="44.1247044" lon="8.1102497"><ele>294.0</ele><time>2026-04-22T07:53:56.542Z</time></trkpt><trkpt lat="44.12474" lon="8.1101154"><ele>294.0</ele><time>2026-04-22T07:53:57.542Z</time></trkpt><trkpt lat="44.1247574" lon="8.1099989"><ele>294.0</ele><time>2026-04-22T07:53:58.542Z</time></trkpt><trkpt lat="44.1247536" lon="8.1098812"><ele>294.0</ele><time>2026-04-22T07:53:59.542Z</time></trkpt><trkpt lat="44.1247251" lon="8.1097693"><ele>294.0</ele><time>2026-04-22T07:54:00.542Z</time></trkpt><trkpt lat="44.1246838" lon="8.109664"><ele>294.0</ele><time>2026-04-22T07:54:01.542Z</time></trkpt><trkpt lat="44.1246505" lon="8.1095581"><ele>295.8</ele><time>2026-04-22T07:54:02.542Z</time></trkpt><trkpt lat="44.1246145" lon="8.109438"><ele>297.59999999999997</ele><time>2026-04-22T07:54:03.542Z</time></trkpt><trkpt lat="44.1245615" lon="8.1093155"><ele>299.4</ele><time>2026-04-22T07:54:04.542Z</time></trkpt><trkpt lat="44.1245076" lon="8.1092108"><ele>301.2</ele><time>2026-04-22T07:54:05.542Z</time></trkpt><trkpt lat="44.1244542" lon="8.1090987"><ele>303.0</ele><time>2026-04-22T07:54:06.542Z</time></trkpt><trkpt lat="44.1244218" lon="8.1089772"><ele>303.5</ele><time>2026-04-22T07:54:07.542Z</time></trkpt><trkpt lat="44.1244142" lon="8.1088311"><ele>304.0</ele><time>2026-04-22T07:54:08.542Z</time></trkpt><trkpt lat="44.1244393" lon="8.1086536"><ele>304.5</ele><time>2026-04-22T07:54:09.542Z</time></trkpt><trkpt lat="44.1244677" lon="8.108448"><ele>305.0</ele><time>2026-04-22T07:54:10.542Z</time></trkpt><trkpt lat="44.124502" lon="8.1082503"><ele>302.5</ele><time>2026-04-22T07:54:11.542Z</time></trkpt><trkpt lat="44.124541" lon="8.1080657"><ele>300.0</ele><time>2026-04-22T07:54:12.541Z</time></trkpt><trkpt lat="44.1245699" lon="8.1079038"><ele>297.5</ele><time>2026-04-22T07:54:13.542Z</time></trkpt><trkpt lat="44.1245989" lon="8.1077571"><ele>295.0</ele><time>2026-04-22T07:54:14.542Z</time></trkpt><trkpt lat="44.124599" lon="8.107637"><ele>295.0</ele><time>2026-04-22T07:54:15.542Z</time></trkpt><trkpt lat="44.1245767" lon="8.107532"><ele>295.0</ele><time>2026-04-22T07:54:16.541Z</time></trkpt><trkpt lat="44.1245194" lon="8.1074425"><ele>295.0</ele><time>2026-04-22T07:54:17.542Z</time></trkpt><trkpt lat="44.1244385" lon="8.1073595"><ele>295.0</ele><time>2026-04-22T07:54:18.542Z</time></trkpt><trkpt lat="44.1243516" lon="8.1072749"><ele>295.0</ele><time>2026-04-22T07:54:19.542Z</time></trkpt><trkpt lat="44.1242722" lon="8.1071892"><ele>292.8</ele><time>2026-04-22T07:54:20.542Z</time></trkpt><trkpt lat="44.1242103" lon="8.1070945"><ele>290.6</ele><time>2026-04-22T07:54:21.542Z</time></trkpt><trkpt lat="44.1241526" lon="8.1070273"><ele>288.4</ele><time>2026-04-22T07:54:22.542Z</time></trkpt><trkpt lat="44.1241282" lon="8.1069141"><ele>286.2</ele><time>2026-04-22T07:54:24.542Z</time></trkpt><trkpt lat="44.1241819" lon="8.1067174"><ele>284.0</ele><time>2026-04-22T07:54:26.542Z</time></trkpt><trkpt lat="44.1241926" lon="8.1065847"><ele>285.0</ele><time>2026-04-22T07:54:27.542Z</time></trkpt><trkpt lat="44.1242034" lon="8.1064318"><ele>286.0</ele><time>2026-04-22T07:54:28.542Z</time></trkpt><trkpt lat="44.1241989" lon="8.1062576"><ele>287.0</ele><time>2026-04-22T07:54:29.542Z</time></trkpt><trkpt lat="44.1241936" lon="8.1060802"><ele>288.0</ele><time>2026-04-22T07:54:30.542Z</time></trkpt><trkpt lat="44.1241882" lon="8.1059029"><ele>289.5</ele><time>2026-04-22T07:54:31.542Z</time></trkpt><trkpt lat="44.1241927" lon="8.1057101"><ele>291.0</ele><time>2026-04-22T07:54:32.542Z</time></trkpt><trkpt lat="44.1242005" lon="8.1055249"><ele>292.5</ele><time>2026-04-22T07:54:33.541Z</time></trkpt><trkpt lat="44.1242091" lon="8.1053305"><ele>294.0</ele><time>2026-04-22T07:54:34.541Z</time></trkpt><trkpt lat="44.1242166" lon="8.1051555"><ele>294.0</ele><time>2026-04-22T07:54:35.542Z</time></trkpt><trkpt lat="44.1242237" lon="8.1049935"><ele>294.0</ele><time>2026-04-22T07:54:36.542Z</time></trkpt><trkpt lat="44.1242427" lon="8.1048368"><ele>294.0</ele><time>2026-04-22T07:54:37.542Z</time></trkpt><trkpt lat="44.1242551" lon="8.1047064"><ele>294.0</ele><time>2026-04-22T07:54:38.542Z</time></trkpt><trkpt lat="44.1242591" lon="8.1045824"><ele>294.0</ele><time>2026-04-22T07:54:39.541Z</time></trkpt><trkpt lat="44.1242496" lon="8.1044532"><ele>293.25</ele><time>2026-04-22T07:54:40.542Z</time></trkpt><trkpt lat="44.1242362" lon="8.1043059"><ele>292.5</ele><time>2026-04-22T07:54:41.542Z</time></trkpt><trkpt lat="44.1242266" lon="8.1041344"><ele>291.75</ele><time>2026-04-22T07:54:42.542Z</time></trkpt><trkpt lat="44.1242149" lon="8.1039648"><ele>291.0</ele><time>2026-04-22T07:54:43.542Z</time></trkpt><trkpt lat="44.1241974" lon="8.1038082"><ele>292.0</ele><time>2026-04-22T07:54:44.542Z</time></trkpt><trkpt lat="44.1241784" lon="8.1036569"><ele>293.0</ele><time>2026-04-22T07:54:45.541Z</time></trkpt><trkpt lat="44.1241583" lon="8.1035365"><ele>294.0</ele><time>2026-04-22T07:54:46.541Z</time></trkpt><trkpt lat="44.1241318" lon="8.1034474"><ele>295.0</ele><time>2026-04-22T07:54:47.542Z</time></trkpt><trkpt lat="44.1241097" lon="8.1033527"><ele>296.0</ele><time>2026-04-22T07:54:48.542Z</time></trkpt><trkpt lat="44.1241853" lon="8.1033193"><ele>297.0</ele><time>2026-04-22T07:55:26.542Z</time></trkpt><trkpt lat="44.12425" lon="8.103258"><ele>300.4</ele><time>2026-04-22T07:55:28.542Z</time></trkpt><trkpt lat="44.1243057" lon="8.1031219"><ele>303.79999999999995</ele><time>2026-04-22T07:55:30.542Z</time></trkpt><trkpt lat="44.1243416" lon="8.1029498"><ele>307.2</ele><time>2026-04-22T07:55:32.542Z</time></trkpt><trkpt lat="44.1244069" lon="8.1027952"><ele>310.59999999999997</ele><time>2026-04-22T07:55:34.541Z</time></trkpt><trkpt lat="44.1244581" lon="8.1027217"><ele>314.0</ele><time>2026-04-22T07:55:35.542Z</time></trkpt><trkpt lat="44.124506" lon="8.1026482"><ele>314.0</ele><time>2026-04-22T07:55:36.542Z</time></trkpt><trkpt lat="44.1245565" lon="8.1025855"><ele>314.0</ele><time>2026-04-22T07:55:37.542Z</time></trkpt><trkpt lat="44.1246456" lon="8.1024932"><ele>314.0</ele><time>2026-04-22T07:55:39.542Z</time></trkpt><trkpt lat="44.1247072" lon="8.1024095"><ele>314.0</ele><time>2026-04-22T07:55:41.542Z</time></trkpt><trkpt lat="44.1247504" lon="8.1023345"><ele>314.0</ele><time>2026-04-22T07:55:44.542Z</time></trkpt><trkpt lat="44.1248132" lon="8.1022934"><ele>314.0</ele><time>2026-04-22T07:55:47.542Z</time></trkpt><trkpt lat="44.1249032" lon="8.102307"><ele>318.1666666666667</ele><time>2026-04-22T07:55:50.542Z</time></trkpt><trkpt lat="44.1249796" lon="8.102304"><ele>322.33333333333337</ele><time>2026-04-22T07:55:52.542Z</time></trkpt><trkpt lat="44.1250181" lon="8.102209"><ele>326.5</ele><time>2026-04-22T07:55:55.542Z</time></trkpt><trkpt lat="44.1249638" lon="8.1021229"><ele>330.6666666666667</ele><time>2026-04-22T07:55:57.541Z</time></trkpt><trkpt lat="44.1248798" lon="8.1020553"><ele>334.8333333333333</ele><time>2026-04-22T07:55:59.541Z</time></trkpt><trkpt lat="44.1247781" lon="8.1020233"><ele>339.0</ele><time>2026-04-22T07:56:01.542Z</time></trkpt><trkpt lat="44.1247118" lon="8.1020176"><ele>339.3333333333333</ele><time>2026-04-22T07:56:02.542Z</time></trkpt><trkpt lat="44.1246373" lon="8.1019915"><ele>339.6666666666667</ele><time>2026-04-22T07:56:03.542Z</time></trkpt><trkpt lat="44.1245804" lon="8.1019483"><ele>340.0</ele><time>2026-04-22T07:56:04.542Z</time></trkpt><trkpt lat="44.124521" lon="8.1018751"><ele>340.33333333333337</ele><time>2026-04-22T07:56:06.541Z</time></trkpt><trkpt lat="44.1246062" lon="8.1017963"><ele>340.6666666666667</ele><time>2026-04-22T07:56:10.541Z</time></trkpt><trkpt lat="44.1246724" lon="8.1017611"><ele>341.0</ele><time>2026-04-22T07:56:11.542Z</time></trkpt><trkpt lat="44.124744" lon="8.101713"><ele>341.0</ele><time>2026-04-22T07:56:12.542Z</time></trkpt><trkpt lat="44.1248142" lon="8.101663"><ele>341.0</ele><time>2026-04-22T07:56:13.542Z</time></trkpt><trkpt lat="44.1248808" lon="8.1016319"><ele>341.0</ele><time>2026-04-22T07:56:14.542Z</time></trkpt><trkpt lat="44.1249828" lon="8.1015644"><ele>341.0</ele><time>2026-04-22T07:56:16.542Z</time></trkpt><trkpt lat="44.1250556" lon="8.101466"><ele>341.0</ele><time>2026-04-22T07:56:18.542Z</time></trkpt><trkpt lat="44.1251392" lon="8.1013206"><ele>347.0</ele><time>2026-04-22T07:56:20.542Z</time></trkpt><trkpt lat="44.1251913" lon="8.1012364"><ele>353.0</ele><time>2026-04-22T07:56:21.542Z</time></trkpt><trkpt lat="44.125248" lon="8.1011659"><ele>359.0</ele><time>2026-04-22T07:56:22.542Z</time></trkpt><trkpt lat="44.1253147" lon="8.1011122"><ele>365.0</ele><time>2026-04-22T07:56:23.541Z</time></trkpt><trkpt lat="44.1253887" lon="8.1010773"><ele>371.0</ele><time>2026-04-22T07:56:24.541Z</time></trkpt><trkpt lat="44.125448" lon="8.1010459"><ele>377.0</ele><time>2026-04-22T07:56:25.542Z</time></trkpt><trkpt lat="44.1255537" lon="8.1009819"><ele>377.0</ele><time>2026-04-22T07:56:27.542Z</time></trkpt><trkpt lat="44.1256599" lon="8.10093"><ele>377.0</ele><time>2026-04-22T07:56:29.541Z</time></trkpt><trkpt lat="44.1257489" lon="8.1009047"><ele>377.0</ele><time>2026-04-22T07:56:31.542Z</time></trkpt><trkpt lat="44.1258293" lon="8.1009902"><ele>377.0</ele><time>2026-04-22T07:56:33.542Z</time></trkpt><trkpt lat="44.1258648" lon="8.101094"><ele>377.0</ele><time>2026-04-22T07:56:34.542Z</time></trkpt><trkpt lat="44.1258806" lon="8.1012355"><ele>376.25</ele><time>2026-04-22T07:56:35.541Z</time></trkpt><trkpt lat="44.1258973" lon="8.1013996"><ele>375.5</ele><time>2026-04-22T07:56:36.542Z</time></trkpt><trkpt lat="44.1259252" lon="8.1015649"><ele>374.75</ele><time>2026-04-22T07:56:37.542Z</time></trkpt><trkpt lat="44.1259578" lon="8.101719"><ele>374.0</ele><time>2026-04-22T07:56:38.542Z</time></trkpt><trkpt lat="44.1259832" lon="8.1018472"><ele>370.4</ele><time>2026-04-22T07:56:39.542Z</time></trkpt><trkpt lat="44.1259942" lon="8.1019589"><ele>366.79999999999995</ele><time>2026-04-22T07:56:40.542Z</time></trkpt><trkpt lat="44.1259621" lon="8.1021519"><ele>363.20000000000005</ele><time>2026-04-22T07:56:42.542Z</time></trkpt><trkpt lat="44.1259324" lon="8.1022779"><ele>359.6</ele><time>2026-04-22T07:56:43.541Z</time></trkpt><trkpt lat="44.1258928" lon="8.1024194"><ele>356.0</ele><time>2026-04-22T07:56:44.542Z</time></trkpt><trkpt lat="44.125862" lon="8.102553"><ele>355.83333333333337</ele><time>2026-04-22T07:56:45.542Z</time></trkpt><trkpt lat="44.1258363" lon="8.1026689"><ele>355.6666666666667</ele><time>2026-04-22T07:56:46.542Z</time></trkpt><trkpt lat="44.1258164" lon="8.1027708"><ele>355.5</ele><time>2026-04-22T07:56:47.542Z</time></trkpt><trkpt lat="44.1258209" lon="8.1029275"><ele>355.3333333333333</ele><time>2026-04-22T07:56:49.542Z</time></trkpt><trkpt lat="44.1258854" lon="8.1029639"><ele>355.16666666666663</ele><time>2026-04-22T07:56:51.541Z</time></trkpt><trkpt lat="44.1259302" lon="8.1028434"><ele>355.0</ele><time>2026-04-22T07:56:54.542Z</time></trkpt><trkpt lat="44.1259333" lon="8.1027518"><ele>355.0</ele><time>2026-04-22T07:56:55.542Z</time></trkpt><trkpt lat="44.1259412" lon="8.1026502"><ele>355.0</ele><time>2026-04-22T07:56:56.542Z</time></trkpt><trkpt lat="44.1259662" lon="8.1025499"><ele>355.0</ele><time>2026-04-22T07:56:57.542Z</time></trkpt><trkpt lat="44.1260158" lon="8.102443"><ele>355.0</ele><time>2026-04-22T07:56:58.542Z</time></trkpt><trkpt lat="44.1260915" lon="8.1023141"><ele>355.0</ele><time>2026-04-22T07:56:59.541Z</time></trkpt><trkpt lat="44.1261826" lon="8.1021714"><ele>355.2</ele><time>2026-04-22T07:57:00.542Z</time></trkpt><trkpt lat="44.1262788" lon="8.1020342"><ele>355.4</ele><time>2026-04-22T07:57:01.542Z</time></trkpt><trkpt lat="44.1263558" lon="8.1019011"><ele>355.6</ele><time>2026-04-22T07:57:02.542Z</time></trkpt><trkpt lat="44.1263985" lon="8.1017718"><ele>355.8</ele><time>2026-04-22T07:57:03.541Z</time></trkpt><trkpt lat="44.1264175" lon="8.1016537"><ele>356.0</ele><time>2026-04-22T07:57:04.542Z</time></trkpt><trkpt lat="44.1264109" lon="8.1015391"><ele>356.0</ele><time>2026-04-22T07:57:05.542Z</time></trkpt><trkpt lat="44.1263688" lon="8.1014269"><ele>356.0</ele><time>2026-04-22T07:57:06.542Z</time></trkpt><trkpt lat="44.1263363" lon="8.1013344"><ele>356.0</ele><time>2026-04-22T07:57:07.542Z</time></trkpt><trkpt lat="44.1264391" lon="8.1014538"><ele>356.0</ele><time>2026-04-22T07:57:12.542Z</time></trkpt><trkpt lat="44.1264966" lon="8.101579"><ele>356.0</ele><time>2026-04-22T07:57:13.542Z</time></trkpt><trkpt lat="44.1265484" lon="8.1017204"><ele>362.8</ele><time>2026-04-22T07:57:14.542Z</time></trkpt><trkpt lat="44.1265919" lon="8.1018684"><ele>369.6</ele><time>2026-04-22T07:57:15.542Z</time></trkpt><trkpt lat="44.1266253" lon="8.1020225"><ele>376.4</ele><time>2026-04-22T07:57:16.542Z</time></trkpt><trkpt lat="44.1266306" lon="8.1021555"><ele>383.2</ele><time>2026-04-22T07:57:17.542Z</time></trkpt><trkpt lat="44.1266102" lon="8.1022771"><ele>390.0</ele><time>2026-04-22T07:57:18.542Z</time></trkpt><trkpt lat="44.1265808" lon="8.1024164"><ele>390.0</ele><time>2026-04-22T07:57:19.542Z</time></trkpt><trkpt lat="44.1265443" lon="8.1025568"><ele>390.0</ele><time>2026-04-22T07:57:20.542Z</time></trkpt><trkpt lat="44.1265189" lon="8.1026896"><ele>390.0</ele><time>2026-04-22T07:57:21.542Z</time></trkpt><trkpt lat="44.1265066" lon="8.1027869"><ele>390.0</ele><time>2026-04-22T07:57:22.542Z</time></trkpt><trkpt lat="44.1265412" lon="8.1028836"><ele>390.0</ele><time>2026-04-22T07:57:24.542Z</time></trkpt><trkpt lat="44.1266055" lon="8.1029977"><ele>390.0</ele><time>2026-04-22T07:57:26.542Z</time></trkpt><trkpt lat="44.1267056" lon="8.1031259"><ele>390.0</ele><time>2026-04-22T07:57:28.542Z</time></trkpt><trkpt lat="44.1267831" lon="8.1031999"><ele>390.0</ele><time>2026-04-22T07:57:29.541Z</time></trkpt><trkpt lat="44.1268702" lon="8.1032784"><ele>390.0</ele><time>2026-04-22T07:57:30.542Z</time></trkpt><trkpt lat="44.1269558" lon="8.1033651"><ele>390.0</ele><time>2026-04-22T07:57:31.542Z</time></trkpt><trkpt lat="44.1270342" lon="8.1034817"><ele>388.0</ele><time>2026-04-22T07:57:32.542Z</time></trkpt><trkpt lat="44.1271006" lon="8.1036248"><ele>386.0</ele><time>2026-04-22T07:57:33.542Z</time></trkpt><trkpt lat="44.1271646" lon="8.1037623"><ele>384.0</ele><time>2026-04-22T07:57:34.541Z</time></trkpt><trkpt lat="44.1272269" lon="8.103884"><ele>382.0</ele><time>2026-04-22T07:57:35.542Z</time></trkpt><trkpt lat="44.1272986" lon="8.1039806"><ele>380.0</ele><time>2026-04-22T07:57:36.542Z</time></trkpt><trkpt lat="44.1273734" lon="8.1040516"><ele>382.0</ele><time>2026-04-22T07:57:37.542Z</time></trkpt><trkpt lat="44.1274629" lon="8.1040994"><ele>384.0</ele><time>2026-04-22T07:57:38.542Z</time></trkpt><trkpt lat="44.1275672" lon="8.1041478"><ele>386.0</ele><time>2026-04-22T07:57:39.542Z</time></trkpt><trkpt lat="44.1276696" lon="8.1041983"><ele>388.0</ele><time>2026-04-22T07:57:40.542Z</time></trkpt><trkpt lat="44.1277591" lon="8.1042529"><ele>390.0</ele><time>2026-04-22T07:57:41.542Z</time></trkpt><trkpt lat="44.1278247" lon="8.1043164"><ele>390.0</ele><time>2026-04-22T07:57:42.542Z</time></trkpt><trkpt lat="44.1278714" lon="8.1043846"><ele>390.0</ele><time>2026-04-22T07:57:43.541Z</time></trkpt><trkpt lat="44.1279022" lon="8.1044749"><ele>390.0</ele><time>2026-04-22T07:57:44.542Z</time></trkpt><trkpt lat="44.1279309" lon="8.1045572"><ele>390.0</ele><time>2026-04-22T07:57:45.541Z</time></trkpt><trkpt lat="44.1280172" lon="8.1046554"><ele>390.0</ele><time>2026-04-22T07:57:47.542Z</time></trkpt><trkpt lat="44.1281208" lon="8.1046246"><ele>390.0</ele><time>2026-04-22T07:57:49.542Z</time></trkpt><trkpt lat="44.1281954" lon="8.1045903"><ele>391.8</ele><time>2026-04-22T07:57:50.542Z</time></trkpt><trkpt lat="44.1282801" lon="8.1045616"><ele>393.6</ele><time>2026-04-22T07:57:51.542Z</time></trkpt><trkpt lat="44.1283757" lon="8.1045597"><ele>395.4</ele><time>2026-04-22T07:57:52.542Z</time></trkpt><trkpt lat="44.1284803" lon="8.1045565"><ele>397.2</ele><time>2026-04-22T07:57:53.542Z</time></trkpt><trkpt lat="44.1285843" lon="8.1045488"><ele>399.0</ele><time>2026-04-22T07:57:54.542Z</time></trkpt><trkpt lat="44.1286833" lon="8.1045465"><ele>399.0</ele><time>2026-04-22T07:57:55.542Z</time></trkpt><trkpt lat="44.1287758" lon="8.1045509"><ele>399.0</ele><time>2026-04-22T07:57:56.542Z</time></trkpt><trkpt lat="44.128864" lon="8.1045643"><ele>399.0</ele><time>2026-04-22T07:57:57.542Z</time></trkpt><trkpt lat="44.1289371" lon="8.1045706"><ele>399.0</ele><time>2026-04-22T07:57:58.542Z</time></trkpt><trkpt lat="44.1290097" lon="8.1045708"><ele>399.0</ele><time>2026-04-22T07:57:59.541Z</time></trkpt><trkpt lat="44.1290863" lon="8.1045683"><ele>399.0</ele><time>2026-04-22T07:58:00.542Z</time></trkpt><trkpt lat="44.1291739" lon="8.1045585"><ele>399.0</ele><time>2026-04-22T07:58:01.542Z</time></trkpt><trkpt lat="44.1292748" lon="8.1045452"><ele>399.0</ele><time>2026-04-22T07:58:02.542Z</time></trkpt><trkpt lat="44.1293703" lon="8.1045188"><ele>399.0</ele><time>2026-04-22T07:58:03.542Z</time></trkpt><trkpt lat="44.1294649" lon="8.1044939"><ele>399.0</ele><time>2026-04-22T07:58:04.542Z</time></trkpt><trkpt lat="44.1295507" lon="8.1044449"><ele>399.0</ele><time>2026-04-22T07:58:05.541Z</time></trkpt><trkpt lat="44.1296188" lon="8.1043811"><ele>399.0</ele><time>2026-04-22T07:58:06.542Z</time></trkpt><trkpt lat="44.1296803" lon="8.1043044"><ele>399.0</ele><time>2026-04-22T07:58:07.542Z</time></trkpt><trkpt lat="44.129745" lon="8.1042405"><ele>399.0</ele><time>2026-04-22T07:58:08.542Z</time></trkpt><trkpt lat="44.1298276" lon="8.1041863"><ele>399.0</ele><time>2026-04-22T07:58:09.542Z</time></trkpt><trkpt lat="44.1299123" lon="8.1041466"><ele>399.0</ele><time>2026-04-22T07:58:10.542Z</time></trkpt><trkpt lat="44.1300167" lon="8.1041131"><ele>399.4</ele><time>2026-04-22T07:58:11.542Z</time></trkpt><trkpt lat="44.1301349" lon="8.104087"><ele>399.79999999999995</ele><time>2026-04-22T07:58:12.542Z</time></trkpt><trkpt lat="44.1302479" lon="8.1040611"><ele>400.20000000000005</ele><time>2026-04-22T07:58:13.542Z</time></trkpt><trkpt lat="44.1303585" lon="8.1040384"><ele>400.6</ele><time>2026-04-22T07:58:14.541Z</time></trkpt><trkpt lat="44.1304554" lon="8.104013"><ele>401.0</ele><time>2026-04-22T07:58:15.541Z</time></trkpt><trkpt lat="44.1305335" lon="8.1039929"><ele>401.0</ele><time>2026-04-22T07:58:16.541Z</time></trkpt><trkpt lat="44.1305943" lon="8.1039512"><ele>401.0</ele><time>2026-04-22T07:58:17.542Z</time></trkpt><trkpt lat="44.1306569" lon="8.1038806"><ele>401.0</ele><time>2026-04-22T07:58:18.542Z</time></trkpt><trkpt lat="44.1307213" lon="8.1037895"><ele>401.0</ele><time>2026-04-22T07:58:19.542Z</time></trkpt><trkpt lat="44.1307884" lon="8.1036769"><ele>401.0</ele><time>2026-04-22T07:58:20.542Z</time></trkpt><trkpt lat="44.1308502" lon="8.1035587"><ele>401.0</ele><time>2026-04-22T07:58:21.542Z</time></trkpt><trkpt lat="44.1309112" lon="8.1034435"><ele>401.0</ele><time>2026-04-22T07:58:22.542Z</time></trkpt><trkpt lat="44.1309629" lon="8.1033381"><ele>401.0</ele><time>2026-04-22T07:58:23.542Z</time></trkpt><trkpt lat="44.1310087" lon="8.1032307"><ele>401.0</ele><time>2026-04-22T07:58:24.541Z</time></trkpt><trkpt lat="44.1310553" lon="8.1031227"><ele>401.0</ele><time>2026-04-22T07:58:25.542Z</time></trkpt><trkpt lat="44.131105" lon="8.1030242"><ele>401.0</ele><time>2026-04-22T07:58:26.542Z</time></trkpt><trkpt lat="44.1311738" lon="8.102936"><ele>401.0</ele><time>2026-04-22T07:58:27.541Z</time></trkpt><trkpt lat="44.1312635" lon="8.102861"><ele>401.0</ele><time>2026-04-22T07:58:28.542Z</time></trkpt><trkpt lat="44.1313717" lon="8.1027925"><ele>401.0</ele><time>2026-04-22T07:58:29.542Z</time></trkpt><trkpt lat="44.1314766" lon="8.1027149"><ele>401.0</ele><time>2026-04-22T07:58:30.542Z</time></trkpt><trkpt lat="44.1315706" lon="8.1026442"><ele>401.16666666666663</ele><time>2026-04-22T07:58:31.542Z</time></trkpt><trkpt lat="44.1316548" lon="8.1025675"><ele>401.3333333333333</ele><time>2026-04-22T07:58:32.541Z</time></trkpt><trkpt lat="44.1317329" lon="8.1025014"><ele>401.5</ele><time>2026-04-22T07:58:33.542Z</time></trkpt><trkpt lat="44.1317985" lon="8.10243"><ele>401.66666666666663</ele><time>2026-04-22T07:58:34.542Z</time></trkpt><trkpt lat="44.1318594" lon="8.1023472"><ele>401.8333333333333</ele><time>2026-04-22T07:58:35.541Z</time></trkpt><trkpt lat="44.1319191" lon="8.1022581"><ele>402.0</ele><time>2026-04-22T07:58:36.542Z</time></trkpt><trkpt lat="44.1319745" lon="8.1021678"><ele>402.0</ele><time>2026-04-22T07:58:37.542Z</time></trkpt><trkpt lat="44.1320195" lon="8.1020756"><ele>402.0</ele><time>2026-04-22T07:58:38.542Z</time></trkpt><trkpt lat="44.1320573" lon="8.1019747"><ele>402.0</ele><time>2026-04-22T07:58:39.542Z</time></trkpt><trkpt lat="44.1321034" lon="8.1018581"><ele>402.0</ele><time>2026-04-22T07:58:40.542Z</time></trkpt><trkpt lat="44.132156" lon="8.1017379"><ele>402.0</ele><time>2026-04-22T07:58:41.541Z</time></trkpt><trkpt lat="44.1322166" lon="8.1016305"><ele>405.6</ele><time>2026-04-22T07:58:42.541Z</time></trkpt><trkpt lat="44.1322825" lon="8.1015382"><ele>409.20000000000005</ele><time>2026-04-22T07:58:43.542Z</time></trkpt><trkpt lat="44.1323606" lon="8.1014448"><ele>412.8</ele><time>2026-04-22T07:58:44.542Z</time></trkpt><trkpt lat="44.1324474" lon="8.1013566"><ele>416.4</ele><time>2026-04-22T07:58:45.542Z</time></trkpt><trkpt lat="44.1325286" lon="8.1012625"><ele>420.0</ele><time>2026-04-22T07:58:46.542Z</time></trkpt><trkpt lat="44.1326042" lon="8.1011611"><ele>419.2</ele><time>2026-04-22T07:58:47.542Z</time></trkpt><trkpt lat="44.1326653" lon="8.101043"><ele>418.4</ele><time>2026-04-22T07:58:48.542Z</time></trkpt><trkpt lat="44.1327042" lon="8.100934"><ele>417.6</ele><time>2026-04-22T07:58:49.542Z</time></trkpt><trkpt lat="44.1327337" lon="8.1008274"><ele>416.8</ele><time>2026-04-22T07:58:50.542Z</time></trkpt><trkpt lat="44.132758" lon="8.100732"><ele>416.0</ele><time>2026-04-22T07:58:51.542Z</time></trkpt><trkpt lat="44.1328113" lon="8.1006031"><ele>416.0</ele><time>2026-04-22T07:58:53.541Z</time></trkpt><trkpt lat="44.1329008" lon="8.1005339"><ele>416.0</ele><time>2026-04-22T07:58:55.542Z</time></trkpt><trkpt lat="44.1330157" lon="8.1004579"><ele>416.0</ele><time>2026-04-22T07:58:57.542Z</time></trkpt><trkpt lat="44.1330845" lon="8.1003973"><ele>416.0</ele><time>2026-04-22T07:58:58.542Z</time></trkpt><trkpt lat="44.133159" lon="8.1003309"><ele>416.0</ele><time>2026-04-22T07:58:59.542Z</time></trkpt><trkpt lat="44.1332359" lon="8.1002652"><ele>415.20000000000005</ele><time>2026-04-22T07:59:00.542Z</time></trkpt><trkpt lat="44.1333162" lon="8.100213"><ele>414.40000000000003</ele><time>2026-04-22T07:59:01.542Z</time></trkpt><trkpt lat="44.1333831" lon="8.1001751"><ele>413.6</ele><time>2026-04-22T07:59:02.541Z</time></trkpt><trkpt lat="44.1334864" lon="8.1001104"><ele>412.8</ele><time>2026-04-22T07:59:04.542Z</time></trkpt><trkpt lat="44.1335775" lon="8.100023"><ele>412.0</ele><time>2026-04-22T07:59:06.542Z</time></trkpt><trkpt lat="44.1336452" lon="8.0998981"><ele>412.00000000000006</ele><time>2026-04-22T07:59:08.542Z</time></trkpt><trkpt lat="44.1336843" lon="8.0998216"><ele>412.0</ele><time>2026-04-22T07:59:09.542Z</time></trkpt><trkpt lat="44.133727" lon="8.0997476"><ele>412.0</ele><time>2026-04-22T07:59:10.542Z</time></trkpt><trkpt lat="44.1337909" lon="8.0996256"><ele>412.0</ele><time>2026-04-22T07:59:12.542Z</time></trkpt><trkpt lat="44.1337756" lon="8.0997569"><ele>412.00000000000006</ele><time>2026-04-22T07:59:46.542Z</time></trkpt><trkpt lat="44.1337455" lon="8.0998626"><ele>412.0</ele><time>2026-04-22T07:59:47.542Z</time></trkpt><trkpt lat="44.133717" lon="8.0999708"><ele>405.6</ele><time>2026-04-22T07:59:48.542Z</time></trkpt><trkpt lat="44.1336919" lon="8.1000707"><ele>399.20000000000005</ele><time>2026-04-22T07:59:49.542Z</time></trkpt><trkpt lat="44.1336691" lon="8.1001622"><ele>392.8</ele><time>2026-04-22T07:59:50.542Z</time></trkpt><trkpt lat="44.13363" lon="8.1002767"><ele>386.4</ele><time>2026-04-22T07:59:52.541Z</time></trkpt><trkpt lat="44.1337057" lon="8.1003135"><ele>380.0</ele><time>2026-04-22T07:59:56.542Z</time></trkpt><trkpt lat="44.1338114" lon="8.1002004"><ele>380.0</ele><time>2026-04-22T07:59:58.542Z</time></trkpt><trkpt lat="44.1338624" lon="8.1001316"><ele>380.0</ele><time>2026-04-22T07:59:59.542Z</time></trkpt><trkpt lat="44.1339138" lon="8.1000503"><ele>380.0</ele><time>2026-04-22T08:00:00.542Z</time></trkpt><trkpt lat="44.1339624" lon="8.0999627"><ele>380.0</ele><time>2026-04-22T08:00:01.542Z</time></trkpt><trkpt lat="44.13402" lon="8.099888"><ele>380.0</ele><time>2026-04-22T08:00:02.542Z</time></trkpt><trkpt lat="44.1340801" lon="8.0998345"><ele>380.0</ele><time>2026-04-22T08:00:03.542Z</time></trkpt><trkpt lat="44.1341651" lon="8.099762"><ele>378.33333333333337</ele><time>2026-04-22T08:00:05.542Z</time></trkpt><trkpt lat="44.1342468" lon="8.0997369"><ele>376.6666666666667</ele><time>2026-04-22T08:00:08.542Z</time></trkpt><trkpt lat="44.1343067" lon="8.0996816"><ele>375.0</ele><time>2026-04-22T08:00:49.542Z</time></trkpt><trkpt lat="44.1343346" lon="8.0995852"><ele>373.3333333333333</ele><time>2026-04-22T08:00:51.542Z</time></trkpt><trkpt lat="44.1343608" lon="8.0994882"><ele>371.66666666666663</ele><time>2026-04-22T08:00:52.541Z</time></trkpt><trkpt lat="44.1343955" lon="8.0993853"><ele>370.0</ele><time>2026-04-22T08:00:53.541Z</time></trkpt><trkpt lat="44.1344277" lon="8.099301"><ele>370.0</ele><time>2026-04-22T08:00:54.542Z</time></trkpt><trkpt lat="44.134469" lon="8.0991853"><ele>370.0</ele><time>2026-04-22T08:00:56.542Z</time></trkpt><trkpt lat="44.134524" lon="8.0990884"><ele>370.0</ele><time>2026-04-22T08:00:59.542Z</time></trkpt><trkpt lat="44.1345861" lon="8.0989874"><ele>370.0</ele><time>2026-04-22T08:01:01.542Z</time></trkpt><trkpt lat="44.1346569" lon="8.0988929"><ele>370.0</ele><time>2026-04-22T08:01:03.542Z</time></trkpt><trkpt lat="44.1347124" lon="8.0988113"><ele>367.8333333333333</ele><time>2026-04-22T08:01:05.542Z</time></trkpt><trkpt lat="44.1347902" lon="8.0987183"><ele>365.66666666666663</ele><time>2026-04-22T08:01:07.542Z</time></trkpt><trkpt lat="44.1348766" lon="8.0986506"><ele>363.5</ele><time>2026-04-22T08:01:09.541Z</time></trkpt><trkpt lat="44.134934" lon="8.0985971"><ele>361.3333333333333</ele><time>2026-04-22T08:01:12.542Z</time></trkpt><trkpt lat="44.1349893" lon="8.098541"><ele>359.1666666666667</ele><time>2026-04-22T08:01:14.542Z</time></trkpt><trkpt lat="44.1350402" lon="8.0984599"><ele>357.0</ele><time>2026-04-22T08:01:16.541Z</time></trkpt><trkpt lat="44.1351011" lon="8.0983748"><ele>357.0</ele><time>2026-04-22T08:01:19.541Z</time></trkpt><trkpt lat="44.1351518" lon="8.0983052"><ele>357.0</ele><time>2026-04-22T08:01:21.542Z</time></trkpt><trkpt lat="44.1352026" lon="8.0982434"><ele>357.0</ele><time>2026-04-22T08:01:24.542Z</time></trkpt><trkpt lat="44.1353365" lon="8.0982174"><ele>357.0</ele><time>2026-04-22T08:01:36.542Z</time></trkpt><trkpt lat="44.1354183" lon="8.0982268"><ele>357.0</ele><time>2026-04-22T08:01:38.541Z</time></trkpt><trkpt lat="44.1354883" lon="8.0982264"><ele>357.0</ele><time>2026-04-22T08:01:40.542Z</time></trkpt><trkpt lat="44.1355519" lon="8.0982505"><ele>354.85714285714283</ele><time>2026-04-22T08:01:42.542Z</time></trkpt><trkpt lat="44.1356237" lon="8.0982428"><ele>352.7142857142857</ele><time>2026-04-22T08:01:55.542Z</time></trkpt><trkpt lat="44.1356514" lon="8.0981467"><ele>350.57142857142856</ele><time>2026-04-22T08:01:58.542Z</time></trkpt><trkpt lat="44.1356966" lon="8.0980455"><ele>348.42857142857144</ele><time>2026-04-22T08:02:04.542Z</time></trkpt><trkpt lat="44.1357412" lon="8.0979576"><ele>346.2857142857143</ele><time>2026-04-22T08:02:08.542Z</time></trkpt><trkpt lat="44.1357782" lon="8.097877"><ele>344.1428571428571</ele><time>2026-04-22T08:02:12.542Z</time></trkpt><trkpt lat="44.1357459" lon="8.0979656"><ele>342.0</ele><time>2026-04-22T08:03:44.541Z</time></trkpt><trkpt lat="44.1356973" lon="8.0980458"><ele>340.1428571428571</ele><time>2026-04-22T08:03:47.542Z</time></trkpt><trkpt lat="44.1356707" lon="8.0981332"><ele>338.2857142857143</ele><time>2026-04-22T08:03:50.542Z</time></trkpt><trkpt lat="44.135659" lon="8.0982405"><ele>336.42857142857144</ele><time>2026-04-22T08:03:57.542Z</time></trkpt><trkpt lat="44.1356577" lon="8.0983298"><ele>334.57142857142856</ele><time>2026-04-22T08:04:13.542Z</time></trkpt><trkpt lat="44.1356893" lon="8.0984141"><ele>332.7142857142857</ele><time>2026-04-22T08:04:16.541Z</time></trkpt><trkpt lat="44.1357572" lon="8.0984894"><ele>330.85714285714283</ele><time>2026-04-22T08:16:56.541Z</time></trkpt><trkpt lat="44.1357034" lon="8.0983989"><ele>329.0</ele><time>2026-04-22T08:18:56.541Z</time></trkpt><trkpt lat="44.135722" lon="8.0982879"><ele>331.1666666666667</ele><time>2026-04-22T08:18:59.541Z</time></trkpt><trkpt lat="44.1357258" lon="8.0981891"><ele>333.33333333333337</ele><time>2026-04-22T08:19:02.541Z</time></trkpt><trkpt lat="44.1357371" lon="8.098079"><ele>335.5</ele><time>2026-04-22T08:19:05.54Z</time></trkpt><trkpt lat="44.1356801" lon="8.0981631"><ele>337.6666666666667</ele><time>2026-04-22T08:19:12.541Z</time></trkpt><trkpt lat="44.1355765" lon="8.0982168"><ele>339.8333333333333</ele><time>2026-04-22T08:19:31.541Z</time></trkpt><trkpt lat="44.1354997" lon="8.098199"><ele>342.0</ele><time>2026-04-22T08:19:34.541Z</time></trkpt><trkpt lat="44.1354422" lon="8.0981624"><ele>344.5</ele><time>2026-04-22T08:19:38.541Z</time></trkpt><trkpt lat="44.1353687" lon="8.0981524"><ele>347.0</ele><time>2026-04-22T08:19:42.541Z</time></trkpt><trkpt lat="44.1352803" lon="8.0982161"><ele>349.5</ele><time>2026-04-22T08:19:55.54Z</time></trkpt><trkpt lat="44.1351976" lon="8.0982977"><ele>352.0</ele><time>2026-04-22T08:19:57.541Z</time></trkpt><trkpt lat="44.1351334" lon="8.09839"><ele>354.5</ele><time>2026-04-22T08:20:00.541Z</time></trkpt><trkpt lat="44.1350928" lon="8.0984693"><ele>357.0</ele><time>2026-04-22T08:20:02.541Z</time></trkpt><trkpt lat="44.1350384" lon="8.0985386"><ele>357.0</ele><time>2026-04-22T08:20:04.541Z</time></trkpt><trkpt lat="44.1349774" lon="8.0985846"><ele>357.0</ele><time>2026-04-22T08:20:06.54Z</time></trkpt><trkpt lat="44.134905" lon="8.0986375"><ele>357.0</ele><time>2026-04-22T08:20:08.541Z</time></trkpt><trkpt lat="44.134833" lon="8.0986862"><ele>357.0</ele><time>2026-04-22T08:20:10.541Z</time></trkpt><trkpt lat="44.1347706" lon="8.0987624"><ele>357.0</ele><time>2026-04-22T08:20:12.541Z</time></trkpt><trkpt lat="44.1347165" lon="8.0988336"><ele>357.0</ele><time>2026-04-22T08:20:14.54Z</time></trkpt><trkpt lat="44.1346497" lon="8.09893"><ele>359.6</ele><time>2026-04-22T08:20:16.541Z</time></trkpt><trkpt lat="44.1345945" lon="8.0990173"><ele>362.20000000000005</ele><time>2026-04-22T08:20:18.541Z</time></trkpt><trkpt lat="44.1345452" lon="8.0991078"><ele>364.8</ele><time>2026-04-22T08:20:21.541Z</time></trkpt><trkpt lat="44.1344879" lon="8.0992173"><ele>367.4</ele><time>2026-04-22T08:20:24.541Z</time></trkpt><trkpt lat="44.1344422" lon="8.0993483"><ele>370.0</ele><time>2026-04-22T08:20:26.54Z</time></trkpt><trkpt lat="44.1344147" lon="8.0994598"><ele>370.0</ele><time>2026-04-22T08:20:28.541Z</time></trkpt><trkpt lat="44.1343888" lon="8.0995593"><ele>370.0</ele><time>2026-04-22T08:20:30.54Z</time></trkpt><trkpt lat="44.1343776" lon="8.0996612"><ele>370.0</ele><time>2026-04-22T08:20:34.541Z</time></trkpt><trkpt lat="44.1342852" lon="8.0996959"><ele>370.0</ele><time>2026-04-22T08:20:58.541Z</time></trkpt><trkpt lat="44.1342019" lon="8.0997417"><ele>370.0</ele><time>2026-04-22T08:21:00.541Z</time></trkpt><trkpt lat="44.1340979" lon="8.0998406"><ele>372.0</ele><time>2026-04-22T08:21:02.541Z</time></trkpt><trkpt lat="44.1340359" lon="8.0999131"><ele>374.0</ele><time>2026-04-22T08:21:03.541Z</time></trkpt><trkpt lat="44.1339836" lon="8.0999946"><ele>376.0</ele><time>2026-04-22T08:21:04.541Z</time></trkpt><trkpt lat="44.1339172" lon="8.1001076"><ele>378.0</ele><time>2026-04-22T08:21:06.54Z</time></trkpt><trkpt lat="44.1338374" lon="8.1002223"><ele>380.0</ele><time>2026-04-22T08:21:08.541Z</time></trkpt><trkpt lat="44.1337784" lon="8.1002821"><ele>380.0</ele><time>2026-04-22T08:21:09.541Z</time></trkpt><trkpt lat="44.133717" lon="8.100317"><ele>380.0</ele><time>2026-04-22T08:21:10.541Z</time></trkpt><trkpt lat="44.1336616" lon="8.1002597"><ele>380.0</ele><time>2026-04-22T08:21:13.541Z</time></trkpt><trkpt lat="44.1336893" lon="8.1001699"><ele>380.0</ele><time>2026-04-22T08:21:15.541Z</time></trkpt><trkpt lat="44.1337162" lon="8.1000452"><ele>380.0</ele><time>2026-04-22T08:21:17.541Z</time></trkpt><trkpt lat="44.1337397" lon="8.0998847"><ele>380.0</ele><time>2026-04-22T08:21:19.54Z</time></trkpt><trkpt lat="44.1337622" lon="8.0997988"><ele>385.33333333333337</ele><time>2026-04-22T08:21:20.541Z</time></trkpt><trkpt lat="44.1337937" lon="8.0997154"><ele>390.6666666666667</ele><time>2026-04-22T08:21:21.541Z</time></trkpt><trkpt lat="44.1338329" lon="8.0995918"><ele>396.0</ele><time>2026-04-22T08:21:23.541Z</time></trkpt><trkpt lat="44.1338681" lon="8.099498"><ele>401.33333333333337</ele><time>2026-04-22T08:21:26.541Z</time></trkpt><trkpt lat="44.133927" lon="8.0994107"><ele>406.6666666666667</ele><time>2026-04-22T08:21:32.541Z</time></trkpt><trkpt lat="44.1339728" lon="8.0993191"><ele>412.0</ele><time>2026-04-22T08:21:33.541Z</time></trkpt><trkpt lat="44.1340285" lon="8.0992066"><ele>409.40000000000003</ele><time>2026-04-22T08:21:34.541Z</time></trkpt><trkpt lat="44.1340913" lon="8.0990853"><ele>406.8</ele><time>2026-04-22T08:21:35.541Z</time></trkpt><trkpt lat="44.1341568" lon="8.0989652"><ele>404.2</ele><time>2026-04-22T08:21:36.54Z</time></trkpt><trkpt lat="44.1342205" lon="8.0988472"><ele>401.6</ele><time>2026-04-22T08:21:37.541Z</time></trkpt><trkpt lat="44.1342944" lon="8.0987308"><ele>399.0</ele><time>2026-04-22T08:21:38.541Z</time></trkpt><trkpt lat="44.1343759" lon="8.0986213"><ele>399.0</ele><time>2026-04-22T08:21:39.541Z</time></trkpt><trkpt lat="44.1344644" lon="8.0985405"><ele>399.0</ele><time>2026-04-22T08:21:40.541Z</time></trkpt><trkpt lat="44.1345357" lon="8.098477"><ele>399.0</ele><time>2026-04-22T08:21:41.54Z</time></trkpt><trkpt lat="44.1345954" lon="8.0984147"><ele>399.0</ele><time>2026-04-22T08:21:42.54Z</time></trkpt><trkpt lat="44.1346419" lon="8.0983396"><ele>399.0</ele><time>2026-04-22T08:21:43.541Z</time></trkpt><trkpt lat="44.1346851" lon="8.0982344"><ele>399.0</ele><time>2026-04-22T08:21:44.541Z</time></trkpt><trkpt lat="44.1347294" lon="8.0981088"><ele>403.4</ele><time>2026-04-22T08:21:45.54Z</time></trkpt><trkpt lat="44.1347928" lon="8.0979773"><ele>407.79999999999995</ele><time>2026-04-22T08:21:46.541Z</time></trkpt><trkpt lat="44.1348648" lon="8.097861"><ele>412.20000000000005</ele><time>2026-04-22T08:21:47.541Z</time></trkpt><trkpt lat="44.134933" lon="8.0977663"><ele>416.6</ele><time>2026-04-22T08:21:48.54Z</time></trkpt><trkpt lat="44.134986" lon="8.0976852"><ele>421.0</ele><time>2026-04-22T08:21:49.541Z</time></trkpt><trkpt lat="44.1350349" lon="8.0976007"><ele>415.83333333333337</ele><time>2026-04-22T08:21:50.541Z</time></trkpt><trkpt lat="44.1350826" lon="8.0975048"><ele>410.6666666666667</ele><time>2026-04-22T08:21:51.541Z</time></trkpt><trkpt lat="44.1351237" lon="8.0974052"><ele>405.5</ele><time>2026-04-22T08:21:52.541Z</time></trkpt><trkpt lat="44.1351628" lon="8.0972905"><ele>400.33333333333337</ele><time>2026-04-22T08:21:53.541Z</time></trkpt><trkpt lat="44.1351782" lon="8.097165"><ele>395.1666666666667</ele><time>2026-04-22T08:21:54.541Z</time></trkpt><trkpt lat="44.1351932" lon="8.097039"><ele>390.0</ele><time>2026-04-22T08:21:55.54Z</time></trkpt><trkpt lat="44.1352157" lon="8.0969112"><ele>390.0</ele><time>2026-04-22T08:21:56.541Z</time></trkpt><trkpt lat="44.1352441" lon="8.0967885"><ele>390.0</ele><time>2026-04-22T08:21:57.541Z</time></trkpt><trkpt lat="44.1352602" lon="8.0966582"><ele>390.0</ele><time>2026-04-22T08:21:58.54Z</time></trkpt><trkpt lat="44.1352804" lon="8.0965327"><ele>390.0</ele><time>2026-04-22T08:21:59.541Z</time></trkpt><trkpt lat="44.1353084" lon="8.0964031"><ele>390.0</ele><time>2026-04-22T08:22:00.541Z</time></trkpt><trkpt lat="44.1353446" lon="8.0962808"><ele>392.5</ele><time>2026-04-22T08:22:01.541Z</time></trkpt><trkpt lat="44.1353787" lon="8.096166"><ele>395.0</ele><time>2026-04-22T08:22:02.541Z</time></trkpt><trkpt lat="44.1354014" lon="8.0960592"><ele>397.5</ele><time>2026-04-22T08:22:03.541Z</time></trkpt><trkpt lat="44.1354095" lon="8.0959469"><ele>400.0</ele><time>2026-04-22T08:22:04.541Z</time></trkpt><trkpt lat="44.1354164" lon="8.0958369"><ele>402.5</ele><time>2026-04-22T08:22:05.54Z</time></trkpt><trkpt lat="44.1354275" lon="8.0957327"><ele>405.0</ele><time>2026-04-22T08:22:06.541Z</time></trkpt><trkpt lat="44.1354427" lon="8.0956458"><ele>402.3333333333333</ele><time>2026-04-22T08:22:07.541Z</time></trkpt><trkpt lat="44.1354816" lon="8.0955689"><ele>399.66666666666663</ele><time>2026-04-22T08:22:08.541Z</time></trkpt><trkpt lat="44.1355607" lon="8.0955225"><ele>397.0</ele><time>2026-04-22T08:22:09.541Z</time></trkpt><trkpt lat="44.1356501" lon="8.095475"><ele>394.3333333333333</ele><time>2026-04-22T08:22:10.541Z</time></trkpt><trkpt lat="44.1357379" lon="8.095426"><ele>391.66666666666663</ele><time>2026-04-22T08:22:11.54Z</time></trkpt><trkpt lat="44.1358176" lon="8.0953813"><ele>389.0</ele><time>2026-04-22T08:22:12.541Z</time></trkpt><trkpt lat="44.1358796" lon="8.0953195"><ele>388.99999999999994</ele><time>2026-04-22T08:22:13.541Z</time></trkpt><trkpt lat="44.1359276" lon="8.0952309"><ele>389.0</ele><time>2026-04-22T08:22:14.541Z</time></trkpt><trkpt lat="44.1359679" lon="8.0951197"><ele>389.0</ele><time>2026-04-22T08:22:15.54Z</time></trkpt><trkpt lat="44.136" lon="8.0949941"><ele>389.0</ele><time>2026-04-22T08:22:16.541Z</time></trkpt><trkpt lat="44.1360241" lon="8.0948799"><ele>388.99999999999994</ele><time>2026-04-22T08:22:17.541Z</time></trkpt><trkpt lat="44.1360564" lon="8.0947888"><ele>389.0</ele><time>2026-04-22T08:22:18.541Z</time></trkpt><trkpt lat="44.1360929" lon="8.0947157"><ele>390.8333333333333</ele><time>2026-04-22T08:22:20.541Z</time></trkpt><trkpt lat="44.1361286" lon="8.0946336"><ele>392.66666666666663</ele><time>2026-04-22T08:22:46.54Z</time></trkpt><trkpt lat="44.1361588" lon="8.0945535"><ele>394.5</ele><time>2026-04-22T08:22:47.541Z</time></trkpt><trkpt lat="44.1361955" lon="8.0944535"><ele>396.33333333333337</ele><time>2026-04-22T08:22:48.541Z</time></trkpt><trkpt lat="44.1362374" lon="8.0943405"><ele>398.1666666666667</ele><time>2026-04-22T08:22:49.541Z</time></trkpt><trkpt lat="44.1362846" lon="8.0942299"><ele>400.0</ele><time>2026-04-22T08:22:50.541Z</time></trkpt><trkpt lat="44.1363175" lon="8.0941216"><ele>398.6666666666667</ele><time>2026-04-22T08:22:51.541Z</time></trkpt><trkpt lat="44.1363289" lon="8.0940129"><ele>397.33333333333337</ele><time>2026-04-22T08:22:52.541Z</time></trkpt><trkpt lat="44.1363206" lon="8.0938996"><ele>396.0</ele><time>2026-04-22T08:22:53.541Z</time></trkpt><trkpt lat="44.1362924" lon="8.0937929"><ele>394.66666666666663</ele><time>2026-04-22T08:22:54.541Z</time></trkpt><trkpt lat="44.1362445" lon="8.0936881"><ele>393.3333333333333</ele><time>2026-04-22T08:22:55.541Z</time></trkpt><trkpt lat="44.1361828" lon="8.0935864"><ele>392.0</ele><time>2026-04-22T08:22:56.541Z</time></trkpt><trkpt lat="44.1361115" lon="8.0934844"><ele>392.0</ele><time>2026-04-22T08:22:57.541Z</time></trkpt><trkpt lat="44.1360385" lon="8.0933827"><ele>392.0</ele><time>2026-04-22T08:22:58.541Z</time></trkpt><trkpt lat="44.1359728" lon="8.0932798"><ele>392.0</ele><time>2026-04-22T08:22:59.541Z</time></trkpt><trkpt lat="44.1359243" lon="8.0931612"><ele>392.0</ele><time>2026-04-22T08:23:00.541Z</time></trkpt><trkpt lat="44.1358861" lon="8.0930402"><ele>392.0</ele><time>2026-04-22T08:23:01.541Z</time></trkpt><trkpt lat="44.1358495" lon="8.092895"><ele>389.25</ele><time>2026-04-22T08:23:02.541Z</time></trkpt><trkpt lat="44.1358119" lon="8.0927455"><ele>386.5</ele><time>2026-04-22T08:23:03.541Z</time></trkpt><trkpt lat="44.1357673" lon="8.092575"><ele>383.75</ele><time>2026-04-22T08:23:04.54Z</time></trkpt><trkpt lat="44.1357158" lon="8.0924245"><ele>381.0</ele><time>2026-04-22T08:23:05.541Z</time></trkpt><trkpt lat="44.1356636" lon="8.0922895"><ele>387.6666666666667</ele><time>2026-04-22T08:23:06.541Z</time></trkpt><trkpt lat="44.1356116" lon="8.0921761"><ele>394.33333333333337</ele><time>2026-04-22T08:23:07.541Z</time></trkpt><trkpt lat="44.1355636" lon="8.0920694"><ele>401.0</ele><time>2026-04-22T08:23:08.541Z</time></trkpt><trkpt lat="44.1355218" lon="8.0919842"><ele>407.6666666666667</ele><time>2026-04-22T08:23:09.54Z</time></trkpt><trkpt lat="44.1355057" lon="8.0918706"><ele>414.33333333333337</ele><time>2026-04-22T08:23:11.541Z</time></trkpt><trkpt lat="44.1355619" lon="8.0917785"><ele>421.0</ele><time>2026-04-22T08:23:13.541Z</time></trkpt><trkpt lat="44.1356252" lon="8.0917413"><ele>421.0</ele><time>2026-04-22T08:23:14.541Z</time></trkpt><trkpt lat="44.1357122" lon="8.0916928"><ele>421.0</ele><time>2026-04-22T08:23:15.541Z</time></trkpt><trkpt lat="44.1358134" lon="8.0916367"><ele>421.0</ele><time>2026-04-22T08:23:16.541Z</time></trkpt><trkpt lat="44.1359196" lon="8.0915685"><ele>421.0</ele><time>2026-04-22T08:23:17.541Z</time></trkpt><trkpt lat="44.1360214" lon="8.091493"><ele>421.0</ele><time>2026-04-22T08:23:18.541Z</time></trkpt><trkpt lat="44.1361219" lon="8.0914096"><ele>419.20000000000005</ele><time>2026-04-22T08:23:19.541Z</time></trkpt><trkpt lat="44.136205" lon="8.091338"><ele>417.40000000000003</ele><time>2026-04-22T08:23:20.541Z</time></trkpt><trkpt lat="44.1362662" lon="8.0912659"><ele>415.6</ele><time>2026-04-22T08:23:21.541Z</time></trkpt><trkpt lat="44.1363161" lon="8.0911734"><ele>413.8</ele><time>2026-04-22T08:23:22.541Z</time></trkpt><trkpt lat="44.1363467" lon="8.0910571"><ele>412.0</ele><time>2026-04-22T08:23:23.54Z</time></trkpt><trkpt lat="44.1363722" lon="8.090922"><ele>412.0</ele><time>2026-04-22T08:23:24.541Z</time></trkpt><trkpt lat="44.1363813" lon="8.0907891"><ele>412.0</ele><time>2026-04-22T08:23:25.541Z</time></trkpt><trkpt lat="44.1363707" lon="8.0906553"><ele>412.0</ele><time>2026-04-22T08:23:26.541Z</time></trkpt><trkpt lat="44.1363501" lon="8.0905149"><ele>412.0</ele><time>2026-04-22T08:23:27.54Z</time></trkpt><trkpt lat="44.1363271" lon="8.0903695"><ele>412.0</ele><time>2026-04-22T08:23:28.541Z</time></trkpt><trkpt lat="44.1363025" lon="8.0902235"><ele>414.1666666666667</ele><time>2026-04-22T08:23:29.541Z</time></trkpt><trkpt lat="44.1362863" lon="8.0900934"><ele>416.33333333333337</ele><time>2026-04-22T08:23:30.54Z</time></trkpt><trkpt lat="44.1362842" lon="8.0899812"><ele>418.5</ele><time>2026-04-22T08:23:31.541Z</time></trkpt><trkpt lat="44.1362963" lon="8.0898787"><ele>420.66666666666663</ele><time>2026-04-22T08:23:32.54Z</time></trkpt><trkpt lat="44.1363348" lon="8.0897875"><ele>422.8333333333333</ele><time>2026-04-22T08:23:33.541Z</time></trkpt><trkpt lat="44.1363915" lon="8.0897012"><ele>425.0</ele><time>2026-04-22T08:23:34.541Z</time></trkpt><trkpt lat="44.1364638" lon="8.0896236"><ele>427.49999999999994</ele><time>2026-04-22T08:23:35.54Z</time></trkpt><trkpt lat="44.1365468" lon="8.0895564"><ele>430.0</ele><time>2026-04-22T08:23:36.541Z</time></trkpt><trkpt lat="44.1366238" lon="8.0894816"><ele>432.5</ele><time>2026-04-22T08:23:37.541Z</time></trkpt><trkpt lat="44.1366931" lon="8.0894089"><ele>435.0</ele><time>2026-04-22T08:23:38.541Z</time></trkpt><trkpt lat="44.1367516" lon="8.0893389"><ele>437.49999999999994</ele><time>2026-04-22T08:23:39.541Z</time></trkpt><trkpt lat="44.1367988" lon="8.0892704"><ele>440.0</ele><time>2026-04-22T08:23:40.541Z</time></trkpt><trkpt lat="44.1368624" lon="8.0892037"><ele>430.0</ele><time>2026-04-22T08:23:42.541Z</time></trkpt><trkpt lat="44.1368559" lon="8.0893128"><ele>420.0</ele><time>2026-04-22T08:23:45.541Z</time></trkpt><trkpt lat="44.1368239" lon="8.0894051"><ele>410.0</ele><time>2026-04-22T08:23:46.541Z</time></trkpt><trkpt lat="44.1367698" lon="8.0895323"><ele>400.0</ele><time>2026-04-22T08:23:47.54Z</time></trkpt><trkpt lat="44.1367037" lon="8.0896612"><ele>390.0</ele><time>2026-04-22T08:23:48.541Z</time></trkpt><trkpt lat="44.1366395" lon="8.0897889"><ele>390.0</ele><time>2026-04-22T08:23:49.541Z</time></trkpt><trkpt lat="44.1365797" lon="8.0899084"><ele>390.0</ele><time>2026-04-22T08:23:50.541Z</time></trkpt><trkpt lat="44.1365276" lon="8.0900187"><ele>390.0</ele><time>2026-04-22T08:23:51.541Z</time></trkpt><trkpt lat="44.1364915" lon="8.0901104"><ele>390.0</ele><time>2026-04-22T08:23:52.541Z</time></trkpt><trkpt lat="44.1364663" lon="8.0902008"><ele>390.0</ele><time>2026-04-22T08:23:53.541Z</time></trkpt><trkpt lat="44.1364806" lon="8.090362"><ele>390.0</ele><time>2026-04-22T08:23:55.541Z</time></trkpt><trkpt lat="44.136565" lon="8.0903165"><ele>390.0</ele><time>2026-04-22T08:23:58.54Z</time></trkpt><trkpt lat="44.1365896" lon="8.0902333"><ele>390.0</ele><time>2026-04-22T08:23:59.541Z</time></trkpt><trkpt lat="44.1366206" lon="8.0901382"><ele>390.0</ele><time>2026-04-22T08:24:00.541Z</time></trkpt><trkpt lat="44.1366613" lon="8.0900434"><ele>390.0</ele><time>2026-04-22T08:24:01.541Z</time></trkpt><trkpt lat="44.1367124" lon="8.0899505"><ele>390.0</ele><time>2026-04-22T08:24:02.54Z</time></trkpt><trkpt lat="44.1367724" lon="8.0898835"><ele>390.0</ele><time>2026-04-22T08:24:03.541Z</time></trkpt><trkpt lat="44.1368389" lon="8.0898376"><ele>390.0</ele><time>2026-04-22T08:24:04.541Z</time></trkpt><trkpt lat="44.1368994" lon="8.0898108"><ele>390.0</ele><time>2026-04-22T08:24:05.541Z</time></trkpt><trkpt lat="44.1370233" lon="8.0897529"><ele>390.0</ele><time>2026-04-22T08:24:07.541Z</time></trkpt><trkpt lat="44.1370835" lon="8.0896754"><ele>390.0</ele><time>2026-04-22T08:24:08.54Z</time></trkpt><trkpt lat="44.1371475" lon="8.0895867"><ele>390.0</ele><time>2026-04-22T08:24:09.541Z</time></trkpt><trkpt lat="44.1372176" lon="8.0895077"><ele>390.0</ele><time>2026-04-22T08:24:10.54Z</time></trkpt><trkpt lat="44.1372812" lon="8.089455"><ele>390.0</ele><time>2026-04-22T08:24:11.541Z</time></trkpt><trkpt lat="44.1373368" lon="8.0894105"><ele>390.0</ele><time>2026-04-22T08:24:12.541Z</time></trkpt><trkpt lat="44.1374166" lon="8.0893035"><ele>390.0</ele><time>2026-04-22T08:24:14.541Z</time></trkpt><trkpt lat="44.1374445" lon="8.0891184"><ele>390.0</ele><time>2026-04-22T08:24:16.541Z</time></trkpt><trkpt lat="44.1374627" lon="8.0890272"><ele>383.5</ele><time>2026-04-22T08:24:17.541Z</time></trkpt><trkpt lat="44.1374993" lon="8.0889448"><ele>377.0</ele><time>2026-04-22T08:24:18.541Z</time></trkpt><trkpt lat="44.1375638" lon="8.0888907"><ele>370.5</ele><time>2026-04-22T08:24:19.541Z</time></trkpt><trkpt lat="44.1376264" lon="8.0888476"><ele>364.0</ele><time>2026-04-22T08:24:20.54Z</time></trkpt><trkpt lat="44.1377166" lon="8.0887283"><ele>357.5</ele><time>2026-04-22T08:24:22.541Z</time></trkpt><trkpt lat="44.1377385" lon="8.0886342"><ele>351.0</ele><time>2026-04-22T08:24:23.541Z</time></trkpt><trkpt lat="44.1377432" lon="8.0885246"><ele>351.0</ele><time>2026-04-22T08:24:24.54Z</time></trkpt><trkpt lat="44.1377177" lon="8.0883786"><ele>351.0</ele><time>2026-04-22T08:24:25.54Z</time></trkpt><trkpt lat="44.13768" lon="8.0882289"><ele>351.0</ele><time>2026-04-22T08:24:26.541Z</time></trkpt><trkpt lat="44.1376349" lon="8.0881056"><ele>351.0</ele><time>2026-04-22T08:24:27.541Z</time></trkpt><trkpt lat="44.1375971" lon="8.0879889"><ele>351.0</ele><time>2026-04-22T08:24:28.54Z</time></trkpt><trkpt lat="44.1375844" lon="8.0878817"><ele>352.1666666666667</ele><time>2026-04-22T08:24:29.54Z</time></trkpt><trkpt lat="44.137617" lon="8.087732"><ele>353.3333333333333</ele><time>2026-04-22T08:24:31.541Z</time></trkpt><trkpt lat="44.1376799" lon="8.0876908"><ele>354.5</ele><time>2026-04-22T08:24:32.54Z</time></trkpt><trkpt lat="44.1377584" lon="8.0876632"><ele>355.66666666666663</ele><time>2026-04-22T08:24:33.541Z</time></trkpt><trkpt lat="44.137848" lon="8.0876442"><ele>356.8333333333333</ele><time>2026-04-22T08:24:34.54Z</time></trkpt><trkpt lat="44.1379355" lon="8.0876345"><ele>358.0</ele><time>2026-04-22T08:24:35.54Z</time></trkpt><trkpt lat="44.1380127" lon="8.0876284"><ele>358.0</ele><time>2026-04-22T08:24:36.54Z</time></trkpt><trkpt lat="44.1380764" lon="8.0876253"><ele>358.0</ele><time>2026-04-22T08:24:37.54Z</time></trkpt><trkpt lat="44.138164" lon="8.0875599"><ele>358.0</ele><time>2026-04-22T08:24:39.541Z</time></trkpt><trkpt lat="44.138184" lon="8.0874655"><ele>358.0</ele><time>2026-04-22T08:24:40.541Z</time></trkpt><trkpt lat="44.1381941" lon="8.0873352"><ele>358.0</ele><time>2026-04-22T08:24:41.541Z</time></trkpt><trkpt lat="44.1382207" lon="8.087203"><ele>358.0</ele><time>2026-04-22T08:24:42.541Z</time></trkpt><trkpt lat="44.1382562" lon="8.0870645"><ele>358.4</ele><time>2026-04-22T08:24:43.541Z</time></trkpt><trkpt lat="44.1382991" lon="8.0869436"><ele>358.79999999999995</ele><time>2026-04-22T08:24:44.541Z</time></trkpt><trkpt lat="44.1383594" lon="8.0868354"><ele>359.2</ele><time>2026-04-22T08:24:45.541Z</time></trkpt><trkpt lat="44.1384245" lon="8.0867593"><ele>359.6</ele><time>2026-04-22T08:24:46.54Z</time></trkpt><trkpt lat="44.1385058" lon="8.0867225"><ele>360.0</ele><time>2026-04-22T08:24:47.541Z</time></trkpt><trkpt lat="44.1385942" lon="8.086694"><ele>360.0</ele><time>2026-04-22T08:24:48.541Z</time></trkpt><trkpt lat="44.1386813" lon="8.0866631"><ele>360.0</ele><time>2026-04-22T08:24:49.541Z</time></trkpt><trkpt lat="44.1387764" lon="8.0866121"><ele>360.0</ele><time>2026-04-22T08:24:50.541Z</time></trkpt><trkpt lat="44.1388617" lon="8.0865417"><ele>360.0</ele><time>2026-04-22T08:24:51.541Z</time></trkpt><trkpt lat="44.1389474" lon="8.0864801"><ele>360.0</ele><time>2026-04-22T08:24:52.54Z</time></trkpt><trkpt lat="44.1390317" lon="8.0864426"><ele>358.6</ele><time>2026-04-22T08:24:53.541Z</time></trkpt><trkpt lat="44.1391026" lon="8.0864058"><ele>357.2</ele><time>2026-04-22T08:24:54.541Z</time></trkpt><trkpt lat="44.1391727" lon="8.0863527"><ele>355.79999999999995</ele><time>2026-04-22T08:24:55.541Z</time></trkpt><trkpt lat="44.1392581" lon="8.0862816"><ele>354.4</ele><time>2026-04-22T08:24:56.541Z</time></trkpt><trkpt lat="44.1393616" lon="8.0862092"><ele>353.0</ele><time>2026-04-22T08:24:57.541Z</time></trkpt><trkpt lat="44.1394687" lon="8.0861463"><ele>353.0</ele><time>2026-04-22T08:24:58.541Z</time></trkpt><trkpt lat="44.1395646" lon="8.0860883"><ele>353.0</ele><time>2026-04-22T08:24:59.541Z</time></trkpt><trkpt lat="44.1396401" lon="8.0860192"><ele>353.0</ele><time>2026-04-22T08:25:00.541Z</time></trkpt><trkpt lat="44.1397041" lon="8.0859472"><ele>353.0</ele><time>2026-04-22T08:25:01.54Z</time></trkpt><trkpt lat="44.1397703" lon="8.0858642"><ele>353.0</ele><time>2026-04-22T08:25:02.541Z</time></trkpt><trkpt lat="44.1398272" lon="8.0857747"><ele>350.83333333333337</ele><time>2026-04-22T08:25:03.541Z</time></trkpt><trkpt lat="44.1398698" lon="8.085673"><ele>348.6666666666667</ele><time>2026-04-22T08:25:04.541Z</time></trkpt><trkpt lat="44.1399073" lon="8.0855835"><ele>346.5</ele><time>2026-04-22T08:25:05.541Z</time></trkpt><trkpt lat="44.1399576" lon="8.0854952"><ele>344.3333333333333</ele><time>2026-04-22T08:25:06.541Z</time></trkpt><trkpt lat="44.1400028" lon="8.0854107"><ele>342.16666666666663</ele><time>2026-04-22T08:25:07.541Z</time></trkpt><trkpt lat="44.1400517" lon="8.0853254"><ele>340.0</ele><time>2026-04-22T08:25:08.541Z</time></trkpt><trkpt lat="44.1401021" lon="8.0852383"><ele>340.0</ele><time>2026-04-22T08:25:09.541Z</time></trkpt><trkpt lat="44.1401517" lon="8.0851504"><ele>340.0</ele><time>2026-04-22T08:25:10.54Z</time></trkpt><trkpt lat="44.1401986" lon="8.0850588"><ele>340.0</ele><time>2026-04-22T08:25:11.541Z</time></trkpt><trkpt lat="44.1402431" lon="8.0849624"><ele>340.0</ele><time>2026-04-22T08:25:12.541Z</time></trkpt><trkpt lat="44.140283" lon="8.0848611"><ele>340.0</ele><time>2026-04-22T08:25:13.541Z</time></trkpt><trkpt lat="44.1403061" lon="8.0847519"><ele>340.0</ele><time>2026-04-22T08:25:14.541Z</time></trkpt><trkpt lat="44.1403171" lon="8.0846552"><ele>343.16666666666663</ele><time>2026-04-22T08:25:15.541Z</time></trkpt><trkpt lat="44.1403363" lon="8.0845453"><ele>346.3333333333333</ele><time>2026-04-22T08:25:17.541Z</time></trkpt><trkpt lat="44.1403884" lon="8.0846092"><ele>349.5</ele><time>2026-04-22T08:25:35.541Z</time></trkpt><trkpt lat="44.1404519" lon="8.0846663"><ele>352.6666666666667</ele><time>2026-04-22T08:25:36.541Z</time></trkpt><trkpt lat="44.1405213" lon="8.0847147"><ele>355.83333333333337</ele><time>2026-04-22T08:25:37.541Z</time></trkpt><trkpt lat="44.1405847" lon="8.0847525"><ele>359.0</ele><time>2026-04-22T08:25:38.541Z</time></trkpt><trkpt lat="44.1406989" lon="8.0847729"><ele>354.6666666666667</ele><time>2026-04-22T08:25:40.54Z</time></trkpt><trkpt lat="44.1407714" lon="8.0847314"><ele>350.33333333333337</ele><time>2026-04-22T08:25:41.541Z</time></trkpt><trkpt lat="44.1408446" lon="8.0846743"><ele>346.0</ele><time>2026-04-22T08:25:42.541Z</time></trkpt><trkpt lat="44.1409151" lon="8.0846175"><ele>341.6666666666667</ele><time>2026-04-22T08:25:43.541Z</time></trkpt><trkpt lat="44.1409901" lon="8.084565"><ele>337.3333333333333</ele><time>2026-04-22T08:25:44.541Z</time></trkpt><trkpt lat="44.1410673" lon="8.0845137"><ele>333.0</ele><time>2026-04-22T08:25:45.541Z</time></trkpt><trkpt lat="44.1411501" lon="8.0844571"><ele>333.0</ele><time>2026-04-22T08:25:46.541Z</time></trkpt><trkpt lat="44.1412316" lon="8.0844024"><ele>333.0</ele><time>2026-04-22T08:25:47.541Z</time></trkpt><trkpt lat="44.1413113" lon="8.0843582"><ele>333.0</ele><time>2026-04-22T08:25:48.541Z</time></trkpt><trkpt lat="44.1413879" lon="8.0843247"><ele>333.0</ele><time>2026-04-22T08:25:49.541Z</time></trkpt><trkpt lat="44.1414725" lon="8.0843052"><ele>333.0</ele><time>2026-04-22T08:25:50.541Z</time></trkpt><trkpt lat="44.1415654" lon="8.0842744"><ele>333.0</ele><time>2026-04-22T08:25:51.541Z</time></trkpt><trkpt lat="44.1416461" lon="8.084241"><ele>333.0</ele><time>2026-04-22T08:25:52.541Z</time></trkpt><trkpt lat="44.1417093" lon="8.0842102"><ele>333.0</ele><time>2026-04-22T08:25:53.541Z</time></trkpt><trkpt lat="44.1417925" lon="8.0841888"><ele>333.0</ele><time>2026-04-22T08:25:55.541Z</time></trkpt><trkpt lat="44.1418638" lon="8.0841623"><ele>333.0</ele><time>2026-04-22T08:26:30.541Z</time></trkpt><trkpt lat="44.1419528" lon="8.0841215"><ele>333.0</ele><time>2026-04-22T08:26:32.541Z</time></trkpt><trkpt lat="44.1420606" lon="8.0840619"><ele>333.0</ele><time>2026-04-22T08:26:34.541Z</time></trkpt><trkpt lat="44.1421416" lon="8.0840053"><ele>333.0</ele><time>2026-04-22T08:26:36.541Z</time></trkpt><trkpt lat="44.1421885" lon="8.0839457"><ele>333.0</ele><time>2026-04-22T08:26:38.541Z</time></trkpt><trkpt lat="44.1422332" lon="8.083876"><ele>333.0</ele><time>2026-04-22T08:26:40.541Z</time></trkpt><trkpt lat="44.1422775" lon="8.0838113"><ele>333.0</ele><time>2026-04-22T08:26:42.541Z</time></trkpt><trkpt lat="44.1423339" lon="8.0837053"><ele>333.0</ele><time>2026-04-22T08:26:45.541Z</time></trkpt><trkpt lat="44.1423548" lon="8.0836098"><ele>333.0</ele><time>2026-04-22T08:26:47.54Z</time></trkpt><trkpt lat="44.1423803" lon="8.0835269"><ele>333.0</ele><time>2026-04-22T08:26:50.541Z</time></trkpt><trkpt lat="44.1423996" lon="8.0834309"><ele>334.8333333333333</ele><time>2026-04-22T08:26:52.54Z</time></trkpt><trkpt lat="44.1423993" lon="8.0833391"><ele>336.6666666666667</ele><time>2026-04-22T08:26:54.541Z</time></trkpt><trkpt lat="44.1423823" lon="8.0832179"><ele>338.5</ele><time>2026-04-22T08:26:57.541Z</time></trkpt><trkpt lat="44.1423963" lon="8.0831175"><ele>340.33333333333337</ele><time>2026-04-22T08:26:59.541Z</time></trkpt><trkpt lat="44.14239" lon="8.0830044"><ele>342.1666666666667</ele><time>2026-04-22T08:27:02.541Z</time></trkpt><trkpt lat="44.1423673" lon="8.0828952"><ele>344.0</ele><time>2026-04-22T08:27:04.541Z</time></trkpt><trkpt lat="44.1423412" lon="8.0827831"><ele>344.5</ele><time>2026-04-22T08:27:06.541Z</time></trkpt><trkpt lat="44.1423046" lon="8.0826886"><ele>345.0</ele><time>2026-04-22T08:27:08.541Z</time></trkpt><trkpt lat="44.1422791" lon="8.0825925"><ele>345.5</ele><time>2026-04-22T08:27:10.541Z</time></trkpt><trkpt lat="44.1422652" lon="8.0824905"><ele>346.0</ele><time>2026-04-22T08:27:12.541Z</time></trkpt><trkpt lat="44.1422184" lon="8.0823838"><ele>346.5</ele><time>2026-04-22T08:27:14.541Z</time></trkpt><trkpt lat="44.1421785" lon="8.0822825"><ele>347.0</ele><time>2026-04-22T08:27:16.54Z</time></trkpt><trkpt lat="44.1421532" lon="8.0821692"><ele>347.0</ele><time>2026-04-22T08:27:18.541Z</time></trkpt><trkpt lat="44.1421328" lon="8.0820722"><ele>347.0</ele><time>2026-04-22T08:27:20.541Z</time></trkpt><trkpt lat="44.1421533" lon="8.0821751"><ele>347.0</ele><time>2026-04-22T08:30:13.541Z</time></trkpt><trkpt lat="44.1421869" lon="8.0822519"><ele>347.0</ele><time>2026-04-22T08:30:15.541Z</time></trkpt><trkpt lat="44.142233" lon="8.0823419"><ele>347.0</ele><time>2026-04-22T08:30:17.541Z</time></trkpt><trkpt lat="44.1422536" lon="8.0824353"><ele>347.0</ele><time>2026-04-22T08:30:19.541Z</time></trkpt><trkpt lat="44.1422746" lon="8.0825211"><ele>347.0</ele><time>2026-04-22T08:30:21.54Z</time></trkpt><trkpt lat="44.1423224" lon="8.0826183"><ele>347.0</ele><time>2026-04-22T08:30:23.541Z</time></trkpt><trkpt lat="44.1423617" lon="8.082739"><ele>347.0</ele><time>2026-04-22T08:30:25.541Z</time></trkpt><trkpt lat="44.1423903" lon="8.0828589"><ele>347.0</ele><time>2026-04-22T08:30:27.541Z</time></trkpt><trkpt lat="44.1424116" lon="8.0829853"><ele>347.0</ele><time>2026-04-22T08:30:29.541Z</time></trkpt><trkpt lat="44.1424081" lon="8.083129"><ele>347.0</ele><time>2026-04-22T08:30:31.541Z</time></trkpt><trkpt lat="44.142427" lon="8.0832573"><ele>346.5</ele><time>2026-04-22T08:30:33.54Z</time></trkpt><trkpt lat="44.1424384" lon="8.083383"><ele>346.0</ele><time>2026-04-22T08:30:35.541Z</time></trkpt><trkpt lat="44.1424263" lon="8.0834778"><ele>345.5</ele><time>2026-04-22T08:30:37.54Z</time></trkpt><trkpt lat="44.1423987" lon="8.0835907"><ele>345.0</ele><time>2026-04-22T08:30:40.541Z</time></trkpt><trkpt lat="44.1423748" lon="8.0836902"><ele>344.5</ele><time>2026-04-22T08:30:42.541Z</time></trkpt><trkpt lat="44.1423176" lon="8.083758"><ele>344.0</ele><time>2026-04-22T08:30:44.541Z</time></trkpt><trkpt lat="44.1422672" lon="8.0838196"><ele>341.79999999999995</ele><time>2026-04-22T08:30:46.541Z</time></trkpt><trkpt lat="44.1422092" lon="8.0838959"><ele>339.59999999999997</ele><time>2026-04-22T08:30:49.541Z</time></trkpt><trkpt lat="44.1421228" lon="8.0839933"><ele>337.4</ele><time>2026-04-22T08:30:51.541Z</time></trkpt><trkpt lat="44.1420676" lon="8.0840545"><ele>335.2</ele><time>2026-04-22T08:30:52.541Z</time></trkpt><trkpt lat="44.1419704" lon="8.0841424"><ele>333.0</ele><time>2026-04-22T08:30:54.541Z</time></trkpt><trkpt lat="44.1418808" lon="8.0841864"><ele>333.0</ele><time>2026-04-22T08:30:56.541Z</time></trkpt><trkpt lat="44.1418105" lon="8.0842055"><ele>333.0</ele><time>2026-04-22T08:30:58.541Z</time></trkpt><trkpt lat="44.1417338" lon="8.0842774"><ele>333.0</ele><time>2026-04-22T08:31:00.541Z</time></trkpt><trkpt lat="44.1416838" lon="8.0843446"><ele>333.0</ele><time>2026-04-22T08:31:01.541Z</time></trkpt><trkpt lat="44.1416323" lon="8.0844264"><ele>333.0</ele><time>2026-04-22T08:31:02.541Z</time></trkpt><trkpt lat="44.1415696" lon="8.0845238"><ele>333.0</ele><time>2026-04-22T08:31:03.54Z</time></trkpt><trkpt lat="44.1415107" lon="8.0846082"><ele>333.0</ele><time>2026-04-22T08:31:04.541Z</time></trkpt><trkpt lat="44.1414585" lon="8.0846662"><ele>333.0</ele><time>2026-04-22T08:31:05.541Z</time></trkpt><trkpt lat="44.1414049" lon="8.0847191"><ele>333.0</ele><time>2026-04-22T08:31:07.541Z</time></trkpt><trkpt lat="44.1414597" lon="8.0846301"><ele>333.0</ele><time>2026-04-22T08:31:18.541Z</time></trkpt><trkpt lat="44.1415152" lon="8.0845419"><ele>333.0</ele><time>2026-04-22T08:31:19.541Z</time></trkpt><trkpt lat="44.1415762" lon="8.0844636"><ele>333.0</ele><time>2026-04-22T08:31:20.54Z</time></trkpt><trkpt lat="44.1416325" lon="8.0843977"><ele>333.0</ele><time>2026-04-22T08:31:21.541Z</time></trkpt><trkpt lat="44.141687" lon="8.0843426"><ele>333.0</ele><time>2026-04-22T08:31:22.541Z</time></trkpt><trkpt lat="44.1417662" lon="8.0842557"><ele>333.0</ele><time>2026-04-22T08:31:24.541Z</time></trkpt><trkpt lat="44.141646" lon="8.0842573"><ele>333.0</ele><time>2026-04-22T08:31:27.541Z</time></trkpt><trkpt lat="44.1415525" lon="8.0842938"><ele>333.0</ele><time>2026-04-22T08:31:28.541Z</time></trkpt><trkpt lat="44.141456" lon="8.0843219"><ele>333.0</ele><time>2026-04-22T08:31:29.541Z</time></trkpt><trkpt lat="44.1413498" lon="8.084356"><ele>333.0</ele><time>2026-04-22T08:31:30.541Z</time></trkpt><trkpt lat="44.141251" lon="8.0843832"><ele>333.0</ele><time>2026-04-22T08:31:31.541Z</time></trkpt><trkpt lat="44.1411561" lon="8.0844285"><ele>333.0</ele><time>2026-04-22T08:31:32.541Z</time></trkpt><trkpt lat="44.1410612" lon="8.0844794"><ele>333.0</ele><time>2026-04-22T08:31:33.541Z</time></trkpt><trkpt lat="44.1409664" lon="8.0845313"><ele>333.0</ele><time>2026-04-22T08:31:34.54Z</time></trkpt><trkpt lat="44.1408707" lon="8.0845896"><ele>333.0</ele><time>2026-04-22T08:31:35.541Z</time></trkpt><trkpt lat="44.1407858" lon="8.0846587"><ele>333.0</ele><time>2026-04-22T08:31:36.541Z</time></trkpt><trkpt lat="44.1407163" lon="8.0847194"><ele>333.0</ele><time>2026-04-22T08:31:37.541Z</time></trkpt><trkpt lat="44.1406319" lon="8.0847708"><ele>333.0</ele><time>2026-04-22T08:31:39.541Z</time></trkpt><trkpt lat="44.1405617" lon="8.0847175"><ele>334.1666666666667</ele><time>2026-04-22T08:31:41.541Z</time></trkpt><trkpt lat="44.1404471" lon="8.0846203"><ele>335.3333333333333</ele><time>2026-04-22T08:31:43.541Z</time></trkpt><trkpt lat="44.1403859" lon="8.0845845"><ele>336.5</ele><time>2026-04-22T08:31:44.541Z</time></trkpt><trkpt lat="44.1403175" lon="8.084649"><ele>337.66666666666663</ele><time>2026-04-22T08:31:46.541Z</time></trkpt><trkpt lat="44.140309" lon="8.0847457"><ele>338.8333333333333</ele><time>2026-04-22T08:31:47.54Z</time></trkpt><trkpt lat="44.1402829" lon="8.0848717"><ele>340.0</ele><time>2026-04-22T08:31:48.54Z</time></trkpt><trkpt lat="44.1402371" lon="8.0850036"><ele>340.0</ele><time>2026-04-22T08:31:49.54Z</time></trkpt><trkpt lat="44.1401732" lon="8.0851506"><ele>340.0</ele><time>2026-04-22T08:31:50.541Z</time></trkpt><trkpt lat="44.1401015" lon="8.0853128"><ele>340.0</ele><time>2026-04-22T08:31:51.541Z</time></trkpt><trkpt lat="44.1400095" lon="8.0854696"><ele>340.0</ele><time>2026-04-22T08:31:52.541Z</time></trkpt><trkpt lat="44.1399224" lon="8.0855894"><ele>342.6</ele><time>2026-04-22T08:31:53.541Z</time></trkpt><trkpt lat="44.1398308" lon="8.0856932"><ele>345.2</ele><time>2026-04-22T08:31:54.541Z</time></trkpt><trkpt lat="44.1397452" lon="8.0858025"><ele>347.79999999999995</ele><time>2026-04-22T08:31:55.541Z</time></trkpt><trkpt lat="44.1396739" lon="8.0859072"><ele>350.4</ele><time>2026-04-22T08:31:56.541Z</time></trkpt><trkpt lat="44.1396081" lon="8.0859868"><ele>353.0</ele><time>2026-04-22T08:31:57.54Z</time></trkpt><trkpt lat="44.1395365" lon="8.0860547"><ele>353.0</ele><time>2026-04-22T08:31:58.541Z</time></trkpt><trkpt lat="44.1394464" lon="8.0861091"><ele>353.0</ele><time>2026-04-22T08:31:59.541Z</time></trkpt><trkpt lat="44.1393447" lon="8.086166"><ele>353.0</ele><time>2026-04-22T08:32:00.541Z</time></trkpt><trkpt lat="44.139245" lon="8.0862311"><ele>353.0</ele><time>2026-04-22T08:32:01.541Z</time></trkpt><trkpt lat="44.1391496" lon="8.0863084"><ele>353.0</ele><time>2026-04-22T08:32:02.541Z</time></trkpt><trkpt lat="44.1390618" lon="8.0863653"><ele>354.4</ele><time>2026-04-22T08:32:03.541Z</time></trkpt><trkpt lat="44.1389661" lon="8.0864076"><ele>355.79999999999995</ele><time>2026-04-22T08:32:04.541Z</time></trkpt><trkpt lat="44.1388691" lon="8.086458"><ele>357.2</ele><time>2026-04-22T08:32:05.54Z</time></trkpt><trkpt lat="44.1387824" lon="8.0865321"><ele>358.6</ele><time>2026-04-22T08:32:06.541Z</time></trkpt><trkpt lat="44.1386934" lon="8.0865869"><ele>360.0</ele><time>2026-04-22T08:32:07.541Z</time></trkpt><trkpt lat="44.1386025" lon="8.0866366"><ele>360.0</ele><time>2026-04-22T08:32:08.541Z</time></trkpt><trkpt lat="44.1385111" lon="8.0866801"><ele>360.0</ele><time>2026-04-22T08:32:09.541Z</time></trkpt><trkpt lat="44.1384273" lon="8.0867267"><ele>360.0</ele><time>2026-04-22T08:32:10.541Z</time></trkpt><trkpt lat="44.1383445" lon="8.0867876"><ele>360.0</ele><time>2026-04-22T08:32:11.541Z</time></trkpt><trkpt lat="44.1382819" lon="8.0868661"><ele>360.0</ele><time>2026-04-22T08:32:12.541Z</time></trkpt><trkpt lat="44.1382453" lon="8.0869758"><ele>360.0</ele><time>2026-04-22T08:32:13.541Z</time></trkpt><trkpt lat="44.1382243" lon="8.08712"><ele>360.0</ele><time>2026-04-22T08:32:14.54Z</time></trkpt><trkpt lat="44.1382112" lon="8.0872786"><ele>360.0</ele><time>2026-04-22T08:32:15.541Z</time></trkpt><trkpt lat="44.1381848" lon="8.0874549"><ele>360.0</ele><time>2026-04-22T08:32:16.54Z</time></trkpt><trkpt lat="44.1381596" lon="8.0875898"><ele>360.0</ele><time>2026-04-22T08:32:17.541Z</time></trkpt><trkpt lat="44.1380704" lon="8.0876768"><ele>359.6666666666667</ele><time>2026-04-22T08:32:19.541Z</time></trkpt><trkpt lat="44.1380073" lon="8.0876832"><ele>359.3333333333333</ele><time>2026-04-22T08:32:20.541Z</time></trkpt><trkpt lat="44.1379315" lon="8.0876754"><ele>359.0</ele><time>2026-04-22T08:32:21.54Z</time></trkpt><trkpt lat="44.1378409" lon="8.0876534"><ele>358.66666666666663</ele><time>2026-04-22T08:32:22.541Z</time></trkpt><trkpt lat="44.1377513" lon="8.087672"><ele>358.3333333333333</ele><time>2026-04-22T08:32:23.54Z</time></trkpt><trkpt lat="44.1376817" lon="8.0876892"><ele>358.0</ele><time>2026-04-22T08:32:24.541Z</time></trkpt><trkpt lat="44.1376056" lon="8.0877358"><ele>358.0</ele><time>2026-04-22T08:32:25.541Z</time></trkpt><trkpt lat="44.137534" lon="8.0878045"><ele>358.0</ele><time>2026-04-22T08:32:26.541Z</time></trkpt><trkpt lat="44.1374987" lon="8.0879189"><ele>358.0</ele><time>2026-04-22T08:32:27.541Z</time></trkpt><trkpt lat="44.1375115" lon="8.0880614"><ele>358.0</ele><time>2026-04-22T08:32:28.541Z</time></trkpt><trkpt lat="44.1375681" lon="8.0882307"><ele>358.0</ele><time>2026-04-22T08:32:29.54Z</time></trkpt><trkpt lat="44.1376362" lon="8.0884101"><ele>356.59999999999997</ele><time>2026-04-22T08:32:30.541Z</time></trkpt><trkpt lat="44.137674" lon="8.088577"><ele>355.2</ele><time>2026-04-22T08:32:31.541Z</time></trkpt><trkpt lat="44.137691" lon="8.0887219"><ele>353.8</ele><time>2026-04-22T08:32:32.541Z</time></trkpt><trkpt lat="44.1376871" lon="8.0888478"><ele>352.4</ele><time>2026-04-22T08:32:33.541Z</time></trkpt><trkpt lat="44.1376378" lon="8.0889053"><ele>351.0</ele><time>2026-04-22T08:32:34.541Z</time></trkpt><trkpt lat="44.1375746" lon="8.0889434"><ele>351.0</ele><time>2026-04-22T08:32:35.541Z</time></trkpt><trkpt lat="44.1375093" lon="8.0889898"><ele>351.0</ele><time>2026-04-22T08:32:36.541Z</time></trkpt><trkpt lat="44.1374477" lon="8.0890661"><ele>351.0</ele><time>2026-04-22T08:32:37.541Z</time></trkpt><trkpt lat="44.1374006" lon="8.089156"><ele>351.0</ele><time>2026-04-22T08:32:38.541Z</time></trkpt><trkpt lat="44.1373728" lon="8.0892638"><ele>351.0</ele><time>2026-04-22T08:32:39.541Z</time></trkpt><trkpt lat="44.1373496" lon="8.0893589"><ele>351.0</ele><time>2026-04-22T08:32:40.54Z</time></trkpt><trkpt lat="44.1373174" lon="8.0894395"><ele>357.5</ele><time>2026-04-22T08:32:41.541Z</time></trkpt><trkpt lat="44.1372667" lon="8.0894952"><ele>364.0</ele><time>2026-04-22T08:32:42.54Z</time></trkpt><trkpt lat="44.1371967" lon="8.0895414"><ele>370.5</ele><time>2026-04-22T08:32:43.541Z</time></trkpt><trkpt lat="44.1371252" lon="8.089599"><ele>377.0</ele><time>2026-04-22T08:32:44.541Z</time></trkpt><trkpt lat="44.1370638" lon="8.0896844"><ele>383.5</ele><time>2026-04-22T08:32:45.541Z</time></trkpt><trkpt lat="44.1370068" lon="8.0897678"><ele>390.0</ele><time>2026-04-22T08:32:46.54Z</time></trkpt><trkpt lat="44.1369462" lon="8.0898293"><ele>390.0</ele><time>2026-04-22T08:32:47.54Z</time></trkpt><trkpt lat="44.1368844" lon="8.089873"><ele>390.0</ele><time>2026-04-22T08:32:48.54Z</time></trkpt><trkpt lat="44.1368213" lon="8.0899172"><ele>390.0</ele><time>2026-04-22T08:32:49.541Z</time></trkpt><trkpt lat="44.1367617" lon="8.0899728"><ele>390.0</ele><time>2026-04-22T08:32:50.541Z</time></trkpt><trkpt lat="44.1367047" lon="8.0900489"><ele>390.0</ele><time>2026-04-22T08:32:51.541Z</time></trkpt><trkpt lat="44.1366486" lon="8.0901349"><ele>390.0</ele><time>2026-04-22T08:32:52.541Z</time></trkpt><trkpt lat="44.1366093" lon="8.0902244"><ele>390.0</ele><time>2026-04-22T08:32:53.541Z</time></trkpt><trkpt lat="44.1365682" lon="8.0903548"><ele>390.0</ele><time>2026-04-22T08:32:55.541Z</time></trkpt><trkpt lat="44.1365055" lon="8.0902515"><ele>390.0</ele><time>2026-04-22T08:32:59.541Z</time></trkpt><trkpt lat="44.1365089" lon="8.0901119"><ele>390.0</ele><time>2026-04-22T08:33:01.541Z</time></trkpt><trkpt lat="44.1365847" lon="8.0899465"><ele>390.0</ele><time>2026-04-22T08:33:03.541Z</time></trkpt><trkpt lat="44.136633" lon="8.0898362"><ele>390.0</ele><time>2026-04-22T08:33:04.541Z</time></trkpt><trkpt lat="44.1366992" lon="8.0896909"><ele>390.0</ele><time>2026-04-22T08:33:05.541Z</time></trkpt><trkpt lat="44.1367641" lon="8.0895371"><ele>390.0</ele><time>2026-04-22T08:33:06.541Z</time></trkpt><trkpt lat="44.1368177" lon="8.0894062"><ele>390.0</ele><time>2026-04-22T08:33:07.54Z</time></trkpt><trkpt lat="44.1368529" lon="8.0892978"><ele>390.0</ele><time>2026-04-22T08:33:08.541Z</time></trkpt><trkpt lat="44.1368463" lon="8.0892081"><ele>390.0</ele><time>2026-04-22T08:33:10.541Z</time></trkpt><trkpt lat="44.1367969" lon="8.0892691"><ele>390.0</ele><time>2026-04-22T08:33:12.54Z</time></trkpt><trkpt lat="44.1367574" lon="8.0893521"><ele>390.0</ele><time>2026-04-22T08:33:13.54Z</time></trkpt><trkpt lat="44.1367008" lon="8.0894496"><ele>390.0</ele><time>2026-04-22T08:33:14.54Z</time></trkpt><trkpt lat="44.1366337" lon="8.0895396"><ele>390.0</ele><time>2026-04-22T08:33:15.541Z</time></trkpt><trkpt lat="44.1365621" lon="8.0896236"><ele>390.0</ele><time>2026-04-22T08:33:16.541Z</time></trkpt><trkpt lat="44.1364822" lon="8.0897043"><ele>390.0</ele><time>2026-04-22T08:33:17.541Z</time></trkpt><trkpt lat="44.1364098" lon="8.0897794"><ele>395.8333333333333</ele><time>2026-04-22T08:33:18.541Z</time></trkpt><trkpt lat="44.1363454" lon="8.0898659"><ele>401.66666666666663</ele><time>2026-04-22T08:33:19.541Z</time></trkpt><trkpt lat="44.1363018" lon="8.0899641"><ele>407.5</ele><time>2026-04-22T08:33:20.54Z</time></trkpt><trkpt lat="44.1362754" lon="8.0900666"><ele>413.3333333333333</ele><time>2026-04-22T08:33:21.54Z</time></trkpt><trkpt lat="44.1362601" lon="8.0901791"><ele>419.16666666666663</ele><time>2026-04-22T08:33:22.54Z</time></trkpt><trkpt lat="44.1362742" lon="8.090321"><ele>425.0</ele><time>2026-04-22T08:33:23.541Z</time></trkpt><trkpt lat="44.136309" lon="8.0904859"><ele>425.0</ele><time>2026-04-22T08:33:24.541Z</time></trkpt><trkpt lat="44.1363433" lon="8.0906513"><ele>425.0</ele><time>2026-04-22T08:33:25.541Z</time></trkpt><trkpt lat="44.1363712" lon="8.0908033"><ele>425.0</ele><time>2026-04-22T08:33:26.541Z</time></trkpt><trkpt lat="44.1363754" lon="8.0909414"><ele>425.0</ele><time>2026-04-22T08:33:27.54Z</time></trkpt><trkpt lat="44.1363622" lon="8.0910712"><ele>425.0</ele><time>2026-04-22T08:33:28.541Z</time></trkpt><trkpt lat="44.1363423" lon="8.0911954"><ele>422.4</ele><time>2026-04-22T08:33:29.54Z</time></trkpt><trkpt lat="44.1363122" lon="8.0913"><ele>419.8</ele><time>2026-04-22T08:33:30.541Z</time></trkpt><trkpt lat="44.1362597" lon="8.0913862"><ele>417.20000000000005</ele><time>2026-04-22T08:33:31.541Z</time></trkpt><trkpt lat="44.1361866" lon="8.0914646"><ele>414.6</ele><time>2026-04-22T08:33:32.541Z</time></trkpt><trkpt lat="44.1361074" lon="8.0915411"><ele>412.0</ele><time>2026-04-22T08:33:33.54Z</time></trkpt><trkpt lat="44.1360086" lon="8.0916081"><ele>414.25</ele><time>2026-04-22T08:33:34.541Z</time></trkpt><trkpt lat="44.1358925" lon="8.0916727"><ele>416.5</ele><time>2026-04-22T08:33:35.541Z</time></trkpt><trkpt lat="44.1357679" lon="8.0917317"><ele>418.75</ele><time>2026-04-22T08:33:36.541Z</time></trkpt><trkpt lat="44.1356596" lon="8.0917836"><ele>421.0</ele><time>2026-04-22T08:33:37.541Z</time></trkpt><trkpt lat="44.135591" lon="8.0918451"><ele>421.0</ele><time>2026-04-22T08:33:38.541Z</time></trkpt><trkpt lat="44.1355245" lon="8.0919536"><ele>421.0</ele><time>2026-04-22T08:33:40.541Z</time></trkpt><trkpt lat="44.1355168" lon="8.0920907"><ele>421.0</ele><time>2026-04-22T08:33:42.541Z</time></trkpt><trkpt lat="44.1355472" lon="8.0922017"><ele>421.0</ele><time>2026-04-22T08:33:43.541Z</time></trkpt><trkpt lat="44.1355987" lon="8.0923668"><ele>421.0</ele><time>2026-04-22T08:33:44.541Z</time></trkpt><trkpt lat="44.1356722" lon="8.0925763"><ele>407.6666666666667</ele><time>2026-04-22T08:33:45.541Z</time></trkpt><trkpt lat="44.1357485" lon="8.0927927"><ele>394.33333333333337</ele><time>2026-04-22T08:33:46.54Z</time></trkpt><trkpt lat="44.1358153" lon="8.0929929"><ele>381.0</ele><time>2026-04-22T08:33:47.541Z</time></trkpt><trkpt lat="44.1358651" lon="8.0931732"><ele>383.75</ele><time>2026-04-22T08:33:48.541Z</time></trkpt><trkpt lat="44.1358973" lon="8.0933249"><ele>386.5</ele><time>2026-04-22T08:33:49.541Z</time></trkpt><trkpt lat="44.1359533" lon="8.0934432"><ele>389.25</ele><time>2026-04-22T08:33:50.541Z</time></trkpt><trkpt lat="44.1360461" lon="8.0935551"><ele>392.0</ele><time>2026-04-22T08:33:51.541Z</time></trkpt><trkpt lat="44.1361355" lon="8.0936735"><ele>391.99999999999994</ele><time>2026-04-22T08:33:52.541Z</time></trkpt><trkpt lat="44.136199" lon="8.0937841"><ele>392.0</ele><time>2026-04-22T08:33:53.54Z</time></trkpt><trkpt lat="44.1362553" lon="8.0938936"><ele>392.0</ele><time>2026-04-22T08:33:54.54Z</time></trkpt><trkpt lat="44.1362857" lon="8.0940044"><ele>392.0</ele><time>2026-04-22T08:33:55.54Z</time></trkpt><trkpt lat="44.1362933" lon="8.0941111"><ele>391.99999999999994</ele><time>2026-04-22T08:33:56.541Z</time></trkpt><trkpt lat="44.1362772" lon="8.0942182"><ele>392.0</ele><time>2026-04-22T08:33:57.541Z</time></trkpt><trkpt lat="44.1362409" lon="8.0943329"><ele>391.40000000000003</ele><time>2026-04-22T08:33:58.541Z</time></trkpt><trkpt lat="44.1361969" lon="8.0944602"><ele>390.8</ele><time>2026-04-22T08:33:59.541Z</time></trkpt><trkpt lat="44.1361328" lon="8.0945967"><ele>390.2</ele><time>2026-04-22T08:34:00.541Z</time></trkpt><trkpt lat="44.1360742" lon="8.0947309"><ele>389.6</ele><time>2026-04-22T08:34:01.54Z</time></trkpt><trkpt lat="44.1360282" lon="8.0948433"><ele>389.0</ele><time>2026-04-22T08:34:02.54Z</time></trkpt><trkpt lat="44.1359918" lon="8.0949274"><ele>389.0</ele><time>2026-04-22T08:34:03.541Z</time></trkpt><trkpt lat="44.1359531" lon="8.0950144"><ele>389.0</ele><time>2026-04-22T08:34:05.541Z</time></trkpt><trkpt lat="44.1359405" lon="8.0949154"><ele>389.0</ele><time>2026-04-22T08:34:11.541Z</time></trkpt><trkpt lat="44.1359805" lon="8.0947246"><ele>389.0</ele><time>2026-04-22T08:34:13.541Z</time></trkpt><trkpt lat="44.1360073" lon="8.0945971"><ele>389.0</ele><time>2026-04-22T08:34:14.541Z</time></trkpt><trkpt lat="44.1360377" lon="8.0944572"><ele>389.6</ele><time>2026-04-22T08:34:15.54Z</time></trkpt><trkpt lat="44.1360711" lon="8.0943216"><ele>390.2</ele><time>2026-04-22T08:34:16.541Z</time></trkpt><trkpt lat="44.1361001" lon="8.0942088"><ele>390.8</ele><time>2026-04-22T08:34:17.541Z</time></trkpt><trkpt lat="44.1361137" lon="8.0941126"><ele>391.40000000000003</ele><time>2026-04-22T08:34:18.541Z</time></trkpt><trkpt lat="44.1361038" lon="8.093954"><ele>392.0</ele><time>2026-04-22T08:34:20.541Z</time></trkpt><trkpt lat="44.1360384" lon="8.0938102"><ele>391.99999999999994</ele><time>2026-04-22T08:34:22.541Z</time></trkpt><trkpt lat="44.1359823" lon="8.0937523"><ele>392.0</ele><time>2026-04-22T08:34:23.54Z</time></trkpt><trkpt lat="44.1359082" lon="8.0936941"><ele>392.0</ele><time>2026-04-22T08:34:24.541Z</time></trkpt><trkpt lat="44.1358165" lon="8.0936448"><ele>392.0</ele><time>2026-04-22T08:34:25.541Z</time></trkpt><trkpt lat="44.1357389" lon="8.093589"><ele>391.99999999999994</ele><time>2026-04-22T08:34:26.54Z</time></trkpt><trkpt lat="44.1356762" lon="8.0935197"><ele>392.0</ele><time>2026-04-22T08:34:27.541Z</time></trkpt><trkpt lat="44.1356206" lon="8.0934463"><ele>398.16666666666663</ele><time>2026-04-22T08:34:28.541Z</time></trkpt><trkpt lat="44.1355853" lon="8.0933509"><ele>404.3333333333333</ele><time>2026-04-22T08:34:29.54Z</time></trkpt><trkpt lat="44.1355612" lon="8.0932405"><ele>410.5</ele><time>2026-04-22T08:34:30.541Z</time></trkpt><trkpt lat="44.1355272" lon="8.0931262"><ele>416.66666666666663</ele><time>2026-04-22T08:34:31.54Z</time></trkpt><trkpt lat="44.1354937" lon="8.0930189"><ele>422.8333333333333</ele><time>2026-04-22T08:34:32.541Z</time></trkpt><trkpt lat="44.1354529" lon="8.0929188"><ele>429.0</ele><time>2026-04-22T08:34:33.541Z</time></trkpt><trkpt lat="44.1354053" lon="8.0927949"><ele>429.0</ele><time>2026-04-22T08:34:34.54Z</time></trkpt><trkpt lat="44.1353516" lon="8.0926779"><ele>429.0</ele><time>2026-04-22T08:34:35.54Z</time></trkpt><trkpt lat="44.1352834" lon="8.0925509"><ele>429.0</ele><time>2026-04-22T08:34:36.541Z</time></trkpt><trkpt lat="44.1352198" lon="8.0924068"><ele>429.0</ele><time>2026-04-22T08:34:37.541Z</time></trkpt><trkpt lat="44.1351437" lon="8.0922604"><ele>427.4</ele><time>2026-04-22T08:34:38.54Z</time></trkpt><trkpt lat="44.1350636" lon="8.0921226"><ele>425.79999999999995</ele><time>2026-04-22T08:34:39.541Z</time></trkpt><trkpt lat="44.1349853" lon="8.0919973"><ele>424.20000000000005</ele><time>2026-04-22T08:34:40.541Z</time></trkpt><trkpt lat="44.1349203" lon="8.0918943"><ele>422.6</ele><time>2026-04-22T08:34:41.541Z</time></trkpt><trkpt lat="44.1348487" lon="8.091806"><ele>421.0</ele><time>2026-04-22T08:34:42.541Z</time></trkpt><trkpt lat="44.1347765" lon="8.0917144"><ele>429.6</ele><time>2026-04-22T08:34:43.541Z</time></trkpt><trkpt lat="44.1347065" lon="8.0916112"><ele>438.20000000000005</ele><time>2026-04-22T08:34:44.541Z</time></trkpt><trkpt lat="44.1346237" lon="8.091509"><ele>446.79999999999995</ele><time>2026-04-22T08:34:45.541Z</time></trkpt><trkpt lat="44.1345463" lon="8.0914086"><ele>455.4</ele><time>2026-04-22T08:34:46.541Z</time></trkpt><trkpt lat="44.1344812" lon="8.0913063"><ele>464.0</ele><time>2026-04-22T08:34:47.541Z</time></trkpt><trkpt lat="44.1344086" lon="8.0912182"><ele>464.6</ele><time>2026-04-22T08:34:48.541Z</time></trkpt><trkpt lat="44.1343458" lon="8.091151"><ele>465.2</ele><time>2026-04-22T08:34:49.54Z</time></trkpt><trkpt lat="44.1342972" lon="8.0910907"><ele>465.80000000000007</ele><time>2026-04-22T08:34:50.541Z</time></trkpt><trkpt lat="44.1342637" lon="8.0909736"><ele>466.40000000000003</ele><time>2026-04-22T08:34:52.54Z</time></trkpt><trkpt lat="44.1343314" lon="8.0909025"><ele>467.0</ele><time>2026-04-22T08:34:54.541Z</time></trkpt><trkpt lat="44.1344584" lon="8.090811"><ele>467.0</ele><time>2026-04-22T08:34:56.541Z</time></trkpt><trkpt lat="44.1345531" lon="8.0907667"><ele>467.00000000000006</ele><time>2026-04-22T08:34:57.541Z</time></trkpt><trkpt lat="44.1346625" lon="8.0907369"><ele>467.00000000000006</ele><time>2026-04-22T08:34:58.541Z</time></trkpt><trkpt lat="44.1347667" lon="8.090699"><ele>467.0</ele><time>2026-04-22T08:34:59.541Z</time></trkpt><trkpt lat="44.1348562" lon="8.0906456"><ele>467.0</ele><time>2026-04-22T08:35:00.54Z</time></trkpt><trkpt lat="44.1349345" lon="8.0905679"><ele>467.40000000000003</ele><time>2026-04-22T08:35:01.541Z</time></trkpt><trkpt lat="44.1349931" lon="8.0904857"><ele>467.80000000000007</ele><time>2026-04-22T08:35:02.541Z</time></trkpt><trkpt lat="44.1350492" lon="8.0903923"><ele>468.2</ele><time>2026-04-22T08:35:03.541Z</time></trkpt><trkpt lat="44.1350898" lon="8.0902946"><ele>468.6</ele><time>2026-04-22T08:35:04.541Z</time></trkpt><trkpt lat="44.1351292" lon="8.0901736"><ele>469.0</ele><time>2026-04-22T08:35:05.541Z</time></trkpt><trkpt lat="44.1351504" lon="8.0900239"><ele>472.6</ele><time>2026-04-22T08:35:06.541Z</time></trkpt><trkpt lat="44.1351777" lon="8.089865"><ele>476.2</ele><time>2026-04-22T08:35:07.541Z</time></trkpt><trkpt lat="44.1352058" lon="8.0897216"><ele>479.80000000000007</ele><time>2026-04-22T08:35:08.541Z</time></trkpt><trkpt lat="44.1352332" lon="8.0895705"><ele>483.40000000000003</ele><time>2026-04-22T08:35:09.541Z</time></trkpt><trkpt lat="44.1352429" lon="8.0894147"><ele>487.0</ele><time>2026-04-22T08:35:10.541Z</time></trkpt><trkpt lat="44.1352426" lon="8.0892554"><ele>487.00000000000006</ele><time>2026-04-22T08:35:11.541Z</time></trkpt><trkpt lat="44.1352514" lon="8.08911"><ele>487.0</ele><time>2026-04-22T08:35:12.541Z</time></trkpt><trkpt lat="44.1352668" lon="8.0889785"><ele>487.0</ele><time>2026-04-22T08:35:13.54Z</time></trkpt><trkpt lat="44.1352863" lon="8.0888664"><ele>487.0</ele><time>2026-04-22T08:35:14.541Z</time></trkpt><trkpt lat="44.1352942" lon="8.0887531"><ele>487.00000000000006</ele><time>2026-04-22T08:35:15.54Z</time></trkpt><trkpt lat="44.1352953" lon="8.0886356"><ele>487.0</ele><time>2026-04-22T08:35:16.541Z</time></trkpt><trkpt lat="44.1352824" lon="8.0885167"><ele>488.1666666666667</ele><time>2026-04-22T08:35:17.541Z</time></trkpt><trkpt lat="44.1352512" lon="8.0884003"><ele>489.33333333333337</ele><time>2026-04-22T08:35:18.541Z</time></trkpt><trkpt lat="44.1352111" lon="8.0883008"><ele>490.5</ele><time>2026-04-22T08:35:19.541Z</time></trkpt><trkpt lat="44.135173" lon="8.0882116"><ele>491.66666666666663</ele><time>2026-04-22T08:35:20.54Z</time></trkpt><trkpt lat="44.1351263" lon="8.0881239"><ele>492.8333333333333</ele><time>2026-04-22T08:35:21.541Z</time></trkpt><trkpt lat="44.1350756" lon="8.0880204"><ele>494.0</ele><time>2026-04-22T08:35:22.541Z</time></trkpt><trkpt lat="44.1350336" lon="8.0879079"><ele>494.3333333333333</ele><time>2026-04-22T08:35:23.541Z</time></trkpt><trkpt lat="44.1350136" lon="8.087784"><ele>494.66666666666663</ele><time>2026-04-22T08:35:24.541Z</time></trkpt><trkpt lat="44.1350024" lon="8.0876649"><ele>495.0</ele><time>2026-04-22T08:35:25.541Z</time></trkpt><trkpt lat="44.1349912" lon="8.0875588"><ele>495.33333333333337</ele><time>2026-04-22T08:35:26.541Z</time></trkpt><trkpt lat="44.1349933" lon="8.087463"><ele>495.6666666666667</ele><time>2026-04-22T08:35:27.541Z</time></trkpt><trkpt lat="44.1349893" lon="8.0873607"><ele>496.0</ele><time>2026-04-22T08:35:28.541Z</time></trkpt><trkpt lat="44.1349824" lon="8.0872563"><ele>495.1666666666667</ele><time>2026-04-22T08:35:29.541Z</time></trkpt><trkpt lat="44.1349763" lon="8.0871528"><ele>494.33333333333337</ele><time>2026-04-22T08:35:30.541Z</time></trkpt><trkpt lat="44.1349596" lon="8.0870499"><ele>493.5</ele><time>2026-04-22T08:35:31.541Z</time></trkpt><trkpt lat="44.1349268" lon="8.0869431"><ele>492.66666666666663</ele><time>2026-04-22T08:35:32.541Z</time></trkpt><trkpt lat="44.134888" lon="8.0868309"><ele>491.8333333333333</ele><time>2026-04-22T08:35:33.541Z</time></trkpt><trkpt lat="44.1348407" lon="8.0867216"><ele>491.0</ele><time>2026-04-22T08:35:34.54Z</time></trkpt><trkpt lat="44.1347916" lon="8.0866028"><ele>502.20000000000005</ele><time>2026-04-22T08:35:35.541Z</time></trkpt><trkpt lat="44.13474" lon="8.0864789"><ele>513.4000000000001</ele><time>2026-04-22T08:35:36.541Z</time></trkpt><trkpt lat="44.1346951" lon="8.0863523"><ele>524.6</ele><time>2026-04-22T08:35:37.541Z</time></trkpt><trkpt lat="44.1346533" lon="8.0862043"><ele>535.8000000000001</ele><time>2026-04-22T08:35:38.541Z</time></trkpt><trkpt lat="44.1346177" lon="8.0860468"><ele>547.0</ele><time>2026-04-22T08:35:39.541Z</time></trkpt><trkpt lat="44.1345916" lon="8.0858932"><ele>547.4</ele><time>2026-04-22T08:35:40.541Z</time></trkpt><trkpt lat="44.1345698" lon="8.0857511"><ele>547.8000000000001</ele><time>2026-04-22T08:35:41.541Z</time></trkpt><trkpt lat="44.1345679" lon="8.0856075"><ele>548.2</ele><time>2026-04-22T08:35:42.541Z</time></trkpt><trkpt lat="44.1345688" lon="8.0854701"><ele>548.6</ele><time>2026-04-22T08:35:43.54Z</time></trkpt><trkpt lat="44.1345753" lon="8.0853486"><ele>549.0</ele><time>2026-04-22T08:35:44.541Z</time></trkpt><trkpt lat="44.1346089" lon="8.0852477"><ele>549.0</ele><time>2026-04-22T08:35:45.541Z</time></trkpt><trkpt lat="44.1346482" lon="8.0851608"><ele>549.0</ele><time>2026-04-22T08:35:46.541Z</time></trkpt><trkpt lat="44.1346686" lon="8.0850716"><ele>549.0</ele><time>2026-04-22T08:35:47.541Z</time></trkpt><trkpt lat="44.1346986" lon="8.0849553"><ele>549.0</ele><time>2026-04-22T08:35:49.541Z</time></trkpt><trkpt lat="44.1346826" lon="8.0848102"><ele>549.0</ele><time>2026-04-22T08:36:08.541Z</time></trkpt><trkpt lat="44.1346897" lon="8.0846866"><ele>549.0</ele><time>2026-04-22T08:36:10.541Z</time></trkpt><trkpt lat="44.134749" lon="8.0846046"><ele>546.5</ele><time>2026-04-22T08:36:12.541Z</time></trkpt><trkpt lat="44.1348288" lon="8.0845282"><ele>544.0</ele><time>2026-04-22T08:36:14.54Z</time></trkpt><trkpt lat="44.1348947" lon="8.0844839"><ele>541.5</ele><time>2026-04-22T08:36:15.541Z</time></trkpt><trkpt lat="44.1349732" lon="8.0844454"><ele>539.0</ele><time>2026-04-22T08:36:16.541Z</time></trkpt><trkpt lat="44.135057" lon="8.0844098"><ele>536.5</ele><time>2026-04-22T08:36:17.54Z</time></trkpt><trkpt lat="44.1351399" lon="8.0843737"><ele>534.0</ele><time>2026-04-22T08:36:18.541Z</time></trkpt><trkpt lat="44.1352183" lon="8.0843355"><ele>534.0</ele><time>2026-04-22T08:36:19.54Z</time></trkpt><trkpt lat="44.1352991" lon="8.0842896"><ele>534.0</ele><time>2026-04-22T08:36:20.541Z</time></trkpt><trkpt lat="44.1353884" lon="8.0842554"><ele>534.0</ele><time>2026-04-22T08:36:21.541Z</time></trkpt><trkpt lat="44.1354858" lon="8.084231"><ele>534.0</ele><time>2026-04-22T08:36:22.541Z</time></trkpt><trkpt lat="44.1355839" lon="8.0842108"><ele>534.0</ele><time>2026-04-22T08:36:23.54Z</time></trkpt><trkpt lat="44.1356896" lon="8.084203"><ele>528.5</ele><time>2026-04-22T08:36:24.541Z</time></trkpt><trkpt lat="44.1358011" lon="8.0842121"><ele>523.0</ele><time>2026-04-22T08:36:25.541Z</time></trkpt><trkpt lat="44.1359162" lon="8.0842194"><ele>517.5</ele><time>2026-04-22T08:36:26.541Z</time></trkpt><trkpt lat="44.1360316" lon="8.0842405"><ele>512.0</ele><time>2026-04-22T08:36:27.541Z</time></trkpt><trkpt lat="44.1361664" lon="8.0842557"><ele>512.0</ele><time>2026-04-22T08:36:28.541Z</time></trkpt><trkpt lat="44.1362736" lon="8.0842551"><ele>512.0</ele><time>2026-04-22T08:36:29.541Z</time></trkpt><trkpt lat="44.1364036" lon="8.0842424"><ele>512.0</ele><time>2026-04-22T08:36:30.541Z</time></trkpt><trkpt lat="44.1364948" lon="8.0842069"><ele>512.0</ele><time>2026-04-22T08:36:31.541Z</time></trkpt><trkpt lat="44.136591" lon="8.0841777"><ele>512.0</ele><time>2026-04-22T08:36:32.541Z</time></trkpt><trkpt lat="44.1366843" lon="8.0841403"><ele>515.2</ele><time>2026-04-22T08:36:33.541Z</time></trkpt><trkpt lat="44.136778" lon="8.0840928"><ele>518.4000000000001</ele><time>2026-04-22T08:36:34.54Z</time></trkpt><trkpt lat="44.136876" lon="8.0840311"><ele>521.5999999999999</ele><time>2026-04-22T08:36:35.541Z</time></trkpt><trkpt lat="44.1369765" lon="8.0839529"><ele>524.8</ele><time>2026-04-22T08:36:36.541Z</time></trkpt><trkpt lat="44.137063" lon="8.0838737"><ele>528.0</ele><time>2026-04-22T08:36:37.54Z</time></trkpt><trkpt lat="44.1371408" lon="8.083798"><ele>528.0</ele><time>2026-04-22T08:36:38.54Z</time></trkpt><trkpt lat="44.137254" lon="8.0837186"><ele>528.0</ele><time>2026-04-22T08:36:39.541Z</time></trkpt><trkpt lat="44.1373631" lon="8.0836446"><ele>528.0</ele><time>2026-04-22T08:36:40.54Z</time></trkpt><trkpt lat="44.1374633" lon="8.0835669"><ele>528.0</ele><time>2026-04-22T08:36:41.54Z</time></trkpt><trkpt lat="44.1375555" lon="8.0834829"><ele>526.5</ele><time>2026-04-22T08:36:42.54Z</time></trkpt><trkpt lat="44.1376454" lon="8.0833874"><ele>525.0</ele><time>2026-04-22T08:36:43.54Z</time></trkpt><trkpt lat="44.1377298" lon="8.0832793"><ele>523.5</ele><time>2026-04-22T08:36:44.539Z</time></trkpt><trkpt lat="44.1378163" lon="8.0831557"><ele>522.0</ele><time>2026-04-22T08:36:45.54Z</time></trkpt><trkpt lat="44.1378955" lon="8.0830317"><ele>522.0</ele><time>2026-04-22T08:36:46.54Z</time></trkpt><trkpt lat="44.1379677" lon="8.0829086"><ele>522.0</ele><time>2026-04-22T08:36:47.539Z</time></trkpt><trkpt lat="44.1380254" lon="8.0827898"><ele>522.0</ele><time>2026-04-22T08:36:48.54Z</time></trkpt><trkpt lat="44.1380699" lon="8.0826795"><ele>522.0</ele><time>2026-04-22T08:36:49.54Z</time></trkpt><trkpt lat="44.1381077" lon="8.0825637"><ele>522.0</ele><time>2026-04-22T08:36:50.54Z</time></trkpt><trkpt lat="44.1381385" lon="8.0824199"><ele>525.6</ele><time>2026-04-22T08:36:51.54Z</time></trkpt><trkpt lat="44.138172" lon="8.0822792"><ele>529.2</ele><time>2026-04-22T08:36:52.54Z</time></trkpt><trkpt lat="44.1382089" lon="8.0821476"><ele>532.8</ele><time>2026-04-22T08:36:53.54Z</time></trkpt><trkpt lat="44.1382393" lon="8.0820285"><ele>536.4</ele><time>2026-04-22T08:36:54.54Z</time></trkpt><trkpt lat="44.1382855" lon="8.081928"><ele>540.0</ele><time>2026-04-22T08:36:55.54Z</time></trkpt><trkpt lat="44.1383503" lon="8.0818262"><ele>531.0</ele><time>2026-04-22T08:36:56.54Z</time></trkpt><trkpt lat="44.1384151" lon="8.0817184"><ele>522.0</ele><time>2026-04-22T08:36:57.54Z</time></trkpt><trkpt lat="44.1384834" lon="8.0815899"><ele>513.0</ele><time>2026-04-22T08:36:58.54Z</time></trkpt><trkpt lat="44.1385414" lon="8.0814505"><ele>504.0</ele><time>2026-04-22T08:36:59.539Z</time></trkpt><trkpt lat="44.138588" lon="8.0813186"><ele>495.0</ele><time>2026-04-22T08:37:00.54Z</time></trkpt><trkpt lat="44.1385992" lon="8.081209"><ele>495.0</ele><time>2026-04-22T08:37:01.54Z</time></trkpt><trkpt lat="44.1385965" lon="8.0810983"><ele>495.0</ele><time>2026-04-22T08:37:02.54Z</time></trkpt><trkpt lat="44.1385758" lon="8.0809823"><ele>495.0</ele><time>2026-04-22T08:37:03.54Z</time></trkpt><trkpt lat="44.1385477" lon="8.0808692"><ele>495.0</ele><time>2026-04-22T08:37:04.54Z</time></trkpt><trkpt lat="44.1385069" lon="8.0807629"><ele>495.0</ele><time>2026-04-22T08:37:05.539Z</time></trkpt><trkpt lat="44.1384529" lon="8.0806469"><ele>495.0</ele><time>2026-04-22T08:37:06.54Z</time></trkpt><trkpt lat="44.1383901" lon="8.0805316"><ele>496.8</ele><time>2026-04-22T08:37:07.54Z</time></trkpt><trkpt lat="44.1383393" lon="8.0804206"><ele>498.6</ele><time>2026-04-22T08:37:08.54Z</time></trkpt><trkpt lat="44.138302" lon="8.0803037"><ele>500.4</ele><time>2026-04-22T08:37:09.54Z</time></trkpt><trkpt lat="44.1382855" lon="8.0801839"><ele>502.2</ele><time>2026-04-22T08:37:10.54Z</time></trkpt><trkpt lat="44.1382885" lon="8.0800584"><ele>504.0</ele><time>2026-04-22T08:37:11.54Z</time></trkpt><trkpt lat="44.1383237" lon="8.0799234"><ele>506.2</ele><time>2026-04-22T08:37:12.54Z</time></trkpt><trkpt lat="44.1383753" lon="8.079791"><ele>508.4</ele><time>2026-04-22T08:37:13.54Z</time></trkpt><trkpt lat="44.1384352" lon="8.079687"><ele>510.6</ele><time>2026-04-22T08:37:14.54Z</time></trkpt><trkpt lat="44.1385116" lon="8.0796105"><ele>512.8</ele><time>2026-04-22T08:37:15.54Z</time></trkpt><trkpt lat="44.1385726" lon="8.0795577"><ele>515.0</ele><time>2026-04-22T08:37:16.54Z</time></trkpt><trkpt lat="44.1386287" lon="8.0794239"><ele>515.0</ele><time>2026-04-22T08:37:18.54Z</time></trkpt><trkpt lat="44.1386095" lon="8.0792915"><ele>515.0</ele><time>2026-04-22T08:37:19.539Z</time></trkpt><trkpt lat="44.1385915" lon="8.0791524"><ele>515.0</ele><time>2026-04-22T08:37:20.54Z</time></trkpt><trkpt lat="44.1385774" lon="8.0790085"><ele>515.0</ele><time>2026-04-22T08:37:21.54Z</time></trkpt><trkpt lat="44.1385682" lon="8.0788606"><ele>515.0</ele><time>2026-04-22T08:37:22.54Z</time></trkpt><trkpt lat="44.1385659" lon="8.0787125"><ele>514.4</ele><time>2026-04-22T08:37:23.54Z</time></trkpt><trkpt lat="44.1385794" lon="8.0785444"><ele>513.8</ele><time>2026-04-22T08:37:24.539Z</time></trkpt><trkpt lat="44.1385982" lon="8.0783833"><ele>513.2</ele><time>2026-04-22T08:37:25.539Z</time></trkpt><trkpt lat="44.1386314" lon="8.0782524"><ele>512.6</ele><time>2026-04-22T08:37:26.54Z</time></trkpt><trkpt lat="44.1386615" lon="8.078136"><ele>512.0</ele><time>2026-04-22T08:37:27.54Z</time></trkpt><trkpt lat="44.1386795" lon="8.0780408"><ele>512.0</ele><time>2026-04-22T08:37:28.54Z</time></trkpt><trkpt lat="44.1386735" lon="8.0779501"><ele>512.0</ele><time>2026-04-22T08:37:29.54Z</time></trkpt><trkpt lat="44.1386224" lon="8.0778554"><ele>512.0</ele><time>2026-04-22T08:37:30.54Z</time></trkpt><trkpt lat="44.138563" lon="8.0777288"><ele>512.0</ele><time>2026-04-22T08:37:31.54Z</time></trkpt><trkpt lat="44.1384955" lon="8.0775888"><ele>512.0</ele><time>2026-04-22T08:37:32.54Z</time></trkpt><trkpt lat="44.1384392" lon="8.0774508"><ele>513.2</ele><time>2026-04-22T08:37:33.54Z</time></trkpt><trkpt lat="44.1384014" lon="8.077318"><ele>514.4000000000001</ele><time>2026-04-22T08:37:34.54Z</time></trkpt><trkpt lat="44.1383776" lon="8.0771857"><ele>515.5999999999999</ele><time>2026-04-22T08:37:35.539Z</time></trkpt><trkpt lat="44.1383836" lon="8.0770585"><ele>516.8</ele><time>2026-04-22T08:37:36.54Z</time></trkpt><trkpt lat="44.1384047" lon="8.0769339"><ele>518.0</ele><time>2026-04-22T08:37:37.54Z</time></trkpt><trkpt lat="44.1384287" lon="8.0767964"><ele>518.0</ele><time>2026-04-22T08:37:38.54Z</time></trkpt><trkpt lat="44.1384612" lon="8.0766513"><ele>518.0</ele><time>2026-04-22T08:37:39.539Z</time></trkpt><trkpt lat="44.1385156" lon="8.0765111"><ele>518.0</ele><time>2026-04-22T08:37:40.539Z</time></trkpt><trkpt lat="44.1385707" lon="8.0763945"><ele>518.0</ele><time>2026-04-22T08:37:41.54Z</time></trkpt><trkpt lat="44.1386336" lon="8.076298"><ele>518.0</ele><time>2026-04-22T08:37:42.54Z</time></trkpt><trkpt lat="44.1387023" lon="8.0762246"><ele>519.6666666666666</ele><time>2026-04-22T08:37:43.54Z</time></trkpt><trkpt lat="44.1387833" lon="8.0761665"><ele>521.3333333333333</ele><time>2026-04-22T08:37:44.539Z</time></trkpt><trkpt lat="44.1388607" lon="8.0761353"><ele>523.0</ele><time>2026-04-22T08:37:45.54Z</time></trkpt><trkpt lat="44.138933" lon="8.0760942"><ele>524.6666666666666</ele><time>2026-04-22T08:37:46.54Z</time></trkpt><trkpt lat="44.1389837" lon="8.0760294"><ele>526.3333333333334</ele><time>2026-04-22T08:37:47.54Z</time></trkpt><trkpt lat="44.1390207" lon="8.0759565"><ele>528.0</ele><time>2026-04-22T08:37:48.539Z</time></trkpt><trkpt lat="44.139042" lon="8.07578"><ele>524.0</ele><time>2026-04-22T08:37:50.539Z</time></trkpt><trkpt lat="44.1390021" lon="8.0756617"><ele>520.0</ele><time>2026-04-22T08:37:51.54Z</time></trkpt><trkpt lat="44.1389264" lon="8.0755304"><ele>516.0</ele><time>2026-04-22T08:37:52.539Z</time></trkpt><trkpt lat="44.1388329" lon="8.0753874"><ele>512.0</ele><time>2026-04-22T08:37:53.54Z</time></trkpt><trkpt lat="44.1387348" lon="8.0752498"><ele>512.0</ele><time>2026-04-22T08:37:54.54Z</time></trkpt><trkpt lat="44.1386335" lon="8.0751249"><ele>512.0</ele><time>2026-04-22T08:37:55.54Z</time></trkpt><trkpt lat="44.1385397" lon="8.0750107"><ele>512.0</ele><time>2026-04-22T08:37:56.54Z</time></trkpt><trkpt lat="44.1384392" lon="8.0749086"><ele>512.0</ele><time>2026-04-22T08:37:57.54Z</time></trkpt><trkpt lat="44.1383388" lon="8.0748279"><ele>511.99999999999994</ele><time>2026-04-22T08:37:58.54Z</time></trkpt><trkpt lat="44.1382455" lon="8.074781"><ele>512.0</ele><time>2026-04-22T08:37:59.54Z</time></trkpt><trkpt lat="44.1381815" lon="8.0747363"><ele>512.0</ele><time>2026-04-22T08:38:00.54Z</time></trkpt><trkpt lat="44.1381365" lon="8.0746333"><ele>512.0</ele><time>2026-04-22T08:38:02.54Z</time></trkpt><trkpt lat="44.1381844" lon="8.074538"><ele>511.99999999999994</ele><time>2026-04-22T08:38:04.54Z</time></trkpt><trkpt lat="44.138237" lon="8.0744797"><ele>512.0</ele><time>2026-04-22T08:38:05.54Z</time></trkpt><trkpt lat="44.1382869" lon="8.0744162"><ele>512.0</ele><time>2026-04-22T08:38:06.54Z</time></trkpt><trkpt lat="44.1383483" lon="8.0743279"><ele>512.0</ele><time>2026-04-22T08:38:07.54Z</time></trkpt><trkpt lat="44.138424" lon="8.0742109"><ele>512.0</ele><time>2026-04-22T08:38:08.539Z</time></trkpt><trkpt lat="44.1385129" lon="8.0741152"><ele>512.0</ele><time>2026-04-22T08:38:09.539Z</time></trkpt><trkpt lat="44.138607" lon="8.0740242"><ele>512.0</ele><time>2026-04-22T08:38:10.539Z</time></trkpt><trkpt lat="44.1386781" lon="8.0739487"><ele>515.75</ele><time>2026-04-22T08:38:11.54Z</time></trkpt><trkpt lat="44.1387323" lon="8.0738027"><ele>519.5</ele><time>2026-04-22T08:38:13.54Z</time></trkpt><trkpt lat="44.1387344" lon="8.073679"><ele>523.25</ele><time>2026-04-22T08:38:14.539Z</time></trkpt><trkpt lat="44.1387123" lon="8.0735226"><ele>527.0</ele><time>2026-04-22T08:38:15.54Z</time></trkpt><trkpt lat="44.138687" lon="8.073344"><ele>526.5</ele><time>2026-04-22T08:38:16.54Z</time></trkpt><trkpt lat="44.1386476" lon="8.0731604"><ele>526.0</ele><time>2026-04-22T08:38:17.539Z</time></trkpt><trkpt lat="44.1386135" lon="8.0729991"><ele>525.5</ele><time>2026-04-22T08:38:18.539Z</time></trkpt><trkpt lat="44.1385902" lon="8.0728484"><ele>525.0</ele><time>2026-04-22T08:38:19.54Z</time></trkpt><trkpt lat="44.1385674" lon="8.0727154"><ele>525.0</ele><time>2026-04-22T08:38:20.54Z</time></trkpt><trkpt lat="44.1385346" lon="8.0726031"><ele>525.0</ele><time>2026-04-22T08:38:21.539Z</time></trkpt><trkpt lat="44.1385069" lon="8.072493"><ele>525.0</ele><time>2026-04-22T08:38:22.54Z</time></trkpt><trkpt lat="44.1384917" lon="8.0723887"><ele>525.0</ele><time>2026-04-22T08:38:23.539Z</time></trkpt><trkpt lat="44.1385328" lon="8.0722424"><ele>525.0</ele><time>2026-04-22T08:38:25.54Z</time></trkpt><trkpt lat="44.1386103" lon="8.072222"><ele>525.0</ele><time>2026-04-22T08:38:26.54Z</time></trkpt><trkpt lat="44.1386989" lon="8.0721933"><ele>525.2</ele><time>2026-04-22T08:38:27.54Z</time></trkpt><trkpt lat="44.1387993" lon="8.0721822"><ele>525.4</ele><time>2026-04-22T08:38:28.54Z</time></trkpt><trkpt lat="44.138899" lon="8.0721897"><ele>525.6</ele><time>2026-04-22T08:38:29.54Z</time></trkpt><trkpt lat="44.1389886" lon="8.072204"><ele>525.8</ele><time>2026-04-22T08:38:30.54Z</time></trkpt><trkpt lat="44.1390973" lon="8.0722326"><ele>526.0</ele><time>2026-04-22T08:38:31.54Z</time></trkpt><trkpt lat="44.1392136" lon="8.072246"><ele>526.0</ele><time>2026-04-22T08:38:32.54Z</time></trkpt><trkpt lat="44.1393135" lon="8.0722628"><ele>526.0</ele><time>2026-04-22T08:38:33.54Z</time></trkpt><trkpt lat="44.139444" lon="8.0722548"><ele>526.0</ele><time>2026-04-22T08:38:35.54Z</time></trkpt><trkpt lat="44.1395135" lon="8.0721314"><ele>526.0</ele><time>2026-04-22T08:38:37.54Z</time></trkpt><trkpt lat="44.1395419" lon="8.0719854"><ele>526.0</ele><time>2026-04-22T08:38:38.54Z</time></trkpt><trkpt lat="44.1395715" lon="8.0718104"><ele>526.0</ele><time>2026-04-22T08:38:39.539Z</time></trkpt><trkpt lat="44.1395981" lon="8.0716186"><ele>526.0</ele><time>2026-04-22T08:38:40.54Z</time></trkpt><trkpt lat="44.1396268" lon="8.071437"><ele>526.0</ele><time>2026-04-22T08:38:41.54Z</time></trkpt><trkpt lat="44.1396447" lon="8.0712628"><ele>532.25</ele><time>2026-04-22T08:38:42.54Z</time></trkpt><trkpt lat="44.1396602" lon="8.0710853"><ele>538.5</ele><time>2026-04-22T08:38:43.54Z</time></trkpt><trkpt lat="44.1396749" lon="8.0709322"><ele>544.75</ele><time>2026-04-22T08:38:44.54Z</time></trkpt><trkpt lat="44.1396885" lon="8.0707857"><ele>551.0</ele><time>2026-04-22T08:38:45.54Z</time></trkpt><trkpt lat="44.1396906" lon="8.0706375"><ele>553.2</ele><time>2026-04-22T08:38:46.539Z</time></trkpt><trkpt lat="44.139687" lon="8.0704933"><ele>555.4000000000001</ele><time>2026-04-22T08:38:47.54Z</time></trkpt><trkpt lat="44.139676" lon="8.0703475"><ele>557.6</ele><time>2026-04-22T08:38:48.54Z</time></trkpt><trkpt lat="44.1396665" lon="8.0702004"><ele>559.8000000000001</ele><time>2026-04-22T08:38:49.54Z</time></trkpt><trkpt lat="44.1396445" lon="8.0700488"><ele>562.0</ele><time>2026-04-22T08:38:50.54Z</time></trkpt><trkpt lat="44.139623" lon="8.0699238"><ele>562.6</ele><time>2026-04-22T08:38:51.54Z</time></trkpt><trkpt lat="44.1396021" lon="8.0698273"><ele>563.2</ele><time>2026-04-22T08:38:52.54Z</time></trkpt><trkpt lat="44.1395352" lon="8.0696579"><ele>563.8</ele><time>2026-04-22T08:38:54.54Z</time></trkpt><trkpt lat="44.1395324" lon="8.0695183"><ele>564.4</ele><time>2026-04-22T08:38:56.539Z</time></trkpt><trkpt lat="44.1395339" lon="8.0693842"><ele>565.0</ele><time>2026-04-22T08:38:58.539Z</time></trkpt><trkpt lat="44.1395062" lon="8.0693031"><ele>565.0</ele><time>2026-04-22T08:38:59.54Z</time></trkpt><trkpt lat="44.1394703" lon="8.0692116"><ele>565.0</ele><time>2026-04-22T08:39:00.54Z</time></trkpt><trkpt lat="44.1394457" lon="8.0691045"><ele>565.0</ele><time>2026-04-22T08:39:01.539Z</time></trkpt><trkpt lat="44.1394308" lon="8.0689888"><ele>565.0</ele><time>2026-04-22T08:39:02.54Z</time></trkpt><trkpt lat="44.1394249" lon="8.0688771"><ele>565.0</ele><time>2026-04-22T08:39:03.54Z</time></trkpt><trkpt lat="44.1393995" lon="8.068768"><ele>565.0</ele><time>2026-04-22T08:39:04.54Z</time></trkpt><trkpt lat="44.139353" lon="8.0686465"><ele>565.4</ele><time>2026-04-22T08:39:05.54Z</time></trkpt><trkpt lat="44.1392866" lon="8.0685018"><ele>565.8</ele><time>2026-04-22T08:39:06.54Z</time></trkpt><trkpt lat="44.1392255" lon="8.0683635"><ele>566.2</ele><time>2026-04-22T08:39:07.54Z</time></trkpt><trkpt lat="44.1391745" lon="8.0682283"><ele>566.6</ele><time>2026-04-22T08:39:08.539Z</time></trkpt><trkpt lat="44.139141" lon="8.0681049"><ele>567.0</ele><time>2026-04-22T08:39:09.54Z</time></trkpt><trkpt lat="44.139131" lon="8.0679875"><ele>568.3333333333334</ele><time>2026-04-22T08:39:10.54Z</time></trkpt><trkpt lat="44.1391477" lon="8.0678703"><ele>569.6666666666666</ele><time>2026-04-22T08:39:11.54Z</time></trkpt><trkpt lat="44.1391707" lon="8.0677566"><ele>571.0</ele><time>2026-04-22T08:39:12.539Z</time></trkpt><trkpt lat="44.1391998" lon="8.0676515"><ele>572.3333333333333</ele><time>2026-04-22T08:39:13.54Z</time></trkpt><trkpt lat="44.1392287" lon="8.067542"><ele>573.6666666666666</ele><time>2026-04-22T08:39:14.54Z</time></trkpt><trkpt lat="44.1392479" lon="8.0674493"><ele>575.0</ele><time>2026-04-22T08:39:15.54Z</time></trkpt><trkpt lat="44.1392721" lon="8.0673381"><ele>578.2</ele><time>2026-04-22T08:39:16.54Z</time></trkpt><trkpt lat="44.1393081" lon="8.0672013"><ele>581.4</ele><time>2026-04-22T08:39:17.54Z</time></trkpt><trkpt lat="44.1393587" lon="8.0670809"><ele>584.6</ele><time>2026-04-22T08:39:18.54Z</time></trkpt><trkpt lat="44.1394217" lon="8.0669892"><ele>587.8</ele><time>2026-04-22T08:39:19.54Z</time></trkpt><trkpt lat="44.1394767" lon="8.0669243"><ele>591.0</ele><time>2026-04-22T08:39:20.54Z</time></trkpt><trkpt lat="44.139561" lon="8.0668564"><ele>591.0</ele><time>2026-04-22T08:39:22.54Z</time></trkpt><trkpt lat="44.1395047" lon="8.0667562"><ele>591.0</ele><time>2026-04-22T08:40:06.54Z</time></trkpt><trkpt lat="44.1394867" lon="8.0666246"><ele>591.0</ele><time>2026-04-22T08:40:08.54Z</time></trkpt><trkpt lat="44.1394587" lon="8.0665125"><ele>591.0</ele><time>2026-04-22T08:40:10.539Z</time></trkpt><trkpt lat="44.1394069" lon="8.0663885"><ele>591.0</ele><time>2026-04-22T08:40:12.54Z</time></trkpt><trkpt lat="44.1393609" lon="8.0662584"><ele>592.5</ele><time>2026-04-22T08:40:14.54Z</time></trkpt><trkpt lat="44.139343" lon="8.0661734"><ele>594.0</ele><time>2026-04-22T08:40:16.54Z</time></trkpt><trkpt lat="44.139333" lon="8.0660782"><ele>595.5</ele><time>2026-04-22T08:40:19.539Z</time></trkpt><trkpt lat="44.1393738" lon="8.0659888"><ele>597.0</ele><time>2026-04-22T08:40:24.54Z</time></trkpt><trkpt lat="44.1394271" lon="8.0658933"><ele>598.5</ele><time>2026-04-22T08:40:27.54Z</time></trkpt><trkpt lat="44.1394842" lon="8.0658243"><ele>600.0</ele><time>2026-04-22T08:40:29.54Z</time></trkpt><trkpt lat="44.1395434" lon="8.0657475"><ele>599.6666666666666</ele><time>2026-04-22T08:40:31.54Z</time></trkpt><trkpt lat="44.1396265" lon="8.0656705"><ele>599.3333333333334</ele><time>2026-04-22T08:40:33.54Z</time></trkpt><trkpt lat="44.1396822" lon="8.0656006"><ele>599.0</ele><time>2026-04-22T08:40:35.539Z</time></trkpt><trkpt lat="44.1397437" lon="8.06554"><ele>598.6666666666667</ele><time>2026-04-22T08:40:37.54Z</time></trkpt><trkpt lat="44.1398222" lon="8.065469"><ele>598.3333333333334</ele><time>2026-04-22T08:40:40.539Z</time></trkpt><trkpt lat="44.1398697" lon="8.0653824"><ele>598.0</ele><time>2026-04-22T08:40:42.539Z</time></trkpt><trkpt lat="44.1399212" lon="8.0653065"><ele>598.0</ele><time>2026-04-22T08:40:45.54Z</time></trkpt><trkpt lat="44.1399859" lon="8.0652338"><ele>598.0</ele><time>2026-04-22T08:40:48.54Z</time></trkpt><trkpt lat="44.140051" lon="8.0651581"><ele>598.0</ele><time>2026-04-22T08:40:51.54Z</time></trkpt><trkpt lat="44.1401257" lon="8.0650873"><ele>598.0</ele><time>2026-04-22T08:40:54.54Z</time></trkpt><trkpt lat="44.1401884" lon="8.0650406"><ele>598.0</ele><time>2026-04-22T08:40:58.539Z</time></trkpt><trkpt lat="44.1402564" lon="8.064977"><ele>598.0</ele><time>2026-04-22T08:41:01.539Z</time></trkpt><trkpt lat="44.140303" lon="8.0648782"><ele>600.7142857142857</ele><time>2026-04-22T08:41:04.54Z</time></trkpt><trkpt lat="44.1403013" lon="8.0647845"><ele>603.4285714285714</ele><time>2026-04-22T08:41:07.54Z</time></trkpt><trkpt lat="44.140299" lon="8.064676"><ele>606.1428571428571</ele><time>2026-04-22T08:41:10.539Z</time></trkpt><trkpt lat="44.1403086" lon="8.0645755"><ele>608.8571428571429</ele><time>2026-04-22T08:41:12.539Z</time></trkpt><trkpt lat="44.1403026" lon="8.0644767"><ele>611.5714285714286</ele><time>2026-04-22T08:41:14.54Z</time></trkpt><trkpt lat="44.1402967" lon="8.0643709"><ele>614.2857142857143</ele><time>2026-04-22T08:41:16.539Z</time></trkpt><trkpt lat="44.1403085" lon="8.0642733"><ele>617.0</ele><time>2026-04-22T08:41:18.539Z</time></trkpt><trkpt lat="44.1402965" lon="8.0641522"><ele>617.0</ele><time>2026-04-22T08:41:21.54Z</time></trkpt><trkpt lat="44.1402636" lon="8.0640687"><ele>617.0</ele><time>2026-04-22T08:41:25.539Z</time></trkpt><trkpt lat="44.1402514" lon="8.0639752"><ele>617.0</ele><time>2026-04-22T08:42:26.54Z</time></trkpt><trkpt lat="44.1403255" lon="8.0640199"><ele>617.0</ele><time>2026-04-22T08:42:59.54Z</time></trkpt><trkpt lat="44.1403413" lon="8.0641332"><ele>617.0</ele><time>2026-04-22T08:43:02.54Z</time></trkpt><trkpt lat="44.1403267" lon="8.0642327"><ele>617.0</ele><time>2026-04-22T08:43:04.54Z</time></trkpt><trkpt lat="44.1403334" lon="8.0643647"><ele>617.0</ele><time>2026-04-22T08:43:07.54Z</time></trkpt><trkpt lat="44.1403306" lon="8.0644606"><ele>617.0</ele><time>2026-04-22T08:43:09.54Z</time></trkpt><trkpt lat="44.1403324" lon="8.0645849"><ele>617.0</ele><time>2026-04-22T08:43:12.54Z</time></trkpt><trkpt lat="44.1403437" lon="8.0647023"><ele>617.0</ele><time>2026-04-22T08:43:15.54Z</time></trkpt><trkpt lat="44.1403409" lon="8.064807"><ele>617.0</ele><time>2026-04-22T08:43:18.54Z</time></trkpt><trkpt lat="44.1403017" lon="8.0649855"><ele>617.0</ele><time>2026-04-22T08:49:57.539Z</time></trkpt><trkpt lat="44.1403312" lon="8.0648826"><ele>617.0</ele><time>2026-04-22T08:50:01.539Z</time></trkpt><trkpt lat="44.140335" lon="8.0647546"><ele>617.0</ele><time>2026-04-22T08:50:04.539Z</time></trkpt><trkpt lat="44.1403312" lon="8.0646542"><ele>617.0</ele><time>2026-04-22T08:50:06.539Z</time></trkpt><trkpt lat="44.140331" lon="8.0645599"><ele>617.0</ele><time>2026-04-22T08:50:08.539Z</time></trkpt><trkpt lat="44.1403286" lon="8.0644634"><ele>617.0</ele><time>2026-04-22T08:50:10.538Z</time></trkpt><trkpt lat="44.1403028" lon="8.0643275"><ele>617.0</ele><time>2026-04-22T08:50:13.539Z</time></trkpt><trkpt lat="44.1403045" lon="8.0642144"><ele>617.0</ele><time>2026-04-22T08:50:15.539Z</time></trkpt><trkpt lat="44.1403006" lon="8.0640879"><ele>617.0</ele><time>2026-04-22T08:50:18.539Z</time></trkpt><trkpt lat="44.1402752" lon="8.0640023"><ele>617.0</ele><time>2026-04-22T08:50:20.539Z</time></trkpt><trkpt lat="44.1401903" lon="8.0641001"><ele>617.0</ele><time>2026-04-22T08:50:36.539Z</time></trkpt><trkpt lat="44.1401276" lon="8.0640846"><ele>617.0</ele><time>2026-04-22T08:50:39.539Z</time></trkpt><trkpt lat="44.1400532" lon="8.0641277"><ele>617.0</ele><time>2026-04-22T08:50:48.539Z</time></trkpt><trkpt lat="44.1399998" lon="8.064199"><ele>617.0</ele><time>2026-04-22T08:50:53.539Z</time></trkpt><trkpt lat="44.1399531" lon="8.0642667"><ele>617.0</ele><time>2026-04-22T08:50:57.539Z</time></trkpt><trkpt lat="44.1398984" lon="8.0642138"><ele>617.0</ele><time>2026-04-22T08:51:23.538Z</time></trkpt><trkpt lat="44.1398307" lon="8.0640824"><ele>617.0</ele><time>2026-04-22T08:51:41.539Z</time></trkpt><trkpt lat="44.1398169" lon="8.0639874"><ele>617.0</ele><time>2026-04-22T08:51:43.539Z</time></trkpt><trkpt lat="44.1397679" lon="8.0638476"><ele>619.8333333333333</ele><time>2026-04-22T08:52:11.539Z</time></trkpt><trkpt lat="44.1397277" lon="8.0637709"><ele>622.6666666666666</ele><time>2026-04-22T08:52:24.539Z</time></trkpt><trkpt lat="44.1397427" lon="8.0636518"><ele>625.5</ele><time>2026-04-22T08:53:01.538Z</time></trkpt><trkpt lat="44.1398367" lon="8.0636058"><ele>628.3333333333334</ele><time>2026-04-22T08:55:01.539Z</time></trkpt><trkpt lat="44.139935" lon="8.0635204"><ele>631.1666666666667</ele><time>2026-04-22T08:55:31.539Z</time></trkpt><trkpt lat="44.1399996" lon="8.0634642"><ele>634.0</ele><time>2026-04-22T08:55:33.539Z</time></trkpt><trkpt lat="44.1400445" lon="8.063372"><ele>634.0</ele><time>2026-04-22T08:56:04.539Z</time></trkpt><trkpt lat="44.1400632" lon="8.0632833"><ele>634.0</ele><time>2026-04-22T08:56:08.539Z</time></trkpt><trkpt lat="44.1400877" lon="8.0632024"><ele>634.0</ele><time>2026-04-22T08:56:12.538Z</time></trkpt><trkpt lat="44.1401084" lon="8.0631187"><ele>634.0</ele><time>2026-04-22T08:56:15.538Z</time></trkpt><trkpt lat="44.1401357" lon="8.0629369"><ele>634.0</ele><time>2026-04-22T08:56:51.539Z</time></trkpt><trkpt lat="44.1401552" lon="8.0628062"><ele>634.0</ele><time>2026-04-22T08:57:02.539Z</time></trkpt><trkpt lat="44.1401682" lon="8.0626989"><ele>637.1666666666667</ele><time>2026-04-22T08:57:05.539Z</time></trkpt><trkpt lat="44.1401865" lon="8.0626116"><ele>640.3333333333334</ele><time>2026-04-22T08:57:08.539Z</time></trkpt><trkpt lat="44.140201" lon="8.062504"><ele>643.5</ele><time>2026-04-22T08:57:12.539Z</time></trkpt><trkpt lat="44.1402357" lon="8.062404"><ele>646.6666666666666</ele><time>2026-04-22T08:57:15.539Z</time></trkpt><trkpt lat="44.1402918" lon="8.0623216"><ele>649.8333333333333</ele><time>2026-04-22T08:57:18.539Z</time></trkpt><trkpt lat="44.1403275" lon="8.0622373"><ele>653.0</ele><time>2026-04-22T08:57:22.539Z</time></trkpt><trkpt lat="44.1403619" lon="8.0621379"><ele>655.1666666666666</ele><time>2026-04-22T08:57:26.539Z</time></trkpt><trkpt lat="44.1404086" lon="8.0620311"><ele>657.3333333333333</ele><time>2026-04-22T08:57:28.539Z</time></trkpt><trkpt lat="44.1404484" lon="8.0619391"><ele>659.5</ele><time>2026-04-22T08:57:30.538Z</time></trkpt><trkpt lat="44.1404735" lon="8.0618186"><ele>661.6666666666666</ele><time>2026-04-22T08:57:33.539Z</time></trkpt><trkpt lat="44.1405053" lon="8.0617168"><ele>663.8333333333334</ele><time>2026-04-22T08:57:36.539Z</time></trkpt><trkpt lat="44.1405377" lon="8.0616392"><ele>666.0</ele><time>2026-04-22T08:57:39.539Z</time></trkpt><trkpt lat="44.140573" lon="8.0615529"><ele>666.3333333333334</ele><time>2026-04-22T08:57:42.539Z</time></trkpt><trkpt lat="44.1405993" lon="8.0614466"><ele>666.6666666666666</ele><time>2026-04-22T08:57:45.539Z</time></trkpt><trkpt lat="44.140603" lon="8.0613317"><ele>667.0</ele><time>2026-04-22T08:57:48.539Z</time></trkpt><trkpt lat="44.1406086" lon="8.061233"><ele>667.3333333333333</ele><time>2026-04-22T08:57:51.539Z</time></trkpt><trkpt lat="44.1406352" lon="8.0611501"><ele>667.6666666666666</ele><time>2026-04-22T08:57:55.538Z</time></trkpt><trkpt lat="44.1406281" lon="8.0610489"><ele>668.0</ele><time>2026-04-22T08:58:14.539Z</time></trkpt><trkpt lat="44.1405874" lon="8.0609435"><ele>668.0</ele><time>2026-04-22T08:58:44.539Z</time></trkpt><trkpt lat="44.1405727" lon="8.0608223"><ele>668.0</ele><time>2026-04-22T08:58:53.539Z</time></trkpt><trkpt lat="44.1405547" lon="8.0607249"><ele>668.0</ele><time>2026-04-22T08:58:56.539Z</time></trkpt><trkpt lat="44.1405009" lon="8.0605731"><ele>668.0</ele><time>2026-04-22T08:59:19.539Z</time></trkpt><trkpt lat="44.1404448" lon="8.0604987"><ele>668.0</ele><time>2026-04-22T08:59:36.538Z</time></trkpt><trkpt lat="44.1403995" lon="8.0603528"><ele>668.6666666666666</ele><time>2026-04-22T09:00:23.539Z</time></trkpt><trkpt lat="44.140344" lon="8.0602185"><ele>669.3333333333333</ele><time>2026-04-22T09:01:26.538Z</time></trkpt><trkpt lat="44.1403129" lon="8.0603109"><ele>670.0</ele><time>2026-04-22T09:06:02.538Z</time></trkpt><trkpt lat="44.1403339" lon="8.0602194"><ele>670.6666666666666</ele><time>2026-04-22T09:07:28.538Z</time></trkpt><trkpt lat="44.1403118" lon="8.0601362"><ele>671.3333333333334</ele><time>2026-04-22T09:07:34.538Z</time></trkpt><trkpt lat="44.1402767" lon="8.0600524"><ele>672.0</ele><time>2026-04-22T09:07:49.538Z</time></trkpt><trkpt lat="44.140248" lon="8.059881"><ele>672.0</ele><time>2026-04-22T09:08:27.538Z</time></trkpt><trkpt lat="44.1402747" lon="8.059779"><ele>672.0</ele><time>2026-04-22T09:08:34.538Z</time></trkpt><trkpt lat="44.1403392" lon="8.0597349"><ele>672.0</ele><time>2026-04-22T09:08:49.538Z</time></trkpt><trkpt lat="44.1404046" lon="8.0597238"><ele>672.0</ele><time>2026-04-22T09:08:51.537Z</time></trkpt><trkpt lat="44.1403822" lon="8.0596143"><ele>672.0</ele><time>2026-04-22T09:09:28.537Z</time></trkpt><trkpt lat="44.1403247" lon="8.059512"><ele>672.0</ele><time>2026-04-22T09:09:47.538Z</time></trkpt><trkpt lat="44.1402645" lon="8.0594511"><ele>672.0</ele><time>2026-04-22T09:10:01.538Z</time></trkpt><trkpt lat="44.140181" lon="8.0594474"><ele>672.0</ele><time>2026-04-22T09:10:05.538Z</time></trkpt><trkpt lat="44.1401232" lon="8.0594879"><ele>672.0</ele><time>2026-04-22T09:10:07.538Z</time></trkpt><trkpt lat="44.1400782" lon="8.0595722"><ele>672.0</ele><time>2026-04-22T09:10:09.537Z</time></trkpt><trkpt lat="44.1400684" lon="8.0596641"><ele>672.0</ele><time>2026-04-22T09:10:12.538Z</time></trkpt><trkpt lat="44.140017" lon="8.0597393"><ele>672.0</ele><time>2026-04-22T09:10:16.538Z</time></trkpt><trkpt lat="44.139989" lon="8.0598217"><ele>672.0</ele><time>2026-04-22T09:10:20.538Z</time></trkpt><trkpt lat="44.1399862" lon="8.0599446"><ele>670.3333333333334</ele><time>2026-04-22T09:10:49.537Z</time></trkpt><trkpt lat="44.1399844" lon="8.0600649"><ele>668.6666666666666</ele><time>2026-04-22T09:10:51.538Z</time></trkpt><trkpt lat="44.1399884" lon="8.0601756"><ele>667.0</ele><time>2026-04-22T09:10:53.538Z</time></trkpt><trkpt lat="44.1399833" lon="8.0603091"><ele>665.3333333333333</ele><time>2026-04-22T09:10:55.537Z</time></trkpt><trkpt lat="44.1399825" lon="8.0604328"><ele>663.6666666666666</ele><time>2026-04-22T09:10:57.538Z</time></trkpt><trkpt lat="44.1399904" lon="8.0605461"><ele>662.0</ele><time>2026-04-22T09:10:59.538Z</time></trkpt><trkpt lat="44.1399503" lon="8.0606475"><ele>662.0</ele><time>2026-04-22T09:11:02.538Z</time></trkpt><trkpt lat="44.1399038" lon="8.0607072"><ele>662.0</ele><time>2026-04-22T09:11:04.538Z</time></trkpt><trkpt lat="44.1398366" lon="8.0608185"><ele>662.0</ele><time>2026-04-22T09:11:06.538Z</time></trkpt><trkpt lat="44.1397612" lon="8.0609059"><ele>662.0</ele><time>2026-04-22T09:11:08.538Z</time></trkpt><trkpt lat="44.1396708" lon="8.0609899"><ele>662.0</ele><time>2026-04-22T09:11:10.538Z</time></trkpt><trkpt lat="44.139577" lon="8.0610378"><ele>668.8</ele><time>2026-04-22T09:11:12.538Z</time></trkpt><trkpt lat="44.139487" lon="8.0610858"><ele>675.6</ele><time>2026-04-22T09:11:14.537Z</time></trkpt><trkpt lat="44.1393863" lon="8.0611804"><ele>682.4</ele><time>2026-04-22T09:11:16.537Z</time></trkpt><trkpt lat="44.1393077" lon="8.0612686"><ele>689.1999999999999</ele><time>2026-04-22T09:11:18.537Z</time></trkpt><trkpt lat="44.1392439" lon="8.0613806"><ele>696.0</ele><time>2026-04-22T09:11:20.537Z</time></trkpt><trkpt lat="44.1392052" lon="8.0614553"><ele>696.0</ele><time>2026-04-22T09:11:21.537Z</time></trkpt><trkpt lat="44.1391601" lon="8.0615314"><ele>696.0</ele><time>2026-04-22T09:11:22.536Z</time></trkpt><trkpt lat="44.1391136" lon="8.0615947"><ele>696.0</ele><time>2026-04-22T09:11:23.536Z</time></trkpt><trkpt lat="44.1390665" lon="8.0616596"><ele>696.0</ele><time>2026-04-22T09:11:24.536Z</time></trkpt><trkpt lat="44.1390132" lon="8.0617238"><ele>696.0</ele><time>2026-04-22T09:11:25.537Z</time></trkpt><trkpt lat="44.1389632" lon="8.061795"><ele>696.0</ele><time>2026-04-22T09:11:26.537Z</time></trkpt><trkpt lat="44.1389129" lon="8.0618634"><ele>696.0</ele><time>2026-04-22T09:11:27.536Z</time></trkpt><trkpt lat="44.1388678" lon="8.0619255"><ele>699.8</ele><time>2026-04-22T09:11:28.537Z</time></trkpt><trkpt lat="44.1387887" lon="8.0620373"><ele>703.5999999999999</ele><time>2026-04-22T09:11:30.537Z</time></trkpt><trkpt lat="44.138739" lon="8.0621303"><ele>707.4</ele><time>2026-04-22T09:11:32.537Z</time></trkpt><trkpt lat="44.1386994" lon="8.0622289"><ele>711.2</ele><time>2026-04-22T09:11:34.536Z</time></trkpt><trkpt lat="44.1386413" lon="8.0623303"><ele>715.0</ele><time>2026-04-22T09:11:36.537Z</time></trkpt><trkpt lat="44.1385497" lon="8.06245"><ele>715.0</ele><time>2026-04-22T09:11:38.537Z</time></trkpt><trkpt lat="44.1384613" lon="8.0625469"><ele>715.0</ele><time>2026-04-22T09:11:40.537Z</time></trkpt><trkpt lat="44.1383844" lon="8.0626265"><ele>715.0</ele><time>2026-04-22T09:11:42.537Z</time></trkpt><trkpt lat="44.1382776" lon="8.0627059"><ele>715.0</ele><time>2026-04-22T09:11:44.537Z</time></trkpt><trkpt lat="44.1382162" lon="8.0627584"><ele>715.0</ele><time>2026-04-22T09:11:45.536Z</time></trkpt><trkpt lat="44.1381515" lon="8.062804"><ele>720.6</ele><time>2026-04-22T09:11:46.537Z</time></trkpt><trkpt lat="44.1380608" lon="8.0629031"><ele>726.2</ele><time>2026-04-22T09:11:48.537Z</time></trkpt><trkpt lat="44.1379966" lon="8.0630403"><ele>731.8</ele><time>2026-04-22T09:11:50.537Z</time></trkpt><trkpt lat="44.1379646" lon="8.0632068"><ele>737.4</ele><time>2026-04-22T09:11:52.536Z</time></trkpt><trkpt lat="44.1379463" lon="8.0632949"><ele>743.0</ele><time>2026-04-22T09:11:53.537Z</time></trkpt><trkpt lat="44.1379305" lon="8.0634746"><ele>743.0</ele><time>2026-04-22T09:11:55.537Z</time></trkpt><trkpt lat="44.1379173" lon="8.0635643"><ele>743.0</ele><time>2026-04-22T09:11:56.536Z</time></trkpt><trkpt lat="44.1378742" lon="8.0637158"><ele>743.0</ele><time>2026-04-22T09:11:58.537Z</time></trkpt><trkpt lat="44.1378271" lon="8.0638449"><ele>743.0</ele><time>2026-04-22T09:12:00.537Z</time></trkpt><trkpt lat="44.1378035" lon="8.0639272"><ele>743.0</ele><time>2026-04-22T09:12:04.537Z</time></trkpt><trkpt lat="44.1378443" lon="8.0638168"><ele>743.0</ele><time>2026-04-22T09:13:07.537Z</time></trkpt><trkpt lat="44.1378676" lon="8.0637052"><ele>743.0</ele><time>2026-04-22T09:13:09.537Z</time></trkpt><trkpt lat="44.1378723" lon="8.0635683"><ele>743.0</ele><time>2026-04-22T09:13:11.537Z</time></trkpt><trkpt lat="44.1378919" lon="8.0634215"><ele>743.0</ele><time>2026-04-22T09:13:13.536Z</time></trkpt><trkpt lat="44.1379043" lon="8.0632551"><ele>743.0</ele><time>2026-04-22T09:13:15.537Z</time></trkpt><trkpt lat="44.1379188" lon="8.0631171"><ele>743.0</ele><time>2026-04-22T09:13:17.537Z</time></trkpt><trkpt lat="44.1379732" lon="8.0629611"><ele>745.2</ele><time>2026-04-22T09:13:19.537Z</time></trkpt><trkpt lat="44.1380337" lon="8.0628297"><ele>747.4</ele><time>2026-04-22T09:13:21.537Z</time></trkpt><trkpt lat="44.1381198" lon="8.0627558"><ele>749.6</ele><time>2026-04-22T09:13:23.537Z</time></trkpt><trkpt lat="44.1382156" lon="8.0626762"><ele>751.8000000000001</ele><time>2026-04-22T09:13:25.537Z</time></trkpt><trkpt lat="44.1383098" lon="8.0625758"><ele>754.0</ele><time>2026-04-22T09:13:27.536Z</time></trkpt><trkpt lat="44.1383978" lon="8.0624712"><ele>748.5</ele><time>2026-04-22T09:13:29.537Z</time></trkpt><trkpt lat="44.1384677" lon="8.0623655"><ele>743.0</ele><time>2026-04-22T09:13:31.537Z</time></trkpt><trkpt lat="44.1385194" lon="8.0622584"><ele>737.5</ele><time>2026-04-22T09:13:33.537Z</time></trkpt><trkpt lat="44.1385935" lon="8.0621489"><ele>732.0</ele><time>2026-04-22T09:13:35.537Z</time></trkpt><trkpt lat="44.1386383" lon="8.0620783"><ele>726.5</ele><time>2026-04-22T09:13:36.537Z</time></trkpt><trkpt lat="44.1386867" lon="8.0620067"><ele>721.0</ele><time>2026-04-22T09:13:37.537Z</time></trkpt><trkpt lat="44.1387317" lon="8.0619317"><ele>721.0</ele><time>2026-04-22T09:13:38.537Z</time></trkpt><trkpt lat="44.1387833" lon="8.061845"><ele>721.0</ele><time>2026-04-22T09:13:39.537Z</time></trkpt><trkpt lat="44.1388233" lon="8.06176"><ele>721.0</ele><time>2026-04-22T09:13:40.537Z</time></trkpt><trkpt lat="44.1388667" lon="8.06168"><ele>721.0</ele><time>2026-04-22T09:13:41.536Z</time></trkpt><trkpt lat="44.1389083" lon="8.06161"><ele>721.0</ele><time>2026-04-22T09:13:42.537Z</time></trkpt><trkpt lat="44.1389483" lon="8.06154"><ele>721.0</ele><time>2026-04-22T09:13:43.536Z</time></trkpt><trkpt lat="44.1390233" lon="8.0614233"><ele>716.8333333333334</ele><time>2026-04-22T09:13:45.537Z</time></trkpt><trkpt lat="44.139115" lon="8.0613133"><ele>712.6666666666667</ele><time>2026-04-22T09:13:47.537Z</time></trkpt><trkpt lat="44.1391783" lon="8.0612667"><ele>708.5</ele><time>2026-04-22T09:13:48.537Z</time></trkpt><trkpt lat="44.13924" lon="8.061215"><ele>704.3333333333334</ele><time>2026-04-22T09:13:49.536Z</time></trkpt><trkpt lat="44.1393017" lon="8.0611617"><ele>700.1666666666666</ele><time>2026-04-22T09:13:50.537Z</time></trkpt><trkpt lat="44.1393667" lon="8.0611183"><ele>696.0</ele><time>2026-04-22T09:13:51.536Z</time></trkpt><trkpt lat="44.1394867" lon="8.06106"><ele>696.0</ele><time>2026-04-22T09:13:53.537Z</time></trkpt><trkpt lat="44.13959" lon="8.060995"><ele>696.0</ele><time>2026-04-22T09:13:55.537Z</time></trkpt><trkpt lat="44.1396917" lon="8.0609083"><ele>696.0</ele><time>2026-04-22T09:13:57.536Z</time></trkpt><trkpt lat="44.1397533" lon="8.060865"><ele>696.0</ele><time>2026-04-22T09:13:58.537Z</time></trkpt><trkpt lat="44.1398383" lon="8.0607633"><ele>696.0</ele><time>2026-04-22T09:14:00.537Z</time></trkpt><trkpt lat="44.1398933" lon="8.0606617"><ele>696.0</ele><time>2026-04-22T09:14:02.537Z</time></trkpt><trkpt lat="44.1399033" lon="8.0605333"><ele>696.0</ele><time>2026-04-22T09:14:04.537Z</time></trkpt><trkpt lat="44.1398967" lon="8.060445"><ele>696.0</ele><time>2026-04-22T09:14:05.537Z</time></trkpt><trkpt lat="44.1398833" lon="8.0603417"><ele>696.0</ele><time>2026-04-22T09:14:06.537Z</time></trkpt><trkpt lat="44.13988" lon="8.0602317"><ele>696.0</ele><time>2026-04-22T09:14:07.537Z</time></trkpt><trkpt lat="44.1398817" lon="8.0601117"><ele>696.0</ele><time>2026-04-22T09:14:08.537Z</time></trkpt><trkpt lat="44.13988" lon="8.0600017"><ele>692.5714285714286</ele><time>2026-04-22T09:14:09.537Z</time></trkpt><trkpt lat="44.1398933" lon="8.0599067"><ele>689.1428571428571</ele><time>2026-04-22T09:14:10.537Z</time></trkpt><trkpt lat="44.139905" lon="8.0598183"><ele>685.7142857142858</ele><time>2026-04-22T09:14:11.537Z</time></trkpt><trkpt lat="44.13993" lon="8.05973"><ele>682.2857142857142</ele><time>2026-04-22T09:14:12.536Z</time></trkpt><trkpt lat="44.1399783" lon="8.0596317"><ele>678.8571428571429</ele><time>2026-04-22T09:14:14.536Z</time></trkpt><trkpt lat="44.1400117" lon="8.0595233"><ele>675.4285714285714</ele><time>2026-04-22T09:14:17.537Z</time></trkpt><trkpt lat="44.14007" lon="8.05946"><ele>672.0</ele><time>2026-04-22T09:14:21.537Z</time></trkpt><trkpt lat="44.1401417" lon="8.0594683"><ele>672.0</ele><time>2026-04-22T09:14:24.537Z</time></trkpt><trkpt lat="44.140225" lon="8.05951"><ele>672.0</ele><time>2026-04-22T09:14:27.536Z</time></trkpt><trkpt lat="44.14032" lon="8.0595067"><ele>672.0</ele><time>2026-04-22T09:14:29.536Z</time></trkpt><trkpt lat="44.1404267" lon="8.059485"><ele>672.0</ele><time>2026-04-22T09:14:31.537Z</time></trkpt><trkpt lat="44.140505" lon="8.05948"><ele>672.0</ele><time>2026-04-22T09:14:33.536Z</time></trkpt><trkpt lat="44.1405717" lon="8.059535"><ele>672.0</ele><time>2026-04-22T09:15:09.537Z</time></trkpt><trkpt lat="44.14064" lon="8.0596333"><ele>671.8333333333334</ele><time>2026-04-22T09:15:11.537Z</time></trkpt><trkpt lat="44.1407483" lon="8.059715"><ele>671.6666666666666</ele><time>2026-04-22T09:15:13.537Z</time></trkpt><trkpt lat="44.140815" lon="8.0597317"><ele>671.5</ele><time>2026-04-22T09:15:14.537Z</time></trkpt><trkpt lat="44.140885" lon="8.0597517"><ele>671.3333333333333</ele><time>2026-04-22T09:15:15.537Z</time></trkpt><trkpt lat="44.14095" lon="8.0597683"><ele>671.1666666666666</ele><time>2026-04-22T09:15:16.537Z</time></trkpt><trkpt lat="44.1410367" lon="8.0598183"><ele>671.0</ele><time>2026-04-22T09:15:18.537Z</time></trkpt><trkpt lat="44.1410783" lon="8.0599017"><ele>668.0</ele><time>2026-04-22T09:15:20.537Z</time></trkpt><trkpt lat="44.1410867" lon="8.0600017"><ele>665.0</ele><time>2026-04-22T09:15:23.536Z</time></trkpt><trkpt lat="44.1411283" lon="8.0601067"><ele>662.0</ele><time>2026-04-22T09:15:26.536Z</time></trkpt><trkpt lat="44.1411633" lon="8.0601867"><ele>659.0</ele><time>2026-04-22T09:15:28.537Z</time></trkpt><trkpt lat="44.1412033" lon="8.060285"><ele>656.0</ele><time>2026-04-22T09:15:30.537Z</time></trkpt><trkpt lat="44.1412767" lon="8.0603633"><ele>653.0</ele><time>2026-04-22T09:15:33.537Z</time></trkpt><trkpt lat="44.1413433" lon="8.06043"><ele>653.0</ele><time>2026-04-22T09:15:35.537Z</time></trkpt><trkpt lat="44.1414317" lon="8.06053"><ele>653.0</ele><time>2026-04-22T09:15:37.537Z</time></trkpt><trkpt lat="44.1415333" lon="8.0606067"><ele>653.0</ele><time>2026-04-22T09:15:39.537Z</time></trkpt><trkpt lat="44.1415983" lon="8.0606267"><ele>653.0</ele><time>2026-04-22T09:15:40.536Z</time></trkpt><trkpt lat="44.1416567" lon="8.060665"><ele>653.0</ele><time>2026-04-22T09:15:41.537Z</time></trkpt><trkpt lat="44.1417183" lon="8.0606933"><ele>653.0</ele><time>2026-04-22T09:15:42.537Z</time></trkpt><trkpt lat="44.1417833" lon="8.0607267"><ele>651.4</ele><time>2026-04-22T09:15:43.537Z</time></trkpt><trkpt lat="44.1418833" lon="8.0608217"><ele>649.8</ele><time>2026-04-22T09:15:45.537Z</time></trkpt><trkpt lat="44.1419817" lon="8.0609333"><ele>648.2</ele><time>2026-04-22T09:15:47.537Z</time></trkpt><trkpt lat="44.14204" lon="8.0610017"><ele>646.6</ele><time>2026-04-22T09:15:48.537Z</time></trkpt><trkpt lat="44.1421067" lon="8.06106"><ele>645.0</ele><time>2026-04-22T09:15:49.536Z</time></trkpt><trkpt lat="44.1421617" lon="8.0611367"><ele>645.0</ele><time>2026-04-22T09:15:50.537Z</time></trkpt><trkpt lat="44.1421983" lon="8.0612083"><ele>645.0</ele><time>2026-04-22T09:15:51.537Z</time></trkpt><trkpt lat="44.1422217" lon="8.0612917"><ele>645.0</ele><time>2026-04-22T09:15:52.537Z</time></trkpt><trkpt lat="44.1422433" lon="8.0613833"><ele>645.0</ele><time>2026-04-22T09:15:53.537Z</time></trkpt><trkpt lat="44.1422817" lon="8.06151"><ele>645.0</ele><time>2026-04-22T09:15:55.537Z</time></trkpt><trkpt lat="44.1423567" lon="8.0615817"><ele>645.0</ele><time>2026-04-22T09:15:57.537Z</time></trkpt><trkpt lat="44.1424233" lon="8.06167"><ele>646.0</ele><time>2026-04-22T09:15:59.537Z</time></trkpt><trkpt lat="44.1424683" lon="8.061795"><ele>647.0</ele><time>2026-04-22T09:16:02.537Z</time></trkpt><trkpt lat="44.14251" lon="8.0619533"><ele>648.0</ele><time>2026-04-22T09:16:04.537Z</time></trkpt><trkpt lat="44.142525" lon="8.0620433"><ele>649.0</ele><time>2026-04-22T09:16:05.537Z</time></trkpt><trkpt lat="44.1425217" lon="8.06214"><ele>650.0</ele><time>2026-04-22T09:16:06.537Z</time></trkpt><trkpt lat="44.1425233" lon="8.0622367"><ele>651.0</ele><time>2026-04-22T09:16:07.536Z</time></trkpt><trkpt lat="44.14253" lon="8.0623267"><ele>651.0</ele><time>2026-04-22T09:16:08.537Z</time></trkpt><trkpt lat="44.1426083" lon="8.062435"><ele>651.0</ele><time>2026-04-22T09:16:10.537Z</time></trkpt><trkpt lat="44.142665" lon="8.0624817"><ele>651.0</ele><time>2026-04-22T09:16:11.536Z</time></trkpt><trkpt lat="44.142725" lon="8.0625467"><ele>651.0</ele><time>2026-04-22T09:16:12.537Z</time></trkpt><trkpt lat="44.14278" lon="8.0626233"><ele>651.0</ele><time>2026-04-22T09:16:13.537Z</time></trkpt><trkpt lat="44.1428283" lon="8.062715"><ele>651.0</ele><time>2026-04-22T09:16:14.537Z</time></trkpt><trkpt lat="44.1428633" lon="8.0628133"><ele>649.2857142857143</ele><time>2026-04-22T09:16:15.537Z</time></trkpt><trkpt lat="44.142905" lon="8.062905"><ele>647.5714285714286</ele><time>2026-04-22T09:16:16.537Z</time></trkpt><trkpt lat="44.14294" lon="8.0629983"><ele>645.8571428571429</ele><time>2026-04-22T09:16:17.536Z</time></trkpt><trkpt lat="44.142975" lon="8.0630817"><ele>644.1428571428571</ele><time>2026-04-22T09:16:18.537Z</time></trkpt><trkpt lat="44.1430017" lon="8.0631683"><ele>642.4285714285714</ele><time>2026-04-22T09:16:19.537Z</time></trkpt><trkpt lat="44.14303" lon="8.063255"><ele>640.7142857142858</ele><time>2026-04-22T09:16:20.536Z</time></trkpt><trkpt lat="44.1430467" lon="8.0633583"><ele>639.0</ele><time>2026-04-22T09:16:21.537Z</time></trkpt><trkpt lat="44.1430767" lon="8.0634633"><ele>640.5714285714287</ele><time>2026-04-22T09:16:22.537Z</time></trkpt><trkpt lat="44.1431067" lon="8.06357"><ele>642.1428571428571</ele><time>2026-04-22T09:16:23.537Z</time></trkpt><trkpt lat="44.1431367" lon="8.06366"><ele>643.7142857142858</ele><time>2026-04-22T09:16:24.536Z</time></trkpt><trkpt lat="44.1431683" lon="8.0637383"><ele>645.2857142857143</ele><time>2026-04-22T09:16:25.537Z</time></trkpt><trkpt lat="44.143205" lon="8.0638133"><ele>646.8571428571429</ele><time>2026-04-22T09:16:26.537Z</time></trkpt><trkpt lat="44.1432333" lon="8.0639033"><ele>648.4285714285714</ele><time>2026-04-22T09:16:27.537Z</time></trkpt><trkpt lat="44.1432583" lon="8.0639917"><ele>650.0</ele><time>2026-04-22T09:16:28.537Z</time></trkpt><trkpt lat="44.1432817" lon="8.0640883"><ele>647.8333333333333</ele><time>2026-04-22T09:16:29.536Z</time></trkpt><trkpt lat="44.1433017" lon="8.0641833"><ele>645.6666666666666</ele><time>2026-04-22T09:16:30.537Z</time></trkpt><trkpt lat="44.1433183" lon="8.064325"><ele>643.5</ele><time>2026-04-22T09:16:32.537Z</time></trkpt><trkpt lat="44.1432583" lon="8.0643667"><ele>641.3333333333334</ele><time>2026-04-22T09:16:34.537Z</time></trkpt><trkpt lat="44.1431917" lon="8.06437"><ele>639.1666666666667</ele><time>2026-04-22T09:16:35.537Z</time></trkpt><trkpt lat="44.1431067" lon="8.0643717"><ele>637.0</ele><time>2026-04-22T09:16:36.537Z</time></trkpt><trkpt lat="44.1430317" lon="8.0643867"><ele>633.1666666666667</ele><time>2026-04-22T09:16:37.537Z</time></trkpt><trkpt lat="44.1429617" lon="8.0643917"><ele>629.3333333333334</ele><time>2026-04-22T09:16:38.537Z</time></trkpt><trkpt lat="44.1428967" lon="8.06437"><ele>625.5</ele><time>2026-04-22T09:16:39.537Z</time></trkpt><trkpt lat="44.1428033" lon="8.0643683"><ele>621.6666666666666</ele><time>2026-04-22T09:16:41.537Z</time></trkpt><trkpt lat="44.1428117" lon="8.0644633"><ele>617.8333333333333</ele><time>2026-04-22T09:16:44.536Z</time></trkpt><trkpt lat="44.1428783" lon="8.0646183"><ele>614.0</ele><time>2026-04-22T09:16:46.537Z</time></trkpt><trkpt lat="44.1429017" lon="8.064705"><ele>614.0</ele><time>2026-04-22T09:16:47.537Z</time></trkpt><trkpt lat="44.14294" lon="8.0648683"><ele>614.0</ele><time>2026-04-22T09:16:49.537Z</time></trkpt><trkpt lat="44.1429733" lon="8.06497"><ele>614.0</ele><time>2026-04-22T09:16:50.537Z</time></trkpt><trkpt lat="44.143025" lon="8.065045"><ele>614.0</ele><time>2026-04-22T09:16:51.537Z</time></trkpt><trkpt lat="44.14307" lon="8.06513"><ele>614.0</ele><time>2026-04-22T09:16:52.537Z</time></trkpt><trkpt lat="44.1431167" lon="8.0652"><ele>614.0</ele><time>2026-04-22T09:16:53.536Z</time></trkpt><trkpt lat="44.143165" lon="8.0652783"><ele>615.5714285714286</ele><time>2026-04-22T09:16:54.537Z</time></trkpt><trkpt lat="44.1432067" lon="8.0653567"><ele>617.1428571428571</ele><time>2026-04-22T09:16:55.537Z</time></trkpt><trkpt lat="44.1432483" lon="8.0654317"><ele>618.7142857142858</ele><time>2026-04-22T09:16:56.536Z</time></trkpt><trkpt lat="44.1432917" lon="8.0654983"><ele>620.2857142857142</ele><time>2026-04-22T09:16:57.537Z</time></trkpt><trkpt lat="44.1433467" lon="8.06556"><ele>621.8571428571429</ele><time>2026-04-22T09:16:58.536Z</time></trkpt><trkpt lat="44.1434033" lon="8.0656067"><ele>623.4285714285714</ele><time>2026-04-22T09:16:59.536Z</time></trkpt><trkpt lat="44.1434517" lon="8.0656767"><ele>625.0</ele><time>2026-04-22T09:17:00.537Z</time></trkpt><trkpt lat="44.1435033" lon="8.0657617"><ele>622.6666666666667</ele><time>2026-04-22T09:17:01.536Z</time></trkpt><trkpt lat="44.1435533" lon="8.0658517"><ele>620.3333333333334</ele><time>2026-04-22T09:17:02.537Z</time></trkpt><trkpt lat="44.1436133" lon="8.0659583"><ele>618.0</ele><time>2026-04-22T09:17:03.536Z</time></trkpt><trkpt lat="44.14367" lon="8.06607"><ele>615.6666666666666</ele><time>2026-04-22T09:17:04.537Z</time></trkpt><trkpt lat="44.1437183" lon="8.066175"><ele>613.3333333333333</ele><time>2026-04-22T09:17:05.537Z</time></trkpt><trkpt lat="44.1437667" lon="8.0662683"><ele>611.0</ele><time>2026-04-22T09:17:06.537Z</time></trkpt><trkpt lat="44.1438033" lon="8.0663683"><ele>611.0</ele><time>2026-04-22T09:17:07.537Z</time></trkpt><trkpt lat="44.1438317" lon="8.06646"><ele>611.0</ele><time>2026-04-22T09:17:08.537Z</time></trkpt><trkpt lat="44.1438967" lon="8.0665733"><ele>611.0</ele><time>2026-04-22T09:17:10.537Z</time></trkpt><trkpt lat="44.1439217" lon="8.0667067"><ele>611.0</ele><time>2026-04-22T09:20:05.536Z</time></trkpt><trkpt lat="44.1439367" lon="8.0668083"><ele>611.0</ele><time>2026-04-22T09:20:07.536Z</time></trkpt><trkpt lat="44.14394" lon="8.0669733"><ele>607.4</ele><time>2026-04-22T09:20:09.537Z</time></trkpt><trkpt lat="44.1439367" lon="8.0670617"><ele>603.8</ele><time>2026-04-22T09:20:10.537Z</time></trkpt><trkpt lat="44.1439083" lon="8.0672383"><ele>600.1999999999999</ele><time>2026-04-22T09:20:12.537Z</time></trkpt><trkpt lat="44.143875" lon="8.0673767"><ele>596.6</ele><time>2026-04-22T09:20:14.537Z</time></trkpt><trkpt lat="44.143855" lon="8.067515"><ele>593.0</ele><time>2026-04-22T09:20:16.537Z</time></trkpt><trkpt lat="44.14381" lon="8.06767"><ele>592.0</ele><time>2026-04-22T09:20:18.537Z</time></trkpt><trkpt lat="44.1438083" lon="8.0677633"><ele>591.0</ele><time>2026-04-22T09:20:19.537Z</time></trkpt><trkpt lat="44.1438183" lon="8.06786"><ele>590.0</ele><time>2026-04-22T09:20:20.537Z</time></trkpt><trkpt lat="44.1438267" lon="8.067955"><ele>589.0</ele><time>2026-04-22T09:20:21.537Z</time></trkpt><trkpt lat="44.1438417" lon="8.068115"><ele>588.0</ele><time>2026-04-22T09:20:23.536Z</time></trkpt><trkpt lat="44.1438383" lon="8.0682683"><ele>587.0</ele><time>2026-04-22T09:20:25.537Z</time></trkpt><trkpt lat="44.1438267" lon="8.06843"><ele>585.8333333333333</ele><time>2026-04-22T09:20:27.537Z</time></trkpt><trkpt lat="44.1438283" lon="8.068565"><ele>584.6666666666666</ele><time>2026-04-22T09:20:29.537Z</time></trkpt><trkpt lat="44.143845" lon="8.0686617"><ele>583.5</ele><time>2026-04-22T09:20:31.537Z</time></trkpt><trkpt lat="44.14382" lon="8.0687867"><ele>582.3333333333334</ele><time>2026-04-22T09:20:34.537Z</time></trkpt><trkpt lat="44.143795" lon="8.0688767"><ele>581.1666666666667</ele><time>2026-04-22T09:20:36.537Z</time></trkpt><trkpt lat="44.1437867" lon="8.0689767"><ele>580.0</ele><time>2026-04-22T09:20:38.537Z</time></trkpt><trkpt lat="44.1437717" lon="8.0690667"><ele>580.0</ele><time>2026-04-22T09:20:41.536Z</time></trkpt><trkpt lat="44.1437133" lon="8.06903"><ele>580.0</ele><time>2026-04-22T09:21:00.536Z</time></trkpt><trkpt lat="44.143685" lon="8.0689417"><ele>580.0</ele><time>2026-04-22T09:21:05.536Z</time></trkpt><trkpt lat="44.143725" lon="8.068845"><ele>580.0</ele><time>2026-04-22T09:21:08.536Z</time></trkpt><trkpt lat="44.143765" lon="8.0687683"><ele>580.0</ele><time>2026-04-22T09:21:10.537Z</time></trkpt><trkpt lat="44.1438317" lon="8.0686717"><ele>580.0</ele><time>2026-04-22T09:21:12.537Z</time></trkpt><trkpt lat="44.1438767" lon="8.0686"><ele>580.0</ele><time>2026-04-22T09:21:14.537Z</time></trkpt><trkpt lat="44.1439833" lon="8.06854"><ele>582.6</ele><time>2026-04-22T09:21:25.537Z</time></trkpt><trkpt lat="44.1440483" lon="8.068505"><ele>585.2</ele><time>2026-04-22T09:21:26.537Z</time></trkpt><trkpt lat="44.144125" lon="8.06844"><ele>587.8</ele><time>2026-04-22T09:21:27.537Z</time></trkpt><trkpt lat="44.1442" lon="8.0683417"><ele>590.4</ele><time>2026-04-22T09:21:28.537Z</time></trkpt><trkpt lat="44.144275" lon="8.0682167"><ele>593.0</ele><time>2026-04-22T09:21:29.536Z</time></trkpt><trkpt lat="44.1443483" lon="8.0680817"><ele>596.4</ele><time>2026-04-22T09:21:30.537Z</time></trkpt><trkpt lat="44.1444167" lon="8.067975"><ele>599.8</ele><time>2026-04-22T09:21:31.537Z</time></trkpt><trkpt lat="44.144475" lon="8.0678467"><ele>603.2</ele><time>2026-04-22T09:21:32.536Z</time></trkpt><trkpt lat="44.1445367" lon="8.067725"><ele>606.6</ele><time>2026-04-22T09:21:33.537Z</time></trkpt><trkpt lat="44.1446" lon="8.0676033"><ele>610.0</ele><time>2026-04-22T09:21:34.537Z</time></trkpt><trkpt lat="44.1446617" lon="8.0674883"><ele>612.0</ele><time>2026-04-22T09:21:35.537Z</time></trkpt><trkpt lat="44.1447383" lon="8.067405"><ele>614.0</ele><time>2026-04-22T09:21:36.537Z</time></trkpt><trkpt lat="44.14483" lon="8.06732"><ele>616.0</ele><time>2026-04-22T09:21:37.537Z</time></trkpt><trkpt lat="44.144925" lon="8.0672433"><ele>618.0</ele><time>2026-04-22T09:21:38.537Z</time></trkpt><trkpt lat="44.1450183" lon="8.0671683"><ele>620.0</ele><time>2026-04-22T09:21:39.536Z</time></trkpt><trkpt lat="44.145105" lon="8.067105"><ele>620.0</ele><time>2026-04-22T09:21:40.537Z</time></trkpt><trkpt lat="44.145185" lon="8.067045"><ele>620.0</ele><time>2026-04-22T09:21:41.537Z</time></trkpt><trkpt lat="44.1452583" lon="8.0669983"><ele>620.0</ele><time>2026-04-22T09:21:42.537Z</time></trkpt><trkpt lat="44.1453267" lon="8.066975"><ele>620.0</ele><time>2026-04-22T09:21:43.537Z</time></trkpt><trkpt lat="44.14539" lon="8.0669883"><ele>620.0</ele><time>2026-04-22T09:21:44.537Z</time></trkpt><trkpt lat="44.1454567" lon="8.067045"><ele>620.0</ele><time>2026-04-22T09:21:45.537Z</time></trkpt><trkpt lat="44.14553" lon="8.0671333"><ele>620.0</ele><time>2026-04-22T09:21:46.537Z</time></trkpt><trkpt lat="44.1456083" lon="8.0672583"><ele>620.0</ele><time>2026-04-22T09:21:47.537Z</time></trkpt><trkpt lat="44.145675" lon="8.0673817"><ele>620.0</ele><time>2026-04-22T09:21:48.537Z</time></trkpt><trkpt lat="44.145745" lon="8.0674717"><ele>620.0</ele><time>2026-04-22T09:21:49.537Z</time></trkpt><trkpt lat="44.1458117" lon="8.0675417"><ele>620.0</ele><time>2026-04-22T09:21:50.536Z</time></trkpt><trkpt lat="44.1458767" lon="8.0675783"><ele>616.6666666666666</ele><time>2026-04-22T09:21:51.536Z</time></trkpt><trkpt lat="44.1459417" lon="8.0675667"><ele>613.3333333333333</ele><time>2026-04-22T09:21:52.537Z</time></trkpt><trkpt lat="44.145995" lon="8.0675167"><ele>610.0</ele><time>2026-04-22T09:21:53.537Z</time></trkpt><trkpt lat="44.1460567" lon="8.067435"><ele>606.6666666666666</ele><time>2026-04-22T09:21:54.537Z</time></trkpt><trkpt lat="44.1461283" lon="8.06738"><ele>603.3333333333334</ele><time>2026-04-22T09:21:55.537Z</time></trkpt><trkpt lat="44.1462083" lon="8.0673417"><ele>600.0</ele><time>2026-04-22T09:21:56.537Z</time></trkpt><trkpt lat="44.14629" lon="8.0672933"><ele>600.0</ele><time>2026-04-22T09:21:57.537Z</time></trkpt><trkpt lat="44.1463533" lon="8.067245"><ele>600.0</ele><time>2026-04-22T09:21:58.537Z</time></trkpt><trkpt lat="44.1464233" lon="8.06713"><ele>600.0</ele><time>2026-04-22T09:22:00.537Z</time></trkpt><trkpt lat="44.1464517" lon="8.0670267"><ele>600.0</ele><time>2026-04-22T09:22:01.537Z</time></trkpt><trkpt lat="44.146475" lon="8.0669033"><ele>600.0</ele><time>2026-04-22T09:22:02.536Z</time></trkpt><trkpt lat="44.146495" lon="8.06679"><ele>600.0</ele><time>2026-04-22T09:22:03.537Z</time></trkpt><trkpt lat="44.1465033" lon="8.0666767"><ele>601.5</ele><time>2026-04-22T09:22:04.537Z</time></trkpt><trkpt lat="44.146485" lon="8.0665717"><ele>603.0</ele><time>2026-04-22T09:22:05.537Z</time></trkpt><trkpt lat="44.14644" lon="8.066465"><ele>604.5</ele><time>2026-04-22T09:22:06.536Z</time></trkpt><trkpt lat="44.1463833" lon="8.0663583"><ele>606.0</ele><time>2026-04-22T09:22:07.537Z</time></trkpt><trkpt lat="44.1463467" lon="8.06625"><ele>607.5</ele><time>2026-04-22T09:22:08.537Z</time></trkpt><trkpt lat="44.14631" lon="8.066125"><ele>609.0</ele><time>2026-04-22T09:22:09.537Z</time></trkpt><trkpt lat="44.146285" lon="8.0659833"><ele>609.0</ele><time>2026-04-22T09:22:10.537Z</time></trkpt><trkpt lat="44.1462717" lon="8.0658517"><ele>609.0</ele><time>2026-04-22T09:22:11.537Z</time></trkpt><trkpt lat="44.1462717" lon="8.06572"><ele>609.0</ele><time>2026-04-22T09:22:12.536Z</time></trkpt><trkpt lat="44.146275" lon="8.0656117"><ele>609.0</ele><time>2026-04-22T09:22:13.536Z</time></trkpt><trkpt lat="44.14634" lon="8.065465"><ele>609.0</ele><time>2026-04-22T09:22:15.537Z</time></trkpt><trkpt lat="44.1464017" lon="8.065405"><ele>609.8333333333334</ele><time>2026-04-22T09:22:16.536Z</time></trkpt><trkpt lat="44.1464417" lon="8.065335"><ele>610.6666666666666</ele><time>2026-04-22T09:22:17.537Z</time></trkpt><trkpt lat="44.1464683" lon="8.06525"><ele>611.5</ele><time>2026-04-22T09:22:18.536Z</time></trkpt><trkpt lat="44.146495" lon="8.0651367"><ele>612.3333333333333</ele><time>2026-04-22T09:22:19.536Z</time></trkpt><trkpt lat="44.1464967" lon="8.065005"><ele>613.1666666666666</ele><time>2026-04-22T09:22:20.537Z</time></trkpt><trkpt lat="44.1465017" lon="8.0648517"><ele>614.0</ele><time>2026-04-22T09:22:21.537Z</time></trkpt><trkpt lat="44.1465183" lon="8.0647133"><ele>615.5</ele><time>2026-04-22T09:22:22.536Z</time></trkpt><trkpt lat="44.1465383" lon="8.0645767"><ele>617.0</ele><time>2026-04-22T09:22:23.537Z</time></trkpt><trkpt lat="44.1465783" lon="8.0644633"><ele>618.5</ele><time>2026-04-22T09:22:24.537Z</time></trkpt><trkpt lat="44.14662" lon="8.0643617"><ele>620.0</ele><time>2026-04-22T09:22:25.537Z</time></trkpt><trkpt lat="44.1466783" lon="8.0643183"><ele>621.5</ele><time>2026-04-22T09:22:26.536Z</time></trkpt><trkpt lat="44.1467517" lon="8.0643"><ele>623.0</ele><time>2026-04-22T09:22:27.537Z</time></trkpt><trkpt lat="44.1468583" lon="8.0643017"><ele>615.0</ele><time>2026-04-22T09:22:28.537Z</time></trkpt><trkpt lat="44.14696" lon="8.06431"><ele>607.0</ele><time>2026-04-22T09:22:29.537Z</time></trkpt><trkpt lat="44.147055" lon="8.06436"><ele>599.0</ele><time>2026-04-22T09:22:30.537Z</time></trkpt><trkpt lat="44.1471383" lon="8.0644267"><ele>591.0</ele><time>2026-04-22T09:22:31.537Z</time></trkpt><trkpt lat="44.1472067" lon="8.0644817"><ele>583.0</ele><time>2026-04-22T09:22:32.537Z</time></trkpt><trkpt lat="44.1472733" lon="8.0645317"><ele>583.0</ele><time>2026-04-22T09:22:33.537Z</time></trkpt><trkpt lat="44.1473483" lon="8.0645767"><ele>583.0</ele><time>2026-04-22T09:22:34.537Z</time></trkpt><trkpt lat="44.1474233" lon="8.064635"><ele>583.0</ele><time>2026-04-22T09:22:35.537Z</time></trkpt><trkpt lat="44.147495" lon="8.0647033"><ele>583.0</ele><time>2026-04-22T09:22:36.537Z</time></trkpt><trkpt lat="44.147565" lon="8.0647833"><ele>583.0</ele><time>2026-04-22T09:22:37.536Z</time></trkpt><trkpt lat="44.1476333" lon="8.0648633"><ele>583.0</ele><time>2026-04-22T09:22:38.536Z</time></trkpt><trkpt lat="44.1476983" lon="8.06492"><ele>584.5</ele><time>2026-04-22T09:22:39.537Z</time></trkpt><trkpt lat="44.1477633" lon="8.0649633"><ele>586.0</ele><time>2026-04-22T09:22:40.537Z</time></trkpt><trkpt lat="44.147835" lon="8.0649783"><ele>587.5</ele><time>2026-04-22T09:22:41.536Z</time></trkpt><trkpt lat="44.1479083" lon="8.0649767"><ele>589.0</ele><time>2026-04-22T09:22:42.536Z</time></trkpt><trkpt lat="44.14797" lon="8.0649967"><ele>590.5</ele><time>2026-04-22T09:22:43.537Z</time></trkpt><trkpt lat="44.1480583" lon="8.065025"><ele>592.0</ele><time>2026-04-22T09:22:45.537Z</time></trkpt><trkpt lat="44.14812" lon="8.06494"><ele>592.0</ele><time>2026-04-22T09:22:47.537Z</time></trkpt><trkpt lat="44.1481483" lon="8.0648467"><ele>592.0</ele><time>2026-04-22T09:22:48.537Z</time></trkpt><trkpt lat="44.1481817" lon="8.0647417"><ele>592.0</ele><time>2026-04-22T09:22:49.537Z</time></trkpt><trkpt lat="44.14822" lon="8.0646"><ele>592.0</ele><time>2026-04-22T09:22:50.537Z</time></trkpt><trkpt lat="44.1482683" lon="8.064475"><ele>592.0</ele><time>2026-04-22T09:22:51.537Z</time></trkpt><trkpt lat="44.1483233" lon="8.0643567"><ele>589.2</ele><time>2026-04-22T09:22:52.536Z</time></trkpt><trkpt lat="44.1483867" lon="8.0642583"><ele>586.4000000000001</ele><time>2026-04-22T09:22:53.537Z</time></trkpt><trkpt lat="44.14846" lon="8.0641733"><ele>583.5999999999999</ele><time>2026-04-22T09:22:54.537Z</time></trkpt><trkpt lat="44.148535" lon="8.06412"><ele>580.8</ele><time>2026-04-22T09:22:55.536Z</time></trkpt><trkpt lat="44.148625" lon="8.0640867"><ele>578.0</ele><time>2026-04-22T09:22:56.536Z</time></trkpt><trkpt lat="44.14873" lon="8.0640733"><ele>584.0</ele><time>2026-04-22T09:22:57.537Z</time></trkpt><trkpt lat="44.1488417" lon="8.0640733"><ele>590.0</ele><time>2026-04-22T09:22:58.536Z</time></trkpt><trkpt lat="44.1489567" lon="8.0640667"><ele>596.0</ele><time>2026-04-22T09:22:59.536Z</time></trkpt><trkpt lat="44.1490683" lon="8.0640433"><ele>602.0</ele><time>2026-04-22T09:23:00.537Z</time></trkpt><trkpt lat="44.1491783" lon="8.064035"><ele>602.0</ele><time>2026-04-22T09:23:01.537Z</time></trkpt><trkpt lat="44.1492733" lon="8.06404"><ele>602.0</ele><time>2026-04-22T09:23:02.536Z</time></trkpt><trkpt lat="44.1493633" lon="8.0640567"><ele>602.0</ele><time>2026-04-22T09:23:03.537Z</time></trkpt><trkpt lat="44.1494383" lon="8.064055"><ele>602.0</ele><time>2026-04-22T09:23:04.537Z</time></trkpt><trkpt lat="44.14952" lon="8.0640383"><ele>602.0</ele><time>2026-04-22T09:23:05.537Z</time></trkpt><trkpt lat="44.14961" lon="8.064005"><ele>602.0</ele><time>2026-04-22T09:23:06.537Z</time></trkpt><trkpt lat="44.149715" lon="8.0639467"><ele>602.0</ele><time>2026-04-22T09:23:07.537Z</time></trkpt><trkpt lat="44.1498133" lon="8.063885"><ele>602.0</ele><time>2026-04-22T09:23:08.536Z</time></trkpt><trkpt lat="44.1499083" lon="8.063835"><ele>602.0</ele><time>2026-04-22T09:23:09.537Z</time></trkpt><trkpt lat="44.15" lon="8.0637967"><ele>602.0</ele><time>2026-04-22T09:23:10.537Z</time></trkpt><trkpt lat="44.1500983" lon="8.0637917"><ele>602.0</ele><time>2026-04-22T09:23:11.537Z</time></trkpt><trkpt lat="44.1501983" lon="8.0638433"><ele>597.0</ele><time>2026-04-22T09:23:12.537Z</time></trkpt><trkpt lat="44.1502883" lon="8.0639067"><ele>592.0</ele><time>2026-04-22T09:23:13.537Z</time></trkpt><trkpt lat="44.1503783" lon="8.0639783"><ele>587.0</ele><time>2026-04-22T09:23:14.537Z</time></trkpt><trkpt lat="44.150455" lon="8.0640283"><ele>582.0</ele><time>2026-04-22T09:23:15.537Z</time></trkpt><trkpt lat="44.1505317" lon="8.0640167"><ele>577.0</ele><time>2026-04-22T09:23:16.537Z</time></trkpt><trkpt lat="44.1506083" lon="8.0639733"><ele>572.0</ele><time>2026-04-22T09:23:17.537Z</time></trkpt><trkpt lat="44.1506883" lon="8.0638533"><ele>572.0</ele><time>2026-04-22T09:23:19.537Z</time></trkpt><trkpt lat="44.150685" lon="8.0637417"><ele>572.0</ele><time>2026-04-22T09:23:20.536Z</time></trkpt><trkpt lat="44.1506683" lon="8.0636017"><ele>572.0</ele><time>2026-04-22T09:23:21.537Z</time></trkpt><trkpt lat="44.1506467" lon="8.0634333"><ele>572.0</ele><time>2026-04-22T09:23:22.536Z</time></trkpt><trkpt lat="44.15062" lon="8.0632617"><ele>572.0</ele><time>2026-04-22T09:23:23.537Z</time></trkpt><trkpt lat="44.1506133" lon="8.0631067"><ele>569.2</ele><time>2026-04-22T09:23:24.537Z</time></trkpt><trkpt lat="44.1506167" lon="8.06297"><ele>566.4000000000001</ele><time>2026-04-22T09:23:25.536Z</time></trkpt><trkpt lat="44.1506317" lon="8.06284"><ele>563.5999999999999</ele><time>2026-04-22T09:23:26.537Z</time></trkpt><trkpt lat="44.1506617" lon="8.0626967"><ele>560.8</ele><time>2026-04-22T09:23:27.537Z</time></trkpt><trkpt lat="44.1507117" lon="8.06256"><ele>558.0</ele><time>2026-04-22T09:23:28.537Z</time></trkpt><trkpt lat="44.150745" lon="8.0624233"><ele>558.0</ele><time>2026-04-22T09:23:29.537Z</time></trkpt><trkpt lat="44.1507683" lon="8.0622833"><ele>558.0</ele><time>2026-04-22T09:23:30.536Z</time></trkpt><trkpt lat="44.1508067" lon="8.0621417"><ele>558.0</ele><time>2026-04-22T09:23:31.537Z</time></trkpt><trkpt lat="44.1508533" lon="8.0620233"><ele>558.0</ele><time>2026-04-22T09:23:32.537Z</time></trkpt><trkpt lat="44.1509133" lon="8.0619383"><ele>558.0</ele><time>2026-04-22T09:23:33.537Z</time></trkpt><trkpt lat="44.15099" lon="8.0618767"><ele>558.0</ele><time>2026-04-22T09:23:34.537Z</time></trkpt><trkpt lat="44.1510767" lon="8.0618167"><ele>558.0</ele><time>2026-04-22T09:23:35.537Z</time></trkpt><trkpt lat="44.1511767" lon="8.061745"><ele>558.0</ele><time>2026-04-22T09:23:36.537Z</time></trkpt><trkpt lat="44.15126" lon="8.0616767"><ele>558.0</ele><time>2026-04-22T09:23:37.537Z</time></trkpt><trkpt lat="44.1513383" lon="8.0616117"><ele>558.0</ele><time>2026-04-22T09:23:38.536Z</time></trkpt><trkpt lat="44.1514067" lon="8.061565"><ele>561.8</ele><time>2026-04-22T09:23:39.536Z</time></trkpt><trkpt lat="44.1514883" lon="8.061455"><ele>565.5999999999999</ele><time>2026-04-22T09:23:41.537Z</time></trkpt><trkpt lat="44.1515033" lon="8.0612967"><ele>569.4000000000001</ele><time>2026-04-22T09:23:43.537Z</time></trkpt><trkpt lat="44.1514817" lon="8.0612033"><ele>573.2</ele><time>2026-04-22T09:23:44.537Z</time></trkpt><trkpt lat="44.151475" lon="8.0610983"><ele>577.0</ele><time>2026-04-22T09:23:45.537Z</time></trkpt><trkpt lat="44.1514767" lon="8.0609833"><ele>577.0</ele><time>2026-04-22T09:23:46.537Z</time></trkpt><trkpt lat="44.1514883" lon="8.0608433"><ele>577.0</ele><time>2026-04-22T09:23:47.537Z</time></trkpt><trkpt lat="44.151505" lon="8.060705"><ele>577.0</ele><time>2026-04-22T09:23:48.537Z</time></trkpt><trkpt lat="44.1515217" lon="8.0605567"><ele>577.0</ele><time>2026-04-22T09:23:49.536Z</time></trkpt><trkpt lat="44.15154" lon="8.0604183"><ele>577.0</ele><time>2026-04-22T09:23:50.537Z</time></trkpt><trkpt lat="44.1515667" lon="8.060295"><ele>571.0</ele><time>2026-04-22T09:23:51.537Z</time></trkpt><trkpt lat="44.1516017" lon="8.06018"><ele>565.0</ele><time>2026-04-22T09:23:52.537Z</time></trkpt><trkpt lat="44.1516167" lon="8.0600617"><ele>559.0</ele><time>2026-04-22T09:23:53.537Z</time></trkpt><trkpt lat="44.1516283" lon="8.0599683"><ele>553.0</ele><time>2026-04-22T09:23:54.536Z</time></trkpt><trkpt lat="44.1516267" lon="8.05988"><ele>547.0</ele><time>2026-04-22T09:23:56.537Z</time></trkpt><trkpt lat="44.1516917" lon="8.05989"><ele>541.0</ele><time>2026-04-22T09:24:43.537Z</time></trkpt><trkpt lat="44.151775" lon="8.0598917"><ele>539.6</ele><time>2026-04-22T09:24:45.536Z</time></trkpt><trkpt lat="44.1518483" lon="8.0599917"><ele>538.2</ele><time>2026-04-22T09:24:47.537Z</time></trkpt><trkpt lat="44.1518867" lon="8.0601"><ele>536.8</ele><time>2026-04-22T09:24:48.537Z</time></trkpt><trkpt lat="44.1519083" lon="8.0602517"><ele>535.4</ele><time>2026-04-22T09:24:49.537Z</time></trkpt><trkpt lat="44.1519217" lon="8.0604267"><ele>534.0</ele><time>2026-04-22T09:24:50.537Z</time></trkpt><trkpt lat="44.151945" lon="8.0606133"><ele>534.2</ele><time>2026-04-22T09:24:51.536Z</time></trkpt><trkpt lat="44.15197" lon="8.0607867"><ele>534.4</ele><time>2026-04-22T09:24:52.537Z</time></trkpt><trkpt lat="44.1519867" lon="8.0609283"><ele>534.6</ele><time>2026-04-22T09:24:53.537Z</time></trkpt><trkpt lat="44.1519967" lon="8.0610517"><ele>534.8</ele><time>2026-04-22T09:24:54.537Z</time></trkpt><trkpt lat="44.1520067" lon="8.06115"><ele>535.0</ele><time>2026-04-22T09:24:55.537Z</time></trkpt><trkpt lat="44.1520333" lon="8.0612617"><ele>535.0</ele><time>2026-04-22T09:24:56.537Z</time></trkpt><trkpt lat="44.152055" lon="8.06139"><ele>535.0</ele><time>2026-04-22T09:24:57.537Z</time></trkpt><trkpt lat="44.1520633" lon="8.06154"><ele>535.0</ele><time>2026-04-22T09:24:58.537Z</time></trkpt><trkpt lat="44.1520767" lon="8.0616833"><ele>535.0</ele><time>2026-04-22T09:24:59.537Z</time></trkpt><trkpt lat="44.1520917" lon="8.0618033"><ele>535.0</ele><time>2026-04-22T09:25:00.537Z</time></trkpt><trkpt lat="44.1521033" lon="8.0619067"><ele>536.6666666666667</ele><time>2026-04-22T09:25:01.537Z</time></trkpt><trkpt lat="44.1521367" lon="8.0619917"><ele>538.3333333333334</ele><time>2026-04-22T09:25:02.537Z</time></trkpt><trkpt lat="44.1522333" lon="8.0620917"><ele>540.0</ele><time>2026-04-22T09:25:04.537Z</time></trkpt><trkpt lat="44.1522967" lon="8.06212"><ele>541.6666666666666</ele><time>2026-04-22T09:25:05.537Z</time></trkpt><trkpt lat="44.15236" lon="8.0621517"><ele>543.3333333333333</ele><time>2026-04-22T09:25:06.537Z</time></trkpt><trkpt lat="44.1524233" lon="8.062215"><ele>545.0</ele><time>2026-04-22T09:25:07.537Z</time></trkpt><trkpt lat="44.1524667" lon="8.062305"><ele>545.0</ele><time>2026-04-22T09:25:08.537Z</time></trkpt><trkpt lat="44.1525117" lon="8.0624067"><ele>545.0</ele><time>2026-04-22T09:25:09.537Z</time></trkpt><trkpt lat="44.1525567" lon="8.06249"><ele>545.0</ele><time>2026-04-22T09:25:10.537Z</time></trkpt><trkpt lat="44.1526" lon="8.0625733"><ele>545.0</ele><time>2026-04-22T09:25:11.537Z</time></trkpt><trkpt lat="44.152645" lon="8.06264"><ele>545.0</ele><time>2026-04-22T09:25:12.537Z</time></trkpt><trkpt lat="44.152695" lon="8.0626983"><ele>545.0</ele><time>2026-04-22T09:25:13.537Z</time></trkpt><trkpt lat="44.1527983" lon="8.0627483"><ele>546.25</ele><time>2026-04-22T09:25:15.536Z</time></trkpt><trkpt lat="44.1529233" lon="8.0627183"><ele>547.5</ele><time>2026-04-22T09:25:17.536Z</time></trkpt><trkpt lat="44.1530333" lon="8.062745"><ele>548.75</ele><time>2026-04-22T09:25:19.537Z</time></trkpt><trkpt lat="44.15311" lon="8.0628033"><ele>550.0</ele><time>2026-04-22T09:25:29.537Z</time></trkpt><trkpt lat="44.1532267" lon="8.0629"><ele>550.0</ele><time>2026-04-22T09:25:31.537Z</time></trkpt><trkpt lat="44.153295" lon="8.0629733"><ele>550.0</ele><time>2026-04-22T09:25:32.537Z</time></trkpt><trkpt lat="44.1533583" lon="8.0630267"><ele>550.0</ele><time>2026-04-22T09:25:33.537Z</time></trkpt><trkpt lat="44.15341" lon="8.063105"><ele>550.0</ele><time>2026-04-22T09:25:34.537Z</time></trkpt><trkpt lat="44.1534433" lon="8.0631883"><ele>550.0</ele><time>2026-04-22T09:25:35.537Z</time></trkpt><trkpt lat="44.1534617" lon="8.063275"><ele>550.0</ele><time>2026-04-22T09:25:36.537Z</time></trkpt><trkpt lat="44.1534783" lon="8.0633983"><ele>545.8</ele><time>2026-04-22T09:25:38.537Z</time></trkpt><trkpt lat="44.153405" lon="8.0635267"><ele>541.6</ele><time>2026-04-22T09:26:04.536Z</time></trkpt><trkpt lat="44.1533883" lon="8.0636317"><ele>537.4</ele><time>2026-04-22T09:26:06.537Z</time></trkpt><trkpt lat="44.153445" lon="8.0637433"><ele>533.2</ele><time>2026-04-22T09:26:08.537Z</time></trkpt><trkpt lat="44.1535183" lon="8.0638433"><ele>529.0</ele><time>2026-04-22T09:26:10.537Z</time></trkpt><trkpt lat="44.1535667" lon="8.063945"><ele>529.0</ele><time>2026-04-22T09:26:12.536Z</time></trkpt><trkpt lat="44.1536167" lon="8.0640417"><ele>529.0</ele><time>2026-04-22T09:26:15.537Z</time></trkpt><trkpt lat="44.1536933" lon="8.0640433"><ele>529.0</ele><time>2026-04-22T09:26:20.537Z</time></trkpt><trkpt lat="44.1537617" lon="8.0640067"><ele>529.0</ele><time>2026-04-22T09:26:22.536Z</time></trkpt><trkpt lat="44.1538483" lon="8.0639617"><ele>529.0</ele><time>2026-04-22T09:26:24.537Z</time></trkpt><trkpt lat="44.1539217" lon="8.0639433"><ele>529.0</ele><time>2026-04-22T09:26:26.536Z</time></trkpt><trkpt lat="44.1539917" lon="8.0639417"><ele>533.8</ele><time>2026-04-22T09:26:28.536Z</time></trkpt><trkpt lat="44.154105" lon="8.0639667"><ele>538.5999999999999</ele><time>2026-04-22T09:26:48.536Z</time></trkpt><trkpt lat="44.1541767" lon="8.063985"><ele>543.4</ele><time>2026-04-22T09:26:50.537Z</time></trkpt><trkpt lat="44.1542467" lon="8.0640417"><ele>548.1999999999999</ele><time>2026-04-22T09:26:52.537Z</time></trkpt><trkpt lat="44.1543367" lon="8.06405"><ele>553.0</ele><time>2026-04-22T09:26:54.537Z</time></trkpt><trkpt lat="44.1544483" lon="8.064045"><ele>553.0</ele><time>2026-04-22T09:26:56.537Z</time></trkpt><trkpt lat="44.1545583" lon="8.064105"><ele>553.0</ele><time>2026-04-22T09:26:58.537Z</time></trkpt><trkpt lat="44.1546317" lon="8.0641467"><ele>553.0</ele><time>2026-04-22T09:27:00.537Z</time></trkpt><trkpt lat="44.1547067" lon="8.064145"><ele>553.0</ele><time>2026-04-22T09:27:23.537Z</time></trkpt><trkpt lat="44.1547967" lon="8.06417"><ele>553.0</ele><time>2026-04-22T09:27:26.537Z</time></trkpt><trkpt lat="44.1548617" lon="8.0642183"><ele>553.0</ele><time>2026-04-22T09:27:28.537Z</time></trkpt><trkpt lat="44.1549383" lon="8.0642367"><ele>551.6</ele><time>2026-04-22T09:27:31.537Z</time></trkpt><trkpt lat="44.1550183" lon="8.0642583"><ele>550.1999999999999</ele><time>2026-04-22T09:27:33.537Z</time></trkpt><trkpt lat="44.1551267" lon="8.064305"><ele>548.8</ele><time>2026-04-22T09:27:35.537Z</time></trkpt><trkpt lat="44.1552383" lon="8.0643283"><ele>547.4</ele><time>2026-04-22T09:27:37.537Z</time></trkpt><trkpt lat="44.15535" lon="8.064335"><ele>546.0</ele><time>2026-04-22T09:27:39.537Z</time></trkpt><trkpt lat="44.155455" lon="8.064385"><ele>546.0</ele><time>2026-04-22T09:27:41.537Z</time></trkpt><trkpt lat="44.15556" lon="8.0644717"><ele>546.0</ele><time>2026-04-22T09:27:43.537Z</time></trkpt><trkpt lat="44.1556567" lon="8.0644983"><ele>546.0</ele><time>2026-04-22T09:27:45.536Z</time></trkpt><trkpt lat="44.1557617" lon="8.0644767"><ele>546.0</ele><time>2026-04-22T09:27:47.537Z</time></trkpt><trkpt lat="44.1558533" lon="8.0644533"><ele>546.0</ele><time>2026-04-22T09:27:49.537Z</time></trkpt><trkpt lat="44.155935" lon="8.0644433"><ele>547.8</ele><time>2026-04-22T09:27:51.537Z</time></trkpt><trkpt lat="44.15604" lon="8.0644433"><ele>549.6</ele><time>2026-04-22T09:27:53.537Z</time></trkpt><trkpt lat="44.1561633" lon="8.0644233"><ele>551.4</ele><time>2026-04-22T09:27:55.537Z</time></trkpt><trkpt lat="44.15624" lon="8.0643917"><ele>553.2</ele><time>2026-04-22T09:27:56.537Z</time></trkpt><trkpt lat="44.1563167" lon="8.06435"><ele>555.0</ele><time>2026-04-22T09:27:57.537Z</time></trkpt><trkpt lat="44.15638" lon="8.0643083"><ele>555.0</ele><time>2026-04-22T09:27:58.537Z</time></trkpt><trkpt lat="44.1564817" lon="8.064275"><ele>555.0</ele><time>2026-04-22T09:28:15.537Z</time></trkpt><trkpt lat="44.156575" lon="8.064245"><ele>555.0</ele><time>2026-04-22T09:28:17.537Z</time></trkpt><trkpt lat="44.15668" lon="8.0642233"><ele>555.0</ele><time>2026-04-22T09:28:19.537Z</time></trkpt><trkpt lat="44.156745" lon="8.0642133"><ele>555.0</ele><time>2026-04-22T09:28:21.537Z</time></trkpt><trkpt lat="44.1568517" lon="8.0641733"><ele>554.5</ele><time>2026-04-22T09:29:38.537Z</time></trkpt><trkpt lat="44.15694" lon="8.0641817"><ele>554.0</ele><time>2026-04-22T09:29:48.537Z</time></trkpt><trkpt lat="44.1570167" lon="8.0642533"><ele>553.5</ele><time>2026-04-22T09:29:50.537Z</time></trkpt><trkpt lat="44.15708" lon="8.0643133"><ele>553.0</ele><time>2026-04-22T09:29:52.537Z</time></trkpt><trkpt lat="44.1571633" lon="8.0643717"><ele>552.5</ele><time>2026-04-22T09:29:54.536Z</time></trkpt><trkpt lat="44.15721" lon="8.064435"><ele>552.0</ele><time>2026-04-22T09:29:56.537Z</time></trkpt><trkpt lat="44.1572483" lon="8.0645283"><ele>552.0</ele><time>2026-04-22T09:30:00.537Z</time></trkpt><trkpt lat="44.157265" lon="8.0646383"><ele>552.0</ele><time>2026-04-22T09:30:03.537Z</time></trkpt><trkpt lat="44.1572483" lon="8.0647267"><ele>552.0</ele><time>2026-04-22T09:30:05.537Z</time></trkpt><trkpt lat="44.1572217" lon="8.0648167"><ele>552.0</ele><time>2026-04-22T09:30:07.536Z</time></trkpt><trkpt lat="44.157275" lon="8.0648683"><ele>552.0</ele><time>2026-04-22T09:33:49.535Z</time></trkpt><trkpt lat="44.1572633" lon="8.0647417"><ele>552.0</ele><time>2026-04-22T09:33:50.536Z</time></trkpt><trkpt lat="44.1573333" lon="8.0647317"><ele>552.0</ele><time>2026-04-22T09:34:04.536Z</time></trkpt><trkpt lat="44.1573633" lon="8.06482"><ele>551.0</ele><time>2026-04-22T09:36:20.535Z</time></trkpt><trkpt lat="44.1574383" lon="8.06479"><ele>550.0</ele><time>2026-04-22T09:36:22.536Z</time></trkpt><trkpt lat="44.157515" lon="8.0647933"><ele>549.0</ele><time>2026-04-22T09:36:24.535Z</time></trkpt><trkpt lat="44.157595" lon="8.0648167"><ele>548.0</ele><time>2026-04-22T09:36:26.536Z</time></trkpt><trkpt lat="44.1576683" lon="8.0648567"><ele>547.0</ele><time>2026-04-22T09:36:28.536Z</time></trkpt><trkpt lat="44.1576933" lon="8.06494"><ele>546.0</ele><time>2026-04-22T09:36:30.535Z</time></trkpt><trkpt lat="44.1576767" lon="8.065025"><ele>545.0</ele><time>2026-04-22T09:36:33.536Z</time></trkpt><trkpt lat="44.157735" lon="8.06509"><ele>545.0</ele><time>2026-04-22T09:36:37.536Z</time></trkpt><trkpt lat="44.15782" lon="8.0650433"><ele>545.0</ele><time>2026-04-22T09:36:41.536Z</time></trkpt><trkpt lat="44.1578933" lon="8.0649733"><ele>545.0</ele><time>2026-04-22T09:36:44.536Z</time></trkpt><trkpt lat="44.1579817" lon="8.0649217"><ele>545.0</ele><time>2026-04-22T09:36:47.536Z</time></trkpt><trkpt lat="44.15806" lon="8.06493"><ele>545.0</ele><time>2026-04-22T09:36:49.536Z</time></trkpt><trkpt lat="44.1581233" lon="8.0649367"><ele>545.0</ele><time>2026-04-22T09:36:51.536Z</time></trkpt><trkpt lat="44.1581967" lon="8.0649633"><ele>545.3333333333333</ele><time>2026-04-22T09:36:53.536Z</time></trkpt><trkpt lat="44.1582833" lon="8.0649717"><ele>545.6666666666666</ele><time>2026-04-22T09:36:56.536Z</time></trkpt><trkpt lat="44.1583583" lon="8.0648717"><ele>546.0</ele><time>2026-04-22T09:36:59.535Z</time></trkpt><trkpt lat="44.1584117" lon="8.064795"><ele>546.3333333333334</ele><time>2026-04-22T09:37:01.536Z</time></trkpt><trkpt lat="44.1584833" lon="8.06473"><ele>546.6666666666667</ele><time>2026-04-22T09:37:04.536Z</time></trkpt><trkpt lat="44.15856" lon="8.0646767"><ele>547.0</ele><time>2026-04-22T09:37:07.536Z</time></trkpt><trkpt lat="44.1586317" lon="8.0646267"><ele>547.0</ele><time>2026-04-22T09:37:09.536Z</time></trkpt><trkpt lat="44.1587067" lon="8.0645817"><ele>547.0</ele><time>2026-04-22T09:37:11.536Z</time></trkpt><trkpt lat="44.1587917" lon="8.0645117"><ele>547.0</ele><time>2026-04-22T09:37:13.536Z</time></trkpt><trkpt lat="44.1588617" lon="8.06445"><ele>547.0</ele><time>2026-04-22T09:37:15.536Z</time></trkpt><trkpt lat="44.1589133" lon="8.0643933"><ele>547.0</ele><time>2026-04-22T09:37:17.536Z</time></trkpt><trkpt lat="44.1589617" lon="8.06433"><ele>547.0</ele><time>2026-04-22T09:37:19.536Z</time></trkpt><trkpt lat="44.1590117" lon="8.06422"><ele>549.5</ele><time>2026-04-22T09:37:21.535Z</time></trkpt><trkpt lat="44.1590783" lon="8.06414"><ele>552.0</ele><time>2026-04-22T09:37:24.535Z</time></trkpt><trkpt lat="44.1591533" lon="8.0641067"><ele>554.5</ele><time>2026-04-22T09:37:26.536Z</time></trkpt><trkpt lat="44.1592467" lon="8.0640667"><ele>557.0</ele><time>2026-04-22T09:37:29.536Z</time></trkpt><trkpt lat="44.159325" lon="8.064025"><ele>559.5</ele><time>2026-04-22T09:37:31.536Z</time></trkpt><trkpt lat="44.1594" lon="8.0639917"><ele>562.0</ele><time>2026-04-22T09:37:33.535Z</time></trkpt><trkpt lat="44.1594817" lon="8.0639483"><ele>562.0</ele><time>2026-04-22T09:37:35.536Z</time></trkpt><trkpt lat="44.1595667" lon="8.0639017"><ele>562.0</ele><time>2026-04-22T09:37:37.536Z</time></trkpt><trkpt lat="44.15966" lon="8.063875"><ele>562.0</ele><time>2026-04-22T09:37:39.536Z</time></trkpt><trkpt lat="44.1597483" lon="8.0638567"><ele>562.0</ele><time>2026-04-22T09:37:41.536Z</time></trkpt><trkpt lat="44.15982" lon="8.06384"><ele>562.0</ele><time>2026-04-22T09:37:43.536Z</time></trkpt><trkpt lat="44.1598833" lon="8.0638367"><ele>562.0</ele><time>2026-04-22T09:37:45.536Z</time></trkpt><trkpt lat="44.1599483" lon="8.0638183"><ele>563.1666666666667</ele><time>2026-04-22T09:37:47.536Z</time></trkpt><trkpt lat="44.16003" lon="8.063825"><ele>564.3333333333334</ele><time>2026-04-22T09:37:50.536Z</time></trkpt><trkpt lat="44.160105" lon="8.0637967"><ele>565.5</ele><time>2026-04-22T09:37:54.535Z</time></trkpt><trkpt lat="44.16018" lon="8.06377"><ele>566.6666666666666</ele><time>2026-04-22T09:37:57.536Z</time></trkpt><trkpt lat="44.1602533" lon="8.0637283"><ele>567.8333333333333</ele><time>2026-04-22T09:38:01.536Z</time></trkpt><trkpt lat="44.160335" lon="8.063725"><ele>569.0</ele><time>2026-04-22T09:38:09.536Z</time></trkpt><trkpt lat="44.1604033" lon="8.06375"><ele>569.0</ele><time>2026-04-22T09:38:12.536Z</time></trkpt><trkpt lat="44.1604933" lon="8.0637717"><ele>569.0</ele><time>2026-04-22T09:38:15.536Z</time></trkpt><trkpt lat="44.1605717" lon="8.0638233"><ele>569.0</ele><time>2026-04-22T09:38:18.536Z</time></trkpt><trkpt lat="44.1606383" lon="8.063905"><ele>569.0</ele><time>2026-04-22T09:38:21.536Z</time></trkpt><trkpt lat="44.1606683" lon="8.0639967"><ele>569.0</ele><time>2026-04-22T09:38:25.536Z</time></trkpt><trkpt lat="44.16073" lon="8.064085"><ele>569.0</ele><time>2026-04-22T09:38:27.536Z</time></trkpt><trkpt lat="44.160765" lon="8.0641633"><ele>574.6</ele><time>2026-04-22T09:38:28.536Z</time></trkpt><trkpt lat="44.1608117" lon="8.0642367"><ele>580.2</ele><time>2026-04-22T09:38:29.536Z</time></trkpt><trkpt lat="44.160875" lon="8.0643083"><ele>585.8000000000001</ele><time>2026-04-22T09:38:30.535Z</time></trkpt><trkpt lat="44.1609267" lon="8.064375"><ele>591.4</ele><time>2026-04-22T09:38:31.536Z</time></trkpt><trkpt lat="44.1610317" lon="8.0644517"><ele>597.0</ele><time>2026-04-22T09:38:33.536Z</time></trkpt><trkpt lat="44.1611633" lon="8.0644417"><ele>597.0</ele><time>2026-04-22T09:38:35.536Z</time></trkpt><trkpt lat="44.1612283" lon="8.064405"><ele>597.0</ele><time>2026-04-22T09:38:36.536Z</time></trkpt><trkpt lat="44.1613183" lon="8.0643333"><ele>597.0</ele><time>2026-04-22T09:38:38.536Z</time></trkpt><trkpt lat="44.1613967" lon="8.0642983"><ele>597.0</ele><time>2026-04-22T09:38:41.536Z</time></trkpt><trkpt lat="44.16144" lon="8.0642267"><ele>597.0</ele><time>2026-04-22T09:38:47.536Z</time></trkpt><trkpt lat="44.16146" lon="8.0641267"><ele>597.0</ele><time>2026-04-22T09:38:51.536Z</time></trkpt><trkpt lat="44.1614933" lon="8.0640317"><ele>594.6666666666666</ele><time>2026-04-22T09:38:55.536Z</time></trkpt><trkpt lat="44.16155" lon="8.0639583"><ele>592.3333333333334</ele><time>2026-04-22T09:39:11.536Z</time></trkpt><trkpt lat="44.1615983" lon="8.0638967"><ele>590.0</ele><time>2026-04-22T09:39:13.535Z</time></trkpt><trkpt lat="44.1616717" lon="8.0638517"><ele>587.6666666666667</ele><time>2026-04-22T09:39:17.536Z</time></trkpt><trkpt lat="44.1617867" lon="8.063865"><ele>585.3333333333334</ele><time>2026-04-22T09:39:20.535Z</time></trkpt><trkpt lat="44.1618867" lon="8.063855"><ele>583.0</ele><time>2026-04-22T09:39:22.536Z</time></trkpt><trkpt lat="44.1619917" lon="8.0638067"><ele>583.0</ele><time>2026-04-22T09:39:25.536Z</time></trkpt><trkpt lat="44.1620717" lon="8.0637933"><ele>583.0</ele><time>2026-04-22T09:39:27.535Z</time></trkpt><trkpt lat="44.162135" lon="8.0637883"><ele>583.0</ele><time>2026-04-22T09:39:29.535Z</time></trkpt><trkpt lat="44.1622183" lon="8.063765"><ele>583.0</ele><time>2026-04-22T09:39:31.536Z</time></trkpt><trkpt lat="44.162315" lon="8.063725"><ele>583.0</ele><time>2026-04-22T09:39:33.535Z</time></trkpt><trkpt lat="44.16239" lon="8.06367"><ele>583.0</ele><time>2026-04-22T09:39:35.536Z</time></trkpt><trkpt lat="44.1625117" lon="8.0636667"><ele>586.0</ele><time>2026-04-22T09:39:59.536Z</time></trkpt><trkpt lat="44.1625617" lon="8.0637533"><ele>589.0</ele><time>2026-04-22T09:40:02.536Z</time></trkpt><trkpt lat="44.1625983" lon="8.0638683"><ele>592.0</ele><time>2026-04-22T09:40:05.536Z</time></trkpt><trkpt lat="44.1626817" lon="8.0639283"><ele>595.0</ele><time>2026-04-22T09:40:07.535Z</time></trkpt><trkpt lat="44.1627633" lon="8.0639383"><ele>598.0</ele><time>2026-04-22T09:40:08.536Z</time></trkpt><trkpt lat="44.1628633" lon="8.0639517"><ele>601.0</ele><time>2026-04-22T09:40:09.535Z</time></trkpt><trkpt lat="44.1629633" lon="8.0639733"><ele>601.0</ele><time>2026-04-22T09:40:10.536Z</time></trkpt><trkpt lat="44.163055" lon="8.0639883"><ele>601.0</ele><time>2026-04-22T09:40:11.536Z</time></trkpt><trkpt lat="44.1631283" lon="8.063995"><ele>601.0</ele><time>2026-04-22T09:40:12.536Z</time></trkpt><trkpt lat="44.163285" lon="8.064"><ele>601.0</ele><time>2026-04-22T09:40:14.536Z</time></trkpt><trkpt lat="44.163375" lon="8.0639867"><ele>601.0</ele><time>2026-04-22T09:40:15.536Z</time></trkpt><trkpt lat="44.1634583" lon="8.06398"><ele>601.0</ele><time>2026-04-22T09:40:16.536Z</time></trkpt><trkpt lat="44.16354" lon="8.0639583"><ele>601.0</ele><time>2026-04-22T09:40:17.536Z</time></trkpt><trkpt lat="44.1636083" lon="8.0639333"><ele>601.0</ele><time>2026-04-22T09:40:18.536Z</time></trkpt><trkpt lat="44.1637033" lon="8.063865"><ele>601.0</ele><time>2026-04-22T09:40:20.536Z</time></trkpt><trkpt lat="44.1637617" lon="8.0638233"><ele>601.0</ele><time>2026-04-22T09:40:24.536Z</time></trkpt><trkpt lat="44.1638083" lon="8.0637117"><ele>601.0</ele><time>2026-04-22T09:43:14.535Z</time></trkpt><trkpt lat="44.1638883" lon="8.0636833"><ele>601.0</ele><time>2026-04-22T09:46:01.535Z</time></trkpt><trkpt lat="44.163955" lon="8.0635883"><ele>601.0</ele><time>2026-04-22T09:46:04.535Z</time></trkpt><trkpt lat="44.16402" lon="8.0635183"><ele>601.0</ele><time>2026-04-22T09:46:06.535Z</time></trkpt><trkpt lat="44.1641" lon="8.0634533"><ele>601.0</ele><time>2026-04-22T09:46:08.535Z</time></trkpt><trkpt lat="44.1641683" lon="8.0634033"><ele>601.0</ele><time>2026-04-22T09:46:10.534Z</time></trkpt><trkpt lat="44.16425" lon="8.0633583"><ele>601.0</ele><time>2026-04-22T09:46:12.535Z</time></trkpt><trkpt lat="44.1643267" lon="8.0633233"><ele>599.4</ele><time>2026-04-22T09:46:14.535Z</time></trkpt><trkpt lat="44.1644167" lon="8.0632917"><ele>597.8</ele><time>2026-04-22T09:46:16.535Z</time></trkpt><trkpt lat="44.164505" lon="8.0632783"><ele>596.1999999999999</ele><time>2026-04-22T09:46:18.535Z</time></trkpt><trkpt lat="44.16459" lon="8.06329"><ele>594.6</ele><time>2026-04-22T09:46:20.535Z</time></trkpt><trkpt lat="44.164675" lon="8.063295"><ele>593.0</ele><time>2026-04-22T09:46:22.535Z</time></trkpt><trkpt lat="44.1647717" lon="8.0633217"><ele>598.1666666666666</ele><time>2026-04-22T09:46:24.535Z</time></trkpt><trkpt lat="44.1648733" lon="8.0633483"><ele>603.3333333333333</ele><time>2026-04-22T09:46:26.534Z</time></trkpt><trkpt lat="44.1649533" lon="8.0633467"><ele>608.5</ele><time>2026-04-22T09:46:28.535Z</time></trkpt><trkpt lat="44.1650283" lon="8.0633083"><ele>613.6666666666666</ele><time>2026-04-22T09:46:30.534Z</time></trkpt><trkpt lat="44.1651017" lon="8.0633017"><ele>618.8333333333334</ele><time>2026-04-22T09:46:32.534Z</time></trkpt><trkpt lat="44.1651833" lon="8.06329"><ele>624.0</ele><time>2026-04-22T09:46:35.535Z</time></trkpt><trkpt lat="44.16528" lon="8.0633067"><ele>624.0</ele><time>2026-04-22T09:46:38.534Z</time></trkpt><trkpt lat="44.1653467" lon="8.06335"><ele>624.0</ele><time>2026-04-22T09:46:41.535Z</time></trkpt><trkpt lat="44.1653933" lon="8.0634367"><ele>624.0</ele><time>2026-04-22T09:46:44.534Z</time></trkpt><trkpt lat="44.1654433" lon="8.0634983"><ele>624.0</ele><time>2026-04-22T09:46:47.535Z</time></trkpt><trkpt lat="44.16551" lon="8.06345"><ele>624.0</ele><time>2026-04-22T09:46:50.535Z</time></trkpt><trkpt lat="44.1655983" lon="8.0632917"><ele>624.0</ele><time>2026-04-22T09:47:01.535Z</time></trkpt><trkpt lat="44.1656583" lon="8.06323"><ele>622.0</ele><time>2026-04-22T09:47:04.535Z</time></trkpt><trkpt lat="44.1657333" lon="8.06318"><ele>620.0</ele><time>2026-04-22T09:47:06.534Z</time></trkpt><trkpt lat="44.1658233" lon="8.0631233"><ele>618.0</ele><time>2026-04-22T09:47:08.535Z</time></trkpt><trkpt lat="44.1658883" lon="8.0630783"><ele>616.0</ele><time>2026-04-22T09:47:10.535Z</time></trkpt><trkpt lat="44.16594" lon="8.0629767"><ele>614.0</ele><time>2026-04-22T09:47:13.535Z</time></trkpt><trkpt lat="44.1660417" lon="8.0627367"><ele>614.0</ele><time>2026-04-22T09:47:41.535Z</time></trkpt><trkpt lat="44.1660667" lon="8.062615"><ele>614.0</ele><time>2026-04-22T09:47:43.535Z</time></trkpt><trkpt lat="44.1661167" lon="8.0624683"><ele>614.0</ele><time>2026-04-22T09:47:48.535Z</time></trkpt><trkpt lat="44.1661617" lon="8.0623533"><ele>614.0</ele><time>2026-04-22T09:47:51.535Z</time></trkpt><trkpt lat="44.1662067" lon="8.062275"><ele>614.0</ele><time>2026-04-22T09:47:53.534Z</time></trkpt><trkpt lat="44.16626" lon="8.062215"><ele>614.0</ele><time>2026-04-22T09:47:55.535Z</time></trkpt><trkpt lat="44.1663267" lon="8.0621667"><ele>612.3333333333333</ele><time>2026-04-22T09:47:57.535Z</time></trkpt><trkpt lat="44.16639" lon="8.0621"><ele>610.6666666666666</ele><time>2026-04-22T09:47:59.535Z</time></trkpt><trkpt lat="44.16645" lon="8.0620283"><ele>609.0</ele><time>2026-04-22T09:48:01.535Z</time></trkpt><trkpt lat="44.1665183" lon="8.0619817"><ele>607.3333333333334</ele><time>2026-04-22T09:48:03.535Z</time></trkpt><trkpt lat="44.1665833" lon="8.06195"><ele>605.6666666666667</ele><time>2026-04-22T09:48:06.534Z</time></trkpt><trkpt lat="44.1666767" lon="8.0619183"><ele>604.0</ele><time>2026-04-22T09:48:24.535Z</time></trkpt><trkpt lat="44.166755" lon="8.0619367"><ele>604.0</ele><time>2026-04-22T09:48:27.535Z</time></trkpt><trkpt lat="44.16686" lon="8.0619883"><ele>604.0</ele><time>2026-04-22T09:48:29.535Z</time></trkpt><trkpt lat="44.166945" lon="8.0620783"><ele>604.0</ele><time>2026-04-22T09:48:31.534Z</time></trkpt><trkpt lat="44.167" lon="8.0621667"><ele>604.0</ele><time>2026-04-22T09:48:33.535Z</time></trkpt><trkpt lat="44.1670567" lon="8.0622467"><ele>604.0</ele><time>2026-04-22T09:48:36.535Z</time></trkpt><trkpt lat="44.16713" lon="8.062305"><ele>604.0</ele><time>2026-04-22T09:48:40.535Z</time></trkpt><trkpt lat="44.1672033" lon="8.0623217"><ele>604.0</ele><time>2026-04-22T09:48:42.534Z</time></trkpt><trkpt lat="44.1672683" lon="8.06231"><ele>604.0</ele><time>2026-04-22T09:48:44.535Z</time></trkpt><trkpt lat="44.1674067" lon="8.0621867"><ele>604.0</ele><time>2026-04-22T09:48:58.534Z</time></trkpt><trkpt lat="44.1674567" lon="8.0621117"><ele>604.0</ele><time>2026-04-22T09:49:01.535Z</time></trkpt><trkpt lat="44.167475" lon="8.0619183"><ele>605.5</ele><time>2026-04-22T09:49:30.535Z</time></trkpt><trkpt lat="44.1675383" lon="8.0618717"><ele>607.0</ele><time>2026-04-22T09:49:34.534Z</time></trkpt><trkpt lat="44.1675917" lon="8.0618017"><ele>608.5</ele><time>2026-04-22T09:49:37.535Z</time></trkpt><trkpt lat="44.1676633" lon="8.06174"><ele>610.0</ele><time>2026-04-22T09:49:41.535Z</time></trkpt><trkpt lat="44.1677283" lon="8.0617283"><ele>611.5</ele><time>2026-04-22T09:49:44.535Z</time></trkpt><trkpt lat="44.1677983" lon="8.061695"><ele>613.0</ele><time>2026-04-22T09:49:47.534Z</time></trkpt><trkpt lat="44.16797" lon="8.06164"><ele>613.0</ele><time>2026-04-22T09:50:10.535Z</time></trkpt><trkpt lat="44.1681417" lon="8.0616917"><ele>613.0</ele><time>2026-04-22T09:50:28.534Z</time></trkpt><trkpt lat="44.168235" lon="8.061665"><ele>613.0</ele><time>2026-04-22T09:50:31.535Z</time></trkpt><trkpt lat="44.1682967" lon="8.0616467"><ele>613.0</ele><time>2026-04-22T09:50:33.535Z</time></trkpt><trkpt lat="44.1683783" lon="8.061605"><ele>613.0</ele><time>2026-04-22T09:50:36.535Z</time></trkpt><trkpt lat="44.1685167" lon="8.06152"><ele>617.6666666666667</ele><time>2026-04-22T09:50:48.535Z</time></trkpt><trkpt lat="44.1685883" lon="8.0614283"><ele>622.3333333333334</ele><time>2026-04-22T09:51:16.533Z</time></trkpt><trkpt lat="44.1686667" lon="8.06137"><ele>627.0</ele><time>2026-04-22T09:51:23.534Z</time></trkpt><trkpt lat="44.168725" lon="8.06131"><ele>631.6666666666666</ele><time>2026-04-22T09:51:28.534Z</time></trkpt><trkpt lat="44.1688117" lon="8.0612067"><ele>636.3333333333333</ele><time>2026-04-22T09:51:43.534Z</time></trkpt><trkpt lat="44.16888" lon="8.06118"><ele>641.0</ele><time>2026-04-22T09:51:47.534Z</time></trkpt><trkpt lat="44.1689617" lon="8.0611633"><ele>646.5999999999999</ele><time>2026-04-22T09:51:51.534Z</time></trkpt><trkpt lat="44.1690367" lon="8.061135"><ele>652.2</ele><time>2026-04-22T09:51:55.534Z</time></trkpt><trkpt lat="44.1691133" lon="8.0610917"><ele>657.8</ele><time>2026-04-22T09:51:58.534Z</time></trkpt><trkpt lat="44.16921" lon="8.0609783"><ele>663.4000000000001</ele><time>2026-04-22T09:52:25.533Z</time></trkpt><trkpt lat="44.16923" lon="8.0608667"><ele>669.0</ele><time>2026-04-22T09:53:16.534Z</time></trkpt><trkpt lat="44.1693133" lon="8.06087"><ele>669.0</ele><time>2026-04-22T09:53:20.533Z</time></trkpt><trkpt lat="44.1693767" lon="8.0608967"><ele>669.0</ele><time>2026-04-22T09:53:22.534Z</time></trkpt><trkpt lat="44.1694583" lon="8.060965"><ele>669.0</ele><time>2026-04-22T09:53:31.534Z</time></trkpt><trkpt lat="44.16953" lon="8.0609283"><ele>669.0</ele><time>2026-04-22T09:53:34.534Z</time></trkpt><trkpt lat="44.1695617" lon="8.0608517"><ele>669.0</ele><time>2026-04-22T09:53:37.534Z</time></trkpt><trkpt lat="44.1696167" lon="8.0607667"><ele>669.0</ele><time>2026-04-22T09:53:40.534Z</time></trkpt><trkpt lat="44.1697567" lon="8.0607267"><ele>670.8333333333334</ele><time>2026-04-22T09:53:54.534Z</time></trkpt><trkpt lat="44.1698283" lon="8.0607267"><ele>672.6666666666666</ele><time>2026-04-22T09:53:57.534Z</time></trkpt><trkpt lat="44.1698767" lon="8.0606417"><ele>674.5</ele><time>2026-04-22T09:54:02.534Z</time></trkpt><trkpt lat="44.169935" lon="8.0605633"><ele>676.3333333333333</ele><time>2026-04-22T09:54:05.534Z</time></trkpt><trkpt lat="44.17" lon="8.06051"><ele>678.1666666666666</ele><time>2026-04-22T09:54:09.534Z</time></trkpt><trkpt lat="44.1700167" lon="8.0604"><ele>680.0</ele><time>2026-04-22T09:54:13.534Z</time></trkpt><trkpt lat="44.1700067" lon="8.060275"><ele>682.4285714285714</ele><time>2026-04-22T09:54:16.533Z</time></trkpt><trkpt lat="44.170055" lon="8.0601767"><ele>684.8571428571428</ele><time>2026-04-22T09:54:19.534Z</time></trkpt><trkpt lat="44.1701133" lon="8.060135"><ele>687.2857142857142</ele><time>2026-04-22T09:54:21.534Z</time></trkpt><trkpt lat="44.1701783" lon="8.060105"><ele>689.7142857142858</ele><time>2026-04-22T09:54:23.534Z</time></trkpt><trkpt lat="44.1702317" lon="8.0601633"><ele>692.1428571428571</ele><time>2026-04-22T09:54:26.533Z</time></trkpt><trkpt lat="44.1702733" lon="8.0602567"><ele>694.5714285714286</ele><time>2026-04-22T09:54:29.534Z</time></trkpt><trkpt lat="44.17033" lon="8.0603067"><ele>697.0</ele><time>2026-04-22T09:54:32.534Z</time></trkpt><trkpt lat="44.1703983" lon="8.0603333"><ele>697.0</ele><time>2026-04-22T09:54:34.534Z</time></trkpt><trkpt lat="44.1704983" lon="8.06037"><ele>697.0</ele><time>2026-04-22T09:54:36.534Z</time></trkpt><trkpt lat="44.170565" lon="8.060415"><ele>697.0</ele><time>2026-04-22T09:54:38.534Z</time></trkpt><trkpt lat="44.170625" lon="8.0604617"><ele>697.0</ele><time>2026-04-22T09:54:41.534Z</time></trkpt><trkpt lat="44.1707217" lon="8.06047"><ele>697.0</ele><time>2026-04-22T09:54:47.534Z</time></trkpt><trkpt lat="44.1708" lon="8.0605217"><ele>697.0</ele><time>2026-04-22T09:54:49.534Z</time></trkpt><trkpt lat="44.1709117" lon="8.0605017"><ele>700.8333333333334</ele><time>2026-04-22T09:55:32.534Z</time></trkpt><trkpt lat="44.17092" lon="8.0604017"><ele>704.6666666666667</ele><time>2026-04-22T09:55:36.534Z</time></trkpt><trkpt lat="44.1709183" lon="8.0602983"><ele>708.5</ele><time>2026-04-22T09:55:39.534Z</time></trkpt><trkpt lat="44.1709783" lon="8.0601767"><ele>712.3333333333334</ele><time>2026-04-22T09:56:02.534Z</time></trkpt><trkpt lat="44.17102" lon="8.060085"><ele>716.1666666666666</ele><time>2026-04-22T09:56:04.534Z</time></trkpt><trkpt lat="44.1710567" lon="8.0599633"><ele>720.0</ele><time>2026-04-22T09:56:07.534Z</time></trkpt><trkpt lat="44.1711017" lon="8.0598717"><ele>720.0</ele><time>2026-04-22T09:56:09.533Z</time></trkpt><trkpt lat="44.1711217" lon="8.05976"><ele>720.0</ele><time>2026-04-22T09:56:11.534Z</time></trkpt><trkpt lat="44.171135" lon="8.0596567"><ele>720.0</ele><time>2026-04-22T09:56:13.534Z</time></trkpt><trkpt lat="44.17114" lon="8.059555"><ele>720.0</ele><time>2026-04-22T09:56:15.534Z</time></trkpt><trkpt lat="44.1711817" lon="8.0594233"><ele>720.0</ele><time>2026-04-22T09:56:18.534Z</time></trkpt><trkpt lat="44.1712283" lon="8.059345"><ele>720.0</ele><time>2026-04-22T09:56:20.534Z</time></trkpt><trkpt lat="44.17122" lon="8.0594333"><ele>720.0</ele><time>2026-04-22T09:57:00.534Z</time></trkpt><trkpt lat="44.1712467" lon="8.0595267"><ele>720.0</ele><time>2026-04-22T09:57:28.533Z</time></trkpt><trkpt lat="44.1712933" lon="8.0595967"><ele>720.0</ele><time>2026-04-22T09:57:30.534Z</time></trkpt><trkpt lat="44.1713233" lon="8.0596767"><ele>720.0</ele><time>2026-04-22T09:57:32.533Z</time></trkpt><trkpt lat="44.17134" lon="8.05977"><ele>720.0</ele><time>2026-04-22T09:57:34.534Z</time></trkpt><trkpt lat="44.1713467" lon="8.0598717"><ele>720.0</ele><time>2026-04-22T09:57:36.534Z</time></trkpt><trkpt lat="44.17136" lon="8.059995"><ele>720.0</ele><time>2026-04-22T09:57:39.534Z</time></trkpt><trkpt lat="44.17135" lon="8.06013"><ele>720.2857142857142</ele><time>2026-04-22T09:57:42.534Z</time></trkpt><trkpt lat="44.1713283" lon="8.06024"><ele>720.5714285714287</ele><time>2026-04-22T09:57:44.534Z</time></trkpt><trkpt lat="44.1713067" lon="8.06035"><ele>720.8571428571429</ele><time>2026-04-22T09:57:46.534Z</time></trkpt><trkpt lat="44.1713383" lon="8.0604317"><ele>721.1428571428571</ele><time>2026-04-22T09:57:49.534Z</time></trkpt><trkpt lat="44.171405" lon="8.06045"><ele>721.4285714285713</ele><time>2026-04-22T09:57:52.534Z</time></trkpt><trkpt lat="44.1714617" lon="8.0603867"><ele>721.7142857142858</ele><time>2026-04-22T09:57:55.534Z</time></trkpt><trkpt lat="44.17151" lon="8.0603267"><ele>722.0</ele><time>2026-04-22T09:58:05.533Z</time></trkpt><trkpt lat="44.17159" lon="8.0602567"><ele>727.0</ele><time>2026-04-22T09:58:07.534Z</time></trkpt><trkpt lat="44.1716783" lon="8.0602167"><ele>732.0</ele><time>2026-04-22T09:58:09.533Z</time></trkpt><trkpt lat="44.1717667" lon="8.06014"><ele>737.0</ele><time>2026-04-22T09:58:11.534Z</time></trkpt><trkpt lat="44.1717967" lon="8.0600133"><ele>742.0</ele><time>2026-04-22T09:58:13.534Z</time></trkpt><trkpt lat="44.1718017" lon="8.0598917"><ele>747.0</ele><time>2026-04-22T09:58:15.534Z</time></trkpt><trkpt lat="44.171835" lon="8.05978"><ele>747.3333333333334</ele><time>2026-04-22T09:58:17.534Z</time></trkpt><trkpt lat="44.1719" lon="8.0596917"><ele>747.6666666666666</ele><time>2026-04-22T09:58:19.533Z</time></trkpt><trkpt lat="44.17196" lon="8.059585"><ele>748.0</ele><time>2026-04-22T09:58:21.534Z</time></trkpt><trkpt lat="44.1719817" lon="8.05948"><ele>748.3333333333333</ele><time>2026-04-22T09:58:23.533Z</time></trkpt><trkpt lat="44.17202" lon="8.0593717"><ele>748.6666666666666</ele><time>2026-04-22T09:58:25.533Z</time></trkpt><trkpt lat="44.17207" lon="8.0592783"><ele>749.0</ele><time>2026-04-22T09:58:27.533Z</time></trkpt><trkpt lat="44.1721083" lon="8.059205"><ele>751.4000000000001</ele><time>2026-04-22T09:58:28.534Z</time></trkpt><trkpt lat="44.172145" lon="8.05908"><ele>753.8</ele><time>2026-04-22T09:58:30.533Z</time></trkpt><trkpt lat="44.1721583" lon="8.05894"><ele>756.2</ele><time>2026-04-22T09:58:32.534Z</time></trkpt><trkpt lat="44.1721517" lon="8.0587883"><ele>758.5999999999999</ele><time>2026-04-22T09:58:34.534Z</time></trkpt><trkpt lat="44.1721233" lon="8.0586633"><ele>761.0</ele><time>2026-04-22T09:58:36.534Z</time></trkpt><trkpt lat="44.17213" lon="8.0585433"><ele>761.0</ele><time>2026-04-22T09:58:39.533Z</time></trkpt><trkpt lat="44.1721717" lon="8.0583517"><ele>761.0</ele><time>2026-04-22T09:58:54.533Z</time></trkpt><trkpt lat="44.1721883" lon="8.0582517"><ele>761.0</ele><time>2026-04-22T09:58:56.533Z</time></trkpt><trkpt lat="44.1722367" lon="8.0581767"><ele>761.0</ele><time>2026-04-22T09:58:58.533Z</time></trkpt><trkpt lat="44.17229" lon="8.0581033"><ele>761.0</ele><time>2026-04-22T09:59:00.534Z</time></trkpt><trkpt lat="44.1723567" lon="8.0580883"><ele>761.0</ele><time>2026-04-22T09:59:03.534Z</time></trkpt><trkpt lat="44.1723967" lon="8.0579817"><ele>765.8</ele><time>2026-04-22T09:59:07.534Z</time></trkpt><trkpt lat="44.1724633" lon="8.05789"><ele>770.5999999999999</ele><time>2026-04-22T09:59:10.533Z</time></trkpt><trkpt lat="44.17253" lon="8.0578083"><ele>775.4</ele><time>2026-04-22T09:59:12.534Z</time></trkpt><trkpt lat="44.1725933" lon="8.0577533"><ele>780.2</ele><time>2026-04-22T09:59:14.534Z</time></trkpt><trkpt lat="44.1726733" lon="8.0578083"><ele>785.0</ele><time>2026-04-22T09:59:17.534Z</time></trkpt><trkpt lat="44.172725" lon="8.057935"><ele>785.0</ele><time>2026-04-22T09:59:19.534Z</time></trkpt><trkpt lat="44.1727617" lon="8.058015"><ele>785.0</ele><time>2026-04-22T09:59:20.533Z</time></trkpt><trkpt lat="44.1728017" lon="8.058105"><ele>785.0</ele><time>2026-04-22T09:59:21.533Z</time></trkpt><trkpt lat="44.1728417" lon="8.0581917"><ele>785.0</ele><time>2026-04-22T09:59:22.534Z</time></trkpt><trkpt lat="44.172875" lon="8.0582667"><ele>785.0</ele><time>2026-04-22T09:59:23.534Z</time></trkpt><trkpt lat="44.1729283" lon="8.058315"><ele>785.0</ele><time>2026-04-22T09:59:25.534Z</time></trkpt><trkpt lat="44.1729383" lon="8.0581917"><ele>785.0</ele><time>2026-04-22T09:59:27.534Z</time></trkpt><trkpt lat="44.1729333" lon="8.05802"><ele>785.0</ele><time>2026-04-22T09:59:29.533Z</time></trkpt><trkpt lat="44.17294" lon="8.0579117"><ele>785.0</ele><time>2026-04-22T09:59:31.532Z</time></trkpt><trkpt lat="44.172975" lon="8.0578283"><ele>785.0</ele><time>2026-04-22T09:59:47.533Z</time></trkpt><trkpt lat="44.1730233" lon="8.0576717"><ele>785.0</ele><time>2026-04-22T09:59:49.533Z</time></trkpt><trkpt lat="44.1730517" lon="8.0575567"><ele>785.0</ele><time>2026-04-22T09:59:50.533Z</time></trkpt><trkpt lat="44.1730767" lon="8.0574233"><ele>785.8</ele><time>2026-04-22T09:59:51.532Z</time></trkpt><trkpt lat="44.1731017" lon="8.057275"><ele>786.6</ele><time>2026-04-22T09:59:52.532Z</time></trkpt><trkpt lat="44.1731217" lon="8.0571283"><ele>787.4000000000001</ele><time>2026-04-22T09:59:53.532Z</time></trkpt><trkpt lat="44.173135" lon="8.05697"><ele>788.2</ele><time>2026-04-22T09:59:54.532Z</time></trkpt><trkpt lat="44.1731517" lon="8.05681"><ele>789.0</ele><time>2026-04-22T09:59:55.533Z</time></trkpt><trkpt lat="44.1731567" lon="8.056655"><ele>790.0</ele><time>2026-04-22T09:59:56.533Z</time></trkpt><trkpt lat="44.1731583" lon="8.0564817"><ele>791.0</ele><time>2026-04-22T09:59:57.532Z</time></trkpt><trkpt lat="44.17316" lon="8.0563533"><ele>792.0</ele><time>2026-04-22T09:59:58.533Z</time></trkpt><trkpt lat="44.1731633" lon="8.05622"><ele>793.0</ele><time>2026-04-22T09:59:59.533Z</time></trkpt><trkpt lat="44.1731683" lon="8.0561033"><ele>794.0</ele><time>2026-04-22T10:00:00.533Z</time></trkpt><trkpt lat="44.1731767" lon="8.0559983"><ele>794.0000000000001</ele><time>2026-04-22T10:00:01.533Z</time></trkpt><trkpt lat="44.17318" lon="8.0558983"><ele>794.0</ele><time>2026-04-22T10:00:02.533Z</time></trkpt><trkpt lat="44.1731833" lon="8.05576"><ele>794.0</ele><time>2026-04-22T10:00:04.532Z</time></trkpt><trkpt lat="44.1732167" lon="8.055675"><ele>794.0</ele><time>2026-04-22T10:00:22.533Z</time></trkpt><trkpt lat="44.17328" lon="8.0556133"><ele>794.0000000000001</ele><time>2026-04-22T10:00:25.533Z</time></trkpt><trkpt lat="44.1733083" lon="8.0555217"><ele>794.0</ele><time>2026-04-22T10:00:29.533Z</time></trkpt><trkpt lat="44.1733" lon="8.0553967"><ele>797.6666666666667</ele><time>2026-04-22T10:00:32.533Z</time></trkpt><trkpt lat="44.1733267" lon="8.0553017"><ele>801.3333333333334</ele><time>2026-04-22T10:00:34.533Z</time></trkpt><trkpt lat="44.173375" lon="8.0551667"><ele>805.0</ele><time>2026-04-22T10:00:36.533Z</time></trkpt><trkpt lat="44.1734117" lon="8.0550633"><ele>808.6666666666667</ele><time>2026-04-22T10:00:38.533Z</time></trkpt><trkpt lat="44.1734567" lon="8.0549767"><ele>812.3333333333334</ele><time>2026-04-22T10:00:41.533Z</time></trkpt><trkpt lat="44.1735233" lon="8.0548767"><ele>816.0</ele><time>2026-04-22T10:00:43.532Z</time></trkpt><trkpt lat="44.17358" lon="8.0547483"><ele>816.0</ele><time>2026-04-22T10:00:45.532Z</time></trkpt><trkpt lat="44.1736417" lon="8.0546283"><ele>816.0</ele><time>2026-04-22T10:00:47.532Z</time></trkpt><trkpt lat="44.1736983" lon="8.0545367"><ele>816.0</ele><time>2026-04-22T10:00:49.533Z</time></trkpt><trkpt lat="44.1737483" lon="8.05448"><ele>816.0</ele><time>2026-04-22T10:00:52.533Z</time></trkpt><trkpt lat="44.173815" lon="8.0545217"><ele>816.0</ele><time>2026-04-22T10:00:55.532Z</time></trkpt><trkpt lat="44.1738967" lon="8.0545517"><ele>816.0</ele><time>2026-04-22T10:01:16.533Z</time></trkpt><trkpt lat="44.1739367" lon="8.0544667"><ele>816.0</ele><time>2026-04-22T10:01:20.533Z</time></trkpt><trkpt lat="44.173825" lon="8.05443"><ele>816.0</ele><time>2026-04-22T10:02:25.533Z</time></trkpt><trkpt lat="44.1738183" lon="8.0543217"><ele>816.0</ele><time>2026-04-22T10:02:29.532Z</time></trkpt><trkpt lat="44.1738417" lon="8.0541717"><ele>816.0</ele><time>2026-04-22T10:02:31.533Z</time></trkpt><trkpt lat="44.17387" lon="8.0540033"><ele>816.0</ele><time>2026-04-22T10:02:33.532Z</time></trkpt><trkpt lat="44.173875" lon="8.0538633"><ele>814.8333333333334</ele><time>2026-04-22T10:02:35.533Z</time></trkpt><trkpt lat="44.1739333" lon="8.0538267"><ele>813.6666666666667</ele><time>2026-04-22T10:02:40.533Z</time></trkpt><trkpt lat="44.1739983" lon="8.0538667"><ele>812.5</ele><time>2026-04-22T10:02:44.533Z</time></trkpt><trkpt lat="44.1740667" lon="8.0539117"><ele>811.3333333333334</ele><time>2026-04-22T10:03:43.533Z</time></trkpt><trkpt lat="44.1741483" lon="8.05386"><ele>810.1666666666667</ele><time>2026-04-22T10:03:46.533Z</time></trkpt><trkpt lat="44.1742083" lon="8.0537883"><ele>809.0</ele><time>2026-04-22T10:03:48.533Z</time></trkpt><trkpt lat="44.1742617" lon="8.0536833"><ele>814.0</ele><time>2026-04-22T10:03:50.533Z</time></trkpt><trkpt lat="44.1743067" lon="8.053545"><ele>819.0</ele><time>2026-04-22T10:03:52.532Z</time></trkpt><trkpt lat="44.1743183" lon="8.0533833"><ele>824.0</ele><time>2026-04-22T10:03:54.533Z</time></trkpt><trkpt lat="44.174355" lon="8.05326"><ele>829.0</ele><time>2026-04-22T10:03:56.533Z</time></trkpt><trkpt lat="44.17439" lon="8.0531383"><ele>834.0</ele><time>2026-04-22T10:03:58.533Z</time></trkpt><trkpt lat="44.174415" lon="8.0530183"><ele>834.6666666666666</ele><time>2026-04-22T10:04:00.533Z</time></trkpt><trkpt lat="44.1744267" lon="8.0529067"><ele>835.3333333333333</ele><time>2026-04-22T10:04:02.533Z</time></trkpt><trkpt lat="44.1744733" lon="8.0527867"><ele>836.0</ele><time>2026-04-22T10:04:08.533Z</time></trkpt><trkpt lat="44.1744917" lon="8.0526533"><ele>836.6666666666666</ele><time>2026-04-22T10:04:11.533Z</time></trkpt><trkpt lat="44.1745017" lon="8.0525483"><ele>837.3333333333333</ele><time>2026-04-22T10:04:13.533Z</time></trkpt><trkpt lat="44.1744933" lon="8.0524383"><ele>838.0</ele><time>2026-04-22T10:04:16.533Z</time></trkpt><trkpt lat="44.174535" lon="8.0523567"><ele>838.1666666666666</ele><time>2026-04-22T10:04:20.533Z</time></trkpt><trkpt lat="44.1745967" lon="8.0523183"><ele>838.3333333333333</ele><time>2026-04-22T10:04:23.532Z</time></trkpt><trkpt lat="44.174645" lon="8.0522617"><ele>838.5</ele><time>2026-04-22T10:04:25.533Z</time></trkpt><trkpt lat="44.1746633" lon="8.05214"><ele>838.6666666666667</ele><time>2026-04-22T10:04:27.533Z</time></trkpt><trkpt lat="44.1746633" lon="8.05202"><ele>838.8333333333334</ele><time>2026-04-22T10:04:28.533Z</time></trkpt><trkpt lat="44.1746667" lon="8.0518733"><ele>839.0</ele><time>2026-04-22T10:04:29.533Z</time></trkpt><trkpt lat="44.1746817" lon="8.0517233"><ele>840.3333333333334</ele><time>2026-04-22T10:04:30.533Z</time></trkpt><trkpt lat="44.17471" lon="8.0515933"><ele>841.6666666666667</ele><time>2026-04-22T10:04:31.533Z</time></trkpt><trkpt lat="44.17476" lon="8.0515017"><ele>843.0</ele><time>2026-04-22T10:04:32.532Z</time></trkpt><trkpt lat="44.17483" lon="8.0514483"><ele>844.3333333333333</ele><time>2026-04-22T10:04:33.533Z</time></trkpt><trkpt lat="44.1748983" lon="8.0513933"><ele>845.6666666666666</ele><time>2026-04-22T10:04:34.533Z</time></trkpt><trkpt lat="44.1749983" lon="8.0513383"><ele>847.0</ele><time>2026-04-22T10:04:36.532Z</time></trkpt><trkpt lat="44.1750417" lon="8.051425"><ele>850.4999999999999</ele><time>2026-04-22T10:05:59.533Z</time></trkpt><trkpt lat="44.1750317" lon="8.0515567"><ele>854.0</ele><time>2026-04-22T10:06:01.533Z</time></trkpt><trkpt lat="44.1750633" lon="8.0516333"><ele>857.5</ele><time>2026-04-22T10:06:03.533Z</time></trkpt><trkpt lat="44.1751317" lon="8.05163"><ele>861.0</ele><time>2026-04-22T10:06:06.533Z</time></trkpt><trkpt lat="44.175175" lon="8.0514917"><ele>864.4999999999999</ele><time>2026-04-22T10:06:08.533Z</time></trkpt><trkpt lat="44.1752133" lon="8.0513933"><ele>868.0</ele><time>2026-04-22T10:06:09.533Z</time></trkpt><trkpt lat="44.1752483" lon="8.0513033"><ele>869.6666666666666</ele><time>2026-04-22T10:06:10.533Z</time></trkpt><trkpt lat="44.175285" lon="8.0512217"><ele>871.3333333333333</ele><time>2026-04-22T10:06:11.533Z</time></trkpt><trkpt lat="44.1753467" lon="8.0511"><ele>873.0</ele><time>2026-04-22T10:06:13.533Z</time></trkpt><trkpt lat="44.17538" lon="8.05102"><ele>874.6666666666667</ele><time>2026-04-22T10:06:15.533Z</time></trkpt><trkpt lat="44.1753067" lon="8.0509633"><ele>876.3333333333334</ele><time>2026-04-22T10:06:20.532Z</time></trkpt><trkpt lat="44.175205" lon="8.0509417"><ele>878.0</ele><time>2026-04-22T10:06:22.533Z</time></trkpt><trkpt lat="44.175115" lon="8.05089"><ele>878.0</ele><time>2026-04-22T10:06:24.533Z</time></trkpt><trkpt lat="44.1750633" lon="8.0508"><ele>878.0</ele><time>2026-04-22T10:06:26.532Z</time></trkpt><trkpt lat="44.1750633" lon="8.0506967"><ele>878.0</ele><time>2026-04-22T10:06:28.533Z</time></trkpt><trkpt lat="44.1751317" lon="8.0506533"><ele>878.0</ele><time>2026-04-22T10:06:32.532Z</time></trkpt><trkpt lat="44.1752767" lon="8.0506267"><ele>878.0</ele><time>2026-04-22T10:06:52.533Z</time></trkpt><trkpt lat="44.1753467" lon="8.050595"><ele>879.8333333333334</ele><time>2026-04-22T10:06:54.532Z</time></trkpt><trkpt lat="44.17543" lon="8.0505783"><ele>881.6666666666667</ele><time>2026-04-22T10:06:56.533Z</time></trkpt><trkpt lat="44.17551" lon="8.0505733"><ele>883.5</ele><time>2026-04-22T10:06:58.533Z</time></trkpt><trkpt lat="44.17558" lon="8.0505583"><ele>885.3333333333333</ele><time>2026-04-22T10:07:00.532Z</time></trkpt><trkpt lat="44.1755767" lon="8.0504667"><ele>887.1666666666666</ele><time>2026-04-22T10:07:04.533Z</time></trkpt><trkpt lat="44.175525" lon="8.0503767"><ele>889.0</ele><time>2026-04-22T10:07:06.533Z</time></trkpt><trkpt lat="44.1755133" lon="8.0502517"><ele>889.0</ele><time>2026-04-22T10:07:08.533Z</time></trkpt><trkpt lat="44.1755433" lon="8.0501233"><ele>889.0000000000001</ele><time>2026-04-22T10:07:10.533Z</time></trkpt><trkpt lat="44.1755983" lon="8.0499683"><ele>889.0000000000001</ele><time>2026-04-22T10:07:12.533Z</time></trkpt><trkpt lat="44.1756383" lon="8.0498783"><ele>889.0</ele><time>2026-04-22T10:07:13.533Z</time></trkpt><trkpt lat="44.1756733" lon="8.0498017"><ele>889.0</ele><time>2026-04-22T10:07:14.533Z</time></trkpt><trkpt lat="44.17572" lon="8.04965"><ele>894.6666666666666</ele><time>2026-04-22T10:07:16.532Z</time></trkpt><trkpt lat="44.17574" lon="8.049545"><ele>900.3333333333333</ele><time>2026-04-22T10:07:18.533Z</time></trkpt><trkpt lat="44.1757783" lon="8.0494683"><ele>906.0</ele><time>2026-04-22T10:07:20.533Z</time></trkpt><trkpt lat="44.1758717" lon="8.0494217"><ele>911.6666666666667</ele><time>2026-04-22T10:07:22.533Z</time></trkpt><trkpt lat="44.175935" lon="8.0493933"><ele>917.3333333333334</ele><time>2026-04-22T10:07:23.533Z</time></trkpt><trkpt lat="44.1760333" lon="8.0493433"><ele>923.0</ele><time>2026-04-22T10:07:25.533Z</time></trkpt><trkpt lat="44.17611" lon="8.04926"><ele>924.0</ele><time>2026-04-22T10:07:27.532Z</time></trkpt><trkpt lat="44.1762017" lon="8.0491083"><ele>925.0</ele><time>2026-04-22T10:07:29.533Z</time></trkpt><trkpt lat="44.1762733" lon="8.0490067"><ele>926.0</ele><time>2026-04-22T10:07:30.533Z</time></trkpt><trkpt lat="44.17634" lon="8.04893"><ele>927.0</ele><time>2026-04-22T10:07:31.533Z</time></trkpt><trkpt lat="44.1764033" lon="8.04886"><ele>928.0</ele><time>2026-04-22T10:07:32.533Z</time></trkpt><trkpt lat="44.1764633" lon="8.0487983"><ele>927.9999999999999</ele><time>2026-04-22T10:07:33.533Z</time></trkpt><trkpt lat="44.1765167" lon="8.0487383"><ele>928.0</ele><time>2026-04-22T10:07:34.533Z</time></trkpt><trkpt lat="44.1765883" lon="8.0486133"><ele>928.0</ele><time>2026-04-22T10:07:36.533Z</time></trkpt><trkpt lat="44.176645" lon="8.0484917"><ele>928.0</ele><time>2026-04-22T10:07:38.532Z</time></trkpt><trkpt lat="44.1766833" lon="8.0484183"><ele>927.9999999999999</ele><time>2026-04-22T10:07:40.533Z</time></trkpt><trkpt lat="44.1767483" lon="8.0483333"><ele>928.0</ele><time>2026-04-22T10:07:43.533Z</time></trkpt><trkpt lat="44.176795" lon="8.0482517"><ele>932.4</ele><time>2026-04-22T10:07:45.532Z</time></trkpt><trkpt lat="44.1768667" lon="8.0481333"><ele>936.8</ele><time>2026-04-22T10:07:47.532Z</time></trkpt><trkpt lat="44.176895" lon="8.0479783"><ele>941.2</ele><time>2026-04-22T10:07:49.533Z</time></trkpt><trkpt lat="44.176905" lon="8.0478333"><ele>945.6</ele><time>2026-04-22T10:07:51.532Z</time></trkpt><trkpt lat="44.1768833" lon="8.0476817"><ele>950.0</ele><time>2026-04-22T10:07:53.533Z</time></trkpt><trkpt lat="44.17684" lon="8.04759"><ele>950.0000000000001</ele><time>2026-04-22T10:07:54.532Z</time></trkpt><trkpt lat="44.1768017" lon="8.04751"><ele>950.0</ele><time>2026-04-22T10:07:55.532Z</time></trkpt><trkpt lat="44.17675" lon="8.0474333"><ele>950.0</ele><time>2026-04-22T10:07:56.533Z</time></trkpt><trkpt lat="44.17671" lon="8.0473567"><ele>950.0</ele><time>2026-04-22T10:07:57.533Z</time></trkpt><trkpt lat="44.1766983" lon="8.0472617"><ele>950.0000000000001</ele><time>2026-04-22T10:08:00.533Z</time></trkpt><trkpt lat="44.1768217" lon="8.0472683"><ele>950.0</ele><time>2026-04-22T10:08:02.533Z</time></trkpt><trkpt lat="44.176905" lon="8.047275"><ele>951.6666666666667</ele><time>2026-04-22T10:08:03.533Z</time></trkpt><trkpt lat="44.17697" lon="8.04725"><ele>953.3333333333334</ele><time>2026-04-22T10:08:04.533Z</time></trkpt><trkpt lat="44.1770633" lon="8.0471767"><ele>955.0</ele><time>2026-04-22T10:08:06.533Z</time></trkpt><trkpt lat="44.17713" lon="8.0471233"><ele>956.6666666666667</ele><time>2026-04-22T10:08:08.532Z</time></trkpt><trkpt lat="44.1771967" lon="8.047105"><ele>958.3333333333334</ele><time>2026-04-22T10:08:11.532Z</time></trkpt><trkpt lat="44.1772583" lon="8.04714"><ele>960.0</ele><time>2026-04-22T10:08:15.533Z</time></trkpt><trkpt lat="44.1773067" lon="8.0472117"><ele>960.0</ele><time>2026-04-22T10:08:18.532Z</time></trkpt><trkpt lat="44.1772833" lon="8.0472933"><ele>960.0</ele><time>2026-04-22T10:08:21.533Z</time></trkpt><trkpt lat="44.1773033" lon="8.0474267"><ele>960.0</ele><time>2026-04-22T10:10:52.532Z</time></trkpt><trkpt lat="44.1773767" lon="8.047555"><ele>960.0</ele><time>2026-04-22T10:10:54.532Z</time></trkpt><trkpt lat="44.1774217" lon="8.0476233"><ele>960.0</ele><time>2026-04-22T10:10:55.532Z</time></trkpt><trkpt lat="44.177465" lon="8.0477133"><ele>960.0</ele><time>2026-04-22T10:10:56.532Z</time></trkpt><trkpt lat="44.177505" lon="8.0478167"><ele>960.0</ele><time>2026-04-22T10:10:57.531Z</time></trkpt><trkpt lat="44.1775533" lon="8.047915"><ele>960.0</ele><time>2026-04-22T10:10:58.532Z</time></trkpt><trkpt lat="44.177615" lon="8.0479983"><ele>960.0</ele><time>2026-04-22T10:10:59.532Z</time></trkpt><trkpt lat="44.1776967" lon="8.0480533"><ele>960.0</ele><time>2026-04-22T10:11:00.531Z</time></trkpt><trkpt lat="44.1777817" lon="8.04811"><ele>960.0</ele><time>2026-04-22T10:11:01.532Z</time></trkpt><trkpt lat="44.1778617" lon="8.0481683"><ele>960.0</ele><time>2026-04-22T10:11:02.531Z</time></trkpt><trkpt lat="44.177925" lon="8.04824"><ele>960.3333333333334</ele><time>2026-04-22T10:11:03.531Z</time></trkpt><trkpt lat="44.17797" lon="8.0483217"><ele>960.6666666666667</ele><time>2026-04-22T10:11:04.532Z</time></trkpt><trkpt lat="44.1779833" lon="8.0484383"><ele>961.0</ele><time>2026-04-22T10:11:05.532Z</time></trkpt><trkpt lat="44.1779617" lon="8.04856"><ele>961.3333333333334</ele><time>2026-04-22T10:11:06.532Z</time></trkpt><trkpt lat="44.1779383" lon="8.0486917"><ele>961.6666666666667</ele><time>2026-04-22T10:11:07.532Z</time></trkpt><trkpt lat="44.17793" lon="8.0488167"><ele>962.0</ele><time>2026-04-22T10:11:08.531Z</time></trkpt><trkpt lat="44.1779333" lon="8.048965"><ele>962.0</ele><time>2026-04-22T10:11:09.532Z</time></trkpt><trkpt lat="44.1779633" lon="8.04909"><ele>962.0</ele><time>2026-04-22T10:11:10.532Z</time></trkpt><trkpt lat="44.1780067" lon="8.0492433"><ele>962.0</ele><time>2026-04-22T10:11:11.532Z</time></trkpt><trkpt lat="44.178055" lon="8.049395"><ele>962.0</ele><time>2026-04-22T10:11:12.532Z</time></trkpt><trkpt lat="44.1781017" lon="8.0495617"><ele>961.5</ele><time>2026-04-22T10:11:13.532Z</time></trkpt><trkpt lat="44.178145" lon="8.049735"><ele>961.0</ele><time>2026-04-22T10:11:14.531Z</time></trkpt><trkpt lat="44.1781833" lon="8.0499183"><ele>960.5</ele><time>2026-04-22T10:11:15.532Z</time></trkpt><trkpt lat="44.1782183" lon="8.0501133"><ele>960.0</ele><time>2026-04-22T10:11:16.532Z</time></trkpt><trkpt lat="44.1782517" lon="8.0503217"><ele>964.0</ele><time>2026-04-22T10:11:17.532Z</time></trkpt><trkpt lat="44.1782783" lon="8.0505383"><ele>968.0</ele><time>2026-04-22T10:11:18.532Z</time></trkpt><trkpt lat="44.1782983" lon="8.0507467"><ele>972.0</ele><time>2026-04-22T10:11:19.532Z</time></trkpt><trkpt lat="44.1783133" lon="8.05095"><ele>972.0</ele><time>2026-04-22T10:11:20.532Z</time></trkpt><trkpt lat="44.1783267" lon="8.0511533"><ele>972.0</ele><time>2026-04-22T10:11:21.532Z</time></trkpt><trkpt lat="44.1783217" lon="8.0513367"><ele>972.0</ele><time>2026-04-22T10:11:22.532Z</time></trkpt><trkpt lat="44.1783117" lon="8.0515117"><ele>972.0</ele><time>2026-04-22T10:11:23.532Z</time></trkpt><trkpt lat="44.1782917" lon="8.05169"><ele>971.25</ele><time>2026-04-22T10:11:24.532Z</time></trkpt><trkpt lat="44.1782717" lon="8.0518783"><ele>970.5</ele><time>2026-04-22T10:11:25.532Z</time></trkpt><trkpt lat="44.1782433" lon="8.0520933"><ele>969.75</ele><time>2026-04-22T10:11:26.532Z</time></trkpt><trkpt lat="44.1782167" lon="8.0522983"><ele>969.0</ele><time>2026-04-22T10:11:27.532Z</time></trkpt><trkpt lat="44.1781817" lon="8.0525333"><ele>973.6666666666667</ele><time>2026-04-22T10:11:28.532Z</time></trkpt><trkpt lat="44.178165" lon="8.0527617"><ele>978.3333333333334</ele><time>2026-04-22T10:11:29.532Z</time></trkpt><trkpt lat="44.1781633" lon="8.0529917"><ele>983.0</ele><time>2026-04-22T10:11:30.532Z</time></trkpt><trkpt lat="44.1781783" lon="8.0532167"><ele>975.3333333333334</ele><time>2026-04-22T10:11:31.532Z</time></trkpt><trkpt lat="44.1781967" lon="8.053445"><ele>967.6666666666667</ele><time>2026-04-22T10:11:32.531Z</time></trkpt><trkpt lat="44.178225" lon="8.05368"><ele>960.0</ele><time>2026-04-22T10:11:33.532Z</time></trkpt><trkpt lat="44.17826" lon="8.0539017"><ele>960.0</ele><time>2026-04-22T10:11:34.532Z</time></trkpt><trkpt lat="44.178295" lon="8.0541"><ele>960.0</ele><time>2026-04-22T10:11:35.532Z</time></trkpt><trkpt lat="44.1783383" lon="8.0543183"><ele>960.0</ele><time>2026-04-22T10:11:36.531Z</time></trkpt><trkpt lat="44.1783683" lon="8.0545083"><ele>960.0</ele><time>2026-04-22T10:11:37.531Z</time></trkpt><trkpt lat="44.1783767" lon="8.0546933"><ele>959.6</ele><time>2026-04-22T10:11:38.532Z</time></trkpt><trkpt lat="44.1783883" lon="8.0548617"><ele>959.2</ele><time>2026-04-22T10:11:39.532Z</time></trkpt><trkpt lat="44.1784067" lon="8.0550267"><ele>958.8</ele><time>2026-04-22T10:11:40.532Z</time></trkpt><trkpt lat="44.17844" lon="8.05517"><ele>958.4</ele><time>2026-04-22T10:11:41.531Z</time></trkpt><trkpt lat="44.1784783" lon="8.0552683"><ele>958.0</ele><time>2026-04-22T10:11:42.532Z</time></trkpt><trkpt lat="44.17855" lon="8.0553633"><ele>958.0</ele><time>2026-04-22T10:11:44.532Z</time></trkpt><trkpt lat="44.1785583" lon="8.0552617"><ele>958.0</ele><time>2026-04-22T10:11:47.532Z</time></trkpt><trkpt lat="44.1785333" lon="8.0551717"><ele>958.0</ele><time>2026-04-22T10:11:48.532Z</time></trkpt><trkpt lat="44.1785167" lon="8.0550633"><ele>958.0</ele><time>2026-04-22T10:11:49.532Z</time></trkpt><trkpt lat="44.178515" lon="8.0549567"><ele>958.0</ele><time>2026-04-22T10:11:50.532Z</time></trkpt><trkpt lat="44.1785217" lon="8.0548567"><ele>958.0</ele><time>2026-04-22T10:11:51.532Z</time></trkpt><trkpt lat="44.1785167" lon="8.0547667"><ele>958.0</ele><time>2026-04-22T10:11:52.532Z</time></trkpt><trkpt lat="44.178515" lon="8.0546683"><ele>957.9999999999999</ele><time>2026-04-22T10:11:53.532Z</time></trkpt><trkpt lat="44.17852" lon="8.054555"><ele>958.0</ele><time>2026-04-22T10:11:54.532Z</time></trkpt><trkpt lat="44.1785233" lon="8.05446"><ele>958.0</ele><time>2026-04-22T10:11:55.531Z</time></trkpt><trkpt lat="44.1785283" lon="8.0543467"><ele>958.0</ele><time>2026-04-22T10:11:56.532Z</time></trkpt><trkpt lat="44.1785183" lon="8.05424"><ele>957.9999999999999</ele><time>2026-04-22T10:11:57.532Z</time></trkpt><trkpt lat="44.1785167" lon="8.054135"><ele>958.0</ele><time>2026-04-22T10:11:58.532Z</time></trkpt><trkpt lat="44.178525" lon="8.0540417"><ele>958.4</ele><time>2026-04-22T10:11:59.532Z</time></trkpt><trkpt lat="44.1785417" lon="8.0539533"><ele>958.8</ele><time>2026-04-22T10:12:00.532Z</time></trkpt><trkpt lat="44.178565" lon="8.0538017"><ele>959.2</ele><time>2026-04-22T10:12:02.532Z</time></trkpt><trkpt lat="44.1785783" lon="8.053665"><ele>959.6</ele><time>2026-04-22T10:12:04.532Z</time></trkpt><trkpt lat="44.1786" lon="8.053515"><ele>960.0</ele><time>2026-04-22T10:12:06.532Z</time></trkpt><trkpt lat="44.1786133" lon="8.0534183"><ele>960.0</ele><time>2026-04-22T10:12:07.532Z</time></trkpt><trkpt lat="44.1786417" lon="8.053315"><ele>960.0</ele><time>2026-04-22T10:12:08.532Z</time></trkpt><trkpt lat="44.178675" lon="8.0532033"><ele>960.0</ele><time>2026-04-22T10:12:09.532Z</time></trkpt><trkpt lat="44.17871" lon="8.053105"><ele>960.0</ele><time>2026-04-22T10:12:10.532Z</time></trkpt><trkpt lat="44.17876" lon="8.05302"><ele>960.0</ele><time>2026-04-22T10:12:11.532Z</time></trkpt><trkpt lat="44.17882" lon="8.0529517"><ele>960.0</ele><time>2026-04-22T10:12:12.532Z</time></trkpt><trkpt lat="44.1788917" lon="8.0529033"><ele>960.5</ele><time>2026-04-22T10:12:13.532Z</time></trkpt><trkpt lat="44.178955" lon="8.0528833"><ele>961.0</ele><time>2026-04-22T10:12:14.532Z</time></trkpt><trkpt lat="44.1790183" lon="8.0528983"><ele>961.5</ele><time>2026-04-22T10:12:15.532Z</time></trkpt><trkpt lat="44.1790983" lon="8.0529517"><ele>962.0</ele><time>2026-04-22T10:12:16.531Z</time></trkpt><trkpt lat="44.179165" lon="8.0530133"><ele>962.5</ele><time>2026-04-22T10:12:17.532Z</time></trkpt><trkpt lat="44.1792617" lon="8.0530783"><ele>963.0</ele><time>2026-04-22T10:12:19.532Z</time></trkpt><trkpt lat="44.179355" lon="8.0530717"><ele>960.8333333333334</ele><time>2026-04-22T10:12:21.532Z</time></trkpt><trkpt lat="44.1794117" lon="8.0530233"><ele>958.6666666666667</ele><time>2026-04-22T10:12:22.531Z</time></trkpt><trkpt lat="44.179465" lon="8.052945"><ele>956.5</ele><time>2026-04-22T10:12:23.532Z</time></trkpt><trkpt lat="44.1795267" lon="8.05284"><ele>954.3333333333334</ele><time>2026-04-22T10:12:24.531Z</time></trkpt><trkpt lat="44.1795883" lon="8.0527483"><ele>952.1666666666667</ele><time>2026-04-22T10:12:25.532Z</time></trkpt><trkpt lat="44.1796433" lon="8.0526667"><ele>950.0</ele><time>2026-04-22T10:12:26.532Z</time></trkpt><trkpt lat="44.179695" lon="8.0525917"><ele>950.0</ele><time>2026-04-22T10:12:27.531Z</time></trkpt><trkpt lat="44.1797483" lon="8.0525"><ele>950.0</ele><time>2026-04-22T10:12:28.532Z</time></trkpt><trkpt lat="44.1798" lon="8.052405"><ele>950.0</ele><time>2026-04-22T10:12:29.531Z</time></trkpt><trkpt lat="44.17986" lon="8.0522933"><ele>950.0</ele><time>2026-04-22T10:12:30.532Z</time></trkpt><trkpt lat="44.179925" lon="8.0521917"><ele>950.0</ele><time>2026-04-22T10:12:31.532Z</time></trkpt><trkpt lat="44.1800067" lon="8.0521017"><ele>948.6</ele><time>2026-04-22T10:12:32.532Z</time></trkpt><trkpt lat="44.1800717" lon="8.0520233"><ele>947.2</ele><time>2026-04-22T10:12:33.532Z</time></trkpt><trkpt lat="44.1801317" lon="8.0519417"><ele>945.8</ele><time>2026-04-22T10:12:34.532Z</time></trkpt><trkpt lat="44.1801983" lon="8.0518433"><ele>944.4</ele><time>2026-04-22T10:12:35.532Z</time></trkpt><trkpt lat="44.180265" lon="8.05174"><ele>943.0</ele><time>2026-04-22T10:12:36.532Z</time></trkpt><trkpt lat="44.1803283" lon="8.0516367"><ele>944.8333333333333</ele><time>2026-04-22T10:12:37.531Z</time></trkpt><trkpt lat="44.180375" lon="8.0515283"><ele>946.6666666666666</ele><time>2026-04-22T10:12:38.532Z</time></trkpt><trkpt lat="44.1804183" lon="8.0514283"><ele>948.5</ele><time>2026-04-22T10:12:39.532Z</time></trkpt><trkpt lat="44.18046" lon="8.0513317"><ele>950.3333333333333</ele><time>2026-04-22T10:12:40.532Z</time></trkpt><trkpt lat="44.1804967" lon="8.05124"><ele>952.1666666666666</ele><time>2026-04-22T10:12:41.531Z</time></trkpt><trkpt lat="44.1805317" lon="8.051145"><ele>954.0</ele><time>2026-04-22T10:12:42.532Z</time></trkpt><trkpt lat="44.1805617" lon="8.0510517"><ele>954.0</ele><time>2026-04-22T10:12:43.532Z</time></trkpt><trkpt lat="44.1805967" lon="8.05096"><ele>953.9999999999999</ele><time>2026-04-22T10:12:44.532Z</time></trkpt><trkpt lat="44.1806333" lon="8.050875"><ele>954.0</ele><time>2026-04-22T10:12:45.532Z</time></trkpt><trkpt lat="44.1806767" lon="8.0507983"><ele>954.0</ele><time>2026-04-22T10:12:46.532Z</time></trkpt><trkpt lat="44.1807183" lon="8.0507133"><ele>953.9999999999999</ele><time>2026-04-22T10:12:47.532Z</time></trkpt><trkpt lat="44.1807417" lon="8.0506217"><ele>954.0</ele><time>2026-04-22T10:12:48.532Z</time></trkpt><trkpt lat="44.180755" lon="8.050525"><ele>954.0</ele><time>2026-04-22T10:12:49.532Z</time></trkpt><trkpt lat="44.1807833" lon="8.0503783"><ele>948.3333333333334</ele><time>2026-04-22T10:12:51.532Z</time></trkpt><trkpt lat="44.18085" lon="8.0503117"><ele>942.6666666666667</ele><time>2026-04-22T10:12:53.532Z</time></trkpt><trkpt lat="44.18091" lon="8.0502817"><ele>937.0</ele><time>2026-04-22T10:12:54.532Z</time></trkpt><trkpt lat="44.180975" lon="8.050245"><ele>931.3333333333334</ele><time>2026-04-22T10:12:55.531Z</time></trkpt><trkpt lat="44.181025" lon="8.0501867"><ele>925.6666666666667</ele><time>2026-04-22T10:12:56.532Z</time></trkpt><trkpt lat="44.1810867" lon="8.05005"><ele>920.0</ele><time>2026-04-22T10:12:58.532Z</time></trkpt><trkpt lat="44.18111" lon="8.0499667"><ele>921.0</ele><time>2026-04-22T10:12:59.532Z</time></trkpt><trkpt lat="44.1811233" lon="8.0498067"><ele>922.0</ele><time>2026-04-22T10:13:01.532Z</time></trkpt><trkpt lat="44.1811283" lon="8.0496733"><ele>923.0</ele><time>2026-04-22T10:13:03.532Z</time></trkpt><trkpt lat="44.18111" lon="8.0495383"><ele>924.0</ele><time>2026-04-22T10:13:05.531Z</time></trkpt><trkpt lat="44.1811017" lon="8.04945"><ele>925.0</ele><time>2026-04-22T10:13:06.532Z</time></trkpt><trkpt lat="44.1811017" lon="8.0493183"><ele>925.0</ele><time>2026-04-22T10:13:08.531Z</time></trkpt><trkpt lat="44.1811317" lon="8.0492317"><ele>925.0</ele><time>2026-04-22T10:13:12.531Z</time></trkpt><trkpt lat="44.181145" lon="8.049415"><ele>925.0</ele><time>2026-04-22T10:13:14.532Z</time></trkpt><trkpt lat="44.1811583" lon="8.0496083"><ele>925.0</ele><time>2026-04-22T10:13:15.531Z</time></trkpt><trkpt lat="44.1811683" lon="8.04982"><ele>923.75</ele><time>2026-04-22T10:13:16.532Z</time></trkpt><trkpt lat="44.1811783" lon="8.050015"><ele>922.5</ele><time>2026-04-22T10:13:17.532Z</time></trkpt><trkpt lat="44.181185" lon="8.050185"><ele>921.25</ele><time>2026-04-22T10:13:18.531Z</time></trkpt><trkpt lat="44.1811967" lon="8.0503317"><ele>920.0</ele><time>2026-04-22T10:13:19.532Z</time></trkpt><trkpt lat="44.1812383" lon="8.0504633"><ele>920.0000000000001</ele><time>2026-04-22T10:13:20.532Z</time></trkpt><trkpt lat="44.1812883" lon="8.05056"><ele>920.0</ele><time>2026-04-22T10:13:21.532Z</time></trkpt><trkpt lat="44.1813483" lon="8.05065"><ele>920.0</ele><time>2026-04-22T10:13:22.531Z</time></trkpt><trkpt lat="44.1813817" lon="8.0507333"><ele>920.0</ele><time>2026-04-22T10:13:23.531Z</time></trkpt><trkpt lat="44.1814083" lon="8.050825"><ele>920.0000000000001</ele><time>2026-04-22T10:13:24.532Z</time></trkpt><trkpt lat="44.1814317" lon="8.0509233"><ele>920.0</ele><time>2026-04-22T10:13:25.532Z</time></trkpt><trkpt lat="44.1814483" lon="8.0510517"><ele>919.0</ele><time>2026-04-22T10:13:26.532Z</time></trkpt><trkpt lat="44.18147" lon="8.0511633"><ele>918.0</ele><time>2026-04-22T10:13:27.532Z</time></trkpt><trkpt lat="44.18149" lon="8.05125"><ele>917.0</ele><time>2026-04-22T10:13:28.532Z</time></trkpt><trkpt lat="44.1815767" lon="8.0513167"><ele>916.0</ele><time>2026-04-22T10:13:30.532Z</time></trkpt><trkpt lat="44.1816733" lon="8.0512467"><ele>915.0</ele><time>2026-04-22T10:13:32.532Z</time></trkpt><trkpt lat="44.18175" lon="8.0511133"><ele>910.8333333333334</ele><time>2026-04-22T10:13:34.532Z</time></trkpt><trkpt lat="44.1817767" lon="8.0510083"><ele>906.6666666666667</ele><time>2026-04-22T10:13:35.532Z</time></trkpt><trkpt lat="44.18179" lon="8.05088"><ele>902.5</ele><time>2026-04-22T10:13:36.532Z</time></trkpt><trkpt lat="44.1818" lon="8.0507533"><ele>898.3333333333334</ele><time>2026-04-22T10:13:37.532Z</time></trkpt><trkpt lat="44.181815" lon="8.0506283"><ele>894.1666666666667</ele><time>2026-04-22T10:13:38.531Z</time></trkpt><trkpt lat="44.1818467" lon="8.0505183"><ele>890.0</ele><time>2026-04-22T10:13:39.531Z</time></trkpt><trkpt lat="44.18189" lon="8.0504383"><ele>890.0000000000001</ele><time>2026-04-22T10:13:40.532Z</time></trkpt><trkpt lat="44.1819317" lon="8.0503667"><ele>890.0</ele><time>2026-04-22T10:13:41.531Z</time></trkpt><trkpt lat="44.182035" lon="8.0503417"><ele>890.0</ele><time>2026-04-22T10:13:43.532Z</time></trkpt><trkpt lat="44.1821" lon="8.0504533"><ele>890.0</ele><time>2026-04-22T10:13:45.532Z</time></trkpt><trkpt lat="44.18212" lon="8.0505733"><ele>890.0000000000001</ele><time>2026-04-22T10:13:46.532Z</time></trkpt><trkpt lat="44.1821233" lon="8.05068"><ele>890.0</ele><time>2026-04-22T10:13:47.532Z</time></trkpt><trkpt lat="44.182105" lon="8.0507933"><ele>890.0</ele><time>2026-04-22T10:13:48.532Z</time></trkpt><trkpt lat="44.18207" lon="8.0509033"><ele>890.0</ele><time>2026-04-22T10:13:49.532Z</time></trkpt><trkpt lat="44.18203" lon="8.0509867"><ele>890.0</ele><time>2026-04-22T10:13:50.532Z</time></trkpt><trkpt lat="44.18201" lon="8.0511267"><ele>890.0</ele><time>2026-04-22T10:13:52.532Z</time></trkpt><trkpt lat="44.1820717" lon="8.05121"><ele>890.0</ele><time>2026-04-22T10:13:54.532Z</time></trkpt><trkpt lat="44.1821783" lon="8.0511667"><ele>890.0</ele><time>2026-04-22T10:13:56.532Z</time></trkpt><trkpt lat="44.182245" lon="8.051125"><ele>890.0</ele><time>2026-04-22T10:13:57.532Z</time></trkpt><trkpt lat="44.182315" lon="8.0511"><ele>890.0</ele><time>2026-04-22T10:13:58.532Z</time></trkpt><trkpt lat="44.18238" lon="8.05107"><ele>890.0</ele><time>2026-04-22T10:13:59.532Z</time></trkpt><trkpt lat="44.18244" lon="8.0510417"><ele>890.0</ele><time>2026-04-22T10:14:00.532Z</time></trkpt><trkpt lat="44.182495" lon="8.05099"><ele>890.0</ele><time>2026-04-22T10:14:01.532Z</time></trkpt><trkpt lat="44.1825483" lon="8.05093"><ele>890.0</ele><time>2026-04-22T10:14:02.532Z</time></trkpt><trkpt lat="44.1825883" lon="8.0508517"><ele>886.6666666666667</ele><time>2026-04-22T10:14:03.532Z</time></trkpt><trkpt lat="44.1826267" lon="8.0507767"><ele>883.3333333333334</ele><time>2026-04-22T10:14:04.532Z</time></trkpt><trkpt lat="44.18267" lon="8.05071"><ele>880.0</ele><time>2026-04-22T10:14:05.532Z</time></trkpt><trkpt lat="44.18271" lon="8.05063"><ele>876.6666666666667</ele><time>2026-04-22T10:14:06.532Z</time></trkpt><trkpt lat="44.1827583" lon="8.05055"><ele>873.3333333333334</ele><time>2026-04-22T10:14:07.532Z</time></trkpt><trkpt lat="44.182815" lon="8.0504417"><ele>870.0</ele><time>2026-04-22T10:14:08.532Z</time></trkpt><trkpt lat="44.1828767" lon="8.0503167"><ele>870.0</ele><time>2026-04-22T10:14:09.531Z</time></trkpt><trkpt lat="44.1829483" lon="8.05022"><ele>870.0</ele><time>2026-04-22T10:14:10.531Z</time></trkpt><trkpt lat="44.1830183" lon="8.0501767"><ele>870.0</ele><time>2026-04-22T10:14:11.532Z</time></trkpt><trkpt lat="44.18311" lon="8.0501617"><ele>870.0</ele><time>2026-04-22T10:14:12.532Z</time></trkpt><trkpt lat="44.1832067" lon="8.0501483"><ele>870.0</ele><time>2026-04-22T10:14:13.532Z</time></trkpt><trkpt lat="44.1833267" lon="8.0501433"><ele>871.2</ele><time>2026-04-22T10:14:14.532Z</time></trkpt><trkpt lat="44.183445" lon="8.05013"><ele>872.4</ele><time>2026-04-22T10:14:15.532Z</time></trkpt><trkpt lat="44.1835467" lon="8.0501233"><ele>873.5999999999999</ele><time>2026-04-22T10:14:16.532Z</time></trkpt><trkpt lat="44.1836333" lon="8.0501183"><ele>874.8</ele><time>2026-04-22T10:14:17.532Z</time></trkpt><trkpt lat="44.1836983" lon="8.0501283"><ele>876.0</ele><time>2026-04-22T10:14:18.532Z</time></trkpt><trkpt lat="44.1837767" lon="8.0501817"><ele>876.0</ele><time>2026-04-22T10:14:19.532Z</time></trkpt><trkpt lat="44.1838383" lon="8.0502467"><ele>876.0</ele><time>2026-04-22T10:14:20.532Z</time></trkpt><trkpt lat="44.1838983" lon="8.0502783"><ele>876.0</ele><time>2026-04-22T10:14:21.532Z</time></trkpt><trkpt lat="44.1839967" lon="8.0502367"><ele>876.0</ele><time>2026-04-22T10:14:23.532Z</time></trkpt><trkpt lat="44.1840567" lon="8.0501467"><ele>876.0</ele><time>2026-04-22T10:14:24.532Z</time></trkpt><trkpt lat="44.1841283" lon="8.0500533"><ele>876.0</ele><time>2026-04-22T10:14:25.531Z</time></trkpt><trkpt lat="44.1842333" lon="8.04995"><ele>873.4</ele><time>2026-04-22T10:14:26.532Z</time></trkpt><trkpt lat="44.1843467" lon="8.04986"><ele>870.8</ele><time>2026-04-22T10:14:27.532Z</time></trkpt><trkpt lat="44.1844433" lon="8.04981"><ele>868.1999999999999</ele><time>2026-04-22T10:14:28.532Z</time></trkpt><trkpt lat="44.1845283" lon="8.0497883"><ele>865.5999999999999</ele><time>2026-04-22T10:14:29.532Z</time></trkpt><trkpt lat="44.1846167" lon="8.0498167"><ele>863.0</ele><time>2026-04-22T10:14:30.531Z</time></trkpt><trkpt lat="44.18469" lon="8.0498383"><ele>863.0</ele><time>2026-04-22T10:14:31.532Z</time></trkpt><trkpt lat="44.18475" lon="8.0498733"><ele>863.0</ele><time>2026-04-22T10:14:32.532Z</time></trkpt><trkpt lat="44.1848483" lon="8.0499467"><ele>863.0</ele><time>2026-04-22T10:14:34.532Z</time></trkpt><trkpt lat="44.18492" lon="8.0499283"><ele>863.0</ele><time>2026-04-22T10:14:36.532Z</time></trkpt><trkpt lat="44.184975" lon="8.0497983"><ele>863.0</ele><time>2026-04-22T10:14:38.532Z</time></trkpt><trkpt lat="44.1850567" lon="8.04965"><ele>862.6666666666667</ele><time>2026-04-22T10:14:40.532Z</time></trkpt><trkpt lat="44.185115" lon="8.0495917"><ele>862.3333333333334</ele><time>2026-04-22T10:14:41.532Z</time></trkpt><trkpt lat="44.1851717" lon="8.0495483"><ele>862.0</ele><time>2026-04-22T10:14:42.532Z</time></trkpt><trkpt lat="44.1852867" lon="8.0495517"><ele>861.6666666666667</ele><time>2026-04-22T10:14:44.532Z</time></trkpt><trkpt lat="44.1853917" lon="8.049545"><ele>861.3333333333334</ele><time>2026-04-22T10:14:46.531Z</time></trkpt><trkpt lat="44.1854683" lon="8.049535"><ele>861.0</ele><time>2026-04-22T10:14:48.532Z</time></trkpt><trkpt lat="44.1855467" lon="8.0495133"><ele>861.0</ele><time>2026-04-22T10:14:50.532Z</time></trkpt><trkpt lat="44.1856367" lon="8.0495117"><ele>860.9999999999999</ele><time>2026-04-22T10:14:52.532Z</time></trkpt><trkpt lat="44.1857167" lon="8.0495467"><ele>860.9999999999999</ele><time>2026-04-22T10:14:54.532Z</time></trkpt><trkpt lat="44.1858033" lon="8.04962"><ele>861.0</ele><time>2026-04-22T10:14:56.532Z</time></trkpt><trkpt lat="44.1858517" lon="8.0497017"><ele>861.0</ele><time>2026-04-22T10:14:58.532Z</time></trkpt><trkpt lat="44.18595" lon="8.049775"><ele>860.0</ele><time>2026-04-22T10:15:00.532Z</time></trkpt><trkpt lat="44.1860133" lon="8.0498033"><ele>859.0</ele><time>2026-04-22T10:15:01.532Z</time></trkpt><trkpt lat="44.1860867" lon="8.049845"><ele>858.0</ele><time>2026-04-22T10:15:02.532Z</time></trkpt><trkpt lat="44.1861617" lon="8.0498967"><ele>857.0</ele><time>2026-04-22T10:15:03.532Z</time></trkpt><trkpt lat="44.1862283" lon="8.0499483"><ele>856.0</ele><time>2026-04-22T10:15:04.532Z</time></trkpt><trkpt lat="44.186285" lon="8.0499917"><ele>855.0</ele><time>2026-04-22T10:15:05.532Z</time></trkpt><trkpt lat="44.1863967" lon="8.0500183"><ele>853.6</ele><time>2026-04-22T10:15:07.532Z</time></trkpt><trkpt lat="44.186535" lon="8.0499867"><ele>852.2</ele><time>2026-04-22T10:15:09.532Z</time></trkpt><trkpt lat="44.1866033" lon="8.0499683"><ele>850.8</ele><time>2026-04-22T10:15:10.532Z</time></trkpt><trkpt lat="44.1866917" lon="8.0499733"><ele>849.4</ele><time>2026-04-22T10:15:12.532Z</time></trkpt><trkpt lat="44.18679" lon="8.049985"><ele>848.0</ele><time>2026-04-22T10:15:21.532Z</time></trkpt><trkpt lat="44.1869183" lon="8.0500167"><ele>848.0000000000001</ele><time>2026-04-22T10:15:23.531Z</time></trkpt><trkpt lat="44.18701" lon="8.0500417"><ele>848.0</ele><time>2026-04-22T10:15:24.531Z</time></trkpt><trkpt lat="44.1871033" lon="8.05006"><ele>848.0</ele><time>2026-04-22T10:15:25.532Z</time></trkpt><trkpt lat="44.1871933" lon="8.05007"><ele>848.0</ele><time>2026-04-22T10:15:26.532Z</time></trkpt><trkpt lat="44.1872783" lon="8.0500733"><ele>848.0000000000001</ele><time>2026-04-22T10:15:27.532Z</time></trkpt><trkpt lat="44.1873467" lon="8.050065"><ele>848.0</ele><time>2026-04-22T10:15:28.532Z</time></trkpt><trkpt lat="44.18742" lon="8.0500417"><ele>846.0000000000001</ele><time>2026-04-22T10:15:29.532Z</time></trkpt><trkpt lat="44.1874867" lon="8.0500217"><ele>844.0</ele><time>2026-04-22T10:15:30.532Z</time></trkpt><trkpt lat="44.1875683" lon="8.050015"><ele>842.0</ele><time>2026-04-22T10:15:32.532Z</time></trkpt><trkpt lat="44.1876517" lon="8.04998"><ele>840.0</ele><time>2026-04-22T10:15:34.532Z</time></trkpt><trkpt lat="44.1877683" lon="8.0498883"><ele>838.0000000000001</ele><time>2026-04-22T10:15:36.531Z</time></trkpt><trkpt lat="44.18784" lon="8.0498567"><ele>836.0</ele><time>2026-04-22T10:15:37.532Z</time></trkpt><trkpt lat="44.1879117" lon="8.0498467"><ele>834.0000000000001</ele><time>2026-04-22T10:15:38.531Z</time></trkpt><trkpt lat="44.1879917" lon="8.04986"><ele>832.0</ele><time>2026-04-22T10:15:39.532Z</time></trkpt><trkpt lat="44.188075" lon="8.0498867"><ele>830.0</ele><time>2026-04-22T10:15:40.532Z</time></trkpt><trkpt lat="44.18815" lon="8.04993"><ele>828.0</ele><time>2026-04-22T10:15:41.532Z</time></trkpt><trkpt lat="44.1882117" lon="8.0499617"><ele>826.0000000000001</ele><time>2026-04-22T10:15:42.531Z</time></trkpt><trkpt lat="44.18834" lon="8.0499867"><ele>824.0</ele><time>2026-04-22T10:15:44.532Z</time></trkpt><trkpt lat="44.1884067" lon="8.049995"><ele>824.0</ele><time>2026-04-22T10:15:45.532Z</time></trkpt><trkpt lat="44.188525" lon="8.050005"><ele>824.0</ele><time>2026-04-22T10:15:47.532Z</time></trkpt><trkpt lat="44.18862" lon="8.0500417"><ele>824.0</ele><time>2026-04-22T10:15:49.532Z</time></trkpt><trkpt lat="44.18869" lon="8.050095"><ele>824.0</ele><time>2026-04-22T10:15:53.532Z</time></trkpt><trkpt lat="44.18874" lon="8.0501767"><ele>824.0</ele><time>2026-04-22T10:15:55.532Z</time></trkpt><trkpt lat="44.1888333" lon="8.05029"><ele>824.0000000000001</ele><time>2026-04-22T10:15:57.532Z</time></trkpt><trkpt lat="44.1888783" lon="8.0503533"><ele>824.0</ele><time>2026-04-22T10:15:58.532Z</time></trkpt><trkpt lat="44.1889133" lon="8.0504317"><ele>824.0</ele><time>2026-04-22T10:15:59.532Z</time></trkpt><trkpt lat="44.1889467" lon="8.05051"><ele>824.0</ele><time>2026-04-22T10:16:00.532Z</time></trkpt><trkpt lat="44.189005" lon="8.0506567"><ele>824.0000000000001</ele><time>2026-04-22T10:16:02.532Z</time></trkpt><trkpt lat="44.189045" lon="8.0507367"><ele>824.0</ele><time>2026-04-22T10:16:03.532Z</time></trkpt><trkpt lat="44.18908" lon="8.0508133"><ele>822.1666666666667</ele><time>2026-04-22T10:16:04.532Z</time></trkpt><trkpt lat="44.1891267" lon="8.0509533"><ele>820.3333333333334</ele><time>2026-04-22T10:16:06.532Z</time></trkpt><trkpt lat="44.1891367" lon="8.0510683"><ele>818.5</ele><time>2026-04-22T10:16:08.532Z</time></trkpt><trkpt lat="44.1892083" lon="8.0510867"><ele>816.6666666666667</ele><time>2026-04-22T10:16:11.532Z</time></trkpt><trkpt lat="44.1892733" lon="8.0509867"><ele>814.8333333333334</ele><time>2026-04-22T10:16:13.531Z</time></trkpt><trkpt lat="44.189325" lon="8.05093"><ele>813.0</ele><time>2026-04-22T10:16:14.532Z</time></trkpt><trkpt lat="44.1893983" lon="8.05086"><ele>813.0</ele><time>2026-04-22T10:16:15.532Z</time></trkpt><trkpt lat="44.1894717" lon="8.05081"><ele>813.0</ele><time>2026-04-22T10:16:16.532Z</time></trkpt><trkpt lat="44.1895433" lon="8.05077"><ele>813.0</ele><time>2026-04-22T10:16:17.532Z</time></trkpt><trkpt lat="44.189615" lon="8.050735"><ele>813.0</ele><time>2026-04-22T10:16:18.532Z</time></trkpt><trkpt lat="44.18968" lon="8.05069"><ele>813.0</ele><time>2026-04-22T10:16:19.532Z</time></trkpt><trkpt lat="44.1897467" lon="8.0506317"><ele>813.0</ele><time>2026-04-22T10:16:20.532Z</time></trkpt><trkpt lat="44.18984" lon="8.0505583"><ele>808.2</ele><time>2026-04-22T10:16:21.532Z</time></trkpt><trkpt lat="44.189925" lon="8.0504833"><ele>803.4</ele><time>2026-04-22T10:16:22.532Z</time></trkpt><trkpt lat="44.1900183" lon="8.0504083"><ele>798.6</ele><time>2026-04-22T10:16:23.531Z</time></trkpt><trkpt lat="44.1901267" lon="8.05033"><ele>793.8000000000001</ele><time>2026-04-22T10:16:24.531Z</time></trkpt><trkpt lat="44.1902267" lon="8.050255"><ele>789.0</ele><time>2026-04-22T10:16:25.532Z</time></trkpt><trkpt lat="44.1903133" lon="8.0501717"><ele>789.0</ele><time>2026-04-22T10:16:26.532Z</time></trkpt><trkpt lat="44.1904017" lon="8.05012"><ele>789.0</ele><time>2026-04-22T10:16:27.532Z</time></trkpt><trkpt lat="44.1904917" lon="8.0500333"><ele>789.0</ele><time>2026-04-22T10:16:28.532Z</time></trkpt><trkpt lat="44.1905783" lon="8.0499483"><ele>789.0</ele><time>2026-04-22T10:16:29.532Z</time></trkpt><trkpt lat="44.1906367" lon="8.0498617"><ele>789.0</ele><time>2026-04-22T10:16:30.532Z</time></trkpt><trkpt lat="44.1906883" lon="8.0497883"><ele>787.1666666666666</ele><time>2026-04-22T10:16:31.532Z</time></trkpt><trkpt lat="44.1907433" lon="8.049715"><ele>785.3333333333333</ele><time>2026-04-22T10:16:32.532Z</time></trkpt><trkpt lat="44.1908" lon="8.04964"><ele>783.5</ele><time>2026-04-22T10:16:33.531Z</time></trkpt><trkpt lat="44.1908617" lon="8.0495717"><ele>781.6666666666666</ele><time>2026-04-22T10:16:34.532Z</time></trkpt><trkpt lat="44.19094" lon="8.04951"><ele>779.8333333333333</ele><time>2026-04-22T10:16:35.532Z</time></trkpt><trkpt lat="44.191015" lon="8.04947"><ele>778.0</ele><time>2026-04-22T10:16:36.532Z</time></trkpt><trkpt lat="44.1910817" lon="8.049415"><ele>777.9999999999999</ele><time>2026-04-22T10:16:37.531Z</time></trkpt><trkpt lat="44.1911383" lon="8.049345"><ele>778.0</ele><time>2026-04-22T10:16:38.532Z</time></trkpt><trkpt lat="44.1911883" lon="8.04927"><ele>778.0</ele><time>2026-04-22T10:16:39.532Z</time></trkpt><trkpt lat="44.1912383" lon="8.0492017"><ele>778.0</ele><time>2026-04-22T10:16:40.532Z</time></trkpt><trkpt lat="44.191295" lon="8.0491217"><ele>777.9999999999999</ele><time>2026-04-22T10:16:41.532Z</time></trkpt><trkpt lat="44.191355" lon="8.0490567"><ele>778.0</ele><time>2026-04-22T10:16:42.531Z</time></trkpt><trkpt lat="44.1914217" lon="8.0490017"><ele>776.8333333333333</ele><time>2026-04-22T10:16:43.532Z</time></trkpt><trkpt lat="44.19153" lon="8.048915"><ele>775.6666666666666</ele><time>2026-04-22T10:16:45.531Z</time></trkpt><trkpt lat="44.1915783" lon="8.0488533"><ele>774.5</ele><time>2026-04-22T10:16:46.532Z</time></trkpt><trkpt lat="44.19163" lon="8.0487617"><ele>773.3333333333333</ele><time>2026-04-22T10:16:47.532Z</time></trkpt><trkpt lat="44.1916717" lon="8.0486533"><ele>772.1666666666666</ele><time>2026-04-22T10:16:48.532Z</time></trkpt><trkpt lat="44.1916983" lon="8.0485567"><ele>771.0</ele><time>2026-04-22T10:16:49.532Z</time></trkpt><trkpt lat="44.1917167" lon="8.04838"><ele>769.7142857142858</ele><time>2026-04-22T10:16:51.531Z</time></trkpt><trkpt lat="44.1917283" lon="8.0482767"><ele>768.4285714285713</ele><time>2026-04-22T10:16:52.532Z</time></trkpt><trkpt lat="44.1917333" lon="8.0481683"><ele>767.1428571428571</ele><time>2026-04-22T10:16:53.532Z</time></trkpt><trkpt lat="44.1917267" lon="8.0480667"><ele>765.8571428571429</ele><time>2026-04-22T10:16:54.531Z</time></trkpt><trkpt lat="44.191715" lon="8.04796"><ele>764.5714285714287</ele><time>2026-04-22T10:16:55.532Z</time></trkpt><trkpt lat="44.191705" lon="8.0478617"><ele>763.2857142857142</ele><time>2026-04-22T10:16:56.532Z</time></trkpt><trkpt lat="44.191695" lon="8.0477583"><ele>762.0</ele><time>2026-04-22T10:16:57.532Z</time></trkpt><trkpt lat="44.19168" lon="8.0476517"><ele>762.0</ele><time>2026-04-22T10:16:58.532Z</time></trkpt><trkpt lat="44.1916767" lon="8.0475433"><ele>762.0</ele><time>2026-04-22T10:16:59.532Z</time></trkpt><trkpt lat="44.191685" lon="8.0474417"><ele>762.0</ele><time>2026-04-22T10:17:00.531Z</time></trkpt><trkpt lat="44.1917" lon="8.0473283"><ele>762.0</ele><time>2026-04-22T10:17:01.532Z</time></trkpt><trkpt lat="44.1917083" lon="8.0472283"><ele>762.0</ele><time>2026-04-22T10:17:02.532Z</time></trkpt><trkpt lat="44.1917083" lon="8.0470883"><ele>762.0</ele><time>2026-04-22T10:17:04.532Z</time></trkpt><trkpt lat="44.1916983" lon="8.0469333"><ele>759.0</ele><time>2026-04-22T10:17:06.532Z</time></trkpt><trkpt lat="44.1917183" lon="8.0468033"><ele>756.0</ele><time>2026-04-22T10:17:08.532Z</time></trkpt><trkpt lat="44.1917767" lon="8.0467"><ele>753.0</ele><time>2026-04-22T10:17:10.531Z</time></trkpt><trkpt lat="44.191825" lon="8.046595"><ele>750.0</ele><time>2026-04-22T10:17:12.531Z</time></trkpt><trkpt lat="44.1918317" lon="8.046415"><ele>747.0</ele><time>2026-04-22T10:17:55.532Z</time></trkpt><trkpt lat="44.1918333" lon="8.046305"><ele>744.1666666666666</ele><time>2026-04-22T10:17:57.532Z</time></trkpt><trkpt lat="44.1918233" lon="8.046165"><ele>741.3333333333334</ele><time>2026-04-22T10:17:59.532Z</time></trkpt><trkpt lat="44.1917833" lon="8.0460433"><ele>738.5</ele><time>2026-04-22T10:18:01.531Z</time></trkpt><trkpt lat="44.19175" lon="8.04593"><ele>735.6666666666667</ele><time>2026-04-22T10:18:03.532Z</time></trkpt><trkpt lat="44.1917717" lon="8.0458267"><ele>732.8333333333334</ele><time>2026-04-22T10:18:06.532Z</time></trkpt><trkpt lat="44.19177" lon="8.045735"><ele>730.0</ele><time>2026-04-22T10:18:08.532Z</time></trkpt><trkpt lat="44.191715" lon="8.0456833"><ele>726.3333333333334</ele><time>2026-04-22T10:18:09.531Z</time></trkpt><trkpt lat="44.1916567" lon="8.04565"><ele>722.6666666666667</ele><time>2026-04-22T10:18:10.531Z</time></trkpt><trkpt lat="44.19159" lon="8.04562"><ele>719.0</ele><time>2026-04-22T10:18:11.532Z</time></trkpt><trkpt lat="44.1915267" lon="8.0455917"><ele>715.3333333333334</ele><time>2026-04-22T10:18:12.532Z</time></trkpt><trkpt lat="44.1914583" lon="8.0455183"><ele>711.6666666666666</ele><time>2026-04-22T10:18:14.532Z</time></trkpt><trkpt lat="44.1914317" lon="8.04536"><ele>708.0</ele><time>2026-04-22T10:18:16.531Z</time></trkpt><trkpt lat="44.1914033" lon="8.045275"><ele>707.2</ele><time>2026-04-22T10:18:17.532Z</time></trkpt><trkpt lat="44.1913683" lon="8.0452"><ele>706.4</ele><time>2026-04-22T10:18:18.532Z</time></trkpt><trkpt lat="44.1912683" lon="8.0451133"><ele>705.6</ele><time>2026-04-22T10:18:20.532Z</time></trkpt><trkpt lat="44.19115" lon="8.045095"><ele>704.8000000000001</ele><time>2026-04-22T10:18:22.532Z</time></trkpt><trkpt lat="44.19108" lon="8.0450733"><ele>704.0</ele><time>2026-04-22T10:18:23.532Z</time></trkpt><trkpt lat="44.1910033" lon="8.045045"><ele>704.0</ele><time>2026-04-22T10:18:24.532Z</time></trkpt><trkpt lat="44.19091" lon="8.0450167"><ele>704.0</ele><time>2026-04-22T10:18:25.531Z</time></trkpt><trkpt lat="44.190805" lon="8.04498"><ele>704.0</ele><time>2026-04-22T10:18:26.531Z</time></trkpt><trkpt lat="44.1907217" lon="8.0449533"><ele>704.0</ele><time>2026-04-22T10:18:27.532Z</time></trkpt><trkpt lat="44.1906567" lon="8.044925"><ele>704.0</ele><time>2026-04-22T10:18:28.532Z</time></trkpt><trkpt lat="44.190535" lon="8.044895"><ele>700.3333333333333</ele><time>2026-04-22T10:18:30.532Z</time></trkpt><trkpt lat="44.1904317" lon="8.0449017"><ele>696.6666666666666</ele><time>2026-04-22T10:18:32.531Z</time></trkpt><trkpt lat="44.1904483" lon="8.0448167"><ele>693.0</ele><time>2026-04-22T10:18:36.532Z</time></trkpt><trkpt lat="44.1905417" lon="8.0446883"><ele>689.3333333333334</ele><time>2026-04-22T10:18:38.532Z</time></trkpt><trkpt lat="44.1906" lon="8.0446183"><ele>685.6666666666667</ele><time>2026-04-22T10:18:39.532Z</time></trkpt><trkpt lat="44.19066" lon="8.0445567"><ele>682.0</ele><time>2026-04-22T10:18:40.532Z</time></trkpt><trkpt lat="44.1907367" lon="8.0444783"><ele>682.0</ele><time>2026-04-22T10:18:42.532Z</time></trkpt><trkpt lat="44.1908367" lon="8.0444017"><ele>682.0</ele><time>2026-04-22T10:18:44.532Z</time></trkpt><trkpt lat="44.1909267" lon="8.044335"><ele>682.0</ele><time>2026-04-22T10:18:46.532Z</time></trkpt><trkpt lat="44.190985" lon="8.0442883"><ele>682.0</ele><time>2026-04-22T10:18:48.532Z</time></trkpt><trkpt lat="44.191065" lon="8.04423"><ele>682.0</ele><time>2026-04-22T10:18:51.532Z</time></trkpt><trkpt lat="44.1909917" lon="8.04425"><ele>682.0</ele><time>2026-04-22T10:19:02.531Z</time></trkpt><trkpt lat="44.1909283" lon="8.0442967"><ele>682.0</ele><time>2026-04-22T10:19:04.532Z</time></trkpt><trkpt lat="44.190845" lon="8.0443533"><ele>682.0</ele><time>2026-04-22T10:19:06.532Z</time></trkpt><trkpt lat="44.1907767" lon="8.0444017"><ele>682.0</ele><time>2026-04-22T10:19:08.531Z</time></trkpt><trkpt lat="44.1906983" lon="8.0444417"><ele>682.0</ele><time>2026-04-22T10:19:10.532Z</time></trkpt><trkpt lat="44.19062" lon="8.04448"><ele>682.0</ele><time>2026-04-22T10:19:12.532Z</time></trkpt><trkpt lat="44.190685" lon="8.0444283"><ele>682.0</ele><time>2026-04-22T10:19:28.532Z</time></trkpt><trkpt lat="44.1907567" lon="8.0443583"><ele>682.0</ele><time>2026-04-22T10:19:30.532Z</time></trkpt><trkpt lat="44.1908483" lon="8.0442833"><ele>682.0</ele><time>2026-04-22T10:19:32.532Z</time></trkpt><trkpt lat="44.1909483" lon="8.044185"><ele>682.0</ele><time>2026-04-22T10:19:34.532Z</time></trkpt><trkpt lat="44.1909983" lon="8.04412"><ele>682.0</ele><time>2026-04-22T10:19:35.531Z</time></trkpt><trkpt lat="44.19106" lon="8.0440467"><ele>682.0</ele><time>2026-04-22T10:19:36.532Z</time></trkpt><trkpt lat="44.1911067" lon="8.0439683"><ele>680.2857142857142</ele><time>2026-04-22T10:19:37.532Z</time></trkpt><trkpt lat="44.1911517" lon="8.043885"><ele>678.5714285714286</ele><time>2026-04-22T10:19:38.532Z</time></trkpt><trkpt lat="44.1911967" lon="8.04381"><ele>676.8571428571429</ele><time>2026-04-22T10:19:39.531Z</time></trkpt><trkpt lat="44.19124" lon="8.04374"><ele>675.1428571428571</ele><time>2026-04-22T10:19:40.532Z</time></trkpt><trkpt lat="44.1912883" lon="8.04367"><ele>673.4285714285714</ele><time>2026-04-22T10:19:41.532Z</time></trkpt><trkpt lat="44.1913433" lon="8.0436217"><ele>671.7142857142857</ele><time>2026-04-22T10:19:42.532Z</time></trkpt><trkpt lat="44.1913983" lon="8.04357"><ele>670.0</ele><time>2026-04-22T10:19:43.531Z</time></trkpt><trkpt lat="44.19148" lon="8.04346"><ele>669.0</ele><time>2026-04-22T10:19:44.532Z</time></trkpt><trkpt lat="44.1915617" lon="8.0433467"><ele>668.0</ele><time>2026-04-22T10:19:45.531Z</time></trkpt><trkpt lat="44.1916467" lon="8.043235"><ele>667.0</ele><time>2026-04-22T10:19:46.531Z</time></trkpt><trkpt lat="44.1917183" lon="8.0431367"><ele>666.0</ele><time>2026-04-22T10:19:47.532Z</time></trkpt><trkpt lat="44.1917883" lon="8.043045"><ele>665.0</ele><time>2026-04-22T10:19:48.532Z</time></trkpt><trkpt lat="44.1918667" lon="8.042955"><ele>664.0</ele><time>2026-04-22T10:19:49.532Z</time></trkpt><trkpt lat="44.191965" lon="8.0428633"><ele>663.0</ele><time>2026-04-22T10:19:50.532Z</time></trkpt><trkpt lat="44.192065" lon="8.04279"><ele>662.0</ele><time>2026-04-22T10:19:51.532Z</time></trkpt><trkpt lat="44.1921567" lon="8.0427167"><ele>661.0</ele><time>2026-04-22T10:19:52.532Z</time></trkpt><trkpt lat="44.192225" lon="8.0426533"><ele>660.0</ele><time>2026-04-22T10:19:53.532Z</time></trkpt><trkpt lat="44.1922817" lon="8.0425917"><ele>660.0</ele><time>2026-04-22T10:19:54.532Z</time></trkpt><trkpt lat="44.1923167" lon="8.0425133"><ele>660.0</ele><time>2026-04-22T10:19:55.532Z</time></trkpt><trkpt lat="44.1923517" lon="8.0424183"><ele>660.0</ele><time>2026-04-22T10:19:56.531Z</time></trkpt><trkpt lat="44.1924067" lon="8.042295"><ele>660.0</ele><time>2026-04-22T10:19:57.532Z</time></trkpt><trkpt lat="44.1924833" lon="8.0421283"><ele>660.0</ele><time>2026-04-22T10:19:58.532Z</time></trkpt><trkpt lat="44.1925533" lon="8.0419667"><ele>658.25</ele><time>2026-04-22T10:19:59.532Z</time></trkpt><trkpt lat="44.1926283" lon="8.0418"><ele>656.5</ele><time>2026-04-22T10:20:00.532Z</time></trkpt><trkpt lat="44.1927033" lon="8.0416517"><ele>654.75</ele><time>2026-04-22T10:20:01.532Z</time></trkpt><trkpt lat="44.192755" lon="8.04153"><ele>653.0</ele><time>2026-04-22T10:20:02.532Z</time></trkpt><trkpt lat="44.192805" lon="8.0414283"><ele>652.5</ele><time>2026-04-22T10:20:03.532Z</time></trkpt><trkpt lat="44.1928483" lon="8.04132"><ele>652.0</ele><time>2026-04-22T10:20:04.532Z</time></trkpt><trkpt lat="44.1928833" lon="8.04122"><ele>651.5</ele><time>2026-04-22T10:20:05.532Z</time></trkpt><trkpt lat="44.1929217" lon="8.0411217"><ele>651.0</ele><time>2026-04-22T10:20:06.532Z</time></trkpt><trkpt lat="44.19296" lon="8.0410267"><ele>650.5</ele><time>2026-04-22T10:20:07.532Z</time></trkpt><trkpt lat="44.19297" lon="8.0409283"><ele>650.0</ele><time>2026-04-22T10:20:08.531Z</time></trkpt><trkpt lat="44.1929767" lon="8.0408283"><ele>648.8</ele><time>2026-04-22T10:20:09.531Z</time></trkpt><trkpt lat="44.1930133" lon="8.0407283"><ele>647.6</ele><time>2026-04-22T10:20:10.531Z</time></trkpt><trkpt lat="44.1930583" lon="8.0406167"><ele>646.4000000000001</ele><time>2026-04-22T10:20:11.532Z</time></trkpt><trkpt lat="44.193125" lon="8.040495"><ele>645.2</ele><time>2026-04-22T10:20:12.532Z</time></trkpt><trkpt lat="44.193205" lon="8.0403833"><ele>644.0</ele><time>2026-04-22T10:20:13.531Z</time></trkpt><trkpt lat="44.19326" lon="8.0402733"><ele>644.0</ele><time>2026-04-22T10:20:14.532Z</time></trkpt><trkpt lat="44.19331" lon="8.04016"><ele>644.0</ele><time>2026-04-22T10:20:15.531Z</time></trkpt><trkpt lat="44.193345" lon="8.0400383"><ele>644.0</ele><time>2026-04-22T10:20:16.532Z</time></trkpt><trkpt lat="44.19338" lon="8.0398983"><ele>644.0</ele><time>2026-04-22T10:20:17.531Z</time></trkpt><trkpt lat="44.19341" lon="8.0397717"><ele>644.0</ele><time>2026-04-22T10:20:18.532Z</time></trkpt><trkpt lat="44.1934317" lon="8.0396417"><ele>644.8333333333333</ele><time>2026-04-22T10:20:19.532Z</time></trkpt><trkpt lat="44.1934217" lon="8.0395067"><ele>645.6666666666666</ele><time>2026-04-22T10:20:20.532Z</time></trkpt><trkpt lat="44.1934083" lon="8.0393733"><ele>646.5</ele><time>2026-04-22T10:20:21.532Z</time></trkpt><trkpt lat="44.1933867" lon="8.0392583"><ele>647.3333333333334</ele><time>2026-04-22T10:20:22.532Z</time></trkpt><trkpt lat="44.1933583" lon="8.039155"><ele>648.1666666666667</ele><time>2026-04-22T10:20:23.531Z</time></trkpt><trkpt lat="44.19335" lon="8.03906"><ele>649.0</ele><time>2026-04-22T10:20:24.532Z</time></trkpt><trkpt lat="44.19338" lon="8.03889"><ele>653.0</ele><time>2026-04-22T10:20:26.532Z</time></trkpt><trkpt lat="44.19341" lon="8.0387867"><ele>657.0</ele><time>2026-04-22T10:20:27.532Z</time></trkpt><trkpt lat="44.1934467" lon="8.038675"><ele>661.0</ele><time>2026-04-22T10:20:28.532Z</time></trkpt><trkpt lat="44.1934967" lon="8.038555"><ele>665.0</ele><time>2026-04-22T10:20:29.532Z</time></trkpt><trkpt lat="44.193555" lon="8.0384317"><ele>669.0</ele><time>2026-04-22T10:20:30.532Z</time></trkpt><trkpt lat="44.19362" lon="8.0383117"><ele>665.6</ele><time>2026-04-22T10:20:31.531Z</time></trkpt><trkpt lat="44.1936867" lon="8.0382067"><ele>662.2</ele><time>2026-04-22T10:20:32.532Z</time></trkpt><trkpt lat="44.193765" lon="8.038125"><ele>658.8000000000001</ele><time>2026-04-22T10:20:33.532Z</time></trkpt><trkpt lat="44.1938683" lon="8.0380483"><ele>655.4000000000001</ele><time>2026-04-22T10:20:34.532Z</time></trkpt><trkpt lat="44.19397" lon="8.03798"><ele>652.0</ele><time>2026-04-22T10:20:35.532Z</time></trkpt><trkpt lat="44.1940583" lon="8.0379217"><ele>652.0</ele><time>2026-04-22T10:20:36.532Z</time></trkpt><trkpt lat="44.19414" lon="8.0378583"><ele>652.0</ele><time>2026-04-22T10:20:37.531Z</time></trkpt><trkpt lat="44.19421" lon="8.03777"><ele>652.0</ele><time>2026-04-22T10:20:38.531Z</time></trkpt><trkpt lat="44.194275" lon="8.037655"><ele>652.0</ele><time>2026-04-22T10:20:39.532Z</time></trkpt><trkpt lat="44.194345" lon="8.0375083"><ele>652.0</ele><time>2026-04-22T10:20:40.532Z</time></trkpt><trkpt lat="44.1944167" lon="8.0373567"><ele>659.25</ele><time>2026-04-22T10:20:41.532Z</time></trkpt><trkpt lat="44.194485" lon="8.0372267"><ele>666.5</ele><time>2026-04-22T10:20:42.532Z</time></trkpt><trkpt lat="44.1945567" lon="8.03712"><ele>673.75</ele><time>2026-04-22T10:20:43.531Z</time></trkpt><trkpt lat="44.1946333" lon="8.0369883"><ele>681.0</ele><time>2026-04-22T10:20:44.532Z</time></trkpt><trkpt lat="44.1947117" lon="8.03686"><ele>681.0</ele><time>2026-04-22T10:20:45.532Z</time></trkpt><trkpt lat="44.1947967" lon="8.0367333"><ele>681.0</ele><time>2026-04-22T10:20:46.532Z</time></trkpt><trkpt lat="44.1948733" lon="8.0365983"><ele>681.0</ele><time>2026-04-22T10:20:47.531Z</time></trkpt><trkpt lat="44.1949383" lon="8.0364667"><ele>681.0</ele><time>2026-04-22T10:20:48.532Z</time></trkpt><trkpt lat="44.1949983" lon="8.0363283"><ele>676.75</ele><time>2026-04-22T10:20:49.531Z</time></trkpt><trkpt lat="44.1950583" lon="8.0361933"><ele>672.5</ele><time>2026-04-22T10:20:50.532Z</time></trkpt><trkpt lat="44.19513" lon="8.0360583"><ele>668.25</ele><time>2026-04-22T10:20:51.531Z</time></trkpt><trkpt lat="44.1952017" lon="8.0359217"><ele>664.0</ele><time>2026-04-22T10:20:52.532Z</time></trkpt><trkpt lat="44.1952633" lon="8.03578"><ele>664.0</ele><time>2026-04-22T10:20:53.532Z</time></trkpt><trkpt lat="44.1953333" lon="8.0356267"><ele>664.0</ele><time>2026-04-22T10:20:54.531Z</time></trkpt><trkpt lat="44.195395" lon="8.0354617"><ele>664.0</ele><time>2026-04-22T10:20:55.531Z</time></trkpt><trkpt lat="44.1954483" lon="8.035295"><ele>664.0</ele><time>2026-04-22T10:20:56.532Z</time></trkpt><trkpt lat="44.1955" lon="8.0351233"><ele>666.0</ele><time>2026-04-22T10:20:57.532Z</time></trkpt><trkpt lat="44.1955567" lon="8.0349633"><ele>668.0</ele><time>2026-04-22T10:20:58.532Z</time></trkpt><trkpt lat="44.1956133" lon="8.0348017"><ele>670.0</ele><time>2026-04-22T10:20:59.532Z</time></trkpt><trkpt lat="44.1956567" lon="8.0346567"><ele>672.0</ele><time>2026-04-22T10:21:00.532Z</time></trkpt><trkpt lat="44.1957083" lon="8.03453"><ele>663.0</ele><time>2026-04-22T10:21:01.532Z</time></trkpt><trkpt lat="44.1957367" lon="8.0343883"><ele>654.0</ele><time>2026-04-22T10:21:02.532Z</time></trkpt><trkpt lat="44.19574" lon="8.034235"><ele>645.0</ele><time>2026-04-22T10:21:03.531Z</time></trkpt><trkpt lat="44.1957433" lon="8.03405"><ele>636.0</ele><time>2026-04-22T10:21:04.532Z</time></trkpt><trkpt lat="44.1957533" lon="8.0338483"><ele>636.0</ele><time>2026-04-22T10:21:05.532Z</time></trkpt><trkpt lat="44.1957817" lon="8.0336617"><ele>636.0</ele><time>2026-04-22T10:21:06.532Z</time></trkpt><trkpt lat="44.1958117" lon="8.0335067"><ele>636.0</ele><time>2026-04-22T10:21:07.531Z</time></trkpt><trkpt lat="44.1958283" lon="8.03338"><ele>636.0</ele><time>2026-04-22T10:21:08.532Z</time></trkpt><trkpt lat="44.1958517" lon="8.033275"><ele>636.0</ele><time>2026-04-22T10:21:09.532Z</time></trkpt><trkpt lat="44.1958883" lon="8.0331767"><ele>638.5</ele><time>2026-04-22T10:21:10.532Z</time></trkpt><trkpt lat="44.195945" lon="8.0330617"><ele>641.0</ele><time>2026-04-22T10:21:11.532Z</time></trkpt><trkpt lat="44.196" lon="8.0329117"><ele>643.5</ele><time>2026-04-22T10:21:12.532Z</time></trkpt><trkpt lat="44.1960633" lon="8.0327467"><ele>646.0</ele><time>2026-04-22T10:21:13.532Z</time></trkpt><trkpt lat="44.1961133" lon="8.0325783"><ele>646.4</ele><time>2026-04-22T10:21:14.532Z</time></trkpt><trkpt lat="44.1961633" lon="8.0324283"><ele>646.8</ele><time>2026-04-22T10:21:15.532Z</time></trkpt><trkpt lat="44.1961983" lon="8.032295"><ele>647.1999999999999</ele><time>2026-04-22T10:21:16.532Z</time></trkpt><trkpt lat="44.19622" lon="8.0321817"><ele>647.5999999999999</ele><time>2026-04-22T10:21:17.532Z</time></trkpt><trkpt lat="44.1962767" lon="8.0321133"><ele>648.0</ele><time>2026-04-22T10:21:19.532Z</time></trkpt><trkpt lat="44.196365" lon="8.032165"><ele>648.0</ele><time>2026-04-22T10:21:22.532Z</time></trkpt><trkpt lat="44.196465" lon="8.0322183"><ele>648.0</ele><time>2026-04-22T10:21:24.532Z</time></trkpt><trkpt lat="44.1965817" lon="8.0321467"><ele>648.0</ele><time>2026-04-22T10:21:26.532Z</time></trkpt><trkpt lat="44.1966433" lon="8.0320883"><ele>648.0</ele><time>2026-04-22T10:21:27.532Z</time></trkpt><trkpt lat="44.196725" lon="8.031995"><ele>648.0</ele><time>2026-04-22T10:21:29.532Z</time></trkpt><trkpt lat="44.1967233" lon="8.031885"><ele>643.0</ele><time>2026-04-22T10:23:49.532Z</time></trkpt><trkpt lat="44.19673" lon="8.0317917"><ele>638.0</ele><time>2026-04-22T10:23:50.532Z</time></trkpt><trkpt lat="44.1967483" lon="8.0316817"><ele>633.0</ele><time>2026-04-22T10:23:51.531Z</time></trkpt><trkpt lat="44.1967867" lon="8.0315817"><ele>628.0</ele><time>2026-04-22T10:23:52.532Z</time></trkpt><trkpt lat="44.19683" lon="8.031475"><ele>623.0</ele><time>2026-04-22T10:23:53.532Z</time></trkpt><trkpt lat="44.19688" lon="8.03136"><ele>618.0</ele><time>2026-04-22T10:23:54.532Z</time></trkpt><trkpt lat="44.1969317" lon="8.03125"><ele>618.0</ele><time>2026-04-22T10:23:55.532Z</time></trkpt><trkpt lat="44.1969817" lon="8.0311317"><ele>618.0</ele><time>2026-04-22T10:23:56.532Z</time></trkpt><trkpt lat="44.1970333" lon="8.0310383"><ele>618.0</ele><time>2026-04-22T10:23:57.532Z</time></trkpt><trkpt lat="44.1970817" lon="8.0309583"><ele>618.0</ele><time>2026-04-22T10:23:58.532Z</time></trkpt><trkpt lat="44.1971333" lon="8.0308667"><ele>618.0</ele><time>2026-04-22T10:23:59.531Z</time></trkpt><trkpt lat="44.1971917" lon="8.030775"><ele>618.0</ele><time>2026-04-22T10:24:00.532Z</time></trkpt><trkpt lat="44.1972367" lon="8.03069"><ele>617.8</ele><time>2026-04-22T10:24:01.532Z</time></trkpt><trkpt lat="44.1972833" lon="8.030585"><ele>617.5999999999999</ele><time>2026-04-22T10:24:02.532Z</time></trkpt><trkpt lat="44.1973367" lon="8.030475"><ele>617.4000000000001</ele><time>2026-04-22T10:24:03.532Z</time></trkpt><trkpt lat="44.1973917" lon="8.0303583"><ele>617.2</ele><time>2026-04-22T10:24:04.532Z</time></trkpt><trkpt lat="44.1974467" lon="8.03024"><ele>617.0</ele><time>2026-04-22T10:24:05.532Z</time></trkpt><trkpt lat="44.19749" lon="8.0301117"><ele>615.8000000000001</ele><time>2026-04-22T10:24:06.531Z</time></trkpt><trkpt lat="44.1975167" lon="8.0299817"><ele>614.6</ele><time>2026-04-22T10:24:07.532Z</time></trkpt><trkpt lat="44.1975333" lon="8.0298367"><ele>613.4000000000001</ele><time>2026-04-22T10:24:08.531Z</time></trkpt><trkpt lat="44.1975533" lon="8.0296967"><ele>612.2</ele><time>2026-04-22T10:24:09.532Z</time></trkpt><trkpt lat="44.1975767" lon="8.02956"><ele>611.0</ele><time>2026-04-22T10:24:10.532Z</time></trkpt><trkpt lat="44.1975867" lon="8.0294467"><ele>611.0</ele><time>2026-04-22T10:24:11.531Z</time></trkpt><trkpt lat="44.1975867" lon="8.0293583"><ele>611.0</ele><time>2026-04-22T10:24:12.532Z</time></trkpt><trkpt lat="44.197575" lon="8.0292317"><ele>611.0</ele><time>2026-04-22T10:24:14.531Z</time></trkpt><trkpt lat="44.1975517" lon="8.02915"><ele>611.0</ele><time>2026-04-22T10:24:15.532Z</time></trkpt><trkpt lat="44.1975167" lon="8.029055"><ele>611.0</ele><time>2026-04-22T10:24:16.532Z</time></trkpt><trkpt lat="44.19748" lon="8.0289417"><ele>611.0</ele><time>2026-04-22T10:24:17.531Z</time></trkpt><trkpt lat="44.19745" lon="8.028835"><ele>612.6</ele><time>2026-04-22T10:24:18.532Z</time></trkpt><trkpt lat="44.1974383" lon="8.0287383"><ele>614.2</ele><time>2026-04-22T10:24:19.532Z</time></trkpt><trkpt lat="44.197485" lon="8.0286017"><ele>615.8</ele><time>2026-04-22T10:24:21.532Z</time></trkpt><trkpt lat="44.19753" lon="8.02852"><ele>617.4</ele><time>2026-04-22T10:24:22.532Z</time></trkpt><trkpt lat="44.1975817" lon="8.02841"><ele>619.0</ele><time>2026-04-22T10:24:23.532Z</time></trkpt><trkpt lat="44.1976733" lon="8.0282867"><ele>623.0</ele><time>2026-04-22T10:24:24.532Z</time></trkpt><trkpt lat="44.1977833" lon="8.0281533"><ele>627.0</ele><time>2026-04-22T10:24:25.532Z</time></trkpt><trkpt lat="44.1979083" lon="8.0280217"><ele>631.0</ele><time>2026-04-22T10:24:26.532Z</time></trkpt><trkpt lat="44.1980467" lon="8.0278767"><ele>622.0</ele><time>2026-04-22T10:24:27.532Z</time></trkpt><trkpt lat="44.1981817" lon="8.02771"><ele>613.0</ele><time>2026-04-22T10:24:28.531Z</time></trkpt><trkpt lat="44.1983067" lon="8.0275483"><ele>604.0</ele><time>2026-04-22T10:24:29.532Z</time></trkpt><trkpt lat="44.1984467" lon="8.0274"><ele>604.0</ele><time>2026-04-22T10:24:30.531Z</time></trkpt><trkpt lat="44.19859" lon="8.0272683"><ele>604.0</ele><time>2026-04-22T10:24:31.532Z</time></trkpt><trkpt lat="44.1987217" lon="8.0271167"><ele>604.0</ele><time>2026-04-22T10:24:32.532Z</time></trkpt><trkpt lat="44.198845" lon="8.026965"><ele>604.0</ele><time>2026-04-22T10:24:33.532Z</time></trkpt><trkpt lat="44.1989683" lon="8.0268133"><ele>604.0</ele><time>2026-04-22T10:24:34.532Z</time></trkpt><trkpt lat="44.199085" lon="8.02666"><ele>604.0</ele><time>2026-04-22T10:24:35.532Z</time></trkpt><trkpt lat="44.1992" lon="8.026515"><ele>601.6666666666667</ele><time>2026-04-22T10:24:36.532Z</time></trkpt><trkpt lat="44.1993167" lon="8.0263567"><ele>599.3333333333334</ele><time>2026-04-22T10:24:37.532Z</time></trkpt><trkpt lat="44.1994317" lon="8.0262017"><ele>597.0</ele><time>2026-04-22T10:24:38.532Z</time></trkpt><trkpt lat="44.1995567" lon="8.0260417"><ele>597.0</ele><time>2026-04-22T10:24:39.532Z</time></trkpt><trkpt lat="44.1996767" lon="8.0258817"><ele>597.0</ele><time>2026-04-22T10:24:40.531Z</time></trkpt><trkpt lat="44.1997833" lon="8.0257067"><ele>597.0</ele><time>2026-04-22T10:24:41.532Z</time></trkpt><trkpt lat="44.19989" lon="8.0255417"><ele>597.0</ele><time>2026-04-22T10:24:42.532Z</time></trkpt><trkpt lat="44.1999917" lon="8.0253883"><ele>597.0</ele><time>2026-04-22T10:24:43.532Z</time></trkpt><trkpt lat="44.2001" lon="8.0252267"><ele>597.0</ele><time>2026-04-22T10:24:44.532Z</time></trkpt><trkpt lat="44.2002233" lon="8.025045"><ele>596.0</ele><time>2026-04-22T10:24:45.532Z</time></trkpt><trkpt lat="44.2003417" lon="8.0248767"><ele>595.0</ele><time>2026-04-22T10:24:46.532Z</time></trkpt><trkpt lat="44.200465" lon="8.02469"><ele>594.0</ele><time>2026-04-22T10:24:47.532Z</time></trkpt><trkpt lat="44.2005783" lon="8.024525"><ele>594.6666666666666</ele><time>2026-04-22T10:24:48.532Z</time></trkpt><trkpt lat="44.200695" lon="8.02434"><ele>595.3333333333333</ele><time>2026-04-22T10:24:49.532Z</time></trkpt><trkpt lat="44.200815" lon="8.024155"><ele>596.0</ele><time>2026-04-22T10:24:50.532Z</time></trkpt><trkpt lat="44.2009383" lon="8.0239617"><ele>594.3333333333333</ele><time>2026-04-22T10:24:51.532Z</time></trkpt><trkpt lat="44.20107" lon="8.023755"><ele>592.6666666666666</ele><time>2026-04-22T10:24:52.532Z</time></trkpt><trkpt lat="44.2011867" lon="8.0235683"><ele>591.0</ele><time>2026-04-22T10:24:53.532Z</time></trkpt><trkpt lat="44.2013083" lon="8.0233767"><ele>590.6666666666666</ele><time>2026-04-22T10:24:54.532Z</time></trkpt><trkpt lat="44.2014367" lon="8.0231833"><ele>590.3333333333333</ele><time>2026-04-22T10:24:55.531Z</time></trkpt><trkpt lat="44.20156" lon="8.0230033"><ele>590.0</ele><time>2026-04-22T10:24:56.532Z</time></trkpt><trkpt lat="44.2016867" lon="8.0228133"><ele>590.0</ele><time>2026-04-22T10:24:57.532Z</time></trkpt><trkpt lat="44.20181" lon="8.02262"><ele>590.0</ele><time>2026-04-22T10:24:58.532Z</time></trkpt><trkpt lat="44.2019267" lon="8.0224383"><ele>590.0</ele><time>2026-04-22T10:24:59.532Z</time></trkpt><trkpt lat="44.2020367" lon="8.0222617"><ele>589.5</ele><time>2026-04-22T10:25:00.532Z</time></trkpt><trkpt lat="44.2021417" lon="8.0221233"><ele>589.0</ele><time>2026-04-22T10:25:01.532Z</time></trkpt><trkpt lat="44.2022317" lon="8.0220167"><ele>588.5</ele><time>2026-04-22T10:25:02.532Z</time></trkpt><trkpt lat="44.2023267" lon="8.0219467"><ele>588.0</ele><time>2026-04-22T10:25:03.531Z</time></trkpt><trkpt lat="44.202435" lon="8.0219017"><ele>588.0</ele><time>2026-04-22T10:25:04.531Z</time></trkpt><trkpt lat="44.202545" lon="8.02188"><ele>588.0</ele><time>2026-04-22T10:25:05.532Z</time></trkpt><trkpt lat="44.202655" lon="8.0218717"><ele>588.0</ele><time>2026-04-22T10:25:06.532Z</time></trkpt><trkpt lat="44.2027733" lon="8.0218617"><ele>588.0</ele><time>2026-04-22T10:25:07.532Z</time></trkpt><trkpt lat="44.20289" lon="8.0218633"><ele>588.0</ele><time>2026-04-22T10:25:08.532Z</time></trkpt><trkpt lat="44.2030183" lon="8.0218633"><ele>588.0</ele><time>2026-04-22T10:25:09.532Z</time></trkpt><trkpt lat="44.2031617" lon="8.0218633"><ele>588.0</ele><time>2026-04-22T10:25:10.532Z</time></trkpt><trkpt lat="44.2033067" lon="8.0218583"><ele>588.0</ele><time>2026-04-22T10:25:11.531Z</time></trkpt><trkpt lat="44.203435" lon="8.0218467"><ele>587.75</ele><time>2026-04-22T10:25:12.532Z</time></trkpt><trkpt lat="44.2035567" lon="8.0218567"><ele>587.5</ele><time>2026-04-22T10:25:13.532Z</time></trkpt><trkpt lat="44.2036683" lon="8.0218567"><ele>587.25</ele><time>2026-04-22T10:25:14.532Z</time></trkpt><trkpt lat="44.20378" lon="8.02186"><ele>587.0</ele><time>2026-04-22T10:25:15.532Z</time></trkpt><trkpt lat="44.203895" lon="8.0218533"><ele>586.75</ele><time>2026-04-22T10:25:16.532Z</time></trkpt><trkpt lat="44.2040117" lon="8.02184"><ele>586.5</ele><time>2026-04-22T10:25:17.532Z</time></trkpt><trkpt lat="44.2041333" lon="8.0218067"><ele>586.25</ele><time>2026-04-22T10:25:18.532Z</time></trkpt><trkpt lat="44.204255" lon="8.02177"><ele>586.0</ele><time>2026-04-22T10:25:19.531Z</time></trkpt><trkpt lat="44.20438" lon="8.02172"><ele>586.0</ele><time>2026-04-22T10:25:20.532Z</time></trkpt><trkpt lat="44.2045167" lon="8.021655"><ele>586.0</ele><time>2026-04-22T10:25:21.532Z</time></trkpt><trkpt lat="44.2046483" lon="8.0215933"><ele>586.0</ele><time>2026-04-22T10:25:22.532Z</time></trkpt><trkpt lat="44.2047783" lon="8.0215233"><ele>586.0</ele><time>2026-04-22T10:25:23.532Z</time></trkpt><trkpt lat="44.20491" lon="8.0214583"><ele>585.5</ele><time>2026-04-22T10:25:24.531Z</time></trkpt><trkpt lat="44.2050367" lon="8.021405"><ele>585.0</ele><time>2026-04-22T10:25:25.532Z</time></trkpt><trkpt lat="44.20516" lon="8.0213317"><ele>584.5</ele><time>2026-04-22T10:25:26.532Z</time></trkpt><trkpt lat="44.2052783" lon="8.0212667"><ele>584.0</ele><time>2026-04-22T10:25:27.532Z</time></trkpt><trkpt lat="44.20539" lon="8.0212167"><ele>584.0</ele><time>2026-04-22T10:25:28.532Z</time></trkpt><trkpt lat="44.2054917" lon="8.0211717"><ele>584.0</ele><time>2026-04-22T10:25:29.532Z</time></trkpt><trkpt lat="44.2055867" lon="8.0211317"><ele>584.0</ele><time>2026-04-22T10:25:30.532Z</time></trkpt><trkpt lat="44.205675" lon="8.0211183"><ele>584.0</ele><time>2026-04-22T10:25:31.532Z</time></trkpt><trkpt lat="44.2057533" lon="8.0210967"><ele>584.0</ele><time>2026-04-22T10:25:32.532Z</time></trkpt><trkpt lat="44.20582" lon="8.02106"><ele>584.0</ele><time>2026-04-22T10:25:33.532Z</time></trkpt><trkpt lat="44.2058667" lon="8.0209967"><ele>583.6</ele><time>2026-04-22T10:25:34.531Z</time></trkpt><trkpt lat="44.2058617" lon="8.0208967"><ele>583.2</ele><time>2026-04-22T10:25:35.531Z</time></trkpt><trkpt lat="44.2058267" lon="8.020785"><ele>582.8000000000001</ele><time>2026-04-22T10:25:36.532Z</time></trkpt><trkpt lat="44.205785" lon="8.0206533"><ele>582.4</ele><time>2026-04-22T10:25:37.532Z</time></trkpt><trkpt lat="44.2057583" lon="8.020505"><ele>582.0</ele><time>2026-04-22T10:25:38.532Z</time></trkpt><trkpt lat="44.2057383" lon="8.0203317"><ele>582.0</ele><time>2026-04-22T10:25:39.532Z</time></trkpt><trkpt lat="44.2057233" lon="8.0201533"><ele>582.0</ele><time>2026-04-22T10:25:40.532Z</time></trkpt><trkpt lat="44.2057117" lon="8.0199617"><ele>582.0</ele><time>2026-04-22T10:25:41.532Z</time></trkpt><trkpt lat="44.2057017" lon="8.0197867"><ele>582.0</ele><time>2026-04-22T10:25:42.532Z</time></trkpt><trkpt lat="44.2056883" lon="8.019625"><ele>581.6</ele><time>2026-04-22T10:25:43.532Z</time></trkpt><trkpt lat="44.2056983" lon="8.01948"><ele>581.2</ele><time>2026-04-22T10:25:44.532Z</time></trkpt><trkpt lat="44.205735" lon="8.01936"><ele>580.8</ele><time>2026-04-22T10:25:45.532Z</time></trkpt><trkpt lat="44.2058017" lon="8.0192583"><ele>580.4</ele><time>2026-04-22T10:25:46.531Z</time></trkpt><trkpt lat="44.2058867" lon="8.01917"><ele>580.0</ele><time>2026-04-22T10:25:47.532Z</time></trkpt><trkpt lat="44.20597" lon="8.0191183"><ele>580.0</ele><time>2026-04-22T10:25:48.532Z</time></trkpt><trkpt lat="44.2060333" lon="8.01905"><ele>580.0</ele><time>2026-04-22T10:25:49.531Z</time></trkpt><trkpt lat="44.2060767" lon="8.0189683"><ele>580.0</ele><time>2026-04-22T10:25:50.532Z</time></trkpt><trkpt lat="44.2061133" lon="8.01888"><ele>580.0</ele><time>2026-04-22T10:25:51.531Z</time></trkpt><trkpt lat="44.20617" lon="8.0187967"><ele>580.0</ele><time>2026-04-22T10:25:52.532Z</time></trkpt><trkpt lat="44.2062517" lon="8.0187467"><ele>580.0</ele><time>2026-04-22T10:25:53.532Z</time></trkpt><trkpt lat="44.2063533" lon="8.0187133"><ele>580.0</ele><time>2026-04-22T10:25:54.532Z</time></trkpt><trkpt lat="44.206485" lon="8.018695"><ele>580.0</ele><time>2026-04-22T10:25:55.531Z</time></trkpt><trkpt lat="44.20662" lon="8.0186633"><ele>580.0</ele><time>2026-04-22T10:25:56.532Z</time></trkpt><trkpt lat="44.206755" lon="8.0186317"><ele>580.0</ele><time>2026-04-22T10:25:57.532Z</time></trkpt><trkpt lat="44.2069017" lon="8.0185883"><ele>580.0</ele><time>2026-04-22T10:25:58.531Z</time></trkpt><trkpt lat="44.2070467" lon="8.0185317"><ele>580.0</ele><time>2026-04-22T10:25:59.531Z</time></trkpt><trkpt lat="44.20719" lon="8.018455"><ele>580.0</ele><time>2026-04-22T10:26:00.532Z</time></trkpt><trkpt lat="44.2073333" lon="8.0183667"><ele>578.75</ele><time>2026-04-22T10:26:01.532Z</time></trkpt><trkpt lat="44.207465" lon="8.0182883"><ele>577.5</ele><time>2026-04-22T10:26:02.532Z</time></trkpt><trkpt lat="44.2075783" lon="8.0182083"><ele>576.25</ele><time>2026-04-22T10:26:03.532Z</time></trkpt><trkpt lat="44.2076717" lon="8.0181283"><ele>575.0</ele><time>2026-04-22T10:26:04.532Z</time></trkpt><trkpt lat="44.2077517" lon="8.01802"><ele>575.0</ele><time>2026-04-22T10:26:05.532Z</time></trkpt><trkpt lat="44.2078233" lon="8.0179017"><ele>575.0</ele><time>2026-04-22T10:26:06.532Z</time></trkpt><trkpt lat="44.2078633" lon="8.01777"><ele>575.0</ele><time>2026-04-22T10:26:07.532Z</time></trkpt><trkpt lat="44.2078867" lon="8.0176083"><ele>575.0</ele><time>2026-04-22T10:26:08.532Z</time></trkpt><trkpt lat="44.2078817" lon="8.0174383"><ele>575.0</ele><time>2026-04-22T10:26:09.532Z</time></trkpt><trkpt lat="44.20787" lon="8.01727"><ele>575.0</ele><time>2026-04-22T10:26:10.532Z</time></trkpt><trkpt lat="44.207865" lon="8.0171033"><ele>575.0</ele><time>2026-04-22T10:26:11.532Z</time></trkpt><trkpt lat="44.2078517" lon="8.0169433"><ele>575.0</ele><time>2026-04-22T10:26:12.532Z</time></trkpt><trkpt lat="44.2078467" lon="8.0167883"><ele>576.0</ele><time>2026-04-22T10:26:13.532Z</time></trkpt><trkpt lat="44.2078333" lon="8.0166267"><ele>577.0</ele><time>2026-04-22T10:26:14.532Z</time></trkpt><trkpt lat="44.207825" lon="8.016465"><ele>578.0</ele><time>2026-04-22T10:26:15.532Z</time></trkpt><trkpt lat="44.207805" lon="8.0162867"><ele>579.0</ele><time>2026-04-22T10:26:16.532Z</time></trkpt><trkpt lat="44.2077917" lon="8.0160933"><ele>579.0</ele><time>2026-04-22T10:26:17.531Z</time></trkpt><trkpt lat="44.2077817" lon="8.015895"><ele>579.0</ele><time>2026-04-22T10:26:18.531Z</time></trkpt><trkpt lat="44.20777" lon="8.0157033"><ele>579.0</ele><time>2026-04-22T10:26:19.532Z</time></trkpt><trkpt lat="44.2077633" lon="8.0155083"><ele>579.0</ele><time>2026-04-22T10:26:20.532Z</time></trkpt><trkpt lat="44.207765" lon="8.0153317"><ele>579.0</ele><time>2026-04-22T10:26:21.532Z</time></trkpt><trkpt lat="44.2077633" lon="8.0151733"><ele>579.0</ele><time>2026-04-22T10:26:22.532Z</time></trkpt><trkpt lat="44.2077583" lon="8.01506"><ele>579.0</ele><time>2026-04-22T10:26:23.532Z</time></trkpt><trkpt lat="44.2077567" lon="8.0149567"><ele>579.0</ele><time>2026-04-22T10:26:24.532Z</time></trkpt><trkpt lat="44.2077683" lon="8.0148483"><ele>579.0</ele><time>2026-04-22T10:26:26.531Z</time></trkpt><trkpt lat="44.2078583" lon="8.0148083"><ele>579.0</ele><time>2026-04-22T10:26:29.532Z</time></trkpt><trkpt lat="44.2079333" lon="8.01481"><ele>578.75</ele><time>2026-04-22T10:26:30.532Z</time></trkpt><trkpt lat="44.20803" lon="8.0148183"><ele>578.5</ele><time>2026-04-22T10:26:31.532Z</time></trkpt><trkpt lat="44.2081383" lon="8.01483"><ele>578.25</ele><time>2026-04-22T10:26:32.532Z</time></trkpt><trkpt lat="44.20826" lon="8.01484"><ele>578.0</ele><time>2026-04-22T10:26:33.532Z</time></trkpt><trkpt lat="44.2083933" lon="8.014855"><ele>577.75</ele><time>2026-04-22T10:26:34.532Z</time></trkpt><trkpt lat="44.2085283" lon="8.0148633"><ele>577.5</ele><time>2026-04-22T10:26:35.531Z</time></trkpt><trkpt lat="44.2086633" lon="8.0148667"><ele>577.25</ele><time>2026-04-22T10:26:36.532Z</time></trkpt><trkpt lat="44.2087983" lon="8.0148817"><ele>577.0</ele><time>2026-04-22T10:26:37.532Z</time></trkpt><trkpt lat="44.2089367" lon="8.0148867"><ele>577.0</ele><time>2026-04-22T10:26:38.531Z</time></trkpt><trkpt lat="44.20907" lon="8.0149"><ele>577.0</ele><time>2026-04-22T10:26:39.532Z</time></trkpt><trkpt lat="44.2092" lon="8.0149083"><ele>577.0</ele><time>2026-04-22T10:26:40.532Z</time></trkpt><trkpt lat="44.2093267" lon="8.01492"><ele>577.0</ele><time>2026-04-22T10:26:41.532Z</time></trkpt><trkpt lat="44.209455" lon="8.0149167"><ele>577.0</ele><time>2026-04-22T10:26:42.532Z</time></trkpt><trkpt lat="44.2095817" lon="8.0148983"><ele>577.0</ele><time>2026-04-22T10:26:43.533Z</time></trkpt><trkpt lat="44.2097233" lon="8.0148733"><ele>577.0</ele><time>2026-04-22T10:26:44.532Z</time></trkpt><trkpt lat="44.2098683" lon="8.0148317"><ele>577.0</ele><time>2026-04-22T10:26:45.533Z</time></trkpt><trkpt lat="44.2100217" lon="8.014775"><ele>576.6666666666667</ele><time>2026-04-22T10:26:46.533Z</time></trkpt><trkpt lat="44.21019" lon="8.01472"><ele>576.3333333333334</ele><time>2026-04-22T10:26:47.533Z</time></trkpt><trkpt lat="44.2103567" lon="8.0146667"><ele>576.0</ele><time>2026-04-22T10:26:48.533Z</time></trkpt><trkpt lat="44.21052" lon="8.0146183"><ele>575.0</ele><time>2026-04-22T10:26:49.533Z</time></trkpt><trkpt lat="44.2106883" lon="8.0145533"><ele>574.0</ele><time>2026-04-22T10:26:50.533Z</time></trkpt><trkpt lat="44.2108717" lon="8.0144783"><ele>573.0</ele><time>2026-04-22T10:26:51.532Z</time></trkpt><trkpt lat="44.2110617" lon="8.0144133"><ele>573.0</ele><time>2026-04-22T10:26:52.532Z</time></trkpt><trkpt lat="44.2112467" lon="8.0143633"><ele>573.0</ele><time>2026-04-22T10:26:53.533Z</time></trkpt><trkpt lat="44.2114217" lon="8.0143483"><ele>573.0</ele><time>2026-04-22T10:26:54.533Z</time></trkpt><trkpt lat="44.211605" lon="8.0143383"><ele>572.6666666666666</ele><time>2026-04-22T10:26:55.533Z</time></trkpt><trkpt lat="44.2117883" lon="8.0143333"><ele>572.3333333333333</ele><time>2026-04-22T10:26:56.533Z</time></trkpt><trkpt lat="44.211985" lon="8.014335"><ele>572.0</ele><time>2026-04-22T10:26:57.532Z</time></trkpt><trkpt lat="44.21217" lon="8.0143417"><ele>571.6666666666666</ele><time>2026-04-22T10:26:58.533Z</time></trkpt><trkpt lat="44.2123583" lon="8.0143567"><ele>571.3333333333334</ele><time>2026-04-22T10:26:59.532Z</time></trkpt><trkpt lat="44.2125383" lon="8.0143633"><ele>571.0</ele><time>2026-04-22T10:27:00.533Z</time></trkpt><trkpt lat="44.212715" lon="8.014375"><ele>571.0</ele><time>2026-04-22T10:27:01.533Z</time></trkpt><trkpt lat="44.2128867" lon="8.0143867"><ele>571.0</ele><time>2026-04-22T10:27:02.533Z</time></trkpt><trkpt lat="44.2130583" lon="8.0143983"><ele>571.0</ele><time>2026-04-22T10:27:03.533Z</time></trkpt><trkpt lat="44.213225" lon="8.0144117"><ele>571.0</ele><time>2026-04-22T10:27:04.533Z</time></trkpt><trkpt lat="44.2133767" lon="8.0144167"><ele>571.0</ele><time>2026-04-22T10:27:05.532Z</time></trkpt><trkpt lat="44.213515" lon="8.0144217"><ele>571.0</ele><time>2026-04-22T10:27:06.533Z</time></trkpt><trkpt lat="44.2136467" lon="8.01442"><ele>571.0</ele><time>2026-04-22T10:27:07.533Z</time></trkpt><trkpt lat="44.2137683" lon="8.0144233"><ele>571.0</ele><time>2026-04-22T10:27:08.533Z</time></trkpt><trkpt lat="44.21388" lon="8.0144067"><ele>571.0</ele><time>2026-04-22T10:27:09.533Z</time></trkpt><trkpt lat="44.2139783" lon="8.0143717"><ele>571.0</ele><time>2026-04-22T10:27:10.533Z</time></trkpt><trkpt lat="44.2140617" lon="8.0143433"><ele>571.0</ele><time>2026-04-22T10:27:11.533Z</time></trkpt><trkpt lat="44.2141383" lon="8.0143267"><ele>571.0</ele><time>2026-04-22T10:27:12.533Z</time></trkpt><trkpt lat="44.2142067" lon="8.0143283"><ele>571.0</ele><time>2026-04-22T10:27:13.532Z</time></trkpt><trkpt lat="44.2142817" lon="8.0143033"><ele>571.0</ele><time>2026-04-22T10:27:15.533Z</time></trkpt><trkpt lat="44.214265" lon="8.0142017"><ele>571.0</ele><time>2026-04-22T10:27:24.533Z</time></trkpt><trkpt lat="44.2142433" lon="8.0140633"><ele>571.0</ele><time>2026-04-22T10:51:42.533Z</time></trkpt><trkpt lat="44.214235" lon="8.0141883"><ele>571.0</ele><time>2026-04-22T11:03:47.533Z</time></trkpt><trkpt lat="44.2141667" lon="8.01416"><ele>571.0</ele><time>2026-04-22T11:17:00.535Z</time></trkpt><trkpt lat="44.2141817" lon="8.0142617"><ele>571.0</ele><time>2026-04-22T11:19:24.535Z</time></trkpt><trkpt lat="44.2142383" lon="8.0143467"><ele>571.0</ele><time>2026-04-22T11:19:27.535Z</time></trkpt><trkpt lat="44.21411" lon="8.0143617"><ele>571.0</ele><time>2026-04-22T11:19:30.534Z</time></trkpt><trkpt lat="44.214025" lon="8.0143583"><ele>571.0</ele><time>2026-04-22T11:19:31.535Z</time></trkpt><trkpt lat="44.2139383" lon="8.0143833"><ele>571.0</ele><time>2026-04-22T11:19:33.535Z</time></trkpt><trkpt lat="44.2138617" lon="8.0144017"><ele>571.0</ele><time>2026-04-22T11:20:11.535Z</time></trkpt><trkpt lat="44.2137933" lon="8.014405"><ele>571.0</ele><time>2026-04-22T11:20:12.535Z</time></trkpt><trkpt lat="44.21371" lon="8.01441"><ele>571.0</ele><time>2026-04-22T11:20:13.535Z</time></trkpt><trkpt lat="44.2136167" lon="8.0144133"><ele>571.0</ele><time>2026-04-22T11:20:14.535Z</time></trkpt><trkpt lat="44.2135133" lon="8.01441"><ele>571.0</ele><time>2026-04-22T11:20:15.535Z</time></trkpt><trkpt lat="44.213405" lon="8.0144083"><ele>571.0</ele><time>2026-04-22T11:20:16.534Z</time></trkpt><trkpt lat="44.2132867" lon="8.0143983"><ele>571.0</ele><time>2026-04-22T11:20:17.534Z</time></trkpt><trkpt lat="44.213155" lon="8.0143867"><ele>571.0</ele><time>2026-04-22T11:20:18.535Z</time></trkpt><trkpt lat="44.213015" lon="8.014375"><ele>571.0</ele><time>2026-04-22T11:20:19.535Z</time></trkpt><trkpt lat="44.212875" lon="8.0143717"><ele>571.0</ele><time>2026-04-22T11:20:20.535Z</time></trkpt><trkpt lat="44.2127217" lon="8.0143517"><ele>571.0</ele><time>2026-04-22T11:20:21.535Z</time></trkpt><trkpt lat="44.2125583" lon="8.0143283"><ele>571.0</ele><time>2026-04-22T11:20:22.534Z</time></trkpt><trkpt lat="44.2124" lon="8.0143167"><ele>571.0</ele><time>2026-04-22T11:20:23.535Z</time></trkpt><trkpt lat="44.21227" lon="8.0143067"><ele>571.0</ele><time>2026-04-22T11:20:24.535Z</time></trkpt><trkpt lat="44.2121667" lon="8.014305"><ele>571.0</ele><time>2026-04-22T11:20:25.535Z</time></trkpt><trkpt lat="44.2120933" lon="8.0143067"><ele>571.2</ele><time>2026-04-22T11:20:26.535Z</time></trkpt><trkpt lat="44.2120183" lon="8.01424"><ele>571.4000000000001</ele><time>2026-04-22T11:20:28.535Z</time></trkpt><trkpt lat="44.2120567" lon="8.01407"><ele>571.6</ele><time>2026-04-22T11:20:30.535Z</time></trkpt><trkpt lat="44.2121233" lon="8.01395"><ele>571.8000000000001</ele><time>2026-04-22T11:20:31.534Z</time></trkpt><trkpt lat="44.21221" lon="8.0138467"><ele>572.0</ele><time>2026-04-22T11:20:32.535Z</time></trkpt><trkpt lat="44.2123117" lon="8.0137667"><ele>571.75</ele><time>2026-04-22T11:20:33.535Z</time></trkpt><trkpt lat="44.2124233" lon="8.0137133"><ele>571.5</ele><time>2026-04-22T11:20:34.535Z</time></trkpt><trkpt lat="44.2125533" lon="8.0136667"><ele>571.25</ele><time>2026-04-22T11:20:35.535Z</time></trkpt><trkpt lat="44.2126917" lon="8.013615"><ele>571.0</ele><time>2026-04-22T11:20:36.535Z</time></trkpt><trkpt lat="44.2128217" lon="8.013565"><ele>571.0</ele><time>2026-04-22T11:20:37.534Z</time></trkpt><trkpt lat="44.21294" lon="8.0135217"><ele>571.0</ele><time>2026-04-22T11:20:38.535Z</time></trkpt><trkpt lat="44.2130467" lon="8.0134783"><ele>571.0</ele><time>2026-04-22T11:20:39.535Z</time></trkpt><trkpt lat="44.213155" lon="8.0134433"><ele>571.0</ele><time>2026-04-22T11:20:40.535Z</time></trkpt><trkpt lat="44.2132733" lon="8.013405"><ele>571.0</ele><time>2026-04-22T11:20:41.534Z</time></trkpt><trkpt lat="44.2133883" lon="8.0133633"><ele>571.0</ele><time>2026-04-22T11:20:42.535Z</time></trkpt><trkpt lat="44.2135" lon="8.0133233"><ele>571.0</ele><time>2026-04-22T11:20:43.534Z</time></trkpt><trkpt lat="44.2136133" lon="8.01328"><ele>571.0</ele><time>2026-04-22T11:20:44.534Z</time></trkpt><trkpt lat="44.21372" lon="8.01321"><ele>571.25</ele><time>2026-04-22T11:20:45.534Z</time></trkpt><trkpt lat="44.213825" lon="8.0131333"><ele>571.5</ele><time>2026-04-22T11:20:46.535Z</time></trkpt><trkpt lat="44.21393" lon="8.0130683"><ele>571.75</ele><time>2026-04-22T11:20:47.535Z</time></trkpt><trkpt lat="44.2140467" lon="8.0130017"><ele>572.0</ele><time>2026-04-22T11:20:48.534Z</time></trkpt><trkpt lat="44.2141583" lon="8.0129567"><ele>572.0</ele><time>2026-04-22T11:20:49.535Z</time></trkpt><trkpt lat="44.2142567" lon="8.0129133"><ele>572.0</ele><time>2026-04-22T11:20:50.534Z</time></trkpt><trkpt lat="44.214345" lon="8.0128717"><ele>572.0</ele><time>2026-04-22T11:20:51.535Z</time></trkpt><trkpt lat="44.2144333" lon="8.0128267"><ele>572.0</ele><time>2026-04-22T11:20:52.535Z</time></trkpt><trkpt lat="44.2145183" lon="8.0127617"><ele>572.0</ele><time>2026-04-22T11:20:53.535Z</time></trkpt><trkpt lat="44.2146033" lon="8.0126633"><ele>572.0</ele><time>2026-04-22T11:20:54.535Z</time></trkpt><trkpt lat="44.2146917" lon="8.012545"><ele>572.0</ele><time>2026-04-22T11:20:55.535Z</time></trkpt><trkpt lat="44.21478" lon="8.012415"><ele>572.0</ele><time>2026-04-22T11:20:56.535Z</time></trkpt><trkpt lat="44.21487" lon="8.0122883"><ele>572.0</ele><time>2026-04-22T11:20:57.535Z</time></trkpt><trkpt lat="44.214955" lon="8.0121567"><ele>572.6</ele><time>2026-04-22T11:20:58.535Z</time></trkpt><trkpt lat="44.2150433" lon="8.0120233"><ele>573.2</ele><time>2026-04-22T11:20:59.535Z</time></trkpt><trkpt lat="44.2151167" lon="8.0118967"><ele>573.8</ele><time>2026-04-22T11:21:00.535Z</time></trkpt><trkpt lat="44.2151983" lon="8.0117933"><ele>574.4</ele><time>2026-04-22T11:21:01.535Z</time></trkpt><trkpt lat="44.2152567" lon="8.0117283"><ele>575.0</ele><time>2026-04-22T11:21:02.535Z</time></trkpt><trkpt lat="44.215335" lon="8.0116583"><ele>576.8333333333333</ele><time>2026-04-22T11:21:04.534Z</time></trkpt><trkpt lat="44.215415" lon="8.0115917"><ele>578.6666666666666</ele><time>2026-04-22T11:21:06.535Z</time></trkpt><trkpt lat="44.215475" lon="8.0115383"><ele>580.5</ele><time>2026-04-22T11:21:08.534Z</time></trkpt><trkpt lat="44.215545" lon="8.0114733"><ele>582.3333333333334</ele><time>2026-04-22T11:21:37.535Z</time></trkpt><trkpt lat="44.2156" lon="8.0114183"><ele>584.1666666666667</ele><time>2026-04-22T11:21:38.534Z</time></trkpt><trkpt lat="44.2156717" lon="8.011345"><ele>586.0</ele><time>2026-04-22T11:21:39.534Z</time></trkpt><trkpt lat="44.215755" lon="8.0112633"><ele>586.0</ele><time>2026-04-22T11:21:40.535Z</time></trkpt><trkpt lat="44.2158417" lon="8.0111767"><ele>586.0</ele><time>2026-04-22T11:21:41.535Z</time></trkpt><trkpt lat="44.2159333" lon="8.0110817"><ele>586.0</ele><time>2026-04-22T11:21:42.535Z</time></trkpt><trkpt lat="44.2160233" lon="8.0109967"><ele>586.0</ele><time>2026-04-22T11:21:43.535Z</time></trkpt><trkpt lat="44.2161117" lon="8.01091"><ele>586.0</ele><time>2026-04-22T11:21:44.535Z</time></trkpt><trkpt lat="44.216185" lon="8.0108233"><ele>588.5</ele><time>2026-04-22T11:21:45.535Z</time></trkpt><trkpt lat="44.2162317" lon="8.0107533"><ele>591.0</ele><time>2026-04-22T11:21:46.535Z</time></trkpt><trkpt lat="44.216265" lon="8.0106733"><ele>593.5</ele><time>2026-04-22T11:21:47.534Z</time></trkpt><trkpt lat="44.2162767" lon="8.0105517"><ele>596.0</ele><time>2026-04-22T11:21:48.534Z</time></trkpt><trkpt lat="44.2162767" lon="8.0104383"><ele>598.5</ele><time>2026-04-22T11:21:49.534Z</time></trkpt><trkpt lat="44.2162633" lon="8.010335"><ele>601.0</ele><time>2026-04-22T11:21:50.535Z</time></trkpt><trkpt lat="44.2162317" lon="8.0102367"><ele>601.0</ele><time>2026-04-22T11:21:51.535Z</time></trkpt><trkpt lat="44.2161817" lon="8.0101417"><ele>601.0</ele><time>2026-04-22T11:21:52.535Z</time></trkpt><trkpt lat="44.2161017" lon="8.01005"><ele>601.0</ele><time>2026-04-22T11:21:53.535Z</time></trkpt><trkpt lat="44.2160133" lon="8.0099567"><ele>601.0</ele><time>2026-04-22T11:21:54.535Z</time></trkpt><trkpt lat="44.21594" lon="8.00986"><ele>601.0</ele><time>2026-04-22T11:21:55.534Z</time></trkpt><trkpt lat="44.21589" lon="8.0097433"><ele>600.5</ele><time>2026-04-22T11:21:56.534Z</time></trkpt><trkpt lat="44.215855" lon="8.009595"><ele>600.0</ele><time>2026-04-22T11:21:57.535Z</time></trkpt><trkpt lat="44.21582" lon="8.0094267"><ele>599.5</ele><time>2026-04-22T11:21:58.534Z</time></trkpt><trkpt lat="44.2157833" lon="8.0092333"><ele>599.0</ele><time>2026-04-22T11:21:59.535Z</time></trkpt><trkpt lat="44.21573" lon="8.0090433"><ele>599.0</ele><time>2026-04-22T11:22:00.535Z</time></trkpt><trkpt lat="44.215665" lon="8.0088517"><ele>599.0</ele><time>2026-04-22T11:22:01.535Z</time></trkpt><trkpt lat="44.2156033" lon="8.0086817"><ele>599.0</ele><time>2026-04-22T11:22:02.535Z</time></trkpt><trkpt lat="44.2155633" lon="8.00852"><ele>599.0</ele><time>2026-04-22T11:22:03.534Z</time></trkpt><trkpt lat="44.2155333" lon="8.0083467"><ele>604.6</ele><time>2026-04-22T11:22:04.535Z</time></trkpt><trkpt lat="44.2155067" lon="8.0081617"><ele>610.2</ele><time>2026-04-22T11:22:05.535Z</time></trkpt><trkpt lat="44.2154817" lon="8.0079933"><ele>615.8000000000001</ele><time>2026-04-22T11:22:06.535Z</time></trkpt><trkpt lat="44.215475" lon="8.0078717"><ele>621.4</ele><time>2026-04-22T11:22:07.535Z</time></trkpt><trkpt lat="44.2154767" lon="8.0077817"><ele>627.0</ele><time>2026-04-22T11:22:09.534Z</time></trkpt><trkpt lat="44.2154183" lon="8.00783"><ele>627.0</ele><time>2026-04-22T11:22:56.536Z</time></trkpt><trkpt lat="44.2153617" lon="8.0079683"><ele>627.0</ele><time>2026-04-22T11:22:58.536Z</time></trkpt><trkpt lat="44.2153383" lon="8.0080533"><ele>627.0</ele><time>2026-04-22T11:22:59.536Z</time></trkpt><trkpt lat="44.2153283" lon="8.0082017"><ele>627.0</ele><time>2026-04-22T11:23:01.536Z</time></trkpt><trkpt lat="44.2153267" lon="8.0083683"><ele>627.0</ele><time>2026-04-22T11:23:03.535Z</time></trkpt><trkpt lat="44.2153217" lon="8.0084667"><ele>627.1666666666666</ele><time>2026-04-22T11:23:04.535Z</time></trkpt><trkpt lat="44.2153133" lon="8.0085633"><ele>627.3333333333334</ele><time>2026-04-22T11:23:05.536Z</time></trkpt><trkpt lat="44.21529" lon="8.0086567"><ele>627.5</ele><time>2026-04-22T11:23:06.536Z</time></trkpt><trkpt lat="44.21527" lon="8.0087417"><ele>627.6666666666667</ele><time>2026-04-22T11:23:07.536Z</time></trkpt><trkpt lat="44.21526" lon="8.0088417"><ele>627.8333333333334</ele><time>2026-04-22T11:23:09.536Z</time></trkpt><trkpt lat="44.2152733" lon="8.008955"><ele>628.0</ele><time>2026-04-22T11:23:12.536Z</time></trkpt><trkpt lat="44.2152517" lon="8.00912"><ele>627.5</ele><time>2026-04-22T11:23:14.536Z</time></trkpt><trkpt lat="44.2152333" lon="8.0092233"><ele>627.0</ele><time>2026-04-22T11:23:15.536Z</time></trkpt><trkpt lat="44.2152117" lon="8.0093183"><ele>626.5</ele><time>2026-04-22T11:23:16.536Z</time></trkpt><trkpt lat="44.2151883" lon="8.009405"><ele>626.0</ele><time>2026-04-22T11:23:17.536Z</time></trkpt><trkpt lat="44.215125" lon="8.0095483"><ele>625.5</ele><time>2026-04-22T11:23:19.536Z</time></trkpt><trkpt lat="44.2150267" lon="8.00958"><ele>625.0</ele><time>2026-04-22T11:23:21.536Z</time></trkpt><trkpt lat="44.2149417" lon="8.0095667"><ele>625.0</ele><time>2026-04-22T11:23:23.536Z</time></trkpt><trkpt lat="44.2148633" lon="8.0094833"><ele>625.0</ele><time>2026-04-22T11:23:31.536Z</time></trkpt><trkpt lat="44.2148033" lon="8.0094"><ele>625.0</ele><time>2026-04-22T11:23:34.535Z</time></trkpt><trkpt lat="44.214745" lon="8.0093017"><ele>625.0</ele><time>2026-04-22T11:23:36.535Z</time></trkpt><trkpt lat="44.214705" lon="8.00923"><ele>625.0</ele><time>2026-04-22T11:23:37.535Z</time></trkpt><trkpt lat="44.214645" lon="8.0091483"><ele>625.0</ele><time>2026-04-22T11:23:38.536Z</time></trkpt><trkpt lat="44.21459" lon="8.009055"><ele>628.1666666666667</ele><time>2026-04-22T11:23:39.536Z</time></trkpt><trkpt lat="44.2145367" lon="8.0089733"><ele>631.3333333333334</ele><time>2026-04-22T11:23:40.535Z</time></trkpt><trkpt lat="44.2144817" lon="8.008905"><ele>634.5</ele><time>2026-04-22T11:23:41.535Z</time></trkpt><trkpt lat="44.21442" lon="8.008855"><ele>637.6666666666666</ele><time>2026-04-22T11:23:42.536Z</time></trkpt><trkpt lat="44.214355" lon="8.0088117"><ele>640.8333333333333</ele><time>2026-04-22T11:23:43.536Z</time></trkpt><trkpt lat="44.2142783" lon="8.008765"><ele>644.0</ele><time>2026-04-22T11:23:44.536Z</time></trkpt><trkpt lat="44.2141917" lon="8.0087033"><ele>644.0</ele><time>2026-04-22T11:23:45.535Z</time></trkpt><trkpt lat="44.2141217" lon="8.0086367"><ele>644.0</ele><time>2026-04-22T11:23:46.536Z</time></trkpt><trkpt lat="44.2140783" lon="8.00855"><ele>644.0</ele><time>2026-04-22T11:23:47.536Z</time></trkpt><trkpt lat="44.2140367" lon="8.0084517"><ele>644.0</ele><time>2026-04-22T11:23:48.535Z</time></trkpt><trkpt lat="44.2139933" lon="8.0083417"><ele>644.0</ele><time>2026-04-22T11:23:49.536Z</time></trkpt><trkpt lat="44.21395" lon="8.0082233"><ele>644.0</ele><time>2026-04-22T11:23:50.536Z</time></trkpt><trkpt lat="44.2139083" lon="8.0080983"><ele>645.8333333333333</ele><time>2026-04-22T11:23:51.535Z</time></trkpt><trkpt lat="44.2138667" lon="8.0079833"><ele>647.6666666666666</ele><time>2026-04-22T11:23:52.535Z</time></trkpt><trkpt lat="44.2138233" lon="8.0078833"><ele>649.5</ele><time>2026-04-22T11:23:53.536Z</time></trkpt><trkpt lat="44.2137833" lon="8.0078033"><ele>651.3333333333334</ele><time>2026-04-22T11:23:54.536Z</time></trkpt><trkpt lat="44.2137417" lon="8.0076867"><ele>653.1666666666667</ele><time>2026-04-22T11:23:56.536Z</time></trkpt><trkpt lat="44.2136933" lon="8.0075933"><ele>655.0</ele><time>2026-04-22T11:25:31.536Z</time></trkpt><trkpt lat="44.21361" lon="8.0075017"><ele>655.0</ele><time>2026-04-22T11:25:33.536Z</time></trkpt><trkpt lat="44.2135417" lon="8.0074683"><ele>655.0</ele><time>2026-04-22T11:25:34.535Z</time></trkpt><trkpt lat="44.2134733" lon="8.0074567"><ele>655.0</ele><time>2026-04-22T11:25:35.536Z</time></trkpt><trkpt lat="44.2133767" lon="8.0075117"><ele>655.0</ele><time>2026-04-22T11:25:37.535Z</time></trkpt><trkpt lat="44.2133267" lon="8.0076317"><ele>655.0</ele><time>2026-04-22T11:25:39.536Z</time></trkpt><trkpt lat="44.2132717" lon="8.0077867"><ele>655.0</ele><time>2026-04-22T11:25:41.536Z</time></trkpt><trkpt lat="44.21323" lon="8.007895"><ele>655.0</ele><time>2026-04-22T11:25:42.536Z</time></trkpt><trkpt lat="44.21319" lon="8.0080133"><ele>655.0</ele><time>2026-04-22T11:25:43.536Z</time></trkpt><trkpt lat="44.2131433" lon="8.0081167"><ele>655.0</ele><time>2026-04-22T11:25:44.536Z</time></trkpt><trkpt lat="44.2131017" lon="8.0082183"><ele>655.0</ele><time>2026-04-22T11:25:45.536Z</time></trkpt><trkpt lat="44.2130717" lon="8.0083033"><ele>655.0</ele><time>2026-04-22T11:25:46.536Z</time></trkpt><trkpt lat="44.2130283" lon="8.0084617"><ele>656.6666666666667</ele><time>2026-04-22T11:25:48.536Z</time></trkpt><trkpt lat="44.2129917" lon="8.0085433"><ele>658.3333333333334</ele><time>2026-04-22T11:25:49.536Z</time></trkpt><trkpt lat="44.212905" lon="8.0086417"><ele>660.0</ele><time>2026-04-22T11:25:51.535Z</time></trkpt><trkpt lat="44.2128133" lon="8.0086767"><ele>661.6666666666666</ele><time>2026-04-22T11:25:53.536Z</time></trkpt><trkpt lat="44.2127533" lon="8.0086233"><ele>663.3333333333333</ele><time>2026-04-22T11:25:55.535Z</time></trkpt><trkpt lat="44.2127167" lon="8.00852"><ele>665.0</ele><time>2026-04-22T11:26:24.536Z</time></trkpt><trkpt lat="44.212705" lon="8.0084233"><ele>665.8333333333333</ele><time>2026-04-22T11:26:25.536Z</time></trkpt><trkpt lat="44.2126983" lon="8.0083117"><ele>666.6666666666666</ele><time>2026-04-22T11:26:26.536Z</time></trkpt><trkpt lat="44.2126917" lon="8.00822"><ele>667.5</ele><time>2026-04-22T11:26:27.536Z</time></trkpt><trkpt lat="44.21269" lon="8.0080733"><ele>668.3333333333334</ele><time>2026-04-22T11:26:29.536Z</time></trkpt><trkpt lat="44.21269" lon="8.007945"><ele>669.1666666666667</ele><time>2026-04-22T11:26:31.536Z</time></trkpt><trkpt lat="44.2126867" lon="8.00781"><ele>670.0</ele><time>2026-04-22T11:26:33.536Z</time></trkpt><trkpt lat="44.2126617" lon="8.0076867"><ele>670.0</ele><time>2026-04-22T11:26:35.536Z</time></trkpt><trkpt lat="44.212635" lon="8.0076033"><ele>670.0</ele><time>2026-04-22T11:26:38.536Z</time></trkpt><trkpt lat="44.2126517" lon="8.0077183"><ele>670.0</ele><time>2026-04-22T11:26:46.536Z</time></trkpt><trkpt lat="44.21267" lon="8.0078467"><ele>670.0</ele><time>2026-04-22T11:26:48.535Z</time></trkpt><trkpt lat="44.212665" lon="8.0079367"><ele>670.0</ele><time>2026-04-22T11:26:49.535Z</time></trkpt><trkpt lat="44.2126617" lon="8.0080417"><ele>670.0</ele><time>2026-04-22T11:26:50.536Z</time></trkpt><trkpt lat="44.2126733" lon="8.008155"><ele>670.0</ele><time>2026-04-22T11:26:51.535Z</time></trkpt><trkpt lat="44.2126867" lon="8.008275"><ele>670.0</ele><time>2026-04-22T11:26:52.536Z</time></trkpt><trkpt lat="44.2127017" lon="8.0084033"><ele>670.0</ele><time>2026-04-22T11:26:53.536Z</time></trkpt><trkpt lat="44.212725" lon="8.0085217"><ele>670.0</ele><time>2026-04-22T11:26:54.536Z</time></trkpt><trkpt lat="44.2127433" lon="8.0086367"><ele>670.0</ele><time>2026-04-22T11:26:55.536Z</time></trkpt><trkpt lat="44.212745" lon="8.008725"><ele>670.0</ele><time>2026-04-22T11:26:56.536Z</time></trkpt><trkpt lat="44.212725" lon="8.00882"><ele>669.2857142857142</ele><time>2026-04-22T11:26:58.536Z</time></trkpt><trkpt lat="44.2126767" lon="8.0088767"><ele>668.5714285714286</ele><time>2026-04-22T11:27:00.536Z</time></trkpt><trkpt lat="44.2126067" lon="8.0089117"><ele>667.8571428571429</ele><time>2026-04-22T11:27:03.535Z</time></trkpt><trkpt lat="44.2125433" lon="8.00887"><ele>667.1428571428571</ele><time>2026-04-22T11:27:07.535Z</time></trkpt><trkpt lat="44.212515" lon="8.0087833"><ele>666.4285714285714</ele><time>2026-04-22T11:27:10.536Z</time></trkpt><trkpt lat="44.2124883" lon="8.00867"><ele>665.7142857142857</ele><time>2026-04-22T11:27:13.536Z</time></trkpt><trkpt lat="44.212505" lon="8.0085667"><ele>665.0</ele><time>2026-04-22T11:27:17.535Z</time></trkpt><trkpt lat="44.21251" lon="8.0084717"><ele>666.0</ele><time>2026-04-22T11:27:20.536Z</time></trkpt><trkpt lat="44.2125033" lon="8.0083117"><ele>667.0</ele><time>2026-04-22T11:27:54.535Z</time></trkpt><trkpt lat="44.2124917" lon="8.00819"><ele>668.0</ele><time>2026-04-22T11:27:56.536Z</time></trkpt><trkpt lat="44.2124783" lon="8.0080817"><ele>669.0</ele><time>2026-04-22T11:27:58.535Z</time></trkpt><trkpt lat="44.212475" lon="8.00795"><ele>670.0</ele><time>2026-04-22T11:28:01.536Z</time></trkpt><trkpt lat="44.2124433" lon="8.0078467"><ele>670.0</ele><time>2026-04-22T11:28:04.535Z</time></trkpt><trkpt lat="44.2123733" lon="8.0076867"><ele>670.0</ele><time>2026-04-22T11:28:11.536Z</time></trkpt><trkpt lat="44.2123233" lon="8.007585"><ele>670.0</ele><time>2026-04-22T11:28:13.536Z</time></trkpt><trkpt lat="44.2122933" lon="8.0074933"><ele>670.0</ele><time>2026-04-22T11:28:15.536Z</time></trkpt><trkpt lat="44.212235" lon="8.0072617"><ele>669.6</ele><time>2026-04-22T11:29:14.536Z</time></trkpt><trkpt lat="44.2122283" lon="8.007015"><ele>669.2</ele><time>2026-04-22T11:29:33.536Z</time></trkpt><trkpt lat="44.2122167" lon="8.00692"><ele>668.8</ele><time>2026-04-22T11:29:35.536Z</time></trkpt><trkpt lat="44.2122217" lon="8.0068217"><ele>668.4</ele><time>2026-04-22T11:29:37.535Z</time></trkpt><trkpt lat="44.2122433" lon="8.0066983"><ele>668.0</ele><time>2026-04-22T11:29:39.536Z</time></trkpt><trkpt lat="44.2122533" lon="8.00657"><ele>670.0</ele><time>2026-04-22T11:29:41.535Z</time></trkpt><trkpt lat="44.21228" lon="8.0064117"><ele>672.0</ele><time>2026-04-22T11:29:43.536Z</time></trkpt><trkpt lat="44.2123117" lon="8.0062967"><ele>674.0</ele><time>2026-04-22T11:29:45.536Z</time></trkpt><trkpt lat="44.21233" lon="8.00616"><ele>676.0</ele><time>2026-04-22T11:29:47.536Z</time></trkpt><trkpt lat="44.212355" lon="8.0060067"><ele>678.0</ele><time>2026-04-22T11:29:49.536Z</time></trkpt><trkpt lat="44.21239" lon="8.00587"><ele>684.0</ele><time>2026-04-22T11:29:51.536Z</time></trkpt><trkpt lat="44.2124267" lon="8.0057233"><ele>690.0</ele><time>2026-04-22T11:29:53.536Z</time></trkpt><trkpt lat="44.2124667" lon="8.005595"><ele>696.0</ele><time>2026-04-22T11:29:55.536Z</time></trkpt><trkpt lat="44.2125317" lon="8.0054783"><ele>702.0</ele><time>2026-04-22T11:29:57.536Z</time></trkpt><trkpt lat="44.2125917" lon="8.0053883"><ele>708.0</ele><time>2026-04-22T11:29:59.536Z</time></trkpt><trkpt lat="44.21266" lon="8.00532"><ele>708.0</ele><time>2026-04-22T11:30:01.536Z</time></trkpt><trkpt lat="44.2127233" lon="8.005245"><ele>708.0</ele><time>2026-04-22T11:30:03.536Z</time></trkpt><trkpt lat="44.2127817" lon="8.0051983"><ele>708.0</ele><time>2026-04-22T11:30:05.536Z</time></trkpt><trkpt lat="44.212835" lon="8.00513"><ele>708.0</ele><time>2026-04-22T11:30:08.536Z</time></trkpt><trkpt lat="44.2128833" lon="8.0050433"><ele>708.0</ele><time>2026-04-22T11:30:11.536Z</time></trkpt><trkpt lat="44.2129067" lon="8.0049217"><ele>708.0</ele><time>2026-04-22T11:30:14.536Z</time></trkpt><trkpt lat="44.2129133" lon="8.004825"><ele>709.8571428571429</ele><time>2026-04-22T11:30:17.536Z</time></trkpt><trkpt lat="44.212915" lon="8.004735"><ele>711.7142857142857</ele><time>2026-04-22T11:30:19.536Z</time></trkpt><trkpt lat="44.2129183" lon="8.0046417"><ele>713.5714285714286</ele><time>2026-04-22T11:30:21.536Z</time></trkpt><trkpt lat="44.2128983" lon="8.0045333"><ele>715.4285714285714</ele><time>2026-04-22T11:30:24.536Z</time></trkpt><trkpt lat="44.212875" lon="8.004415"><ele>717.2857142857142</ele><time>2026-04-22T11:30:28.536Z</time></trkpt><trkpt lat="44.2128583" lon="8.004325"><ele>719.1428571428571</ele><time>2026-04-22T11:30:30.535Z</time></trkpt><trkpt lat="44.21287" lon="8.0042117"><ele>721.0</ele><time>2026-04-22T11:30:33.536Z</time></trkpt><trkpt lat="44.21291" lon="8.0040967"><ele>723.5</ele><time>2026-04-22T11:30:36.536Z</time></trkpt><trkpt lat="44.2129317" lon="8.00398"><ele>726.0</ele><time>2026-04-22T11:31:11.535Z</time></trkpt><trkpt lat="44.2129267" lon="8.0038733"><ele>728.5</ele><time>2026-04-22T11:31:13.536Z</time></trkpt><trkpt lat="44.2129117" lon="8.0037683"><ele>731.0</ele><time>2026-04-22T11:31:15.536Z</time></trkpt><trkpt lat="44.2128917" lon="8.003645"><ele>733.5</ele><time>2026-04-22T11:31:18.535Z</time></trkpt><trkpt lat="44.21289" lon="8.0035283"><ele>736.0</ele><time>2026-04-22T11:31:21.536Z</time></trkpt><trkpt lat="44.2128783" lon="8.0034317"><ele>737.5</ele><time>2026-04-22T11:31:24.536Z</time></trkpt><trkpt lat="44.2128183" lon="8.0033267"><ele>739.0</ele><time>2026-04-22T11:32:15.536Z</time></trkpt><trkpt lat="44.2128417" lon="8.0032133"><ele>740.5</ele><time>2026-04-22T11:32:31.536Z</time></trkpt><trkpt lat="44.212875" lon="8.00313"><ele>742.0</ele><time>2026-04-22T11:32:35.535Z</time></trkpt><trkpt lat="44.2129333" lon="8.0030717"><ele>743.5</ele><time>2026-04-22T11:32:39.536Z</time></trkpt><trkpt lat="44.2129967" lon="8.0030517"><ele>745.0</ele><time>2026-04-22T11:32:54.536Z</time></trkpt><trkpt lat="44.2130617" lon="8.0030133"><ele>745.0</ele><time>2026-04-22T11:32:58.536Z</time></trkpt><trkpt lat="44.2131367" lon="8.0029617"><ele>745.0</ele><time>2026-04-22T11:33:02.536Z</time></trkpt><trkpt lat="44.2131983" lon="8.0029067"><ele>745.0</ele><time>2026-04-22T11:33:05.536Z</time></trkpt><trkpt lat="44.213235" lon="8.002825"><ele>745.0</ele><time>2026-04-22T11:33:19.536Z</time></trkpt><trkpt lat="44.213235" lon="8.0027283"><ele>745.0</ele><time>2026-04-22T11:33:23.536Z</time></trkpt><trkpt lat="44.213225" lon="8.002615"><ele>745.0</ele><time>2026-04-22T11:33:27.536Z</time></trkpt><trkpt lat="44.2132483" lon="8.0025333"><ele>745.0</ele><time>2026-04-22T11:33:30.536Z</time></trkpt><trkpt lat="44.21331" lon="8.0024567"><ele>752.2</ele><time>2026-04-22T11:33:47.536Z</time></trkpt><trkpt lat="44.2133283" lon="8.0023383"><ele>759.4</ele><time>2026-04-22T11:33:50.536Z</time></trkpt><trkpt lat="44.21335" lon="8.002185"><ele>766.5999999999999</ele><time>2026-04-22T11:33:52.536Z</time></trkpt><trkpt lat="44.2133617" lon="8.0020917"><ele>773.8</ele><time>2026-04-22T11:33:53.536Z</time></trkpt><trkpt lat="44.2133417" lon="8.0019617"><ele>781.0</ele><time>2026-04-22T11:33:55.535Z</time></trkpt><trkpt lat="44.2132733" lon="8.0018633"><ele>781.0</ele><time>2026-04-22T11:33:57.536Z</time></trkpt><trkpt lat="44.2131833" lon="8.0017967"><ele>781.0</ele><time>2026-04-22T11:33:59.536Z</time></trkpt><trkpt lat="44.2131" lon="8.0017117"><ele>781.0</ele><time>2026-04-22T11:34:01.535Z</time></trkpt><trkpt lat="44.21302" lon="8.0015933"><ele>781.0</ele><time>2026-04-22T11:34:03.536Z</time></trkpt><trkpt lat="44.2129517" lon="8.0014817"><ele>781.0</ele><time>2026-04-22T11:34:05.536Z</time></trkpt><trkpt lat="44.2129083" lon="8.0014017"><ele>783.8333333333333</ele><time>2026-04-22T11:34:07.536Z</time></trkpt><trkpt lat="44.2128633" lon="8.0012967"><ele>786.6666666666666</ele><time>2026-04-22T11:34:09.536Z</time></trkpt><trkpt lat="44.2128367" lon="8.001165"><ele>789.5</ele><time>2026-04-22T11:34:11.536Z</time></trkpt><trkpt lat="44.2128517" lon="8.001065"><ele>792.3333333333333</ele><time>2026-04-22T11:34:13.536Z</time></trkpt><trkpt lat="44.2129333" lon="8.0009933"><ele>795.1666666666666</ele><time>2026-04-22T11:34:16.536Z</time></trkpt><trkpt lat="44.2129967" lon="8.0009533"><ele>798.0</ele><time>2026-04-22T11:34:18.536Z</time></trkpt><trkpt lat="44.2130533" lon="8.0009"><ele>798.0</ele><time>2026-04-22T11:34:20.536Z</time></trkpt><trkpt lat="44.213135" lon="8.00084"><ele>798.0</ele><time>2026-04-22T11:34:23.535Z</time></trkpt><trkpt lat="44.213215" lon="8.00082"><ele>798.0</ele><time>2026-04-22T11:34:26.536Z</time></trkpt><trkpt lat="44.2132383" lon="8.000675"><ele>798.0</ele><time>2026-04-22T11:34:34.536Z</time></trkpt><trkpt lat="44.2132617" lon="8.00053"><ele>798.0</ele><time>2026-04-22T11:34:36.536Z</time></trkpt><trkpt lat="44.2132817" lon="8.0003967"><ele>802.6666666666666</ele><time>2026-04-22T11:34:38.536Z</time></trkpt><trkpt lat="44.21324" lon="8.00033"><ele>807.3333333333333</ele><time>2026-04-22T11:34:42.536Z</time></trkpt><trkpt lat="44.2131767" lon="8.0003117"><ele>812.0</ele><time>2026-04-22T11:34:44.536Z</time></trkpt><trkpt lat="44.2131017" lon="8.0002683"><ele>816.6666666666666</ele><time>2026-04-22T11:34:46.536Z</time></trkpt><trkpt lat="44.2130233" lon="8.000215"><ele>821.3333333333333</ele><time>2026-04-22T11:34:48.535Z</time></trkpt><trkpt lat="44.21295" lon="8.000145"><ele>826.0</ele><time>2026-04-22T11:34:50.535Z</time></trkpt><trkpt lat="44.212865" lon="8.00006"><ele>826.0</ele><time>2026-04-22T11:34:52.536Z</time></trkpt><trkpt lat="44.2128067" lon="7.999965"><ele>826.0</ele><time>2026-04-22T11:34:54.536Z</time></trkpt><trkpt lat="44.2127483" lon="7.999855"><ele>826.0</ele><time>2026-04-22T11:34:56.536Z</time></trkpt><trkpt lat="44.2126633" lon="7.9997233"><ele>826.0</ele><time>2026-04-22T11:34:58.536Z</time></trkpt><trkpt lat="44.21261" lon="7.9996683"><ele>826.0</ele><time>2026-04-22T11:34:59.536Z</time></trkpt><trkpt lat="44.2125067" lon="7.9996017"><ele>825.9999999999999</ele><time>2026-04-22T11:35:01.535Z</time></trkpt><trkpt lat="44.212435" lon="7.9995717"><ele>826.0</ele><time>2026-04-22T11:35:03.536Z</time></trkpt><trkpt lat="44.212355" lon="7.9995167"><ele>826.0</ele><time>2026-04-22T11:35:06.535Z</time></trkpt><trkpt lat="44.2123483" lon="7.9993967"><ele>826.0</ele><time>2026-04-22T11:35:10.536Z</time></trkpt><trkpt lat="44.21237" lon="7.9992867"><ele>825.9999999999999</ele><time>2026-04-22T11:35:13.536Z</time></trkpt><trkpt lat="44.2124133" lon="7.9992083"><ele>826.0</ele><time>2026-04-22T11:35:16.536Z</time></trkpt><trkpt lat="44.21244" lon="7.9991017"><ele>829.8</ele><time>2026-04-22T11:35:19.535Z</time></trkpt><trkpt lat="44.2124117" lon="7.9989667"><ele>833.5999999999999</ele><time>2026-04-22T11:35:21.536Z</time></trkpt><trkpt lat="44.2123633" lon="7.998845"><ele>837.4</ele><time>2026-04-22T11:35:23.536Z</time></trkpt><trkpt lat="44.2123333" lon="7.9987167"><ele>841.2</ele><time>2026-04-22T11:35:25.536Z</time></trkpt><trkpt lat="44.2123283" lon="7.9986133"><ele>845.0</ele><time>2026-04-22T11:35:27.536Z</time></trkpt><trkpt lat="44.2124067" lon="7.9986017"><ele>845.0</ele><time>2026-04-22T11:35:30.536Z</time></trkpt><trkpt lat="44.2124667" lon="7.9986367"><ele>845.0</ele><time>2026-04-22T11:35:32.535Z</time></trkpt><trkpt lat="44.21254" lon="7.998675"><ele>845.0</ele><time>2026-04-22T11:35:34.536Z</time></trkpt><trkpt lat="44.2126617" lon="7.998705"><ele>845.0</ele><time>2026-04-22T11:35:36.536Z</time></trkpt><trkpt lat="44.21278" lon="7.9987017"><ele>845.0</ele><time>2026-04-22T11:35:38.537Z</time></trkpt><trkpt lat="44.2129" lon="7.9986717"><ele>845.0000000000001</ele><time>2026-04-22T11:35:40.537Z</time></trkpt><trkpt lat="44.212965" lon="7.9986683"><ele>845.0</ele><time>2026-04-22T11:35:41.537Z</time></trkpt><trkpt lat="44.213035" lon="7.9987017"><ele>845.0</ele><time>2026-04-22T11:35:43.537Z</time></trkpt><trkpt lat="44.21313" lon="7.9987233"><ele>845.0</ele><time>2026-04-22T11:35:46.537Z</time></trkpt><trkpt lat="44.2132333" lon="7.9986667"><ele>845.0000000000001</ele><time>2026-04-22T11:36:35.537Z</time></trkpt><trkpt lat="44.2132917" lon="7.9985567"><ele>845.0</ele><time>2026-04-22T11:36:37.537Z</time></trkpt><trkpt lat="44.2133433" lon="7.998485"><ele>846.5000000000001</ele><time>2026-04-22T11:36:38.537Z</time></trkpt><trkpt lat="44.2133967" lon="7.9984183"><ele>848.0</ele><time>2026-04-22T11:36:39.537Z</time></trkpt><trkpt lat="44.2134583" lon="7.9983483"><ele>849.5</ele><time>2026-04-22T11:36:40.536Z</time></trkpt><trkpt lat="44.2135183" lon="7.9982917"><ele>851.0</ele><time>2026-04-22T11:36:41.536Z</time></trkpt><trkpt lat="44.2135883" lon="7.998225"><ele>852.5000000000001</ele><time>2026-04-22T11:36:42.537Z</time></trkpt><trkpt lat="44.2136617" lon="7.9981433"><ele>854.0</ele><time>2026-04-22T11:36:43.537Z</time></trkpt><trkpt lat="44.2137183" lon="7.9980517"><ele>853.3333333333334</ele><time>2026-04-22T11:36:44.537Z</time></trkpt><trkpt lat="44.2137717" lon="7.9979883"><ele>852.6666666666667</ele><time>2026-04-22T11:36:45.537Z</time></trkpt><trkpt lat="44.2138267" lon="7.9979417"><ele>852.0</ele><time>2026-04-22T11:36:46.537Z</time></trkpt><trkpt lat="44.2138933" lon="7.9979017"><ele>851.3333333333333</ele><time>2026-04-22T11:36:47.537Z</time></trkpt><trkpt lat="44.2139967" lon="7.9978233"><ele>850.6666666666666</ele><time>2026-04-22T11:36:49.536Z</time></trkpt><trkpt lat="44.2140733" lon="7.9977917"><ele>850.0</ele><time>2026-04-22T11:36:50.537Z</time></trkpt><trkpt lat="44.214155" lon="7.9977617"><ele>849.9999999999999</ele><time>2026-04-22T11:36:51.537Z</time></trkpt><trkpt lat="44.21424" lon="7.99774"><ele>850.0</ele><time>2026-04-22T11:36:52.537Z</time></trkpt><trkpt lat="44.21433" lon="7.9977167"><ele>850.0</ele><time>2026-04-22T11:36:53.537Z</time></trkpt><trkpt lat="44.2144183" lon="7.9976767"><ele>850.0</ele><time>2026-04-22T11:36:54.537Z</time></trkpt><trkpt lat="44.21449" lon="7.99764"><ele>849.9999999999999</ele><time>2026-04-22T11:36:55.537Z</time></trkpt><trkpt lat="44.214555" lon="7.9976067"><ele>850.0</ele><time>2026-04-22T11:36:56.537Z</time></trkpt><trkpt lat="44.21462" lon="7.9975733"><ele>849.9999999999999</ele><time>2026-04-22T11:36:57.537Z</time></trkpt><trkpt lat="44.2146783" lon="7.9975267"><ele>850.0</ele><time>2026-04-22T11:36:58.537Z</time></trkpt><trkpt lat="44.2147283" lon="7.9974683"><ele>850.0</ele><time>2026-04-22T11:36:59.537Z</time></trkpt><trkpt lat="44.21479" lon="7.997395"><ele>850.0</ele><time>2026-04-22T11:37:00.537Z</time></trkpt><trkpt lat="44.2148533" lon="7.9973133"><ele>849.9999999999999</ele><time>2026-04-22T11:37:01.536Z</time></trkpt><trkpt lat="44.214915" lon="7.9972467"><ele>850.0</ele><time>2026-04-22T11:37:02.537Z</time></trkpt><trkpt lat="44.2149717" lon="7.9971767"><ele>853.4999999999999</ele><time>2026-04-22T11:37:03.537Z</time></trkpt><trkpt lat="44.21503" lon="7.9971217"><ele>857.0</ele><time>2026-04-22T11:37:04.536Z</time></trkpt><trkpt lat="44.2151333" lon="7.9970533"><ele>860.5</ele><time>2026-04-22T11:37:06.536Z</time></trkpt><trkpt lat="44.21526" lon="7.9970283"><ele>864.0</ele><time>2026-04-22T11:37:08.537Z</time></trkpt><trkpt lat="44.215325" lon="7.9970167"><ele>867.4999999999999</ele><time>2026-04-22T11:37:09.536Z</time></trkpt><trkpt lat="44.21539" lon="7.9970017"><ele>871.0</ele><time>2026-04-22T11:37:10.537Z</time></trkpt><trkpt lat="44.2154583" lon="7.996975"><ele>871.0</ele><time>2026-04-22T11:37:11.537Z</time></trkpt><trkpt lat="44.21553" lon="7.9969533"><ele>871.0</ele><time>2026-04-22T11:37:12.536Z</time></trkpt><trkpt lat="44.2156083" lon="7.996925"><ele>871.0</ele><time>2026-04-22T11:37:13.537Z</time></trkpt><trkpt lat="44.2156833" lon="7.9968933"><ele>871.0</ele><time>2026-04-22T11:37:14.536Z</time></trkpt><trkpt lat="44.2157533" lon="7.99686"><ele>871.0</ele><time>2026-04-22T11:37:15.537Z</time></trkpt><trkpt lat="44.2158183" lon="7.9968317"><ele>871.0</ele><time>2026-04-22T11:37:16.537Z</time></trkpt><trkpt lat="44.2158817" lon="7.9968"><ele>871.0</ele><time>2026-04-22T11:37:17.537Z</time></trkpt><trkpt lat="44.2159483" lon="7.9967583"><ele>872.3333333333333</ele><time>2026-04-22T11:37:18.537Z</time></trkpt><trkpt lat="44.21601" lon="7.9967133"><ele>873.6666666666666</ele><time>2026-04-22T11:37:19.537Z</time></trkpt><trkpt lat="44.2160667" lon="7.9966567"><ele>875.0</ele><time>2026-04-22T11:37:20.537Z</time></trkpt><trkpt lat="44.2161167" lon="7.99659"><ele>876.3333333333333</ele><time>2026-04-22T11:37:21.537Z</time></trkpt><trkpt lat="44.21619" lon="7.99644"><ele>877.6666666666666</ele><time>2026-04-22T11:37:23.537Z</time></trkpt><trkpt lat="44.2162383" lon="7.996355"><ele>879.0</ele><time>2026-04-22T11:37:24.536Z</time></trkpt><trkpt lat="44.2162867" lon="7.9962833"><ele>880.5</ele><time>2026-04-22T11:37:25.537Z</time></trkpt><trkpt lat="44.21635" lon="7.996205"><ele>882.0</ele><time>2026-04-22T11:37:26.537Z</time></trkpt><trkpt lat="44.2164117" lon="7.9961433"><ele>883.5</ele><time>2026-04-22T11:37:27.537Z</time></trkpt><trkpt lat="44.2164833" lon="7.9960983"><ele>885.0</ele><time>2026-04-22T11:37:28.537Z</time></trkpt><trkpt lat="44.2165633" lon="7.9960367"><ele>886.5</ele><time>2026-04-22T11:37:29.537Z</time></trkpt><trkpt lat="44.2166383" lon="7.9959733"><ele>888.0</ele><time>2026-04-22T11:37:30.537Z</time></trkpt><trkpt lat="44.2167067" lon="7.9959217"><ele>888.0</ele><time>2026-04-22T11:37:31.537Z</time></trkpt><trkpt lat="44.21677" lon="7.9958733"><ele>888.0</ele><time>2026-04-22T11:37:32.537Z</time></trkpt><trkpt lat="44.2168267" lon="7.9958233"><ele>888.0</ele><time>2026-04-22T11:37:33.536Z</time></trkpt><trkpt lat="44.21688" lon="7.9957717"><ele>888.0</ele><time>2026-04-22T11:37:34.537Z</time></trkpt><trkpt lat="44.21694" lon="7.995725"><ele>888.0</ele><time>2026-04-22T11:37:35.537Z</time></trkpt><trkpt lat="44.2169967" lon="7.9956867"><ele>888.0</ele><time>2026-04-22T11:37:36.537Z</time></trkpt><trkpt lat="44.21706" lon="7.99563"><ele>888.0</ele><time>2026-04-22T11:37:37.537Z</time></trkpt><trkpt lat="44.21712" lon="7.99556"><ele>890.0</ele><time>2026-04-22T11:37:38.537Z</time></trkpt><trkpt lat="44.217185" lon="7.9954917"><ele>892.0</ele><time>2026-04-22T11:37:39.537Z</time></trkpt><trkpt lat="44.217245" lon="7.99543"><ele>894.0</ele><time>2026-04-22T11:37:40.536Z</time></trkpt><trkpt lat="44.2173217" lon="7.9953667"><ele>896.0</ele><time>2026-04-22T11:37:41.537Z</time></trkpt><trkpt lat="44.2173817" lon="7.9952983"><ele>898.0</ele><time>2026-04-22T11:37:42.537Z</time></trkpt><trkpt lat="44.2174467" lon="7.9952383"><ele>900.0</ele><time>2026-04-22T11:37:43.537Z</time></trkpt><trkpt lat="44.21751" lon="7.99519"><ele>900.0</ele><time>2026-04-22T11:37:44.537Z</time></trkpt><trkpt lat="44.21757" lon="7.9951483"><ele>900.0</ele><time>2026-04-22T11:37:45.537Z</time></trkpt><trkpt lat="44.2176317" lon="7.9950983"><ele>900.0</ele><time>2026-04-22T11:37:46.537Z</time></trkpt><trkpt lat="44.2177317" lon="7.9950333"><ele>900.0</ele><time>2026-04-22T11:37:48.537Z</time></trkpt><trkpt lat="44.217845" lon="7.99497"><ele>900.0</ele><time>2026-04-22T11:37:50.537Z</time></trkpt><trkpt lat="44.2179317" lon="7.9949"><ele>902.0000000000001</ele><time>2026-04-22T11:37:52.537Z</time></trkpt><trkpt lat="44.2178833" lon="7.99484"><ele>904.0</ele><time>2026-04-22T11:39:39.537Z</time></trkpt><trkpt lat="44.21786" lon="7.99475"><ele>906.0000000000001</ele><time>2026-04-22T11:39:41.537Z</time></trkpt><trkpt lat="44.2178633" lon="7.9946583"><ele>908.0000000000001</ele><time>2026-04-22T11:39:44.537Z</time></trkpt><trkpt lat="44.2179067" lon="7.9945533"><ele>910.0</ele><time>2026-04-22T11:39:56.536Z</time></trkpt><trkpt lat="44.2179483" lon="7.9944867"><ele>912.0000000000001</ele><time>2026-04-22T11:39:57.537Z</time></trkpt><trkpt lat="44.217995" lon="7.9944167"><ele>914.0000000000001</ele><time>2026-04-22T11:39:58.537Z</time></trkpt><trkpt lat="44.2180533" lon="7.9943333"><ele>914.0</ele><time>2026-04-22T11:39:59.536Z</time></trkpt><trkpt lat="44.2181317" lon="7.9942483"><ele>914.0000000000001</ele><time>2026-04-22T11:40:00.537Z</time></trkpt><trkpt lat="44.2182033" lon="7.99416"><ele>914.0000000000001</ele><time>2026-04-22T11:40:01.537Z</time></trkpt><trkpt lat="44.2182617" lon="7.9940667"><ele>914.0</ele><time>2026-04-22T11:40:02.537Z</time></trkpt><trkpt lat="44.2182933" lon="7.9939383"><ele>914.0</ele><time>2026-04-22T11:40:03.537Z</time></trkpt><trkpt lat="44.2182933" lon="7.9938033"><ele>918.5</ele><time>2026-04-22T11:40:04.537Z</time></trkpt><trkpt lat="44.2183" lon="7.9936633"><ele>923.0</ele><time>2026-04-22T11:40:05.537Z</time></trkpt><trkpt lat="44.2183133" lon="7.9935067"><ele>927.5</ele><time>2026-04-22T11:40:06.537Z</time></trkpt><trkpt lat="44.2183383" lon="7.9933467"><ele>932.0</ele><time>2026-04-22T11:40:07.537Z</time></trkpt><trkpt lat="44.2183783" lon="7.9931817"><ele>932.0</ele><time>2026-04-22T11:40:08.536Z</time></trkpt><trkpt lat="44.2184433" lon="7.9930117"><ele>932.0</ele><time>2026-04-22T11:40:09.536Z</time></trkpt><trkpt lat="44.2185183" lon="7.9928533"><ele>932.0</ele><time>2026-04-22T11:40:10.537Z</time></trkpt><trkpt lat="44.2185983" lon="7.9927017"><ele>932.0</ele><time>2026-04-22T11:40:11.537Z</time></trkpt><trkpt lat="44.2186717" lon="7.992555"><ele>931.0</ele><time>2026-04-22T11:40:12.537Z</time></trkpt><trkpt lat="44.21873" lon="7.9923983"><ele>930.0</ele><time>2026-04-22T11:40:13.537Z</time></trkpt><trkpt lat="44.2187683" lon="7.9922283"><ele>929.0</ele><time>2026-04-22T11:40:14.537Z</time></trkpt><trkpt lat="44.2187917" lon="7.992055"><ele>928.0</ele><time>2026-04-22T11:40:15.537Z</time></trkpt><trkpt lat="44.2188" lon="7.9918717"><ele>928.0</ele><time>2026-04-22T11:40:16.537Z</time></trkpt><trkpt lat="44.2188367" lon="7.9917367"><ele>928.0</ele><time>2026-04-22T11:40:17.537Z</time></trkpt><trkpt lat="44.21885" lon="7.991575"><ele>928.0</ele><time>2026-04-22T11:40:18.537Z</time></trkpt><trkpt lat="44.2188667" lon="7.991455"><ele>928.0</ele><time>2026-04-22T11:40:19.537Z</time></trkpt><trkpt lat="44.2189533" lon="7.9914317"><ele>928.0</ele><time>2026-04-22T11:40:22.537Z</time></trkpt><trkpt lat="44.2190033" lon="7.991625"><ele>934.4</ele><time>2026-04-22T11:40:24.537Z</time></trkpt><trkpt lat="44.2190117" lon="7.991755"><ele>940.8</ele><time>2026-04-22T11:40:25.537Z</time></trkpt><trkpt lat="44.2190233" lon="7.9918883"><ele>947.2</ele><time>2026-04-22T11:40:26.536Z</time></trkpt><trkpt lat="44.2190417" lon="7.992035"><ele>953.6</ele><time>2026-04-22T11:40:27.537Z</time></trkpt><trkpt lat="44.21907" lon="7.9921617"><ele>960.0</ele><time>2026-04-22T11:40:28.537Z</time></trkpt><trkpt lat="44.2191067" lon="7.9922733"><ele>960.0</ele><time>2026-04-22T11:40:29.537Z</time></trkpt><trkpt lat="44.2191517" lon="7.9923883"><ele>960.0</ele><time>2026-04-22T11:40:30.536Z</time></trkpt><trkpt lat="44.2192" lon="7.9925267"><ele>960.0</ele><time>2026-04-22T11:40:31.537Z</time></trkpt><trkpt lat="44.2192467" lon="7.99266"><ele>960.0</ele><time>2026-04-22T11:40:32.537Z</time></trkpt><trkpt lat="44.2192833" lon="7.9927933"><ele>960.0</ele><time>2026-04-22T11:40:33.537Z</time></trkpt><trkpt lat="44.2193133" lon="7.9929183"><ele>959.8571428571429</ele><time>2026-04-22T11:40:34.536Z</time></trkpt><trkpt lat="44.2193417" lon="7.99303"><ele>959.7142857142857</ele><time>2026-04-22T11:40:35.537Z</time></trkpt><trkpt lat="44.21937" lon="7.9931167"><ele>959.5714285714286</ele><time>2026-04-22T11:40:36.537Z</time></trkpt><trkpt lat="44.2193817" lon="7.9932033"><ele>959.4285714285714</ele><time>2026-04-22T11:40:37.537Z</time></trkpt><trkpt lat="44.2193917" lon="7.993305"><ele>959.2857142857142</ele><time>2026-04-22T11:40:39.537Z</time></trkpt><trkpt lat="44.2194367" lon="7.9933817"><ele>959.1428571428571</ele><time>2026-04-22T11:40:44.537Z</time></trkpt><trkpt lat="44.2195" lon="7.9933417"><ele>959.0</ele><time>2026-04-22T11:40:47.537Z</time></trkpt><trkpt lat="44.21954" lon="7.9932367"><ele>959.0</ele><time>2026-04-22T11:40:49.537Z</time></trkpt><trkpt lat="44.21956" lon="7.9931267"><ele>959.0000000000001</ele><time>2026-04-22T11:40:50.537Z</time></trkpt><trkpt lat="44.2195833" lon="7.9929767"><ele>959.0000000000001</ele><time>2026-04-22T11:40:51.537Z</time></trkpt><trkpt lat="44.21961" lon="7.9928383"><ele>959.0</ele><time>2026-04-22T11:40:52.537Z</time></trkpt><trkpt lat="44.2196283" lon="7.99271"><ele>959.0</ele><time>2026-04-22T11:40:53.537Z</time></trkpt><trkpt lat="44.2196333" lon="7.9925667"><ele>959.2</ele><time>2026-04-22T11:40:54.537Z</time></trkpt><trkpt lat="44.2196333" lon="7.992395"><ele>959.4000000000001</ele><time>2026-04-22T11:40:55.536Z</time></trkpt><trkpt lat="44.2196383" lon="7.9922167"><ele>959.6</ele><time>2026-04-22T11:40:56.536Z</time></trkpt><trkpt lat="44.2196417" lon="7.9920717"><ele>959.8</ele><time>2026-04-22T11:40:57.537Z</time></trkpt><trkpt lat="44.2196567" lon="7.9919467"><ele>960.0</ele><time>2026-04-22T11:40:58.537Z</time></trkpt><trkpt lat="44.21969" lon="7.9918217"><ele>960.0</ele><time>2026-04-22T11:40:59.537Z</time></trkpt><trkpt lat="44.2197317" lon="7.99171"><ele>960.0</ele><time>2026-04-22T11:41:00.536Z</time></trkpt><trkpt lat="44.2197767" lon="7.9915933"><ele>960.0</ele><time>2026-04-22T11:41:01.537Z</time></trkpt><trkpt lat="44.2197967" lon="7.9914867"><ele>960.0</ele><time>2026-04-22T11:41:02.536Z</time></trkpt><trkpt lat="44.2198033" lon="7.9913767"><ele>960.0</ele><time>2026-04-22T11:41:03.536Z</time></trkpt><trkpt lat="44.219795" lon="7.99126"><ele>960.0</ele><time>2026-04-22T11:41:04.537Z</time></trkpt><trkpt lat="44.2197667" lon="7.99114"><ele>960.6666666666666</ele><time>2026-04-22T11:41:05.536Z</time></trkpt><trkpt lat="44.219725" lon="7.991025"><ele>961.3333333333333</ele><time>2026-04-22T11:41:06.537Z</time></trkpt><trkpt lat="44.2196717" lon="7.9909267"><ele>962.0</ele><time>2026-04-22T11:41:07.536Z</time></trkpt><trkpt lat="44.21961" lon="7.990835"><ele>962.6666666666666</ele><time>2026-04-22T11:41:08.537Z</time></trkpt><trkpt lat="44.219545" lon="7.9907433"><ele>963.3333333333333</ele><time>2026-04-22T11:41:09.537Z</time></trkpt><trkpt lat="44.2195083" lon="7.9906433"><ele>964.0</ele><time>2026-04-22T11:41:10.537Z</time></trkpt><trkpt lat="44.21949" lon="7.99052"><ele>967.0</ele><time>2026-04-22T11:41:11.537Z</time></trkpt><trkpt lat="44.2194817" lon="7.99038"><ele>970.0</ele><time>2026-04-22T11:41:12.537Z</time></trkpt><trkpt lat="44.2194867" lon="7.990205"><ele>973.0</ele><time>2026-04-22T11:41:13.536Z</time></trkpt><trkpt lat="44.2195033" lon="7.9900067"><ele>976.0</ele><time>2026-04-22T11:41:14.537Z</time></trkpt><trkpt lat="44.2195217" lon="7.9898433"><ele>978.5999999999999</ele><time>2026-04-22T11:41:15.537Z</time></trkpt><trkpt lat="44.219555" lon="7.9897183"><ele>981.1999999999999</ele><time>2026-04-22T11:41:16.537Z</time></trkpt><trkpt lat="44.2195883" lon="7.989625"><ele>983.8000000000001</ele><time>2026-04-22T11:41:17.537Z</time></trkpt><trkpt lat="44.21964" lon="7.9895383"><ele>986.4000000000001</ele><time>2026-04-22T11:41:18.537Z</time></trkpt><trkpt lat="44.2196833" lon="7.9894617"><ele>989.0</ele><time>2026-04-22T11:41:19.537Z</time></trkpt><trkpt lat="44.2197733" lon="7.9893233"><ele>989.0000000000001</ele><time>2026-04-22T11:41:21.537Z</time></trkpt><trkpt lat="44.21986" lon="7.9892983"><ele>989.0</ele><time>2026-04-22T11:41:23.537Z</time></trkpt><trkpt lat="44.219905" lon="7.9893833"><ele>989.0</ele><time>2026-04-22T11:41:25.537Z</time></trkpt><trkpt lat="44.2198767" lon="7.989535"><ele>989.0</ele><time>2026-04-22T11:41:27.537Z</time></trkpt><trkpt lat="44.2198483" lon="7.989625"><ele>989.0000000000001</ele><time>2026-04-22T11:41:28.537Z</time></trkpt><trkpt lat="44.2198233" lon="7.9897167"><ele>989.0</ele><time>2026-04-22T11:41:29.537Z</time></trkpt><trkpt lat="44.2198167" lon="7.989805"><ele>992.1666666666667</ele><time>2026-04-22T11:41:30.537Z</time></trkpt><trkpt lat="44.2198433" lon="7.989895"><ele>995.3333333333334</ele><time>2026-04-22T11:41:31.537Z</time></trkpt><trkpt lat="44.2198933" lon="7.989995"><ele>998.5</ele><time>2026-04-22T11:41:32.537Z</time></trkpt><trkpt lat="44.2199433" lon="7.9900867"><ele>1001.6666666666667</ele><time>2026-04-22T11:41:33.537Z</time></trkpt><trkpt lat="44.2199867" lon="7.99018"><ele>1004.8333333333334</ele><time>2026-04-22T11:41:34.537Z</time></trkpt><trkpt lat="44.2200317" lon="7.990255"><ele>1008.0</ele><time>2026-04-22T11:41:35.537Z</time></trkpt><trkpt lat="44.2201233" lon="7.9903417"><ele>1008.0</ele><time>2026-04-22T11:41:37.537Z</time></trkpt><trkpt lat="44.220215" lon="7.990295"><ele>1008.0</ele><time>2026-04-22T11:41:39.537Z</time></trkpt><trkpt lat="44.2202667" lon="7.9901267"><ele>1008.0</ele><time>2026-04-22T11:41:41.537Z</time></trkpt><trkpt lat="44.2202883" lon="7.9900317"><ele>1008.0</ele><time>2026-04-22T11:41:42.537Z</time></trkpt><trkpt lat="44.2203283" lon="7.989925"><ele>1008.0</ele><time>2026-04-22T11:41:43.536Z</time></trkpt><trkpt lat="44.2203733" lon="7.9898283"><ele>1009.5</ele><time>2026-04-22T11:41:44.537Z</time></trkpt><trkpt lat="44.2204233" lon="7.9897383"><ele>1011.0</ele><time>2026-04-22T11:41:45.537Z</time></trkpt><trkpt lat="44.2204683" lon="7.9896433"><ele>1012.5</ele><time>2026-04-22T11:41:46.537Z</time></trkpt><trkpt lat="44.2205133" lon="7.9895367"><ele>1014.0</ele><time>2026-04-22T11:41:47.536Z</time></trkpt><trkpt lat="44.2205583" lon="7.9894283"><ele>1015.5</ele><time>2026-04-22T11:41:48.537Z</time></trkpt><trkpt lat="44.2206" lon="7.9893183"><ele>1017.0</ele><time>2026-04-22T11:41:49.537Z</time></trkpt><trkpt lat="44.2206333" lon="7.9892133"><ele>1020.8</ele><time>2026-04-22T11:41:50.537Z</time></trkpt><trkpt lat="44.220675" lon="7.9890933"><ele>1024.6</ele><time>2026-04-22T11:41:51.537Z</time></trkpt><trkpt lat="44.220715" lon="7.9889683"><ele>1028.3999999999999</ele><time>2026-04-22T11:41:52.536Z</time></trkpt><trkpt lat="44.2207467" lon="7.98883"><ele>1032.2</ele><time>2026-04-22T11:41:53.537Z</time></trkpt><trkpt lat="44.2207867" lon="7.988695"><ele>1036.0</ele><time>2026-04-22T11:41:54.537Z</time></trkpt><trkpt lat="44.220835" lon="7.988555"><ele>1036.0</ele><time>2026-04-22T11:41:55.536Z</time></trkpt><trkpt lat="44.220875" lon="7.98842"><ele>1036.0</ele><time>2026-04-22T11:41:56.537Z</time></trkpt><trkpt lat="44.2209033" lon="7.9882917"><ele>1036.0</ele><time>2026-04-22T11:41:57.536Z</time></trkpt><trkpt lat="44.2209183" lon="7.9881533"><ele>1036.0</ele><time>2026-04-22T11:41:58.537Z</time></trkpt><trkpt lat="44.22092" lon="7.9880017"><ele>1036.0</ele><time>2026-04-22T11:41:59.537Z</time></trkpt><trkpt lat="44.2209183" lon="7.9878667"><ele>1035.8</ele><time>2026-04-22T11:42:00.537Z</time></trkpt><trkpt lat="44.220915" lon="7.9877367"><ele>1035.6</ele><time>2026-04-22T11:42:01.537Z</time></trkpt><trkpt lat="44.2209167" lon="7.9876067"><ele>1035.4</ele><time>2026-04-22T11:42:02.536Z</time></trkpt><trkpt lat="44.2209067" lon="7.98747"><ele>1035.2</ele><time>2026-04-22T11:42:03.537Z</time></trkpt><trkpt lat="44.22088" lon="7.9873367"><ele>1035.0</ele><time>2026-04-22T11:42:04.537Z</time></trkpt><trkpt lat="44.2208367" lon="7.9872117"><ele>1035.8</ele><time>2026-04-22T11:42:05.537Z</time></trkpt><trkpt lat="44.2207967" lon="7.9870733"><ele>1036.6</ele><time>2026-04-22T11:42:06.537Z</time></trkpt><trkpt lat="44.2207633" lon="7.9869467"><ele>1037.4</ele><time>2026-04-22T11:42:07.537Z</time></trkpt><trkpt lat="44.2207483" lon="7.9868367"><ele>1038.2</ele><time>2026-04-22T11:42:08.537Z</time></trkpt><trkpt lat="44.22075" lon="7.9867183"><ele>1039.0</ele><time>2026-04-22T11:42:09.537Z</time></trkpt><trkpt lat="44.22077" lon="7.9866"><ele>1040.0</ele><time>2026-04-22T11:42:10.537Z</time></trkpt><trkpt lat="44.2208083" lon="7.986475"><ele>1041.0</ele><time>2026-04-22T11:42:11.537Z</time></trkpt><trkpt lat="44.2208417" lon="7.986355"><ele>1042.0</ele><time>2026-04-22T11:42:12.537Z</time></trkpt><trkpt lat="44.2208733" lon="7.986225"><ele>1043.0</ele><time>2026-04-22T11:42:13.537Z</time></trkpt><trkpt lat="44.2209083" lon="7.9860883"><ele>1044.0</ele><time>2026-04-22T11:42:14.537Z</time></trkpt><trkpt lat="44.2209433" lon="7.9859417"><ele>1044.0</ele><time>2026-04-22T11:42:15.537Z</time></trkpt><trkpt lat="44.2209767" lon="7.98581"><ele>1044.0</ele><time>2026-04-22T11:42:16.537Z</time></trkpt><trkpt lat="44.2210033" lon="7.985715"><ele>1044.0</ele><time>2026-04-22T11:42:17.536Z</time></trkpt><trkpt lat="44.2210233" lon="7.985585"><ele>1044.0</ele><time>2026-04-22T11:42:19.537Z</time></trkpt><trkpt lat="44.221045" lon="7.9854967"><ele>1044.0</ele><time>2026-04-22T11:42:21.536Z</time></trkpt><trkpt lat="44.2210733" lon="7.985365"><ele>1044.0</ele><time>2026-04-22T11:42:23.536Z</time></trkpt><trkpt lat="44.2210933" lon="7.9851983"><ele>1044.0</ele><time>2026-04-22T11:42:25.537Z</time></trkpt><trkpt lat="44.2211033" lon="7.9850933"><ele>1044.0</ele><time>2026-04-22T11:42:26.537Z</time></trkpt><trkpt lat="44.2211267" lon="7.9849733"><ele>1044.0</ele><time>2026-04-22T11:42:27.537Z</time></trkpt><trkpt lat="44.2211483" lon="7.9848833"><ele>1044.0</ele><time>2026-04-22T11:42:28.537Z</time></trkpt><trkpt lat="44.2211567" lon="7.984795"><ele>1044.0</ele><time>2026-04-22T11:43:25.537Z</time></trkpt><trkpt lat="44.2211217" lon="7.9847183"><ele>1044.0</ele><time>2026-04-22T11:43:26.537Z</time></trkpt><trkpt lat="44.2210817" lon="7.984625"><ele>1044.0</ele><time>2026-04-22T11:43:27.537Z</time></trkpt><trkpt lat="44.2210383" lon="7.9845333"><ele>1044.0</ele><time>2026-04-22T11:43:28.537Z</time></trkpt><trkpt lat="44.2210033" lon="7.98442"><ele>1044.0</ele><time>2026-04-22T11:43:29.536Z</time></trkpt><trkpt lat="44.2209767" lon="7.9842933"><ele>1044.0</ele><time>2026-04-22T11:43:30.537Z</time></trkpt><trkpt lat="44.22094" lon="7.9841567"><ele>1044.0</ele><time>2026-04-22T11:43:31.537Z</time></trkpt><trkpt lat="44.2208883" lon="7.9840283"><ele>1044.0</ele><time>2026-04-22T11:43:32.537Z</time></trkpt><trkpt lat="44.2208217" lon="7.983915"><ele>1043.0</ele><time>2026-04-22T11:43:33.537Z</time></trkpt><trkpt lat="44.22076" lon="7.9838033"><ele>1042.0</ele><time>2026-04-22T11:43:34.536Z</time></trkpt><trkpt lat="44.2206967" lon="7.9836867"><ele>1041.0</ele><time>2026-04-22T11:43:35.536Z</time></trkpt><trkpt lat="44.220645" lon="7.9835733"><ele>1040.0</ele><time>2026-04-22T11:43:36.537Z</time></trkpt><trkpt lat="44.2206167" lon="7.9834517"><ele>1039.0</ele><time>2026-04-22T11:43:37.537Z</time></trkpt><trkpt lat="44.220605" lon="7.9833467"><ele>1039.0</ele><time>2026-04-22T11:43:38.536Z</time></trkpt><trkpt lat="44.220605" lon="7.9832217"><ele>1039.0</ele><time>2026-04-22T11:43:39.537Z</time></trkpt><trkpt lat="44.2206083" lon="7.98308"><ele>1039.0</ele><time>2026-04-22T11:43:40.537Z</time></trkpt><trkpt lat="44.2206067" lon="7.982945"><ele>1039.0</ele><time>2026-04-22T11:43:41.537Z</time></trkpt><trkpt lat="44.2205933" lon="7.98281"><ele>1039.0</ele><time>2026-04-22T11:43:42.537Z</time></trkpt><trkpt lat="44.22058" lon="7.98268"><ele>1039.0</ele><time>2026-04-22T11:43:43.537Z</time></trkpt><trkpt lat="44.220575" lon="7.982565"><ele>1039.0</ele><time>2026-04-22T11:43:44.537Z</time></trkpt><trkpt lat="44.22059" lon="7.9824467"><ele>1039.0</ele><time>2026-04-22T11:43:45.537Z</time></trkpt><trkpt lat="44.220615" lon="7.9823117"><ele>1039.0</ele><time>2026-04-22T11:43:46.537Z</time></trkpt><trkpt lat="44.22066" lon="7.9821833"><ele>1039.0</ele><time>2026-04-22T11:43:47.537Z</time></trkpt><trkpt lat="44.2207133" lon="7.9820667"><ele>1040.4</ele><time>2026-04-22T11:43:48.537Z</time></trkpt><trkpt lat="44.2207467" lon="7.9819433"><ele>1041.8000000000002</ele><time>2026-04-22T11:43:49.537Z</time></trkpt><trkpt lat="44.2207717" lon="7.9818383"><ele>1043.1999999999998</ele><time>2026-04-22T11:43:50.536Z</time></trkpt><trkpt lat="44.2207767" lon="7.98167"><ele>1044.6</ele><time>2026-04-22T11:43:52.537Z</time></trkpt><trkpt lat="44.2207033" lon="7.9815417"><ele>1046.0</ele><time>2026-04-22T11:43:54.537Z</time></trkpt><trkpt lat="44.2206467" lon="7.981465"><ele>1046.0</ele><time>2026-04-22T11:43:55.537Z</time></trkpt><trkpt lat="44.2205867" lon="7.98138"><ele>1046.0</ele><time>2026-04-22T11:43:56.537Z</time></trkpt><trkpt lat="44.2205283" lon="7.9812867"><ele>1046.0</ele><time>2026-04-22T11:43:57.536Z</time></trkpt><trkpt lat="44.2204733" lon="7.981175"><ele>1046.0</ele><time>2026-04-22T11:43:58.537Z</time></trkpt><trkpt lat="44.2204217" lon="7.98107"><ele>1046.0</ele><time>2026-04-22T11:43:59.537Z</time></trkpt><trkpt lat="44.22038" lon="7.9809567"><ele>1048.0</ele><time>2026-04-22T11:44:00.537Z</time></trkpt><trkpt lat="44.2203483" lon="7.98084"><ele>1050.0</ele><time>2026-04-22T11:44:01.536Z</time></trkpt><trkpt lat="44.2203183" lon="7.9807483"><ele>1052.0</ele><time>2026-04-22T11:44:02.537Z</time></trkpt><trkpt lat="44.2203" lon="7.9806267"><ele>1054.0</ele><time>2026-04-22T11:44:04.537Z</time></trkpt><trkpt lat="44.2202783" lon="7.9804917"><ele>1056.0</ele><time>2026-04-22T11:44:27.537Z</time></trkpt><trkpt lat="44.2202533" lon="7.9803067"><ele>1056.0</ele><time>2026-04-22T11:44:29.537Z</time></trkpt><trkpt lat="44.2202483" lon="7.9802083"><ele>1056.0</ele><time>2026-04-22T11:44:30.537Z</time></trkpt><trkpt lat="44.2202483" lon="7.98012"><ele>1056.0</ele><time>2026-04-22T11:44:31.537Z</time></trkpt><trkpt lat="44.2202817" lon="7.9799417"><ele>1056.0</ele><time>2026-04-22T11:44:33.537Z</time></trkpt><trkpt lat="44.220315" lon="7.9798117"><ele>1056.0</ele><time>2026-04-22T11:44:34.537Z</time></trkpt><trkpt lat="44.2203383" lon="7.979675"><ele>1056.8333333333333</ele><time>2026-04-22T11:44:35.537Z</time></trkpt><trkpt lat="44.2203467" lon="7.9795383"><ele>1057.6666666666667</ele><time>2026-04-22T11:44:36.537Z</time></trkpt><trkpt lat="44.220355" lon="7.9794017"><ele>1058.5</ele><time>2026-04-22T11:44:37.537Z</time></trkpt><trkpt lat="44.2203617" lon="7.97928"><ele>1059.3333333333335</ele><time>2026-04-22T11:44:38.537Z</time></trkpt><trkpt lat="44.22037" lon="7.9791583"><ele>1060.1666666666667</ele><time>2026-04-22T11:44:39.537Z</time></trkpt><trkpt lat="44.22039" lon="7.979055"><ele>1061.0</ele><time>2026-04-22T11:44:40.537Z</time></trkpt><trkpt lat="44.2203983" lon="7.9789433"><ele>1062.6666666666667</ele><time>2026-04-22T11:44:41.537Z</time></trkpt><trkpt lat="44.2203983" lon="7.9788317"><ele>1064.3333333333335</ele><time>2026-04-22T11:44:42.537Z</time></trkpt><trkpt lat="44.22039" lon="7.978725"><ele>1066.0</ele><time>2026-04-22T11:44:43.537Z</time></trkpt><trkpt lat="44.2203683" lon="7.9786333"><ele>1067.6666666666667</ele><time>2026-04-22T11:44:44.537Z</time></trkpt><trkpt lat="44.2202933" lon="7.978535"><ele>1069.3333333333333</ele><time>2026-04-22T11:44:46.537Z</time></trkpt><trkpt lat="44.2201967" lon="7.9785567"><ele>1071.0</ele><time>2026-04-22T11:44:48.536Z</time></trkpt><trkpt lat="44.2200683" lon="7.9786117"><ele>1071.0</ele><time>2026-04-22T11:44:50.537Z</time></trkpt><trkpt lat="44.219995" lon="7.9786117"><ele>1071.0</ele><time>2026-04-22T11:44:51.536Z</time></trkpt><trkpt lat="44.2199133" lon="7.9785983"><ele>1071.0</ele><time>2026-04-22T11:44:52.537Z</time></trkpt><trkpt lat="44.219845" lon="7.9785833"><ele>1071.0</ele><time>2026-04-22T11:44:53.536Z</time></trkpt><trkpt lat="44.2197333" lon="7.9785583"><ele>1071.0</ele><time>2026-04-22T11:44:55.537Z</time></trkpt><trkpt lat="44.21963" lon="7.9784983"><ele>1071.0</ele><time>2026-04-22T11:44:57.537Z</time></trkpt><trkpt lat="44.2195817" lon="7.97844"><ele>1071.0</ele><time>2026-04-22T11:44:58.537Z</time></trkpt><trkpt lat="44.2195383" lon="7.978365"><ele>1071.0</ele><time>2026-04-22T11:44:59.536Z</time></trkpt><trkpt lat="44.2194917" lon="7.9782883"><ele>1071.0</ele><time>2026-04-22T11:45:00.537Z</time></trkpt><trkpt lat="44.21946" lon="7.9781917"><ele>1071.0</ele><time>2026-04-22T11:45:01.537Z</time></trkpt><trkpt lat="44.2194267" lon="7.9780767"><ele>1071.0</ele><time>2026-04-22T11:45:02.537Z</time></trkpt><trkpt lat="44.219385" lon="7.97795"><ele>1071.0</ele><time>2026-04-22T11:45:03.536Z</time></trkpt><trkpt lat="44.21934" lon="7.9778217"><ele>1071.0</ele><time>2026-04-22T11:45:04.536Z</time></trkpt><trkpt lat="44.2192983" lon="7.9776983"><ele>1071.0</ele><time>2026-04-22T11:45:05.536Z</time></trkpt><trkpt lat="44.2192617" lon="7.9775933"><ele>1071.0</ele><time>2026-04-22T11:45:06.537Z</time></trkpt><trkpt lat="44.219235" lon="7.9775067"><ele>1071.0</ele><time>2026-04-22T11:45:07.537Z</time></trkpt><trkpt lat="44.2192117" lon="7.9774"><ele>1071.0</ele><time>2026-04-22T11:45:09.537Z</time></trkpt><trkpt lat="44.21916" lon="7.9772417"><ele>1069.6666666666667</ele><time>2026-04-22T11:45:24.537Z</time></trkpt><trkpt lat="44.219115" lon="7.9771583"><ele>1068.3333333333333</ele><time>2026-04-22T11:45:25.537Z</time></trkpt><trkpt lat="44.2190517" lon="7.9770517"><ele>1067.0</ele><time>2026-04-22T11:45:27.537Z</time></trkpt><trkpt lat="44.2189733" lon="7.9771183"><ele>1065.6666666666665</ele><time>2026-04-22T11:46:58.537Z</time></trkpt><trkpt lat="44.218915" lon="7.977175"><ele>1064.3333333333333</ele><time>2026-04-22T11:46:59.536Z</time></trkpt><trkpt lat="44.218855" lon="7.977245"><ele>1063.0</ele><time>2026-04-22T11:47:00.537Z</time></trkpt><trkpt lat="44.21879" lon="7.9773133"><ele>1063.0</ele><time>2026-04-22T11:47:01.536Z</time></trkpt><trkpt lat="44.2187233" lon="7.9773883"><ele>1063.0</ele><time>2026-04-22T11:47:02.537Z</time></trkpt><trkpt lat="44.21866" lon="7.97746"><ele>1063.0</ele><time>2026-04-22T11:47:03.537Z</time></trkpt><trkpt lat="44.2185967" lon="7.9775433"><ele>1063.0</ele><time>2026-04-22T11:47:04.537Z</time></trkpt><trkpt lat="44.2185417" lon="7.97763"><ele>1063.0</ele><time>2026-04-22T11:47:05.537Z</time></trkpt><trkpt lat="44.2184883" lon="7.977715"><ele>1063.0</ele><time>2026-04-22T11:47:06.537Z</time></trkpt><trkpt lat="44.2184233" lon="7.9777817"><ele>1062.1666666666665</ele><time>2026-04-22T11:47:07.536Z</time></trkpt><trkpt lat="44.2183467" lon="7.97784"><ele>1061.3333333333333</ele><time>2026-04-22T11:47:08.537Z</time></trkpt><trkpt lat="44.218275" lon="7.977895"><ele>1060.5</ele><time>2026-04-22T11:47:09.537Z</time></trkpt><trkpt lat="44.21823" lon="7.9779567"><ele>1059.6666666666667</ele><time>2026-04-22T11:47:10.537Z</time></trkpt><trkpt lat="44.2181883" lon="7.9781133"><ele>1058.8333333333335</ele><time>2026-04-22T11:47:12.537Z</time></trkpt><trkpt lat="44.2182167" lon="7.9782417"><ele>1058.0</ele><time>2026-04-22T11:47:14.537Z</time></trkpt><trkpt lat="44.2182933" lon="7.9782983"><ele>1058.0</ele><time>2026-04-22T11:47:16.537Z</time></trkpt><trkpt lat="44.218365" lon="7.9783317"><ele>1058.0</ele><time>2026-04-22T11:47:17.537Z</time></trkpt><trkpt lat="44.218445" lon="7.9783783"><ele>1058.0</ele><time>2026-04-22T11:47:18.537Z</time></trkpt><trkpt lat="44.2185317" lon="7.978435"><ele>1058.0</ele><time>2026-04-22T11:47:19.536Z</time></trkpt><trkpt lat="44.218615" lon="7.978505"><ele>1058.0</ele><time>2026-04-22T11:47:20.537Z</time></trkpt><trkpt lat="44.2186967" lon="7.9785883"><ele>1054.6666666666667</ele><time>2026-04-22T11:47:21.537Z</time></trkpt><trkpt lat="44.2187717" lon="7.9786617"><ele>1051.3333333333335</ele><time>2026-04-22T11:47:22.537Z</time></trkpt><trkpt lat="44.21884" lon="7.97874"><ele>1048.0</ele><time>2026-04-22T11:47:23.536Z</time></trkpt><trkpt lat="44.2189" lon="7.9788033"><ele>1044.6666666666667</ele><time>2026-04-22T11:47:24.537Z</time></trkpt><trkpt lat="44.2189367" lon="7.978875"><ele>1041.3333333333333</ele><time>2026-04-22T11:47:25.537Z</time></trkpt><trkpt lat="44.2189717" lon="7.9789817"><ele>1038.0</ele><time>2026-04-22T11:47:27.537Z</time></trkpt><trkpt lat="44.2188983" lon="7.9790233"><ele>1038.0</ele><time>2026-04-22T11:47:30.537Z</time></trkpt><trkpt lat="44.2187967" lon="7.9789833"><ele>1038.0</ele><time>2026-04-22T11:47:32.537Z</time></trkpt><trkpt lat="44.2187067" lon="7.97896"><ele>1038.0</ele><time>2026-04-22T11:47:33.536Z</time></trkpt><trkpt lat="44.2186133" lon="7.9789383"><ele>1038.0</ele><time>2026-04-22T11:47:34.537Z</time></trkpt><trkpt lat="44.2185183" lon="7.9789133"><ele>1038.0</ele><time>2026-04-22T11:47:35.536Z</time></trkpt><trkpt lat="44.2184383" lon="7.9789083"><ele>1038.0</ele><time>2026-04-22T11:47:36.537Z</time></trkpt><trkpt lat="44.2183683" lon="7.9789133"><ele>1038.0</ele><time>2026-04-22T11:47:37.537Z</time></trkpt><trkpt lat="44.2182467" lon="7.9789367"><ele>1038.0</ele><time>2026-04-22T11:47:39.537Z</time></trkpt><trkpt lat="44.2181733" lon="7.9789517"><ele>1038.0</ele><time>2026-04-22T11:47:40.537Z</time></trkpt><trkpt lat="44.2180833" lon="7.97897"><ele>1038.0</ele><time>2026-04-22T11:47:41.537Z</time></trkpt><trkpt lat="44.2179817" lon="7.979005"><ele>1036.6666666666667</ele><time>2026-04-22T11:47:42.537Z</time></trkpt><trkpt lat="44.21788" lon="7.9790533"><ele>1035.3333333333333</ele><time>2026-04-22T11:47:43.537Z</time></trkpt><trkpt lat="44.217785" lon="7.9790967"><ele>1034.0</ele><time>2026-04-22T11:47:44.537Z</time></trkpt><trkpt lat="44.217705" lon="7.9791267"><ele>1032.6666666666665</ele><time>2026-04-22T11:47:45.536Z</time></trkpt><trkpt lat="44.2176367" lon="7.9791633"><ele>1031.3333333333333</ele><time>2026-04-22T11:47:46.537Z</time></trkpt><trkpt lat="44.217565" lon="7.979205"><ele>1030.0</ele><time>2026-04-22T11:47:47.537Z</time></trkpt><trkpt lat="44.2174917" lon="7.9792383"><ele>1028.4</ele><time>2026-04-22T11:47:48.537Z</time></trkpt><trkpt lat="44.2173867" lon="7.9792317"><ele>1026.8</ele><time>2026-04-22T11:47:50.537Z</time></trkpt><trkpt lat="44.2172667" lon="7.9792467"><ele>1025.2</ele><time>2026-04-22T11:47:52.537Z</time></trkpt><trkpt lat="44.217195" lon="7.9792317"><ele>1023.6</ele><time>2026-04-22T11:47:54.537Z</time></trkpt><trkpt lat="44.2170783" lon="7.9792117"><ele>1022.0</ele><time>2026-04-22T11:48:23.538Z</time></trkpt><trkpt lat="44.2170033" lon="7.9791817"><ele>1021.3333333333334</ele><time>2026-04-22T11:48:24.538Z</time></trkpt><trkpt lat="44.2169367" lon="7.9791467"><ele>1020.6666666666667</ele><time>2026-04-22T11:48:25.538Z</time></trkpt><trkpt lat="44.2168483" lon="7.9790817"><ele>1020.0</ele><time>2026-04-22T11:48:27.538Z</time></trkpt><trkpt lat="44.2167917" lon="7.9790267"><ele>1019.3333333333333</ele><time>2026-04-22T11:48:30.538Z</time></trkpt><trkpt lat="44.216775" lon="7.9789133"><ele>1018.6666666666666</ele><time>2026-04-22T11:48:41.538Z</time></trkpt><trkpt lat="44.2167517" lon="7.97879"><ele>1018.0</ele><time>2026-04-22T11:48:43.538Z</time></trkpt><trkpt lat="44.2166683" lon="7.9787367"><ele>1018.0</ele><time>2026-04-22T11:48:45.538Z</time></trkpt><trkpt lat="44.21654" lon="7.9786917"><ele>1018.0</ele><time>2026-04-22T11:48:47.538Z</time></trkpt><trkpt lat="44.2164567" lon="7.9786517"><ele>1018.0</ele><time>2026-04-22T11:48:48.538Z</time></trkpt><trkpt lat="44.2163717" lon="7.9786117"><ele>1018.0</ele><time>2026-04-22T11:48:49.538Z</time></trkpt><trkpt lat="44.2163033" lon="7.9785733"><ele>1018.0</ele><time>2026-04-22T11:48:50.537Z</time></trkpt><trkpt lat="44.2162283" lon="7.978555"><ele>1015.1666666666666</ele><time>2026-04-22T11:48:51.537Z</time></trkpt><trkpt lat="44.2161533" lon="7.9785433"><ele>1012.3333333333333</ele><time>2026-04-22T11:48:52.538Z</time></trkpt><trkpt lat="44.21608" lon="7.9785183"><ele>1009.5</ele><time>2026-04-22T11:48:53.538Z</time></trkpt><trkpt lat="44.216005" lon="7.9784883"><ele>1006.6666666666667</ele><time>2026-04-22T11:48:54.538Z</time></trkpt><trkpt lat="44.2159333" lon="7.9784633"><ele>1003.8333333333334</ele><time>2026-04-22T11:48:55.538Z</time></trkpt><trkpt lat="44.2158217" lon="7.978475"><ele>1001.0</ele><time>2026-04-22T11:48:57.537Z</time></trkpt><trkpt lat="44.215765" lon="7.9785633"><ele>1001.0</ele><time>2026-04-22T11:48:59.538Z</time></trkpt><trkpt lat="44.2157567" lon="7.978705"><ele>1000.9999999999999</ele><time>2026-04-22T11:49:01.538Z</time></trkpt><trkpt lat="44.2157167" lon="7.978795"><ele>1000.9999999999999</ele><time>2026-04-22T11:49:03.538Z</time></trkpt><trkpt lat="44.2156017" lon="7.97886"><ele>1001.0</ele><time>2026-04-22T11:49:05.538Z</time></trkpt><trkpt lat="44.2155233" lon="7.9789083"><ele>1001.0</ele><time>2026-04-22T11:49:06.538Z</time></trkpt><trkpt lat="44.215445" lon="7.9789733"><ele>998.8333333333334</ele><time>2026-04-22T11:49:07.538Z</time></trkpt><trkpt lat="44.2153617" lon="7.9790267"><ele>996.6666666666667</ele><time>2026-04-22T11:49:08.538Z</time></trkpt><trkpt lat="44.2152883" lon="7.9790883"><ele>994.5</ele><time>2026-04-22T11:49:09.538Z</time></trkpt><trkpt lat="44.2152233" lon="7.979155"><ele>992.3333333333333</ele><time>2026-04-22T11:49:10.538Z</time></trkpt><trkpt lat="44.2151617" lon="7.979225"><ele>990.1666666666666</ele><time>2026-04-22T11:49:11.538Z</time></trkpt><trkpt lat="44.2151117" lon="7.97931"><ele>988.0</ele><time>2026-04-22T11:49:12.538Z</time></trkpt><trkpt lat="44.21508" lon="7.9794417"><ele>986.0</ele><time>2026-04-22T11:49:14.538Z</time></trkpt><trkpt lat="44.21509" lon="7.9796283"><ele>984.0</ele><time>2026-04-22T11:49:16.538Z</time></trkpt><trkpt lat="44.2150883" lon="7.9797333"><ele>982.0</ele><time>2026-04-22T11:49:17.538Z</time></trkpt><trkpt lat="44.2150617" lon="7.979815"><ele>980.0</ele><time>2026-04-22T11:49:18.538Z</time></trkpt><trkpt lat="44.2149817" lon="7.97992"><ele>978.0</ele><time>2026-04-22T11:49:20.537Z</time></trkpt><trkpt lat="44.2148867" lon="7.9799283"><ele>973.5</ele><time>2026-04-22T11:49:22.538Z</time></trkpt><trkpt lat="44.2147633" lon="7.9798067"><ele>969.0</ele><time>2026-04-22T11:49:24.537Z</time></trkpt><trkpt lat="44.21468" lon="7.9797217"><ele>964.5</ele><time>2026-04-22T11:49:25.537Z</time></trkpt><trkpt lat="44.2145867" lon="7.9796317"><ele>960.0</ele><time>2026-04-22T11:49:26.538Z</time></trkpt><trkpt lat="44.2144933" lon="7.9795483"><ele>960.0</ele><time>2026-04-22T11:49:27.538Z</time></trkpt><trkpt lat="44.2144" lon="7.9794617"><ele>960.0</ele><time>2026-04-22T11:49:28.538Z</time></trkpt><trkpt lat="44.2143217" lon="7.97938"><ele>960.0</ele><time>2026-04-22T11:49:29.538Z</time></trkpt><trkpt lat="44.2142617" lon="7.97932"><ele>960.0</ele><time>2026-04-22T11:49:30.537Z</time></trkpt><trkpt lat="44.2141867" lon="7.979235"><ele>960.0</ele><time>2026-04-22T11:49:32.538Z</time></trkpt><trkpt lat="44.214105" lon="7.9791533"><ele>961.5</ele><time>2026-04-22T11:49:52.538Z</time></trkpt><trkpt lat="44.214055" lon="7.9790867"><ele>963.0</ele><time>2026-04-22T11:49:53.537Z</time></trkpt><trkpt lat="44.214005" lon="7.9790217"><ele>964.5</ele><time>2026-04-22T11:49:54.538Z</time></trkpt><trkpt lat="44.213915" lon="7.97897"><ele>966.0</ele><time>2026-04-22T11:49:56.538Z</time></trkpt><trkpt lat="44.2138383" lon="7.9789317"><ele>967.5</ele><time>2026-04-22T11:49:58.538Z</time></trkpt><trkpt lat="44.2137567" lon="7.9788217"><ele>969.0</ele><time>2026-04-22T11:50:00.538Z</time></trkpt><trkpt lat="44.213715" lon="7.9787183"><ele>965.3333333333334</ele><time>2026-04-22T11:50:01.538Z</time></trkpt><trkpt lat="44.213685" lon="7.9786267"><ele>961.6666666666667</ele><time>2026-04-22T11:50:02.538Z</time></trkpt><trkpt lat="44.2136467" lon="7.978555"><ele>958.0</ele><time>2026-04-22T11:50:03.537Z</time></trkpt><trkpt lat="44.2135717" lon="7.978485"><ele>954.3333333333334</ele><time>2026-04-22T11:50:05.538Z</time></trkpt><trkpt lat="44.2134817" lon="7.9784083"><ele>950.6666666666667</ele><time>2026-04-22T11:50:07.538Z</time></trkpt><trkpt lat="44.2133967" lon="7.9783817"><ele>947.0</ele><time>2026-04-22T11:50:09.538Z</time></trkpt><trkpt lat="44.213295" lon="7.9783917"><ele>947.0</ele><time>2026-04-22T11:50:11.537Z</time></trkpt><trkpt lat="44.213175" lon="7.9783667"><ele>947.0</ele><time>2026-04-22T11:50:13.538Z</time></trkpt><trkpt lat="44.2130567" lon="7.97832"><ele>947.0</ele><time>2026-04-22T11:50:15.538Z</time></trkpt><trkpt lat="44.2129417" lon="7.9782833"><ele>947.0</ele><time>2026-04-22T11:50:17.538Z</time></trkpt><trkpt lat="44.2128233" lon="7.9782233"><ele>943.3333333333334</ele><time>2026-04-22T11:50:19.538Z</time></trkpt><trkpt lat="44.2127233" lon="7.9781483"><ele>939.6666666666667</ele><time>2026-04-22T11:50:21.538Z</time></trkpt><trkpt lat="44.21265" lon="7.9781317"><ele>936.0</ele><time>2026-04-22T11:50:23.538Z</time></trkpt><trkpt lat="44.2125717" lon="7.9781933"><ele>932.3333333333333</ele><time>2026-04-22T11:50:25.538Z</time></trkpt><trkpt lat="44.21252" lon="7.9782567"><ele>928.6666666666666</ele><time>2026-04-22T11:50:26.537Z</time></trkpt><trkpt lat="44.2124633" lon="7.9783233"><ele>925.0</ele><time>2026-04-22T11:50:27.538Z</time></trkpt><trkpt lat="44.2124083" lon="7.9783867"><ele>925.0</ele><time>2026-04-22T11:50:28.538Z</time></trkpt><trkpt lat="44.2123633" lon="7.9784517"><ele>925.0</ele><time>2026-04-22T11:50:29.538Z</time></trkpt><trkpt lat="44.2123167" lon="7.9785233"><ele>925.0</ele><time>2026-04-22T11:50:30.538Z</time></trkpt><trkpt lat="44.21227" lon="7.978585"><ele>925.0</ele><time>2026-04-22T11:50:31.538Z</time></trkpt><trkpt lat="44.2121867" lon="7.9786983"><ele>925.0</ele><time>2026-04-22T11:50:33.538Z</time></trkpt><trkpt lat="44.2121317" lon="7.9787417"><ele>925.0</ele><time>2026-04-22T11:50:34.538Z</time></trkpt><trkpt lat="44.2120717" lon="7.9787767"><ele>925.0</ele><time>2026-04-22T11:50:35.538Z</time></trkpt><trkpt lat="44.2120083" lon="7.9787833"><ele>921.1428571428571</ele><time>2026-04-22T11:50:36.538Z</time></trkpt><trkpt lat="44.2119417" lon="7.97876"><ele>917.2857142857142</ele><time>2026-04-22T11:50:37.538Z</time></trkpt><trkpt lat="44.2118683" lon="7.9787133"><ele>913.4285714285713</ele><time>2026-04-22T11:50:38.538Z</time></trkpt><trkpt lat="44.2118" lon="7.97866"><ele>909.5714285714286</ele><time>2026-04-22T11:50:39.538Z</time></trkpt><trkpt lat="44.2117417" lon="7.9786067"><ele>905.7142857142856</ele><time>2026-04-22T11:50:40.538Z</time></trkpt><trkpt lat="44.2116717" lon="7.97856"><ele>901.8571428571428</ele><time>2026-04-22T11:50:41.538Z</time></trkpt><trkpt lat="44.2116033" lon="7.9785333"><ele>898.0</ele><time>2026-04-22T11:50:42.538Z</time></trkpt><trkpt lat="44.2115117" lon="7.97856"><ele>894.1666666666666</ele><time>2026-04-22T11:50:44.538Z</time></trkpt><trkpt lat="44.21148" lon="7.9786617"><ele>890.3333333333333</ele><time>2026-04-22T11:51:21.538Z</time></trkpt><trkpt lat="44.211435" lon="7.9787267"><ele>886.5</ele><time>2026-04-22T11:51:22.538Z</time></trkpt><trkpt lat="44.2113767" lon="7.9788017"><ele>882.6666666666667</ele><time>2026-04-22T11:51:23.538Z</time></trkpt><trkpt lat="44.2113083" lon="7.9788883"><ele>878.8333333333334</ele><time>2026-04-22T11:51:24.538Z</time></trkpt><trkpt lat="44.2112433" lon="7.978985"><ele>875.0</ele><time>2026-04-22T11:51:25.538Z</time></trkpt><trkpt lat="44.21119" lon="7.9790783"><ele>875.0000000000001</ele><time>2026-04-22T11:51:26.538Z</time></trkpt><trkpt lat="44.2111433" lon="7.979145"><ele>875.0</ele><time>2026-04-22T11:51:27.538Z</time></trkpt><trkpt lat="44.2110633" lon="7.9791967"><ele>875.0</ele><time>2026-04-22T11:51:29.538Z</time></trkpt><trkpt lat="44.210995" lon="7.979165"><ele>875.0</ele><time>2026-04-22T11:51:31.538Z</time></trkpt><trkpt lat="44.2109133" lon="7.979135"><ele>875.0000000000001</ele><time>2026-04-22T11:51:33.538Z</time></trkpt><trkpt lat="44.2108333" lon="7.9790817"><ele>875.0</ele><time>2026-04-22T11:51:35.538Z</time></trkpt><trkpt lat="44.2107933" lon="7.9789817"><ele>875.0000000000001</ele><time>2026-04-22T11:51:37.538Z</time></trkpt><trkpt lat="44.2107533" lon="7.97886"><ele>875.0</ele><time>2026-04-22T11:51:39.538Z</time></trkpt><trkpt lat="44.2106983" lon="7.9787333"><ele>875.0</ele><time>2026-04-22T11:51:41.538Z</time></trkpt><trkpt lat="44.21067" lon="7.9786533"><ele>875.0</ele><time>2026-04-22T11:51:42.538Z</time></trkpt><trkpt lat="44.2106533" lon="7.9785483"><ele>875.0000000000001</ele><time>2026-04-22T11:51:43.538Z</time></trkpt><trkpt lat="44.2106367" lon="7.9784483"><ele>875.0</ele><time>2026-04-22T11:51:44.538Z</time></trkpt><trkpt lat="44.2106217" lon="7.9783467"><ele>873.8</ele><time>2026-04-22T11:51:45.537Z</time></trkpt><trkpt lat="44.2106167" lon="7.97825"><ele>872.6</ele><time>2026-04-22T11:51:46.538Z</time></trkpt><trkpt lat="44.2106367" lon="7.9780783"><ele>871.4000000000001</ele><time>2026-04-22T11:51:48.537Z</time></trkpt><trkpt lat="44.2106667" lon="7.9779267"><ele>870.2</ele><time>2026-04-22T11:51:50.538Z</time></trkpt><trkpt lat="44.21065" lon="7.977825"><ele>869.0</ele><time>2026-04-22T11:51:52.538Z</time></trkpt><trkpt lat="44.210565" lon="7.9778567"><ele>863.4000000000001</ele><time>2026-04-22T11:51:55.538Z</time></trkpt><trkpt lat="44.210475" lon="7.9779267"><ele>857.8000000000001</ele><time>2026-04-22T11:51:57.537Z</time></trkpt><trkpt lat="44.2104083" lon="7.97804"><ele>852.2</ele><time>2026-04-22T11:51:59.538Z</time></trkpt><trkpt lat="44.2103817" lon="7.978125"><ele>846.5999999999999</ele><time>2026-04-22T11:52:00.538Z</time></trkpt><trkpt lat="44.210335" lon="7.978305"><ele>841.0</ele><time>2026-04-22T11:52:02.538Z</time></trkpt><trkpt lat="44.2103167" lon="7.9784317"><ele>840.9999999999999</ele><time>2026-04-22T11:52:03.538Z</time></trkpt><trkpt lat="44.2102883" lon="7.9785617"><ele>841.0</ele><time>2026-04-22T11:52:04.538Z</time></trkpt><trkpt lat="44.2102617" lon="7.9786883"><ele>841.0</ele><time>2026-04-22T11:52:05.537Z</time></trkpt><trkpt lat="44.2102333" lon="7.9788033"><ele>841.0</ele><time>2026-04-22T11:52:06.538Z</time></trkpt><trkpt lat="44.2102017" lon="7.9789117"><ele>840.9999999999999</ele><time>2026-04-22T11:52:07.538Z</time></trkpt><trkpt lat="44.2101617" lon="7.979015"><ele>841.0</ele><time>2026-04-22T11:52:08.538Z</time></trkpt><trkpt lat="44.2101067" lon="7.9791217"><ele>841.4999999999999</ele><time>2026-04-22T11:52:09.537Z</time></trkpt><trkpt lat="44.2100683" lon="7.9792133"><ele>842.0</ele><time>2026-04-22T11:52:10.538Z</time></trkpt><trkpt lat="44.2100317" lon="7.97936"><ele>842.5</ele><time>2026-04-22T11:52:12.538Z</time></trkpt><trkpt lat="44.21002" lon="7.9794483"><ele>843.0</ele><time>2026-04-22T11:52:13.538Z</time></trkpt><trkpt lat="44.21" lon="7.9795533"><ele>843.4999999999999</ele><time>2026-04-22T11:52:14.538Z</time></trkpt><trkpt lat="44.2099817" lon="7.979665"><ele>844.0</ele><time>2026-04-22T11:52:15.538Z</time></trkpt><trkpt lat="44.20996" lon="7.979755"><ele>843.9999999999999</ele><time>2026-04-22T11:52:16.538Z</time></trkpt><trkpt lat="44.2099483" lon="7.979865"><ele>844.0</ele><time>2026-04-22T11:52:17.537Z</time></trkpt><trkpt lat="44.2099483" lon="7.9799717"><ele>844.0</ele><time>2026-04-22T11:52:18.537Z</time></trkpt><trkpt lat="44.2099533" lon="7.980075"><ele>844.0</ele><time>2026-04-22T11:52:19.537Z</time></trkpt><trkpt lat="44.2099667" lon="7.980175"><ele>843.9999999999999</ele><time>2026-04-22T11:52:20.538Z</time></trkpt><trkpt lat="44.2099867" lon="7.9802683"><ele>844.0</ele><time>2026-04-22T11:52:21.538Z</time></trkpt><trkpt lat="44.210025" lon="7.9803633"><ele>842.3333333333333</ele><time>2026-04-22T11:52:22.538Z</time></trkpt><trkpt lat="44.210075" lon="7.9804667"><ele>840.6666666666666</ele><time>2026-04-22T11:52:23.537Z</time></trkpt><trkpt lat="44.2101267" lon="7.9805733"><ele>839.0</ele><time>2026-04-22T11:52:24.538Z</time></trkpt><trkpt lat="44.21016" lon="7.9806783"><ele>837.3333333333333</ele><time>2026-04-22T11:52:25.537Z</time></trkpt><trkpt lat="44.2101667" lon="7.980775"><ele>835.6666666666666</ele><time>2026-04-22T11:52:27.538Z</time></trkpt><trkpt lat="44.2100917" lon="7.98076"><ele>834.0</ele><time>2026-04-22T11:52:31.537Z</time></trkpt><trkpt lat="44.2099683" lon="7.9806583"><ele>834.0</ele><time>2026-04-22T11:52:33.538Z</time></trkpt><trkpt lat="44.20988" lon="7.9805817"><ele>834.0</ele><time>2026-04-22T11:52:34.538Z</time></trkpt><trkpt lat="44.2097883" lon="7.9804933"><ele>834.0</ele><time>2026-04-22T11:52:35.538Z</time></trkpt><trkpt lat="44.20971" lon="7.9804133"><ele>834.0</ele><time>2026-04-22T11:52:36.538Z</time></trkpt><trkpt lat="44.20965" lon="7.9803283"><ele>834.0</ele><time>2026-04-22T11:52:37.538Z</time></trkpt><trkpt lat="44.2096" lon="7.980255"><ele>829.1666666666666</ele><time>2026-04-22T11:52:38.537Z</time></trkpt><trkpt lat="44.2095367" lon="7.9801883"><ele>824.3333333333333</ele><time>2026-04-22T11:52:39.538Z</time></trkpt><trkpt lat="44.2094733" lon="7.98013"><ele>819.5</ele><time>2026-04-22T11:52:40.538Z</time></trkpt><trkpt lat="44.2093983" lon="7.9800867"><ele>814.6666666666666</ele><time>2026-04-22T11:52:41.537Z</time></trkpt><trkpt lat="44.209325" lon="7.9800533"><ele>809.8333333333333</ele><time>2026-04-22T11:52:42.538Z</time></trkpt><trkpt lat="44.209235" lon="7.9800167"><ele>805.0</ele><time>2026-04-22T11:52:44.538Z</time></trkpt><trkpt lat="44.2092267" lon="7.9801517"><ele>804.9999999999999</ele><time>2026-04-22T11:52:47.538Z</time></trkpt><trkpt lat="44.209245" lon="7.9802483"><ele>805.0</ele><time>2026-04-22T11:52:48.538Z</time></trkpt><trkpt lat="44.20926" lon="7.980365"><ele>805.0</ele><time>2026-04-22T11:52:49.538Z</time></trkpt><trkpt lat="44.2092717" lon="7.980475"><ele>805.0</ele><time>2026-04-22T11:52:50.538Z</time></trkpt><trkpt lat="44.2092717" lon="7.9805767"><ele>804.9999999999999</ele><time>2026-04-22T11:52:51.538Z</time></trkpt><trkpt lat="44.2092383" lon="7.9806833"><ele>805.0</ele><time>2026-04-22T11:52:52.538Z</time></trkpt><trkpt lat="44.2092" lon="7.9807767"><ele>803.8</ele><time>2026-04-22T11:52:53.538Z</time></trkpt><trkpt lat="44.209135" lon="7.9808867"><ele>802.6</ele><time>2026-04-22T11:52:55.538Z</time></trkpt><trkpt lat="44.209045" lon="7.980965"><ele>801.4000000000001</ele><time>2026-04-22T11:52:58.538Z</time></trkpt><trkpt lat="44.2089583" lon="7.9810483"><ele>800.2</ele><time>2026-04-22T11:53:00.538Z</time></trkpt><trkpt lat="44.2088967" lon="7.980935"><ele>799.0</ele><time>2026-04-22T11:53:04.538Z</time></trkpt><trkpt lat="44.20886" lon="7.9808617"><ele>795.1666666666666</ele><time>2026-04-22T11:53:05.538Z</time></trkpt><trkpt lat="44.2088117" lon="7.98079"><ele>791.3333333333333</ele><time>2026-04-22T11:53:06.538Z</time></trkpt><trkpt lat="44.2087517" lon="7.9807267"><ele>787.5</ele><time>2026-04-22T11:53:07.537Z</time></trkpt><trkpt lat="44.2086817" lon="7.9806617"><ele>783.6666666666667</ele><time>2026-04-22T11:53:08.538Z</time></trkpt><trkpt lat="44.20861" lon="7.9805833"><ele>779.8333333333334</ele><time>2026-04-22T11:53:09.538Z</time></trkpt><trkpt lat="44.2085483" lon="7.9804983"><ele>776.0</ele><time>2026-04-22T11:53:10.538Z</time></trkpt><trkpt lat="44.20849" lon="7.9804033"><ele>776.0000000000001</ele><time>2026-04-22T11:53:11.538Z</time></trkpt><trkpt lat="44.2084233" lon="7.9803033"><ele>776.0</ele><time>2026-04-22T11:53:12.538Z</time></trkpt><trkpt lat="44.2083717" lon="7.980205"><ele>776.0</ele><time>2026-04-22T11:53:13.538Z</time></trkpt><trkpt lat="44.20832" lon="7.9801033"><ele>776.0</ele><time>2026-04-22T11:53:14.538Z</time></trkpt><trkpt lat="44.2082833" lon="7.9799933"><ele>776.0000000000001</ele><time>2026-04-22T11:53:15.538Z</time></trkpt><trkpt lat="44.2082533" lon="7.979915"><ele>776.0</ele><time>2026-04-22T11:53:16.537Z</time></trkpt><trkpt lat="44.20819" lon="7.9797833"><ele>770.5999999999999</ele><time>2026-04-22T11:53:18.538Z</time></trkpt><trkpt lat="44.2081033" lon="7.9796583"><ele>765.2</ele><time>2026-04-22T11:53:20.538Z</time></trkpt><trkpt lat="44.2080267" lon="7.9795267"><ele>759.8</ele><time>2026-04-22T11:53:22.538Z</time></trkpt><trkpt lat="44.2079567" lon="7.9794317"><ele>754.4000000000001</ele><time>2026-04-22T11:53:24.538Z</time></trkpt><trkpt lat="44.207895" lon="7.9793917"><ele>749.0</ele><time>2026-04-22T11:54:23.538Z</time></trkpt><trkpt lat="44.2078633" lon="7.9794767"><ele>749.0</ele><time>2026-04-22T11:54:25.538Z</time></trkpt><trkpt lat="44.2078617" lon="7.9796333"><ele>749.0</ele><time>2026-04-22T11:54:27.538Z</time></trkpt><trkpt lat="44.2078683" lon="7.9797233"><ele>749.0</ele><time>2026-04-22T11:54:28.537Z</time></trkpt><trkpt lat="44.2078767" lon="7.9798267"><ele>749.0</ele><time>2026-04-22T11:54:29.538Z</time></trkpt><trkpt lat="44.2078867" lon="7.979935"><ele>749.0</ele><time>2026-04-22T11:54:30.538Z</time></trkpt><trkpt lat="44.2079083" lon="7.9800533"><ele>749.0</ele><time>2026-04-22T11:54:31.538Z</time></trkpt><trkpt lat="44.2079333" lon="7.9801833"><ele>748.3333333333333</ele><time>2026-04-22T11:54:32.537Z</time></trkpt><trkpt lat="44.2079533" lon="7.980315"><ele>747.6666666666666</ele><time>2026-04-22T11:54:33.538Z</time></trkpt><trkpt lat="44.20797" lon="7.9804467"><ele>747.0</ele><time>2026-04-22T11:54:34.537Z</time></trkpt><trkpt lat="44.2079717" lon="7.98057"><ele>746.3333333333334</ele><time>2026-04-22T11:54:35.538Z</time></trkpt><trkpt lat="44.2079767" lon="7.980685"><ele>745.6666666666667</ele><time>2026-04-22T11:54:36.538Z</time></trkpt><trkpt lat="44.2079817" lon="7.9807917"><ele>745.0</ele><time>2026-04-22T11:54:37.538Z</time></trkpt><trkpt lat="44.2079983" lon="7.980895"><ele>744.0</ele><time>2026-04-22T11:54:38.538Z</time></trkpt><trkpt lat="44.2080217" lon="7.9809783"><ele>743.0</ele><time>2026-04-22T11:54:39.538Z</time></trkpt><trkpt lat="44.2081117" lon="7.9810733"><ele>742.0</ele><time>2026-04-22T11:54:41.537Z</time></trkpt><trkpt lat="44.208125" lon="7.9811983"><ele>741.0</ele><time>2026-04-22T11:54:43.538Z</time></trkpt><trkpt lat="44.2081067" lon="7.9812833"><ele>740.0</ele><time>2026-04-22T11:54:44.538Z</time></trkpt><trkpt lat="44.208035" lon="7.9814283"><ele>740.0</ele><time>2026-04-22T11:54:45.538Z</time></trkpt><trkpt lat="44.2079783" lon="7.9815733"><ele>740.0</ele><time>2026-04-22T11:54:46.538Z</time></trkpt><trkpt lat="44.207925" lon="7.9817167"><ele>740.0</ele><time>2026-04-22T11:54:47.538Z</time></trkpt><trkpt lat="44.20789" lon="7.981865"><ele>740.0</ele><time>2026-04-22T11:54:48.538Z</time></trkpt><trkpt lat="44.207855" lon="7.981995"><ele>740.0</ele><time>2026-04-22T11:54:49.538Z</time></trkpt><trkpt lat="44.20783" lon="7.9821433"><ele>740.0</ele><time>2026-04-22T11:54:50.538Z</time></trkpt><trkpt lat="44.2078067" lon="7.9822833"><ele>740.0</ele><time>2026-04-22T11:54:51.538Z</time></trkpt><trkpt lat="44.2077833" lon="7.9824183"><ele>740.0</ele><time>2026-04-22T11:54:52.538Z</time></trkpt><trkpt lat="44.2077667" lon="7.9825517"><ele>740.0</ele><time>2026-04-22T11:54:53.538Z</time></trkpt><trkpt lat="44.2077433" lon="7.9826817"><ele>740.0</ele><time>2026-04-22T11:54:54.538Z</time></trkpt><trkpt lat="44.2077367" lon="7.9827867"><ele>738.8333333333333</ele><time>2026-04-22T11:54:55.537Z</time></trkpt><trkpt lat="44.207745" lon="7.98289"><ele>737.6666666666666</ele><time>2026-04-22T11:54:56.538Z</time></trkpt><trkpt lat="44.2077767" lon="7.9829917"><ele>736.5</ele><time>2026-04-22T11:54:57.538Z</time></trkpt><trkpt lat="44.2078283" lon="7.9830917"><ele>735.3333333333334</ele><time>2026-04-22T11:54:58.538Z</time></trkpt><trkpt lat="44.2078933" lon="7.983185"><ele>734.1666666666667</ele><time>2026-04-22T11:54:59.538Z</time></trkpt><trkpt lat="44.2079617" lon="7.9832767"><ele>733.0</ele><time>2026-04-22T11:55:00.538Z</time></trkpt><trkpt lat="44.20805" lon="7.98337"><ele>734.0</ele><time>2026-04-22T11:55:01.537Z</time></trkpt><trkpt lat="44.2081317" lon="7.9834433"><ele>735.0</ele><time>2026-04-22T11:55:02.538Z</time></trkpt><trkpt lat="44.20821" lon="7.9835"><ele>736.0</ele><time>2026-04-22T11:55:03.538Z</time></trkpt><trkpt lat="44.2082683" lon="7.9835467"><ele>737.0</ele><time>2026-04-22T11:55:04.538Z</time></trkpt><trkpt lat="44.2083" lon="7.9836717"><ele>738.0</ele><time>2026-04-22T11:55:06.538Z</time></trkpt><trkpt lat="44.20825" lon="7.9837567"><ele>739.0</ele><time>2026-04-22T11:55:09.538Z</time></trkpt><trkpt lat="44.2081517" lon="7.9838117"><ele>736.8571428571429</ele><time>2026-04-22T11:55:11.538Z</time></trkpt><trkpt lat="44.2080917" lon="7.9838567"><ele>734.7142857142858</ele><time>2026-04-22T11:55:12.538Z</time></trkpt><trkpt lat="44.2080217" lon="7.9839117"><ele>732.5714285714286</ele><time>2026-04-22T11:55:13.538Z</time></trkpt><trkpt lat="44.2079583" lon="7.9839667"><ele>730.4285714285714</ele><time>2026-04-22T11:55:14.538Z</time></trkpt><trkpt lat="44.207905" lon="7.9840267"><ele>728.2857142857142</ele><time>2026-04-22T11:55:15.538Z</time></trkpt><trkpt lat="44.20786" lon="7.9840967"><ele>726.1428571428571</ele><time>2026-04-22T11:55:16.538Z</time></trkpt><trkpt lat="44.2078317" lon="7.9841833"><ele>724.0</ele><time>2026-04-22T11:55:17.538Z</time></trkpt><trkpt lat="44.2078017" lon="7.98428"><ele>722.2</ele><time>2026-04-22T11:55:18.538Z</time></trkpt><trkpt lat="44.2077833" lon="7.9843883"><ele>720.4000000000001</ele><time>2026-04-22T11:55:19.538Z</time></trkpt><trkpt lat="44.2077683" lon="7.984515"><ele>718.6</ele><time>2026-04-22T11:55:20.537Z</time></trkpt><trkpt lat="44.2077583" lon="7.984645"><ele>716.8</ele><time>2026-04-22T11:55:21.538Z</time></trkpt><trkpt lat="44.20776" lon="7.9847783"><ele>715.0</ele><time>2026-04-22T11:55:22.537Z</time></trkpt><trkpt lat="44.2077633" lon="7.9849117"><ele>713.2</ele><time>2026-04-22T11:55:23.538Z</time></trkpt><trkpt lat="44.2077717" lon="7.985035"><ele>711.4</ele><time>2026-04-22T11:55:24.538Z</time></trkpt><trkpt lat="44.2077917" lon="7.98516"><ele>709.5999999999999</ele><time>2026-04-22T11:55:25.538Z</time></trkpt><trkpt lat="44.2078217" lon="7.9852967"><ele>707.8</ele><time>2026-04-22T11:55:26.538Z</time></trkpt><trkpt lat="44.20786" lon="7.9854117"><ele>706.0</ele><time>2026-04-22T11:55:27.537Z</time></trkpt><trkpt lat="44.2079067" lon="7.9855117"><ele>706.0</ele><time>2026-04-22T11:55:28.538Z</time></trkpt><trkpt lat="44.2079567" lon="7.9855967"><ele>706.0</ele><time>2026-04-22T11:55:29.537Z</time></trkpt><trkpt lat="44.2080183" lon="7.985665"><ele>706.0</ele><time>2026-04-22T11:55:30.538Z</time></trkpt><trkpt lat="44.2080767" lon="7.9857283"><ele>706.0</ele><time>2026-04-22T11:55:31.538Z</time></trkpt><trkpt lat="44.2081433" lon="7.9857917"><ele>706.0</ele><time>2026-04-22T11:55:32.538Z</time></trkpt><trkpt lat="44.2082217" lon="7.9858533"><ele>706.0</ele><time>2026-04-22T11:55:33.538Z</time></trkpt><trkpt lat="44.2083217" lon="7.9859033"><ele>706.1999999999999</ele><time>2026-04-22T11:55:34.538Z</time></trkpt><trkpt lat="44.2084317" lon="7.9859367"><ele>706.4</ele><time>2026-04-22T11:55:35.538Z</time></trkpt><trkpt lat="44.2085317" lon="7.9859933"><ele>706.6</ele><time>2026-04-22T11:55:36.538Z</time></trkpt><trkpt lat="44.2086317" lon="7.9860583"><ele>706.8</ele><time>2026-04-22T11:55:37.537Z</time></trkpt><trkpt lat="44.2087083" lon="7.98612"><ele>707.0</ele><time>2026-04-22T11:55:38.538Z</time></trkpt><trkpt lat="44.2087767" lon="7.986175"><ele>707.0</ele><time>2026-04-22T11:55:39.538Z</time></trkpt><trkpt lat="44.2088233" lon="7.9862383"><ele>707.0</ele><time>2026-04-22T11:55:40.538Z</time></trkpt><trkpt lat="44.2088267" lon="7.9863583"><ele>707.0</ele><time>2026-04-22T11:55:42.538Z</time></trkpt><trkpt lat="44.2087367" lon="7.986465"><ele>707.0</ele><time>2026-04-22T11:55:44.538Z</time></trkpt><trkpt lat="44.20864" lon="7.9865333"><ele>707.0</ele><time>2026-04-22T11:55:45.538Z</time></trkpt><trkpt lat="44.2085333" lon="7.986595"><ele>707.0</ele><time>2026-04-22T11:55:46.538Z</time></trkpt><trkpt lat="44.2084383" lon="7.986665"><ele>707.0</ele><time>2026-04-22T11:55:47.538Z</time></trkpt><trkpt lat="44.20837" lon="7.9867367"><ele>707.0</ele><time>2026-04-22T11:55:48.538Z</time></trkpt><trkpt lat="44.2083" lon="7.9868267"><ele>707.0</ele><time>2026-04-22T11:55:49.538Z</time></trkpt><trkpt lat="44.2082367" lon="7.9869317"><ele>707.0</ele><time>2026-04-22T11:55:50.537Z</time></trkpt><trkpt lat="44.2082017" lon="7.9870733"><ele>708.4000000000001</ele><time>2026-04-22T11:55:51.538Z</time></trkpt><trkpt lat="44.2081633" lon="7.9872383"><ele>709.8000000000001</ele><time>2026-04-22T11:55:52.538Z</time></trkpt><trkpt lat="44.2081183" lon="7.9873883"><ele>711.2</ele><time>2026-04-22T11:55:53.537Z</time></trkpt><trkpt lat="44.2080717" lon="7.9875167"><ele>712.6</ele><time>2026-04-22T11:55:54.538Z</time></trkpt><trkpt lat="44.2080267" lon="7.9876383"><ele>714.0</ele><time>2026-04-22T11:55:55.538Z</time></trkpt><trkpt lat="44.2079833" lon="7.9877633"><ele>708.25</ele><time>2026-04-22T11:55:56.538Z</time></trkpt><trkpt lat="44.2079467" lon="7.98791"><ele>702.5</ele><time>2026-04-22T11:55:57.538Z</time></trkpt><trkpt lat="44.2079167" lon="7.9880833"><ele>696.75</ele><time>2026-04-22T11:55:58.538Z</time></trkpt><trkpt lat="44.20789" lon="7.988265"><ele>691.0</ele><time>2026-04-22T11:55:59.538Z</time></trkpt><trkpt lat="44.2078633" lon="7.9884183"><ele>690.5</ele><time>2026-04-22T11:56:00.538Z</time></trkpt><trkpt lat="44.207835" lon="7.9885817"><ele>690.0</ele><time>2026-04-22T11:56:01.538Z</time></trkpt><trkpt lat="44.2078117" lon="7.9887483"><ele>689.5</ele><time>2026-04-22T11:56:02.538Z</time></trkpt><trkpt lat="44.2078" lon="7.98892"><ele>689.0</ele><time>2026-04-22T11:56:03.537Z</time></trkpt><trkpt lat="44.207785" lon="7.989085"><ele>689.25</ele><time>2026-04-22T11:56:04.538Z</time></trkpt><trkpt lat="44.2077583" lon="7.9892433"><ele>689.5</ele><time>2026-04-22T11:56:05.538Z</time></trkpt><trkpt lat="44.2077183" lon="7.989405"><ele>689.75</ele><time>2026-04-22T11:56:06.538Z</time></trkpt><trkpt lat="44.2076817" lon="7.9895633"><ele>690.0</ele><time>2026-04-22T11:56:07.538Z</time></trkpt><trkpt lat="44.2076367" lon="7.9897117"><ele>690.0</ele><time>2026-04-22T11:56:08.538Z</time></trkpt><trkpt lat="44.2075983" lon="7.989875"><ele>690.0</ele><time>2026-04-22T11:56:09.538Z</time></trkpt><trkpt lat="44.207575" lon="7.9900567"><ele>690.0</ele><time>2026-04-22T11:56:10.538Z</time></trkpt><trkpt lat="44.2075617" lon="7.9902467"><ele>690.0</ele><time>2026-04-22T11:56:11.538Z</time></trkpt><trkpt lat="44.20754" lon="7.99043"><ele>689.5</ele><time>2026-04-22T11:56:12.538Z</time></trkpt><trkpt lat="44.2075383" lon="7.990615"><ele>689.0</ele><time>2026-04-22T11:56:13.538Z</time></trkpt><trkpt lat="44.2075167" lon="7.990795"><ele>688.5</ele><time>2026-04-22T11:56:14.538Z</time></trkpt><trkpt lat="44.2074933" lon="7.99096"><ele>688.0</ele><time>2026-04-22T11:56:15.537Z</time></trkpt><trkpt lat="44.2074967" lon="7.9911283"><ele>687.25</ele><time>2026-04-22T11:56:16.538Z</time></trkpt><trkpt lat="44.2075133" lon="7.9912967"><ele>686.5</ele><time>2026-04-22T11:56:17.538Z</time></trkpt><trkpt lat="44.2075367" lon="7.9914717"><ele>685.75</ele><time>2026-04-22T11:56:18.538Z</time></trkpt><trkpt lat="44.20755" lon="7.9916433"><ele>685.0</ele><time>2026-04-22T11:56:19.538Z</time></trkpt><trkpt lat="44.2075467" lon="7.99181"><ele>684.2</ele><time>2026-04-22T11:56:20.538Z</time></trkpt><trkpt lat="44.2075133" lon="7.9919567"><ele>683.4</ele><time>2026-04-22T11:56:21.538Z</time></trkpt><trkpt lat="44.2074683" lon="7.9920883"><ele>682.5999999999999</ele><time>2026-04-22T11:56:22.538Z</time></trkpt><trkpt lat="44.2074467" lon="7.9922167"><ele>681.8</ele><time>2026-04-22T11:56:23.538Z</time></trkpt><trkpt lat="44.2074433" lon="7.9923467"><ele>681.0</ele><time>2026-04-22T11:56:24.538Z</time></trkpt><trkpt lat="44.2074617" lon="7.9924917"><ele>678.25</ele><time>2026-04-22T11:56:25.538Z</time></trkpt><trkpt lat="44.2074933" lon="7.992665"><ele>675.5</ele><time>2026-04-22T11:56:26.538Z</time></trkpt><trkpt lat="44.2075117" lon="7.9928383"><ele>672.75</ele><time>2026-04-22T11:56:27.538Z</time></trkpt><trkpt lat="44.2075017" lon="7.993035"><ele>670.0</ele><time>2026-04-22T11:56:28.538Z</time></trkpt><trkpt lat="44.2074683" lon="7.99324"><ele>667.3333333333334</ele><time>2026-04-22T11:56:29.538Z</time></trkpt><trkpt lat="44.20744" lon="7.9934567"><ele>664.6666666666666</ele><time>2026-04-22T11:56:30.538Z</time></trkpt><trkpt lat="44.2074183" lon="7.993665"><ele>662.0</ele><time>2026-04-22T11:56:31.538Z</time></trkpt><trkpt lat="44.2073983" lon="7.9938667"><ele>662.0</ele><time>2026-04-22T11:56:32.538Z</time></trkpt><trkpt lat="44.20738" lon="7.9940433"><ele>662.0</ele><time>2026-04-22T11:56:33.538Z</time></trkpt><trkpt lat="44.2074133" lon="7.9941767"><ele>662.0</ele><time>2026-04-22T11:56:34.538Z</time></trkpt><trkpt lat="44.20746" lon="7.9943767"><ele>662.0</ele><time>2026-04-22T11:56:35.537Z</time></trkpt><trkpt lat="44.2075217" lon="7.9945467"><ele>661.8</ele><time>2026-04-22T11:56:36.538Z</time></trkpt><trkpt lat="44.207565" lon="7.99472"><ele>661.6</ele><time>2026-04-22T11:56:37.538Z</time></trkpt><trkpt lat="44.2075733" lon="7.99486"><ele>661.4</ele><time>2026-04-22T11:56:38.538Z</time></trkpt><trkpt lat="44.207565" lon="7.9949817"><ele>661.1999999999999</ele><time>2026-04-22T11:56:39.538Z</time></trkpt><trkpt lat="44.2075367" lon="7.9950983"><ele>661.0</ele><time>2026-04-22T11:56:40.537Z</time></trkpt><trkpt lat="44.20749" lon="7.995215"><ele>660.5</ele><time>2026-04-22T11:56:41.537Z</time></trkpt><trkpt lat="44.2074517" lon="7.9953383"><ele>660.0</ele><time>2026-04-22T11:56:42.538Z</time></trkpt><trkpt lat="44.207445" lon="7.9954983"><ele>659.5</ele><time>2026-04-22T11:56:43.538Z</time></trkpt><trkpt lat="44.2074483" lon="7.9956783"><ele>659.0</ele><time>2026-04-22T11:56:44.538Z</time></trkpt><trkpt lat="44.2074317" lon="7.99584"><ele>658.75</ele><time>2026-04-22T11:56:45.537Z</time></trkpt><trkpt lat="44.2074267" lon="7.9959817"><ele>658.5</ele><time>2026-04-22T11:56:46.538Z</time></trkpt><trkpt lat="44.2074233" lon="7.9961433"><ele>658.25</ele><time>2026-04-22T11:56:47.537Z</time></trkpt><trkpt lat="44.2074433" lon="7.996315"><ele>658.0</ele><time>2026-04-22T11:56:48.538Z</time></trkpt><trkpt lat="44.207465" lon="7.9964883"><ele>658.0</ele><time>2026-04-22T11:56:49.537Z</time></trkpt><trkpt lat="44.2074867" lon="7.9966583"><ele>658.0</ele><time>2026-04-22T11:56:50.538Z</time></trkpt><trkpt lat="44.2075083" lon="7.99683"><ele>658.0</ele><time>2026-04-22T11:56:51.538Z</time></trkpt><trkpt lat="44.2075217" lon="7.9969917"><ele>658.0</ele><time>2026-04-22T11:56:52.538Z</time></trkpt><trkpt lat="44.2075217" lon="7.9971467"><ele>657.25</ele><time>2026-04-22T11:56:53.537Z</time></trkpt><trkpt lat="44.2075033" lon="7.9972933"><ele>656.5</ele><time>2026-04-22T11:56:54.538Z</time></trkpt><trkpt lat="44.2074667" lon="7.9974583"><ele>655.75</ele><time>2026-04-22T11:56:55.537Z</time></trkpt><trkpt lat="44.2074267" lon="7.9976367"><ele>655.0</ele><time>2026-04-22T11:56:56.538Z</time></trkpt><trkpt lat="44.2074017" lon="7.9978217"><ele>655.0</ele><time>2026-04-22T11:56:57.537Z</time></trkpt><trkpt lat="44.2073883" lon="7.9980233"><ele>655.0</ele><time>2026-04-22T11:56:58.538Z</time></trkpt><trkpt lat="44.2073867" lon="7.99822"><ele>655.0</ele><time>2026-04-22T11:56:59.538Z</time></trkpt><trkpt lat="44.20737" lon="7.9984117"><ele>655.0</ele><time>2026-04-22T11:57:00.537Z</time></trkpt><trkpt lat="44.20733" lon="7.998585"><ele>649.5</ele><time>2026-04-22T11:57:01.538Z</time></trkpt><trkpt lat="44.2072867" lon="7.9987467"><ele>644.0</ele><time>2026-04-22T11:57:02.538Z</time></trkpt><trkpt lat="44.207235" lon="7.9989033"><ele>638.5</ele><time>2026-04-22T11:57:03.538Z</time></trkpt><trkpt lat="44.2071867" lon="7.99906"><ele>633.0</ele><time>2026-04-22T11:57:04.538Z</time></trkpt><trkpt lat="44.2071617" lon="7.99922"><ele>633.0</ele><time>2026-04-22T11:57:05.537Z</time></trkpt><trkpt lat="44.2071617" lon="7.9993717"><ele>633.0</ele><time>2026-04-22T11:57:06.538Z</time></trkpt><trkpt lat="44.20718" lon="7.999545"><ele>633.0</ele><time>2026-04-22T11:57:07.538Z</time></trkpt><trkpt lat="44.2072117" lon="7.9997317"><ele>633.0</ele><time>2026-04-22T11:57:08.538Z</time></trkpt><trkpt lat="44.2072333" lon="7.9999133"><ele>633.0</ele><time>2026-04-22T11:57:09.538Z</time></trkpt><trkpt lat="44.2072333" lon="8.0000867"><ele>633.0</ele><time>2026-04-22T11:57:10.537Z</time></trkpt><trkpt lat="44.2072033" lon="8.000235"><ele>633.0</ele><time>2026-04-22T11:57:11.538Z</time></trkpt><trkpt lat="44.207165" lon="8.000375"><ele>633.0</ele><time>2026-04-22T11:57:12.538Z</time></trkpt><trkpt lat="44.2071233" lon="8.0004767"><ele>633.0</ele><time>2026-04-22T11:57:13.537Z</time></trkpt><trkpt lat="44.2070783" lon="8.00058"><ele>633.0</ele><time>2026-04-22T11:57:15.538Z</time></trkpt><trkpt lat="44.2070667" lon="8.00079"><ele>633.0</ele><time>2026-04-22T11:57:24.538Z</time></trkpt><trkpt lat="44.2070517" lon="8.0009983"><ele>633.0</ele><time>2026-04-22T11:57:25.538Z</time></trkpt><trkpt lat="44.2070333" lon="8.00125"><ele>632.0</ele><time>2026-04-22T11:57:26.538Z</time></trkpt><trkpt lat="44.2070117" lon="8.00152"><ele>631.0</ele><time>2026-04-22T11:57:27.538Z</time></trkpt><trkpt lat="44.206995" lon="8.0018133"><ele>630.0</ele><time>2026-04-22T11:57:28.538Z</time></trkpt><trkpt lat="44.2069817" lon="8.0021083"><ele>629.0</ele><time>2026-04-22T11:57:29.537Z</time></trkpt><trkpt lat="44.2069817" lon="8.002375"><ele>628.0</ele><time>2026-04-22T11:57:30.538Z</time></trkpt><trkpt lat="44.2069767" lon="8.0026217"><ele>627.0</ele><time>2026-04-22T11:57:31.538Z</time></trkpt><trkpt lat="44.2069917" lon="8.00287"><ele>626.0</ele><time>2026-04-22T11:57:32.538Z</time></trkpt><trkpt lat="44.2070033" lon="8.0031083"><ele>625.0</ele><time>2026-04-22T11:57:33.537Z</time></trkpt><trkpt lat="44.207" lon="8.0033517"><ele>624.0</ele><time>2026-04-22T11:57:34.538Z</time></trkpt><trkpt lat="44.2069817" lon="8.00358"><ele>623.6666666666666</ele><time>2026-04-22T11:57:35.538Z</time></trkpt><trkpt lat="44.2069567" lon="8.0038"><ele>623.3333333333333</ele><time>2026-04-22T11:57:36.538Z</time></trkpt><trkpt lat="44.2069283" lon="8.004015"><ele>623.0</ele><time>2026-04-22T11:57:37.538Z</time></trkpt><trkpt lat="44.2069233" lon="8.0042433"><ele>622.0</ele><time>2026-04-22T11:57:38.538Z</time></trkpt><trkpt lat="44.2069383" lon="8.004485"><ele>621.0</ele><time>2026-04-22T11:57:39.538Z</time></trkpt><trkpt lat="44.2069583" lon="8.0047417"><ele>620.0</ele><time>2026-04-22T11:57:40.537Z</time></trkpt><trkpt lat="44.206995" lon="8.004985"><ele>618.3333333333333</ele><time>2026-04-22T11:57:41.538Z</time></trkpt><trkpt lat="44.2070217" lon="8.0052167"><ele>616.6666666666666</ele><time>2026-04-22T11:57:42.537Z</time></trkpt><trkpt lat="44.2070467" lon="8.00542"><ele>615.0</ele><time>2026-04-22T11:57:43.537Z</time></trkpt><trkpt lat="44.207075" lon="8.00562"><ele>615.0</ele><time>2026-04-22T11:57:44.538Z</time></trkpt><trkpt lat="44.2070967" lon="8.0058183"><ele>615.0</ele><time>2026-04-22T11:57:45.538Z</time></trkpt><trkpt lat="44.2071183" lon="8.0059983"><ele>615.0</ele><time>2026-04-22T11:57:46.538Z</time></trkpt><trkpt lat="44.2071383" lon="8.0061867"><ele>615.0</ele><time>2026-04-22T11:57:47.537Z</time></trkpt><trkpt lat="44.2071533" lon="8.0063533"><ele>614.25</ele><time>2026-04-22T11:57:48.538Z</time></trkpt><trkpt lat="44.207165" lon="8.0065183"><ele>613.5</ele><time>2026-04-22T11:57:49.537Z</time></trkpt><trkpt lat="44.2071783" lon="8.006675"><ele>612.75</ele><time>2026-04-22T11:57:50.538Z</time></trkpt><trkpt lat="44.2071817" lon="8.0068467"><ele>612.0</ele><time>2026-04-22T11:57:51.538Z</time></trkpt><trkpt lat="44.20719" lon="8.00704"><ele>611.0</ele><time>2026-04-22T11:57:52.537Z</time></trkpt><trkpt lat="44.2071983" lon="8.0072383"><ele>610.0</ele><time>2026-04-22T11:57:53.538Z</time></trkpt><trkpt lat="44.2071983" lon="8.0074417"><ele>609.0</ele><time>2026-04-22T11:57:54.538Z</time></trkpt><trkpt lat="44.2071817" lon="8.00765"><ele>608.0</ele><time>2026-04-22T11:57:55.538Z</time></trkpt><trkpt lat="44.2071733" lon="8.00785"><ele>607.25</ele><time>2026-04-22T11:57:56.538Z</time></trkpt><trkpt lat="44.2071583" lon="8.0080433"><ele>606.5</ele><time>2026-04-22T11:57:57.537Z</time></trkpt><trkpt lat="44.207135" lon="8.008215"><ele>605.75</ele><time>2026-04-22T11:57:58.538Z</time></trkpt><trkpt lat="44.2071167" lon="8.00838"><ele>605.0</ele><time>2026-04-22T11:57:59.538Z</time></trkpt><trkpt lat="44.2070933" lon="8.0085333"><ele>604.6</ele><time>2026-04-22T11:58:00.538Z</time></trkpt><trkpt lat="44.207065" lon="8.008685"><ele>604.2</ele><time>2026-04-22T11:58:01.538Z</time></trkpt><trkpt lat="44.2070367" lon="8.0088317"><ele>603.8</ele><time>2026-04-22T11:58:02.538Z</time></trkpt><trkpt lat="44.207" lon="8.0089667"><ele>603.4</ele><time>2026-04-22T11:58:03.537Z</time></trkpt><trkpt lat="44.2069617" lon="8.0090883"><ele>603.0</ele><time>2026-04-22T11:58:04.538Z</time></trkpt><trkpt lat="44.2069183" lon="8.0092167"><ele>602.25</ele><time>2026-04-22T11:58:05.538Z</time></trkpt><trkpt lat="44.2068583" lon="8.00936"><ele>601.5</ele><time>2026-04-22T11:58:06.538Z</time></trkpt><trkpt lat="44.2067783" lon="8.00953"><ele>600.75</ele><time>2026-04-22T11:58:07.538Z</time></trkpt><trkpt lat="44.2066533" lon="8.0096917"><ele>600.0</ele><time>2026-04-22T11:58:08.538Z</time></trkpt><trkpt lat="44.2065083" lon="8.0098667"><ele>598.3333333333334</ele><time>2026-04-22T11:58:09.538Z</time></trkpt><trkpt lat="44.20634" lon="8.0100567"><ele>596.6666666666667</ele><time>2026-04-22T11:58:10.537Z</time></trkpt><trkpt lat="44.2061817" lon="8.01025"><ele>595.0</ele><time>2026-04-22T11:58:11.538Z</time></trkpt><trkpt lat="44.2060167" lon="8.01043"><ele>595.0</ele><time>2026-04-22T11:58:12.538Z</time></trkpt><trkpt lat="44.20584" lon="8.0106233"><ele>595.0</ele><time>2026-04-22T11:58:13.538Z</time></trkpt><trkpt lat="44.2056817" lon="8.0108017"><ele>595.0</ele><time>2026-04-22T11:58:14.538Z</time></trkpt><trkpt lat="44.2055317" lon="8.0109667"><ele>594.3333333333334</ele><time>2026-04-22T11:58:15.538Z</time></trkpt><trkpt lat="44.20539" lon="8.011125"><ele>593.6666666666666</ele><time>2026-04-22T11:58:16.538Z</time></trkpt><trkpt lat="44.2052467" lon="8.0112883"><ele>593.0</ele><time>2026-04-22T11:58:17.538Z</time></trkpt><trkpt lat="44.20509" lon="8.0114683"><ele>593.0</ele><time>2026-04-22T11:58:18.538Z</time></trkpt><trkpt lat="44.2049383" lon="8.0116383"><ele>593.0</ele><time>2026-04-22T11:58:19.538Z</time></trkpt><trkpt lat="44.2047983" lon="8.0117867"><ele>593.0</ele><time>2026-04-22T11:58:20.538Z</time></trkpt><trkpt lat="44.20467" lon="8.0119317"><ele>592.0</ele><time>2026-04-22T11:58:21.538Z</time></trkpt><trkpt lat="44.2045433" lon="8.0120817"><ele>591.0</ele><time>2026-04-22T11:58:22.538Z</time></trkpt><trkpt lat="44.2044333" lon="8.0122083"><ele>590.0</ele><time>2026-04-22T11:58:23.538Z</time></trkpt><trkpt lat="44.2043233" lon="8.0123383"><ele>590.0</ele><time>2026-04-22T11:58:24.538Z</time></trkpt><trkpt lat="44.204225" lon="8.0124683"><ele>590.0</ele><time>2026-04-22T11:58:25.538Z</time></trkpt><trkpt lat="44.2041317" lon="8.012605"><ele>590.0</ele><time>2026-04-22T11:58:26.538Z</time></trkpt><trkpt lat="44.2040567" lon="8.0127667"><ele>590.0</ele><time>2026-04-22T11:58:27.538Z</time></trkpt><trkpt lat="44.2039833" lon="8.0129233"><ele>589.25</ele><time>2026-04-22T11:58:28.538Z</time></trkpt><trkpt lat="44.2039317" lon="8.0130917"><ele>588.5</ele><time>2026-04-22T11:58:29.538Z</time></trkpt><trkpt lat="44.2038833" lon="8.0132417"><ele>587.75</ele><time>2026-04-22T11:58:30.538Z</time></trkpt><trkpt lat="44.2038517" lon="8.013395"><ele>587.0</ele><time>2026-04-22T11:58:31.538Z</time></trkpt><trkpt lat="44.2038167" lon="8.0135267"><ele>586.6666666666666</ele><time>2026-04-22T11:58:32.538Z</time></trkpt><trkpt lat="44.203785" lon="8.01364"><ele>586.3333333333333</ele><time>2026-04-22T11:58:33.538Z</time></trkpt><trkpt lat="44.2037567" lon="8.0137267"><ele>586.0</ele><time>2026-04-22T11:58:34.538Z</time></trkpt><trkpt lat="44.2037183" lon="8.0138333"><ele>585.6666666666666</ele><time>2026-04-22T11:58:36.538Z</time></trkpt><trkpt lat="44.2036833" lon="8.01395"><ele>585.3333333333334</ele><time>2026-04-22T11:59:07.538Z</time></trkpt><trkpt lat="44.2036783" lon="8.0140683"><ele>585.0</ele><time>2026-04-22T11:59:10.538Z</time></trkpt><trkpt lat="44.2037433" lon="8.01415"><ele>584.8333333333334</ele><time>2026-04-22T11:59:12.537Z</time></trkpt><trkpt lat="44.2038183" lon="8.0141883"><ele>584.6666666666666</ele><time>2026-04-22T11:59:13.538Z</time></trkpt><trkpt lat="44.2038967" lon="8.0142183"><ele>584.5</ele><time>2026-04-22T11:59:14.538Z</time></trkpt><trkpt lat="44.2039733" lon="8.0142483"><ele>584.3333333333333</ele><time>2026-04-22T11:59:15.538Z</time></trkpt><trkpt lat="44.2040567" lon="8.0142867"><ele>584.1666666666666</ele><time>2026-04-22T11:59:16.537Z</time></trkpt><trkpt lat="44.204125" lon="8.0143167"><ele>584.0</ele><time>2026-04-22T11:59:17.538Z</time></trkpt><trkpt lat="44.2041883" lon="8.0143367"><ele>584.4</ele><time>2026-04-22T11:59:18.538Z</time></trkpt><trkpt lat="44.2043117" lon="8.0143817"><ele>584.8</ele><time>2026-04-22T11:59:20.538Z</time></trkpt><trkpt lat="44.2043783" lon="8.0144067"><ele>585.2</ele><time>2026-04-22T11:59:21.538Z</time></trkpt><trkpt lat="44.2044933" lon="8.0144467"><ele>585.6</ele><time>2026-04-22T11:59:23.538Z</time></trkpt><trkpt lat="44.20459" lon="8.0144783"><ele>586.0</ele><time>2026-04-22T11:59:25.538Z</time></trkpt><trkpt lat="44.2046733" lon="8.0145217"><ele>586.0</ele><time>2026-04-22T11:59:27.539Z</time></trkpt><trkpt lat="44.20477" lon="8.0145667"><ele>586.0</ele><time>2026-04-22T11:59:29.538Z</time></trkpt><trkpt lat="44.2048817" lon="8.014595"><ele>586.0</ele><time>2026-04-22T11:59:31.539Z</time></trkpt><trkpt lat="44.20495" lon="8.0146167"><ele>586.0</ele><time>2026-04-22T11:59:32.539Z</time></trkpt><trkpt lat="44.2050233" lon="8.0146217"><ele>586.0</ele><time>2026-04-22T11:59:33.539Z</time></trkpt><trkpt lat="44.20513" lon="8.01463"><ele>586.0</ele><time>2026-04-22T11:59:34.539Z</time></trkpt><trkpt lat="44.2052433" lon="8.01465"><ele>586.0</ele><time>2026-04-22T11:59:35.539Z</time></trkpt><trkpt lat="44.2053517" lon="8.014665"><ele>586.0</ele><time>2026-04-22T11:59:36.538Z</time></trkpt><trkpt lat="44.2054433" lon="8.0146817"><ele>586.0</ele><time>2026-04-22T11:59:37.539Z</time></trkpt><trkpt lat="44.2055283" lon="8.0146733"><ele>586.0</ele><time>2026-04-22T11:59:38.539Z</time></trkpt><trkpt lat="44.2056033" lon="8.0146633"><ele>585.5</ele><time>2026-04-22T11:59:39.539Z</time></trkpt><trkpt lat="44.2056867" lon="8.01466"><ele>585.0</ele><time>2026-04-22T11:59:40.538Z</time></trkpt><trkpt lat="44.2057583" lon="8.0146567"><ele>584.5</ele><time>2026-04-22T11:59:41.539Z</time></trkpt><trkpt lat="44.2058283" lon="8.0146583"><ele>584.0</ele><time>2026-04-22T11:59:42.539Z</time></trkpt><trkpt lat="44.2059" lon="8.0146617"><ele>583.5</ele><time>2026-04-22T11:59:43.538Z</time></trkpt><trkpt lat="44.2059817" lon="8.0146833"><ele>583.0</ele><time>2026-04-22T11:59:44.539Z</time></trkpt><trkpt lat="44.2060767" lon="8.0147083"><ele>583.0</ele><time>2026-04-22T11:59:45.539Z</time></trkpt><trkpt lat="44.206175" lon="8.0147217"><ele>583.0</ele><time>2026-04-22T11:59:46.539Z</time></trkpt><trkpt lat="44.2062817" lon="8.014735"><ele>583.0</ele><time>2026-04-22T11:59:47.539Z</time></trkpt><trkpt lat="44.206385" lon="8.0147367"><ele>583.0</ele><time>2026-04-22T11:59:48.539Z</time></trkpt><trkpt lat="44.2064867" lon="8.0147567"><ele>583.0</ele><time>2026-04-22T11:59:49.539Z</time></trkpt><trkpt lat="44.2065883" lon="8.0147617"><ele>582.1999999999999</ele><time>2026-04-22T11:59:50.539Z</time></trkpt><trkpt lat="44.2066917" lon="8.0147617"><ele>581.4</ele><time>2026-04-22T11:59:51.539Z</time></trkpt><trkpt lat="44.2067933" lon="8.01477"><ele>580.5999999999999</ele><time>2026-04-22T11:59:52.539Z</time></trkpt><trkpt lat="44.2068933" lon="8.0147733"><ele>579.8</ele><time>2026-04-22T11:59:53.539Z</time></trkpt><trkpt lat="44.2070017" lon="8.0147883"><ele>579.0</ele><time>2026-04-22T11:59:54.539Z</time></trkpt><trkpt lat="44.2071133" lon="8.01479"><ele>579.0</ele><time>2026-04-22T11:59:55.539Z</time></trkpt><trkpt lat="44.20722" lon="8.0148033"><ele>579.0</ele><time>2026-04-22T11:59:56.538Z</time></trkpt><trkpt lat="44.207325" lon="8.01481"><ele>579.0</ele><time>2026-04-22T11:59:57.539Z</time></trkpt><trkpt lat="44.2074217" lon="8.0148167"><ele>579.0</ele><time>2026-04-22T11:59:58.539Z</time></trkpt><trkpt lat="44.20751" lon="8.0148167"><ele>579.0</ele><time>2026-04-22T11:59:59.539Z</time></trkpt><trkpt lat="44.2075833" lon="8.0148133"><ele>579.0</ele><time>2026-04-22T12:00:00.539Z</time></trkpt><trkpt lat="44.2076467" lon="8.0148083"><ele>579.0</ele><time>2026-04-22T12:00:01.539Z</time></trkpt><trkpt lat="44.2077233" lon="8.0148867"><ele>579.0</ele><time>2026-04-22T12:00:03.539Z</time></trkpt><trkpt lat="44.2077317" lon="8.0150667"><ele>579.0</ele><time>2026-04-22T12:00:05.539Z</time></trkpt><trkpt lat="44.2077333" lon="8.0152133"><ele>579.0</ele><time>2026-04-22T12:00:06.539Z</time></trkpt><trkpt lat="44.207735" lon="8.015395"><ele>579.0</ele><time>2026-04-22T12:00:07.539Z</time></trkpt><trkpt lat="44.2077383" lon="8.0155933"><ele>579.0</ele><time>2026-04-22T12:00:08.538Z</time></trkpt><trkpt lat="44.2077483" lon="8.0158083"><ele>579.0</ele><time>2026-04-22T12:00:09.539Z</time></trkpt><trkpt lat="44.207765" lon="8.01601"><ele>579.0</ele><time>2026-04-22T12:00:10.539Z</time></trkpt><trkpt lat="44.207785" lon="8.01622"><ele>579.0</ele><time>2026-04-22T12:00:11.539Z</time></trkpt><trkpt lat="44.207805" lon="8.0164567"><ele>579.0</ele><time>2026-04-22T12:00:12.539Z</time></trkpt><trkpt lat="44.2078083" lon="8.0166633"><ele>579.0</ele><time>2026-04-22T12:00:13.539Z</time></trkpt><trkpt lat="44.20782" lon="8.0168583"><ele>578.0</ele><time>2026-04-22T12:00:14.539Z</time></trkpt><trkpt lat="44.207825" lon="8.01703"><ele>577.0</ele><time>2026-04-22T12:00:15.538Z</time></trkpt><trkpt lat="44.2078283" lon="8.0171967"><ele>576.0</ele><time>2026-04-22T12:00:16.539Z</time></trkpt><trkpt lat="44.2078333" lon="8.0173567"><ele>575.0</ele><time>2026-04-22T12:00:17.539Z</time></trkpt><trkpt lat="44.2078333" lon="8.0175333"><ele>575.0</ele><time>2026-04-22T12:00:18.539Z</time></trkpt><trkpt lat="44.2078167" lon="8.0177183"><ele>575.0</ele><time>2026-04-22T12:00:19.539Z</time></trkpt><trkpt lat="44.2077783" lon="8.0178883"><ele>575.0</ele><time>2026-04-22T12:00:20.539Z</time></trkpt><trkpt lat="44.2077283" lon="8.018035"><ele>575.0</ele><time>2026-04-22T12:00:21.539Z</time></trkpt><trkpt lat="44.207655" lon="8.0181367"><ele>575.0</ele><time>2026-04-22T12:00:22.539Z</time></trkpt><trkpt lat="44.2075633" lon="8.0182133"><ele>575.0</ele><time>2026-04-22T12:00:23.539Z</time></trkpt><trkpt lat="44.2074633" lon="8.0182667"><ele>575.0</ele><time>2026-04-22T12:00:24.539Z</time></trkpt><trkpt lat="44.2073533" lon="8.0183267"><ele>575.0</ele><time>2026-04-22T12:00:25.539Z</time></trkpt><trkpt lat="44.207245" lon="8.0183767"><ele>575.0</ele><time>2026-04-22T12:00:26.539Z</time></trkpt><trkpt lat="44.2071383" lon="8.0184317"><ele>576.25</ele><time>2026-04-22T12:00:27.539Z</time></trkpt><trkpt lat="44.2070267" lon="8.0184883"><ele>577.5</ele><time>2026-04-22T12:00:28.539Z</time></trkpt><trkpt lat="44.2069067" lon="8.0185467"><ele>578.75</ele><time>2026-04-22T12:00:29.539Z</time></trkpt><trkpt lat="44.20678" lon="8.018595"><ele>580.0</ele><time>2026-04-22T12:00:30.539Z</time></trkpt><trkpt lat="44.2066433" lon="8.0186383"><ele>580.0</ele><time>2026-04-22T12:00:31.539Z</time></trkpt><trkpt lat="44.2065" lon="8.018675"><ele>580.0</ele><time>2026-04-22T12:00:32.539Z</time></trkpt><trkpt lat="44.2063617" lon="8.0187083"><ele>580.0</ele><time>2026-04-22T12:00:33.538Z</time></trkpt><trkpt lat="44.2062317" lon="8.0187617"><ele>580.0</ele><time>2026-04-22T12:00:34.539Z</time></trkpt><trkpt lat="44.2061317" lon="8.0188233"><ele>580.0</ele><time>2026-04-22T12:00:35.538Z</time></trkpt><trkpt lat="44.206065" lon="8.0189067"><ele>580.0</ele><time>2026-04-22T12:00:36.539Z</time></trkpt><trkpt lat="44.2060183" lon="8.0189917"><ele>580.0</ele><time>2026-04-22T12:00:37.539Z</time></trkpt><trkpt lat="44.2059683" lon="8.0190967"><ele>580.0</ele><time>2026-04-22T12:00:38.539Z</time></trkpt><trkpt lat="44.20591" lon="8.0191883"><ele>580.0</ele><time>2026-04-22T12:00:39.539Z</time></trkpt><trkpt lat="44.2058167" lon="8.01925"><ele>580.0</ele><time>2026-04-22T12:00:40.539Z</time></trkpt><trkpt lat="44.2057183" lon="8.0193417"><ele>580.2</ele><time>2026-04-22T12:00:41.539Z</time></trkpt><trkpt lat="44.2056467" lon="8.01945"><ele>580.4</ele><time>2026-04-22T12:00:42.538Z</time></trkpt><trkpt lat="44.205605" lon="8.01958"><ele>580.6</ele><time>2026-04-22T12:00:43.539Z</time></trkpt><trkpt lat="44.2056083" lon="8.019725"><ele>580.8</ele><time>2026-04-22T12:00:44.539Z</time></trkpt><trkpt lat="44.2056317" lon="8.0199117"><ele>581.0</ele><time>2026-04-22T12:00:45.539Z</time></trkpt><trkpt lat="44.2056617" lon="8.0201067"><ele>581.25</ele><time>2026-04-22T12:00:46.539Z</time></trkpt><trkpt lat="44.2056767" lon="8.0202883"><ele>581.5</ele><time>2026-04-22T12:00:47.539Z</time></trkpt><trkpt lat="44.20569" lon="8.0204667"><ele>581.75</ele><time>2026-04-22T12:00:48.539Z</time></trkpt><trkpt lat="44.2056933" lon="8.0206283"><ele>582.0</ele><time>2026-04-22T12:00:49.539Z</time></trkpt><trkpt lat="44.205695" lon="8.0207717"><ele>582.0</ele><time>2026-04-22T12:00:50.539Z</time></trkpt><trkpt lat="44.205675" lon="8.020895"><ele>582.0</ele><time>2026-04-22T12:00:51.539Z</time></trkpt><trkpt lat="44.2056267" lon="8.0210017"><ele>582.0</ele><time>2026-04-22T12:00:52.539Z</time></trkpt><trkpt lat="44.2055483" lon="8.0210933"><ele>582.0</ele><time>2026-04-22T12:00:53.538Z</time></trkpt><trkpt lat="44.2054417" lon="8.021175"><ele>582.0</ele><time>2026-04-22T12:00:54.539Z</time></trkpt><trkpt lat="44.2053133" lon="8.0212483"><ele>582.6666666666666</ele><time>2026-04-22T12:00:55.538Z</time></trkpt><trkpt lat="44.2051767" lon="8.0213233"><ele>583.3333333333333</ele><time>2026-04-22T12:00:56.539Z</time></trkpt><trkpt lat="44.2050367" lon="8.0213983"><ele>584.0</ele><time>2026-04-22T12:00:57.539Z</time></trkpt><trkpt lat="44.2048817" lon="8.0214817"><ele>584.3333333333333</ele><time>2026-04-22T12:00:58.539Z</time></trkpt><trkpt lat="44.2047283" lon="8.0215567"><ele>584.6666666666666</ele><time>2026-04-22T12:00:59.539Z</time></trkpt><trkpt lat="44.2045867" lon="8.02163"><ele>585.0</ele><time>2026-04-22T12:01:00.539Z</time></trkpt><trkpt lat="44.2044517" lon="8.0216883"><ele>585.25</ele><time>2026-04-22T12:01:01.539Z</time></trkpt><trkpt lat="44.2043233" lon="8.0217517"><ele>585.5</ele><time>2026-04-22T12:01:02.539Z</time></trkpt><trkpt lat="44.2042083" lon="8.0218"><ele>585.75</ele><time>2026-04-22T12:01:03.539Z</time></trkpt><trkpt lat="44.2041" lon="8.0218467"><ele>586.0</ele><time>2026-04-22T12:01:04.539Z</time></trkpt><trkpt lat="44.204" lon="8.021875"><ele>586.2</ele><time>2026-04-22T12:01:05.539Z</time></trkpt><trkpt lat="44.203895" lon="8.0218867"><ele>586.4000000000001</ele><time>2026-04-22T12:01:06.539Z</time></trkpt><trkpt lat="44.2037883" lon="8.0218817"><ele>586.6</ele><time>2026-04-22T12:01:07.538Z</time></trkpt><trkpt lat="44.20369" lon="8.0218833"><ele>586.8000000000001</ele><time>2026-04-22T12:01:08.538Z</time></trkpt><trkpt lat="44.2035767" lon="8.0218867"><ele>587.0</ele><time>2026-04-22T12:01:09.539Z</time></trkpt><trkpt lat="44.2034583" lon="8.021885"><ele>587.0</ele><time>2026-04-22T12:01:10.539Z</time></trkpt><trkpt lat="44.203335" lon="8.02186"><ele>587.0</ele><time>2026-04-22T12:01:11.539Z</time></trkpt><trkpt lat="44.203205" lon="8.021845"><ele>587.0</ele><time>2026-04-22T12:01:12.538Z</time></trkpt><trkpt lat="44.2030633" lon="8.0218433"><ele>587.0</ele><time>2026-04-22T12:01:13.539Z</time></trkpt><trkpt lat="44.2029133" lon="8.0218583"><ele>587.25</ele><time>2026-04-22T12:01:14.539Z</time></trkpt><trkpt lat="44.202765" lon="8.0218617"><ele>587.5</ele><time>2026-04-22T12:01:15.539Z</time></trkpt><trkpt lat="44.2026283" lon="8.0218583"><ele>587.75</ele><time>2026-04-22T12:01:16.539Z</time></trkpt><trkpt lat="44.2024967" lon="8.0218683"><ele>588.0</ele><time>2026-04-22T12:01:17.539Z</time></trkpt><trkpt lat="44.20238" lon="8.0218933"><ele>588.0</ele><time>2026-04-22T12:01:18.538Z</time></trkpt><trkpt lat="44.202265" lon="8.0219617"><ele>588.0</ele><time>2026-04-22T12:01:19.539Z</time></trkpt><trkpt lat="44.2021667" lon="8.0220533"><ele>588.0</ele><time>2026-04-22T12:01:20.539Z</time></trkpt><trkpt lat="44.2020767" lon="8.0221733"><ele>588.0</ele><time>2026-04-22T12:01:21.539Z</time></trkpt><trkpt lat="44.20198" lon="8.0223183"><ele>588.0</ele><time>2026-04-22T12:01:22.539Z</time></trkpt><trkpt lat="44.2018833" lon="8.0224683"><ele>588.0</ele><time>2026-04-22T12:01:23.539Z</time></trkpt><trkpt lat="44.2017833" lon="8.0226383"><ele>588.0</ele><time>2026-04-22T12:01:24.539Z</time></trkpt><trkpt lat="44.2016717" lon="8.022815"><ele>588.3333333333334</ele><time>2026-04-22T12:01:25.539Z</time></trkpt><trkpt lat="44.2015567" lon="8.0229883"><ele>588.6666666666667</ele><time>2026-04-22T12:01:26.539Z</time></trkpt><trkpt lat="44.2014317" lon="8.023175"><ele>589.0</ele><time>2026-04-22T12:01:27.539Z</time></trkpt><trkpt lat="44.2013083" lon="8.02336"><ele>589.6666666666667</ele><time>2026-04-22T12:01:28.539Z</time></trkpt><trkpt lat="44.20119" lon="8.0235433"><ele>590.3333333333334</ele><time>2026-04-22T12:01:29.538Z</time></trkpt><trkpt lat="44.2010683" lon="8.023735"><ele>591.0</ele><time>2026-04-22T12:01:30.539Z</time></trkpt><trkpt lat="44.2009567" lon="8.0239133"><ele>591.0</ele><time>2026-04-22T12:01:31.539Z</time></trkpt><trkpt lat="44.2008383" lon="8.0241067"><ele>591.0</ele><time>2026-04-22T12:01:32.539Z</time></trkpt><trkpt lat="44.2007017" lon="8.0243017"><ele>591.0</ele><time>2026-04-22T12:01:33.538Z</time></trkpt><trkpt lat="44.2005683" lon="8.0245117"><ele>592.0</ele><time>2026-04-22T12:01:34.539Z</time></trkpt><trkpt lat="44.20043" lon="8.0247033"><ele>593.0</ele><time>2026-04-22T12:01:35.539Z</time></trkpt><trkpt lat="44.2002917" lon="8.024905"><ele>594.0</ele><time>2026-04-22T12:01:36.538Z</time></trkpt><trkpt lat="44.2001633" lon="8.0251133"><ele>595.0</ele><time>2026-04-22T12:01:37.539Z</time></trkpt><trkpt lat="44.2000317" lon="8.0253167"><ele>596.0</ele><time>2026-04-22T12:01:38.538Z</time></trkpt><trkpt lat="44.1999017" lon="8.0255133"><ele>597.0</ele><time>2026-04-22T12:01:39.539Z</time></trkpt><trkpt lat="44.19979" lon="8.025685"><ele>597.0</ele><time>2026-04-22T12:01:40.539Z</time></trkpt><trkpt lat="44.1996683" lon="8.025855"><ele>597.0</ele><time>2026-04-22T12:01:41.539Z</time></trkpt><trkpt lat="44.1995467" lon="8.0260333"><ele>597.0</ele><time>2026-04-22T12:01:42.538Z</time></trkpt><trkpt lat="44.1994217" lon="8.0262033"><ele>597.0</ele><time>2026-04-22T12:01:43.539Z</time></trkpt><trkpt lat="44.1992883" lon="8.0263733"><ele>597.0</ele><time>2026-04-22T12:01:44.538Z</time></trkpt><trkpt lat="44.19915" lon="8.02656"><ele>597.0</ele><time>2026-04-22T12:01:45.539Z</time></trkpt><trkpt lat="44.1990083" lon="8.0267267"><ele>599.3333333333334</ele><time>2026-04-22T12:01:46.539Z</time></trkpt><trkpt lat="44.198865" lon="8.0268967"><ele>601.6666666666667</ele><time>2026-04-22T12:01:47.539Z</time></trkpt><trkpt lat="44.1987367" lon="8.0270567"><ele>604.0</ele><time>2026-04-22T12:01:48.538Z</time></trkpt><trkpt lat="44.19861" lon="8.02719"><ele>604.0</ele><time>2026-04-22T12:01:49.539Z</time></trkpt><trkpt lat="44.1984817" lon="8.0273317"><ele>604.0</ele><time>2026-04-22T12:01:50.539Z</time></trkpt><trkpt lat="44.1983633" lon="8.0274717"><ele>604.0</ele><time>2026-04-22T12:01:51.539Z</time></trkpt><trkpt lat="44.1982367" lon="8.0276167"><ele>613.0</ele><time>2026-04-22T12:01:52.538Z</time></trkpt><trkpt lat="44.1981117" lon="8.0277717"><ele>622.0</ele><time>2026-04-22T12:01:53.539Z</time></trkpt><trkpt lat="44.19799" lon="8.02791"><ele>631.0</ele><time>2026-04-22T12:01:54.539Z</time></trkpt><trkpt lat="44.1978733" lon="8.028045"><ele>631.0</ele><time>2026-04-22T12:01:55.538Z</time></trkpt><trkpt lat="44.197765" lon="8.0281683"><ele>631.0</ele><time>2026-04-22T12:01:56.539Z</time></trkpt><trkpt lat="44.1976717" lon="8.028285"><ele>631.0</ele><time>2026-04-22T12:01:57.539Z</time></trkpt><trkpt lat="44.197575" lon="8.0283883"><ele>631.0</ele><time>2026-04-22T12:01:58.539Z</time></trkpt><trkpt lat="44.1974917" lon="8.0284833"><ele>628.6</ele><time>2026-04-22T12:01:59.539Z</time></trkpt><trkpt lat="44.1974117" lon="8.0285817"><ele>626.2</ele><time>2026-04-22T12:02:00.538Z</time></trkpt><trkpt lat="44.1973583" lon="8.0286617"><ele>623.8</ele><time>2026-04-22T12:02:01.538Z</time></trkpt><trkpt lat="44.1973167" lon="8.0287417"><ele>621.4</ele><time>2026-04-22T12:02:02.539Z</time></trkpt><trkpt lat="44.1973167" lon="8.0288683"><ele>619.0</ele><time>2026-04-22T12:02:04.539Z</time></trkpt><trkpt lat="44.19741" lon="8.0290267"><ele>619.0</ele><time>2026-04-22T12:02:06.539Z</time></trkpt><trkpt lat="44.1974667" lon="8.02912"><ele>619.0</ele><time>2026-04-22T12:02:07.539Z</time></trkpt><trkpt lat="44.19749" lon="8.0292467"><ele>619.0</ele><time>2026-04-22T12:02:09.539Z</time></trkpt><trkpt lat="44.1975233" lon="8.0293233"><ele>619.0</ele><time>2026-04-22T12:02:10.539Z</time></trkpt><trkpt lat="44.197555" lon="8.0294"><ele>619.0</ele><time>2026-04-22T12:02:11.538Z</time></trkpt><trkpt lat="44.1975417" lon="8.0296033"><ele>617.0</ele><time>2026-04-22T12:02:13.539Z</time></trkpt><trkpt lat="44.1975083" lon="8.0297417"><ele>615.0</ele><time>2026-04-22T12:02:14.539Z</time></trkpt><trkpt lat="44.1974717" lon="8.0299117"><ele>613.0</ele><time>2026-04-22T12:02:15.539Z</time></trkpt><trkpt lat="44.1974417" lon="8.0301067"><ele>611.0</ele><time>2026-04-22T12:02:16.539Z</time></trkpt><trkpt lat="44.1973933" lon="8.0302917"><ele>612.5</ele><time>2026-04-22T12:02:17.539Z</time></trkpt><trkpt lat="44.197325" lon="8.0304567"><ele>614.0</ele><time>2026-04-22T12:02:18.539Z</time></trkpt><trkpt lat="44.197245" lon="8.03061"><ele>615.5</ele><time>2026-04-22T12:02:19.539Z</time></trkpt><trkpt lat="44.1971733" lon="8.0307683"><ele>617.0</ele><time>2026-04-22T12:02:20.539Z</time></trkpt><trkpt lat="44.197115" lon="8.0309033"><ele>617.25</ele><time>2026-04-22T12:02:21.539Z</time></trkpt><trkpt lat="44.19705" lon="8.0310383"><ele>617.5</ele><time>2026-04-22T12:02:22.539Z</time></trkpt><trkpt lat="44.1969733" lon="8.0311717"><ele>617.75</ele><time>2026-04-22T12:02:23.539Z</time></trkpt><trkpt lat="44.1969" lon="8.0313183"><ele>618.0</ele><time>2026-04-22T12:02:24.539Z</time></trkpt><trkpt lat="44.1968333" lon="8.031485"><ele>617.75</ele><time>2026-04-22T12:02:25.539Z</time></trkpt><trkpt lat="44.1967667" lon="8.03165"><ele>617.5</ele><time>2026-04-22T12:02:26.539Z</time></trkpt><trkpt lat="44.19669" lon="8.031825"><ele>617.25</ele><time>2026-04-22T12:02:27.538Z</time></trkpt><trkpt lat="44.196625" lon="8.0319817"><ele>617.0</ele><time>2026-04-22T12:02:28.539Z</time></trkpt><trkpt lat="44.196565" lon="8.0321233"><ele>617.0</ele><time>2026-04-22T12:02:29.539Z</time></trkpt><trkpt lat="44.19651" lon="8.03223"><ele>617.0</ele><time>2026-04-22T12:02:30.539Z</time></trkpt><trkpt lat="44.1964517" lon="8.0323083"><ele>617.0</ele><time>2026-04-22T12:02:31.539Z</time></trkpt><trkpt lat="44.19636" lon="8.0323333"><ele>617.0</ele><time>2026-04-22T12:02:33.539Z</time></trkpt><trkpt lat="44.1962917" lon="8.0322717"><ele>617.0</ele><time>2026-04-22T12:02:35.539Z</time></trkpt><trkpt lat="44.1962333" lon="8.0322317"><ele>617.0</ele><time>2026-04-22T12:02:37.539Z</time></trkpt><trkpt lat="44.19616" lon="8.0322917"><ele>622.8</ele><time>2026-04-22T12:02:39.539Z</time></trkpt><trkpt lat="44.1961117" lon="8.0324817"><ele>628.6</ele><time>2026-04-22T12:02:41.539Z</time></trkpt><trkpt lat="44.1960817" lon="8.0325883"><ele>634.4</ele><time>2026-04-22T12:02:42.539Z</time></trkpt><trkpt lat="44.1960583" lon="8.03269"><ele>640.1999999999999</ele><time>2026-04-22T12:02:43.539Z</time></trkpt><trkpt lat="44.1960317" lon="8.0328367"><ele>646.0</ele><time>2026-04-22T12:02:45.539Z</time></trkpt><trkpt lat="44.1959967" lon="8.0329767"><ele>646.0</ele><time>2026-04-22T12:02:47.538Z</time></trkpt><trkpt lat="44.19594" lon="8.0331083"><ele>646.0</ele><time>2026-04-22T12:02:49.539Z</time></trkpt><trkpt lat="44.1958917" lon="8.0332"><ele>646.0</ele><time>2026-04-22T12:02:51.538Z</time></trkpt><trkpt lat="44.1958433" lon="8.0333167"><ele>646.0</ele><time>2026-04-22T12:02:53.539Z</time></trkpt><trkpt lat="44.195805" lon="8.0334617"><ele>646.0</ele><time>2026-04-22T12:02:55.539Z</time></trkpt><trkpt lat="44.1957817" lon="8.0335517"><ele>644.0</ele><time>2026-04-22T12:02:57.539Z</time></trkpt><trkpt lat="44.1957617" lon="8.0336583"><ele>642.0</ele><time>2026-04-22T12:03:15.539Z</time></trkpt><trkpt lat="44.1957383" lon="8.0337733"><ele>640.0</ele><time>2026-04-22T12:03:17.538Z</time></trkpt><trkpt lat="44.1957217" lon="8.03391"><ele>638.0</ele><time>2026-04-22T12:03:19.539Z</time></trkpt><trkpt lat="44.1957117" lon="8.0340667"><ele>636.0</ele><time>2026-04-22T12:03:21.538Z</time></trkpt><trkpt lat="44.1957333" lon="8.0342217"><ele>635.3333333333334</ele><time>2026-04-22T12:03:23.538Z</time></trkpt><trkpt lat="44.19574" lon="8.0343167"><ele>634.6666666666666</ele><time>2026-04-22T12:03:24.539Z</time></trkpt><trkpt lat="44.1957367" lon="8.0344233"><ele>634.0</ele><time>2026-04-22T12:03:25.538Z</time></trkpt><trkpt lat="44.195725" lon="8.0345317"><ele>633.3333333333333</ele><time>2026-04-22T12:03:26.539Z</time></trkpt><trkpt lat="44.1957033" lon="8.034645"><ele>632.6666666666666</ele><time>2026-04-22T12:03:27.539Z</time></trkpt><trkpt lat="44.1956683" lon="8.034775"><ele>632.0</ele><time>2026-04-22T12:03:28.539Z</time></trkpt><trkpt lat="44.1956367" lon="8.034905"><ele>638.4000000000001</ele><time>2026-04-22T12:03:29.539Z</time></trkpt><trkpt lat="44.1956017" lon="8.0350467"><ele>644.8000000000001</ele><time>2026-04-22T12:03:30.539Z</time></trkpt><trkpt lat="44.1955567" lon="8.035185"><ele>651.2</ele><time>2026-04-22T12:03:31.539Z</time></trkpt><trkpt lat="44.195515" lon="8.0353267"><ele>657.6</ele><time>2026-04-22T12:03:32.539Z</time></trkpt><trkpt lat="44.1954633" lon="8.0354633"><ele>664.0</ele><time>2026-04-22T12:03:33.539Z</time></trkpt><trkpt lat="44.1954183" lon="8.0356"><ele>664.0</ele><time>2026-04-22T12:03:34.539Z</time></trkpt><trkpt lat="44.19537" lon="8.035735"><ele>664.0</ele><time>2026-04-22T12:03:35.539Z</time></trkpt><trkpt lat="44.195315" lon="8.0358717"><ele>664.0</ele><time>2026-04-22T12:03:36.539Z</time></trkpt><trkpt lat="44.1952533" lon="8.036"><ele>664.0</ele><time>2026-04-22T12:03:37.539Z</time></trkpt><trkpt lat="44.1951933" lon="8.0361367"><ele>664.0</ele><time>2026-04-22T12:03:38.539Z</time></trkpt><trkpt lat="44.1951367" lon="8.03627"><ele>667.4000000000001</ele><time>2026-04-22T12:03:39.539Z</time></trkpt><trkpt lat="44.195075" lon="8.0363983"><ele>670.8</ele><time>2026-04-22T12:03:40.538Z</time></trkpt><trkpt lat="44.195015" lon="8.0365233"><ele>674.2</ele><time>2026-04-22T12:03:41.539Z</time></trkpt><trkpt lat="44.1949583" lon="8.03666"><ele>677.5999999999999</ele><time>2026-04-22T12:03:42.539Z</time></trkpt><trkpt lat="44.194895" lon="8.0367933"><ele>681.0</ele><time>2026-04-22T12:03:43.539Z</time></trkpt><trkpt lat="44.1948133" lon="8.0369333"><ele>681.0</ele><time>2026-04-22T12:03:44.538Z</time></trkpt><trkpt lat="44.1947483" lon="8.0370483"><ele>681.0</ele><time>2026-04-22T12:03:45.539Z</time></trkpt><trkpt lat="44.194685" lon="8.037145"><ele>681.0</ele><time>2026-04-22T12:03:46.539Z</time></trkpt><trkpt lat="44.1946233" lon="8.0372317"><ele>681.0</ele><time>2026-04-22T12:03:47.539Z</time></trkpt><trkpt lat="44.1945533" lon="8.0373167"><ele>681.0</ele><time>2026-04-22T12:03:48.539Z</time></trkpt><trkpt lat="44.194495" lon="8.0374233"><ele>675.1999999999999</ele><time>2026-04-22T12:03:49.539Z</time></trkpt><trkpt lat="44.1944367" lon="8.037535"><ele>669.4</ele><time>2026-04-22T12:03:50.539Z</time></trkpt><trkpt lat="44.1943833" lon="8.0376567"><ele>663.6</ele><time>2026-04-22T12:03:51.539Z</time></trkpt><trkpt lat="44.1943267" lon="8.0377767"><ele>657.8</ele><time>2026-04-22T12:03:52.539Z</time></trkpt><trkpt lat="44.1942583" lon="8.037895"><ele>652.0</ele><time>2026-04-22T12:03:53.539Z</time></trkpt><trkpt lat="44.194195" lon="8.0379883"><ele>652.0</ele><time>2026-04-22T12:03:54.538Z</time></trkpt><trkpt lat="44.1941267" lon="8.03807"><ele>652.0</ele><time>2026-04-22T12:03:55.539Z</time></trkpt><trkpt lat="44.1940583" lon="8.0381367"><ele>652.0</ele><time>2026-04-22T12:03:56.539Z</time></trkpt><trkpt lat="44.1939717" lon="8.0381933"><ele>652.0</ele><time>2026-04-22T12:03:57.539Z</time></trkpt><trkpt lat="44.1938833" lon="8.0382717"><ele>652.0</ele><time>2026-04-22T12:03:58.539Z</time></trkpt><trkpt lat="44.193805" lon="8.0383483"><ele>655.4000000000001</ele><time>2026-04-22T12:03:59.539Z</time></trkpt><trkpt lat="44.1937333" lon="8.0384333"><ele>658.8000000000001</ele><time>2026-04-22T12:04:00.539Z</time></trkpt><trkpt lat="44.1936817" lon="8.0385183"><ele>662.2</ele><time>2026-04-22T12:04:01.538Z</time></trkpt><trkpt lat="44.193625" lon="8.0386317"><ele>665.6</ele><time>2026-04-22T12:04:02.539Z</time></trkpt><trkpt lat="44.1935683" lon="8.038755"><ele>669.0</ele><time>2026-04-22T12:04:03.538Z</time></trkpt><trkpt lat="44.1935117" lon="8.0388933"><ele>669.0</ele><time>2026-04-22T12:04:04.539Z</time></trkpt><trkpt lat="44.19346" lon="8.039035"><ele>669.0</ele><time>2026-04-22T12:04:05.539Z</time></trkpt><trkpt lat="44.19341" lon="8.0391733"><ele>669.0</ele><time>2026-04-22T12:04:06.539Z</time></trkpt><trkpt lat="44.1933683" lon="8.03927"><ele>669.0</ele><time>2026-04-22T12:04:07.539Z</time></trkpt><trkpt lat="44.1933417" lon="8.0393833"><ele>669.0</ele><time>2026-04-22T12:04:09.539Z</time></trkpt><trkpt lat="44.19339" lon="8.0395233"><ele>665.0</ele><time>2026-04-22T12:04:11.539Z</time></trkpt><trkpt lat="44.1934017" lon="8.0396333"><ele>661.0</ele><time>2026-04-22T12:04:12.539Z</time></trkpt><trkpt lat="44.193415" lon="8.0397333"><ele>657.0</ele><time>2026-04-22T12:04:13.539Z</time></trkpt><trkpt lat="44.1934017" lon="8.0398617"><ele>653.0</ele><time>2026-04-22T12:04:14.538Z</time></trkpt><trkpt lat="44.193375" lon="8.04002"><ele>649.0</ele><time>2026-04-22T12:04:15.539Z</time></trkpt><trkpt lat="44.19334" lon="8.040165"><ele>648.0</ele><time>2026-04-22T12:04:16.539Z</time></trkpt><trkpt lat="44.1933067" lon="8.0403033"><ele>647.0</ele><time>2026-04-22T12:04:17.538Z</time></trkpt><trkpt lat="44.1932583" lon="8.04043"><ele>646.0</ele><time>2026-04-22T12:04:18.538Z</time></trkpt><trkpt lat="44.1932" lon="8.0405367"><ele>645.0</ele><time>2026-04-22T12:04:19.539Z</time></trkpt><trkpt lat="44.1931217" lon="8.0406517"><ele>644.0</ele><time>2026-04-22T12:04:20.539Z</time></trkpt><trkpt lat="44.1930567" lon="8.0407433"><ele>645.0</ele><time>2026-04-22T12:04:21.539Z</time></trkpt><trkpt lat="44.1930033" lon="8.0408117"><ele>646.0</ele><time>2026-04-22T12:04:22.539Z</time></trkpt><trkpt lat="44.1929683" lon="8.0409"><ele>647.0</ele><time>2026-04-22T12:04:23.539Z</time></trkpt><trkpt lat="44.1929333" lon="8.0409967"><ele>648.0</ele><time>2026-04-22T12:04:24.539Z</time></trkpt><trkpt lat="44.1929183" lon="8.0410917"><ele>649.0</ele><time>2026-04-22T12:04:25.539Z</time></trkpt><trkpt lat="44.1928983" lon="8.0412033"><ele>650.0</ele><time>2026-04-22T12:04:26.539Z</time></trkpt><trkpt lat="44.1928483" lon="8.041325"><ele>650.0</ele><time>2026-04-22T12:04:27.539Z</time></trkpt><trkpt lat="44.1927817" lon="8.04145"><ele>650.0</ele><time>2026-04-22T12:04:28.539Z</time></trkpt><trkpt lat="44.1927233" lon="8.041555"><ele>650.0</ele><time>2026-04-22T12:04:29.539Z</time></trkpt><trkpt lat="44.1926667" lon="8.04167"><ele>650.0</ele><time>2026-04-22T12:04:30.539Z</time></trkpt><trkpt lat="44.1926033" lon="8.0418033"><ele>650.0</ele><time>2026-04-22T12:04:31.539Z</time></trkpt><trkpt lat="44.1925283" lon="8.041965"><ele>650.75</ele><time>2026-04-22T12:04:32.538Z</time></trkpt><trkpt lat="44.1924467" lon="8.0421367"><ele>651.5</ele><time>2026-04-22T12:04:33.539Z</time></trkpt><trkpt lat="44.1923667" lon="8.0422967"><ele>652.25</ele><time>2026-04-22T12:04:34.539Z</time></trkpt><trkpt lat="44.192305" lon="8.0424467"><ele>653.0</ele><time>2026-04-22T12:04:35.539Z</time></trkpt><trkpt lat="44.1922567" lon="8.042575"><ele>654.1666666666666</ele><time>2026-04-22T12:04:36.539Z</time></trkpt><trkpt lat="44.1922117" lon="8.0426717"><ele>655.3333333333333</ele><time>2026-04-22T12:04:37.539Z</time></trkpt><trkpt lat="44.1921583" lon="8.0427317"><ele>656.5</ele><time>2026-04-22T12:04:38.539Z</time></trkpt><trkpt lat="44.1921033" lon="8.04278"><ele>657.6666666666666</ele><time>2026-04-22T12:04:39.539Z</time></trkpt><trkpt lat="44.19203" lon="8.0428267"><ele>658.8333333333334</ele><time>2026-04-22T12:04:40.539Z</time></trkpt><trkpt lat="44.1919417" lon="8.0428833"><ele>660.0</ele><time>2026-04-22T12:04:41.539Z</time></trkpt><trkpt lat="44.1918583" lon="8.0429533"><ele>660.0</ele><time>2026-04-22T12:04:42.539Z</time></trkpt><trkpt lat="44.1917767" lon="8.04303"><ele>660.0</ele><time>2026-04-22T12:04:43.539Z</time></trkpt><trkpt lat="44.1917133" lon="8.0431"><ele>660.0</ele><time>2026-04-22T12:04:44.539Z</time></trkpt><trkpt lat="44.1916617" lon="8.0431767"><ele>660.0</ele><time>2026-04-22T12:04:45.539Z</time></trkpt><trkpt lat="44.1916117" lon="8.04327"><ele>660.0</ele><time>2026-04-22T12:04:46.539Z</time></trkpt><trkpt lat="44.1915517" lon="8.0433767"><ele>660.0</ele><time>2026-04-22T12:04:47.539Z</time></trkpt><trkpt lat="44.1914933" lon="8.0434667"><ele>661.6666666666666</ele><time>2026-04-22T12:04:48.539Z</time></trkpt><trkpt lat="44.19143" lon="8.0435283"><ele>663.3333333333334</ele><time>2026-04-22T12:04:49.539Z</time></trkpt><trkpt lat="44.1913567" lon="8.043585"><ele>665.0</ele><time>2026-04-22T12:04:50.539Z</time></trkpt><trkpt lat="44.1912733" lon="8.0436333"><ele>666.6666666666667</ele><time>2026-04-22T12:04:51.539Z</time></trkpt><trkpt lat="44.1911933" lon="8.04369"><ele>668.3333333333334</ele><time>2026-04-22T12:04:52.538Z</time></trkpt><trkpt lat="44.191145" lon="8.0437533"><ele>670.0</ele><time>2026-04-22T12:04:53.539Z</time></trkpt><trkpt lat="44.191085" lon="8.04392"><ele>670.0</ele><time>2026-04-22T12:04:55.539Z</time></trkpt><trkpt lat="44.1910483" lon="8.0440117"><ele>670.0</ele><time>2026-04-22T12:04:56.539Z</time></trkpt><trkpt lat="44.1910067" lon="8.0441033"><ele>670.0</ele><time>2026-04-22T12:04:57.539Z</time></trkpt><trkpt lat="44.190955" lon="8.0442083"><ele>670.0</ele><time>2026-04-22T12:04:59.539Z</time></trkpt><trkpt lat="44.1908667" lon="8.0442683"><ele>670.0</ele><time>2026-04-22T12:05:43.539Z</time></trkpt><trkpt lat="44.1907917" lon="8.0443467"><ele>670.0</ele><time>2026-04-22T12:05:55.539Z</time></trkpt><trkpt lat="44.190705" lon="8.0444117"><ele>671.8</ele><time>2026-04-22T12:05:58.539Z</time></trkpt><trkpt lat="44.1906" lon="8.04452"><ele>673.6</ele><time>2026-04-22T12:06:00.539Z</time></trkpt><trkpt lat="44.1905317" lon="8.0445883"><ele>675.4000000000001</ele><time>2026-04-22T12:06:01.538Z</time></trkpt><trkpt lat="44.1904633" lon="8.0446733"><ele>677.2</ele><time>2026-04-22T12:06:02.539Z</time></trkpt><trkpt lat="44.190415" lon="8.0447483"><ele>679.0</ele><time>2026-04-22T12:06:03.539Z</time></trkpt><trkpt lat="44.1903633" lon="8.0448583"><ele>679.0</ele><time>2026-04-22T12:06:05.539Z</time></trkpt><trkpt lat="44.190425" lon="8.044885"><ele>679.0</ele><time>2026-04-22T12:06:08.539Z</time></trkpt><trkpt lat="44.1905067" lon="8.0448883"><ele>679.0</ele><time>2026-04-22T12:06:10.539Z</time></trkpt><trkpt lat="44.1906183" lon="8.0449433"><ele>679.0</ele><time>2026-04-22T12:06:12.538Z</time></trkpt><trkpt lat="44.1906967" lon="8.04497"><ele>679.0</ele><time>2026-04-22T12:06:13.539Z</time></trkpt><trkpt lat="44.1907783" lon="8.0450017"><ele>679.0</ele><time>2026-04-22T12:06:14.539Z</time></trkpt><trkpt lat="44.190865" lon="8.04503"><ele>683.1666666666667</ele><time>2026-04-22T12:06:15.539Z</time></trkpt><trkpt lat="44.1909483" lon="8.045055"><ele>687.3333333333334</ele><time>2026-04-22T12:06:16.539Z</time></trkpt><trkpt lat="44.1910117" lon="8.0450533"><ele>691.5</ele><time>2026-04-22T12:06:17.539Z</time></trkpt><trkpt lat="44.1910783" lon="8.0450433"><ele>695.6666666666666</ele><time>2026-04-22T12:06:18.539Z</time></trkpt><trkpt lat="44.1911517" lon="8.0450367"><ele>699.8333333333333</ele><time>2026-04-22T12:06:19.538Z</time></trkpt><trkpt lat="44.1912133" lon="8.045055"><ele>704.0</ele><time>2026-04-22T12:06:20.539Z</time></trkpt><trkpt lat="44.1913133" lon="8.045155"><ele>704.0</ele><time>2026-04-22T12:06:22.539Z</time></trkpt><trkpt lat="44.19136" lon="8.0453183"><ele>704.0</ele><time>2026-04-22T12:06:24.538Z</time></trkpt><trkpt lat="44.1913917" lon="8.0454"><ele>704.0</ele><time>2026-04-22T12:06:25.539Z</time></trkpt><trkpt lat="44.191435" lon="8.0455367"><ele>704.0</ele><time>2026-04-22T12:06:27.539Z</time></trkpt><trkpt lat="44.19154" lon="8.0455817"><ele>704.0</ele><time>2026-04-22T12:06:29.538Z</time></trkpt><trkpt lat="44.191645" lon="8.0456367"><ele>704.8000000000001</ele><time>2026-04-22T12:06:31.539Z</time></trkpt><trkpt lat="44.1917133" lon="8.045725"><ele>705.6</ele><time>2026-04-22T12:06:33.538Z</time></trkpt><trkpt lat="44.1916783" lon="8.0458233"><ele>706.4</ele><time>2026-04-22T12:06:36.539Z</time></trkpt><trkpt lat="44.1916967" lon="8.0459617"><ele>707.2</ele><time>2026-04-22T12:06:39.539Z</time></trkpt><trkpt lat="44.1917333" lon="8.0460917"><ele>708.0</ele><time>2026-04-22T12:06:41.539Z</time></trkpt><trkpt lat="44.1917617" lon="8.04625"><ele>712.4</ele><time>2026-04-22T12:06:43.539Z</time></trkpt><trkpt lat="44.1918033" lon="8.04634"><ele>716.8</ele><time>2026-04-22T12:06:45.539Z</time></trkpt><trkpt lat="44.1918767" lon="8.0464267"><ele>721.2</ele><time>2026-04-22T12:08:27.539Z</time></trkpt><trkpt lat="44.1919317" lon="8.04657"><ele>725.6</ele><time>2026-04-22T12:08:29.538Z</time></trkpt><trkpt lat="44.1919733" lon="8.04668"><ele>730.0</ele><time>2026-04-22T12:08:30.539Z</time></trkpt><trkpt lat="44.1920183" lon="8.04678"><ele>733.4</ele><time>2026-04-22T12:08:31.539Z</time></trkpt><trkpt lat="44.19205" lon="8.0468617"><ele>736.8</ele><time>2026-04-22T12:08:32.539Z</time></trkpt><trkpt lat="44.1921117" lon="8.0470083"><ele>740.2</ele><time>2026-04-22T12:08:34.539Z</time></trkpt><trkpt lat="44.1921617" lon="8.0471233"><ele>743.6</ele><time>2026-04-22T12:08:36.539Z</time></trkpt><trkpt lat="44.1921917" lon="8.0472267"><ele>747.0</ele><time>2026-04-22T12:08:39.539Z</time></trkpt><trkpt lat="44.19227" lon="8.04738"><ele>749.5</ele><time>2026-04-22T12:08:55.539Z</time></trkpt><trkpt lat="44.1922967" lon="8.0475317"><ele>752.0</ele><time>2026-04-22T12:08:57.539Z</time></trkpt><trkpt lat="44.19229" lon="8.0476383"><ele>754.5</ele><time>2026-04-22T12:08:58.539Z</time></trkpt><trkpt lat="44.19229" lon="8.04775"><ele>757.0</ele><time>2026-04-22T12:08:59.539Z</time></trkpt><trkpt lat="44.1922917" lon="8.0478683"><ele>759.5</ele><time>2026-04-22T12:09:00.538Z</time></trkpt><trkpt lat="44.1922983" lon="8.0479733"><ele>762.0</ele><time>2026-04-22T12:09:01.539Z</time></trkpt><trkpt lat="44.1923017" lon="8.0480733"><ele>762.0</ele><time>2026-04-22T12:09:02.539Z</time></trkpt><trkpt lat="44.1922867" lon="8.048165"><ele>762.0</ele><time>2026-04-22T12:09:03.539Z</time></trkpt><trkpt lat="44.1922767" lon="8.0483067"><ele>762.0</ele><time>2026-04-22T12:09:05.539Z</time></trkpt><trkpt lat="44.19225" lon="8.0484583"><ele>762.0</ele><time>2026-04-22T12:09:07.539Z</time></trkpt><trkpt lat="44.1922467" lon="8.0485883"><ele>762.0</ele><time>2026-04-22T12:09:09.539Z</time></trkpt><trkpt lat="44.1922517" lon="8.0487117"><ele>762.0</ele><time>2026-04-22T12:09:11.539Z</time></trkpt><trkpt lat="44.1923067" lon="8.0488217"><ele>762.0</ele><time>2026-04-22T12:09:15.538Z</time></trkpt><trkpt lat="44.192355" lon="8.04892"><ele>762.0</ele><time>2026-04-22T12:09:17.539Z</time></trkpt><trkpt lat="44.1924217" lon="8.049045"><ele>762.0</ele><time>2026-04-22T12:09:19.539Z</time></trkpt><trkpt lat="44.192495" lon="8.04914"><ele>762.0</ele><time>2026-04-22T12:09:21.538Z</time></trkpt><trkpt lat="44.1925617" lon="8.049175"><ele>762.0</ele><time>2026-04-22T12:09:23.539Z</time></trkpt><trkpt lat="44.1926167" lon="8.049225"><ele>762.0</ele><time>2026-04-22T12:09:25.538Z</time></trkpt><trkpt lat="44.1926867" lon="8.0492967"><ele>762.0</ele><time>2026-04-22T12:09:27.539Z</time></trkpt><trkpt lat="44.192775" lon="8.0493983"><ele>762.0</ele><time>2026-04-22T12:09:29.539Z</time></trkpt><trkpt lat="44.1928233" lon="8.0494733"><ele>762.0</ele><time>2026-04-22T12:09:30.539Z</time></trkpt><trkpt lat="44.19288" lon="8.049575"><ele>762.0</ele><time>2026-04-22T12:09:31.539Z</time></trkpt><trkpt lat="44.1929367" lon="8.0496783"><ele>762.0</ele><time>2026-04-22T12:09:32.539Z</time></trkpt><trkpt lat="44.1929733" lon="8.0497717"><ele>762.0</ele><time>2026-04-22T12:09:33.539Z</time></trkpt><trkpt lat="44.19299" lon="8.0498617"><ele>762.0</ele><time>2026-04-22T12:09:34.538Z</time></trkpt><trkpt lat="44.1929833" lon="8.0499533"><ele>762.0</ele><time>2026-04-22T12:09:35.539Z</time></trkpt><trkpt lat="44.1929683" lon="8.050045"><ele>762.0</ele><time>2026-04-22T12:09:36.539Z</time></trkpt><trkpt lat="44.1929417" lon="8.0501583"><ele>762.0</ele><time>2026-04-22T12:09:37.539Z</time></trkpt><trkpt lat="44.1929217" lon="8.0502717"><ele>762.0</ele><time>2026-04-22T12:09:38.539Z</time></trkpt><trkpt lat="44.1929017" lon="8.0503783"><ele>763.8333333333334</ele><time>2026-04-22T12:09:39.539Z</time></trkpt><trkpt lat="44.1928967" lon="8.0504717"><ele>765.6666666666667</ele><time>2026-04-22T12:09:40.539Z</time></trkpt><trkpt lat="44.192905" lon="8.0505633"><ele>767.5</ele><time>2026-04-22T12:09:41.539Z</time></trkpt><trkpt lat="44.1929467" lon="8.0506767"><ele>769.3333333333334</ele><time>2026-04-22T12:09:43.539Z</time></trkpt><trkpt lat="44.1929933" lon="8.0507867"><ele>771.1666666666667</ele><time>2026-04-22T12:09:45.539Z</time></trkpt><trkpt lat="44.1930467" lon="8.0508733"><ele>773.0</ele><time>2026-04-22T12:09:48.539Z</time></trkpt><trkpt lat="44.1931033" lon="8.0509833"><ele>771.5999999999999</ele><time>2026-04-22T12:09:51.539Z</time></trkpt><trkpt lat="44.193175" lon="8.0511267"><ele>770.1999999999999</ele><time>2026-04-22T12:09:53.539Z</time></trkpt><trkpt lat="44.1932217" lon="8.0512083"><ele>768.8</ele><time>2026-04-22T12:09:54.539Z</time></trkpt><trkpt lat="44.1932733" lon="8.0513533"><ele>767.4</ele><time>2026-04-22T12:09:56.539Z</time></trkpt><trkpt lat="44.1932867" lon="8.05144"><ele>766.0</ele><time>2026-04-22T12:09:57.539Z</time></trkpt><trkpt lat="44.1933" lon="8.051595"><ele>767.5</ele><time>2026-04-22T12:09:59.539Z</time></trkpt><trkpt lat="44.1933083" lon="8.051705"><ele>769.0</ele><time>2026-04-22T12:10:01.539Z</time></trkpt><trkpt lat="44.19333" lon="8.0518217"><ele>770.5</ele><time>2026-04-22T12:10:04.538Z</time></trkpt><trkpt lat="44.1933867" lon="8.051885"><ele>772.0</ele><time>2026-04-22T12:10:06.539Z</time></trkpt><trkpt lat="44.1934183" lon="8.0519983"><ele>773.4999999999999</ele><time>2026-04-22T12:10:08.539Z</time></trkpt><trkpt lat="44.19345" lon="8.052125"><ele>775.0</ele><time>2026-04-22T12:10:10.539Z</time></trkpt><trkpt lat="44.1934883" lon="8.052225"><ele>774.9999999999999</ele><time>2026-04-22T12:10:12.538Z</time></trkpt><trkpt lat="44.1934933" lon="8.0523133"><ele>775.0</ele><time>2026-04-22T12:10:14.539Z</time></trkpt><trkpt lat="44.1934733" lon="8.0524017"><ele>775.0</ele><time>2026-04-22T12:10:16.539Z</time></trkpt><trkpt lat="44.1934333" lon="8.0524917"><ele>775.0</ele><time>2026-04-22T12:10:18.539Z</time></trkpt><trkpt lat="44.193355" lon="8.0525783"><ele>774.9999999999999</ele><time>2026-04-22T12:10:20.539Z</time></trkpt><trkpt lat="44.1932867" lon="8.052615"><ele>775.0</ele><time>2026-04-22T12:10:22.539Z</time></trkpt><trkpt lat="44.193225" lon="8.0526883"><ele>776.9999999999999</ele><time>2026-04-22T12:10:24.539Z</time></trkpt><trkpt lat="44.193185" lon="8.0528033"><ele>779.0</ele><time>2026-04-22T12:10:26.538Z</time></trkpt><trkpt lat="44.1931867" lon="8.0529083"><ele>781.0</ele><time>2026-04-22T12:10:28.538Z</time></trkpt><trkpt lat="44.19318" lon="8.053"><ele>783.0</ele><time>2026-04-22T12:10:30.539Z</time></trkpt><trkpt lat="44.1931267" lon="8.0531317"><ele>784.9999999999999</ele><time>2026-04-22T12:10:32.539Z</time></trkpt><trkpt lat="44.1930517" lon="8.05324"><ele>787.0</ele><time>2026-04-22T12:10:34.539Z</time></trkpt><trkpt lat="44.1930083" lon="8.0533233"><ele>791.6666666666666</ele><time>2026-04-22T12:10:36.539Z</time></trkpt><trkpt lat="44.1930117" lon="8.0534183"><ele>796.3333333333333</ele><time>2026-04-22T12:10:39.539Z</time></trkpt><trkpt lat="44.193065" lon="8.0535267"><ele>801.0</ele><time>2026-04-22T12:10:42.539Z</time></trkpt><trkpt lat="44.19306" lon="8.05365"><ele>805.6666666666667</ele><time>2026-04-22T12:10:45.539Z</time></trkpt><trkpt lat="44.1930117" lon="8.053755"><ele>810.3333333333334</ele><time>2026-04-22T12:10:47.539Z</time></trkpt><trkpt lat="44.1929967" lon="8.0538533"><ele>815.0</ele><time>2026-04-22T12:10:49.538Z</time></trkpt><trkpt lat="44.19303" lon="8.0539683"><ele>815.0000000000001</ele><time>2026-04-22T12:10:52.54Z</time></trkpt><trkpt lat="44.1930867" lon="8.054035"><ele>815.0</ele><time>2026-04-22T12:10:54.54Z</time></trkpt><trkpt lat="44.1931583" lon="8.054125"><ele>815.0</ele><time>2026-04-22T12:10:56.54Z</time></trkpt><trkpt lat="44.1932017" lon="8.0542567"><ele>815.0</ele><time>2026-04-22T12:10:58.54Z</time></trkpt><trkpt lat="44.1931867" lon="8.0543667"><ele>815.0000000000001</ele><time>2026-04-22T12:11:00.54Z</time></trkpt><trkpt lat="44.1931633" lon="8.0544667"><ele>815.0</ele><time>2026-04-22T12:11:03.54Z</time></trkpt><trkpt lat="44.1932183" lon="8.0545783"><ele>817.1666666666667</ele><time>2026-04-22T12:11:22.539Z</time></trkpt><trkpt lat="44.1933067" lon="8.0546333"><ele>819.3333333333334</ele><time>2026-04-22T12:11:25.54Z</time></trkpt><trkpt lat="44.1933667" lon="8.0546683"><ele>821.5</ele><time>2026-04-22T12:11:27.539Z</time></trkpt><trkpt lat="44.19343" lon="8.0547083"><ele>823.6666666666667</ele><time>2026-04-22T12:11:29.54Z</time></trkpt><trkpt lat="44.1935017" lon="8.0547567"><ele>825.8333333333334</ele><time>2026-04-22T12:11:31.54Z</time></trkpt><trkpt lat="44.19354" lon="8.0548517"><ele>828.0</ele><time>2026-04-22T12:11:33.539Z</time></trkpt><trkpt lat="44.1935517" lon="8.0549817"><ele>832.8</ele><time>2026-04-22T12:11:35.54Z</time></trkpt><trkpt lat="44.193525" lon="8.0551283"><ele>837.5999999999999</ele><time>2026-04-22T12:11:37.54Z</time></trkpt><trkpt lat="44.1935" lon="8.05528"><ele>842.4000000000001</ele><time>2026-04-22T12:11:39.54Z</time></trkpt><trkpt lat="44.193475" lon="8.0553967"><ele>847.2</ele><time>2026-04-22T12:11:41.54Z</time></trkpt><trkpt lat="44.1934767" lon="8.0555117"><ele>852.0</ele><time>2026-04-22T12:11:58.54Z</time></trkpt><trkpt lat="44.1934917" lon="8.0556167"><ele>852.0</ele><time>2026-04-22T12:12:00.54Z</time></trkpt><trkpt lat="44.1935033" lon="8.0557083"><ele>852.0</ele><time>2026-04-22T12:12:01.54Z</time></trkpt><trkpt lat="44.1935217" lon="8.0558133"><ele>852.0</ele><time>2026-04-22T12:12:02.54Z</time></trkpt><trkpt lat="44.1935283" lon="8.05594"><ele>852.0</ele><time>2026-04-22T12:12:03.54Z</time></trkpt><trkpt lat="44.1935283" lon="8.0560683"><ele>852.0</ele><time>2026-04-22T12:12:04.539Z</time></trkpt><trkpt lat="44.1935433" lon="8.056205"><ele>852.0</ele><time>2026-04-22T12:12:05.54Z</time></trkpt><trkpt lat="44.1935617" lon="8.0563417"><ele>854.6666666666666</ele><time>2026-04-22T12:12:06.54Z</time></trkpt><trkpt lat="44.19358" lon="8.0564617"><ele>857.3333333333333</ele><time>2026-04-22T12:12:07.539Z</time></trkpt><trkpt lat="44.1936017" lon="8.0565483"><ele>860.0</ele><time>2026-04-22T12:12:08.54Z</time></trkpt><trkpt lat="44.19365" lon="8.05668"><ele>862.6666666666666</ele><time>2026-04-22T12:12:10.54Z</time></trkpt><trkpt lat="44.1937083" lon="8.056775"><ele>865.3333333333333</ele><time>2026-04-22T12:12:12.54Z</time></trkpt><trkpt lat="44.1937267" lon="8.0568917"><ele>868.0</ele><time>2026-04-22T12:12:15.54Z</time></trkpt><trkpt lat="44.1937317" lon="8.0570183"><ele>870.1666666666666</ele><time>2026-04-22T12:12:17.54Z</time></trkpt><trkpt lat="44.19375" lon="8.0571317"><ele>872.3333333333333</ele><time>2026-04-22T12:12:19.54Z</time></trkpt><trkpt lat="44.19378" lon="8.057235"><ele>874.5</ele><time>2026-04-22T12:12:22.54Z</time></trkpt><trkpt lat="44.1937933" lon="8.05735"><ele>876.6666666666667</ele><time>2026-04-22T12:12:24.54Z</time></trkpt><trkpt lat="44.19379" lon="8.0575083"><ele>878.8333333333334</ele><time>2026-04-22T12:12:26.54Z</time></trkpt><trkpt lat="44.1937717" lon="8.0576017"><ele>881.0</ele><time>2026-04-22T12:12:27.54Z</time></trkpt><trkpt lat="44.19375" lon="8.057705"><ele>883.0000000000001</ele><time>2026-04-22T12:12:28.539Z</time></trkpt><trkpt lat="44.1937283" lon="8.0578217"><ele>885.0</ele><time>2026-04-22T12:12:29.539Z</time></trkpt><trkpt lat="44.193695" lon="8.057955"><ele>887.0</ele><time>2026-04-22T12:12:30.54Z</time></trkpt><trkpt lat="44.1936517" lon="8.0580683"><ele>889.0</ele><time>2026-04-22T12:12:31.54Z</time></trkpt><trkpt lat="44.1936117" lon="8.0581817"><ele>891.0000000000001</ele><time>2026-04-22T12:12:32.54Z</time></trkpt><trkpt lat="44.19358" lon="8.05828"><ele>893.0</ele><time>2026-04-22T12:12:33.54Z</time></trkpt><trkpt lat="44.19354" lon="8.0583717"><ele>893.1428571428571</ele><time>2026-04-22T12:12:34.54Z</time></trkpt><trkpt lat="44.1934983" lon="8.0584483"><ele>893.2857142857143</ele><time>2026-04-22T12:12:35.54Z</time></trkpt><trkpt lat="44.1934567" lon="8.0585233"><ele>893.4285714285713</ele><time>2026-04-22T12:12:36.54Z</time></trkpt><trkpt lat="44.193415" lon="8.0585917"><ele>893.5714285714286</ele><time>2026-04-22T12:12:37.54Z</time></trkpt><trkpt lat="44.1933617" lon="8.05867"><ele>893.7142857142857</ele><time>2026-04-22T12:12:38.54Z</time></trkpt><trkpt lat="44.193315" lon="8.0587417"><ele>893.8571428571428</ele><time>2026-04-22T12:12:39.54Z</time></trkpt><trkpt lat="44.1932633" lon="8.05883"><ele>894.0</ele><time>2026-04-22T12:12:40.54Z</time></trkpt><trkpt lat="44.1932083" lon="8.0589067"><ele>898.4285714285713</ele><time>2026-04-22T12:12:41.54Z</time></trkpt><trkpt lat="44.1931517" lon="8.0589767"><ele>902.8571428571429</ele><time>2026-04-22T12:12:42.54Z</time></trkpt><trkpt lat="44.193095" lon="8.0590433"><ele>907.2857142857142</ele><time>2026-04-22T12:12:43.54Z</time></trkpt><trkpt lat="44.19304" lon="8.05911"><ele>911.7142857142857</ele><time>2026-04-22T12:12:44.54Z</time></trkpt><trkpt lat="44.1929867" lon="8.0591917"><ele>916.1428571428571</ele><time>2026-04-22T12:12:45.54Z</time></trkpt><trkpt lat="44.1929367" lon="8.0592667"><ele>920.5714285714286</ele><time>2026-04-22T12:12:46.54Z</time></trkpt><trkpt lat="44.19288" lon="8.0593333"><ele>925.0</ele><time>2026-04-22T12:12:47.54Z</time></trkpt><trkpt lat="44.192825" lon="8.0594083"><ele>924.9999999999999</ele><time>2026-04-22T12:12:48.54Z</time></trkpt><trkpt lat="44.1927617" lon="8.0594883"><ele>925.0</ele><time>2026-04-22T12:12:49.54Z</time></trkpt><trkpt lat="44.1926967" lon="8.0595683"><ele>925.0</ele><time>2026-04-22T12:12:50.54Z</time></trkpt><trkpt lat="44.1926317" lon="8.0596517"><ele>925.0</ele><time>2026-04-22T12:12:51.54Z</time></trkpt><trkpt lat="44.1925717" lon="8.059735"><ele>924.9999999999999</ele><time>2026-04-22T12:12:52.54Z</time></trkpt><trkpt lat="44.1925083" lon="8.0598117"><ele>925.0</ele><time>2026-04-22T12:12:53.54Z</time></trkpt><trkpt lat="44.19244" lon="8.0598783"><ele>924.9999999999999</ele><time>2026-04-22T12:12:54.54Z</time></trkpt><trkpt lat="44.1923733" lon="8.0599217"><ele>925.0</ele><time>2026-04-22T12:12:55.539Z</time></trkpt><trkpt lat="44.192305" lon="8.0599633"><ele>925.0</ele><time>2026-04-22T12:12:56.54Z</time></trkpt><trkpt lat="44.1922467" lon="8.060005"><ele>925.0</ele><time>2026-04-22T12:12:57.54Z</time></trkpt><trkpt lat="44.1921817" lon="8.0600717"><ele>924.9999999999999</ele><time>2026-04-22T12:12:58.54Z</time></trkpt><trkpt lat="44.1921133" lon="8.0601417"><ele>925.0</ele><time>2026-04-22T12:12:59.54Z</time></trkpt><trkpt lat="44.1920483" lon="8.0602183"><ele>928.1666666666666</ele><time>2026-04-22T12:13:00.54Z</time></trkpt><trkpt lat="44.191975" lon="8.0602917"><ele>931.3333333333333</ele><time>2026-04-22T12:13:01.54Z</time></trkpt><trkpt lat="44.1919033" lon="8.0603567"><ele>934.5</ele><time>2026-04-22T12:13:02.54Z</time></trkpt><trkpt lat="44.191825" lon="8.0604283"><ele>937.6666666666667</ele><time>2026-04-22T12:13:03.54Z</time></trkpt><trkpt lat="44.191755" lon="8.0604967"><ele>940.8333333333334</ele><time>2026-04-22T12:13:04.54Z</time></trkpt><trkpt lat="44.1916933" lon="8.06055"><ele>944.0</ele><time>2026-04-22T12:13:05.539Z</time></trkpt><trkpt lat="44.1916367" lon="8.0605967"><ele>944.0000000000001</ele><time>2026-04-22T12:13:06.539Z</time></trkpt><trkpt lat="44.191575" lon="8.0606183"><ele>944.0</ele><time>2026-04-22T12:13:08.54Z</time></trkpt><trkpt lat="44.191605" lon="8.0604983"><ele>944.0</ele><time>2026-04-22T12:13:10.54Z</time></trkpt><trkpt lat="44.1916433" lon="8.0603783"><ele>944.0</ele><time>2026-04-22T12:13:11.54Z</time></trkpt><trkpt lat="44.1916767" lon="8.06026"><ele>944.0000000000001</ele><time>2026-04-22T12:13:12.54Z</time></trkpt><trkpt lat="44.191695" lon="8.0601367"><ele>944.0</ele><time>2026-04-22T12:13:13.54Z</time></trkpt><trkpt lat="44.191705" lon="8.060025"><ele>947.1666666666667</ele><time>2026-04-22T12:13:14.54Z</time></trkpt><trkpt lat="44.1917133" lon="8.0599167"><ele>950.3333333333334</ele><time>2026-04-22T12:13:15.54Z</time></trkpt><trkpt lat="44.19173" lon="8.0597967"><ele>953.5</ele><time>2026-04-22T12:13:16.539Z</time></trkpt><trkpt lat="44.191735" lon="8.0596933"><ele>956.6666666666667</ele><time>2026-04-22T12:13:17.54Z</time></trkpt><trkpt lat="44.1917317" lon="8.0596017"><ele>959.8333333333334</ele><time>2026-04-22T12:13:18.54Z</time></trkpt><trkpt lat="44.1917133" lon="8.0595167"><ele>963.0</ele><time>2026-04-22T12:13:19.539Z</time></trkpt><trkpt lat="44.1916383" lon="8.05944"><ele>963.0</ele><time>2026-04-22T12:13:21.54Z</time></trkpt><trkpt lat="44.191535" lon="8.0594533"><ele>963.0</ele><time>2026-04-22T12:13:23.539Z</time></trkpt><trkpt lat="44.1914217" lon="8.0595083"><ele>963.0</ele><time>2026-04-22T12:13:25.54Z</time></trkpt><trkpt lat="44.191355" lon="8.0595483"><ele>963.0</ele><time>2026-04-22T12:13:26.54Z</time></trkpt><trkpt lat="44.1912583" lon="8.059585"><ele>963.0</ele><time>2026-04-22T12:13:28.539Z</time></trkpt><trkpt lat="44.1911733" lon="8.0595767"><ele>963.5714285714287</ele><time>2026-04-22T12:13:30.54Z</time></trkpt><trkpt lat="44.191095" lon="8.059605"><ele>964.1428571428571</ele><time>2026-04-22T12:13:32.54Z</time></trkpt><trkpt lat="44.1910283" lon="8.0596333"><ele>964.7142857142858</ele><time>2026-04-22T12:13:34.54Z</time></trkpt><trkpt lat="44.190975" lon="8.059685"><ele>965.2857142857143</ele><time>2026-04-22T12:13:35.54Z</time></trkpt><trkpt lat="44.1909117" lon="8.0597483"><ele>965.8571428571429</ele><time>2026-04-22T12:13:36.539Z</time></trkpt><trkpt lat="44.1908583" lon="8.05981"><ele>966.4285714285714</ele><time>2026-04-22T12:13:37.54Z</time></trkpt><trkpt lat="44.1908033" lon="8.0598833"><ele>967.0</ele><time>2026-04-22T12:13:38.54Z</time></trkpt><trkpt lat="44.1907483" lon="8.0599633"><ele>966.9999999999999</ele><time>2026-04-22T12:13:39.54Z</time></trkpt><trkpt lat="44.1907" lon="8.0600583"><ele>967.0</ele><time>2026-04-22T12:13:40.54Z</time></trkpt><trkpt lat="44.1906733" lon="8.060145"><ele>967.0</ele><time>2026-04-22T12:13:41.539Z</time></trkpt><trkpt lat="44.1906683" lon="8.0602517"><ele>967.0</ele><time>2026-04-22T12:13:42.54Z</time></trkpt><trkpt lat="44.1906683" lon="8.0603483"><ele>966.9999999999999</ele><time>2026-04-22T12:13:43.54Z</time></trkpt><trkpt lat="44.1906833" lon="8.0605117"><ele>967.0</ele><time>2026-04-22T12:13:44.54Z</time></trkpt><trkpt lat="44.1907" lon="8.06065"><ele>965.4000000000001</ele><time>2026-04-22T12:13:45.54Z</time></trkpt><trkpt lat="44.1906967" lon="8.06082"><ele>963.8000000000001</ele><time>2026-04-22T12:13:46.54Z</time></trkpt><trkpt lat="44.1906933" lon="8.0609567"><ele>962.2</ele><time>2026-04-22T12:13:47.539Z</time></trkpt><trkpt lat="44.1906867" lon="8.0610733"><ele>960.6</ele><time>2026-04-22T12:13:48.54Z</time></trkpt><trkpt lat="44.190685" lon="8.0611617"><ele>959.0</ele><time>2026-04-22T12:13:49.54Z</time></trkpt><trkpt lat="44.19063" lon="8.061325"><ele>963.8333333333334</ele><time>2026-04-22T12:13:51.539Z</time></trkpt><trkpt lat="44.1905317" lon="8.0614417"><ele>968.6666666666667</ele><time>2026-04-22T12:13:53.539Z</time></trkpt><trkpt lat="44.1904817" lon="8.0615"><ele>973.5</ele><time>2026-04-22T12:13:54.54Z</time></trkpt><trkpt lat="44.1904283" lon="8.061555"><ele>978.3333333333333</ele><time>2026-04-22T12:13:55.54Z</time></trkpt><trkpt lat="44.1903767" lon="8.0616117"><ele>983.1666666666666</ele><time>2026-04-22T12:13:56.54Z</time></trkpt><trkpt lat="44.1902983" lon="8.0617117"><ele>988.0</ele><time>2026-04-22T12:13:58.539Z</time></trkpt><trkpt lat="44.1903117" lon="8.0618017"><ele>987.9999999999999</ele><time>2026-04-22T12:14:01.54Z</time></trkpt><trkpt lat="44.190335" lon="8.0619083"><ele>988.0</ele><time>2026-04-22T12:14:03.54Z</time></trkpt><trkpt lat="44.190345" lon="8.061995"><ele>988.0</ele><time>2026-04-22T12:14:04.54Z</time></trkpt><trkpt lat="44.1903667" lon="8.0621033"><ele>988.0</ele><time>2026-04-22T12:14:05.539Z</time></trkpt><trkpt lat="44.1903983" lon="8.0622183"><ele>987.9999999999999</ele><time>2026-04-22T12:14:06.54Z</time></trkpt><trkpt lat="44.1904333" lon="8.0623167"><ele>988.0</ele><time>2026-04-22T12:14:07.539Z</time></trkpt><trkpt lat="44.1904233" lon="8.06245"><ele>987.7142857142858</ele><time>2026-04-22T12:14:09.54Z</time></trkpt><trkpt lat="44.1904067" lon="8.06256"><ele>987.4285714285713</ele><time>2026-04-22T12:14:11.54Z</time></trkpt><trkpt lat="44.190405" lon="8.0626717"><ele>987.1428571428571</ele><time>2026-04-22T12:14:13.539Z</time></trkpt><trkpt lat="44.1903633" lon="8.0627683"><ele>986.8571428571429</ele><time>2026-04-22T12:14:16.54Z</time></trkpt><trkpt lat="44.190315" lon="8.0628267"><ele>986.5714285714287</ele><time>2026-04-22T12:14:19.54Z</time></trkpt><trkpt lat="44.1902617" lon="8.0627733"><ele>986.2857142857142</ele><time>2026-04-22T12:14:24.54Z</time></trkpt><trkpt lat="44.1901933" lon="8.0627667"><ele>986.0</ele><time>2026-04-22T12:14:27.54Z</time></trkpt><trkpt lat="44.1901217" lon="8.0627683"><ele>986.0000000000001</ele><time>2026-04-22T12:14:29.54Z</time></trkpt><trkpt lat="44.1900533" lon="8.0628233"><ele>986.0</ele><time>2026-04-22T12:14:32.54Z</time></trkpt><trkpt lat="44.1900033" lon="8.0629"><ele>986.0</ele><time>2026-04-22T12:14:34.54Z</time></trkpt><trkpt lat="44.1899667" lon="8.0629767"><ele>986.0</ele><time>2026-04-22T12:14:36.539Z</time></trkpt><trkpt lat="44.189915" lon="8.0630683"><ele>986.0000000000001</ele><time>2026-04-22T12:14:38.54Z</time></trkpt><trkpt lat="44.1898417" lon="8.063135"><ele>986.0</ele><time>2026-04-22T12:14:40.54Z</time></trkpt><trkpt lat="44.1897667" lon="8.0631617"><ele>990.8333333333334</ele><time>2026-04-22T12:14:42.54Z</time></trkpt><trkpt lat="44.1897183" lon="8.063085"><ele>995.6666666666667</ele><time>2026-04-22T12:14:45.54Z</time></trkpt><trkpt lat="44.1896667" lon="8.06298"><ele>1000.5</ele><time>2026-04-22T12:14:47.539Z</time></trkpt><trkpt lat="44.1896183" lon="8.0629117"><ele>1005.3333333333333</ele><time>2026-04-22T12:14:48.54Z</time></trkpt><trkpt lat="44.1895583" lon="8.062835"><ele>1010.1666666666666</ele><time>2026-04-22T12:14:49.54Z</time></trkpt><trkpt lat="44.1894883" lon="8.0627367"><ele>1015.0</ele><time>2026-04-22T12:14:50.54Z</time></trkpt><trkpt lat="44.1894183" lon="8.0626517"><ele>1015.0</ele><time>2026-04-22T12:14:51.54Z</time></trkpt><trkpt lat="44.1893433" lon="8.06259"><ele>1015.0</ele><time>2026-04-22T12:14:52.539Z</time></trkpt><trkpt lat="44.18928" lon="8.06255"><ele>1015.0</ele><time>2026-04-22T12:14:53.54Z</time></trkpt><trkpt lat="44.18917" lon="8.0625317"><ele>1015.0</ele><time>2026-04-22T12:14:55.54Z</time></trkpt><trkpt lat="44.18907" lon="8.0625683"><ele>1015.0</ele><time>2026-04-22T12:14:57.539Z</time></trkpt><trkpt lat="44.1889867" lon="8.0626583"><ele>1018.6666666666666</ele><time>2026-04-22T12:14:59.54Z</time></trkpt><trkpt lat="44.1889133" lon="8.0627417"><ele>1022.3333333333333</ele><time>2026-04-22T12:15:01.54Z</time></trkpt><trkpt lat="44.188835" lon="8.0627333"><ele>1026.0</ele><time>2026-04-22T12:15:04.54Z</time></trkpt><trkpt lat="44.1887717" lon="8.0627233"><ele>1029.6666666666667</ele><time>2026-04-22T12:15:06.539Z</time></trkpt><trkpt lat="44.1887067" lon="8.062785"><ele>1033.3333333333335</ele><time>2026-04-22T12:15:10.54Z</time></trkpt><trkpt lat="44.1886383" lon="8.0628433"><ele>1037.0</ele><time>2026-04-22T12:15:13.54Z</time></trkpt><trkpt lat="44.1885683" lon="8.0628433"><ele>1037.0</ele><time>2026-04-22T12:15:15.539Z</time></trkpt><trkpt lat="44.18848" lon="8.062835"><ele>1037.0</ele><time>2026-04-22T12:15:17.54Z</time></trkpt><trkpt lat="44.1883983" lon="8.062815"><ele>1037.0</ele><time>2026-04-22T12:15:19.539Z</time></trkpt><trkpt lat="44.1883017" lon="8.0627717"><ele>1037.0</ele><time>2026-04-22T12:15:21.54Z</time></trkpt><trkpt lat="44.1882033" lon="8.0627133"><ele>1037.0</ele><time>2026-04-22T12:15:23.54Z</time></trkpt><trkpt lat="44.1881267" lon="8.062605"><ele>1042.0</ele><time>2026-04-22T12:15:25.54Z</time></trkpt><trkpt lat="44.1880317" lon="8.0625417"><ele>1047.0</ele><time>2026-04-22T12:15:27.54Z</time></trkpt><trkpt lat="44.1879567" lon="8.0625567"><ele>1052.0</ele><time>2026-04-22T12:15:36.54Z</time></trkpt><trkpt lat="44.1878433" lon="8.0625267"><ele>1057.0</ele><time>2026-04-22T12:15:38.54Z</time></trkpt><trkpt lat="44.1877567" lon="8.062535"><ele>1062.0</ele><time>2026-04-22T12:15:40.54Z</time></trkpt><trkpt lat="44.187825" lon="8.0625567"><ele>1062.0</ele><time>2026-04-22T12:15:55.539Z</time></trkpt><trkpt lat="44.1879083" lon="8.0625483"><ele>1062.0</ele><time>2026-04-22T12:15:57.54Z</time></trkpt><trkpt lat="44.1879183" lon="8.0626817"><ele>1062.0</ele><time>2026-04-22T12:16:01.54Z</time></trkpt><trkpt lat="44.1878533" lon="8.0627967"><ele>1062.0</ele><time>2026-04-22T12:16:03.539Z</time></trkpt><trkpt lat="44.187775" lon="8.0628733"><ele>1062.0</ele><time>2026-04-22T12:16:05.54Z</time></trkpt><trkpt lat="44.1876817" lon="8.06291"><ele>1062.0</ele><time>2026-04-22T12:16:07.54Z</time></trkpt><trkpt lat="44.1876283" lon="8.0629567"><ele>1062.0</ele><time>2026-04-22T12:16:09.54Z</time></trkpt><trkpt lat="44.1876067" lon="8.063055"><ele>1062.0</ele><time>2026-04-22T12:16:11.54Z</time></trkpt><trkpt lat="44.1875933" lon="8.0631433"><ele>1062.0</ele><time>2026-04-22T12:16:22.54Z</time></trkpt><trkpt lat="44.1875183" lon="8.0631733"><ele>1062.0</ele><time>2026-04-22T12:16:24.54Z</time></trkpt><trkpt lat="44.1874483" lon="8.06326"><ele>1062.0</ele><time>2026-04-22T12:16:26.54Z</time></trkpt><trkpt lat="44.1874017" lon="8.0633817"><ele>1061.8333333333333</ele><time>2026-04-22T12:16:28.54Z</time></trkpt><trkpt lat="44.187355" lon="8.0634867"><ele>1061.6666666666667</ele><time>2026-04-22T12:16:30.54Z</time></trkpt><trkpt lat="44.187295" lon="8.06353"><ele>1061.5</ele><time>2026-04-22T12:16:32.54Z</time></trkpt><trkpt lat="44.1872283" lon="8.063565"><ele>1061.3333333333335</ele><time>2026-04-22T12:16:34.54Z</time></trkpt><trkpt lat="44.187165" lon="8.063605"><ele>1061.1666666666667</ele><time>2026-04-22T12:16:36.539Z</time></trkpt><trkpt lat="44.1871" lon="8.0636833"><ele>1061.0</ele><time>2026-04-22T12:16:38.539Z</time></trkpt><trkpt lat="44.1870483" lon="8.0637583"><ele>1064.8333333333335</ele><time>2026-04-22T12:16:40.54Z</time></trkpt><trkpt lat="44.1870133" lon="8.0638667"><ele>1068.6666666666667</ele><time>2026-04-22T12:16:43.54Z</time></trkpt><trkpt lat="44.1869933" lon="8.0639783"><ele>1072.5</ele><time>2026-04-22T12:16:45.54Z</time></trkpt><trkpt lat="44.18697" lon="8.06408"><ele>1076.3333333333333</ele><time>2026-04-22T12:16:47.54Z</time></trkpt><trkpt lat="44.1868917" lon="8.0640833"><ele>1080.1666666666665</ele><time>2026-04-22T12:16:50.54Z</time></trkpt><trkpt lat="44.1868283" lon="8.06414"><ele>1084.0</ele><time>2026-04-22T12:16:53.539Z</time></trkpt><trkpt lat="44.186755" lon="8.0642"><ele>1084.0</ele><time>2026-04-22T12:16:56.54Z</time></trkpt><trkpt lat="44.1866883" lon="8.064195"><ele>1084.0</ele><time>2026-04-22T12:16:59.54Z</time></trkpt><trkpt lat="44.18665" lon="8.0641217"><ele>1084.0</ele><time>2026-04-22T12:17:01.54Z</time></trkpt><trkpt lat="44.1866133" lon="8.064"><ele>1084.0</ele><time>2026-04-22T12:17:03.54Z</time></trkpt><trkpt lat="44.1865883" lon="8.063855"><ele>1084.0</ele><time>2026-04-22T12:17:05.54Z</time></trkpt><trkpt lat="44.1865867" lon="8.06373"><ele>1084.0</ele><time>2026-04-22T12:17:07.54Z</time></trkpt><trkpt lat="44.1865283" lon="8.0636233"><ele>1090.2</ele><time>2026-04-22T12:17:09.54Z</time></trkpt><trkpt lat="44.1864333" lon="8.06357"><ele>1096.4</ele><time>2026-04-22T12:17:11.539Z</time></trkpt><trkpt lat="44.18635" lon="8.0636483"><ele>1102.6</ele><time>2026-04-22T12:17:14.539Z</time></trkpt><trkpt lat="44.186295" lon="8.063805"><ele>1108.8</ele><time>2026-04-22T12:17:16.54Z</time></trkpt><trkpt lat="44.1862683" lon="8.0638967"><ele>1115.0</ele><time>2026-04-22T12:17:17.54Z</time></trkpt><trkpt lat="44.1862067" lon="8.0640417"><ele>1114.0</ele><time>2026-04-22T12:17:19.539Z</time></trkpt><trkpt lat="44.186125" lon="8.0641133"><ele>1113.0</ele><time>2026-04-22T12:17:21.54Z</time></trkpt><trkpt lat="44.1860367" lon="8.0641617"><ele>1112.0</ele><time>2026-04-22T12:17:23.54Z</time></trkpt><trkpt lat="44.185975" lon="8.0642433"><ele>1111.0</ele><time>2026-04-22T12:17:25.54Z</time></trkpt><trkpt lat="44.185915" lon="8.0643783"><ele>1110.0</ele><time>2026-04-22T12:17:27.54Z</time></trkpt><trkpt lat="44.18588" lon="8.0645067"><ele>1110.0</ele><time>2026-04-22T12:17:29.54Z</time></trkpt><trkpt lat="44.18585" lon="8.0646133"><ele>1110.0</ele><time>2026-04-22T12:17:31.54Z</time></trkpt><trkpt lat="44.18579" lon="8.0646633"><ele>1110.0</ele><time>2026-04-22T12:17:34.54Z</time></trkpt><trkpt lat="44.1857383" lon="8.064725"><ele>1110.0</ele><time>2026-04-22T12:17:36.54Z</time></trkpt><trkpt lat="44.1856817" lon="8.06492"><ele>1110.0</ele><time>2026-04-22T12:17:38.539Z</time></trkpt><trkpt lat="44.1856517" lon="8.0650133"><ele>1110.0</ele><time>2026-04-22T12:17:39.539Z</time></trkpt><trkpt lat="44.1856167" lon="8.0650983"><ele>1113.0</ele><time>2026-04-22T12:17:40.54Z</time></trkpt><trkpt lat="44.18557" lon="8.0651617"><ele>1116.0</ele><time>2026-04-22T12:17:41.54Z</time></trkpt><trkpt lat="44.1855117" lon="8.0652333"><ele>1119.0</ele><time>2026-04-22T12:17:42.54Z</time></trkpt><trkpt lat="44.18544" lon="8.0653167"><ele>1122.0</ele><time>2026-04-22T12:17:43.54Z</time></trkpt><trkpt lat="44.185355" lon="8.065385"><ele>1125.0</ele><time>2026-04-22T12:17:44.54Z</time></trkpt><trkpt lat="44.1852683" lon="8.065435"><ele>1128.0</ele><time>2026-04-22T12:17:45.54Z</time></trkpt><trkpt lat="44.1851967" lon="8.0654767"><ele>1128.0</ele><time>2026-04-22T12:17:46.54Z</time></trkpt><trkpt lat="44.1851383" lon="8.06551"><ele>1128.0</ele><time>2026-04-22T12:17:47.54Z</time></trkpt><trkpt lat="44.1850817" lon="8.0655617"><ele>1128.0</ele><time>2026-04-22T12:17:48.54Z</time></trkpt><trkpt lat="44.1849733" lon="8.0656383"><ele>1128.0</ele><time>2026-04-22T12:17:50.54Z</time></trkpt><trkpt lat="44.1848917" lon="8.065765"><ele>1128.0</ele><time>2026-04-22T12:17:52.54Z</time></trkpt><trkpt lat="44.18485" lon="8.0658333"><ele>1128.0</ele><time>2026-04-22T12:17:53.539Z</time></trkpt><trkpt lat="44.1847917" lon="8.0658917"><ele>1124.3333333333333</ele><time>2026-04-22T12:17:54.539Z</time></trkpt><trkpt lat="44.18474" lon="8.0659583"><ele>1120.6666666666667</ele><time>2026-04-22T12:17:55.54Z</time></trkpt><trkpt lat="44.184695" lon="8.066035"><ele>1117.0</ele><time>2026-04-22T12:17:56.54Z</time></trkpt><trkpt lat="44.18465" lon="8.06613"><ele>1113.3333333333335</ele><time>2026-04-22T12:17:57.539Z</time></trkpt><trkpt lat="44.1846083" lon="8.0662233"><ele>1109.6666666666667</ele><time>2026-04-22T12:17:58.54Z</time></trkpt><trkpt lat="44.1845533" lon="8.06631"><ele>1106.0</ele><time>2026-04-22T12:17:59.539Z</time></trkpt><trkpt lat="44.1845033" lon="8.0663867"><ele>1106.0</ele><time>2026-04-22T12:18:00.539Z</time></trkpt><trkpt lat="44.1844567" lon="8.0664683"><ele>1106.0</ele><time>2026-04-22T12:18:01.54Z</time></trkpt><trkpt lat="44.1844133" lon="8.06655"><ele>1106.0</ele><time>2026-04-22T12:18:02.54Z</time></trkpt><trkpt lat="44.1843883" lon="8.0666467"><ele>1106.0</ele><time>2026-04-22T12:18:03.54Z</time></trkpt><trkpt lat="44.1843667" lon="8.0667583"><ele>1106.0</ele><time>2026-04-22T12:18:04.54Z</time></trkpt><trkpt lat="44.18436" lon="8.066855"><ele>1106.0</ele><time>2026-04-22T12:18:05.54Z</time></trkpt><trkpt lat="44.1843383" lon="8.0669533"><ele>1106.0</ele><time>2026-04-22T12:18:06.54Z</time></trkpt><trkpt lat="44.184315" lon="8.0670733"><ele>1105.0</ele><time>2026-04-22T12:18:07.54Z</time></trkpt><trkpt lat="44.184285" lon="8.0671917"><ele>1104.0</ele><time>2026-04-22T12:18:08.54Z</time></trkpt><trkpt lat="44.184255" lon="8.0673033"><ele>1103.0</ele><time>2026-04-22T12:18:09.54Z</time></trkpt><trkpt lat="44.1842233" lon="8.067425"><ele>1102.0</ele><time>2026-04-22T12:18:10.54Z</time></trkpt><trkpt lat="44.184185" lon="8.0675483"><ele>1101.0</ele><time>2026-04-22T12:18:11.54Z</time></trkpt><trkpt lat="44.1841383" lon="8.0676817"><ele>1101.0</ele><time>2026-04-22T12:18:12.539Z</time></trkpt><trkpt lat="44.1840917" lon="8.067805"><ele>1101.0</ele><time>2026-04-22T12:18:13.54Z</time></trkpt><trkpt lat="44.184035" lon="8.0679067"><ele>1101.0</ele><time>2026-04-22T12:18:14.54Z</time></trkpt><trkpt lat="44.1839783" lon="8.0680033"><ele>1101.0</ele><time>2026-04-22T12:18:15.54Z</time></trkpt><trkpt lat="44.1839133" lon="8.0680783"><ele>1101.0</ele><time>2026-04-22T12:18:16.54Z</time></trkpt><trkpt lat="44.1838467" lon="8.0681467"><ele>1101.0</ele><time>2026-04-22T12:18:17.54Z</time></trkpt><trkpt lat="44.1837817" lon="8.0682267"><ele>1096.1666666666667</ele><time>2026-04-22T12:18:18.54Z</time></trkpt><trkpt lat="44.183715" lon="8.06831"><ele>1091.3333333333333</ele><time>2026-04-22T12:18:19.54Z</time></trkpt><trkpt lat="44.1836433" lon="8.0683933"><ele>1086.5</ele><time>2026-04-22T12:18:20.54Z</time></trkpt><trkpt lat="44.1835717" lon="8.068475"><ele>1081.6666666666665</ele><time>2026-04-22T12:18:21.54Z</time></trkpt><trkpt lat="44.1834983" lon="8.0685483"><ele>1076.8333333333333</ele><time>2026-04-22T12:18:22.54Z</time></trkpt><trkpt lat="44.1834367" lon="8.0686167"><ele>1072.0</ele><time>2026-04-22T12:18:23.54Z</time></trkpt><trkpt lat="44.1833667" lon="8.0686867"><ele>1072.0</ele><time>2026-04-22T12:18:24.539Z</time></trkpt><trkpt lat="44.183295" lon="8.0687717"><ele>1072.0</ele><time>2026-04-22T12:18:25.54Z</time></trkpt><trkpt lat="44.1832267" lon="8.06887"><ele>1072.0</ele><time>2026-04-22T12:18:26.54Z</time></trkpt><trkpt lat="44.1831533" lon="8.0689733"><ele>1072.0</ele><time>2026-04-22T12:18:27.54Z</time></trkpt><trkpt lat="44.183105" lon="8.069085"><ele>1072.0</ele><time>2026-04-22T12:18:28.54Z</time></trkpt><trkpt lat="44.1830733" lon="8.06921"><ele>1068.0</ele><time>2026-04-22T12:18:29.54Z</time></trkpt><trkpt lat="44.1830517" lon="8.0693383"><ele>1064.0</ele><time>2026-04-22T12:18:30.539Z</time></trkpt><trkpt lat="44.1830033" lon="8.06943"><ele>1060.0</ele><time>2026-04-22T12:18:31.539Z</time></trkpt><trkpt lat="44.1829617" lon="8.0695317"><ele>1056.0</ele><time>2026-04-22T12:18:32.539Z</time></trkpt><trkpt lat="44.182905" lon="8.0696333"><ele>1052.0</ele><time>2026-04-22T12:18:33.54Z</time></trkpt><trkpt lat="44.182855" lon="8.06973"><ele>1048.0</ele><time>2026-04-22T12:18:34.539Z</time></trkpt><trkpt lat="44.182815" lon="8.0698133"><ele>1048.0</ele><time>2026-04-22T12:18:35.54Z</time></trkpt><trkpt lat="44.182765" lon="8.0698883"><ele>1048.0</ele><time>2026-04-22T12:18:36.54Z</time></trkpt><trkpt lat="44.1826817" lon="8.0699933"><ele>1048.0</ele><time>2026-04-22T12:18:38.54Z</time></trkpt><trkpt lat="44.1826033" lon="8.0701117"><ele>1048.0</ele><time>2026-04-22T12:18:40.54Z</time></trkpt><trkpt lat="44.182565" lon="8.070195"><ele>1048.0</ele><time>2026-04-22T12:18:41.54Z</time></trkpt><trkpt lat="44.182495" lon="8.0702833"><ele>1046.6</ele><time>2026-04-22T12:18:42.539Z</time></trkpt><trkpt lat="44.182435" lon="8.0703833"><ele>1045.1999999999998</ele><time>2026-04-22T12:18:43.54Z</time></trkpt><trkpt lat="44.1823717" lon="8.070485"><ele>1043.8</ele><time>2026-04-22T12:18:44.54Z</time></trkpt><trkpt lat="44.1823217" lon="8.0706117"><ele>1042.3999999999999</ele><time>2026-04-22T12:18:45.54Z</time></trkpt><trkpt lat="44.1822917" lon="8.070755"><ele>1041.0</ele><time>2026-04-22T12:18:46.54Z</time></trkpt><trkpt lat="44.1822883" lon="8.070875"><ele>1041.0</ele><time>2026-04-22T12:18:47.54Z</time></trkpt><trkpt lat="44.1823117" lon="8.0709833"><ele>1041.0</ele><time>2026-04-22T12:18:48.54Z</time></trkpt><trkpt lat="44.1823483" lon="8.0711"><ele>1041.0</ele><time>2026-04-22T12:18:49.54Z</time></trkpt><trkpt lat="44.182395" lon="8.0712183"><ele>1041.0</ele><time>2026-04-22T12:18:50.54Z</time></trkpt><trkpt lat="44.182465" lon="8.0713217"><ele>1041.0</ele><time>2026-04-22T12:18:51.539Z</time></trkpt><trkpt lat="44.182545" lon="8.0714383"><ele>1048.5</ele><time>2026-04-22T12:18:52.54Z</time></trkpt><trkpt lat="44.1826183" lon="8.0715433"><ele>1056.0</ele><time>2026-04-22T12:18:53.54Z</time></trkpt><trkpt lat="44.1827067" lon="8.071645"><ele>1063.5</ele><time>2026-04-22T12:18:54.54Z</time></trkpt><trkpt lat="44.1827933" lon="8.071755"><ele>1071.0</ele><time>2026-04-22T12:18:55.54Z</time></trkpt><trkpt lat="44.1828667" lon="8.0718917"><ele>1071.0</ele><time>2026-04-22T12:18:56.54Z</time></trkpt><trkpt lat="44.182935" lon="8.072035"><ele>1071.0</ele><time>2026-04-22T12:18:57.54Z</time></trkpt><trkpt lat="44.1829817" lon="8.0722033"><ele>1071.0</ele><time>2026-04-22T12:18:58.54Z</time></trkpt><trkpt lat="44.1830033" lon="8.0723883"><ele>1071.0</ele><time>2026-04-22T12:18:59.54Z</time></trkpt><trkpt lat="44.1830067" lon="8.0725867"><ele>1070.5</ele><time>2026-04-22T12:19:00.539Z</time></trkpt><trkpt lat="44.182995" lon="8.0727617"><ele>1070.0</ele><time>2026-04-22T12:19:01.54Z</time></trkpt><trkpt lat="44.1829583" lon="8.0729433"><ele>1069.5</ele><time>2026-04-22T12:19:02.539Z</time></trkpt><trkpt lat="44.182905" lon="8.0731333"><ele>1069.0</ele><time>2026-04-22T12:19:03.54Z</time></trkpt><trkpt lat="44.182865" lon="8.0733033"><ele>1069.0</ele><time>2026-04-22T12:19:04.54Z</time></trkpt><trkpt lat="44.1828383" lon="8.0734733"><ele>1069.0</ele><time>2026-04-22T12:19:05.539Z</time></trkpt><trkpt lat="44.1828167" lon="8.07363"><ele>1069.0</ele><time>2026-04-22T12:19:06.539Z</time></trkpt><trkpt lat="44.1827883" lon="8.0737817"><ele>1069.0</ele><time>2026-04-22T12:19:07.54Z</time></trkpt><trkpt lat="44.1827583" lon="8.0739233"><ele>1069.0</ele><time>2026-04-22T12:19:09.54Z</time></trkpt><trkpt lat="44.1827183" lon="8.074045"><ele>1069.0</ele><time>2026-04-22T12:19:29.539Z</time></trkpt><trkpt lat="44.182675" lon="8.0741667"><ele>1069.0</ele><time>2026-04-22T12:19:31.539Z</time></trkpt><trkpt lat="44.1826417" lon="8.07426"><ele>1069.0</ele><time>2026-04-22T12:19:32.54Z</time></trkpt><trkpt lat="44.18261" lon="8.0743617"><ele>1069.0</ele><time>2026-04-22T12:19:33.54Z</time></trkpt><trkpt lat="44.182575" lon="8.0744633"><ele>1069.0</ele><time>2026-04-22T12:19:34.54Z</time></trkpt><trkpt lat="44.1825483" lon="8.074555"><ele>1071.5</ele><time>2026-04-22T12:19:35.54Z</time></trkpt><trkpt lat="44.1825267" lon="8.0746383"><ele>1074.0</ele><time>2026-04-22T12:19:36.54Z</time></trkpt><trkpt lat="44.1824783" lon="8.074805"><ele>1076.5</ele><time>2026-04-22T12:19:38.54Z</time></trkpt><trkpt lat="44.18245" lon="8.0749517"><ele>1079.0</ele><time>2026-04-22T12:19:39.54Z</time></trkpt><trkpt lat="44.18242" lon="8.075155"><ele>1074.0</ele><time>2026-04-22T12:19:40.539Z</time></trkpt><trkpt lat="44.1823833" lon="8.07538"><ele>1069.0</ele><time>2026-04-22T12:19:41.54Z</time></trkpt><trkpt lat="44.182345" lon="8.075585"><ele>1064.0</ele><time>2026-04-22T12:19:42.54Z</time></trkpt><trkpt lat="44.1823167" lon="8.0757867"><ele>1064.0</ele><time>2026-04-22T12:19:43.539Z</time></trkpt><trkpt lat="44.18229" lon="8.0759767"><ele>1064.0</ele><time>2026-04-22T12:19:44.539Z</time></trkpt><trkpt lat="44.1822567" lon="8.0761367"><ele>1064.0</ele><time>2026-04-22T12:19:45.54Z</time></trkpt><trkpt lat="44.182235" lon="8.0762883"><ele>1064.0</ele><time>2026-04-22T12:19:46.539Z</time></trkpt><trkpt lat="44.1822117" lon="8.0764233"><ele>1064.0</ele><time>2026-04-22T12:19:47.539Z</time></trkpt><trkpt lat="44.1821967" lon="8.07655"><ele>1064.0</ele><time>2026-04-22T12:19:48.54Z</time></trkpt><trkpt lat="44.1821933" lon="8.076675"><ele>1064.0</ele><time>2026-04-22T12:19:49.54Z</time></trkpt><trkpt lat="44.1822" lon="8.0767967"><ele>1064.0</ele><time>2026-04-22T12:19:50.54Z</time></trkpt><trkpt lat="44.1822" lon="8.0769167"><ele>1064.0</ele><time>2026-04-22T12:19:51.54Z</time></trkpt><trkpt lat="44.1821817" lon="8.0770333"><ele>1064.0</ele><time>2026-04-22T12:19:52.54Z</time></trkpt><trkpt lat="44.182165" lon="8.0771433"><ele>1064.8</ele><time>2026-04-22T12:19:53.54Z</time></trkpt><trkpt lat="44.1821333" lon="8.07726"><ele>1065.6000000000001</ele><time>2026-04-22T12:19:54.54Z</time></trkpt><trkpt lat="44.1820983" lon="8.0773783"><ele>1066.4</ele><time>2026-04-22T12:19:55.54Z</time></trkpt><trkpt lat="44.1820383" lon="8.0774967"><ele>1067.2</ele><time>2026-04-22T12:19:56.54Z</time></trkpt><trkpt lat="44.18197" lon="8.07763"><ele>1068.0</ele><time>2026-04-22T12:19:57.54Z</time></trkpt><trkpt lat="44.1818917" lon="8.0777567"><ele>1067.5</ele><time>2026-04-22T12:19:58.54Z</time></trkpt><trkpt lat="44.1818083" lon="8.0778883"><ele>1067.0</ele><time>2026-04-22T12:19:59.54Z</time></trkpt><trkpt lat="44.1817083" lon="8.07802"><ele>1066.5</ele><time>2026-04-22T12:20:00.54Z</time></trkpt><trkpt lat="44.1816117" lon="8.07813"><ele>1066.0</ele><time>2026-04-22T12:20:01.54Z</time></trkpt><trkpt lat="44.181515" lon="8.0782133"><ele>1070.8</ele><time>2026-04-22T12:20:02.54Z</time></trkpt><trkpt lat="44.1814267" lon="8.0782983"><ele>1075.6</ele><time>2026-04-22T12:20:03.54Z</time></trkpt><trkpt lat="44.1813517" lon="8.078375"><ele>1080.4</ele><time>2026-04-22T12:20:04.54Z</time></trkpt><trkpt lat="44.1812867" lon="8.07847"><ele>1085.2</ele><time>2026-04-22T12:20:05.54Z</time></trkpt><trkpt lat="44.1812317" lon="8.0785633"><ele>1090.0</ele><time>2026-04-22T12:20:06.54Z</time></trkpt><trkpt lat="44.1811867" lon="8.0786517"><ele>1090.0</ele><time>2026-04-22T12:20:07.54Z</time></trkpt><trkpt lat="44.181145" lon="8.0787183"><ele>1090.0</ele><time>2026-04-22T12:20:08.54Z</time></trkpt><trkpt lat="44.1811067" lon="8.0787883"><ele>1090.0</ele><time>2026-04-22T12:20:09.54Z</time></trkpt><trkpt lat="44.1810633" lon="8.0788783"><ele>1090.0</ele><time>2026-04-22T12:20:10.54Z</time></trkpt><trkpt lat="44.1810117" lon="8.0789683"><ele>1090.0</ele><time>2026-04-22T12:20:11.54Z</time></trkpt><trkpt lat="44.1809417" lon="8.0790633"><ele>1090.0</ele><time>2026-04-22T12:20:12.539Z</time></trkpt><trkpt lat="44.1808733" lon="8.0791417"><ele>1088.8333333333333</ele><time>2026-04-22T12:20:13.54Z</time></trkpt><trkpt lat="44.1808383" lon="8.0792283"><ele>1087.6666666666665</ele><time>2026-04-22T12:20:14.539Z</time></trkpt><trkpt lat="44.180775" lon="8.0793717"><ele>1086.5</ele><time>2026-04-22T12:20:16.54Z</time></trkpt><trkpt lat="44.1807367" lon="8.0794483"><ele>1085.3333333333333</ele><time>2026-04-22T12:20:17.54Z</time></trkpt><trkpt lat="44.1806883" lon="8.0795267"><ele>1084.1666666666667</ele><time>2026-04-22T12:20:18.54Z</time></trkpt><trkpt lat="44.18064" lon="8.07965"><ele>1083.0</ele><time>2026-04-22T12:20:19.539Z</time></trkpt><trkpt lat="44.1805783" lon="8.0797883"><ele>1083.0</ele><time>2026-04-22T12:20:20.54Z</time></trkpt><trkpt lat="44.1805117" lon="8.0799267"><ele>1083.0</ele><time>2026-04-22T12:20:21.54Z</time></trkpt><trkpt lat="44.1804367" lon="8.0800817"><ele>1083.0</ele><time>2026-04-22T12:20:22.54Z</time></trkpt><trkpt lat="44.180365" lon="8.080245"><ele>1083.0</ele><time>2026-04-22T12:20:23.54Z</time></trkpt><trkpt lat="44.1803" lon="8.0804083"><ele>1085.0</ele><time>2026-04-22T12:20:24.539Z</time></trkpt><trkpt lat="44.1802433" lon="8.0805717"><ele>1087.0</ele><time>2026-04-22T12:20:25.54Z</time></trkpt><trkpt lat="44.180185" lon="8.080735"><ele>1089.0</ele><time>2026-04-22T12:20:26.54Z</time></trkpt><trkpt lat="44.18014" lon="8.080905"><ele>1091.0</ele><time>2026-04-22T12:20:27.54Z</time></trkpt><trkpt lat="44.1800933" lon="8.081065"><ele>1091.1666666666667</ele><time>2026-04-22T12:20:28.54Z</time></trkpt><trkpt lat="44.1800617" lon="8.0811983"><ele>1091.3333333333335</ele><time>2026-04-22T12:20:29.54Z</time></trkpt><trkpt lat="44.18002" lon="8.0812967"><ele>1091.5</ele><time>2026-04-22T12:20:30.54Z</time></trkpt><trkpt lat="44.1799817" lon="8.0813717"><ele>1091.6666666666667</ele><time>2026-04-22T12:20:31.539Z</time></trkpt><trkpt lat="44.1799433" lon="8.08147"><ele>1091.8333333333333</ele><time>2026-04-22T12:20:33.54Z</time></trkpt><trkpt lat="44.17988" lon="8.0816017"><ele>1092.0</ele><time>2026-04-22T12:20:35.539Z</time></trkpt><trkpt lat="44.179825" lon="8.0816633"><ele>1091.6666666666667</ele><time>2026-04-22T12:20:36.54Z</time></trkpt><trkpt lat="44.1797317" lon="8.081705"><ele>1091.3333333333333</ele><time>2026-04-22T12:20:37.54Z</time></trkpt><trkpt lat="44.17964" lon="8.08174"><ele>1091.0</ele><time>2026-04-22T12:20:38.54Z</time></trkpt><trkpt lat="44.1795617" lon="8.081785"><ele>1090.6666666666665</ele><time>2026-04-22T12:20:39.54Z</time></trkpt><trkpt lat="44.17948" lon="8.0818333"><ele>1090.3333333333333</ele><time>2026-04-22T12:20:40.539Z</time></trkpt><trkpt lat="44.1794067" lon="8.0818817"><ele>1090.0</ele><time>2026-04-22T12:20:41.54Z</time></trkpt><trkpt lat="44.1793367" lon="8.0819333"><ele>1090.0</ele><time>2026-04-22T12:20:42.539Z</time></trkpt><trkpt lat="44.1792733" lon="8.0819833"><ele>1090.0</ele><time>2026-04-22T12:20:43.539Z</time></trkpt><trkpt lat="44.1792133" lon="8.0820383"><ele>1090.0</ele><time>2026-04-22T12:20:44.54Z</time></trkpt><trkpt lat="44.1791617" lon="8.082105"><ele>1090.0</ele><time>2026-04-22T12:20:45.54Z</time></trkpt><trkpt lat="44.179115" lon="8.0821717"><ele>1090.0</ele><time>2026-04-22T12:20:46.539Z</time></trkpt><trkpt lat="44.1790717" lon="8.0822417"><ele>1090.0</ele><time>2026-04-22T12:20:47.54Z</time></trkpt><trkpt lat="44.179005" lon="8.0823567"><ele>1087.4285714285716</ele><time>2026-04-22T12:20:49.54Z</time></trkpt><trkpt lat="44.1789617" lon="8.0824333"><ele>1084.857142857143</ele><time>2026-04-22T12:20:51.54Z</time></trkpt><trkpt lat="44.178925" lon="8.08252"><ele>1082.2857142857142</ele><time>2026-04-22T12:20:54.54Z</time></trkpt><trkpt lat="44.1789167" lon="8.08263"><ele>1079.7142857142858</ele><time>2026-04-22T12:20:56.54Z</time></trkpt><trkpt lat="44.1788833" lon="8.0827117"><ele>1077.142857142857</ele><time>2026-04-22T12:20:58.54Z</time></trkpt><trkpt lat="44.1788233" lon="8.0827617"><ele>1074.5714285714287</ele><time>2026-04-22T12:21:00.54Z</time></trkpt><trkpt lat="44.178755" lon="8.082835"><ele>1072.0</ele><time>2026-04-22T12:21:01.54Z</time></trkpt><trkpt lat="44.1786783" lon="8.082925"><ele>1072.0</ele><time>2026-04-22T12:21:02.54Z</time></trkpt><trkpt lat="44.1786117" lon="8.0829967"><ele>1072.0</ele><time>2026-04-22T12:21:03.54Z</time></trkpt><trkpt lat="44.1785417" lon="8.0830683"><ele>1072.0</ele><time>2026-04-22T12:21:04.54Z</time></trkpt><trkpt lat="44.1784667" lon="8.0831533"><ele>1072.0</ele><time>2026-04-22T12:21:05.539Z</time></trkpt><trkpt lat="44.1783817" lon="8.083255"><ele>1072.0</ele><time>2026-04-22T12:21:06.539Z</time></trkpt><trkpt lat="44.1782933" lon="8.08334"><ele>1073.8333333333333</ele><time>2026-04-22T12:21:07.54Z</time></trkpt><trkpt lat="44.1782317" lon="8.083415"><ele>1075.6666666666665</ele><time>2026-04-22T12:21:08.54Z</time></trkpt><trkpt lat="44.1781633" lon="8.08351"><ele>1077.5</ele><time>2026-04-22T12:21:09.539Z</time></trkpt><trkpt lat="44.17811" lon="8.0836"><ele>1079.3333333333333</ele><time>2026-04-22T12:21:10.54Z</time></trkpt><trkpt lat="44.178065" lon="8.0836883"><ele>1081.1666666666667</ele><time>2026-04-22T12:21:11.54Z</time></trkpt><trkpt lat="44.1780267" lon="8.08376"><ele>1083.0</ele><time>2026-04-22T12:21:12.539Z</time></trkpt><trkpt lat="44.177995" lon="8.083855"><ele>1078.8</ele><time>2026-04-22T12:21:13.54Z</time></trkpt><trkpt lat="44.1779433" lon="8.084005"><ele>1074.6</ele><time>2026-04-22T12:21:15.539Z</time></trkpt><trkpt lat="44.1778983" lon="8.084135"><ele>1070.4</ele><time>2026-04-22T12:21:17.539Z</time></trkpt><trkpt lat="44.1778683" lon="8.0842617"><ele>1066.2</ele><time>2026-04-22T12:21:19.54Z</time></trkpt><trkpt lat="44.17783" lon="8.0844033"><ele>1062.0</ele><time>2026-04-22T12:21:21.54Z</time></trkpt><trkpt lat="44.1777733" lon="8.0845067"><ele>1062.0</ele><time>2026-04-22T12:21:23.54Z</time></trkpt><trkpt lat="44.177725" lon="8.0845833"><ele>1062.0</ele><time>2026-04-22T12:21:25.54Z</time></trkpt><trkpt lat="44.177675" lon="8.0846483"><ele>1062.0</ele><time>2026-04-22T12:21:27.539Z</time></trkpt><trkpt lat="44.1776167" lon="8.08472"><ele>1062.0</ele><time>2026-04-22T12:21:29.539Z</time></trkpt><trkpt lat="44.1775717" lon="8.084805"><ele>1062.0</ele><time>2026-04-22T12:21:31.54Z</time></trkpt><trkpt lat="44.177545" lon="8.0849117"><ele>1062.0</ele><time>2026-04-22T12:21:33.54Z</time></trkpt><trkpt lat="44.177525" lon="8.085045"><ele>1063.25</ele><time>2026-04-22T12:21:35.54Z</time></trkpt><trkpt lat="44.17749" lon="8.085275"><ele>1064.5</ele><time>2026-04-22T12:21:42.54Z</time></trkpt><trkpt lat="44.1774833" lon="8.0854083"><ele>1065.75</ele><time>2026-04-22T12:21:44.54Z</time></trkpt><trkpt lat="44.1774617" lon="8.085545"><ele>1067.0</ele><time>2026-04-22T12:21:46.54Z</time></trkpt><trkpt lat="44.1774167" lon="8.0856967"><ele>1066.8</ele><time>2026-04-22T12:21:48.54Z</time></trkpt><trkpt lat="44.17738" lon="8.0857817"><ele>1066.6</ele><time>2026-04-22T12:21:49.54Z</time></trkpt><trkpt lat="44.1773167" lon="8.0859117"><ele>1066.3999999999999</ele><time>2026-04-22T12:21:51.54Z</time></trkpt><trkpt lat="44.17725" lon="8.08601"><ele>1066.2</ele><time>2026-04-22T12:21:53.54Z</time></trkpt><trkpt lat="44.1771583" lon="8.0861367"><ele>1066.0</ele><time>2026-04-22T12:21:55.539Z</time></trkpt><trkpt lat="44.17712" lon="8.086215"><ele>1062.0</ele><time>2026-04-22T12:21:56.54Z</time></trkpt><trkpt lat="44.17707" lon="8.08639"><ele>1058.0</ele><time>2026-04-22T12:21:58.54Z</time></trkpt><trkpt lat="44.1770483" lon="8.08648"><ele>1054.0</ele><time>2026-04-22T12:21:59.539Z</time></trkpt><trkpt lat="44.1770133" lon="8.0866083"><ele>1050.0</ele><time>2026-04-22T12:22:01.54Z</time></trkpt><trkpt lat="44.1769733" lon="8.0867267"><ele>1046.0</ele><time>2026-04-22T12:22:03.54Z</time></trkpt><trkpt lat="44.1769067" lon="8.08688"><ele>1046.0</ele><time>2026-04-22T12:22:05.54Z</time></trkpt><trkpt lat="44.176845" lon="8.0870183"><ele>1046.0</ele><time>2026-04-22T12:22:07.539Z</time></trkpt><trkpt lat="44.1767767" lon="8.0871433"><ele>1046.0</ele><time>2026-04-22T12:22:09.54Z</time></trkpt><trkpt lat="44.1767033" lon="8.0872333"><ele>1046.0</ele><time>2026-04-22T12:22:11.541Z</time></trkpt><trkpt lat="44.1766233" lon="8.087355"><ele>1046.0</ele><time>2026-04-22T12:22:15.54Z</time></trkpt><trkpt lat="44.1765617" lon="8.0874517"><ele>1041.8</ele><time>2026-04-22T12:22:17.54Z</time></trkpt><trkpt lat="44.1764733" lon="8.0875567"><ele>1037.6</ele><time>2026-04-22T12:22:19.541Z</time></trkpt><trkpt lat="44.17642" lon="8.08762"><ele>1033.4</ele><time>2026-04-22T12:22:20.541Z</time></trkpt><trkpt lat="44.1763267" lon="8.0877217"><ele>1029.2</ele><time>2026-04-22T12:22:22.541Z</time></trkpt><trkpt lat="44.17624" lon="8.0878117"><ele>1025.0</ele><time>2026-04-22T12:22:24.541Z</time></trkpt><trkpt lat="44.1761667" lon="8.087895"><ele>1025.0</ele><time>2026-04-22T12:22:26.541Z</time></trkpt><trkpt lat="44.1760983" lon="8.087975"><ele>1025.0</ele><time>2026-04-22T12:22:28.541Z</time></trkpt><trkpt lat="44.1760183" lon="8.0880583"><ele>1025.0</ele><time>2026-04-22T12:22:30.541Z</time></trkpt><trkpt lat="44.1759483" lon="8.08816"><ele>1025.0</ele><time>2026-04-22T12:22:32.54Z</time></trkpt><trkpt lat="44.1758867" lon="8.0882767"><ele>1025.0</ele><time>2026-04-22T12:22:34.541Z</time></trkpt><trkpt lat="44.1758483" lon="8.0884017"><ele>1026.6</ele><time>2026-04-22T12:22:36.541Z</time></trkpt><trkpt lat="44.175795" lon="8.088495"><ele>1028.2</ele><time>2026-04-22T12:22:38.541Z</time></trkpt><trkpt lat="44.17571" lon="8.088615"><ele>1029.8</ele><time>2026-04-22T12:22:40.541Z</time></trkpt><trkpt lat="44.17564" lon="8.088715"><ele>1031.4</ele><time>2026-04-22T12:22:42.541Z</time></trkpt><trkpt lat="44.1755883" lon="8.0887867"><ele>1033.0</ele><time>2026-04-22T12:22:43.541Z</time></trkpt><trkpt lat="44.1755183" lon="8.08889"><ele>1029.4</ele><time>2026-04-22T12:22:45.541Z</time></trkpt><trkpt lat="44.1754683" lon="8.0889833"><ele>1025.8</ele><time>2026-04-22T12:22:47.54Z</time></trkpt><trkpt lat="44.17542" lon="8.0891233"><ele>1022.2</ele><time>2026-04-22T12:22:49.541Z</time></trkpt><trkpt lat="44.1753717" lon="8.089275"><ele>1018.6</ele><time>2026-04-22T12:22:51.541Z</time></trkpt><trkpt lat="44.1753467" lon="8.0894383"><ele>1015.0</ele><time>2026-04-22T12:22:53.54Z</time></trkpt><trkpt lat="44.1753483" lon="8.0895767"><ele>1014.9999999999999</ele><time>2026-04-22T12:22:55.54Z</time></trkpt><trkpt lat="44.1753683" lon="8.0896767"><ele>1015.0</ele><time>2026-04-22T12:22:57.541Z</time></trkpt><trkpt lat="44.1754017" lon="8.0897933"><ele>1015.0</ele><time>2026-04-22T12:22:59.541Z</time></trkpt><trkpt lat="44.1754417" lon="8.08992"><ele>1015.0</ele><time>2026-04-22T12:23:01.541Z</time></trkpt><trkpt lat="44.175485" lon="8.09003"><ele>1014.9999999999999</ele><time>2026-04-22T12:23:03.541Z</time></trkpt><trkpt lat="44.1755317" lon="8.0901133"><ele>1015.0</ele><time>2026-04-22T12:23:05.541Z</time></trkpt><trkpt lat="44.175605" lon="8.0901683"><ele>1016.2</ele><time>2026-04-22T12:23:07.541Z</time></trkpt><trkpt lat="44.17567" lon="8.090275"><ele>1017.4</ele><time>2026-04-22T12:23:09.54Z</time></trkpt><trkpt lat="44.175715" lon="8.0904267"><ele>1018.5999999999999</ele><time>2026-04-22T12:23:11.541Z</time></trkpt><trkpt lat="44.175745" lon="8.0905633"><ele>1019.8</ele><time>2026-04-22T12:23:13.541Z</time></trkpt><trkpt lat="44.175825" lon="8.0906433"><ele>1021.0</ele><time>2026-04-22T12:23:16.541Z</time></trkpt><trkpt lat="44.1758917" lon="8.0906917"><ele>1022.0</ele><time>2026-04-22T12:23:18.541Z</time></trkpt><trkpt lat="44.17595" lon="8.0907417"><ele>1022.9999999999999</ele><time>2026-04-22T12:23:20.541Z</time></trkpt><trkpt lat="44.1760167" lon="8.090845"><ele>1023.9999999999999</ele><time>2026-04-22T12:23:32.54Z</time></trkpt><trkpt lat="44.1760883" lon="8.09093"><ele>1025.0</ele><time>2026-04-22T12:23:34.541Z</time></trkpt><trkpt lat="44.176175" lon="8.0910333"><ele>1026.0</ele><time>2026-04-22T12:23:36.541Z</time></trkpt><trkpt lat="44.1762583" lon="8.0911167"><ele>1026.0</ele><time>2026-04-22T12:23:38.541Z</time></trkpt><trkpt lat="44.1762" lon="8.091055"><ele>1026.0</ele><time>2026-04-22T12:23:46.541Z</time></trkpt><trkpt lat="44.1760967" lon="8.0909167"><ele>1026.0</ele><time>2026-04-22T12:24:11.541Z</time></trkpt><trkpt lat="44.1760033" lon="8.090835"><ele>1026.0</ele><time>2026-04-22T12:25:20.541Z</time></trkpt><trkpt lat="44.1759317" lon="8.0907433"><ele>1026.0</ele><time>2026-04-22T12:25:23.541Z</time></trkpt><trkpt lat="44.17588" lon="8.0906883"><ele>1026.3333333333333</ele><time>2026-04-22T12:25:25.541Z</time></trkpt><trkpt lat="44.1758267" lon="8.0906283"><ele>1026.6666666666667</ele><time>2026-04-22T12:25:27.541Z</time></trkpt><trkpt lat="44.17576" lon="8.0905317"><ele>1027.0</ele><time>2026-04-22T12:25:30.541Z</time></trkpt><trkpt lat="44.175725" lon="8.0904583"><ele>1027.3333333333335</ele><time>2026-04-22T12:25:41.541Z</time></trkpt><trkpt lat="44.1756783" lon="8.0903683"><ele>1027.6666666666667</ele><time>2026-04-22T12:25:51.54Z</time></trkpt><trkpt lat="44.1756233" lon="8.0902783"><ele>1028.0</ele><time>2026-04-22T12:25:53.541Z</time></trkpt><trkpt lat="44.1755333" lon="8.09016"><ele>1026.6</ele><time>2026-04-22T12:25:55.541Z</time></trkpt><trkpt lat="44.1754917" lon="8.0900917"><ele>1025.1999999999998</ele><time>2026-04-22T12:25:56.541Z</time></trkpt><trkpt lat="44.1754233" lon="8.0899717"><ele>1023.8</ele><time>2026-04-22T12:25:58.541Z</time></trkpt><trkpt lat="44.175365" lon="8.0898883"><ele>1022.4</ele><time>2026-04-22T12:26:00.541Z</time></trkpt><trkpt lat="44.1752883" lon="8.0899683"><ele>1021.0</ele><time>2026-04-22T12:26:03.541Z</time></trkpt><trkpt lat="44.1752483" lon="8.09011"><ele>1020.9999999999999</ele><time>2026-04-22T12:26:05.54Z</time></trkpt><trkpt lat="44.1752283" lon="8.0901983"><ele>1021.0</ele><time>2026-04-22T12:26:06.541Z</time></trkpt><trkpt lat="44.1752083" lon="8.0902933"><ele>1021.0</ele><time>2026-04-22T12:26:07.541Z</time></trkpt><trkpt lat="44.175185" lon="8.0904"><ele>1021.0</ele><time>2026-04-22T12:26:08.541Z</time></trkpt><trkpt lat="44.1751767" lon="8.0905333"><ele>1020.9999999999999</ele><time>2026-04-22T12:26:09.541Z</time></trkpt><trkpt lat="44.1751617" lon="8.0906833"><ele>1021.0</ele><time>2026-04-22T12:26:10.541Z</time></trkpt><trkpt lat="44.17515" lon="8.0908383"><ele>1020.8</ele><time>2026-04-22T12:26:11.54Z</time></trkpt><trkpt lat="44.1751333" lon="8.0909667"><ele>1020.5999999999999</ele><time>2026-04-22T12:26:12.541Z</time></trkpt><trkpt lat="44.1751383" lon="8.0911033"><ele>1020.4</ele><time>2026-04-22T12:26:13.541Z</time></trkpt><trkpt lat="44.17514" lon="8.0912317"><ele>1020.2</ele><time>2026-04-22T12:26:14.541Z</time></trkpt><trkpt lat="44.17515" lon="8.09134"><ele>1020.0</ele><time>2026-04-22T12:26:15.541Z</time></trkpt><trkpt lat="44.175155" lon="8.0914667"><ele>1021.5</ele><time>2026-04-22T12:26:16.54Z</time></trkpt><trkpt lat="44.175165" lon="8.0916183"><ele>1023.0</ele><time>2026-04-22T12:26:17.541Z</time></trkpt><trkpt lat="44.1751817" lon="8.0917867"><ele>1024.5</ele><time>2026-04-22T12:26:18.541Z</time></trkpt><trkpt lat="44.1752083" lon="8.0919633"><ele>1026.0</ele><time>2026-04-22T12:26:19.541Z</time></trkpt><trkpt lat="44.17524" lon="8.0921117"><ele>1026.0</ele><time>2026-04-22T12:26:20.54Z</time></trkpt><trkpt lat="44.17525" lon="8.0922283"><ele>1026.0</ele><time>2026-04-22T12:26:21.54Z</time></trkpt><trkpt lat="44.17524" lon="8.09236"><ele>1026.0</ele><time>2026-04-22T12:26:23.541Z</time></trkpt><trkpt lat="44.175145" lon="8.09242"><ele>1026.0</ele><time>2026-04-22T12:26:25.541Z</time></trkpt><trkpt lat="44.1750617" lon="8.0924433"><ele>1026.0</ele><time>2026-04-22T12:26:26.541Z</time></trkpt><trkpt lat="44.1749567" lon="8.0924817"><ele>1027.75</ele><time>2026-04-22T12:26:27.541Z</time></trkpt><trkpt lat="44.17483" lon="8.0925267"><ele>1029.5</ele><time>2026-04-22T12:26:28.541Z</time></trkpt><trkpt lat="44.1746933" lon="8.092595"><ele>1031.25</ele><time>2026-04-22T12:26:29.541Z</time></trkpt><trkpt lat="44.1745967" lon="8.0926683"><ele>1033.0</ele><time>2026-04-22T12:26:30.541Z</time></trkpt><trkpt lat="44.1745367" lon="8.0927433"><ele>1033.0</ele><time>2026-04-22T12:26:31.54Z</time></trkpt><trkpt lat="44.1744833" lon="8.0928267"><ele>1033.0</ele><time>2026-04-22T12:26:32.54Z</time></trkpt><trkpt lat="44.174455" lon="8.09291"><ele>1033.0</ele><time>2026-04-22T12:26:33.541Z</time></trkpt><trkpt lat="44.17441" lon="8.09304"><ele>1033.0</ele><time>2026-04-22T12:26:35.541Z</time></trkpt><trkpt lat="44.174305" lon="8.093055"><ele>1033.0</ele><time>2026-04-22T12:26:37.541Z</time></trkpt><trkpt lat="44.174225" lon="8.0930267"><ele>1033.0</ele><time>2026-04-22T12:26:38.541Z</time></trkpt><trkpt lat="44.1741417" lon="8.0930183"><ele>1033.0</ele><time>2026-04-22T12:26:39.541Z</time></trkpt><trkpt lat="44.17404" lon="8.093035"><ele>1033.0</ele><time>2026-04-22T12:26:40.541Z</time></trkpt><trkpt lat="44.17393" lon="8.0930867"><ele>1033.0</ele><time>2026-04-22T12:26:41.541Z</time></trkpt><trkpt lat="44.1737917" lon="8.0931783"><ele>1033.0</ele><time>2026-04-22T12:26:42.541Z</time></trkpt><trkpt lat="44.1736667" lon="8.093265"><ele>1038.75</ele><time>2026-04-22T12:26:43.541Z</time></trkpt><trkpt lat="44.17355" lon="8.093355"><ele>1044.5</ele><time>2026-04-22T12:26:44.541Z</time></trkpt><trkpt lat="44.1734433" lon="8.093405"><ele>1050.25</ele><time>2026-04-22T12:26:45.54Z</time></trkpt><trkpt lat="44.1733367" lon="8.0934367"><ele>1056.0</ele><time>2026-04-22T12:26:46.54Z</time></trkpt><trkpt lat="44.1732317" lon="8.0934733"><ele>1054.3999999999999</ele><time>2026-04-22T12:26:47.541Z</time></trkpt><trkpt lat="44.1731333" lon="8.0935233"><ele>1052.8</ele><time>2026-04-22T12:26:48.54Z</time></trkpt><trkpt lat="44.1730467" lon="8.0936117"><ele>1051.1999999999998</ele><time>2026-04-22T12:26:49.541Z</time></trkpt><trkpt lat="44.1729683" lon="8.0937217"><ele>1049.6</ele><time>2026-04-22T12:26:50.541Z</time></trkpt><trkpt lat="44.1729017" lon="8.0938617"><ele>1048.0</ele><time>2026-04-22T12:26:51.541Z</time></trkpt><trkpt lat="44.1728417" lon="8.0939833"><ele>1053.2</ele><time>2026-04-22T12:26:52.54Z</time></trkpt><trkpt lat="44.1727933" lon="8.0940917"><ele>1058.4</ele><time>2026-04-22T12:26:53.54Z</time></trkpt><trkpt lat="44.17274" lon="8.0941617"><ele>1063.6000000000001</ele><time>2026-04-22T12:26:54.541Z</time></trkpt><trkpt lat="44.1726217" lon="8.094215"><ele>1068.8</ele><time>2026-04-22T12:26:56.54Z</time></trkpt><trkpt lat="44.1725283" lon="8.0942267"><ele>1074.0</ele><time>2026-04-22T12:26:57.541Z</time></trkpt><trkpt lat="44.1724133" lon="8.094235"><ele>1072.8</ele><time>2026-04-22T12:26:58.541Z</time></trkpt><trkpt lat="44.1723" lon="8.094265"><ele>1071.6000000000001</ele><time>2026-04-22T12:26:59.541Z</time></trkpt><trkpt lat="44.1721917" lon="8.0943117"><ele>1070.4</ele><time>2026-04-22T12:27:00.541Z</time></trkpt><trkpt lat="44.1720883" lon="8.0943417"><ele>1069.2</ele><time>2026-04-22T12:27:01.541Z</time></trkpt><trkpt lat="44.1719867" lon="8.09437"><ele>1068.0</ele><time>2026-04-22T12:27:02.541Z</time></trkpt><trkpt lat="44.1718867" lon="8.0944067"><ele>1068.0</ele><time>2026-04-22T12:27:03.54Z</time></trkpt><trkpt lat="44.1717783" lon="8.0944483"><ele>1068.0</ele><time>2026-04-22T12:27:04.54Z</time></trkpt><trkpt lat="44.1716667" lon="8.0944883"><ele>1068.0</ele><time>2026-04-22T12:27:05.541Z</time></trkpt><trkpt lat="44.17156" lon="8.094525"><ele>1068.0</ele><time>2026-04-22T12:27:06.541Z</time></trkpt><trkpt lat="44.17145" lon="8.0945567"><ele>1067.0</ele><time>2026-04-22T12:27:07.541Z</time></trkpt><trkpt lat="44.1713417" lon="8.0945867"><ele>1066.0</ele><time>2026-04-22T12:27:08.541Z</time></trkpt><trkpt lat="44.1712267" lon="8.0946217"><ele>1065.0</ele><time>2026-04-22T12:27:09.54Z</time></trkpt><trkpt lat="44.1711183" lon="8.09467"><ele>1064.0</ele><time>2026-04-22T12:27:10.541Z</time></trkpt><trkpt lat="44.1710183" lon="8.0947167"><ele>1063.0</ele><time>2026-04-22T12:27:11.541Z</time></trkpt><trkpt lat="44.1709233" lon="8.0947817"><ele>1063.0</ele><time>2026-04-22T12:27:12.541Z</time></trkpt><trkpt lat="44.1708517" lon="8.0948767"><ele>1063.0</ele><time>2026-04-22T12:27:13.541Z</time></trkpt><trkpt lat="44.1707833" lon="8.0949967"><ele>1063.0</ele><time>2026-04-22T12:27:14.541Z</time></trkpt><trkpt lat="44.1707333" lon="8.09513"><ele>1063.0</ele><time>2026-04-22T12:27:15.54Z</time></trkpt><trkpt lat="44.1706817" lon="8.0953"><ele>1063.0</ele><time>2026-04-22T12:27:16.541Z</time></trkpt><trkpt lat="44.1706117" lon="8.0954467"><ele>1062.75</ele><time>2026-04-22T12:27:17.541Z</time></trkpt><trkpt lat="44.1705417" lon="8.095585"><ele>1062.5</ele><time>2026-04-22T12:27:18.541Z</time></trkpt><trkpt lat="44.17048" lon="8.09573"><ele>1062.25</ele><time>2026-04-22T12:27:19.541Z</time></trkpt><trkpt lat="44.1704117" lon="8.095885"><ele>1062.0</ele><time>2026-04-22T12:27:20.54Z</time></trkpt><trkpt lat="44.1703467" lon="8.096035"><ele>1062.0</ele><time>2026-04-22T12:27:21.541Z</time></trkpt><trkpt lat="44.17028" lon="8.09618"><ele>1062.0</ele><time>2026-04-22T12:27:22.541Z</time></trkpt><trkpt lat="44.1702167" lon="8.0963217"><ele>1062.0</ele><time>2026-04-22T12:27:23.541Z</time></trkpt><trkpt lat="44.17017" lon="8.0964617"><ele>1062.0</ele><time>2026-04-22T12:27:24.541Z</time></trkpt><trkpt lat="44.1701317" lon="8.0966167"><ele>1062.75</ele><time>2026-04-22T12:27:25.541Z</time></trkpt><trkpt lat="44.1701017" lon="8.09677"><ele>1063.5</ele><time>2026-04-22T12:27:26.541Z</time></trkpt><trkpt lat="44.1700733" lon="8.0969367"><ele>1064.25</ele><time>2026-04-22T12:27:27.541Z</time></trkpt><trkpt lat="44.170045" lon="8.0971017"><ele>1065.0</ele><time>2026-04-22T12:27:28.54Z</time></trkpt><trkpt lat="44.1700133" lon="8.0972633"><ele>1064.0</ele><time>2026-04-22T12:27:29.541Z</time></trkpt><trkpt lat="44.1699817" lon="8.09742"><ele>1063.0</ele><time>2026-04-22T12:27:30.54Z</time></trkpt><trkpt lat="44.1699583" lon="8.0975767"><ele>1062.0</ele><time>2026-04-22T12:27:31.541Z</time></trkpt><trkpt lat="44.1699267" lon="8.0977367"><ele>1061.0</ele><time>2026-04-22T12:27:32.54Z</time></trkpt><trkpt lat="44.1699" lon="8.09788"><ele>1061.0</ele><time>2026-04-22T12:27:33.541Z</time></trkpt><trkpt lat="44.1698867" lon="8.0980267"><ele>1061.0</ele><time>2026-04-22T12:27:34.54Z</time></trkpt><trkpt lat="44.1698633" lon="8.0981783"><ele>1061.0</ele><time>2026-04-22T12:27:35.541Z</time></trkpt><trkpt lat="44.1698367" lon="8.09833"><ele>1061.0</ele><time>2026-04-22T12:27:36.541Z</time></trkpt><trkpt lat="44.1698" lon="8.0984833"><ele>1061.0</ele><time>2026-04-22T12:27:37.541Z</time></trkpt><trkpt lat="44.1697733" lon="8.0986417"><ele>1060.25</ele><time>2026-04-22T12:27:38.54Z</time></trkpt><trkpt lat="44.1697317" lon="8.0987983"><ele>1059.5</ele><time>2026-04-22T12:27:39.541Z</time></trkpt><trkpt lat="44.1696767" lon="8.0989483"><ele>1058.75</ele><time>2026-04-22T12:27:40.54Z</time></trkpt><trkpt lat="44.16964" lon="8.0990833"><ele>1058.0</ele><time>2026-04-22T12:27:41.541Z</time></trkpt><trkpt lat="44.1695917" lon="8.099215"><ele>1058.0</ele><time>2026-04-22T12:27:42.541Z</time></trkpt><trkpt lat="44.1695333" lon="8.0993417"><ele>1058.0</ele><time>2026-04-22T12:27:43.541Z</time></trkpt><trkpt lat="44.1694717" lon="8.0994883"><ele>1058.0</ele><time>2026-04-22T12:27:44.541Z</time></trkpt><trkpt lat="44.1694083" lon="8.0996333"><ele>1058.0</ele><time>2026-04-22T12:27:45.54Z</time></trkpt><trkpt lat="44.1693317" lon="8.0997667"><ele>1058.0</ele><time>2026-04-22T12:27:46.54Z</time></trkpt><trkpt lat="44.1692617" lon="8.0998917"><ele>1058.0</ele><time>2026-04-22T12:27:47.54Z</time></trkpt><trkpt lat="44.1691867" lon="8.1000183"><ele>1058.0</ele><time>2026-04-22T12:27:48.541Z</time></trkpt><trkpt lat="44.1691233" lon="8.1001533"><ele>1058.0</ele><time>2026-04-22T12:27:49.541Z</time></trkpt><trkpt lat="44.1691033" lon="8.1002917"><ele>1058.0</ele><time>2026-04-22T12:27:50.541Z</time></trkpt><trkpt lat="44.1690683" lon="8.1004483"><ele>1057.0</ele><time>2026-04-22T12:27:51.541Z</time></trkpt><trkpt lat="44.1690567" lon="8.1006"><ele>1056.0</ele><time>2026-04-22T12:27:52.541Z</time></trkpt><trkpt lat="44.1690517" lon="8.1007383"><ele>1055.0</ele><time>2026-04-22T12:27:53.541Z</time></trkpt><trkpt lat="44.1690283" lon="8.1008817"><ele>1054.0</ele><time>2026-04-22T12:27:54.54Z</time></trkpt><trkpt lat="44.16899" lon="8.1010317"><ele>1053.0</ele><time>2026-04-22T12:27:55.54Z</time></trkpt><trkpt lat="44.1689433" lon="8.101185"><ele>1052.5</ele><time>2026-04-22T12:27:56.541Z</time></trkpt><trkpt lat="44.1689067" lon="8.101325"><ele>1052.0</ele><time>2026-04-22T12:27:57.541Z</time></trkpt><trkpt lat="44.1688567" lon="8.1014817"><ele>1051.5</ele><time>2026-04-22T12:27:58.541Z</time></trkpt><trkpt lat="44.1688283" lon="8.1016467"><ele>1051.0</ele><time>2026-04-22T12:27:59.541Z</time></trkpt><trkpt lat="44.1688017" lon="8.101805"><ele>1050.2</ele><time>2026-04-22T12:28:00.541Z</time></trkpt><trkpt lat="44.1687767" lon="8.1019683"><ele>1049.3999999999999</ele><time>2026-04-22T12:28:01.54Z</time></trkpt><trkpt lat="44.16875" lon="8.10212"><ele>1048.6</ele><time>2026-04-22T12:28:02.541Z</time></trkpt><trkpt lat="44.16871" lon="8.1022567"><ele>1047.8</ele><time>2026-04-22T12:28:03.54Z</time></trkpt><trkpt lat="44.1686767" lon="8.1023867"><ele>1047.0</ele><time>2026-04-22T12:28:04.541Z</time></trkpt><trkpt lat="44.1686433" lon="8.10251"><ele>1044.6</ele><time>2026-04-22T12:28:05.541Z</time></trkpt><trkpt lat="44.1686117" lon="8.10263"><ele>1042.2</ele><time>2026-04-22T12:28:06.54Z</time></trkpt><trkpt lat="44.1685883" lon="8.1027583"><ele>1039.8</ele><time>2026-04-22T12:28:07.541Z</time></trkpt><trkpt lat="44.1685983" lon="8.10289"><ele>1037.4</ele><time>2026-04-22T12:28:08.541Z</time></trkpt><trkpt lat="44.1686183" lon="8.1030067"><ele>1035.0</ele><time>2026-04-22T12:28:09.54Z</time></trkpt><trkpt lat="44.1686417" lon="8.10312"><ele>1034.8</ele><time>2026-04-22T12:28:10.541Z</time></trkpt><trkpt lat="44.1686417" lon="8.1032517"><ele>1034.6</ele><time>2026-04-22T12:28:12.541Z</time></trkpt><trkpt lat="44.1686233" lon="8.1034117"><ele>1034.4</ele><time>2026-04-22T12:28:14.541Z</time></trkpt><trkpt lat="44.168605" lon="8.1035217"><ele>1034.2</ele><time>2026-04-22T12:28:15.54Z</time></trkpt><trkpt lat="44.16858" lon="8.103635"><ele>1034.0</ele><time>2026-04-22T12:28:16.541Z</time></trkpt><trkpt lat="44.1685317" lon="8.1037467"><ele>1034.0</ele><time>2026-04-22T12:28:17.541Z</time></trkpt><trkpt lat="44.1684833" lon="8.103855"><ele>1034.0</ele><time>2026-04-22T12:28:18.54Z</time></trkpt><trkpt lat="44.1684283" lon="8.1039533"><ele>1034.0</ele><time>2026-04-22T12:28:19.541Z</time></trkpt><trkpt lat="44.1683733" lon="8.1040583"><ele>1034.0</ele><time>2026-04-22T12:28:20.541Z</time></trkpt><trkpt lat="44.1683167" lon="8.104185"><ele>1034.0</ele><time>2026-04-22T12:28:21.541Z</time></trkpt><trkpt lat="44.1682733" lon="8.1043083"><ele>1033.1666666666667</ele><time>2026-04-22T12:28:22.541Z</time></trkpt><trkpt lat="44.16824" lon="8.1044183"><ele>1032.3333333333335</ele><time>2026-04-22T12:28:23.541Z</time></trkpt><trkpt lat="44.1682133" lon="8.10453"><ele>1031.5</ele><time>2026-04-22T12:28:24.541Z</time></trkpt><trkpt lat="44.1681833" lon="8.1046383"><ele>1030.6666666666667</ele><time>2026-04-22T12:28:25.541Z</time></trkpt><trkpt lat="44.16814" lon="8.1047567"><ele>1029.8333333333333</ele><time>2026-04-22T12:28:26.541Z</time></trkpt><trkpt lat="44.1681017" lon="8.104885"><ele>1029.0</ele><time>2026-04-22T12:28:27.541Z</time></trkpt><trkpt lat="44.1680567" lon="8.105005"><ele>1025.3333333333333</ele><time>2026-04-22T12:28:28.541Z</time></trkpt><trkpt lat="44.168025" lon="8.1050967"><ele>1021.6666666666667</ele><time>2026-04-22T12:28:29.54Z</time></trkpt><trkpt lat="44.16798" lon="8.105185"><ele>1018.0</ele><time>2026-04-22T12:28:30.541Z</time></trkpt><trkpt lat="44.16794" lon="8.1052817"><ele>1014.3333333333334</ele><time>2026-04-22T12:28:31.541Z</time></trkpt><trkpt lat="44.1679" lon="8.1053867"><ele>1010.6666666666667</ele><time>2026-04-22T12:28:32.541Z</time></trkpt><trkpt lat="44.167865" lon="8.1054817"><ele>1007.0</ele><time>2026-04-22T12:28:33.54Z</time></trkpt><trkpt lat="44.1677817" lon="8.1056067"><ele>1007.0000000000001</ele><time>2026-04-22T12:28:35.541Z</time></trkpt><trkpt lat="44.1677333" lon="8.10568"><ele>1007.0</ele><time>2026-04-22T12:28:36.541Z</time></trkpt><trkpt lat="44.1676833" lon="8.1057567"><ele>1007.0</ele><time>2026-04-22T12:28:37.541Z</time></trkpt><trkpt lat="44.1676483" lon="8.10586"><ele>1007.0</ele><time>2026-04-22T12:28:38.541Z</time></trkpt><trkpt lat="44.167615" lon="8.1059733"><ele>1007.0000000000001</ele><time>2026-04-22T12:28:39.541Z</time></trkpt><trkpt lat="44.1675733" lon="8.1060833"><ele>1007.0</ele><time>2026-04-22T12:28:40.541Z</time></trkpt><trkpt lat="44.1675433" lon="8.1061667"><ele>1006.4000000000001</ele><time>2026-04-22T12:28:41.541Z</time></trkpt><trkpt lat="44.16744" lon="8.1062217"><ele>1005.8000000000001</ele><time>2026-04-22T12:29:18.541Z</time></trkpt><trkpt lat="44.1673167" lon="8.10625"><ele>1005.2</ele><time>2026-04-22T12:29:20.541Z</time></trkpt><trkpt lat="44.1672483" lon="8.1062617"><ele>1004.6</ele><time>2026-04-22T12:29:21.541Z</time></trkpt><trkpt lat="44.1671417" lon="8.1062667"><ele>1004.0</ele><time>2026-04-22T12:29:23.541Z</time></trkpt><trkpt lat="44.16707" lon="8.1062683"><ele>1000.5714285714284</ele><time>2026-04-22T12:29:25.541Z</time></trkpt><trkpt lat="44.167" lon="8.1062683"><ele>997.1428571428571</ele><time>2026-04-22T12:29:28.541Z</time></trkpt><trkpt lat="44.166935" lon="8.10629"><ele>993.7142857142857</ele><time>2026-04-22T12:29:31.541Z</time></trkpt><trkpt lat="44.1668783" lon="8.1063583"><ele>990.2857142857142</ele><time>2026-04-22T12:29:34.541Z</time></trkpt><trkpt lat="44.1668483" lon="8.1062533"><ele>986.8571428571429</ele><time>2026-04-22T12:29:39.54Z</time></trkpt><trkpt lat="44.1667817" lon="8.1062383"><ele>983.4285714285714</ele><time>2026-04-22T12:29:42.541Z</time></trkpt><trkpt lat="44.16672" lon="8.1062767"><ele>980.0</ele><time>2026-04-22T12:29:44.54Z</time></trkpt><trkpt lat="44.1666983" lon="8.1063683"><ele>980.0000000000001</ele><time>2026-04-22T12:29:46.541Z</time></trkpt><trkpt lat="44.1667083" lon="8.10648"><ele>980.0</ele><time>2026-04-22T12:29:48.541Z</time></trkpt><trkpt lat="44.1667333" lon="8.1065767"><ele>980.0</ele><time>2026-04-22T12:29:50.54Z</time></trkpt><trkpt lat="44.1667467" lon="8.1066867"><ele>980.0</ele><time>2026-04-22T12:29:52.541Z</time></trkpt><trkpt lat="44.166745" lon="8.1068017"><ele>980.0000000000001</ele><time>2026-04-22T12:29:54.541Z</time></trkpt><trkpt lat="44.1667583" lon="8.1069433"><ele>980.0</ele><time>2026-04-22T12:29:56.541Z</time></trkpt><trkpt lat="44.1667833" lon="8.10705"><ele>980.1666666666667</ele><time>2026-04-22T12:29:58.541Z</time></trkpt><trkpt lat="44.16681" lon="8.1071417"><ele>980.3333333333334</ele><time>2026-04-22T12:30:00.541Z</time></trkpt><trkpt lat="44.16681" lon="8.10724"><ele>980.5</ele><time>2026-04-22T12:30:02.54Z</time></trkpt><trkpt lat="44.16681" lon="8.1073783"><ele>980.6666666666667</ele><time>2026-04-22T12:30:04.541Z</time></trkpt><trkpt lat="44.1668033" lon="8.1074667"><ele>980.8333333333334</ele><time>2026-04-22T12:30:05.541Z</time></trkpt><trkpt lat="44.1667883" lon="8.1075567"><ele>981.0</ele><time>2026-04-22T12:30:06.541Z</time></trkpt><trkpt lat="44.1667533" lon="8.107665"><ele>979.8333333333334</ele><time>2026-04-22T12:30:08.54Z</time></trkpt><trkpt lat="44.1666867" lon="8.1077233"><ele>978.6666666666667</ele><time>2026-04-22T12:30:10.541Z</time></trkpt><trkpt lat="44.1665833" lon="8.10777"><ele>977.5</ele><time>2026-04-22T12:30:12.541Z</time></trkpt><trkpt lat="44.166515" lon="8.1078"><ele>976.3333333333334</ele><time>2026-04-22T12:30:13.541Z</time></trkpt><trkpt lat="44.16645" lon="8.1078167"><ele>975.1666666666667</ele><time>2026-04-22T12:30:14.541Z</time></trkpt><trkpt lat="44.1663867" lon="8.1078417"><ele>974.0</ele><time>2026-04-22T12:30:15.541Z</time></trkpt><trkpt lat="44.1663033" lon="8.1078717"><ele>974.0000000000001</ele><time>2026-04-22T12:30:17.54Z</time></trkpt><trkpt lat="44.1662717" lon="8.1079833"><ele>974.0</ele><time>2026-04-22T12:30:20.541Z</time></trkpt><trkpt lat="44.1663333" lon="8.1080683"><ele>974.0</ele><time>2026-04-22T12:30:24.541Z</time></trkpt><trkpt lat="44.1664167" lon="8.1080967"><ele>974.0</ele><time>2026-04-22T12:30:27.54Z</time></trkpt><trkpt lat="44.1664933" lon="8.1080817"><ele>974.0000000000001</ele><time>2026-04-22T12:30:30.541Z</time></trkpt><trkpt lat="44.1665783" lon="8.1081417"><ele>974.0</ele><time>2026-04-22T12:30:33.541Z</time></trkpt><trkpt lat="44.1666117" lon="8.1082317"><ele>972.4000000000001</ele><time>2026-04-22T12:30:35.541Z</time></trkpt><trkpt lat="44.16661" lon="8.1083617"><ele>970.8000000000001</ele><time>2026-04-22T12:30:38.541Z</time></trkpt><trkpt lat="44.166545" lon="8.1085133"><ele>969.1999999999999</ele><time>2026-04-22T12:30:40.541Z</time></trkpt><trkpt lat="44.1665017" lon="8.1086183"><ele>967.5999999999999</ele><time>2026-04-22T12:30:41.541Z</time></trkpt><trkpt lat="44.1664683" lon="8.1087317"><ele>966.0</ele><time>2026-04-22T12:30:42.54Z</time></trkpt><trkpt lat="44.166435" lon="8.1088433"><ele>962.6666666666666</ele><time>2026-04-22T12:30:43.541Z</time></trkpt><trkpt lat="44.1663917" lon="8.1089483"><ele>959.3333333333333</ele><time>2026-04-22T12:30:44.54Z</time></trkpt><trkpt lat="44.16634" lon="8.10904"><ele>956.0</ele><time>2026-04-22T12:30:45.54Z</time></trkpt><trkpt lat="44.16629" lon="8.1091267"><ele>952.6666666666666</ele><time>2026-04-22T12:30:46.541Z</time></trkpt><trkpt lat="44.1662417" lon="8.10919"><ele>949.3333333333333</ele><time>2026-04-22T12:30:47.541Z</time></trkpt><trkpt lat="44.166175" lon="8.1092283"><ele>946.0</ele><time>2026-04-22T12:30:48.541Z</time></trkpt><trkpt lat="44.1661017" lon="8.1092533"><ele>946.0</ele><time>2026-04-22T12:30:49.541Z</time></trkpt><trkpt lat="44.1660133" lon="8.1092983"><ele>945.9999999999999</ele><time>2026-04-22T12:30:50.541Z</time></trkpt><trkpt lat="44.165905" lon="8.10933"><ele>945.9999999999999</ele><time>2026-04-22T12:30:51.541Z</time></trkpt><trkpt lat="44.16579" lon="8.10936"><ele>946.0</ele><time>2026-04-22T12:30:52.541Z</time></trkpt><trkpt lat="44.1656667" lon="8.1093833"><ele>946.0</ele><time>2026-04-22T12:30:53.541Z</time></trkpt><trkpt lat="44.16554" lon="8.1094017"><ele>942.5</ele><time>2026-04-22T12:30:54.541Z</time></trkpt><trkpt lat="44.1654117" lon="8.10942"><ele>939.0</ele><time>2026-04-22T12:30:55.541Z</time></trkpt><trkpt lat="44.1652867" lon="8.1094267"><ele>935.5</ele><time>2026-04-22T12:30:56.541Z</time></trkpt><trkpt lat="44.165175" lon="8.10942"><ele>932.0</ele><time>2026-04-22T12:30:57.541Z</time></trkpt><trkpt lat="44.165085" lon="8.1094117"><ele>932.0000000000001</ele><time>2026-04-22T12:30:58.541Z</time></trkpt><trkpt lat="44.1650083" lon="8.1094067"><ele>932.0</ele><time>2026-04-22T12:30:59.541Z</time></trkpt><trkpt lat="44.1649217" lon="8.109405"><ele>932.0</ele><time>2026-04-22T12:31:01.541Z</time></trkpt><trkpt lat="44.1649567" lon="8.10932"><ele>932.0</ele><time>2026-04-22T12:31:48.541Z</time></trkpt><trkpt lat="44.1650133" lon="8.10928"><ele>932.0000000000001</ele><time>2026-04-22T12:31:52.541Z</time></trkpt><trkpt lat="44.1651067" lon="8.1092567"><ele>932.0</ele><time>2026-04-22T12:31:55.541Z</time></trkpt><trkpt lat="44.1651933" lon="8.1092533"><ele>932.0000000000001</ele><time>2026-04-22T12:31:57.54Z</time></trkpt><trkpt lat="44.1652783" lon="8.10921"><ele>932.0</ele><time>2026-04-22T12:31:59.541Z</time></trkpt><trkpt lat="44.1653433" lon="8.1091817"><ele>932.0</ele><time>2026-04-22T12:32:01.541Z</time></trkpt><trkpt lat="44.1654183" lon="8.1091567"><ele>932.0</ele><time>2026-04-22T12:32:03.54Z</time></trkpt><trkpt lat="44.1655" lon="8.109135"><ele>932.0000000000001</ele><time>2026-04-22T12:32:05.541Z</time></trkpt><trkpt lat="44.1656033" lon="8.1091133"><ele>932.0</ele><time>2026-04-22T12:32:07.541Z</time></trkpt><trkpt lat="44.1656917" lon="8.1090967"><ele>934.1666666666667</ele><time>2026-04-22T12:32:09.54Z</time></trkpt><trkpt lat="44.1657783" lon="8.1090583"><ele>936.3333333333334</ele><time>2026-04-22T12:32:11.541Z</time></trkpt><trkpt lat="44.1657467" lon="8.1089783"><ele>938.5</ele><time>2026-04-22T12:32:15.541Z</time></trkpt><trkpt lat="44.16566" lon="8.1089483"><ele>940.6666666666667</ele><time>2026-04-22T12:32:19.541Z</time></trkpt><trkpt lat="44.16558" lon="8.1088933"><ele>942.8333333333334</ele><time>2026-04-22T12:32:22.541Z</time></trkpt><trkpt lat="44.1655017" lon="8.10885"><ele>945.0</ele><time>2026-04-22T12:32:25.541Z</time></trkpt><trkpt lat="44.165385" lon="8.1087433"><ele>940.1666666666666</ele><time>2026-04-22T12:32:35.541Z</time></trkpt><trkpt lat="44.1653217" lon="8.108705"><ele>935.3333333333333</ele><time>2026-04-22T12:32:38.541Z</time></trkpt><trkpt lat="44.1652517" lon="8.10866"><ele>930.5</ele><time>2026-04-22T12:32:43.541Z</time></trkpt><trkpt lat="44.1651817" lon="8.1086183"><ele>925.6666666666666</ele><time>2026-04-22T12:32:46.54Z</time></trkpt><trkpt lat="44.16509" lon="8.1085967"><ele>920.8333333333333</ele><time>2026-04-22T12:32:49.541Z</time></trkpt><trkpt lat="44.1649967" lon="8.10861"><ele>916.0</ele><time>2026-04-22T12:32:51.541Z</time></trkpt><trkpt lat="44.1649" lon="8.1086367"><ele>911.0</ele><time>2026-04-22T12:32:53.541Z</time></trkpt><trkpt lat="44.1648217" lon="8.1086117"><ele>905.9999999999999</ele><time>2026-04-22T12:32:55.541Z</time></trkpt><trkpt lat="44.1647467" lon="8.108585"><ele>900.9999999999999</ele><time>2026-04-22T12:32:57.542Z</time></trkpt><trkpt lat="44.1646467" lon="8.1085633"><ele>896.0</ele><time>2026-04-22T12:32:59.541Z</time></trkpt><trkpt lat="44.1645417" lon="8.1086067"><ele>891.0</ele><time>2026-04-22T12:33:01.542Z</time></trkpt><trkpt lat="44.1644367" lon="8.1086367"><ele>891.0</ele><time>2026-04-22T12:33:03.542Z</time></trkpt><trkpt lat="44.164335" lon="8.1086617"><ele>891.0</ele><time>2026-04-22T12:33:05.542Z</time></trkpt><trkpt lat="44.1642383" lon="8.1086933"><ele>891.0</ele><time>2026-04-22T12:33:07.542Z</time></trkpt><trkpt lat="44.164135" lon="8.10869"><ele>891.0</ele><time>2026-04-22T12:33:09.542Z</time></trkpt><trkpt lat="44.1640667" lon="8.1087083"><ele>891.0</ele><time>2026-04-22T12:33:11.542Z</time></trkpt><trkpt lat="44.1640017" lon="8.1087317"><ele>891.0</ele><time>2026-04-22T12:33:13.542Z</time></trkpt><trkpt lat="44.163915" lon="8.10874"><ele>885.8</ele><time>2026-04-22T12:33:16.542Z</time></trkpt><trkpt lat="44.1638417" lon="8.1086683"><ele>880.5999999999999</ele><time>2026-04-22T12:33:18.542Z</time></trkpt><trkpt lat="44.1637783" lon="8.1086367"><ele>875.4</ele><time>2026-04-22T12:33:20.542Z</time></trkpt><trkpt lat="44.1637183" lon="8.108565"><ele>870.2</ele><time>2026-04-22T12:33:22.542Z</time></trkpt><trkpt lat="44.1636417" lon="8.1085433"><ele>865.0</ele><time>2026-04-22T12:33:25.542Z</time></trkpt><trkpt lat="44.1635" lon="8.1085517"><ele>864.9999999999999</ele><time>2026-04-22T12:33:33.542Z</time></trkpt><trkpt lat="44.1634883" lon="8.1086417"><ele>865.0</ele><time>2026-04-22T12:33:42.542Z</time></trkpt><trkpt lat="44.1634783" lon="8.108735"><ele>865.0</ele><time>2026-04-22T12:33:44.542Z</time></trkpt><trkpt lat="44.1634367" lon="8.10885"><ele>865.0</ele><time>2026-04-22T12:33:47.542Z</time></trkpt><trkpt lat="44.1634283" lon="8.1089483"><ele>864.9999999999999</ele><time>2026-04-22T12:33:49.541Z</time></trkpt><trkpt lat="44.1634183" lon="8.1090533"><ele>865.0</ele><time>2026-04-22T12:33:51.541Z</time></trkpt><trkpt lat="44.1633633" lon="8.1091417"><ele>867.9999999999999</ele><time>2026-04-22T12:33:53.542Z</time></trkpt><trkpt lat="44.16331" lon="8.1091967"><ele>871.0</ele><time>2026-04-22T12:33:55.542Z</time></trkpt><trkpt lat="44.1632183" lon="8.1091967"><ele>874.0</ele><time>2026-04-22T12:33:58.542Z</time></trkpt><trkpt lat="44.163145" lon="8.109265"><ele>877.0</ele><time>2026-04-22T12:34:00.542Z</time></trkpt><trkpt lat="44.1630767" lon="8.1093333"><ele>879.9999999999999</ele><time>2026-04-22T12:34:02.542Z</time></trkpt><trkpt lat="44.1630067" lon="8.1093517"><ele>883.0</ele><time>2026-04-22T12:34:04.542Z</time></trkpt><trkpt lat="44.16292" lon="8.109315"><ele>876.8333333333333</ele><time>2026-04-22T12:34:07.542Z</time></trkpt><trkpt lat="44.1628433" lon="8.10928"><ele>870.6666666666666</ele><time>2026-04-22T12:34:09.542Z</time></trkpt><trkpt lat="44.1627367" lon="8.1092917"><ele>864.5</ele><time>2026-04-22T12:34:11.541Z</time></trkpt><trkpt lat="44.1626567" lon="8.109335"><ele>858.3333333333333</ele><time>2026-04-22T12:34:13.541Z</time></trkpt><trkpt lat="44.1626333" lon="8.1094167"><ele>852.1666666666666</ele><time>2026-04-22T12:34:15.542Z</time></trkpt><trkpt lat="44.162565" lon="8.10951"><ele>846.0</ele><time>2026-04-22T12:34:18.541Z</time></trkpt><trkpt lat="44.1625017" lon="8.1095717"><ele>846.0</ele><time>2026-04-22T12:34:20.541Z</time></trkpt><trkpt lat="44.162445" lon="8.109635"><ele>846.0</ele><time>2026-04-22T12:34:22.542Z</time></trkpt><trkpt lat="44.1623867" lon="8.1097083"><ele>846.0</ele><time>2026-04-22T12:34:24.541Z</time></trkpt><trkpt lat="44.1623467" lon="8.10983"><ele>846.0</ele><time>2026-04-22T12:34:26.542Z</time></trkpt><trkpt lat="44.1623" lon="8.10994"><ele>846.0</ele><time>2026-04-22T12:34:28.542Z</time></trkpt><trkpt lat="44.1622467" lon="8.1100767"><ele>842.5</ele><time>2026-04-22T12:34:30.542Z</time></trkpt><trkpt lat="44.162225" lon="8.1102267"><ele>839.0</ele><time>2026-04-22T12:34:32.542Z</time></trkpt><trkpt lat="44.162205" lon="8.110335"><ele>835.5</ele><time>2026-04-22T12:34:34.542Z</time></trkpt><trkpt lat="44.162165" lon="8.1104183"><ele>832.0</ele><time>2026-04-22T12:34:36.542Z</time></trkpt><trkpt lat="44.16212" lon="8.110515"><ele>828.5</ele><time>2026-04-22T12:34:38.542Z</time></trkpt><trkpt lat="44.1620967" lon="8.110605"><ele>825.0</ele><time>2026-04-22T12:34:40.542Z</time></trkpt><trkpt lat="44.1620117" lon="8.110735"><ele>827.8333333333334</ele><time>2026-04-22T12:34:48.542Z</time></trkpt><trkpt lat="44.16196" lon="8.110815"><ele>830.6666666666667</ele><time>2026-04-22T12:34:50.542Z</time></trkpt><trkpt lat="44.161885" lon="8.1108517"><ele>833.5</ele><time>2026-04-22T12:34:58.542Z</time></trkpt><trkpt lat="44.1618233" lon="8.1108767"><ele>836.3333333333334</ele><time>2026-04-22T12:34:59.542Z</time></trkpt><trkpt lat="44.1617417" lon="8.1108983"><ele>839.1666666666667</ele><time>2026-04-22T12:35:00.541Z</time></trkpt><trkpt lat="44.1616517" lon="8.1109083"><ele>842.0</ele><time>2026-04-22T12:35:01.542Z</time></trkpt><trkpt lat="44.16157" lon="8.11093"><ele>839.0000000000001</ele><time>2026-04-22T12:35:02.542Z</time></trkpt><trkpt lat="44.1615" lon="8.1109833"><ele>836.0</ele><time>2026-04-22T12:35:03.542Z</time></trkpt><trkpt lat="44.16145" lon="8.111065"><ele>833.0</ele><time>2026-04-22T12:35:04.542Z</time></trkpt><trkpt lat="44.161405" lon="8.1111333"><ele>830.0</ele><time>2026-04-22T12:35:05.542Z</time></trkpt><trkpt lat="44.1613417" lon="8.111245"><ele>827.0000000000001</ele><time>2026-04-22T12:35:07.542Z</time></trkpt><trkpt lat="44.1612617" lon="8.1112617"><ele>824.0</ele><time>2026-04-22T12:35:09.542Z</time></trkpt><trkpt lat="44.1611833" lon="8.1112333"><ele>824.0000000000001</ele><time>2026-04-22T12:35:12.541Z</time></trkpt><trkpt lat="44.1612083" lon="8.1111367"><ele>824.0</ele><time>2026-04-22T12:35:16.541Z</time></trkpt><trkpt lat="44.1612717" lon="8.1110367"><ele>824.0</ele><time>2026-04-22T12:36:00.542Z</time></trkpt><trkpt lat="44.1613167" lon="8.1109683"><ele>824.0</ele><time>2026-04-22T12:36:01.542Z</time></trkpt><trkpt lat="44.1613767" lon="8.1108933"><ele>824.0000000000001</ele><time>2026-04-22T12:36:02.542Z</time></trkpt><trkpt lat="44.1614467" lon="8.11082"><ele>824.0</ele><time>2026-04-22T12:36:03.542Z</time></trkpt><trkpt lat="44.161515" lon="8.1107683"><ele>824.1666666666667</ele><time>2026-04-22T12:36:04.542Z</time></trkpt><trkpt lat="44.1615767" lon="8.110725"><ele>824.3333333333334</ele><time>2026-04-22T12:36:05.542Z</time></trkpt><trkpt lat="44.1616583" lon="8.1106883"><ele>824.5</ele><time>2026-04-22T12:36:07.542Z</time></trkpt><trkpt lat="44.1616883" lon="8.1105967"><ele>824.6666666666667</ele><time>2026-04-22T12:36:09.542Z</time></trkpt><trkpt lat="44.16163" lon="8.1105483"><ele>824.8333333333334</ele><time>2026-04-22T12:36:11.542Z</time></trkpt><trkpt lat="44.16149" lon="8.1106133"><ele>825.0</ele><time>2026-04-22T12:36:13.542Z</time></trkpt><trkpt lat="44.1614217" lon="8.1106417"><ele>822.6666666666666</ele><time>2026-04-22T12:36:14.542Z</time></trkpt><trkpt lat="44.1613783" lon="8.110545"><ele>820.3333333333333</ele><time>2026-04-22T12:36:18.542Z</time></trkpt><trkpt lat="44.16136" lon="8.11044"><ele>818.0</ele><time>2026-04-22T12:36:20.541Z</time></trkpt><trkpt lat="44.16129" lon="8.1103633"><ele>815.6666666666666</ele><time>2026-04-22T12:36:22.542Z</time></trkpt><trkpt lat="44.1612" lon="8.1103483"><ele>813.3333333333333</ele><time>2026-04-22T12:36:24.542Z</time></trkpt><trkpt lat="44.161095" lon="8.1103183"><ele>811.0</ele><time>2026-04-22T12:36:26.542Z</time></trkpt><trkpt lat="44.161025" lon="8.1103133"><ele>810.9999999999999</ele><time>2026-04-22T12:36:28.542Z</time></trkpt><trkpt lat="44.1609533" lon="8.1102533"><ele>811.0</ele><time>2026-04-22T12:36:30.542Z</time></trkpt><trkpt lat="44.16088" lon="8.1102"><ele>811.0</ele><time>2026-04-22T12:36:32.542Z</time></trkpt><trkpt lat="44.160905" lon="8.1101"><ele>811.0</ele><time>2026-04-22T12:36:37.542Z</time></trkpt><trkpt lat="44.1608817" lon="8.1099967"><ele>810.9999999999999</ele><time>2026-04-22T12:36:39.542Z</time></trkpt><trkpt lat="44.1608733" lon="8.1098767"><ele>811.0</ele><time>2026-04-22T12:36:41.542Z</time></trkpt><trkpt lat="44.1609583" lon="8.1098283"><ele>806.4999999999999</ele><time>2026-04-22T12:36:44.542Z</time></trkpt><trkpt lat="44.1610433" lon="8.10985"><ele>802.0</ele><time>2026-04-22T12:36:46.542Z</time></trkpt><trkpt lat="44.1610167" lon="8.1097333"><ele>797.5</ele><time>2026-04-22T12:36:51.542Z</time></trkpt><trkpt lat="44.1609533" lon="8.10967"><ele>793.0</ele><time>2026-04-22T12:36:53.542Z</time></trkpt><trkpt lat="44.1608783" lon="8.1096183"><ele>788.4999999999999</ele><time>2026-04-22T12:36:55.541Z</time></trkpt><trkpt lat="44.16078" lon="8.1096283"><ele>784.0</ele><time>2026-04-22T12:36:57.542Z</time></trkpt><trkpt lat="44.1607" lon="8.10961"><ele>782.3333333333333</ele><time>2026-04-22T12:36:59.542Z</time></trkpt><trkpt lat="44.1606283" lon="8.1095983"><ele>780.6666666666666</ele><time>2026-04-22T12:37:01.541Z</time></trkpt><trkpt lat="44.160555" lon="8.1095217"><ele>779.0</ele><time>2026-04-22T12:37:04.542Z</time></trkpt><trkpt lat="44.1604733" lon="8.1095217"><ele>777.3333333333333</ele><time>2026-04-22T12:37:07.542Z</time></trkpt><trkpt lat="44.1603983" lon="8.1095067"><ele>775.6666666666666</ele><time>2026-04-22T12:37:09.541Z</time></trkpt><trkpt lat="44.1603033" lon="8.10944"><ele>774.0</ele><time>2026-04-22T12:37:11.542Z</time></trkpt><trkpt lat="44.1602417" lon="8.10937"><ele>774.0</ele><time>2026-04-22T12:37:13.541Z</time></trkpt><trkpt lat="44.1602567" lon="8.1092683"><ele>774.0</ele><time>2026-04-22T12:37:17.541Z</time></trkpt><trkpt lat="44.1602417" lon="8.1091783"><ele>774.0</ele><time>2026-04-22T12:37:22.542Z</time></trkpt><trkpt lat="44.1603017" lon="8.1091067"><ele>774.0</ele><time>2026-04-22T12:37:25.542Z</time></trkpt><trkpt lat="44.1603133" lon="8.10901"><ele>774.0</ele><time>2026-04-22T12:37:28.542Z</time></trkpt><trkpt lat="44.1602667" lon="8.1089267"><ele>774.0</ele><time>2026-04-22T12:37:30.542Z</time></trkpt><trkpt lat="44.1602317" lon="8.1088367"><ele>774.0</ele><time>2026-04-22T12:37:33.542Z</time></trkpt><trkpt lat="44.1601833" lon="8.1087567"><ele>769.0</ele><time>2026-04-22T12:37:37.542Z</time></trkpt><trkpt lat="44.1600933" lon="8.1087217"><ele>764.0</ele><time>2026-04-22T12:37:40.541Z</time></trkpt><trkpt lat="44.1599933" lon="8.1086833"><ele>759.0</ele><time>2026-04-22T12:37:43.542Z</time></trkpt><trkpt lat="44.1598967" lon="8.1087017"><ele>754.0</ele><time>2026-04-22T12:37:45.542Z</time></trkpt><trkpt lat="44.1598083" lon="8.108765"><ele>749.0</ele><time>2026-04-22T12:37:47.542Z</time></trkpt><trkpt lat="44.1597483" lon="8.10882"><ele>746.6666666666666</ele><time>2026-04-22T12:37:49.542Z</time></trkpt><trkpt lat="44.1596967" lon="8.1087583"><ele>744.3333333333333</ele><time>2026-04-22T12:37:52.542Z</time></trkpt><trkpt lat="44.159685" lon="8.10864"><ele>742.0</ele><time>2026-04-22T12:37:54.542Z</time></trkpt><trkpt lat="44.1596283" lon="8.1085267"><ele>739.6666666666666</ele><time>2026-04-22T12:37:56.542Z</time></trkpt><trkpt lat="44.1595717" lon="8.1084483"><ele>737.3333333333334</ele><time>2026-04-22T12:37:58.542Z</time></trkpt><trkpt lat="44.1596" lon="8.1083667"><ele>735.0</ele><time>2026-04-22T12:38:14.542Z</time></trkpt><trkpt lat="44.15969" lon="8.1082883"><ele>731.0</ele><time>2026-04-22T12:38:15.542Z</time></trkpt><trkpt lat="44.1596717" lon="8.1081717"><ele>727.0</ele><time>2026-04-22T12:38:20.542Z</time></trkpt><trkpt lat="44.1596383" lon="8.1080933"><ele>723.0</ele><time>2026-04-22T12:38:23.542Z</time></trkpt><trkpt lat="44.1596367" lon="8.1080033"><ele>719.0</ele><time>2026-04-22T12:38:27.542Z</time></trkpt><trkpt lat="44.159595" lon="8.1079217"><ele>715.0</ele><time>2026-04-22T12:38:30.542Z</time></trkpt><trkpt lat="44.1595833" lon="8.1078283"><ele>711.0</ele><time>2026-04-22T12:38:33.542Z</time></trkpt><trkpt lat="44.15956" lon="8.1077383"><ele>707.0</ele><time>2026-04-22T12:38:37.542Z</time></trkpt><trkpt lat="44.1596133" lon="8.10765"><ele>707.0</ele><time>2026-04-22T12:38:44.542Z</time></trkpt><trkpt lat="44.1596817" lon="8.10762"><ele>707.0</ele><time>2026-04-22T12:38:47.542Z</time></trkpt><trkpt lat="44.159735" lon="8.107675"><ele>707.0</ele><time>2026-04-22T12:38:50.542Z</time></trkpt><trkpt lat="44.15981" lon="8.1076867"><ele>707.0</ele><time>2026-04-22T12:38:53.542Z</time></trkpt><trkpt lat="44.1599133" lon="8.1076467"><ele>707.0</ele><time>2026-04-22T12:38:58.541Z</time></trkpt><trkpt lat="44.1599683" lon="8.1075767"><ele>707.0</ele><time>2026-04-22T12:39:01.542Z</time></trkpt><trkpt lat="44.159995" lon="8.1074933"><ele>705.4285714285714</ele><time>2026-04-22T12:39:03.542Z</time></trkpt><trkpt lat="44.16002" lon="8.10741"><ele>703.8571428571429</ele><time>2026-04-22T12:39:05.542Z</time></trkpt><trkpt lat="44.1600567" lon="8.10732"><ele>702.2857142857142</ele><time>2026-04-22T12:39:07.542Z</time></trkpt><trkpt lat="44.16009" lon="8.107245"><ele>700.7142857142858</ele><time>2026-04-22T12:39:09.542Z</time></trkpt><trkpt lat="44.1600867" lon="8.1071367"><ele>699.1428571428571</ele><time>2026-04-22T12:39:16.542Z</time></trkpt><trkpt lat="44.1600983" lon="8.1070367"><ele>697.5714285714286</ele><time>2026-04-22T12:39:19.542Z</time></trkpt><trkpt lat="44.160065" lon="8.1069567"><ele>696.0</ele><time>2026-04-22T12:39:22.542Z</time></trkpt><trkpt lat="44.1600283" lon="8.1068517"><ele>696.0</ele><time>2026-04-22T12:39:26.542Z</time></trkpt><trkpt lat="44.159945" lon="8.1068467"><ele>696.0</ele><time>2026-04-22T12:39:30.542Z</time></trkpt><trkpt lat="44.1598617" lon="8.1068367"><ele>696.0</ele><time>2026-04-22T12:39:32.542Z</time></trkpt><trkpt lat="44.15978" lon="8.106845"><ele>696.0</ele><time>2026-04-22T12:39:34.542Z</time></trkpt><trkpt lat="44.159715" lon="8.1068533"><ele>696.0</ele><time>2026-04-22T12:39:36.542Z</time></trkpt><trkpt lat="44.159645" lon="8.1068867"><ele>696.0</ele><time>2026-04-22T12:39:38.542Z</time></trkpt><trkpt lat="44.1595617" lon="8.1069"><ele>693.0</ele><time>2026-04-22T12:39:41.542Z</time></trkpt><trkpt lat="44.15946" lon="8.106835"><ele>690.0</ele><time>2026-04-22T12:39:52.542Z</time></trkpt><trkpt lat="44.159475" lon="8.1067283"><ele>687.0</ele><time>2026-04-22T12:39:56.542Z</time></trkpt><trkpt lat="44.1594083" lon="8.1066767"><ele>684.0</ele><time>2026-04-22T12:40:00.542Z</time></trkpt><trkpt lat="44.1593383" lon="8.1066617"><ele>681.0</ele><time>2026-04-22T12:40:03.541Z</time></trkpt><trkpt lat="44.1592733" lon="8.1066117"><ele>678.0</ele><time>2026-04-22T12:40:05.542Z</time></trkpt><trkpt lat="44.1592167" lon="8.106555"><ele>678.0</ele><time>2026-04-22T12:40:07.542Z</time></trkpt><trkpt lat="44.1591733" lon="8.1064767"><ele>678.0</ele><time>2026-04-22T12:40:09.542Z</time></trkpt><trkpt lat="44.1590933" lon="8.1063767"><ele>678.0</ele><time>2026-04-22T12:40:11.542Z</time></trkpt><trkpt lat="44.1590183" lon="8.1062733"><ele>678.0</ele><time>2026-04-22T12:40:13.541Z</time></trkpt><trkpt lat="44.1589917" lon="8.106185"><ele>678.0</ele><time>2026-04-22T12:40:15.542Z</time></trkpt><trkpt lat="44.158935" lon="8.1061117"><ele>678.0</ele><time>2026-04-22T12:40:19.541Z</time></trkpt><trkpt lat="44.1588533" lon="8.106075"><ele>674.8333333333334</ele><time>2026-04-22T12:40:22.541Z</time></trkpt><trkpt lat="44.158775" lon="8.1060383"><ele>671.6666666666666</ele><time>2026-04-22T12:40:24.542Z</time></trkpt><trkpt lat="44.1586967" lon="8.10597"><ele>668.5</ele><time>2026-04-22T12:40:26.541Z</time></trkpt><trkpt lat="44.15863" lon="8.1058983"><ele>665.3333333333333</ele><time>2026-04-22T12:40:28.541Z</time></trkpt><trkpt lat="44.158545" lon="8.105825"><ele>662.1666666666666</ele><time>2026-04-22T12:40:30.542Z</time></trkpt><trkpt lat="44.1584833" lon="8.1057417"><ele>659.0</ele><time>2026-04-22T12:40:32.542Z</time></trkpt><trkpt lat="44.1584183" lon="8.1057067"><ele>659.0</ele><time>2026-04-22T12:40:34.542Z</time></trkpt><trkpt lat="44.1583233" lon="8.10569"><ele>659.0</ele><time>2026-04-22T12:40:36.542Z</time></trkpt><trkpt lat="44.158285" lon="8.1056167"><ele>659.0</ele><time>2026-04-22T12:40:38.542Z</time></trkpt><trkpt lat="44.1582633" lon="8.1055267"><ele>659.0</ele><time>2026-04-22T12:40:40.542Z</time></trkpt><trkpt lat="44.1582133" lon="8.1054367"><ele>659.0</ele><time>2026-04-22T12:40:42.542Z</time></trkpt><trkpt lat="44.15819" lon="8.1053317"><ele>659.0</ele><time>2026-04-22T12:40:44.542Z</time></trkpt><trkpt lat="44.1581967" lon="8.1052183"><ele>659.0</ele><time>2026-04-22T12:40:46.542Z</time></trkpt><trkpt lat="44.15823" lon="8.1051433"><ele>659.0</ele><time>2026-04-22T12:40:48.542Z</time></trkpt><trkpt lat="44.1582333" lon="8.105045"><ele>659.0</ele><time>2026-04-22T12:40:50.542Z</time></trkpt><trkpt lat="44.1582433" lon="8.1048617"><ele>659.0</ele><time>2026-04-22T12:40:52.542Z</time></trkpt><trkpt lat="44.158255" lon="8.1047"><ele>659.0</ele><time>2026-04-22T12:40:54.542Z</time></trkpt><trkpt lat="44.1582733" lon="8.1045967"><ele>660.1666666666666</ele><time>2026-04-22T12:40:56.542Z</time></trkpt><trkpt lat="44.1582617" lon="8.1044783"><ele>661.3333333333333</ele><time>2026-04-22T12:40:58.542Z</time></trkpt><trkpt lat="44.1582033" lon="8.1043667"><ele>662.5</ele><time>2026-04-22T12:41:00.541Z</time></trkpt><trkpt lat="44.158155" lon="8.1042933"><ele>663.6666666666666</ele><time>2026-04-22T12:41:01.541Z</time></trkpt><trkpt lat="44.1581167" lon="8.1042117"><ele>664.8333333333334</ele><time>2026-04-22T12:41:02.541Z</time></trkpt><trkpt lat="44.1580883" lon="8.1041333"><ele>666.0</ele><time>2026-04-22T12:41:03.542Z</time></trkpt><trkpt lat="44.1580567" lon="8.10398"><ele>665.5999999999999</ele><time>2026-04-22T12:41:05.542Z</time></trkpt><trkpt lat="44.1580717" lon="8.103865"><ele>665.2</ele><time>2026-04-22T12:41:07.542Z</time></trkpt><trkpt lat="44.1581233" lon="8.1037733"><ele>664.8</ele><time>2026-04-22T12:41:09.542Z</time></trkpt><trkpt lat="44.1581933" lon="8.10369"><ele>664.4000000000001</ele><time>2026-04-22T12:41:11.542Z</time></trkpt><trkpt lat="44.1582583" lon="8.1035783"><ele>664.0</ele><time>2026-04-22T12:41:13.541Z</time></trkpt><trkpt lat="44.1583417" lon="8.1034733"><ele>664.0</ele><time>2026-04-22T12:41:15.542Z</time></trkpt><trkpt lat="44.158455" lon="8.1034183"><ele>664.0</ele><time>2026-04-22T12:41:17.542Z</time></trkpt><trkpt lat="44.1585067" lon="8.1033533"><ele>664.0</ele><time>2026-04-22T12:41:19.542Z</time></trkpt><trkpt lat="44.1584617" lon="8.10325"><ele>664.0</ele><time>2026-04-22T12:41:23.541Z</time></trkpt><trkpt lat="44.1583667" lon="8.10314"><ele>664.0</ele><time>2026-04-22T12:41:25.542Z</time></trkpt><trkpt lat="44.1582933" lon="8.1030833"><ele>662.1666666666667</ele><time>2026-04-22T12:41:26.542Z</time></trkpt><trkpt lat="44.1582133" lon="8.1030183"><ele>660.3333333333334</ele><time>2026-04-22T12:41:27.542Z</time></trkpt><trkpt lat="44.1581367" lon="8.1029567"><ele>658.5</ele><time>2026-04-22T12:41:28.542Z</time></trkpt><trkpt lat="44.1580783" lon="8.1028783"><ele>656.6666666666666</ele><time>2026-04-22T12:41:29.542Z</time></trkpt><trkpt lat="44.1580317" lon="8.10281"><ele>654.8333333333333</ele><time>2026-04-22T12:41:30.542Z</time></trkpt><trkpt lat="44.1580033" lon="8.10272"><ele>653.0</ele><time>2026-04-22T12:41:31.542Z</time></trkpt><trkpt lat="44.15796" lon="8.10256"><ele>653.0</ele><time>2026-04-22T12:41:33.542Z</time></trkpt><trkpt lat="44.1579633" lon="8.10247"><ele>653.0</ele><time>2026-04-22T12:41:34.541Z</time></trkpt><trkpt lat="44.1579717" lon="8.102365"><ele>653.0</ele><time>2026-04-22T12:41:35.542Z</time></trkpt><trkpt lat="44.15799" lon="8.102265"><ele>653.0</ele><time>2026-04-22T12:41:36.541Z</time></trkpt><trkpt lat="44.158015" lon="8.102165"><ele>653.0</ele><time>2026-04-22T12:41:37.541Z</time></trkpt><trkpt lat="44.15803" lon="8.1020733"><ele>653.0</ele><time>2026-04-22T12:41:38.542Z</time></trkpt><trkpt lat="44.1580667" lon="8.1019033"><ele>655.6666666666666</ele><time>2026-04-22T12:41:40.541Z</time></trkpt><trkpt lat="44.15808" lon="8.1018133"><ele>658.3333333333333</ele><time>2026-04-22T12:41:41.541Z</time></trkpt><trkpt lat="44.1580933" lon="8.1016667"><ele>661.0</ele><time>2026-04-22T12:41:43.541Z</time></trkpt><trkpt lat="44.158125" lon="8.1015483"><ele>663.6666666666666</ele><time>2026-04-22T12:41:45.542Z</time></trkpt><trkpt lat="44.1581483" lon="8.101425"><ele>666.3333333333334</ele><time>2026-04-22T12:41:47.542Z</time></trkpt><trkpt lat="44.1581483" lon="8.101335"><ele>669.0</ele><time>2026-04-22T12:41:49.542Z</time></trkpt><trkpt lat="44.1581133" lon="8.1012317"><ele>671.4000000000001</ele><time>2026-04-22T12:46:14.543Z</time></trkpt><trkpt lat="44.1580133" lon="8.101105"><ele>673.8</ele><time>2026-04-22T12:46:16.543Z</time></trkpt><trkpt lat="44.1579333" lon="8.1010267"><ele>676.2</ele><time>2026-04-22T12:46:17.543Z</time></trkpt><trkpt lat="44.15786" lon="8.100955"><ele>678.5999999999999</ele><time>2026-04-22T12:46:18.543Z</time></trkpt><trkpt lat="44.157785" lon="8.1008817"><ele>681.0</ele><time>2026-04-22T12:46:19.543Z</time></trkpt><trkpt lat="44.1577033" lon="8.1008317"><ele>681.0</ele><time>2026-04-22T12:46:20.543Z</time></trkpt><trkpt lat="44.1576283" lon="8.10079"><ele>681.0</ele><time>2026-04-22T12:46:21.543Z</time></trkpt><trkpt lat="44.157565" lon="8.1007683"><ele>681.0</ele><time>2026-04-22T12:46:22.543Z</time></trkpt><trkpt lat="44.1574633" lon="8.1007233"><ele>681.0</ele><time>2026-04-22T12:46:24.543Z</time></trkpt><trkpt lat="44.1573933" lon="8.1007"><ele>681.0</ele><time>2026-04-22T12:46:25.543Z</time></trkpt><trkpt lat="44.1573133" lon="8.1006867"><ele>681.0</ele><time>2026-04-22T12:46:26.543Z</time></trkpt><trkpt lat="44.1572317" lon="8.10066"><ele>684.0</ele><time>2026-04-22T12:46:27.543Z</time></trkpt><trkpt lat="44.1571333" lon="8.1006183"><ele>687.0</ele><time>2026-04-22T12:46:28.543Z</time></trkpt><trkpt lat="44.15703" lon="8.1005917"><ele>690.0</ele><time>2026-04-22T12:46:29.543Z</time></trkpt><trkpt lat="44.1569417" lon="8.100565"><ele>693.0</ele><time>2026-04-22T12:46:30.543Z</time></trkpt><trkpt lat="44.1568733" lon="8.1005567"><ele>696.0</ele><time>2026-04-22T12:46:31.542Z</time></trkpt><trkpt lat="44.1568083" lon="8.1005833"><ele>699.0</ele><time>2026-04-22T12:46:32.542Z</time></trkpt><trkpt lat="44.156745" lon="8.1006467"><ele>699.25</ele><time>2026-04-22T12:46:33.543Z</time></trkpt><trkpt lat="44.1566767" lon="8.100755"><ele>699.5</ele><time>2026-04-22T12:46:34.543Z</time></trkpt><trkpt lat="44.1566" lon="8.1008767"><ele>699.75</ele><time>2026-04-22T12:46:35.542Z</time></trkpt><trkpt lat="44.1565117" lon="8.101015"><ele>700.0</ele><time>2026-04-22T12:46:36.543Z</time></trkpt><trkpt lat="44.1564033" lon="8.10113"><ele>700.0</ele><time>2026-04-22T12:46:37.543Z</time></trkpt><trkpt lat="44.1562983" lon="8.10122"><ele>700.0</ele><time>2026-04-22T12:46:38.543Z</time></trkpt><trkpt lat="44.1561983" lon="8.1013033"><ele>700.0</ele><time>2026-04-22T12:46:39.543Z</time></trkpt><trkpt lat="44.1561083" lon="8.1013733"><ele>700.0</ele><time>2026-04-22T12:46:40.543Z</time></trkpt><trkpt lat="44.15603" lon="8.1014383"><ele>700.0</ele><time>2026-04-22T12:46:41.543Z</time></trkpt><trkpt lat="44.1559583" lon="8.10151"><ele>700.0</ele><time>2026-04-22T12:46:42.543Z</time></trkpt><trkpt lat="44.1558783" lon="8.1015767"><ele>700.0</ele><time>2026-04-22T12:46:43.543Z</time></trkpt><trkpt lat="44.1557933" lon="8.1016017"><ele>700.0</ele><time>2026-04-22T12:46:44.543Z</time></trkpt><trkpt lat="44.1557283" lon="8.10161"><ele>700.0</ele><time>2026-04-22T12:46:45.543Z</time></trkpt><trkpt lat="44.1556" lon="8.1015717"><ele>700.0</ele><time>2026-04-22T12:46:47.543Z</time></trkpt><trkpt lat="44.1555383" lon="8.101535"><ele>700.0</ele><time>2026-04-22T12:46:48.542Z</time></trkpt><trkpt lat="44.1554767" lon="8.1015"><ele>696.8333333333334</ele><time>2026-04-22T12:46:49.543Z</time></trkpt><trkpt lat="44.15542" lon="8.1014467"><ele>693.6666666666667</ele><time>2026-04-22T12:46:50.543Z</time></trkpt><trkpt lat="44.1553717" lon="8.1013833"><ele>690.5</ele><time>2026-04-22T12:46:51.543Z</time></trkpt><trkpt lat="44.155325" lon="8.101305"><ele>687.3333333333334</ele><time>2026-04-22T12:46:52.543Z</time></trkpt><trkpt lat="44.15527" lon="8.101225"><ele>684.1666666666666</ele><time>2026-04-22T12:46:53.543Z</time></trkpt><trkpt lat="44.1552283" lon="8.1011267"><ele>681.0</ele><time>2026-04-22T12:46:54.543Z</time></trkpt><trkpt lat="44.1551817" lon="8.10101"><ele>681.0</ele><time>2026-04-22T12:46:55.543Z</time></trkpt><trkpt lat="44.155145" lon="8.1008983"><ele>681.0</ele><time>2026-04-22T12:46:56.543Z</time></trkpt><trkpt lat="44.1551083" lon="8.1007883"><ele>681.0</ele><time>2026-04-22T12:46:57.543Z</time></trkpt><trkpt lat="44.1550683" lon="8.1006767"><ele>681.0</ele><time>2026-04-22T12:46:58.543Z</time></trkpt><trkpt lat="44.1550233" lon="8.1005733"><ele>681.0</ele><time>2026-04-22T12:46:59.543Z</time></trkpt><trkpt lat="44.1549483" lon="8.10049"><ele>681.0</ele><time>2026-04-22T12:47:01.542Z</time></trkpt><trkpt lat="44.1548483" lon="8.1005217"><ele>681.4</ele><time>2026-04-22T12:47:03.543Z</time></trkpt><trkpt lat="44.154725" lon="8.1005733"><ele>681.8</ele><time>2026-04-22T12:47:05.543Z</time></trkpt><trkpt lat="44.154655" lon="8.1005983"><ele>682.1999999999999</ele><time>2026-04-22T12:47:06.543Z</time></trkpt><trkpt lat="44.1545783" lon="8.1006467"><ele>682.5999999999999</ele><time>2026-04-22T12:47:07.543Z</time></trkpt><trkpt lat="44.1545067" lon="8.1007117"><ele>683.0</ele><time>2026-04-22T12:47:08.543Z</time></trkpt><trkpt lat="44.1544267" lon="8.1007583"><ele>683.0</ele><time>2026-04-22T12:47:09.543Z</time></trkpt><trkpt lat="44.1543517" lon="8.1008067"><ele>683.0</ele><time>2026-04-22T12:47:10.543Z</time></trkpt><trkpt lat="44.15428" lon="8.100855"><ele>683.0</ele><time>2026-04-22T12:47:11.542Z</time></trkpt><trkpt lat="44.1542167" lon="8.1009183"><ele>683.0</ele><time>2026-04-22T12:47:12.543Z</time></trkpt><trkpt lat="44.1541517" lon="8.1009983"><ele>683.0</ele><time>2026-04-22T12:47:13.543Z</time></trkpt><trkpt lat="44.154085" lon="8.1010933"><ele>683.0</ele><time>2026-04-22T12:47:14.543Z</time></trkpt><trkpt lat="44.154015" lon="8.1011867"><ele>685.0</ele><time>2026-04-22T12:47:15.543Z</time></trkpt><trkpt lat="44.1539433" lon="8.10129"><ele>687.0</ele><time>2026-04-22T12:47:16.543Z</time></trkpt><trkpt lat="44.15387" lon="8.101395"><ele>689.0</ele><time>2026-04-22T12:47:17.543Z</time></trkpt><trkpt lat="44.153795" lon="8.1015017"><ele>691.0</ele><time>2026-04-22T12:47:18.543Z</time></trkpt><trkpt lat="44.1537167" lon="8.1015783"><ele>693.0</ele><time>2026-04-22T12:47:19.542Z</time></trkpt><trkpt lat="44.15364" lon="8.1016383"><ele>693.0</ele><time>2026-04-22T12:47:20.543Z</time></trkpt><trkpt lat="44.153575" lon="8.101695"><ele>693.0</ele><time>2026-04-22T12:47:21.543Z</time></trkpt><trkpt lat="44.1535117" lon="8.1017117"><ele>693.0</ele><time>2026-04-22T12:47:22.543Z</time></trkpt><trkpt lat="44.1534167" lon="8.1016567"><ele>693.0</ele><time>2026-04-22T12:47:24.542Z</time></trkpt><trkpt lat="44.15338" lon="8.1015817"><ele>693.0</ele><time>2026-04-22T12:47:25.543Z</time></trkpt><trkpt lat="44.153355" lon="8.1014767"><ele>693.0</ele><time>2026-04-22T12:47:26.543Z</time></trkpt><trkpt lat="44.1533233" lon="8.1013867"><ele>693.0</ele><time>2026-04-22T12:47:27.543Z</time></trkpt><trkpt lat="44.153245" lon="8.10129"><ele>693.0</ele><time>2026-04-22T12:47:29.543Z</time></trkpt><trkpt lat="44.1531717" lon="8.1012967"><ele>693.0</ele><time>2026-04-22T12:47:30.543Z</time></trkpt><trkpt lat="44.153085" lon="8.1013217"><ele>693.0</ele><time>2026-04-22T12:47:31.543Z</time></trkpt><trkpt lat="44.1529883" lon="8.1013517"><ele>693.0</ele><time>2026-04-22T12:47:32.543Z</time></trkpt><trkpt lat="44.1529" lon="8.101355"><ele>690.8333333333334</ele><time>2026-04-22T12:47:33.543Z</time></trkpt><trkpt lat="44.1528133" lon="8.10136"><ele>688.6666666666666</ele><time>2026-04-22T12:47:34.543Z</time></trkpt><trkpt lat="44.152725" lon="8.1013283"><ele>686.5</ele><time>2026-04-22T12:47:35.543Z</time></trkpt><trkpt lat="44.1526433" lon="8.10129"><ele>684.3333333333333</ele><time>2026-04-22T12:47:36.543Z</time></trkpt><trkpt lat="44.1525717" lon="8.1012433"><ele>682.1666666666666</ele><time>2026-04-22T12:47:37.543Z</time></trkpt><trkpt lat="44.1525167" lon="8.1011917"><ele>680.0</ele><time>2026-04-22T12:47:38.543Z</time></trkpt><trkpt lat="44.1524717" lon="8.1011083"><ele>680.0</ele><time>2026-04-22T12:47:39.543Z</time></trkpt><trkpt lat="44.152415" lon="8.1010167"><ele>680.0</ele><time>2026-04-22T12:47:40.543Z</time></trkpt><trkpt lat="44.1523367" lon="8.1009317"><ele>680.0</ele><time>2026-04-22T12:47:41.543Z</time></trkpt><trkpt lat="44.1522533" lon="8.1008567"><ele>680.0</ele><time>2026-04-22T12:47:42.543Z</time></trkpt><trkpt lat="44.15217" lon="8.1007883"><ele>680.0</ele><time>2026-04-22T12:47:43.543Z</time></trkpt><trkpt lat="44.1520883" lon="8.1007317"><ele>676.8</ele><time>2026-04-22T12:47:44.543Z</time></trkpt><trkpt lat="44.1520183" lon="8.10069"><ele>673.6</ele><time>2026-04-22T12:47:45.543Z</time></trkpt><trkpt lat="44.1519433" lon="8.1006767"><ele>670.4000000000001</ele><time>2026-04-22T12:47:46.543Z</time></trkpt><trkpt lat="44.1518517" lon="8.10069"><ele>667.2</ele><time>2026-04-22T12:47:47.543Z</time></trkpt><trkpt lat="44.1517367" lon="8.100705"><ele>664.0</ele><time>2026-04-22T12:47:48.543Z</time></trkpt><trkpt lat="44.1516133" lon="8.1007067"><ele>657.2</ele><time>2026-04-22T12:47:49.543Z</time></trkpt><trkpt lat="44.15149" lon="8.100725"><ele>650.4000000000001</ele><time>2026-04-22T12:47:50.543Z</time></trkpt><trkpt lat="44.1513867" lon="8.1007267"><ele>643.6</ele><time>2026-04-22T12:47:51.542Z</time></trkpt><trkpt lat="44.1512833" lon="8.100735"><ele>636.8</ele><time>2026-04-22T12:47:52.543Z</time></trkpt><trkpt lat="44.1512" lon="8.1007333"><ele>630.0</ele><time>2026-04-22T12:47:53.542Z</time></trkpt><trkpt lat="44.1511333" lon="8.1007383"><ele>630.0</ele><time>2026-04-22T12:47:54.543Z</time></trkpt><trkpt lat="44.1510667" lon="8.1007733"><ele>630.0</ele><time>2026-04-22T12:47:56.542Z</time></trkpt><trkpt lat="44.1509983" lon="8.100735"><ele>630.0</ele><time>2026-04-22T12:47:59.543Z</time></trkpt><trkpt lat="44.1509417" lon="8.1006667"><ele>630.0</ele><time>2026-04-22T12:48:01.542Z</time></trkpt><trkpt lat="44.1508683" lon="8.1006067"><ele>630.0</ele><time>2026-04-22T12:48:03.543Z</time></trkpt><trkpt lat="44.15078" lon="8.1005667"><ele>630.0</ele><time>2026-04-22T12:48:05.543Z</time></trkpt><trkpt lat="44.1507117" lon="8.1005433"><ele>628.0</ele><time>2026-04-22T12:48:07.542Z</time></trkpt><trkpt lat="44.15059" lon="8.10061"><ele>626.0</ele><time>2026-04-22T12:48:51.543Z</time></trkpt><trkpt lat="44.1505183" lon="8.10062"><ele>624.0</ele><time>2026-04-22T12:48:57.543Z</time></trkpt><trkpt lat="44.15045" lon="8.1006467"><ele>622.0</ele><time>2026-04-22T12:48:59.542Z</time></trkpt><trkpt lat="44.15037" lon="8.1006867"><ele>620.0</ele><time>2026-04-22T12:49:04.542Z</time></trkpt><trkpt lat="44.1502833" lon="8.1007033"><ele>618.0</ele><time>2026-04-22T12:49:07.543Z</time></trkpt><trkpt lat="44.1502167" lon="8.1007167"><ele>619.5714285714287</ele><time>2026-04-22T12:49:09.543Z</time></trkpt><trkpt lat="44.150155" lon="8.10075"><ele>621.1428571428571</ele><time>2026-04-22T12:49:11.543Z</time></trkpt><trkpt lat="44.1500867" lon="8.100755"><ele>622.7142857142858</ele><time>2026-04-22T12:49:14.543Z</time></trkpt><trkpt lat="44.1500233" lon="8.100755"><ele>624.2857142857143</ele><time>2026-04-22T12:49:16.542Z</time></trkpt><trkpt lat="44.1499583" lon="8.1007733"><ele>625.8571428571429</ele><time>2026-04-22T12:49:18.543Z</time></trkpt><trkpt lat="44.1499033" lon="8.1008417"><ele>627.4285714285714</ele><time>2026-04-22T12:49:21.543Z</time></trkpt><trkpt lat="44.1498533" lon="8.1009133"><ele>629.0</ele><time>2026-04-22T12:49:24.543Z</time></trkpt><trkpt lat="44.1497867" lon="8.1009267"><ele>629.0</ele><time>2026-04-22T12:49:33.543Z</time></trkpt><trkpt lat="44.1496917" lon="8.1009667"><ele>629.0</ele><time>2026-04-22T12:49:36.543Z</time></trkpt><trkpt lat="44.1496267" lon="8.1009917"><ele>629.0</ele><time>2026-04-22T12:49:40.543Z</time></trkpt><trkpt lat="44.1495517" lon="8.1010517"><ele>629.0</ele><time>2026-04-22T12:49:47.542Z</time></trkpt><trkpt lat="44.1494967" lon="8.1011167"><ele>629.0</ele><time>2026-04-22T12:49:49.543Z</time></trkpt><trkpt lat="44.1494467" lon="8.1011833"><ele>629.0</ele><time>2026-04-22T12:49:51.543Z</time></trkpt><trkpt lat="44.14939" lon="8.1012783"><ele>629.0</ele><time>2026-04-22T12:49:54.542Z</time></trkpt><trkpt lat="44.14934" lon="8.1013617"><ele>629.0</ele><time>2026-04-22T12:49:57.543Z</time></trkpt><trkpt lat="44.1492717" lon="8.1014533"><ele>629.0</ele><time>2026-04-22T12:50:00.543Z</time></trkpt><trkpt lat="44.14921" lon="8.10149"><ele>629.0</ele><time>2026-04-22T12:50:04.543Z</time></trkpt><trkpt lat="44.1491383" lon="8.1016467"><ele>629.0</ele><time>2026-04-22T12:50:48.542Z</time></trkpt><trkpt lat="44.1490783" lon="8.1016833"><ele>629.0</ele><time>2026-04-22T12:50:54.542Z</time></trkpt><trkpt lat="44.149005" lon="8.1017167"><ele>628.3333333333333</ele><time>2026-04-22T12:50:57.543Z</time></trkpt><trkpt lat="44.1489367" lon="8.10178"><ele>627.6666666666666</ele><time>2026-04-22T12:51:00.543Z</time></trkpt><trkpt lat="44.1488533" lon="8.101835"><ele>627.0</ele><time>2026-04-22T12:51:08.543Z</time></trkpt><trkpt lat="44.1487733" lon="8.1018583"><ele>626.3333333333334</ele><time>2026-04-22T12:51:11.543Z</time></trkpt><trkpt lat="44.148695" lon="8.1018567"><ele>625.6666666666667</ele><time>2026-04-22T12:51:14.543Z</time></trkpt><trkpt lat="44.148625" lon="8.1018183"><ele>625.0</ele><time>2026-04-22T12:51:17.542Z</time></trkpt><trkpt lat="44.1485483" lon="8.101855"><ele>625.0</ele><time>2026-04-22T12:51:21.542Z</time></trkpt><trkpt lat="44.1484767" lon="8.1018983"><ele>625.0</ele><time>2026-04-22T12:51:24.543Z</time></trkpt><trkpt lat="44.1484167" lon="8.101925"><ele>625.0</ele><time>2026-04-22T12:51:26.543Z</time></trkpt><trkpt lat="44.14834" lon="8.1019567"><ele>625.0</ele><time>2026-04-22T12:51:29.543Z</time></trkpt><trkpt lat="44.14825" lon="8.1019283"><ele>625.0</ele><time>2026-04-22T12:51:32.543Z</time></trkpt><trkpt lat="44.1481867" lon="8.101865"><ele>625.0</ele><time>2026-04-22T12:51:34.543Z</time></trkpt><trkpt lat="44.1480983" lon="8.1018083"><ele>620.5</ele><time>2026-04-22T12:51:36.543Z</time></trkpt><trkpt lat="44.1479933" lon="8.1017717"><ele>616.0</ele><time>2026-04-22T12:51:38.543Z</time></trkpt><trkpt lat="44.1478967" lon="8.1017917"><ele>611.5</ele><time>2026-04-22T12:51:40.542Z</time></trkpt><trkpt lat="44.1478283" lon="8.1018333"><ele>607.0</ele><time>2026-04-22T12:51:42.543Z</time></trkpt><trkpt lat="44.14774" lon="8.1018667"><ele>602.5</ele><time>2026-04-22T12:51:45.544Z</time></trkpt><trkpt lat="44.14769" lon="8.10181"><ele>598.0</ele><time>2026-04-22T12:51:50.544Z</time></trkpt><trkpt lat="44.1476117" lon="8.10182"><ele>598.0</ele><time>2026-04-22T12:51:54.544Z</time></trkpt><trkpt lat="44.1475583" lon="8.1018867"><ele>598.0</ele><time>2026-04-22T12:51:57.544Z</time></trkpt><trkpt lat="44.14755" lon="8.101975"><ele>598.0</ele><time>2026-04-22T12:52:00.544Z</time></trkpt><trkpt lat="44.1475067" lon="8.1020633"><ele>598.0</ele><time>2026-04-22T12:52:03.544Z</time></trkpt><trkpt lat="44.14746" lon="8.1021517"><ele>598.0</ele><time>2026-04-22T12:52:14.544Z</time></trkpt><trkpt lat="44.1473967" lon="8.1022217"><ele>598.0</ele><time>2026-04-22T12:52:16.544Z</time></trkpt><trkpt lat="44.14735" lon="8.1023167"><ele>596.0</ele><time>2026-04-22T12:52:18.544Z</time></trkpt><trkpt lat="44.1472917" lon="8.1024217"><ele>594.0</ele><time>2026-04-22T12:52:20.544Z</time></trkpt><trkpt lat="44.147245" lon="8.1024967"><ele>592.0</ele><time>2026-04-22T12:52:22.544Z</time></trkpt><trkpt lat="44.14721" lon="8.1025883"><ele>590.0</ele><time>2026-04-22T12:52:27.544Z</time></trkpt><trkpt lat="44.1471667" lon="8.1027033"><ele>588.0</ele><time>2026-04-22T12:52:30.544Z</time></trkpt><trkpt lat="44.1471317" lon="8.1028167"><ele>586.0</ele><time>2026-04-22T12:52:33.543Z</time></trkpt><trkpt lat="44.14706" lon="8.1028833"><ele>586.0</ele><time>2026-04-22T12:52:36.544Z</time></trkpt><trkpt lat="44.14698" lon="8.1028983"><ele>586.0</ele><time>2026-04-22T12:52:38.544Z</time></trkpt><trkpt lat="44.14688" lon="8.10294"><ele>586.0</ele><time>2026-04-22T12:52:40.543Z</time></trkpt><trkpt lat="44.1468" lon="8.1029817"><ele>586.0</ele><time>2026-04-22T12:52:42.544Z</time></trkpt><trkpt lat="44.1467333" lon="8.1030367"><ele>586.0</ele><time>2026-04-22T12:52:46.544Z</time></trkpt><trkpt lat="44.1466433" lon="8.10307"><ele>586.0</ele><time>2026-04-22T12:52:49.544Z</time></trkpt><trkpt lat="44.146575" lon="8.1030617"><ele>583.9999999999999</ele><time>2026-04-22T12:52:51.544Z</time></trkpt><trkpt lat="44.146505" lon="8.103045"><ele>582.0</ele><time>2026-04-22T12:52:53.544Z</time></trkpt><trkpt lat="44.1464217" lon="8.1030067"><ele>580.0</ele><time>2026-04-22T12:52:56.544Z</time></trkpt><trkpt lat="44.1463583" lon="8.102955"><ele>578.0</ele><time>2026-04-22T12:52:59.544Z</time></trkpt><trkpt lat="44.1463017" lon="8.102915"><ele>576.0</ele><time>2026-04-22T12:53:02.544Z</time></trkpt><trkpt lat="44.14624" lon="8.1028783"><ele>573.9999999999999</ele><time>2026-04-22T12:53:06.543Z</time></trkpt><trkpt lat="44.146175" lon="8.1028617"><ele>572.0</ele><time>2026-04-22T12:53:08.544Z</time></trkpt><trkpt lat="44.14611" lon="8.1028433"><ele>572.0</ele><time>2026-04-22T12:53:11.544Z</time></trkpt><trkpt lat="44.14605" lon="8.1028083"><ele>572.0</ele><time>2026-04-22T12:53:15.543Z</time></trkpt><trkpt lat="44.1459833" lon="8.1027617"><ele>572.0</ele><time>2026-04-22T12:53:18.543Z</time></trkpt><trkpt lat="44.1458933" lon="8.10275"><ele>572.0</ele><time>2026-04-22T12:53:21.543Z</time></trkpt><trkpt lat="44.1458017" lon="8.1027767"><ele>572.0</ele><time>2026-04-22T12:53:24.543Z</time></trkpt><trkpt lat="44.1457183" lon="8.1028017"><ele>572.0</ele><time>2026-04-22T12:53:26.544Z</time></trkpt><trkpt lat="44.1456383" lon="8.1028333"><ele>570.8000000000001</ele><time>2026-04-22T12:53:28.544Z</time></trkpt><trkpt lat="44.1455533" lon="8.1028617"><ele>569.6</ele><time>2026-04-22T12:53:30.544Z</time></trkpt><trkpt lat="44.14545" lon="8.10291"><ele>568.4000000000001</ele><time>2026-04-22T12:53:32.544Z</time></trkpt><trkpt lat="44.145345" lon="8.1029383"><ele>567.2</ele><time>2026-04-22T12:53:34.543Z</time></trkpt><trkpt lat="44.1452717" lon="8.1029467"><ele>566.0</ele><time>2026-04-22T12:53:36.544Z</time></trkpt><trkpt lat="44.145175" lon="8.1029733"><ele>566.0</ele><time>2026-04-22T12:53:39.544Z</time></trkpt><trkpt lat="44.1450883" lon="8.1030017"><ele>566.0</ele><time>2026-04-22T12:53:41.544Z</time></trkpt><trkpt lat="44.145" lon="8.1029867"><ele>566.0</ele><time>2026-04-22T12:53:43.544Z</time></trkpt><trkpt lat="44.1449167" lon="8.1030067"><ele>566.0</ele><time>2026-04-22T12:53:45.544Z</time></trkpt><trkpt lat="44.14483" lon="8.10303"><ele>566.0</ele><time>2026-04-22T12:53:47.544Z</time></trkpt><trkpt lat="44.1447317" lon="8.1030567"><ele>564.6666666666666</ele><time>2026-04-22T12:53:49.543Z</time></trkpt><trkpt lat="44.1446583" lon="8.1030833"><ele>563.3333333333333</ele><time>2026-04-22T12:53:51.544Z</time></trkpt><trkpt lat="44.1445833" lon="8.10311"><ele>562.0</ele><time>2026-04-22T12:53:53.544Z</time></trkpt><trkpt lat="44.1445033" lon="8.10313"><ele>560.6666666666666</ele><time>2026-04-22T12:53:55.544Z</time></trkpt><trkpt lat="44.1444333" lon="8.10315"><ele>559.3333333333334</ele><time>2026-04-22T12:53:57.544Z</time></trkpt><trkpt lat="44.1443617" lon="8.1031283"><ele>558.0</ele><time>2026-04-22T12:54:00.544Z</time></trkpt><trkpt lat="44.1442783" lon="8.1031417"><ele>558.0</ele><time>2026-04-22T12:54:02.544Z</time></trkpt><trkpt lat="44.1442033" lon="8.1031233"><ele>558.0</ele><time>2026-04-22T12:54:04.544Z</time></trkpt><trkpt lat="44.1441183" lon="8.103175"><ele>558.0</ele><time>2026-04-22T12:54:07.544Z</time></trkpt><trkpt lat="44.144065" lon="8.103245"><ele>558.0</ele><time>2026-04-22T12:54:35.544Z</time></trkpt><trkpt lat="44.1440083" lon="8.1033483"><ele>558.0</ele><time>2026-04-22T12:54:38.544Z</time></trkpt><trkpt lat="44.14397" lon="8.1034283"><ele>558.0</ele><time>2026-04-22T12:54:40.544Z</time></trkpt><trkpt lat="44.14394" lon="8.1035067"><ele>554.9999999999999</ele><time>2026-04-22T12:54:42.544Z</time></trkpt><trkpt lat="44.1438933" lon="8.103575"><ele>552.0</ele><time>2026-04-22T12:54:44.543Z</time></trkpt><trkpt lat="44.1438333" lon="8.103675"><ele>549.0</ele><time>2026-04-22T12:54:47.544Z</time></trkpt><trkpt lat="44.143795" lon="8.103745"><ele>546.0</ele><time>2026-04-22T12:54:49.543Z</time></trkpt><trkpt lat="44.1437383" lon="8.103795"><ele>543.0</ele><time>2026-04-22T12:54:52.544Z</time></trkpt><trkpt lat="44.143665" lon="8.1037783"><ele>539.9999999999999</ele><time>2026-04-22T12:54:56.544Z</time></trkpt><trkpt lat="44.1435983" lon="8.1038317"><ele>537.0</ele><time>2026-04-22T12:54:58.544Z</time></trkpt><trkpt lat="44.1435467" lon="8.103885"><ele>537.0</ele><time>2026-04-22T12:54:59.544Z</time></trkpt><trkpt lat="44.1434683" lon="8.1039967"><ele>537.0</ele><time>2026-04-22T12:55:01.544Z</time></trkpt><trkpt lat="44.1434417" lon="8.1040883"><ele>537.0</ele><time>2026-04-22T12:55:03.543Z</time></trkpt><trkpt lat="44.1433917" lon="8.1041467"><ele>537.0</ele><time>2026-04-22T12:55:06.544Z</time></trkpt><trkpt lat="44.1433167" lon="8.1042083"><ele>537.0</ele><time>2026-04-22T12:55:09.544Z</time></trkpt><trkpt lat="44.1432533" lon="8.1042317"><ele>537.0</ele><time>2026-04-22T12:55:11.543Z</time></trkpt><trkpt lat="44.1431983" lon="8.1042767"><ele>532.6666666666666</ele><time>2026-04-22T12:55:13.543Z</time></trkpt><trkpt lat="44.143135" lon="8.1043167"><ele>528.3333333333334</ele><time>2026-04-22T12:55:15.544Z</time></trkpt><trkpt lat="44.143055" lon="8.104355"><ele>524.0</ele><time>2026-04-22T12:55:18.544Z</time></trkpt><trkpt lat="44.1430033" lon="8.1044083"><ele>519.6666666666667</ele><time>2026-04-22T12:55:20.543Z</time></trkpt><trkpt lat="44.1429367" lon="8.1044617"><ele>515.3333333333334</ele><time>2026-04-22T12:55:22.544Z</time></trkpt><trkpt lat="44.14287" lon="8.10454"><ele>511.0</ele><time>2026-04-22T12:55:25.544Z</time></trkpt><trkpt lat="44.1427867" lon="8.1045967"><ele>511.00000000000006</ele><time>2026-04-22T12:55:28.544Z</time></trkpt><trkpt lat="44.1427267" lon="8.1046417"><ele>511.0</ele><time>2026-04-22T12:55:30.544Z</time></trkpt><trkpt lat="44.1426433" lon="8.1047167"><ele>511.0</ele><time>2026-04-22T12:55:33.544Z</time></trkpt><trkpt lat="44.142575" lon="8.1047983"><ele>511.0</ele><time>2026-04-22T12:55:35.544Z</time></trkpt><trkpt lat="44.1425233" lon="8.1048983"><ele>511.00000000000006</ele><time>2026-04-22T12:55:37.544Z</time></trkpt><trkpt lat="44.1424917" lon="8.104995"><ele>511.0</ele><time>2026-04-22T12:55:40.544Z</time></trkpt><trkpt lat="44.1424417" lon="8.1050833"><ele>508.6666666666667</ele><time>2026-04-22T12:55:44.543Z</time></trkpt><trkpt lat="44.1423817" lon="8.1051583"><ele>506.33333333333337</ele><time>2026-04-22T12:55:50.544Z</time></trkpt><trkpt lat="44.142315" lon="8.1052183"><ele>504.0</ele><time>2026-04-22T12:55:59.544Z</time></trkpt><trkpt lat="44.142245" lon="8.1052417"><ele>501.66666666666663</ele><time>2026-04-22T12:56:02.543Z</time></trkpt><trkpt lat="44.142185" lon="8.10528"><ele>499.3333333333333</ele><time>2026-04-22T12:56:05.544Z</time></trkpt><trkpt lat="44.14213" lon="8.1053567"><ele>497.0</ele><time>2026-04-22T12:56:09.544Z</time></trkpt><trkpt lat="44.142055" lon="8.1053667"><ele>497.0</ele><time>2026-04-22T12:56:36.544Z</time></trkpt><trkpt lat="44.1420117" lon="8.1052867"><ele>497.0</ele><time>2026-04-22T12:56:38.544Z</time></trkpt><trkpt lat="44.1419783" lon="8.1052117"><ele>497.0</ele><time>2026-04-22T12:56:40.544Z</time></trkpt><trkpt lat="44.14191" lon="8.1052233"><ele>497.0</ele><time>2026-04-22T12:56:58.543Z</time></trkpt><trkpt lat="44.1418567" lon="8.1052867"><ele>497.0</ele><time>2026-04-22T12:57:01.544Z</time></trkpt><trkpt lat="44.1418083" lon="8.1053667"><ele>497.0</ele><time>2026-04-22T12:57:05.543Z</time></trkpt><trkpt lat="44.141735" lon="8.1053667"><ele>497.0</ele><time>2026-04-22T12:57:10.543Z</time></trkpt><trkpt lat="44.141675" lon="8.1054217"><ele>496.99999999999994</ele><time>2026-04-22T12:57:13.544Z</time></trkpt><trkpt lat="44.141595" lon="8.10547"><ele>497.0</ele><time>2026-04-22T12:57:16.543Z</time></trkpt><trkpt lat="44.1415317" lon="8.1054983"><ele>497.0</ele><time>2026-04-22T12:57:20.543Z</time></trkpt><trkpt lat="44.1415483" lon="8.1053817"><ele>497.0</ele><time>2026-04-22T12:57:53.544Z</time></trkpt><trkpt lat="44.1415783" lon="8.1052917"><ele>496.99999999999994</ele><time>2026-04-22T12:58:21.544Z</time></trkpt><trkpt lat="44.1414883" lon="8.1053117"><ele>497.0</ele><time>2026-04-22T12:58:24.543Z</time></trkpt><trkpt lat="44.1414367" lon="8.105365"><ele>490.57142857142856</ele><time>2026-04-22T12:58:27.543Z</time></trkpt><trkpt lat="44.14137" lon="8.1053983"><ele>484.1428571428571</ele><time>2026-04-22T12:58:31.544Z</time></trkpt><trkpt lat="44.1413183" lon="8.105465"><ele>477.7142857142857</ele><time>2026-04-22T12:58:35.544Z</time></trkpt><trkpt lat="44.1412483" lon="8.10548"><ele>471.2857142857143</ele><time>2026-04-22T12:58:39.543Z</time></trkpt><trkpt lat="44.14116" lon="8.10552"><ele>464.85714285714283</ele><time>2026-04-22T12:58:42.544Z</time></trkpt><trkpt lat="44.14109" lon="8.105525"><ele>458.42857142857144</ele><time>2026-04-22T12:58:44.543Z</time></trkpt><trkpt lat="44.1410183" lon="8.105545"><ele>452.0</ele><time>2026-04-22T12:58:47.544Z</time></trkpt><trkpt lat="44.14094" lon="8.10555"><ele>452.0</ele><time>2026-04-22T12:58:50.543Z</time></trkpt><trkpt lat="44.140885" lon="8.105595"><ele>452.0</ele><time>2026-04-22T12:58:53.544Z</time></trkpt><trkpt lat="44.140835" lon="8.1056633"><ele>452.0</ele><time>2026-04-22T12:58:56.544Z</time></trkpt><trkpt lat="44.1407667" lon="8.105725"><ele>452.0</ele><time>2026-04-22T12:58:59.544Z</time></trkpt><trkpt lat="44.1407033" lon="8.1057667"><ele>452.0</ele><time>2026-04-22T12:59:01.544Z</time></trkpt><trkpt lat="44.1406417" lon="8.1058033"><ele>452.0</ele><time>2026-04-22T12:59:03.544Z</time></trkpt><trkpt lat="44.140575" lon="8.105845"><ele>452.0</ele><time>2026-04-22T12:59:05.544Z</time></trkpt><trkpt lat="44.1405017" lon="8.10589"><ele>449.8333333333333</ele><time>2026-04-22T12:59:08.544Z</time></trkpt><trkpt lat="44.1404467" lon="8.1059367"><ele>447.66666666666663</ele><time>2026-04-22T12:59:10.544Z</time></trkpt><trkpt lat="44.1403883" lon="8.105995"><ele>445.5</ele><time>2026-04-22T12:59:12.543Z</time></trkpt><trkpt lat="44.14033" lon="8.1060383"><ele>443.33333333333337</ele><time>2026-04-22T12:59:14.544Z</time></trkpt><trkpt lat="44.1402667" lon="8.106125"><ele>441.1666666666667</ele><time>2026-04-22T12:59:17.544Z</time></trkpt><trkpt lat="44.140165" lon="8.1061717"><ele>439.0</ele><time>2026-04-22T12:59:44.544Z</time></trkpt><trkpt lat="44.140105" lon="8.1062183"><ele>439.00000000000006</ele><time>2026-04-22T12:59:46.543Z</time></trkpt><trkpt lat="44.14006" lon="8.1062867"><ele>439.0</ele><time>2026-04-22T12:59:48.544Z</time></trkpt><trkpt lat="44.13996" lon="8.1063617"><ele>439.0</ele><time>2026-04-22T13:01:15.545Z</time></trkpt><trkpt lat="44.1398833" lon="8.10631"><ele>439.0</ele><time>2026-04-22T13:01:18.545Z</time></trkpt><trkpt lat="44.1398583" lon="8.1062117"><ele>439.00000000000006</ele><time>2026-04-22T13:01:24.544Z</time></trkpt><trkpt lat="44.13991" lon="8.10612"><ele>439.0</ele><time>2026-04-22T13:02:31.545Z</time></trkpt><trkpt lat="44.1399817" lon="8.1059533"><ele>439.00000000000006</ele><time>2026-04-22T13:02:33.545Z</time></trkpt><trkpt lat="44.1400283" lon="8.10585"><ele>439.0</ele><time>2026-04-22T13:02:34.545Z</time></trkpt><trkpt lat="44.1400867" lon="8.10576"><ele>439.0</ele><time>2026-04-22T13:02:35.545Z</time></trkpt><trkpt lat="44.1401483" lon="8.1056633"><ele>439.0</ele><time>2026-04-22T13:02:36.545Z</time></trkpt><trkpt lat="44.1402033" lon="8.105565"><ele>439.00000000000006</ele><time>2026-04-22T13:02:37.545Z</time></trkpt><trkpt lat="44.1402633" lon="8.105475"><ele>439.0</ele><time>2026-04-22T13:02:38.544Z</time></trkpt><trkpt lat="44.1403183" lon="8.1053967"><ele>434.2</ele><time>2026-04-22T13:02:39.545Z</time></trkpt><trkpt lat="44.1403933" lon="8.1053517"><ele>429.4</ele><time>2026-04-22T13:02:40.544Z</time></trkpt><trkpt lat="44.1404683" lon="8.1053217"><ele>424.6</ele><time>2026-04-22T13:02:41.545Z</time></trkpt><trkpt lat="44.1405317" lon="8.10529"><ele>419.8</ele><time>2026-04-22T13:02:42.545Z</time></trkpt><trkpt lat="44.1406267" lon="8.1051917"><ele>415.0</ele><time>2026-04-22T13:02:44.545Z</time></trkpt><trkpt lat="44.140715" lon="8.1050617"><ele>419.0</ele><time>2026-04-22T13:02:46.545Z</time></trkpt><trkpt lat="44.1407783" lon="8.1049783"><ele>423.0</ele><time>2026-04-22T13:02:47.545Z</time></trkpt><trkpt lat="44.14086" lon="8.1048867"><ele>427.0</ele><time>2026-04-22T13:02:48.545Z</time></trkpt><trkpt lat="44.140935" lon="8.10479"><ele>431.0</ele><time>2026-04-22T13:02:49.545Z</time></trkpt><trkpt lat="44.1410067" lon="8.1046883"><ele>435.0</ele><time>2026-04-22T13:02:50.545Z</time></trkpt><trkpt lat="44.14107" lon="8.10459"><ele>435.0</ele><time>2026-04-22T13:02:51.545Z</time></trkpt><trkpt lat="44.1411267" lon="8.1044817"><ele>435.0</ele><time>2026-04-22T13:02:52.545Z</time></trkpt><trkpt lat="44.1411767" lon="8.1043567"><ele>435.0</ele><time>2026-04-22T13:02:53.545Z</time></trkpt><trkpt lat="44.1412067" lon="8.1042367"><ele>435.0</ele><time>2026-04-22T13:02:54.545Z</time></trkpt><trkpt lat="44.141215" lon="8.1041183"><ele>435.0</ele><time>2026-04-22T13:02:55.544Z</time></trkpt><trkpt lat="44.141215" lon="8.1040017"><ele>433.0</ele><time>2026-04-22T13:02:56.545Z</time></trkpt><trkpt lat="44.141225" lon="8.1039017"><ele>431.0</ele><time>2026-04-22T13:02:57.545Z</time></trkpt><trkpt lat="44.1412667" lon="8.1037383"><ele>429.0</ele><time>2026-04-22T13:02:59.544Z</time></trkpt><trkpt lat="44.1413167" lon="8.1036783"><ele>427.0</ele><time>2026-04-22T13:03:00.545Z</time></trkpt><trkpt lat="44.1413667" lon="8.103605"><ele>425.0</ele><time>2026-04-22T13:03:01.544Z</time></trkpt><trkpt lat="44.141435" lon="8.103525"><ele>423.0</ele><time>2026-04-22T13:03:02.545Z</time></trkpt><trkpt lat="44.1414833" lon="8.10342"><ele>423.0</ele><time>2026-04-22T13:03:03.544Z</time></trkpt><trkpt lat="44.1415333" lon="8.1033"><ele>423.0</ele><time>2026-04-22T13:03:04.545Z</time></trkpt><trkpt lat="44.1415867" lon="8.1031833"><ele>423.0</ele><time>2026-04-22T13:03:05.545Z</time></trkpt><trkpt lat="44.1416483" lon="8.10307"><ele>423.0</ele><time>2026-04-22T13:03:06.545Z</time></trkpt><trkpt lat="44.141705" lon="8.1029467"><ele>423.0</ele><time>2026-04-22T13:03:07.544Z</time></trkpt><trkpt lat="44.141765" lon="8.102825"><ele>423.59999999999997</ele><time>2026-04-22T13:03:08.545Z</time></trkpt><trkpt lat="44.141815" lon="8.1027067"><ele>424.2</ele><time>2026-04-22T13:03:09.545Z</time></trkpt><trkpt lat="44.14187" lon="8.1025917"><ele>424.8</ele><time>2026-04-22T13:03:10.545Z</time></trkpt><trkpt lat="44.1419267" lon="8.1024733"><ele>425.4</ele><time>2026-04-22T13:03:11.545Z</time></trkpt><trkpt lat="44.1419733" lon="8.10236"><ele>426.0</ele><time>2026-04-22T13:03:12.545Z</time></trkpt><trkpt lat="44.1420317" lon="8.1022367"><ele>426.0</ele><time>2026-04-22T13:03:13.545Z</time></trkpt><trkpt lat="44.142095" lon="8.10212"><ele>426.0</ele><time>2026-04-22T13:03:14.545Z</time></trkpt><trkpt lat="44.1421633" lon="8.1020117"><ele>426.0</ele><time>2026-04-22T13:03:15.544Z</time></trkpt><trkpt lat="44.1422383" lon="8.1019183"><ele>426.0</ele><time>2026-04-22T13:03:16.545Z</time></trkpt><trkpt lat="44.142305" lon="8.101815"><ele>426.0</ele><time>2026-04-22T13:03:17.545Z</time></trkpt><trkpt lat="44.14236" lon="8.1016867"><ele>425.8333333333333</ele><time>2026-04-22T13:03:18.545Z</time></trkpt><trkpt lat="44.142405" lon="8.101555"><ele>425.66666666666663</ele><time>2026-04-22T13:03:19.545Z</time></trkpt><trkpt lat="44.14243" lon="8.1014333"><ele>425.5</ele><time>2026-04-22T13:03:20.545Z</time></trkpt><trkpt lat="44.1424367" lon="8.10131"><ele>425.3333333333333</ele><time>2026-04-22T13:03:21.545Z</time></trkpt><trkpt lat="44.14242" lon="8.1011983"><ele>425.16666666666663</ele><time>2026-04-22T13:03:22.545Z</time></trkpt><trkpt lat="44.1423917" lon="8.101095"><ele>425.0</ele><time>2026-04-22T13:03:23.545Z</time></trkpt><trkpt lat="44.1423667" lon="8.1009767"><ele>425.0</ele><time>2026-04-22T13:03:24.545Z</time></trkpt><trkpt lat="44.1423433" lon="8.1008667"><ele>425.0</ele><time>2026-04-22T13:03:25.545Z</time></trkpt><trkpt lat="44.1423117" lon="8.100755"><ele>425.0</ele><time>2026-04-22T13:03:26.545Z</time></trkpt><trkpt lat="44.1422617" lon="8.10062"><ele>425.0</ele><time>2026-04-22T13:03:27.545Z</time></trkpt><trkpt lat="44.142215" lon="8.1005117"><ele>425.0</ele><time>2026-04-22T13:03:28.545Z</time></trkpt><trkpt lat="44.14214" lon="8.10041"><ele>424.66666666666663</ele><time>2026-04-22T13:03:30.544Z</time></trkpt><trkpt lat="44.14207" lon="8.100405"><ele>424.3333333333333</ele><time>2026-04-22T13:03:31.545Z</time></trkpt><trkpt lat="44.14198" lon="8.1003983"><ele>424.0</ele><time>2026-04-22T13:03:32.545Z</time></trkpt><trkpt lat="44.14189" lon="8.1003817"><ele>423.66666666666663</ele><time>2026-04-22T13:03:33.545Z</time></trkpt><trkpt lat="44.1418017" lon="8.1003467"><ele>423.3333333333333</ele><time>2026-04-22T13:03:34.545Z</time></trkpt><trkpt lat="44.14172" lon="8.1003"><ele>423.0</ele><time>2026-04-22T13:03:35.545Z</time></trkpt><trkpt lat="44.1416517" lon="8.1002417"><ele>423.0</ele><time>2026-04-22T13:03:36.545Z</time></trkpt><trkpt lat="44.1415883" lon="8.10018"><ele>423.0</ele><time>2026-04-22T13:03:37.545Z</time></trkpt><trkpt lat="44.141525" lon="8.10017"><ele>423.0</ele><time>2026-04-22T13:03:38.545Z</time></trkpt><trkpt lat="44.14145" lon="8.1000717"><ele>423.0</ele><time>2026-04-22T13:03:40.545Z</time></trkpt><trkpt lat="44.1414767" lon="8.0998917"><ele>423.0</ele><time>2026-04-22T13:03:42.545Z</time></trkpt><trkpt lat="44.141515" lon="8.0997683"><ele>423.3333333333333</ele><time>2026-04-22T13:03:43.545Z</time></trkpt><trkpt lat="44.1415433" lon="8.0996417"><ele>423.66666666666663</ele><time>2026-04-22T13:03:44.545Z</time></trkpt><trkpt lat="44.1415633" lon="8.09954"><ele>424.0</ele><time>2026-04-22T13:03:45.545Z</time></trkpt><trkpt lat="44.141555" lon="8.0994483"><ele>424.3333333333333</ele><time>2026-04-22T13:03:47.544Z</time></trkpt><trkpt lat="44.1415" lon="8.0995233"><ele>424.66666666666663</ele><time>2026-04-22T13:03:49.544Z</time></trkpt><trkpt lat="44.1414767" lon="8.099635"><ele>425.0</ele><time>2026-04-22T13:03:50.545Z</time></trkpt><trkpt lat="44.1414383" lon="8.0997817"><ele>420.0</ele><time>2026-04-22T13:03:51.544Z</time></trkpt><trkpt lat="44.1413833" lon="8.0999317"><ele>415.0</ele><time>2026-04-22T13:03:52.545Z</time></trkpt><trkpt lat="44.1413467" lon="8.1000817"><ele>410.0</ele><time>2026-04-22T13:03:53.545Z</time></trkpt><trkpt lat="44.1413217" lon="8.100225"><ele>405.0</ele><time>2026-04-22T13:03:54.545Z</time></trkpt><trkpt lat="44.141305" lon="8.10037"><ele>400.0</ele><time>2026-04-22T13:03:55.545Z</time></trkpt><trkpt lat="44.1412917" lon="8.1005067"><ele>400.00000000000006</ele><time>2026-04-22T13:03:56.545Z</time></trkpt><trkpt lat="44.1412867" lon="8.1006183"><ele>400.0</ele><time>2026-04-22T13:03:57.545Z</time></trkpt><trkpt lat="44.1412633" lon="8.100725"><ele>400.0</ele><time>2026-04-22T13:03:58.545Z</time></trkpt><trkpt lat="44.1412117" lon="8.1008133"><ele>400.0</ele><time>2026-04-22T13:03:59.544Z</time></trkpt><trkpt lat="44.14114" lon="8.1008817"><ele>400.00000000000006</ele><time>2026-04-22T13:04:00.545Z</time></trkpt><trkpt lat="44.1410583" lon="8.1009317"><ele>400.0</ele><time>2026-04-22T13:04:01.545Z</time></trkpt><trkpt lat="44.1409567" lon="8.1009483"><ele>401.0</ele><time>2026-04-22T13:04:02.544Z</time></trkpt><trkpt lat="44.1408517" lon="8.1009467"><ele>402.0</ele><time>2026-04-22T13:04:03.544Z</time></trkpt><trkpt lat="44.14075" lon="8.10097"><ele>403.0</ele><time>2026-04-22T13:04:04.545Z</time></trkpt><trkpt lat="44.1406617" lon="8.1010083"><ele>404.0</ele><time>2026-04-22T13:04:05.544Z</time></trkpt><trkpt lat="44.1405883" lon="8.1010817"><ele>405.0</ele><time>2026-04-22T13:04:06.545Z</time></trkpt><trkpt lat="44.1405083" lon="8.101145"><ele>402.3333333333333</ele><time>2026-04-22T13:04:07.545Z</time></trkpt><trkpt lat="44.1404383" lon="8.1011983"><ele>399.66666666666663</ele><time>2026-04-22T13:04:08.545Z</time></trkpt><trkpt lat="44.1403217" lon="8.101265"><ele>397.0</ele><time>2026-04-22T13:04:10.544Z</time></trkpt><trkpt lat="44.1402783" lon="8.1013367"><ele>394.3333333333333</ele><time>2026-04-22T13:04:11.545Z</time></trkpt><trkpt lat="44.1402517" lon="8.1014317"><ele>391.66666666666663</ele><time>2026-04-22T13:04:12.545Z</time></trkpt><trkpt lat="44.1402367" lon="8.1015283"><ele>389.0</ele><time>2026-04-22T13:04:13.545Z</time></trkpt><trkpt lat="44.14024" lon="8.10169"><ele>389.0</ele><time>2026-04-22T13:04:15.544Z</time></trkpt><trkpt lat="44.14024" lon="8.1018117"><ele>389.0</ele><time>2026-04-22T13:04:17.545Z</time></trkpt><trkpt lat="44.1402583" lon="8.101935"><ele>389.0</ele><time>2026-04-22T13:04:19.545Z</time></trkpt><trkpt lat="44.1402867" lon="8.1020733"><ele>389.0</ele><time>2026-04-22T13:04:21.545Z</time></trkpt><trkpt lat="44.1403183" lon="8.10222"><ele>389.0</ele><time>2026-04-22T13:04:23.545Z</time></trkpt><trkpt lat="44.14038" lon="8.10239"><ele>387.8333333333333</ele><time>2026-04-22T13:04:25.545Z</time></trkpt><trkpt lat="44.1403717" lon="8.1024883"><ele>386.66666666666663</ele><time>2026-04-22T13:04:26.545Z</time></trkpt><trkpt lat="44.14034" lon="8.10259"><ele>385.5</ele><time>2026-04-22T13:04:27.545Z</time></trkpt><trkpt lat="44.1402983" lon="8.1027133"><ele>384.3333333333333</ele><time>2026-04-22T13:04:29.545Z</time></trkpt><trkpt lat="44.1402417" lon="8.1026467"><ele>383.16666666666663</ele><time>2026-04-22T13:04:35.545Z</time></trkpt><trkpt lat="44.1401667" lon="8.10254"><ele>382.0</ele><time>2026-04-22T13:04:37.545Z</time></trkpt><trkpt lat="44.140105" lon="8.10248"><ele>382.0</ele><time>2026-04-22T13:04:38.545Z</time></trkpt><trkpt lat="44.1400483" lon="8.10242"><ele>382.0</ele><time>2026-04-22T13:04:39.544Z</time></trkpt><trkpt lat="44.1399917" lon="8.1023667"><ele>382.0</ele><time>2026-04-22T13:04:40.545Z</time></trkpt><trkpt lat="44.1399383" lon="8.1023167"><ele>382.0</ele><time>2026-04-22T13:04:41.545Z</time></trkpt><trkpt lat="44.1398833" lon="8.1022717"><ele>382.0</ele><time>2026-04-22T13:04:42.545Z</time></trkpt><trkpt lat="44.1397733" lon="8.1021817"><ele>382.0</ele><time>2026-04-22T13:04:44.544Z</time></trkpt><trkpt lat="44.1396817" lon="8.1020733"><ele>377.40000000000003</ele><time>2026-04-22T13:04:46.545Z</time></trkpt><trkpt lat="44.1395983" lon="8.1019417"><ele>372.8</ele><time>2026-04-22T13:04:48.545Z</time></trkpt><trkpt lat="44.1395767" lon="8.1018583"><ele>368.2</ele><time>2026-04-22T13:04:49.545Z</time></trkpt><trkpt lat="44.139625" lon="8.101695"><ele>363.6</ele><time>2026-04-22T13:04:51.545Z</time></trkpt><trkpt lat="44.13969" lon="8.1016233"><ele>359.0</ele><time>2026-04-22T13:04:52.545Z</time></trkpt><trkpt lat="44.1397717" lon="8.10158"><ele>359.0</ele><time>2026-04-22T13:04:53.545Z</time></trkpt><trkpt lat="44.139855" lon="8.1015517"><ele>359.0</ele><time>2026-04-22T13:04:54.545Z</time></trkpt><trkpt lat="44.139935" lon="8.1014933"><ele>359.0</ele><time>2026-04-22T13:04:55.545Z</time></trkpt><trkpt lat="44.1400117" lon="8.1014"><ele>359.0</ele><time>2026-04-22T13:04:56.544Z</time></trkpt><trkpt lat="44.1400667" lon="8.1012567"><ele>359.0</ele><time>2026-04-22T13:04:57.544Z</time></trkpt><trkpt lat="44.1401233" lon="8.1011067"><ele>363.6</ele><time>2026-04-22T13:04:58.545Z</time></trkpt><trkpt lat="44.1401717" lon="8.100955"><ele>368.2</ele><time>2026-04-22T13:04:59.545Z</time></trkpt><trkpt lat="44.1402267" lon="8.1008083"><ele>372.8</ele><time>2026-04-22T13:05:00.545Z</time></trkpt><trkpt lat="44.1402767" lon="8.1006867"><ele>377.40000000000003</ele><time>2026-04-22T13:05:01.545Z</time></trkpt><trkpt lat="44.1403167" lon="8.1005783"><ele>382.0</ele><time>2026-04-22T13:05:02.545Z</time></trkpt><trkpt lat="44.1403383" lon="8.100485"><ele>383.20000000000005</ele><time>2026-04-22T13:05:03.545Z</time></trkpt><trkpt lat="44.1402883" lon="8.1003717"><ele>384.4</ele><time>2026-04-22T13:05:05.545Z</time></trkpt><trkpt lat="44.1401733" lon="8.1003467"><ele>385.6</ele><time>2026-04-22T13:05:07.545Z</time></trkpt><trkpt lat="44.1401033" lon="8.1003717"><ele>386.79999999999995</ele><time>2026-04-22T13:05:08.545Z</time></trkpt><trkpt lat="44.14002" lon="8.1004133"><ele>388.0</ele><time>2026-04-22T13:05:09.545Z</time></trkpt><trkpt lat="44.139935" lon="8.1004883"><ele>381.25</ele><time>2026-04-22T13:05:10.545Z</time></trkpt><trkpt lat="44.1398367" lon="8.100575"><ele>374.5</ele><time>2026-04-22T13:05:11.545Z</time></trkpt><trkpt lat="44.1397317" lon="8.1006367"><ele>367.75</ele><time>2026-04-22T13:05:12.545Z</time></trkpt><trkpt lat="44.1396233" lon="8.1006767"><ele>361.0</ele><time>2026-04-22T13:05:13.545Z</time></trkpt><trkpt lat="44.1395117" lon="8.1006733"><ele>361.0</ele><time>2026-04-22T13:05:14.545Z</time></trkpt><trkpt lat="44.1394017" lon="8.10061"><ele>361.0</ele><time>2026-04-22T13:05:15.545Z</time></trkpt><trkpt lat="44.1393067" lon="8.100535"><ele>361.0</ele><time>2026-04-22T13:05:16.545Z</time></trkpt><trkpt lat="44.1392383" lon="8.1004533"><ele>361.0</ele><time>2026-04-22T13:05:17.544Z</time></trkpt><trkpt lat="44.13923" lon="8.1003267"><ele>361.0</ele><time>2026-04-22T13:05:18.544Z</time></trkpt><trkpt lat="44.139245" lon="8.1001933"><ele>361.0</ele><time>2026-04-22T13:05:19.545Z</time></trkpt><trkpt lat="44.13927" lon="8.1000583"><ele>361.0</ele><time>2026-04-22T13:05:20.544Z</time></trkpt><trkpt lat="44.139305" lon="8.099905"><ele>361.0</ele><time>2026-04-22T13:05:21.544Z</time></trkpt><trkpt lat="44.1393367" lon="8.099745"><ele>361.0</ele><time>2026-04-22T13:05:22.545Z</time></trkpt><trkpt lat="44.13937" lon="8.09958"><ele>359.6</ele><time>2026-04-22T13:05:23.545Z</time></trkpt><trkpt lat="44.13938" lon="8.0994233"><ele>358.20000000000005</ele><time>2026-04-22T13:05:24.545Z</time></trkpt><trkpt lat="44.1393767" lon="8.0992767"><ele>356.79999999999995</ele><time>2026-04-22T13:05:25.545Z</time></trkpt><trkpt lat="44.1393567" lon="8.0991417"><ele>355.4</ele><time>2026-04-22T13:05:26.544Z</time></trkpt><trkpt lat="44.13934" lon="8.09902"><ele>354.0</ele><time>2026-04-22T13:05:27.545Z</time></trkpt><trkpt lat="44.1393333" lon="8.0988883"><ele>352.6</ele><time>2026-04-22T13:05:28.544Z</time></trkpt><trkpt lat="44.13932" lon="8.0987617"><ele>351.2</ele><time>2026-04-22T13:05:29.545Z</time></trkpt><trkpt lat="44.1393167" lon="8.098635"><ele>349.8</ele><time>2026-04-22T13:05:30.544Z</time></trkpt><trkpt lat="44.1393167" lon="8.0984967"><ele>348.40000000000003</ele><time>2026-04-22T13:05:31.545Z</time></trkpt><trkpt lat="44.1393217" lon="8.0983667"><ele>347.0</ele><time>2026-04-22T13:05:32.545Z</time></trkpt><trkpt lat="44.139345" lon="8.0982117"><ele>344.6</ele><time>2026-04-22T13:05:33.545Z</time></trkpt><trkpt lat="44.1393783" lon="8.0980567"><ele>342.20000000000005</ele><time>2026-04-22T13:05:34.544Z</time></trkpt><trkpt lat="44.1394117" lon="8.09791"><ele>339.8</ele><time>2026-04-22T13:05:35.545Z</time></trkpt><trkpt lat="44.1394617" lon="8.0977783"><ele>337.4</ele><time>2026-04-22T13:05:36.544Z</time></trkpt><trkpt lat="44.1395217" lon="8.0976633"><ele>335.0</ele><time>2026-04-22T13:05:37.545Z</time></trkpt><trkpt lat="44.1395917" lon="8.0975817"><ele>335.0</ele><time>2026-04-22T13:05:38.545Z</time></trkpt><trkpt lat="44.1396617" lon="8.0975117"><ele>335.0</ele><time>2026-04-22T13:05:39.544Z</time></trkpt><trkpt lat="44.13972" lon="8.0974517"><ele>335.0</ele><time>2026-04-22T13:05:40.545Z</time></trkpt><trkpt lat="44.1397617" lon="8.0973517"><ele>335.0</ele><time>2026-04-22T13:05:42.545Z</time></trkpt><trkpt lat="44.13973" lon="8.0972483"><ele>335.0</ele><time>2026-04-22T13:06:25.545Z</time></trkpt><trkpt lat="44.139715" lon="8.0970933"><ele>335.0</ele><time>2026-04-22T13:06:27.544Z</time></trkpt><trkpt lat="44.1397233" lon="8.0969717"><ele>333.5</ele><time>2026-04-22T13:06:28.545Z</time></trkpt><trkpt lat="44.1397367" lon="8.0968483"><ele>332.0</ele><time>2026-04-22T13:06:29.545Z</time></trkpt><trkpt lat="44.13976" lon="8.0967283"><ele>330.5</ele><time>2026-04-22T13:06:30.545Z</time></trkpt><trkpt lat="44.139795" lon="8.0966283"><ele>329.0</ele><time>2026-04-22T13:06:31.545Z</time></trkpt><trkpt lat="44.139855" lon="8.0965433"><ele>327.5</ele><time>2026-04-22T13:06:32.545Z</time></trkpt><trkpt lat="44.1399333" lon="8.0964817"><ele>326.0</ele><time>2026-04-22T13:06:33.545Z</time></trkpt><trkpt lat="44.14001" lon="8.09645"><ele>326.0</ele><time>2026-04-22T13:06:34.545Z</time></trkpt><trkpt lat="44.1401283" lon="8.0965017"><ele>326.0</ele><time>2026-04-22T13:06:35.545Z</time></trkpt><trkpt lat="44.1402567" lon="8.0965817"><ele>326.0</ele><time>2026-04-22T13:06:36.545Z</time></trkpt><trkpt lat="44.1404017" lon="8.0966717"><ele>326.0</ele><time>2026-04-22T13:06:37.545Z</time></trkpt><trkpt lat="44.14056" lon="8.0967417"><ele>337.0</ele><time>2026-04-22T13:06:38.545Z</time></trkpt><trkpt lat="44.1407233" lon="8.0967867"><ele>348.0</ele><time>2026-04-22T13:06:39.545Z</time></trkpt><trkpt lat="44.1408633" lon="8.0968233"><ele>359.0</ele><time>2026-04-22T13:06:40.545Z</time></trkpt><trkpt lat="44.141" lon="8.09688"><ele>359.0</ele><time>2026-04-22T13:06:41.544Z</time></trkpt><trkpt lat="44.14114" lon="8.0969367"><ele>359.0</ele><time>2026-04-22T13:06:42.545Z</time></trkpt><trkpt lat="44.14127" lon="8.0969933"><ele>359.0</ele><time>2026-04-22T13:06:43.545Z</time></trkpt><trkpt lat="44.14139" lon="8.0970467"><ele>359.0</ele><time>2026-04-22T13:06:44.545Z</time></trkpt><trkpt lat="44.141505" lon="8.0970917"><ele>359.0</ele><time>2026-04-22T13:06:45.545Z</time></trkpt><trkpt lat="44.1415967" lon="8.0971067"><ele>359.0</ele><time>2026-04-22T13:06:46.545Z</time></trkpt><trkpt lat="44.14169" lon="8.0970833"><ele>359.0</ele><time>2026-04-22T13:06:47.545Z</time></trkpt><trkpt lat="44.14177" lon="8.0970217"><ele>359.0</ele><time>2026-04-22T13:06:48.545Z</time></trkpt><trkpt lat="44.1418467" lon="8.0969117"><ele>359.0</ele><time>2026-04-22T13:06:49.545Z</time></trkpt><trkpt lat="44.141915" lon="8.0967567"><ele>359.0</ele><time>2026-04-22T13:06:50.545Z</time></trkpt><trkpt lat="44.1419817" lon="8.0966217"><ele>359.0</ele><time>2026-04-22T13:06:51.545Z</time></trkpt><trkpt lat="44.14205" lon="8.096515"><ele>359.0</ele><time>2026-04-22T13:06:52.545Z</time></trkpt><trkpt lat="44.1421083" lon="8.0964183"><ele>359.0</ele><time>2026-04-22T13:06:53.545Z</time></trkpt><trkpt lat="44.1421333" lon="8.0963033"><ele>359.0</ele><time>2026-04-22T13:06:54.544Z</time></trkpt><trkpt lat="44.1421433" lon="8.0961567"><ele>357.6666666666667</ele><time>2026-04-22T13:06:55.544Z</time></trkpt><trkpt lat="44.1421167" lon="8.0960167"><ele>356.3333333333333</ele><time>2026-04-22T13:06:56.545Z</time></trkpt><trkpt lat="44.1420067" lon="8.0958233"><ele>355.0</ele><time>2026-04-22T13:06:57.545Z</time></trkpt><trkpt lat="44.14189" lon="8.0956267"><ele>354.66666666666663</ele><time>2026-04-22T13:06:58.545Z</time></trkpt><trkpt lat="44.1417617" lon="8.0954517"><ele>354.3333333333333</ele><time>2026-04-22T13:06:59.544Z</time></trkpt><trkpt lat="44.141615" lon="8.0953017"><ele>354.0</ele><time>2026-04-22T13:07:00.545Z</time></trkpt><trkpt lat="44.1414967" lon="8.09514"><ele>354.0</ele><time>2026-04-22T13:07:01.545Z</time></trkpt><trkpt lat="44.1413883" lon="8.0949917"><ele>354.0</ele><time>2026-04-22T13:07:02.545Z</time></trkpt><trkpt lat="44.14127" lon="8.0948667"><ele>354.0</ele><time>2026-04-22T13:07:03.545Z</time></trkpt><trkpt lat="44.141155" lon="8.0947533"><ele>354.0</ele><time>2026-04-22T13:07:04.544Z</time></trkpt><trkpt lat="44.1410467" lon="8.094665"><ele>352.4</ele><time>2026-04-22T13:07:05.545Z</time></trkpt><trkpt lat="44.140935" lon="8.0945883"><ele>350.79999999999995</ele><time>2026-04-22T13:07:06.545Z</time></trkpt><trkpt lat="44.1408383" lon="8.094505"><ele>349.20000000000005</ele><time>2026-04-22T13:07:07.545Z</time></trkpt><trkpt lat="44.1407533" lon="8.0944117"><ele>347.6</ele><time>2026-04-22T13:07:08.545Z</time></trkpt><trkpt lat="44.1406933" lon="8.09433"><ele>346.0</ele><time>2026-04-22T13:07:09.545Z</time></trkpt><trkpt lat="44.1406417" lon="8.09422"><ele>346.0</ele><time>2026-04-22T13:07:10.544Z</time></trkpt><trkpt lat="44.1406" lon="8.094095"><ele>346.0</ele><time>2026-04-22T13:07:11.545Z</time></trkpt><trkpt lat="44.140585" lon="8.0939517"><ele>346.0</ele><time>2026-04-22T13:07:12.545Z</time></trkpt><trkpt lat="44.140585" lon="8.0938067"><ele>346.0</ele><time>2026-04-22T13:07:13.545Z</time></trkpt><trkpt lat="44.1405983" lon="8.093655"><ele>346.0</ele><time>2026-04-22T13:07:14.545Z</time></trkpt><trkpt lat="44.1406083" lon="8.0935117"><ele>346.6</ele><time>2026-04-22T13:07:15.545Z</time></trkpt><trkpt lat="44.1406283" lon="8.0933833"><ele>347.20000000000005</ele><time>2026-04-22T13:07:16.545Z</time></trkpt><trkpt lat="44.1406433" lon="8.0932317"><ele>347.79999999999995</ele><time>2026-04-22T13:07:17.545Z</time></trkpt><trkpt lat="44.1406583" lon="8.0930767"><ele>348.4</ele><time>2026-04-22T13:07:18.544Z</time></trkpt><trkpt lat="44.14065" lon="8.0929333"><ele>349.0</ele><time>2026-04-22T13:07:19.545Z</time></trkpt><trkpt lat="44.1406033" lon="8.0928083"><ele>351.79999999999995</ele><time>2026-04-22T13:07:20.545Z</time></trkpt><trkpt lat="44.1405467" lon="8.0927083"><ele>354.59999999999997</ele><time>2026-04-22T13:07:21.545Z</time></trkpt><trkpt lat="44.14047" lon="8.0926383"><ele>357.4</ele><time>2026-04-22T13:07:22.544Z</time></trkpt><trkpt lat="44.14039" lon="8.0925383"><ele>360.2</ele><time>2026-04-22T13:07:23.545Z</time></trkpt><trkpt lat="44.1403217" lon="8.0924417"><ele>363.0</ele><time>2026-04-22T13:07:24.545Z</time></trkpt><trkpt lat="44.1402867" lon="8.0923383"><ele>363.8333333333333</ele><time>2026-04-22T13:07:25.545Z</time></trkpt><trkpt lat="44.14029" lon="8.0922333"><ele>364.6666666666667</ele><time>2026-04-22T13:07:26.545Z</time></trkpt><trkpt lat="44.1402967" lon="8.0921333"><ele>365.5</ele><time>2026-04-22T13:07:27.544Z</time></trkpt><trkpt lat="44.1403133" lon="8.0920433"><ele>366.33333333333337</ele><time>2026-04-22T13:07:28.545Z</time></trkpt><trkpt lat="44.1403383" lon="8.0918683"><ele>367.1666666666667</ele><time>2026-04-22T13:07:30.545Z</time></trkpt><trkpt lat="44.1403467" lon="8.09178"><ele>368.0</ele><time>2026-04-22T13:07:31.545Z</time></trkpt><trkpt lat="44.14037" lon="8.0916867"><ele>368.0</ele><time>2026-04-22T13:07:32.544Z</time></trkpt><trkpt lat="44.1404167" lon="8.0915917"><ele>368.0</ele><time>2026-04-22T13:07:33.545Z</time></trkpt><trkpt lat="44.14048" lon="8.09148"><ele>368.0</ele><time>2026-04-22T13:07:34.545Z</time></trkpt><trkpt lat="44.140555" lon="8.09134"><ele>368.0</ele><time>2026-04-22T13:07:35.545Z</time></trkpt><trkpt lat="44.14063" lon="8.09119"><ele>368.0</ele><time>2026-04-22T13:07:36.545Z</time></trkpt><trkpt lat="44.14068" lon="8.09105"><ele>367.59999999999997</ele><time>2026-04-22T13:07:37.544Z</time></trkpt><trkpt lat="44.1407067" lon="8.0909417"><ele>367.2</ele><time>2026-04-22T13:07:38.545Z</time></trkpt><trkpt lat="44.1407067" lon="8.0908483"><ele>366.8</ele><time>2026-04-22T13:07:39.545Z</time></trkpt><trkpt lat="44.1406283" lon="8.0907433"><ele>366.4</ele><time>2026-04-22T13:07:41.545Z</time></trkpt><trkpt lat="44.1405317" lon="8.090725"><ele>366.0</ele><time>2026-04-22T13:07:42.545Z</time></trkpt><trkpt lat="44.1404217" lon="8.0906917"><ele>365.1666666666667</ele><time>2026-04-22T13:07:43.545Z</time></trkpt><trkpt lat="44.140335" lon="8.0906067"><ele>364.3333333333333</ele><time>2026-04-22T13:07:44.545Z</time></trkpt><trkpt lat="44.140275" lon="8.0905117"><ele>363.5</ele><time>2026-04-22T13:07:45.545Z</time></trkpt><trkpt lat="44.1402317" lon="8.0904117"><ele>362.66666666666663</ele><time>2026-04-22T13:07:46.545Z</time></trkpt><trkpt lat="44.14022" lon="8.0903217"><ele>361.8333333333333</ele><time>2026-04-22T13:07:47.545Z</time></trkpt><trkpt lat="44.1402367" lon="8.0902283"><ele>361.0</ele><time>2026-04-22T13:07:48.545Z</time></trkpt><trkpt lat="44.140275" lon="8.0901367"><ele>361.0</ele><time>2026-04-22T13:07:49.545Z</time></trkpt><trkpt lat="44.1403433" lon="8.0900583"><ele>361.0</ele><time>2026-04-22T13:07:50.545Z</time></trkpt><trkpt lat="44.1404283" lon="8.0899767"><ele>361.0</ele><time>2026-04-22T13:07:51.545Z</time></trkpt><trkpt lat="44.1405267" lon="8.0898783"><ele>361.0</ele><time>2026-04-22T13:07:52.545Z</time></trkpt><trkpt lat="44.1406217" lon="8.08979"><ele>361.0</ele><time>2026-04-22T13:07:53.545Z</time></trkpt><trkpt lat="44.1407017" lon="8.089725"><ele>364.3333333333333</ele><time>2026-04-22T13:07:54.545Z</time></trkpt><trkpt lat="44.140775" lon="8.08963"><ele>367.66666666666663</ele><time>2026-04-22T13:07:55.545Z</time></trkpt><trkpt lat="44.1408383" lon="8.0895617"><ele>371.0</ele><time>2026-04-22T13:07:56.545Z</time></trkpt><trkpt lat="44.140875" lon="8.0894567"><ele>374.3333333333333</ele><time>2026-04-22T13:07:57.545Z</time></trkpt><trkpt lat="44.1408833" lon="8.0893383"><ele>377.6666666666667</ele><time>2026-04-22T13:07:58.545Z</time></trkpt><trkpt lat="44.1408717" lon="8.0892167"><ele>381.0</ele><time>2026-04-22T13:07:59.545Z</time></trkpt><trkpt lat="44.1408367" lon="8.0890983"><ele>380.3333333333333</ele><time>2026-04-22T13:08:00.545Z</time></trkpt><trkpt lat="44.140775" lon="8.0889867"><ele>379.6666666666667</ele><time>2026-04-22T13:08:01.545Z</time></trkpt><trkpt lat="44.1407" lon="8.0888883"><ele>379.0</ele><time>2026-04-22T13:08:02.545Z</time></trkpt><trkpt lat="44.1406533" lon="8.0887867"><ele>378.33333333333337</ele><time>2026-04-22T13:08:03.545Z</time></trkpt><trkpt lat="44.14064" lon="8.0886883"><ele>377.6666666666667</ele><time>2026-04-22T13:08:04.545Z</time></trkpt><trkpt lat="44.1406517" lon="8.08859"><ele>377.0</ele><time>2026-04-22T13:08:05.545Z</time></trkpt><trkpt lat="44.140665" lon="8.0884667"><ele>370.6</ele><time>2026-04-22T13:08:06.545Z</time></trkpt><trkpt lat="44.1406767" lon="8.08833"><ele>364.20000000000005</ele><time>2026-04-22T13:08:07.545Z</time></trkpt><trkpt lat="44.1406833" lon="8.08819"><ele>357.8</ele><time>2026-04-22T13:08:08.545Z</time></trkpt><trkpt lat="44.1406683" lon="8.0880567"><ele>351.4</ele><time>2026-04-22T13:08:09.544Z</time></trkpt><trkpt lat="44.14067" lon="8.08792"><ele>345.0</ele><time>2026-04-22T13:08:10.545Z</time></trkpt><trkpt lat="44.14069" lon="8.0878017"><ele>345.6666666666667</ele><time>2026-04-22T13:08:11.545Z</time></trkpt><trkpt lat="44.1407283" lon="8.0877033"><ele>346.3333333333333</ele><time>2026-04-22T13:08:12.544Z</time></trkpt><trkpt lat="44.1408" lon="8.0876517"><ele>347.0</ele><time>2026-04-22T13:08:13.545Z</time></trkpt><trkpt lat="44.1408667" lon="8.08759"><ele>347.66666666666663</ele><time>2026-04-22T13:08:14.545Z</time></trkpt><trkpt lat="44.1409417" lon="8.0875133"><ele>348.3333333333333</ele><time>2026-04-22T13:08:15.544Z</time></trkpt><trkpt lat="44.141" lon="8.0874067"><ele>349.0</ele><time>2026-04-22T13:08:16.545Z</time></trkpt><trkpt lat="44.1410733" lon="8.087265"><ele>349.0</ele><time>2026-04-22T13:08:17.545Z</time></trkpt><trkpt lat="44.1411467" lon="8.087125"><ele>349.0</ele><time>2026-04-22T13:08:18.545Z</time></trkpt><trkpt lat="44.1411967" lon="8.0870083"><ele>349.0</ele><time>2026-04-22T13:08:19.545Z</time></trkpt><trkpt lat="44.1412383" lon="8.086915"><ele>349.0</ele><time>2026-04-22T13:08:20.544Z</time></trkpt><trkpt lat="44.141165" lon="8.0869633"><ele>349.0</ele><time>2026-04-22T13:08:24.545Z</time></trkpt><trkpt lat="44.1410817" lon="8.08707"><ele>349.0</ele><time>2026-04-22T13:08:25.545Z</time></trkpt><trkpt lat="44.1410117" lon="8.0871517"><ele>349.0</ele><time>2026-04-22T13:08:26.545Z</time></trkpt><trkpt lat="44.14094" lon="8.0872"><ele>349.0</ele><time>2026-04-22T13:08:27.545Z</time></trkpt><trkpt lat="44.1408633" lon="8.08721"><ele>349.0</ele><time>2026-04-22T13:08:28.545Z</time></trkpt><trkpt lat="44.1407717" lon="8.0872133"><ele>349.0</ele><time>2026-04-22T13:08:29.545Z</time></trkpt><trkpt lat="44.1406783" lon="8.0872017"><ele>349.0</ele><time>2026-04-22T13:08:30.545Z</time></trkpt><trkpt lat="44.1405767" lon="8.0871967"><ele>348.2</ele><time>2026-04-22T13:08:31.545Z</time></trkpt><trkpt lat="44.1404783" lon="8.0872083"><ele>347.4</ele><time>2026-04-22T13:08:32.545Z</time></trkpt><trkpt lat="44.1403833" lon="8.0872467"><ele>346.6</ele><time>2026-04-22T13:08:33.545Z</time></trkpt><trkpt lat="44.14029" lon="8.0873133"><ele>345.8</ele><time>2026-04-22T13:08:34.545Z</time></trkpt><trkpt lat="44.140205" lon="8.0873817"><ele>345.0</ele><time>2026-04-22T13:08:35.544Z</time></trkpt><trkpt lat="44.140135" lon="8.0874283"><ele>342.6666666666667</ele><time>2026-04-22T13:08:36.544Z</time></trkpt><trkpt lat="44.140125" lon="8.0873283"><ele>340.3333333333333</ele><time>2026-04-22T13:08:39.545Z</time></trkpt><trkpt lat="44.14015" lon="8.0872417"><ele>338.0</ele><time>2026-04-22T13:08:40.545Z</time></trkpt><trkpt lat="44.1401917" lon="8.0871367"><ele>335.66666666666663</ele><time>2026-04-22T13:08:41.545Z</time></trkpt><trkpt lat="44.1402533" lon="8.0870283"><ele>333.3333333333333</ele><time>2026-04-22T13:08:42.545Z</time></trkpt><trkpt lat="44.1403283" lon="8.0869383"><ele>331.0</ele><time>2026-04-22T13:08:43.545Z</time></trkpt><trkpt lat="44.1404183" lon="8.08688"><ele>331.0</ele><time>2026-04-22T13:08:44.544Z</time></trkpt><trkpt lat="44.1405183" lon="8.0868417"><ele>331.0</ele><time>2026-04-22T13:08:45.545Z</time></trkpt><trkpt lat="44.14063" lon="8.0868267"><ele>331.0</ele><time>2026-04-22T13:08:46.544Z</time></trkpt><trkpt lat="44.140725" lon="8.0868117"><ele>331.0</ele><time>2026-04-22T13:08:47.544Z</time></trkpt><trkpt lat="44.14081" lon="8.08677"><ele>331.0</ele><time>2026-04-22T13:08:48.545Z</time></trkpt><trkpt lat="44.14088" lon="8.0867067"><ele>331.4</ele><time>2026-04-22T13:08:49.544Z</time></trkpt><trkpt lat="44.1409333" lon="8.0866333"><ele>331.8</ele><time>2026-04-22T13:08:50.545Z</time></trkpt><trkpt lat="44.1409733" lon="8.0865367"><ele>332.2</ele><time>2026-04-22T13:08:51.545Z</time></trkpt><trkpt lat="44.1410067" lon="8.0864083"><ele>332.59999999999997</ele><time>2026-04-22T13:08:52.545Z</time></trkpt><trkpt lat="44.14104" lon="8.08627"><ele>333.0</ele><time>2026-04-22T13:08:53.545Z</time></trkpt><trkpt lat="44.1410667" lon="8.08612"><ele>333.0</ele><time>2026-04-22T13:08:54.545Z</time></trkpt><trkpt lat="44.141105" lon="8.086005"><ele>333.0</ele><time>2026-04-22T13:08:55.544Z</time></trkpt><trkpt lat="44.1411533" lon="8.0858817"><ele>333.0</ele><time>2026-04-22T13:08:56.544Z</time></trkpt><trkpt lat="44.1412" lon="8.08576"><ele>333.0</ele><time>2026-04-22T13:08:57.545Z</time></trkpt><trkpt lat="44.141235" lon="8.0856617"><ele>333.0</ele><time>2026-04-22T13:08:58.545Z</time></trkpt><trkpt lat="44.141255" lon="8.085575"><ele>333.0</ele><time>2026-04-22T13:08:59.545Z</time></trkpt><trkpt lat="44.1412167" lon="8.0854633"><ele>333.0</ele><time>2026-04-22T13:09:00.545Z</time></trkpt><trkpt lat="44.1411867" lon="8.0853533"><ele>333.0</ele><time>2026-04-22T13:09:01.545Z</time></trkpt><trkpt lat="44.1411817" lon="8.0852467"><ele>333.0</ele><time>2026-04-22T13:09:02.545Z</time></trkpt><trkpt lat="44.1411967" lon="8.0851433"><ele>333.0</ele><time>2026-04-22T13:09:03.545Z</time></trkpt><trkpt lat="44.1412483" lon="8.0850233"><ele>333.0</ele><time>2026-04-22T13:09:04.545Z</time></trkpt><trkpt lat="44.1413283" lon="8.0848817"><ele>333.0</ele><time>2026-04-22T13:09:05.545Z</time></trkpt><trkpt lat="44.1414133" lon="8.0847317"><ele>333.0</ele><time>2026-04-22T13:09:06.545Z</time></trkpt><trkpt lat="44.14152" lon="8.0845967"><ele>333.0</ele><time>2026-04-22T13:09:07.544Z</time></trkpt><trkpt lat="44.14161" lon="8.0844717"><ele>333.0</ele><time>2026-04-22T13:09:08.545Z</time></trkpt><trkpt lat="44.1416783" lon="8.08437"><ele>333.0</ele><time>2026-04-22T13:09:09.545Z</time></trkpt><trkpt lat="44.1417267" lon="8.0843017"><ele>333.0</ele><time>2026-04-22T13:09:10.545Z</time></trkpt><trkpt lat="44.1416767" lon="8.0842233"><ele>333.0</ele><time>2026-04-22T13:09:13.545Z</time></trkpt><trkpt lat="44.1416067" lon="8.0842533"><ele>333.0</ele><time>2026-04-22T13:09:14.545Z</time></trkpt><trkpt lat="44.1415083" lon="8.08429"><ele>333.0</ele><time>2026-04-22T13:09:15.545Z</time></trkpt><trkpt lat="44.1413867" lon="8.0843317"><ele>333.0</ele><time>2026-04-22T13:09:16.545Z</time></trkpt><trkpt lat="44.1412733" lon="8.0844017"><ele>333.0</ele><time>2026-04-22T13:09:17.545Z</time></trkpt><trkpt lat="44.1411533" lon="8.0844667"><ele>333.0</ele><time>2026-04-22T13:09:18.545Z</time></trkpt><trkpt lat="44.1410283" lon="8.0845383"><ele>333.0</ele><time>2026-04-22T13:09:19.545Z</time></trkpt><trkpt lat="44.140925" lon="8.0846033"><ele>333.0</ele><time>2026-04-22T13:09:20.545Z</time></trkpt><trkpt lat="44.1408233" lon="8.0846833"><ele>333.0</ele><time>2026-04-22T13:09:21.545Z</time></trkpt><trkpt lat="44.1407417" lon="8.0847483"><ele>333.0</ele><time>2026-04-22T13:09:22.544Z</time></trkpt><trkpt lat="44.1406817" lon="8.084785"><ele>333.0</ele><time>2026-04-22T13:09:23.545Z</time></trkpt><trkpt lat="44.1405917" lon="8.08479"><ele>333.0</ele><time>2026-04-22T13:09:25.545Z</time></trkpt><trkpt lat="44.1404983" lon="8.0847283"><ele>333.0</ele><time>2026-04-22T13:09:27.545Z</time></trkpt><trkpt lat="44.1404367" lon="8.084665"><ele>333.0</ele><time>2026-04-22T13:09:28.545Z</time></trkpt><trkpt lat="44.1403433" lon="8.0846417"><ele>334.4</ele><time>2026-04-22T13:09:30.545Z</time></trkpt><trkpt lat="44.1402833" lon="8.0847333"><ele>335.79999999999995</ele><time>2026-04-22T13:09:32.545Z</time></trkpt><trkpt lat="44.1402567" lon="8.0848217"><ele>337.2</ele><time>2026-04-22T13:09:33.545Z</time></trkpt><trkpt lat="44.1402333" lon="8.084935"><ele>338.6</ele><time>2026-04-22T13:09:34.545Z</time></trkpt><trkpt lat="44.1401917" lon="8.0850817"><ele>340.0</ele><time>2026-04-22T13:09:35.545Z</time></trkpt><trkpt lat="44.1401317" lon="8.0852283"><ele>340.0</ele><time>2026-04-22T13:09:36.545Z</time></trkpt><trkpt lat="44.1400567" lon="8.0853733"><ele>340.0</ele><time>2026-04-22T13:09:37.545Z</time></trkpt><trkpt lat="44.1399717" lon="8.08552"><ele>340.0</ele><time>2026-04-22T13:09:38.545Z</time></trkpt><trkpt lat="44.1398883" lon="8.0856467"><ele>340.0</ele><time>2026-04-22T13:09:39.544Z</time></trkpt><trkpt lat="44.1398033" lon="8.0857683"><ele>342.6</ele><time>2026-04-22T13:09:40.545Z</time></trkpt><trkpt lat="44.13973" lon="8.0858817"><ele>345.2</ele><time>2026-04-22T13:09:41.545Z</time></trkpt><trkpt lat="44.139655" lon="8.0859817"><ele>347.79999999999995</ele><time>2026-04-22T13:09:42.545Z</time></trkpt><trkpt lat="44.1395833" lon="8.0860767"><ele>350.4</ele><time>2026-04-22T13:09:43.545Z</time></trkpt><trkpt lat="44.139505" lon="8.0861483"><ele>353.0</ele><time>2026-04-22T13:09:44.545Z</time></trkpt><trkpt lat="44.1394017" lon="8.0862067"><ele>353.0</ele><time>2026-04-22T13:09:45.545Z</time></trkpt><trkpt lat="44.1392917" lon="8.0862717"><ele>353.0</ele><time>2026-04-22T13:09:46.545Z</time></trkpt><trkpt lat="44.13919" lon="8.0863483"><ele>353.0</ele><time>2026-04-22T13:09:47.545Z</time></trkpt><trkpt lat="44.139105" lon="8.0864233"><ele>353.0</ele><time>2026-04-22T13:09:48.545Z</time></trkpt><trkpt lat="44.1390317" lon="8.0864667"><ele>353.0</ele><time>2026-04-22T13:09:49.545Z</time></trkpt><trkpt lat="44.13896" lon="8.086505"><ele>354.1666666666667</ele><time>2026-04-22T13:09:50.545Z</time></trkpt><trkpt lat="44.1388767" lon="8.086535"><ele>355.33333333333337</ele><time>2026-04-22T13:09:51.545Z</time></trkpt><trkpt lat="44.138795" lon="8.08658"><ele>356.5</ele><time>2026-04-22T13:09:52.545Z</time></trkpt><trkpt lat="44.1387217" lon="8.08665"><ele>357.6666666666667</ele><time>2026-04-22T13:09:53.545Z</time></trkpt><trkpt lat="44.1386583" lon="8.0867167"><ele>358.8333333333333</ele><time>2026-04-22T13:09:54.545Z</time></trkpt><trkpt lat="44.1385817" lon="8.0867783"><ele>360.0</ele><time>2026-04-22T13:09:55.544Z</time></trkpt><trkpt lat="44.1384917" lon="8.086825"><ele>360.0</ele><time>2026-04-22T13:09:56.545Z</time></trkpt><trkpt lat="44.1384083" lon="8.086875"><ele>360.0</ele><time>2026-04-22T13:09:57.545Z</time></trkpt><trkpt lat="44.1383517" lon="8.0869367"><ele>360.0</ele><time>2026-04-22T13:09:58.545Z</time></trkpt><trkpt lat="44.1383083" lon="8.0870167"><ele>360.0</ele><time>2026-04-22T13:09:59.545Z</time></trkpt><trkpt lat="44.1382617" lon="8.0871217"><ele>360.0</ele><time>2026-04-22T13:10:00.545Z</time></trkpt><trkpt lat="44.138235" lon="8.0872583"><ele>360.0</ele><time>2026-04-22T13:10:01.545Z</time></trkpt><trkpt lat="44.1382133" lon="8.0874133"><ele>359.6666666666667</ele><time>2026-04-22T13:10:02.545Z</time></trkpt><trkpt lat="44.1382033" lon="8.0875633"><ele>359.3333333333333</ele><time>2026-04-22T13:10:03.545Z</time></trkpt><trkpt lat="44.1381933" lon="8.087675"><ele>359.0</ele><time>2026-04-22T13:10:04.545Z</time></trkpt><trkpt lat="44.13811" lon="8.08772"><ele>358.66666666666663</ele><time>2026-04-22T13:10:06.545Z</time></trkpt><trkpt lat="44.138035" lon="8.0877267"><ele>358.3333333333333</ele><time>2026-04-22T13:10:07.545Z</time></trkpt><trkpt lat="44.1379517" lon="8.0877217"><ele>358.0</ele><time>2026-04-22T13:10:08.545Z</time></trkpt><trkpt lat="44.1378567" lon="8.0877217"><ele>358.0</ele><time>2026-04-22T13:10:09.545Z</time></trkpt><trkpt lat="44.1377617" lon="8.0877417"><ele>358.0</ele><time>2026-04-22T13:10:10.544Z</time></trkpt><trkpt lat="44.1376767" lon="8.087765"><ele>358.0</ele><time>2026-04-22T13:10:11.544Z</time></trkpt><trkpt lat="44.1376" lon="8.08781"><ele>358.0</ele><time>2026-04-22T13:10:12.545Z</time></trkpt><trkpt lat="44.1375583" lon="8.08788"><ele>358.0</ele><time>2026-04-22T13:10:13.544Z</time></trkpt><trkpt lat="44.1375167" lon="8.0879817"><ele>358.0</ele><time>2026-04-22T13:10:14.545Z</time></trkpt><trkpt lat="44.1375367" lon="8.0881583"><ele>356.59999999999997</ele><time>2026-04-22T13:10:16.545Z</time></trkpt><trkpt lat="44.1375667" lon="8.0882667"><ele>355.2</ele><time>2026-04-22T13:10:17.545Z</time></trkpt><trkpt lat="44.137625" lon="8.088395"><ele>353.8</ele><time>2026-04-22T13:10:18.545Z</time></trkpt><trkpt lat="44.1376683" lon="8.0885233"><ele>352.4</ele><time>2026-04-22T13:10:19.545Z</time></trkpt><trkpt lat="44.1376867" lon="8.08864"><ele>351.0</ele><time>2026-04-22T13:10:20.545Z</time></trkpt><trkpt lat="44.1376767" lon="8.08874"><ele>351.0</ele><time>2026-04-22T13:10:21.544Z</time></trkpt><trkpt lat="44.13759" lon="8.0888633"><ele>351.0</ele><time>2026-04-22T13:10:23.545Z</time></trkpt><trkpt lat="44.1375283" lon="8.08892"><ele>351.0</ele><time>2026-04-22T13:10:24.544Z</time></trkpt><trkpt lat="44.137465" lon="8.0890033"><ele>351.0</ele><time>2026-04-22T13:10:25.545Z</time></trkpt><trkpt lat="44.1374233" lon="8.0890833"><ele>351.0</ele><time>2026-04-22T13:10:26.545Z</time></trkpt><trkpt lat="44.1374133" lon="8.0891867"><ele>351.0</ele><time>2026-04-22T13:10:27.545Z</time></trkpt><trkpt lat="44.1374" lon="8.0892833"><ele>357.5</ele><time>2026-04-22T13:10:28.544Z</time></trkpt><trkpt lat="44.1373317" lon="8.0894217"><ele>364.0</ele><time>2026-04-22T13:10:30.545Z</time></trkpt><trkpt lat="44.1372717" lon="8.0894733"><ele>370.5</ele><time>2026-04-22T13:10:31.545Z</time></trkpt><trkpt lat="44.13721" lon="8.0895333"><ele>377.0</ele><time>2026-04-22T13:10:32.545Z</time></trkpt><trkpt lat="44.1371533" lon="8.0896133"><ele>383.5</ele><time>2026-04-22T13:10:33.545Z</time></trkpt><trkpt lat="44.1371017" lon="8.0896933"><ele>390.0</ele><time>2026-04-22T13:10:34.545Z</time></trkpt><trkpt lat="44.13705" lon="8.0897533"><ele>390.0</ele><time>2026-04-22T13:10:35.545Z</time></trkpt><trkpt lat="44.136995" lon="8.0897983"><ele>390.0</ele><time>2026-04-22T13:10:36.545Z</time></trkpt><trkpt lat="44.1368817" lon="8.0898633"><ele>390.0</ele><time>2026-04-22T13:10:38.546Z</time></trkpt><trkpt lat="44.1368267" lon="8.0899117"><ele>390.0</ele><time>2026-04-22T13:10:39.546Z</time></trkpt><trkpt lat="44.1367733" lon="8.0899767"><ele>390.0</ele><time>2026-04-22T13:10:40.545Z</time></trkpt><trkpt lat="44.1367283" lon="8.090055"><ele>390.0</ele><time>2026-04-22T13:10:41.546Z</time></trkpt><trkpt lat="44.1366933" lon="8.0901533"><ele>386.4</ele><time>2026-04-22T13:10:42.546Z</time></trkpt><trkpt lat="44.1366633" lon="8.0902467"><ele>382.8</ele><time>2026-04-22T13:10:43.546Z</time></trkpt><trkpt lat="44.1365917" lon="8.09038"><ele>379.20000000000005</ele><time>2026-04-22T13:10:45.546Z</time></trkpt><trkpt lat="44.1365167" lon="8.0903683"><ele>375.6</ele><time>2026-04-22T13:10:47.546Z</time></trkpt><trkpt lat="44.1364733" lon="8.090245"><ele>372.0</ele><time>2026-04-22T13:10:49.545Z</time></trkpt><trkpt lat="44.136475" lon="8.090115"><ele>376.5</ele><time>2026-04-22T13:10:51.546Z</time></trkpt><trkpt lat="44.136545" lon="8.0899417"><ele>381.0</ele><time>2026-04-22T13:10:53.546Z</time></trkpt><trkpt lat="44.1366033" lon="8.0898283"><ele>385.5</ele><time>2026-04-22T13:10:54.546Z</time></trkpt><trkpt lat="44.1366667" lon="8.0896917"><ele>390.0</ele><time>2026-04-22T13:10:55.545Z</time></trkpt><trkpt lat="44.1367233" lon="8.089555"><ele>390.0</ele><time>2026-04-22T13:10:56.546Z</time></trkpt><trkpt lat="44.13678" lon="8.0894333"><ele>390.0</ele><time>2026-04-22T13:10:57.546Z</time></trkpt><trkpt lat="44.1368183" lon="8.08934"><ele>390.0</ele><time>2026-04-22T13:10:58.546Z</time></trkpt><trkpt lat="44.13675" lon="8.089395"><ele>390.0</ele><time>2026-04-22T13:11:03.545Z</time></trkpt><trkpt lat="44.1367033" lon="8.0894767"><ele>390.0</ele><time>2026-04-22T13:11:04.546Z</time></trkpt><trkpt lat="44.13664" lon="8.0895517"><ele>390.0</ele><time>2026-04-22T13:11:05.545Z</time></trkpt><trkpt lat="44.1365633" lon="8.08963"><ele>395.8333333333333</ele><time>2026-04-22T13:11:06.545Z</time></trkpt><trkpt lat="44.1364867" lon="8.0896967"><ele>401.66666666666663</ele><time>2026-04-22T13:11:07.546Z</time></trkpt><trkpt lat="44.1364183" lon="8.0897717"><ele>407.5</ele><time>2026-04-22T13:11:08.546Z</time></trkpt><trkpt lat="44.1363533" lon="8.0898667"><ele>413.3333333333333</ele><time>2026-04-22T13:11:09.545Z</time></trkpt><trkpt lat="44.1363083" lon="8.08996"><ele>419.16666666666663</ele><time>2026-04-22T13:11:10.546Z</time></trkpt><trkpt lat="44.1362783" lon="8.0900567"><ele>425.0</ele><time>2026-04-22T13:11:11.546Z</time></trkpt><trkpt lat="44.1362633" lon="8.090155"><ele>425.0</ele><time>2026-04-22T13:11:12.546Z</time></trkpt><trkpt lat="44.1362617" lon="8.090265"><ele>425.0</ele><time>2026-04-22T13:11:13.546Z</time></trkpt><trkpt lat="44.13628" lon="8.0903933"><ele>425.0</ele><time>2026-04-22T13:11:14.546Z</time></trkpt><trkpt lat="44.1363167" lon="8.0905417"><ele>425.0</ele><time>2026-04-22T13:11:15.546Z</time></trkpt><trkpt lat="44.1363567" lon="8.0906817"><ele>425.0</ele><time>2026-04-22T13:11:16.546Z</time></trkpt><trkpt lat="44.1363767" lon="8.0908067"><ele>422.4</ele><time>2026-04-22T13:11:17.545Z</time></trkpt><trkpt lat="44.1363817" lon="8.0909283"><ele>419.8</ele><time>2026-04-22T13:11:18.546Z</time></trkpt><trkpt lat="44.1363667" lon="8.0910517"><ele>417.20000000000005</ele><time>2026-04-22T13:11:19.546Z</time></trkpt><trkpt lat="44.1363383" lon="8.0911833"><ele>414.6</ele><time>2026-04-22T13:11:20.546Z</time></trkpt><trkpt lat="44.136285" lon="8.0913033"><ele>412.0</ele><time>2026-04-22T13:11:21.546Z</time></trkpt><trkpt lat="44.1362233" lon="8.0913867"><ele>412.0</ele><time>2026-04-22T13:11:22.546Z</time></trkpt><trkpt lat="44.1361567" lon="8.0914583"><ele>412.0</ele><time>2026-04-22T13:11:23.545Z</time></trkpt><trkpt lat="44.13607" lon="8.0915367"><ele>412.0</ele><time>2026-04-22T13:11:24.546Z</time></trkpt><trkpt lat="44.135975" lon="8.0916117"><ele>412.0</ele><time>2026-04-22T13:11:25.546Z</time></trkpt><trkpt lat="44.1358667" lon="8.0916733"><ele>412.0</ele><time>2026-04-22T13:11:26.546Z</time></trkpt><trkpt lat="44.1357517" lon="8.0917367"><ele>413.50000000000006</ele><time>2026-04-22T13:11:27.545Z</time></trkpt><trkpt lat="44.1356567" lon="8.0918033"><ele>415.0</ele><time>2026-04-22T13:11:28.545Z</time></trkpt><trkpt lat="44.1355733" lon="8.0918467"><ele>416.5</ele><time>2026-04-22T13:11:29.545Z</time></trkpt><trkpt lat="44.1354983" lon="8.0919333"><ele>418.0</ele><time>2026-04-22T13:11:31.546Z</time></trkpt><trkpt lat="44.1354967" lon="8.0920317"><ele>419.50000000000006</ele><time>2026-04-22T13:11:33.545Z</time></trkpt><trkpt lat="44.13553" lon="8.09212"><ele>421.0</ele><time>2026-04-22T13:11:34.545Z</time></trkpt><trkpt lat="44.1355867" lon="8.0922367"><ele>421.0</ele><time>2026-04-22T13:11:35.545Z</time></trkpt><trkpt lat="44.1356383" lon="8.0923717"><ele>421.0</ele><time>2026-04-22T13:11:36.546Z</time></trkpt><trkpt lat="44.1356917" lon="8.0925233"><ele>421.0</ele><time>2026-04-22T13:11:37.546Z</time></trkpt><trkpt lat="44.1357367" lon="8.092675"><ele>421.0</ele><time>2026-04-22T13:11:38.546Z</time></trkpt><trkpt lat="44.1357767" lon="8.0928133"><ele>415.20000000000005</ele><time>2026-04-22T13:11:39.546Z</time></trkpt><trkpt lat="44.1358167" lon="8.0929483"><ele>409.40000000000003</ele><time>2026-04-22T13:11:40.546Z</time></trkpt><trkpt lat="44.1358467" lon="8.093085"><ele>403.6</ele><time>2026-04-22T13:11:41.546Z</time></trkpt><trkpt lat="44.1358783" lon="8.0932083"><ele>397.8</ele><time>2026-04-22T13:11:42.546Z</time></trkpt><trkpt lat="44.1359167" lon="8.0932983"><ele>392.0</ele><time>2026-04-22T13:11:43.545Z</time></trkpt><trkpt lat="44.1359833" lon="8.0933767"><ele>392.0</ele><time>2026-04-22T13:11:44.546Z</time></trkpt><trkpt lat="44.1360667" lon="8.09347"><ele>392.0</ele><time>2026-04-22T13:11:45.546Z</time></trkpt><trkpt lat="44.1361567" lon="8.09356"><ele>392.0</ele><time>2026-04-22T13:11:46.546Z</time></trkpt><trkpt lat="44.1362317" lon="8.0936717"><ele>392.0</ele><time>2026-04-22T13:11:47.546Z</time></trkpt><trkpt lat="44.1362967" lon="8.09378"><ele>392.0</ele><time>2026-04-22T13:11:48.546Z</time></trkpt><trkpt lat="44.13635" lon="8.0938883"><ele>391.99999999999994</ele><time>2026-04-22T13:11:49.546Z</time></trkpt><trkpt lat="44.1363767" lon="8.094"><ele>392.0</ele><time>2026-04-22T13:11:50.546Z</time></trkpt><trkpt lat="44.1363817" lon="8.094095"><ele>392.0</ele><time>2026-04-22T13:11:51.546Z</time></trkpt><trkpt lat="44.1363633" lon="8.0941967"><ele>392.0</ele><time>2026-04-22T13:11:52.546Z</time></trkpt><trkpt lat="44.1363267" lon="8.094315"><ele>391.99999999999994</ele><time>2026-04-22T13:11:53.545Z</time></trkpt><trkpt lat="44.136265" lon="8.0944517"><ele>392.0</ele><time>2026-04-22T13:11:54.546Z</time></trkpt><trkpt lat="44.136205" lon="8.0946033"><ele>391.25</ele><time>2026-04-22T13:11:55.545Z</time></trkpt><trkpt lat="44.1361383" lon="8.094755"><ele>390.5</ele><time>2026-04-22T13:11:56.546Z</time></trkpt><trkpt lat="44.1360783" lon="8.0949"><ele>389.75</ele><time>2026-04-22T13:11:57.546Z</time></trkpt><trkpt lat="44.1360283" lon="8.09504"><ele>389.0</ele><time>2026-04-22T13:11:58.546Z</time></trkpt><trkpt lat="44.1359867" lon="8.0951833"><ele>389.0</ele><time>2026-04-22T13:11:59.546Z</time></trkpt><trkpt lat="44.1359433" lon="8.0953117"><ele>389.0</ele><time>2026-04-22T13:12:00.546Z</time></trkpt><trkpt lat="44.1359" lon="8.0954167"><ele>389.0</ele><time>2026-04-22T13:12:01.546Z</time></trkpt><trkpt lat="44.135845" lon="8.0955033"><ele>389.0</ele><time>2026-04-22T13:12:02.545Z</time></trkpt><trkpt lat="44.1357683" lon="8.0955683"><ele>389.0</ele><time>2026-04-22T13:12:03.546Z</time></trkpt><trkpt lat="44.1356783" lon="8.0956233"><ele>391.66666666666663</ele><time>2026-04-22T13:12:04.545Z</time></trkpt><trkpt lat="44.1355783" lon="8.0956533"><ele>394.3333333333333</ele><time>2026-04-22T13:12:05.546Z</time></trkpt><trkpt lat="44.1355" lon="8.095695"><ele>397.0</ele><time>2026-04-22T13:12:06.546Z</time></trkpt><trkpt lat="44.13544" lon="8.0957333"><ele>399.66666666666663</ele><time>2026-04-22T13:12:07.546Z</time></trkpt><trkpt lat="44.135385" lon="8.0958683"><ele>402.3333333333333</ele><time>2026-04-22T13:12:09.545Z</time></trkpt><trkpt lat="44.1353767" lon="8.0959783"><ele>405.0</ele><time>2026-04-22T13:12:10.545Z</time></trkpt><trkpt lat="44.13539" lon="8.0961217"><ele>405.0</ele><time>2026-04-22T13:12:11.545Z</time></trkpt><trkpt lat="44.1354017" lon="8.096265"><ele>405.0</ele><time>2026-04-22T13:12:12.546Z</time></trkpt><trkpt lat="44.13539" lon="8.0964333"><ele>405.0</ele><time>2026-04-22T13:12:13.546Z</time></trkpt><trkpt lat="44.1353567" lon="8.0965983"><ele>405.0</ele><time>2026-04-22T13:12:14.546Z</time></trkpt><trkpt lat="44.1353117" lon="8.0967717"><ele>401.25</ele><time>2026-04-22T13:12:15.546Z</time></trkpt><trkpt lat="44.135265" lon="8.0969467"><ele>397.5</ele><time>2026-04-22T13:12:16.546Z</time></trkpt><trkpt lat="44.1352317" lon="8.0971283"><ele>393.75</ele><time>2026-04-22T13:12:17.546Z</time></trkpt><trkpt lat="44.1351983" lon="8.09731"><ele>390.0</ele><time>2026-04-22T13:12:18.546Z</time></trkpt><trkpt lat="44.1351583" lon="8.097475"><ele>387.0</ele><time>2026-04-22T13:12:19.546Z</time></trkpt><trkpt lat="44.1351033" lon="8.097595"><ele>384.0</ele><time>2026-04-22T13:12:20.546Z</time></trkpt><trkpt lat="44.135055" lon="8.0977033"><ele>381.0</ele><time>2026-04-22T13:12:21.546Z</time></trkpt><trkpt lat="44.1349783" lon="8.0977967"><ele>378.0</ele><time>2026-04-22T13:12:22.546Z</time></trkpt><trkpt lat="44.13489" lon="8.0979017"><ele>375.0</ele><time>2026-04-22T13:12:23.546Z</time></trkpt><trkpt lat="44.1347883" lon="8.0980217"><ele>381.0</ele><time>2026-04-22T13:12:24.545Z</time></trkpt><trkpt lat="44.13468" lon="8.0981433"><ele>387.0</ele><time>2026-04-22T13:12:25.546Z</time></trkpt><trkpt lat="44.1346083" lon="8.0982783"><ele>393.0</ele><time>2026-04-22T13:12:26.546Z</time></trkpt><trkpt lat="44.1345533" lon="8.0984233"><ele>399.0</ele><time>2026-04-22T13:12:27.546Z</time></trkpt><trkpt lat="44.1345033" lon="8.09854"><ele>399.0</ele><time>2026-04-22T13:12:28.546Z</time></trkpt><trkpt lat="44.1344633" lon="8.098615"><ele>399.0</ele><time>2026-04-22T13:12:29.546Z</time></trkpt><trkpt lat="44.13441" lon="8.0986717"><ele>399.0</ele><time>2026-04-22T13:12:30.546Z</time></trkpt><trkpt lat="44.1343383" lon="8.0987433"><ele>399.0</ele><time>2026-04-22T13:12:31.546Z</time></trkpt><trkpt lat="44.134265" lon="8.0988383"><ele>399.0</ele><time>2026-04-22T13:12:32.546Z</time></trkpt><trkpt lat="44.134195" lon="8.0989583"><ele>399.0</ele><time>2026-04-22T13:12:33.546Z</time></trkpt><trkpt lat="44.1341233" lon="8.0990833"><ele>401.6</ele><time>2026-04-22T13:12:34.546Z</time></trkpt><trkpt lat="44.1340533" lon="8.099205"><ele>404.2</ele><time>2026-04-22T13:12:35.546Z</time></trkpt><trkpt lat="44.13401" lon="8.0993367"><ele>406.8</ele><time>2026-04-22T13:12:36.545Z</time></trkpt><trkpt lat="44.1339617" lon="8.0994733"><ele>409.40000000000003</ele><time>2026-04-22T13:12:37.546Z</time></trkpt><trkpt lat="44.133895" lon="8.0996033"><ele>412.0</ele><time>2026-04-22T13:12:38.545Z</time></trkpt><trkpt lat="44.133825" lon="8.0997283"><ele>412.0</ele><time>2026-04-22T13:12:39.546Z</time></trkpt><trkpt lat="44.1337483" lon="8.0998583"><ele>412.0</ele><time>2026-04-22T13:12:40.546Z</time></trkpt><trkpt lat="44.1336667" lon="8.09998"><ele>412.0</ele><time>2026-04-22T13:12:41.545Z</time></trkpt><trkpt lat="44.133605" lon="8.1000767"><ele>412.0</ele><time>2026-04-22T13:12:42.546Z</time></trkpt><trkpt lat="44.1335383" lon="8.1001617"><ele>412.0</ele><time>2026-04-22T13:12:43.546Z</time></trkpt><trkpt lat="44.1334683" lon="8.1002317"><ele>413.0</ele><time>2026-04-22T13:12:44.545Z</time></trkpt><trkpt lat="44.1333717" lon="8.1002867"><ele>414.0</ele><time>2026-04-22T13:12:45.546Z</time></trkpt><trkpt lat="44.1332517" lon="8.1003533"><ele>415.0</ele><time>2026-04-22T13:12:46.546Z</time></trkpt><trkpt lat="44.1331233" lon="8.10043"><ele>416.0</ele><time>2026-04-22T13:12:47.546Z</time></trkpt><trkpt lat="44.1330167" lon="8.10051"><ele>415.99999999999994</ele><time>2026-04-22T13:12:48.545Z</time></trkpt><trkpt lat="44.1329333" lon="8.10059"><ele>416.0</ele><time>2026-04-22T13:12:49.546Z</time></trkpt><trkpt lat="44.1328467" lon="8.10066"><ele>416.0</ele><time>2026-04-22T13:12:50.546Z</time></trkpt><trkpt lat="44.1327717" lon="8.1007033"><ele>416.0</ele><time>2026-04-22T13:12:51.546Z</time></trkpt><trkpt lat="44.13271" lon="8.1007517"><ele>415.99999999999994</ele><time>2026-04-22T13:12:52.545Z</time></trkpt><trkpt lat="44.1326667" lon="8.100825"><ele>416.0</ele><time>2026-04-22T13:12:53.546Z</time></trkpt><trkpt lat="44.1326383" lon="8.1009283"><ele>416.8</ele><time>2026-04-22T13:12:54.546Z</time></trkpt><trkpt lat="44.1326133" lon="8.1010567"><ele>417.6</ele><time>2026-04-22T13:12:55.546Z</time></trkpt><trkpt lat="44.1325767" lon="8.1012"><ele>418.4</ele><time>2026-04-22T13:12:56.546Z</time></trkpt><trkpt lat="44.1325283" lon="8.101325"><ele>419.2</ele><time>2026-04-22T13:12:57.546Z</time></trkpt><trkpt lat="44.1324617" lon="8.10143"><ele>420.0</ele><time>2026-04-22T13:12:58.546Z</time></trkpt><trkpt lat="44.1323717" lon="8.1015283"><ele>416.4</ele><time>2026-04-22T13:12:59.546Z</time></trkpt><trkpt lat="44.1322917" lon="8.101615"><ele>412.8</ele><time>2026-04-22T13:13:00.546Z</time></trkpt><trkpt lat="44.1322117" lon="8.1017067"><ele>409.20000000000005</ele><time>2026-04-22T13:13:01.546Z</time></trkpt><trkpt lat="44.1321467" lon="8.1018117"><ele>405.6</ele><time>2026-04-22T13:13:02.546Z</time></trkpt><trkpt lat="44.13209" lon="8.1019317"><ele>402.0</ele><time>2026-04-22T13:13:03.546Z</time></trkpt><trkpt lat="44.13203" lon="8.1020617"><ele>402.0</ele><time>2026-04-22T13:13:04.546Z</time></trkpt><trkpt lat="44.1319767" lon="8.102185"><ele>402.0</ele><time>2026-04-22T13:13:05.545Z</time></trkpt><trkpt lat="44.13193" lon="8.102305"><ele>402.0</ele><time>2026-04-22T13:13:06.545Z</time></trkpt><trkpt lat="44.1318617" lon="8.1024083"><ele>402.0</ele><time>2026-04-22T13:13:07.546Z</time></trkpt><trkpt lat="44.1317817" lon="8.1025033"><ele>402.0</ele><time>2026-04-22T13:13:08.545Z</time></trkpt><trkpt lat="44.131705" lon="8.1025817"><ele>401.75</ele><time>2026-04-22T13:13:09.546Z</time></trkpt><trkpt lat="44.13162" lon="8.10268"><ele>401.5</ele><time>2026-04-22T13:13:10.546Z</time></trkpt><trkpt lat="44.1315267" lon="8.1027783"><ele>401.25</ele><time>2026-04-22T13:13:11.546Z</time></trkpt><trkpt lat="44.1314267" lon="8.1028617"><ele>401.0</ele><time>2026-04-22T13:13:12.546Z</time></trkpt><trkpt lat="44.1313267" lon="8.10294"><ele>401.0</ele><time>2026-04-22T13:13:13.546Z</time></trkpt><trkpt lat="44.131225" lon="8.1030183"><ele>401.0</ele><time>2026-04-22T13:13:14.546Z</time></trkpt><trkpt lat="44.1311267" lon="8.1030933"><ele>401.0</ele><time>2026-04-22T13:13:15.546Z</time></trkpt><trkpt lat="44.131045" lon="8.10316"><ele>401.0</ele><time>2026-04-22T13:13:16.546Z</time></trkpt><trkpt lat="44.1309833" lon="8.103235"><ele>401.0</ele><time>2026-04-22T13:13:17.546Z</time></trkpt><trkpt lat="44.1309433" lon="8.1033417"><ele>401.0</ele><time>2026-04-22T13:13:18.546Z</time></trkpt><trkpt lat="44.130905" lon="8.1034583"><ele>401.0</ele><time>2026-04-22T13:13:19.545Z</time></trkpt><trkpt lat="44.1308467" lon="8.103565"><ele>401.0</ele><time>2026-04-22T13:13:20.545Z</time></trkpt><trkpt lat="44.1307717" lon="8.10368"><ele>401.0</ele><time>2026-04-22T13:13:21.546Z</time></trkpt><trkpt lat="44.1307033" lon="8.1037967"><ele>401.0</ele><time>2026-04-22T13:13:22.546Z</time></trkpt><trkpt lat="44.1306217" lon="8.1039033"><ele>401.0</ele><time>2026-04-22T13:13:23.546Z</time></trkpt><trkpt lat="44.1305433" lon="8.1039783"><ele>401.0</ele><time>2026-04-22T13:13:24.546Z</time></trkpt><trkpt lat="44.13047" lon="8.1040167"><ele>401.0</ele><time>2026-04-22T13:13:25.545Z</time></trkpt><trkpt lat="44.1303833" lon="8.1040417"><ele>401.0</ele><time>2026-04-22T13:13:26.545Z</time></trkpt><trkpt lat="44.1302783" lon="8.1040633"><ele>401.0</ele><time>2026-04-22T13:13:27.545Z</time></trkpt><trkpt lat="44.1301483" lon="8.1040883"><ele>400.5</ele><time>2026-04-22T13:13:28.546Z</time></trkpt><trkpt lat="44.130015" lon="8.1041217"><ele>400.0</ele><time>2026-04-22T13:13:29.545Z</time></trkpt><trkpt lat="44.129885" lon="8.1041517"><ele>399.5</ele><time>2026-04-22T13:13:30.546Z</time></trkpt><trkpt lat="44.129765" lon="8.1041817"><ele>399.0</ele><time>2026-04-22T13:13:31.546Z</time></trkpt><trkpt lat="44.1296633" lon="8.1042383"><ele>399.0</ele><time>2026-04-22T13:13:32.546Z</time></trkpt><trkpt lat="44.1295833" lon="8.104305"><ele>399.0</ele><time>2026-04-22T13:13:33.546Z</time></trkpt><trkpt lat="44.1295233" lon="8.1043817"><ele>399.0</ele><time>2026-04-22T13:13:34.546Z</time></trkpt><trkpt lat="44.129465" lon="8.104455"><ele>399.0</ele><time>2026-04-22T13:13:35.546Z</time></trkpt><trkpt lat="44.1293933" lon="8.104525"><ele>399.0</ele><time>2026-04-22T13:13:36.545Z</time></trkpt><trkpt lat="44.1293083" lon="8.1045967"><ele>399.0</ele><time>2026-04-22T13:13:37.545Z</time></trkpt><trkpt lat="44.129215" lon="8.1046483"><ele>399.0</ele><time>2026-04-22T13:13:38.545Z</time></trkpt><trkpt lat="44.12912" lon="8.1046867"><ele>399.0</ele><time>2026-04-22T13:13:39.546Z</time></trkpt><trkpt lat="44.129015" lon="8.1047083"><ele>399.0</ele><time>2026-04-22T13:13:40.545Z</time></trkpt><trkpt lat="44.12891" lon="8.1046667"><ele>399.0</ele><time>2026-04-22T13:13:41.546Z</time></trkpt><trkpt lat="44.1287967" lon="8.1045817"><ele>399.0</ele><time>2026-04-22T13:13:42.546Z</time></trkpt><trkpt lat="44.1286933" lon="8.1045333"><ele>399.0</ele><time>2026-04-22T13:13:43.546Z</time></trkpt><trkpt lat="44.1285783" lon="8.10452"><ele>399.0</ele><time>2026-04-22T13:13:44.546Z</time></trkpt><trkpt lat="44.12847" lon="8.10452"><ele>399.0</ele><time>2026-04-22T13:13:45.546Z</time></trkpt><trkpt lat="44.1283633" lon="8.1045383"><ele>399.0</ele><time>2026-04-22T13:13:46.546Z</time></trkpt><trkpt lat="44.1282633" lon="8.1045483"><ele>399.0</ele><time>2026-04-22T13:13:47.546Z</time></trkpt><trkpt lat="44.1281683" lon="8.1045717"><ele>397.2</ele><time>2026-04-22T13:13:48.546Z</time></trkpt><trkpt lat="44.1280917" lon="8.104605"><ele>395.4</ele><time>2026-04-22T13:13:49.545Z</time></trkpt><trkpt lat="44.1280317" lon="8.1046483"><ele>393.6</ele><time>2026-04-22T13:13:50.546Z</time></trkpt><trkpt lat="44.1279283" lon="8.1046433"><ele>391.8</ele><time>2026-04-22T13:13:52.545Z</time></trkpt><trkpt lat="44.127865" lon="8.1044667"><ele>390.0</ele><time>2026-04-22T13:13:54.546Z</time></trkpt><trkpt lat="44.1278283" lon="8.1043533"><ele>390.0</ele><time>2026-04-22T13:13:55.546Z</time></trkpt><trkpt lat="44.1277817" lon="8.10425"><ele>390.0</ele><time>2026-04-22T13:13:56.546Z</time></trkpt><trkpt lat="44.1277167" lon="8.104165"><ele>390.0</ele><time>2026-04-22T13:13:57.546Z</time></trkpt><trkpt lat="44.1276333" lon="8.1040983"><ele>390.0</ele><time>2026-04-22T13:13:58.546Z</time></trkpt><trkpt lat="44.127525" lon="8.1040267"><ele>390.0</ele><time>2026-04-22T13:13:59.546Z</time></trkpt><trkpt lat="44.1274183" lon="8.10397"><ele>387.5</ele><time>2026-04-22T13:14:00.546Z</time></trkpt><trkpt lat="44.127325" lon="8.10389"><ele>385.0</ele><time>2026-04-22T13:14:01.546Z</time></trkpt><trkpt lat="44.1272367" lon="8.1037733"><ele>382.5</ele><time>2026-04-22T13:14:02.546Z</time></trkpt><trkpt lat="44.1271617" lon="8.1036333"><ele>380.0</ele><time>2026-04-22T13:14:03.546Z</time></trkpt><trkpt lat="44.1270883" lon="8.1034967"><ele>380.0</ele><time>2026-04-22T13:14:04.546Z</time></trkpt><trkpt lat="44.1270283" lon="8.1033867"><ele>380.0</ele><time>2026-04-22T13:14:05.546Z</time></trkpt><trkpt lat="44.1269683" lon="8.1032883"><ele>380.0</ele><time>2026-04-22T13:14:06.546Z</time></trkpt><trkpt lat="44.126905" lon="8.1032067"><ele>380.0</ele><time>2026-04-22T13:14:07.546Z</time></trkpt><trkpt lat="44.12683" lon="8.1031233"><ele>380.0</ele><time>2026-04-22T13:14:08.546Z</time></trkpt><trkpt lat="44.1267333" lon="8.103045"><ele>382.0</ele><time>2026-04-22T13:14:09.545Z</time></trkpt><trkpt lat="44.12664" lon="8.1029667"><ele>384.0</ele><time>2026-04-22T13:14:10.546Z</time></trkpt><trkpt lat="44.12658" lon="8.10289"><ele>386.0</ele><time>2026-04-22T13:14:11.545Z</time></trkpt><trkpt lat="44.1265317" lon="8.1028183"><ele>388.0</ele><time>2026-04-22T13:14:12.546Z</time></trkpt><trkpt lat="44.1265133" lon="8.1027167"><ele>390.0</ele><time>2026-04-22T13:16:23.546Z</time></trkpt><trkpt lat="44.1265217" lon="8.1025333"><ele>390.6666666666667</ele><time>2026-04-22T13:16:25.546Z</time></trkpt><trkpt lat="44.1265433" lon="8.1024"><ele>391.33333333333337</ele><time>2026-04-22T13:16:26.546Z</time></trkpt><trkpt lat="44.1265733" lon="8.10228"><ele>392.0</ele><time>2026-04-22T13:16:27.545Z</time></trkpt><trkpt lat="44.1266017" lon="8.10216"><ele>392.6666666666667</ele><time>2026-04-22T13:16:28.545Z</time></trkpt><trkpt lat="44.12664" lon="8.1020317"><ele>393.33333333333337</ele><time>2026-04-22T13:16:30.546Z</time></trkpt><trkpt lat="44.12664" lon="8.1019383"><ele>394.0</ele><time>2026-04-22T13:16:31.546Z</time></trkpt><trkpt lat="44.1266083" lon="8.10183"><ele>390.6666666666667</ele><time>2026-04-22T13:16:32.545Z</time></trkpt><trkpt lat="44.126555" lon="8.1017133"><ele>387.33333333333337</ele><time>2026-04-22T13:16:33.546Z</time></trkpt><trkpt lat="44.1265067" lon="8.1016067"><ele>384.0</ele><time>2026-04-22T13:16:34.546Z</time></trkpt><trkpt lat="44.1264583" lon="8.101505"><ele>380.6666666666667</ele><time>2026-04-22T13:16:35.546Z</time></trkpt><trkpt lat="44.1264167" lon="8.101415"><ele>377.33333333333337</ele><time>2026-04-22T13:16:36.546Z</time></trkpt><trkpt lat="44.1263683" lon="8.1013517"><ele>374.0</ele><time>2026-04-22T13:16:37.546Z</time></trkpt><trkpt lat="44.126305" lon="8.101365"><ele>374.0</ele><time>2026-04-22T13:16:39.546Z</time></trkpt><trkpt lat="44.126295" lon="8.1015117"><ele>374.0</ele><time>2026-04-22T13:16:41.546Z</time></trkpt><trkpt lat="44.1263233" lon="8.1016217"><ele>374.0</ele><time>2026-04-22T13:16:42.545Z</time></trkpt><trkpt lat="44.1263533" lon="8.101755"><ele>374.0</ele><time>2026-04-22T13:16:43.546Z</time></trkpt><trkpt lat="44.126355" lon="8.1018617"><ele>374.0</ele><time>2026-04-22T13:16:44.546Z</time></trkpt><trkpt lat="44.1263333" lon="8.1019783"><ele>369.5</ele><time>2026-04-22T13:16:45.546Z</time></trkpt><trkpt lat="44.1262483" lon="8.1021067"><ele>365.0</ele><time>2026-04-22T13:16:46.546Z</time></trkpt><trkpt lat="44.126155" lon="8.102245"><ele>360.5</ele><time>2026-04-22T13:16:47.546Z</time></trkpt><trkpt lat="44.1260833" lon="8.1023633"><ele>356.0</ele><time>2026-04-22T13:16:48.546Z</time></trkpt><trkpt lat="44.1260133" lon="8.1024867"><ele>355.83333333333337</ele><time>2026-04-22T13:16:49.546Z</time></trkpt><trkpt lat="44.12596" lon="8.1026117"><ele>355.6666666666667</ele><time>2026-04-22T13:16:50.546Z</time></trkpt><trkpt lat="44.1259417" lon="8.10272"><ele>355.5</ele><time>2026-04-22T13:16:51.546Z</time></trkpt><trkpt lat="44.1259183" lon="8.1028783"><ele>355.3333333333333</ele><time>2026-04-22T13:16:53.546Z</time></trkpt><trkpt lat="44.1258533" lon="8.1028633"><ele>355.16666666666663</ele><time>2026-04-22T13:16:58.546Z</time></trkpt><trkpt lat="44.12582" lon="8.1027783"><ele>355.0</ele><time>2026-04-22T13:16:59.546Z</time></trkpt><trkpt lat="44.1258167" lon="8.10261"><ele>355.0</ele><time>2026-04-22T13:17:01.546Z</time></trkpt><trkpt lat="44.1258367" lon="8.1024967"><ele>355.0</ele><time>2026-04-22T13:17:02.546Z</time></trkpt><trkpt lat="44.12586" lon="8.1023883"><ele>355.0</ele><time>2026-04-22T13:17:03.545Z</time></trkpt><trkpt lat="44.1258933" lon="8.1022883"><ele>355.0</ele><time>2026-04-22T13:17:04.546Z</time></trkpt><trkpt lat="44.12593" lon="8.10218"><ele>355.0</ele><time>2026-04-22T13:17:05.546Z</time></trkpt><trkpt lat="44.1259583" lon="8.1020483"><ele>355.0</ele><time>2026-04-22T13:17:06.546Z</time></trkpt><trkpt lat="44.1259883" lon="8.1019317"><ele>355.2</ele><time>2026-04-22T13:17:07.546Z</time></trkpt><trkpt lat="44.1260133" lon="8.1018367"><ele>355.4</ele><time>2026-04-22T13:17:08.546Z</time></trkpt><trkpt lat="44.1260483" lon="8.1016967"><ele>355.6</ele><time>2026-04-22T13:17:10.546Z</time></trkpt><trkpt lat="44.1260333" lon="8.1015933"><ele>355.8</ele><time>2026-04-22T13:17:11.546Z</time></trkpt><trkpt lat="44.1260117" lon="8.10146"><ele>356.0</ele><time>2026-04-22T13:17:12.545Z</time></trkpt><trkpt lat="44.125985" lon="8.1013167"><ele>359.0</ele><time>2026-04-22T13:17:13.545Z</time></trkpt><trkpt lat="44.1259717" lon="8.1011867"><ele>362.0</ele><time>2026-04-22T13:17:14.546Z</time></trkpt><trkpt lat="44.1259533" lon="8.101055"><ele>365.0</ele><time>2026-04-22T13:17:15.546Z</time></trkpt><trkpt lat="44.1259367" lon="8.1009583"><ele>368.0</ele><time>2026-04-22T13:17:16.546Z</time></trkpt><trkpt lat="44.1259" lon="8.10084"><ele>371.0</ele><time>2026-04-22T13:17:18.546Z</time></trkpt><trkpt lat="44.12582" lon="8.1008"><ele>374.0</ele><time>2026-04-22T13:17:20.546Z</time></trkpt><trkpt lat="44.1256883" lon="8.10085"><ele>374.6</ele><time>2026-04-22T13:17:22.546Z</time></trkpt><trkpt lat="44.1256283" lon="8.1009017"><ele>375.2</ele><time>2026-04-22T13:17:23.545Z</time></trkpt><trkpt lat="44.1255167" lon="8.101"><ele>375.8</ele><time>2026-04-22T13:17:25.546Z</time></trkpt><trkpt lat="44.12544" lon="8.1010517"><ele>376.40000000000003</ele><time>2026-04-22T13:17:26.545Z</time></trkpt><trkpt lat="44.1253617" lon="8.10111"><ele>377.0</ele><time>2026-04-22T13:17:27.546Z</time></trkpt><trkpt lat="44.1252967" lon="8.101175"><ele>377.0</ele><time>2026-04-22T13:17:28.546Z</time></trkpt><trkpt lat="44.1252417" lon="8.101235"><ele>377.0</ele><time>2026-04-22T13:17:29.546Z</time></trkpt><trkpt lat="44.1251883" lon="8.1013033"><ele>377.0</ele><time>2026-04-22T13:17:30.545Z</time></trkpt><trkpt lat="44.125135" lon="8.1013583"><ele>377.0</ele><time>2026-04-22T13:17:31.546Z</time></trkpt><trkpt lat="44.12508" lon="8.10143"><ele>377.0</ele><time>2026-04-22T13:17:32.546Z</time></trkpt><trkpt lat="44.1250033" lon="8.1015483"><ele>377.0</ele><time>2026-04-22T13:17:34.546Z</time></trkpt><trkpt lat="44.1248967" lon="8.1016233"><ele>369.8</ele><time>2026-04-22T13:17:36.546Z</time></trkpt><trkpt lat="44.1248017" lon="8.1017083"><ele>362.6</ele><time>2026-04-22T13:17:38.545Z</time></trkpt><trkpt lat="44.1247267" lon="8.1017817"><ele>355.40000000000003</ele><time>2026-04-22T13:17:40.546Z</time></trkpt><trkpt lat="44.12465" lon="8.101835"><ele>348.20000000000005</ele><time>2026-04-22T13:17:42.546Z</time></trkpt><trkpt lat="44.12457" lon="8.101915"><ele>341.0</ele><time>2026-04-22T13:17:44.546Z</time></trkpt><trkpt lat="44.1245283" lon="8.1019833"><ele>341.0</ele><time>2026-04-22T13:17:46.546Z</time></trkpt><trkpt lat="44.1245933" lon="8.1020483"><ele>341.0</ele><time>2026-04-22T13:17:49.546Z</time></trkpt><trkpt lat="44.1247133" lon="8.1020533"><ele>341.0</ele><time>2026-04-22T13:17:51.546Z</time></trkpt><trkpt lat="44.12479" lon="8.1020517"><ele>341.0</ele><time>2026-04-22T13:17:52.545Z</time></trkpt><trkpt lat="44.1248617" lon="8.10204"><ele>341.0</ele><time>2026-04-22T13:17:53.546Z</time></trkpt><trkpt lat="44.1249333" lon="8.1020333"><ele>341.0</ele><time>2026-04-22T13:17:54.546Z</time></trkpt><trkpt lat="44.1250017" lon="8.1020533"><ele>341.0</ele><time>2026-04-22T13:17:55.546Z</time></trkpt><trkpt lat="44.1250867" lon="8.1021583"><ele>341.0</ele><time>2026-04-22T13:17:57.546Z</time></trkpt><trkpt lat="44.12507" lon="8.1022833"><ele>341.0</ele><time>2026-04-22T13:17:59.546Z</time></trkpt><trkpt lat="44.124995" lon="8.102285"><ele>341.0</ele><time>2026-04-22T13:18:01.545Z</time></trkpt><trkpt lat="44.1249217" lon="8.10223"><ele>341.0</ele><time>2026-04-22T13:18:36.546Z</time></trkpt><trkpt lat="44.1248367" lon="8.1022517"><ele>341.0</ele><time>2026-04-22T13:18:39.546Z</time></trkpt><trkpt lat="44.124775" lon="8.102295"><ele>341.0</ele><time>2026-04-22T13:18:41.546Z</time></trkpt><trkpt lat="44.1247117" lon="8.1023483"><ele>341.0</ele><time>2026-04-22T13:18:43.546Z</time></trkpt><trkpt lat="44.1246567" lon="8.102395"><ele>341.0</ele><time>2026-04-22T13:18:45.545Z</time></trkpt><trkpt lat="44.1245967" lon="8.1024867"><ele>341.0</ele><time>2026-04-22T13:18:47.546Z</time></trkpt><trkpt lat="44.124535" lon="8.1026267"><ele>341.0</ele><time>2026-04-22T13:18:49.546Z</time></trkpt><trkpt lat="44.1244833" lon="8.1027867"><ele>336.5</ele><time>2026-04-22T13:18:51.546Z</time></trkpt><trkpt lat="44.12446" lon="8.1028733"><ele>332.0</ele><time>2026-04-22T13:18:52.546Z</time></trkpt><trkpt lat="44.12444" lon="8.1029733"><ele>327.5</ele><time>2026-04-22T13:18:53.545Z</time></trkpt><trkpt lat="44.12443" lon="8.1030833"><ele>323.0</ele><time>2026-04-22T13:18:54.546Z</time></trkpt><trkpt lat="44.1244317" lon="8.1031867"><ele>318.5</ele><time>2026-04-22T13:18:55.546Z</time></trkpt><trkpt lat="44.1243883" lon="8.1033283"><ele>314.0</ele><time>2026-04-22T13:18:57.546Z</time></trkpt><trkpt lat="44.1242967" lon="8.1034217"><ele>310.59999999999997</ele><time>2026-04-22T13:18:59.546Z</time></trkpt><trkpt lat="44.1241933" lon="8.103455"><ele>307.2</ele><time>2026-04-22T13:19:01.546Z</time></trkpt><trkpt lat="44.1241383" lon="8.1035133"><ele>303.79999999999995</ele><time>2026-04-22T13:19:03.546Z</time></trkpt><trkpt lat="44.12416" lon="8.10367"><ele>300.4</ele><time>2026-04-22T13:19:05.545Z</time></trkpt><trkpt lat="44.1241967" lon="8.1038117"><ele>297.0</ele><time>2026-04-22T13:19:06.546Z</time></trkpt><trkpt lat="44.12424" lon="8.103965"><ele>295.5</ele><time>2026-04-22T13:19:07.546Z</time></trkpt><trkpt lat="44.1242667" lon="8.1041183"><ele>294.0</ele><time>2026-04-22T13:19:08.546Z</time></trkpt><trkpt lat="44.1242717" lon="8.1042917"><ele>292.5</ele><time>2026-04-22T13:19:09.546Z</time></trkpt><trkpt lat="44.1242767" lon="8.104465"><ele>291.0</ele><time>2026-04-22T13:19:10.546Z</time></trkpt><trkpt lat="44.124295" lon="8.104615"><ele>291.0</ele><time>2026-04-22T13:19:11.546Z</time></trkpt><trkpt lat="44.1243217" lon="8.10475"><ele>291.0</ele><time>2026-04-22T13:19:12.546Z</time></trkpt><trkpt lat="44.124315" lon="8.1048817"><ele>291.0</ele><time>2026-04-22T13:19:13.545Z</time></trkpt><trkpt lat="44.1242983" lon="8.1050117"><ele>291.0</ele><time>2026-04-22T13:19:14.545Z</time></trkpt><trkpt lat="44.1242817" lon="8.1051433"><ele>291.0</ele><time>2026-04-22T13:19:15.546Z</time></trkpt><trkpt lat="44.1242733" lon="8.1052967"><ele>291.75</ele><time>2026-04-22T13:19:16.546Z</time></trkpt><trkpt lat="44.1242633" lon="8.1054833"><ele>292.5</ele><time>2026-04-22T13:19:17.546Z</time></trkpt><trkpt lat="44.12425" lon="8.1056883"><ele>293.25</ele><time>2026-04-22T13:19:18.545Z</time></trkpt><trkpt lat="44.1242467" lon="8.1058783"><ele>294.0</ele><time>2026-04-22T13:19:19.545Z</time></trkpt><trkpt lat="44.1242417" lon="8.106075"><ele>292.5</ele><time>2026-04-22T13:19:20.546Z</time></trkpt><trkpt lat="44.1242367" lon="8.10626"><ele>291.0</ele><time>2026-04-22T13:19:21.546Z</time></trkpt><trkpt lat="44.1242333" lon="8.1064383"><ele>289.5</ele><time>2026-04-22T13:19:22.546Z</time></trkpt><trkpt lat="44.12423" lon="8.1065933"><ele>288.0</ele><time>2026-04-22T13:19:23.546Z</time></trkpt><trkpt lat="44.1242267" lon="8.1067283"><ele>287.3333333333333</ele><time>2026-04-22T13:19:24.546Z</time></trkpt><trkpt lat="44.1242017" lon="8.1068567"><ele>286.6666666666667</ele><time>2026-04-22T13:19:25.546Z</time></trkpt><trkpt lat="44.1241667" lon="8.106955"><ele>286.0</ele><time>2026-04-22T13:19:26.546Z</time></trkpt><trkpt lat="44.1241433" lon="8.107045"><ele>285.33333333333337</ele><time>2026-04-22T13:19:27.545Z</time></trkpt><trkpt lat="44.1241333" lon="8.10719"><ele>284.6666666666667</ele><time>2026-04-22T13:19:29.546Z</time></trkpt><trkpt lat="44.1241783" lon="8.1072567"><ele>284.0</ele><time>2026-04-22T13:19:30.546Z</time></trkpt><trkpt lat="44.1242517" lon="8.1073233"><ele>284.0</ele><time>2026-04-22T13:19:31.546Z</time></trkpt><trkpt lat="44.1243367" lon="8.1073867"><ele>284.0</ele><time>2026-04-22T13:19:32.545Z</time></trkpt><trkpt lat="44.1244217" lon="8.107465"><ele>284.0</ele><time>2026-04-22T13:19:33.546Z</time></trkpt><trkpt lat="44.1245217" lon="8.1075617"><ele>284.0</ele><time>2026-04-22T13:19:34.546Z</time></trkpt><trkpt lat="44.124605" lon="8.10767"><ele>284.0</ele><time>2026-04-22T13:19:35.546Z</time></trkpt><trkpt lat="44.1246667" lon="8.1077767"><ele>286.2</ele><time>2026-04-22T13:19:36.546Z</time></trkpt><trkpt lat="44.124705" lon="8.1078733"><ele>288.4</ele><time>2026-04-22T13:19:37.546Z</time></trkpt><trkpt lat="44.1247133" lon="8.1079917"><ele>290.6</ele><time>2026-04-22T13:19:38.546Z</time></trkpt><trkpt lat="44.1246867" lon="8.1081317"><ele>292.8</ele><time>2026-04-22T13:19:39.546Z</time></trkpt><trkpt lat="44.124645" lon="8.1082783"><ele>295.0</ele><time>2026-04-22T13:19:40.546Z</time></trkpt><trkpt lat="44.1245983" lon="8.1084383"><ele>297.0</ele><time>2026-04-22T13:19:41.546Z</time></trkpt><trkpt lat="44.1245633" lon="8.1086133"><ele>299.0</ele><time>2026-04-22T13:19:42.546Z</time></trkpt><trkpt lat="44.1245433" lon="8.108785"><ele>301.0</ele><time>2026-04-22T13:19:43.546Z</time></trkpt><trkpt lat="44.1245317" lon="8.1089583"><ele>303.0</ele><time>2026-04-22T13:19:44.546Z</time></trkpt><trkpt lat="44.1245283" lon="8.10913"><ele>303.0</ele><time>2026-04-22T13:19:45.546Z</time></trkpt><trkpt lat="44.1245317" lon="8.10928"><ele>303.0</ele><time>2026-04-22T13:19:46.546Z</time></trkpt><trkpt lat="44.1245367" lon="8.1094017"><ele>303.0</ele><time>2026-04-22T13:19:47.546Z</time></trkpt><trkpt lat="44.1245433" lon="8.10951"><ele>303.0</ele><time>2026-04-22T13:19:48.546Z</time></trkpt><trkpt lat="44.1245633" lon="8.10961"><ele>303.0</ele><time>2026-04-22T13:19:49.546Z</time></trkpt><trkpt lat="44.1246067" lon="8.1097233"><ele>303.0</ele><time>2026-04-22T13:19:50.546Z</time></trkpt><trkpt lat="44.1246567" lon="8.10983"><ele>301.5</ele><time>2026-04-22T13:19:51.546Z</time></trkpt><trkpt lat="44.1246917" lon="8.10994"><ele>300.0</ele><time>2026-04-22T13:19:52.546Z</time></trkpt><trkpt lat="44.12473" lon="8.1100467"><ele>298.5</ele><time>2026-04-22T13:19:53.546Z</time></trkpt><trkpt lat="44.1247567" lon="8.1101433"><ele>297.0</ele><time>2026-04-22T13:19:54.545Z</time></trkpt><trkpt lat="44.1247717" lon="8.1102983"><ele>295.5</ele><time>2026-04-22T13:19:56.546Z</time></trkpt><trkpt lat="44.12474" lon="8.1104033"><ele>294.0</ele><time>2026-04-22T13:19:57.545Z</time></trkpt><trkpt lat="44.1246933" lon="8.110525"><ele>294.0</ele><time>2026-04-22T13:19:58.546Z</time></trkpt><trkpt lat="44.1246333" lon="8.1106417"><ele>294.0</ele><time>2026-04-22T13:19:59.545Z</time></trkpt><trkpt lat="44.124575" lon="8.1107533"><ele>294.0</ele><time>2026-04-22T13:20:00.546Z</time></trkpt><trkpt lat="44.1245033" lon="8.1108367"><ele>294.0</ele><time>2026-04-22T13:20:01.546Z</time></trkpt><trkpt lat="44.1244217" lon="8.1108917"><ele>294.0</ele><time>2026-04-22T13:20:02.546Z</time></trkpt><trkpt lat="44.1243333" lon="8.1109433"><ele>286.2</ele><time>2026-04-22T13:20:03.546Z</time></trkpt><trkpt lat="44.124255" lon="8.1109733"><ele>278.4</ele><time>2026-04-22T13:20:04.546Z</time></trkpt><trkpt lat="44.1241767" lon="8.11099"><ele>270.6</ele><time>2026-04-22T13:20:05.546Z</time></trkpt><trkpt lat="44.1240817" lon="8.1110133"><ele>262.8</ele><time>2026-04-22T13:20:06.546Z</time></trkpt><trkpt lat="44.12398" lon="8.1110333"><ele>255.0</ele><time>2026-04-22T13:20:07.546Z</time></trkpt><trkpt lat="44.1238683" lon="8.11106"><ele>254.6</ele><time>2026-04-22T13:20:08.546Z</time></trkpt><trkpt lat="44.12375" lon="8.1110667"><ele>254.2</ele><time>2026-04-22T13:20:09.546Z</time></trkpt><trkpt lat="44.123645" lon="8.1110567"><ele>253.8</ele><time>2026-04-22T13:20:10.546Z</time></trkpt><trkpt lat="44.1235483" lon="8.1110667"><ele>253.4</ele><time>2026-04-22T13:20:11.546Z</time></trkpt><trkpt lat="44.123465" lon="8.1110517"><ele>253.0</ele><time>2026-04-22T13:20:12.546Z</time></trkpt><trkpt lat="44.1233783" lon="8.1110267"><ele>253.0</ele><time>2026-04-22T13:20:13.546Z</time></trkpt><trkpt lat="44.1232933" lon="8.1109817"><ele>253.0</ele><time>2026-04-22T13:20:14.546Z</time></trkpt><trkpt lat="44.1232033" lon="8.1109233"><ele>253.0</ele><time>2026-04-22T13:20:15.546Z</time></trkpt><trkpt lat="44.12312" lon="8.1108717"><ele>253.0</ele><time>2026-04-22T13:20:16.546Z</time></trkpt><trkpt lat="44.1230283" lon="8.110835"><ele>253.0</ele><time>2026-04-22T13:20:17.546Z</time></trkpt><trkpt lat="44.12294" lon="8.1108117"><ele>255.49999999999997</ele><time>2026-04-22T13:20:18.546Z</time></trkpt><trkpt lat="44.12284" lon="8.1107983"><ele>258.0</ele><time>2026-04-22T13:20:19.546Z</time></trkpt><trkpt lat="44.122745" lon="8.11078"><ele>260.5</ele><time>2026-04-22T13:20:20.545Z</time></trkpt><trkpt lat="44.1226567" lon="8.1107483"><ele>263.0</ele><time>2026-04-22T13:20:21.547Z</time></trkpt><trkpt lat="44.1225867" lon="8.1107117"><ele>265.5</ele><time>2026-04-22T13:20:22.547Z</time></trkpt><trkpt lat="44.1225217" lon="8.11068"><ele>268.0</ele><time>2026-04-22T13:20:23.547Z</time></trkpt><trkpt lat="44.1224483" lon="8.110655"><ele>265.8333333333333</ele><time>2026-04-22T13:20:24.547Z</time></trkpt><trkpt lat="44.1223917" lon="8.1107133"><ele>263.66666666666663</ele><time>2026-04-22T13:20:25.546Z</time></trkpt><trkpt lat="44.1222633" lon="8.1107517"><ele>261.5</ele><time>2026-04-22T13:20:27.547Z</time></trkpt><trkpt lat="44.1221917" lon="8.1107417"><ele>259.3333333333333</ele><time>2026-04-22T13:20:28.547Z</time></trkpt><trkpt lat="44.122115" lon="8.11073"><ele>257.1666666666667</ele><time>2026-04-22T13:20:29.546Z</time></trkpt><trkpt lat="44.1220433" lon="8.1107067"><ele>255.0</ele><time>2026-04-22T13:20:30.547Z</time></trkpt><trkpt lat="44.1219817" lon="8.110685"><ele>255.0</ele><time>2026-04-22T13:20:31.547Z</time></trkpt><trkpt lat="44.12187" lon="8.1107167"><ele>255.0</ele><time>2026-04-22T13:20:33.547Z</time></trkpt><trkpt lat="44.1218033" lon="8.11078"><ele>255.0</ele><time>2026-04-22T13:20:34.546Z</time></trkpt><trkpt lat="44.1217367" lon="8.110865"><ele>255.0</ele><time>2026-04-22T13:20:35.547Z</time></trkpt><trkpt lat="44.12167" lon="8.1109383"><ele>255.0</ele><time>2026-04-22T13:20:36.547Z</time></trkpt><trkpt lat="44.121595" lon="8.1109617"><ele>255.0</ele><time>2026-04-22T13:20:37.547Z</time></trkpt><trkpt lat="44.1215117" lon="8.1109533"><ele>249.16666666666666</ele><time>2026-04-22T13:20:38.547Z</time></trkpt><trkpt lat="44.1214317" lon="8.1109333"><ele>243.33333333333331</ele><time>2026-04-22T13:20:39.547Z</time></trkpt><trkpt lat="44.1213533" lon="8.110905"><ele>237.5</ele><time>2026-04-22T13:20:40.546Z</time></trkpt><trkpt lat="44.121285" lon="8.110885"><ele>231.66666666666666</ele><time>2026-04-22T13:20:41.547Z</time></trkpt><trkpt lat="44.121215" lon="8.1108783"><ele>225.83333333333331</ele><time>2026-04-22T13:20:42.547Z</time></trkpt><trkpt lat="44.1211567" lon="8.1109467"><ele>220.0</ele><time>2026-04-22T13:20:43.547Z</time></trkpt><trkpt lat="44.121095" lon="8.1110183"><ele>219.99999999999997</ele><time>2026-04-22T13:20:44.547Z</time></trkpt><trkpt lat="44.121035" lon="8.1110533"><ele>220.0</ele><time>2026-04-22T13:20:45.547Z</time></trkpt><trkpt lat="44.1209633" lon="8.1110533"><ele>220.0</ele><time>2026-04-22T13:20:46.546Z</time></trkpt><trkpt lat="44.1208917" lon="8.1110233"><ele>220.0</ele><time>2026-04-22T13:20:47.547Z</time></trkpt><trkpt lat="44.1208317" lon="8.1109717"><ele>219.99999999999997</ele><time>2026-04-22T13:20:48.547Z</time></trkpt><trkpt lat="44.1207383" lon="8.1109033"><ele>220.0</ele><time>2026-04-22T13:20:50.547Z</time></trkpt><trkpt lat="44.1206767" lon="8.1109333"><ele>225.5</ele><time>2026-04-22T13:20:52.547Z</time></trkpt><trkpt lat="44.1205917" lon="8.1110983"><ele>231.0</ele><time>2026-04-22T13:20:54.547Z</time></trkpt><trkpt lat="44.1205133" lon="8.1112283"><ele>236.5</ele><time>2026-04-22T13:20:55.547Z</time></trkpt><trkpt lat="44.12045" lon="8.1113383"><ele>242.0</ele><time>2026-04-22T13:20:56.547Z</time></trkpt><trkpt lat="44.1203983" lon="8.1114333"><ele>242.00000000000003</ele><time>2026-04-22T13:20:57.547Z</time></trkpt><trkpt lat="44.1203517" lon="8.11156"><ele>242.0</ele><time>2026-04-22T13:20:58.547Z</time></trkpt><trkpt lat="44.1203" lon="8.1116717"><ele>242.0</ele><time>2026-04-22T13:20:59.547Z</time></trkpt><trkpt lat="44.1202433" lon="8.11174"><ele>242.0</ele><time>2026-04-22T13:21:00.546Z</time></trkpt><trkpt lat="44.1201767" lon="8.1117917"><ele>242.00000000000003</ele><time>2026-04-22T13:21:01.547Z</time></trkpt><trkpt lat="44.1201067" lon="8.11184"><ele>242.0</ele><time>2026-04-22T13:21:02.547Z</time></trkpt><trkpt lat="44.1200417" lon="8.1118967"><ele>242.33333333333334</ele><time>2026-04-22T13:21:03.547Z</time></trkpt><trkpt lat="44.1199917" lon="8.1119567"><ele>242.66666666666669</ele><time>2026-04-22T13:21:04.547Z</time></trkpt><trkpt lat="44.1199333" lon="8.1120683"><ele>243.0</ele><time>2026-04-22T13:21:06.547Z</time></trkpt><trkpt lat="44.1198833" lon="8.1121333"><ele>243.33333333333331</ele><time>2026-04-22T13:21:09.547Z</time></trkpt><trkpt lat="44.1198267" lon="8.1121967"><ele>243.66666666666666</ele><time>2026-04-22T13:21:11.547Z</time></trkpt><trkpt lat="44.1197617" lon="8.1123333"><ele>244.0</ele><time>2026-04-22T13:21:13.547Z</time></trkpt><trkpt lat="44.11972" lon="8.1124333"><ele>238.66666666666666</ele><time>2026-04-22T13:21:14.547Z</time></trkpt><trkpt lat="44.1196833" lon="8.112525"><ele>233.33333333333331</ele><time>2026-04-22T13:21:15.547Z</time></trkpt><trkpt lat="44.1196367" lon="8.1126267"><ele>228.0</ele><time>2026-04-22T13:21:16.547Z</time></trkpt><trkpt lat="44.1196" lon="8.11273"><ele>222.66666666666669</ele><time>2026-04-22T13:21:17.547Z</time></trkpt><trkpt lat="44.1195517" lon="8.1128283"><ele>217.33333333333334</ele><time>2026-04-22T13:21:18.547Z</time></trkpt><trkpt lat="44.11951" lon="8.1129167"><ele>212.0</ele><time>2026-04-22T13:21:19.547Z</time></trkpt><trkpt lat="44.1194667" lon="8.1130183"><ele>212.00000000000003</ele><time>2026-04-22T13:21:20.547Z</time></trkpt><trkpt lat="44.119425" lon="8.1131333"><ele>212.0</ele><time>2026-04-22T13:21:21.547Z</time></trkpt><trkpt lat="44.1193967" lon="8.11327"><ele>212.0</ele><time>2026-04-22T13:21:22.547Z</time></trkpt><trkpt lat="44.1193867" lon="8.113395"><ele>212.0</ele><time>2026-04-22T13:21:23.547Z</time></trkpt><trkpt lat="44.11936" lon="8.1135"><ele>212.00000000000003</ele><time>2026-04-22T13:21:24.547Z</time></trkpt><trkpt lat="44.119325" lon="8.1136017"><ele>212.0</ele><time>2026-04-22T13:21:25.546Z</time></trkpt><trkpt lat="44.1192917" lon="8.1136967"><ele>205.0</ele><time>2026-04-22T13:21:26.547Z</time></trkpt><trkpt lat="44.1192" lon="8.113815"><ele>198.0</ele><time>2026-04-22T13:21:28.547Z</time></trkpt><trkpt lat="44.1191233" lon="8.1138383"><ele>191.0</ele><time>2026-04-22T13:21:29.546Z</time></trkpt><trkpt lat="44.1190317" lon="8.1138467"><ele>184.0</ele><time>2026-04-22T13:21:30.547Z</time></trkpt><trkpt lat="44.118935" lon="8.1138217"><ele>177.0</ele><time>2026-04-22T13:21:31.547Z</time></trkpt><trkpt lat="44.118825" lon="8.1137767"><ele>175.8</ele><time>2026-04-22T13:21:32.547Z</time></trkpt><trkpt lat="44.1187233" lon="8.113715"><ele>174.6</ele><time>2026-04-22T13:21:33.547Z</time></trkpt><trkpt lat="44.11862" lon="8.1136567"><ele>173.4</ele><time>2026-04-22T13:21:34.547Z</time></trkpt><trkpt lat="44.11852" lon="8.1136117"><ele>172.20000000000002</ele><time>2026-04-22T13:21:35.547Z</time></trkpt><trkpt lat="44.11841" lon="8.11358"><ele>171.0</ele><time>2026-04-22T13:21:36.547Z</time></trkpt><trkpt lat="44.118295" lon="8.1135433"><ele>166.0</ele><time>2026-04-22T13:21:37.546Z</time></trkpt><trkpt lat="44.1181833" lon="8.1135017"><ele>161.0</ele><time>2026-04-22T13:21:38.547Z</time></trkpt><trkpt lat="44.1180683" lon="8.1134617"><ele>156.0</ele><time>2026-04-22T13:21:39.547Z</time></trkpt><trkpt lat="44.117955" lon="8.1134367"><ele>151.0</ele><time>2026-04-22T13:21:40.546Z</time></trkpt><trkpt lat="44.117835" lon="8.1134267"><ele>151.0</ele><time>2026-04-22T13:21:41.547Z</time></trkpt><trkpt lat="44.1177133" lon="8.1134117"><ele>151.0</ele><time>2026-04-22T13:21:42.547Z</time></trkpt><trkpt lat="44.1175967" lon="8.1134117"><ele>151.0</ele><time>2026-04-22T13:21:43.547Z</time></trkpt><trkpt lat="44.117505" lon="8.1134067"><ele>151.0</ele><time>2026-04-22T13:21:44.547Z</time></trkpt><trkpt lat="44.11743" lon="8.1133817"><ele>151.0</ele><time>2026-04-22T13:21:45.547Z</time></trkpt><trkpt lat="44.1173717" lon="8.113325"><ele>152.6</ele><time>2026-04-22T13:21:46.547Z</time></trkpt><trkpt lat="44.11731" lon="8.11324"><ele>154.2</ele><time>2026-04-22T13:21:47.547Z</time></trkpt><trkpt lat="44.11725" lon="8.1131467"><ele>155.8</ele><time>2026-04-22T13:21:48.547Z</time></trkpt><trkpt lat="44.1171767" lon="8.1130583"><ele>157.4</ele><time>2026-04-22T13:21:49.546Z</time></trkpt><trkpt lat="44.1170983" lon="8.1129817"><ele>159.0</ele><time>2026-04-22T13:21:50.547Z</time></trkpt><trkpt lat="44.117025" lon="8.1129217"><ele>159.0</ele><time>2026-04-22T13:21:51.547Z</time></trkpt><trkpt lat="44.1169567" lon="8.1129133"><ele>159.0</ele><time>2026-04-22T13:21:52.546Z</time></trkpt><trkpt lat="44.1168983" lon="8.1129467"><ele>159.0</ele><time>2026-04-22T13:21:53.547Z</time></trkpt><trkpt lat="44.1168417" lon="8.1130133"><ele>159.0</ele><time>2026-04-22T13:21:54.547Z</time></trkpt><trkpt lat="44.1168133" lon="8.1131117"><ele>159.0</ele><time>2026-04-22T13:21:55.547Z</time></trkpt><trkpt lat="44.1168167" lon="8.113235"><ele>159.0</ele><time>2026-04-22T13:21:56.547Z</time></trkpt><trkpt lat="44.1168217" lon="8.1133567"><ele>159.0</ele><time>2026-04-22T13:21:57.547Z</time></trkpt><trkpt lat="44.11682" lon="8.113475"><ele>159.0</ele><time>2026-04-22T13:21:58.547Z</time></trkpt><trkpt lat="44.1168" lon="8.1135717"><ele>159.0</ele><time>2026-04-22T13:21:59.547Z</time></trkpt><trkpt lat="44.116765" lon="8.1136533"><ele>159.0</ele><time>2026-04-22T13:22:00.547Z</time></trkpt><trkpt lat="44.116705" lon="8.11373"><ele>159.0</ele><time>2026-04-22T13:22:01.546Z</time></trkpt><trkpt lat="44.1166167" lon="8.113805"><ele>159.0</ele><time>2026-04-22T13:22:02.547Z</time></trkpt><trkpt lat="44.1164933" lon="8.1138483"><ele>160.2</ele><time>2026-04-22T13:22:03.547Z</time></trkpt><trkpt lat="44.1163833" lon="8.1138983"><ele>161.4</ele><time>2026-04-22T13:22:04.547Z</time></trkpt><trkpt lat="44.1162817" lon="8.1139433"><ele>162.6</ele><time>2026-04-22T13:22:05.547Z</time></trkpt><trkpt lat="44.1161867" lon="8.1139867"><ele>163.8</ele><time>2026-04-22T13:22:06.547Z</time></trkpt><trkpt lat="44.11609" lon="8.1140333"><ele>165.0</ele><time>2026-04-22T13:22:07.546Z</time></trkpt><trkpt lat="44.1160033" lon="8.1140917"><ele>165.0</ele><time>2026-04-22T13:22:08.547Z</time></trkpt><trkpt lat="44.115925" lon="8.114155"><ele>165.0</ele><time>2026-04-22T13:22:09.546Z</time></trkpt><trkpt lat="44.115865" lon="8.1142383"><ele>165.0</ele><time>2026-04-22T13:22:10.547Z</time></trkpt><trkpt lat="44.1158083" lon="8.1143517"><ele>165.0</ele><time>2026-04-22T13:22:11.547Z</time></trkpt><trkpt lat="44.11577" lon="8.11449"><ele>165.0</ele><time>2026-04-22T13:22:12.547Z</time></trkpt><trkpt lat="44.1157167" lon="8.1146167"><ele>164.75</ele><time>2026-04-22T13:22:13.547Z</time></trkpt><trkpt lat="44.11564" lon="8.114735"><ele>164.5</ele><time>2026-04-22T13:22:14.547Z</time></trkpt><trkpt lat="44.1155517" lon="8.1148433"><ele>164.25</ele><time>2026-04-22T13:22:15.546Z</time></trkpt><trkpt lat="44.115465" lon="8.1149483"><ele>164.0</ele><time>2026-04-22T13:22:16.546Z</time></trkpt><trkpt lat="44.115385" lon="8.1150567"><ele>164.0</ele><time>2026-04-22T13:22:17.547Z</time></trkpt><trkpt lat="44.1153333" lon="8.1151683"><ele>164.0</ele><time>2026-04-22T13:22:18.546Z</time></trkpt><trkpt lat="44.1153017" lon="8.1152833"><ele>164.0</ele><time>2026-04-22T13:22:19.547Z</time></trkpt><trkpt lat="44.1152983" lon="8.1153983"><ele>164.0</ele><time>2026-04-22T13:22:20.546Z</time></trkpt><trkpt lat="44.1152867" lon="8.1154917"><ele>164.0</ele><time>2026-04-22T13:22:21.546Z</time></trkpt><trkpt lat="44.1151967" lon="8.115575"><ele>164.0</ele><time>2026-04-22T13:22:23.547Z</time></trkpt><trkpt lat="44.1151133" lon="8.11559"><ele>164.0</ele><time>2026-04-22T13:22:24.547Z</time></trkpt><trkpt lat="44.1150217" lon="8.1156017"><ele>164.0</ele><time>2026-04-22T13:22:25.547Z</time></trkpt><trkpt lat="44.1149333" lon="8.1156017"><ele>164.0</ele><time>2026-04-22T13:22:26.547Z</time></trkpt><trkpt lat="44.1148433" lon="8.1156017"><ele>164.0</ele><time>2026-04-22T13:22:27.547Z</time></trkpt><trkpt lat="44.114755" lon="8.1156217"><ele>164.0</ele><time>2026-04-22T13:22:28.547Z</time></trkpt><trkpt lat="44.1146617" lon="8.1156533"><ele>162.16666666666666</ele><time>2026-04-22T13:22:29.547Z</time></trkpt><trkpt lat="44.1145683" lon="8.1156917"><ele>160.33333333333331</ele><time>2026-04-22T13:22:30.546Z</time></trkpt><trkpt lat="44.1144783" lon="8.1157267"><ele>158.5</ele><time>2026-04-22T13:22:31.547Z</time></trkpt><trkpt lat="44.1143967" lon="8.115745"><ele>156.66666666666666</ele><time>2026-04-22T13:22:32.547Z</time></trkpt><trkpt lat="44.1143067" lon="8.115755"><ele>154.83333333333334</ele><time>2026-04-22T13:22:33.546Z</time></trkpt><trkpt lat="44.1142333" lon="8.1157467"><ele>153.0</ele><time>2026-04-22T13:22:34.547Z</time></trkpt><trkpt lat="44.114125" lon="8.1157567"><ele>149.83333333333334</ele><time>2026-04-22T13:22:36.547Z</time></trkpt><trkpt lat="44.11405" lon="8.115755"><ele>146.66666666666666</ele><time>2026-04-22T13:22:38.547Z</time></trkpt><trkpt lat="44.113945" lon="8.1157267"><ele>143.5</ele><time>2026-04-22T13:22:40.547Z</time></trkpt><trkpt lat="44.1138717" lon="8.1156983"><ele>140.33333333333331</ele><time>2026-04-22T13:22:41.547Z</time></trkpt><trkpt lat="44.113795" lon="8.1156717"><ele>137.16666666666666</ele><time>2026-04-22T13:22:42.547Z</time></trkpt><trkpt lat="44.11372" lon="8.1156433"><ele>134.0</ele><time>2026-04-22T13:22:43.547Z</time></trkpt><trkpt lat="44.11365" lon="8.1156117"><ele>134.0</ele><time>2026-04-22T13:22:44.547Z</time></trkpt><trkpt lat="44.1135883" lon="8.1155817"><ele>134.0</ele><time>2026-04-22T13:22:45.547Z</time></trkpt><trkpt lat="44.11352" lon="8.115555"><ele>134.0</ele><time>2026-04-22T13:22:46.547Z</time></trkpt><trkpt lat="44.1134533" lon="8.1155183"><ele>134.0</ele><time>2026-04-22T13:22:47.547Z</time></trkpt><trkpt lat="44.11339" lon="8.1154867"><ele>134.0</ele><time>2026-04-22T13:22:48.547Z</time></trkpt><trkpt lat="44.1133267" lon="8.1154517"><ele>134.0</ele><time>2026-04-22T13:22:49.547Z</time></trkpt><trkpt lat="44.1132583" lon="8.1154333"><ele>134.0</ele><time>2026-04-22T13:22:50.547Z</time></trkpt><trkpt lat="44.1131933" lon="8.1154417"><ele>132.33333333333331</ele><time>2026-04-22T13:22:51.546Z</time></trkpt><trkpt lat="44.1131283" lon="8.1155367"><ele>130.66666666666666</ele><time>2026-04-22T13:22:53.546Z</time></trkpt><trkpt lat="44.1130617" lon="8.1155833"><ele>129.0</ele><time>2026-04-22T13:22:56.547Z</time></trkpt><trkpt lat="44.113" lon="8.115535"><ele>127.33333333333334</ele><time>2026-04-22T13:22:59.547Z</time></trkpt><trkpt lat="44.1128917" lon="8.1154633"><ele>125.66666666666667</ele><time>2026-04-22T13:24:38.547Z</time></trkpt><trkpt lat="44.1128267" lon="8.115425"><ele>124.0</ele><time>2026-04-22T13:24:39.547Z</time></trkpt><trkpt lat="44.1127667" lon="8.11539"><ele>124.0</ele><time>2026-04-22T13:24:40.547Z</time></trkpt><trkpt lat="44.1127083" lon="8.11535"><ele>124.0</ele><time>2026-04-22T13:24:41.546Z</time></trkpt><trkpt lat="44.1125967" lon="8.11528"><ele>124.0</ele><time>2026-04-22T13:24:43.547Z</time></trkpt><trkpt lat="44.1124983" lon="8.1152017"><ele>124.0</ele><time>2026-04-22T13:24:45.547Z</time></trkpt><trkpt lat="44.1124133" lon="8.1151383"><ele>124.0</ele><time>2026-04-22T13:24:47.546Z</time></trkpt><trkpt lat="44.11234" lon="8.1150883"><ele>123.66666666666667</ele><time>2026-04-22T13:24:49.547Z</time></trkpt><trkpt lat="44.1122483" lon="8.115015"><ele>123.33333333333334</ele><time>2026-04-22T13:24:51.547Z</time></trkpt><trkpt lat="44.1121883" lon="8.1149617"><ele>123.0</ele><time>2026-04-22T13:24:52.546Z</time></trkpt><trkpt lat="44.112125" lon="8.114905"><ele>122.66666666666666</ele><time>2026-04-22T13:24:53.546Z</time></trkpt><trkpt lat="44.1120517" lon="8.1148467"><ele>122.33333333333333</ele><time>2026-04-22T13:24:54.547Z</time></trkpt><trkpt lat="44.1119767" lon="8.1148033"><ele>122.0</ele><time>2026-04-22T13:24:55.547Z</time></trkpt><trkpt lat="44.1118933" lon="8.11476"><ele>125.5</ele><time>2026-04-22T13:24:56.547Z</time></trkpt><trkpt lat="44.1118017" lon="8.1147083"><ele>129.0</ele><time>2026-04-22T13:24:57.547Z</time></trkpt><trkpt lat="44.1116833" lon="8.1146683"><ele>132.5</ele><time>2026-04-22T13:24:58.547Z</time></trkpt><trkpt lat="44.1115567" lon="8.1146317"><ele>136.0</ele><time>2026-04-22T13:24:59.547Z</time></trkpt><trkpt lat="44.111435" lon="8.1146017"><ele>139.0</ele><time>2026-04-22T13:25:00.547Z</time></trkpt><trkpt lat="44.111315" lon="8.1145883"><ele>142.0</ele><time>2026-04-22T13:25:01.547Z</time></trkpt><trkpt lat="44.1111917" lon="8.114615"><ele>145.0</ele><time>2026-04-22T13:25:02.546Z</time></trkpt><trkpt lat="44.111075" lon="8.1146633"><ele>148.0</ele><time>2026-04-22T13:25:03.546Z</time></trkpt><trkpt lat="44.1109583" lon="8.11475"><ele>148.0</ele><time>2026-04-22T13:25:04.547Z</time></trkpt><trkpt lat="44.1108267" lon="8.11484"><ele>148.0</ele><time>2026-04-22T13:25:05.546Z</time></trkpt><trkpt lat="44.1106867" lon="8.1149367"><ele>148.0</ele><time>2026-04-22T13:25:06.547Z</time></trkpt><trkpt lat="44.1105483" lon="8.1150267"><ele>142.33333333333334</ele><time>2026-04-22T13:25:07.547Z</time></trkpt><trkpt lat="44.1104133" lon="8.1151183"><ele>136.66666666666666</ele><time>2026-04-22T13:25:08.547Z</time></trkpt><trkpt lat="44.1102667" lon="8.1151967"><ele>131.0</ele><time>2026-04-22T13:25:09.546Z</time></trkpt><trkpt lat="44.1101217" lon="8.1152683"><ele>131.0</ele><time>2026-04-22T13:25:10.546Z</time></trkpt><trkpt lat="44.109985" lon="8.115335"><ele>131.0</ele><time>2026-04-22T13:25:11.547Z</time></trkpt><trkpt lat="44.109855" lon="8.1153983"><ele>131.0</ele><time>2026-04-22T13:25:12.546Z</time></trkpt><trkpt lat="44.109735" lon="8.11548"><ele>131.0</ele><time>2026-04-22T13:25:13.546Z</time></trkpt><trkpt lat="44.1096267" lon="8.1156033"><ele>129.5</ele><time>2026-04-22T13:25:14.546Z</time></trkpt><trkpt lat="44.1095133" lon="8.11574"><ele>128.0</ele><time>2026-04-22T13:25:15.547Z</time></trkpt><trkpt lat="44.1093967" lon="8.1158733"><ele>126.5</ele><time>2026-04-22T13:25:16.547Z</time></trkpt><trkpt lat="44.109285" lon="8.1160033"><ele>125.0</ele><time>2026-04-22T13:25:17.547Z</time></trkpt><trkpt lat="44.109175" lon="8.1161417"><ele>124.75</ele><time>2026-04-22T13:25:18.547Z</time></trkpt><trkpt lat="44.1090717" lon="8.11626"><ele>124.5</ele><time>2026-04-22T13:25:19.547Z</time></trkpt><trkpt lat="44.1089833" lon="8.11638"><ele>124.25</ele><time>2026-04-22T13:25:20.547Z</time></trkpt><trkpt lat="44.1089033" lon="8.1165067"><ele>124.0</ele><time>2026-04-22T13:25:21.547Z</time></trkpt><trkpt lat="44.1088317" lon="8.1166283"><ele>124.0</ele><time>2026-04-22T13:25:22.547Z</time></trkpt><trkpt lat="44.1087817" lon="8.11677"><ele>124.0</ele><time>2026-04-22T13:25:23.547Z</time></trkpt><trkpt lat="44.1087467" lon="8.1169"><ele>124.0</ele><time>2026-04-22T13:25:24.547Z</time></trkpt><trkpt lat="44.1087233" lon="8.11703"><ele>124.0</ele><time>2026-04-22T13:25:25.546Z</time></trkpt><trkpt lat="44.1087033" lon="8.1171367"><ele>124.0</ele><time>2026-04-22T13:25:26.546Z</time></trkpt><trkpt lat="44.1086833" lon="8.1172617"><ele>124.0</ele><time>2026-04-22T13:25:28.547Z</time></trkpt><trkpt lat="44.108675" lon="8.1173583"><ele>124.0</ele><time>2026-04-22T13:25:32.547Z</time></trkpt><trkpt lat="44.1087783" lon="8.1173567"><ele>124.0</ele><time>2026-04-22T13:25:35.547Z</time></trkpt><trkpt lat="44.1088617" lon="8.11725"><ele>124.0</ele><time>2026-04-22T13:25:37.546Z</time></trkpt><trkpt lat="44.1089333" lon="8.11715"><ele>124.0</ele><time>2026-04-22T13:25:39.547Z</time></trkpt><trkpt lat="44.10901" lon="8.1170217"><ele>124.0</ele><time>2026-04-22T13:25:41.547Z</time></trkpt><trkpt lat="44.10907" lon="8.116925"><ele>124.0</ele><time>2026-04-22T13:25:42.547Z</time></trkpt><trkpt lat="44.1091433" lon="8.1168317"><ele>124.0</ele><time>2026-04-22T13:25:43.547Z</time></trkpt><trkpt lat="44.1092167" lon="8.11674"><ele>124.0</ele><time>2026-04-22T13:25:44.546Z</time></trkpt><trkpt lat="44.1092883" lon="8.1166633"><ele>124.0</ele><time>2026-04-22T13:25:45.547Z</time></trkpt><trkpt lat="44.109365" lon="8.11659"><ele>124.16666666666667</ele><time>2026-04-22T13:25:46.547Z</time></trkpt><trkpt lat="44.10944" lon="8.116515"><ele>124.33333333333334</ele><time>2026-04-22T13:25:47.547Z</time></trkpt><trkpt lat="44.1095067" lon="8.1164417"><ele>124.5</ele><time>2026-04-22T13:25:48.547Z</time></trkpt><trkpt lat="44.1095783" lon="8.1163783"><ele>124.66666666666666</ele><time>2026-04-22T13:25:49.547Z</time></trkpt><trkpt lat="44.1096417" lon="8.1163"><ele>124.83333333333333</ele><time>2026-04-22T13:25:50.547Z</time></trkpt><trkpt lat="44.1097183" lon="8.11623"><ele>125.0</ele><time>2026-04-22T13:25:51.547Z</time></trkpt><trkpt lat="44.1098033" lon="8.1161833"><ele>124.99999999999999</ele><time>2026-04-22T13:25:52.547Z</time></trkpt><trkpt lat="44.1098883" lon="8.1161433"><ele>125.0</ele><time>2026-04-22T13:25:53.546Z</time></trkpt><trkpt lat="44.1099617" lon="8.11609"><ele>125.0</ele><time>2026-04-22T13:25:54.547Z</time></trkpt><trkpt lat="44.1100417" lon="8.1160133"><ele>125.0</ele><time>2026-04-22T13:25:55.547Z</time></trkpt><trkpt lat="44.11012" lon="8.1159583"><ele>124.99999999999999</ele><time>2026-04-22T13:25:56.547Z</time></trkpt><trkpt lat="44.1102" lon="8.1159017"><ele>125.0</ele><time>2026-04-22T13:25:57.547Z</time></trkpt><trkpt lat="44.110285" lon="8.1158317"><ele>126.2</ele><time>2026-04-22T13:25:58.547Z</time></trkpt><trkpt lat="44.1103817" lon="8.1157833"><ele>127.4</ele><time>2026-04-22T13:25:59.547Z</time></trkpt><trkpt lat="44.1104567" lon="8.1157567"><ele>128.6</ele><time>2026-04-22T13:26:00.547Z</time></trkpt><trkpt lat="44.110525" lon="8.115725"><ele>129.8</ele><time>2026-04-22T13:26:01.547Z</time></trkpt><trkpt lat="44.11059" lon="8.11569"><ele>131.0</ele><time>2026-04-22T13:26:02.547Z</time></trkpt><trkpt lat="44.11072" lon="8.1156467"><ele>129.2</ele><time>2026-04-22T13:26:04.547Z</time></trkpt><trkpt lat="44.1108083" lon="8.1156233"><ele>127.39999999999999</ele><time>2026-04-22T13:26:06.547Z</time></trkpt><trkpt lat="44.1108733" lon="8.11563"><ele>125.6</ele><time>2026-04-22T13:26:09.547Z</time></trkpt><trkpt lat="44.1109767" lon="8.1156533"><ele>123.8</ele><time>2026-04-22T13:44:05.549Z</time></trkpt><trkpt lat="44.1110833" lon="8.1156267"><ele>122.0</ele><time>2026-04-22T13:44:07.549Z</time></trkpt><trkpt lat="44.111185" lon="8.115625"><ele>122.0</ele><time>2026-04-22T13:44:09.549Z</time></trkpt><trkpt lat="44.11129" lon="8.1156083"><ele>121.99999999999999</ele><time>2026-04-22T13:44:11.549Z</time></trkpt><trkpt lat="44.1114117" lon="8.1155867"><ele>121.99999999999999</ele><time>2026-04-22T13:44:13.549Z</time></trkpt><trkpt lat="44.1114817" lon="8.115575"><ele>122.0</ele><time>2026-04-22T13:44:14.548Z</time></trkpt><trkpt lat="44.1115717" lon="8.11556"><ele>122.0</ele><time>2026-04-22T13:44:15.549Z</time></trkpt><trkpt lat="44.1116517" lon="8.11556"><ele>121.99999999999999</ele><time>2026-04-22T13:44:16.549Z</time></trkpt><trkpt lat="44.11173" lon="8.11557"><ele>122.0</ele><time>2026-04-22T13:44:17.549Z</time></trkpt><trkpt lat="44.1118017" lon="8.11558"><ele>122.0</ele><time>2026-04-22T13:44:18.549Z</time></trkpt><trkpt lat="44.1119183" lon="8.115595"><ele>122.0</ele><time>2026-04-22T13:44:20.548Z</time></trkpt><trkpt lat="44.1119967" lon="8.115625"><ele>121.99999999999999</ele><time>2026-04-22T13:44:21.549Z</time></trkpt><trkpt lat="44.112085" lon="8.1156867"><ele>122.0</ele><time>2026-04-22T13:44:22.549Z</time></trkpt><trkpt lat="44.1121683" lon="8.1157633"><ele>122.33333333333333</ele><time>2026-04-22T13:44:23.548Z</time></trkpt><trkpt lat="44.112265" lon="8.1158567"><ele>122.66666666666666</ele><time>2026-04-22T13:44:24.548Z</time></trkpt><trkpt lat="44.11233" lon="8.1159333"><ele>123.0</ele><time>2026-04-22T13:44:25.548Z</time></trkpt><trkpt lat="44.1123883" lon="8.11599"><ele>123.33333333333334</ele><time>2026-04-22T13:44:26.549Z</time></trkpt><trkpt lat="44.1124467" lon="8.1160533"><ele>123.66666666666667</ele><time>2026-04-22T13:44:27.549Z</time></trkpt><trkpt lat="44.112495" lon="8.116115"><ele>124.0</ele><time>2026-04-22T13:44:28.549Z</time></trkpt><trkpt lat="44.1125417" lon="8.116185"><ele>123.2</ele><time>2026-04-22T13:44:29.549Z</time></trkpt><trkpt lat="44.1125967" lon="8.116255"><ele>122.4</ele><time>2026-04-22T13:44:30.549Z</time></trkpt><trkpt lat="44.112645" lon="8.11632"><ele>121.6</ele><time>2026-04-22T13:44:31.549Z</time></trkpt><trkpt lat="44.1127233" lon="8.1164"><ele>120.8</ele><time>2026-04-22T13:44:33.549Z</time></trkpt><trkpt lat="44.1127933" lon="8.1165183"><ele>120.0</ele><time>2026-04-22T13:44:35.549Z</time></trkpt><trkpt lat="44.1128717" lon="8.1166383"><ele>121.8</ele><time>2026-04-22T13:44:37.549Z</time></trkpt><trkpt lat="44.1129383" lon="8.1167217"><ele>123.6</ele><time>2026-04-22T13:44:39.549Z</time></trkpt><trkpt lat="44.1130183" lon="8.1168417"><ele>125.4</ele><time>2026-04-22T13:44:41.549Z</time></trkpt><trkpt lat="44.1130683" lon="8.1169017"><ele>127.2</ele><time>2026-04-22T13:44:42.549Z</time></trkpt><trkpt lat="44.1131183" lon="8.11696"><ele>129.0</ele><time>2026-04-22T13:44:43.549Z</time></trkpt><trkpt lat="44.1132133" lon="8.1170533"><ele>127.66666666666667</ele><time>2026-04-22T13:44:45.549Z</time></trkpt><trkpt lat="44.113285" lon="8.11711"><ele>126.33333333333334</ele><time>2026-04-22T13:44:47.549Z</time></trkpt><trkpt lat="44.11336" lon="8.1171"><ele>125.0</ele><time>2026-04-22T13:44:51.549Z</time></trkpt><trkpt lat="44.1133867" lon="8.1169333"><ele>123.66666666666667</ele><time>2026-04-22T13:44:53.548Z</time></trkpt><trkpt lat="44.1133783" lon="8.116825"><ele>122.33333333333334</ele><time>2026-04-22T13:44:54.549Z</time></trkpt><trkpt lat="44.113375" lon="8.1167117"><ele>121.0</ele><time>2026-04-22T13:44:55.549Z</time></trkpt><trkpt lat="44.11338" lon="8.116595"><ele>121.19999999999999</ele><time>2026-04-22T13:44:56.549Z</time></trkpt><trkpt lat="44.1133833" lon="8.1164617"><ele>121.39999999999999</ele><time>2026-04-22T13:44:57.549Z</time></trkpt><trkpt lat="44.1133867" lon="8.11631"><ele>121.6</ele><time>2026-04-22T13:44:58.548Z</time></trkpt><trkpt lat="44.1133783" lon="8.11615"><ele>121.8</ele><time>2026-04-22T13:44:59.549Z</time></trkpt><trkpt lat="44.113355" lon="8.1160117"><ele>122.0</ele><time>2026-04-22T13:45:00.549Z</time></trkpt><trkpt lat="44.1133067" lon="8.115875"><ele>121.5</ele><time>2026-04-22T13:45:01.549Z</time></trkpt><trkpt lat="44.11322" lon="8.1157583"><ele>121.0</ele><time>2026-04-22T13:45:02.549Z</time></trkpt><trkpt lat="44.113115" lon="8.1156517"><ele>120.5</ele><time>2026-04-22T13:45:03.549Z</time></trkpt><trkpt lat="44.1129967" lon="8.1155617"><ele>120.0</ele><time>2026-04-22T13:45:04.549Z</time></trkpt><trkpt lat="44.112875" lon="8.11548"><ele>120.5</ele><time>2026-04-22T13:45:05.549Z</time></trkpt><trkpt lat="44.112755" lon="8.1153967"><ele>121.0</ele><time>2026-04-22T13:45:06.549Z</time></trkpt><trkpt lat="44.1126367" lon="8.115315"><ele>121.5</ele><time>2026-04-22T13:45:07.549Z</time></trkpt><trkpt lat="44.1125217" lon="8.1152383"><ele>122.0</ele><time>2026-04-22T13:45:08.549Z</time></trkpt><trkpt lat="44.112405" lon="8.1151567"><ele>122.0</ele><time>2026-04-22T13:45:09.549Z</time></trkpt><trkpt lat="44.112285" lon="8.1150683"><ele>122.0</ele><time>2026-04-22T13:45:10.548Z</time></trkpt><trkpt lat="44.1121667" lon="8.1149717"><ele>122.0</ele><time>2026-04-22T13:45:11.549Z</time></trkpt><trkpt lat="44.11205" lon="8.11488"><ele>122.0</ele><time>2026-04-22T13:45:12.548Z</time></trkpt><trkpt lat="44.11192" lon="8.114795"><ele>125.5</ele><time>2026-04-22T13:45:13.548Z</time></trkpt><trkpt lat="44.1117833" lon="8.1147317"><ele>129.0</ele><time>2026-04-22T13:45:14.549Z</time></trkpt><trkpt lat="44.1116433" lon="8.114685"><ele>132.5</ele><time>2026-04-22T13:45:15.548Z</time></trkpt><trkpt lat="44.11151" lon="8.1146483"><ele>136.0</ele><time>2026-04-22T13:45:16.549Z</time></trkpt><trkpt lat="44.1113867" lon="8.1146267"><ele>139.0</ele><time>2026-04-22T13:45:17.549Z</time></trkpt><trkpt lat="44.1112583" lon="8.1146283"><ele>142.0</ele><time>2026-04-22T13:45:18.549Z</time></trkpt><trkpt lat="44.1111417" lon="8.114655"><ele>145.0</ele><time>2026-04-22T13:45:19.549Z</time></trkpt><trkpt lat="44.11102" lon="8.11472"><ele>148.0</ele><time>2026-04-22T13:45:20.549Z</time></trkpt><trkpt lat="44.11089" lon="8.114795"><ele>148.0</ele><time>2026-04-22T13:45:21.548Z</time></trkpt><trkpt lat="44.1107583" lon="8.1148783"><ele>148.0</ele><time>2026-04-22T13:45:22.549Z</time></trkpt><trkpt lat="44.110625" lon="8.1149633"><ele>148.0</ele><time>2026-04-22T13:45:23.549Z</time></trkpt><trkpt lat="44.1104883" lon="8.1150283"><ele>148.0</ele><time>2026-04-22T13:45:24.549Z</time></trkpt><trkpt lat="44.11035" lon="8.1150917"><ele>142.33333333333334</ele><time>2026-04-22T13:45:25.549Z</time></trkpt><trkpt lat="44.1102083" lon="8.1151933"><ele>136.66666666666666</ele><time>2026-04-22T13:45:26.549Z</time></trkpt><trkpt lat="44.1100667" lon="8.11527"><ele>131.0</ele><time>2026-04-22T13:45:27.549Z</time></trkpt><trkpt lat="44.1099267" lon="8.11532"><ele>129.5</ele><time>2026-04-22T13:45:28.549Z</time></trkpt><trkpt lat="44.109795" lon="8.115395"><ele>128.0</ele><time>2026-04-22T13:45:29.549Z</time></trkpt><trkpt lat="44.1096733" lon="8.115505"><ele>126.5</ele><time>2026-04-22T13:45:30.548Z</time></trkpt><trkpt lat="44.1095583" lon="8.1156383"><ele>125.0</ele><time>2026-04-22T13:45:31.549Z</time></trkpt><trkpt lat="44.1094467" lon="8.1157883"><ele>125.0</ele><time>2026-04-22T13:45:32.549Z</time></trkpt><trkpt lat="44.10933" lon="8.115935"><ele>125.0</ele><time>2026-04-22T13:45:33.549Z</time></trkpt><trkpt lat="44.1092083" lon="8.1160633"><ele>125.0</ele><time>2026-04-22T13:45:34.549Z</time></trkpt><trkpt lat="44.1090933" lon="8.1162067"><ele>124.66666666666666</ele><time>2026-04-22T13:45:35.549Z</time></trkpt><trkpt lat="44.1089817" lon="8.11635"><ele>124.33333333333334</ele><time>2026-04-22T13:45:36.549Z</time></trkpt><trkpt lat="44.1088933" lon="8.11653"><ele>124.0</ele><time>2026-04-22T13:45:37.548Z</time></trkpt><trkpt lat="44.108815" lon="8.1167267"><ele>124.0</ele><time>2026-04-22T13:45:38.549Z</time></trkpt><trkpt lat="44.1087617" lon="8.1169383"><ele>124.0</ele><time>2026-04-22T13:45:39.549Z</time></trkpt><trkpt lat="44.1087283" lon="8.1171383"><ele>124.0</ele><time>2026-04-22T13:45:40.548Z</time></trkpt><trkpt lat="44.1086783" lon="8.1173267"><ele>119.66666666666667</ele><time>2026-04-22T13:45:41.549Z</time></trkpt><trkpt lat="44.1086133" lon="8.1175167"><ele>115.33333333333334</ele><time>2026-04-22T13:45:42.548Z</time></trkpt><trkpt lat="44.10851" lon="8.11769"><ele>111.0</ele><time>2026-04-22T13:45:43.549Z</time></trkpt><trkpt lat="44.108395" lon="8.1178483"><ele>111.0</ele><time>2026-04-22T13:45:44.549Z</time></trkpt><trkpt lat="44.10828" lon="8.1180167"><ele>111.0</ele><time>2026-04-22T13:45:45.549Z</time></trkpt><trkpt lat="44.10818" lon="8.1182117"><ele>111.0</ele><time>2026-04-22T13:45:46.549Z</time></trkpt><trkpt lat="44.1081" lon="8.1184317"><ele>113.0</ele><time>2026-04-22T13:45:47.549Z</time></trkpt><trkpt lat="44.1080367" lon="8.1186833"><ele>115.0</ele><time>2026-04-22T13:45:48.549Z</time></trkpt><trkpt lat="44.1080033" lon="8.11893"><ele>117.0</ele><time>2026-04-22T13:45:49.548Z</time></trkpt><trkpt lat="44.1079717" lon="8.1191833"><ele>117.0</ele><time>2026-04-22T13:45:50.549Z</time></trkpt><trkpt lat="44.1079533" lon="8.11944"><ele>117.0</ele><time>2026-04-22T13:45:51.548Z</time></trkpt><trkpt lat="44.10794" lon="8.1197067"><ele>117.0</ele><time>2026-04-22T13:45:52.548Z</time></trkpt><trkpt lat="44.10794" lon="8.1199633"><ele>115.33333333333334</ele><time>2026-04-22T13:45:53.549Z</time></trkpt><trkpt lat="44.1079633" lon="8.12019"><ele>113.66666666666667</ele><time>2026-04-22T13:45:54.549Z</time></trkpt><trkpt lat="44.108" lon="8.1204"><ele>112.0</ele><time>2026-04-22T13:45:55.548Z</time></trkpt><trkpt lat="44.108025" lon="8.1206217"><ele>109.33333333333334</ele><time>2026-04-22T13:45:56.548Z</time></trkpt><trkpt lat="44.1080267" lon="8.12085"><ele>106.66666666666666</ele><time>2026-04-22T13:45:57.549Z</time></trkpt><trkpt lat="44.1080133" lon="8.121065"><ele>104.0</ele><time>2026-04-22T13:45:58.548Z</time></trkpt><trkpt lat="44.1079667" lon="8.1212567"><ele>104.0</ele><time>2026-04-22T13:45:59.549Z</time></trkpt><trkpt lat="44.1079" lon="8.1214467"><ele>104.0</ele><time>2026-04-22T13:46:00.549Z</time></trkpt><trkpt lat="44.10779" lon="8.1216167"><ele>104.0</ele><time>2026-04-22T13:46:01.549Z</time></trkpt><trkpt lat="44.1076617" lon="8.1217667"><ele>103.66666666666666</ele><time>2026-04-22T13:46:02.549Z</time></trkpt><trkpt lat="44.107515" lon="8.1219033"><ele>103.33333333333334</ele><time>2026-04-22T13:46:03.549Z</time></trkpt><trkpt lat="44.10736" lon="8.12203"><ele>103.0</ele><time>2026-04-22T13:46:04.549Z</time></trkpt><trkpt lat="44.1072017" lon="8.1221883"><ele>102.33333333333334</ele><time>2026-04-22T13:46:05.549Z</time></trkpt><trkpt lat="44.1070517" lon="8.1223317"><ele>101.66666666666666</ele><time>2026-04-22T13:46:06.548Z</time></trkpt><trkpt lat="44.1068983" lon="8.122475"><ele>101.0</ele><time>2026-04-22T13:46:07.549Z</time></trkpt><trkpt lat="44.1067517" lon="8.1226333"><ele>101.0</ele><time>2026-04-22T13:46:08.549Z</time></trkpt><trkpt lat="44.1066" lon="8.12279"><ele>101.0</ele><time>2026-04-22T13:46:09.549Z</time></trkpt><trkpt lat="44.1064467" lon="8.1229433"><ele>101.0</ele><time>2026-04-22T13:46:10.549Z</time></trkpt><trkpt lat="44.1062867" lon="8.1230917"><ele>103.0</ele><time>2026-04-22T13:46:11.548Z</time></trkpt><trkpt lat="44.1061317" lon="8.1232433"><ele>105.0</ele><time>2026-04-22T13:46:12.549Z</time></trkpt><trkpt lat="44.1059733" lon="8.1234"><ele>107.0</ele><time>2026-04-22T13:46:13.549Z</time></trkpt><trkpt lat="44.10582" lon="8.1235567"><ele>110.0</ele><time>2026-04-22T13:46:14.549Z</time></trkpt><trkpt lat="44.105665" lon="8.123705"><ele>113.0</ele><time>2026-04-22T13:46:15.548Z</time></trkpt><trkpt lat="44.105515" lon="8.1238717"><ele>116.0</ele><time>2026-04-22T13:46:16.548Z</time></trkpt><trkpt lat="44.1053683" lon="8.1240483"><ele>112.0</ele><time>2026-04-22T13:46:17.549Z</time></trkpt><trkpt lat="44.1052333" lon="8.1242033"><ele>108.0</ele><time>2026-04-22T13:46:18.548Z</time></trkpt><trkpt lat="44.1050983" lon="8.1243483"><ele>104.0</ele><time>2026-04-22T13:46:19.549Z</time></trkpt><trkpt lat="44.104955" lon="8.1244717"><ele>104.0</ele><time>2026-04-22T13:46:20.548Z</time></trkpt><trkpt lat="44.1048033" lon="8.1245767"><ele>104.0</ele><time>2026-04-22T13:46:21.549Z</time></trkpt><trkpt lat="44.1046583" lon="8.124645"><ele>104.0</ele><time>2026-04-22T13:46:22.549Z</time></trkpt><trkpt lat="44.1045" lon="8.124695"><ele>104.0</ele><time>2026-04-22T13:46:23.549Z</time></trkpt><trkpt lat="44.1043417" lon="8.1247367"><ele>104.0</ele><time>2026-04-22T13:46:24.549Z</time></trkpt><trkpt lat="44.10419" lon="8.1247283"><ele>104.0</ele><time>2026-04-22T13:46:25.549Z</time></trkpt><trkpt lat="44.1040417" lon="8.1246733"><ele>105.0</ele><time>2026-04-22T13:46:26.549Z</time></trkpt><trkpt lat="44.1038933" lon="8.1245783"><ele>106.0</ele><time>2026-04-22T13:46:27.549Z</time></trkpt><trkpt lat="44.10373" lon="8.1244733"><ele>107.0</ele><time>2026-04-22T13:46:28.549Z</time></trkpt><trkpt lat="44.103555" lon="8.124335"><ele>107.0</ele><time>2026-04-22T13:46:29.549Z</time></trkpt><trkpt lat="44.103375" lon="8.1241883"><ele>107.0</ele><time>2026-04-22T13:46:30.549Z</time></trkpt><trkpt lat="44.1031917" lon="8.124055"><ele>107.0</ele><time>2026-04-22T13:46:31.549Z</time></trkpt><trkpt lat="44.102995" lon="8.1239467"><ele>104.33333333333333</ele><time>2026-04-22T13:46:32.549Z</time></trkpt><trkpt lat="44.1028" lon="8.1238417"><ele>101.66666666666666</ele><time>2026-04-22T13:46:33.549Z</time></trkpt><trkpt lat="44.1026117" lon="8.12374"><ele>99.0</ele><time>2026-04-22T13:46:34.549Z</time></trkpt><trkpt lat="44.1024167" lon="8.1236767"><ele>98.33333333333334</ele><time>2026-04-22T13:46:35.549Z</time></trkpt><trkpt lat="44.102235" lon="8.1236567"><ele>97.66666666666667</ele><time>2026-04-22T13:46:36.549Z</time></trkpt><trkpt lat="44.10205" lon="8.1236567"><ele>97.0</ele><time>2026-04-22T13:46:37.549Z</time></trkpt><trkpt lat="44.10187" lon="8.12364"><ele>97.0</ele><time>2026-04-22T13:46:38.549Z</time></trkpt><trkpt lat="44.101705" lon="8.1235967"><ele>97.0</ele><time>2026-04-22T13:46:39.549Z</time></trkpt><trkpt lat="44.1015483" lon="8.1235117"><ele>97.0</ele><time>2026-04-22T13:46:40.548Z</time></trkpt><trkpt lat="44.10138" lon="8.123405"><ele>97.33333333333334</ele><time>2026-04-22T13:46:41.549Z</time></trkpt><trkpt lat="44.1012133" lon="8.1232767"><ele>97.66666666666666</ele><time>2026-04-22T13:46:42.549Z</time></trkpt><trkpt lat="44.1010283" lon="8.1231817"><ele>98.0</ele><time>2026-04-22T13:46:43.548Z</time></trkpt><trkpt lat="44.1008567" lon="8.12312"><ele>99.0</ele><time>2026-04-22T13:46:44.548Z</time></trkpt><trkpt lat="44.100675" lon="8.1231183"><ele>100.0</ele><time>2026-04-22T13:46:45.549Z</time></trkpt><trkpt lat="44.100495" lon="8.12317"><ele>101.0</ele><time>2026-04-22T13:46:46.549Z</time></trkpt><trkpt lat="44.1003117" lon="8.12325"><ele>102.0</ele><time>2026-04-22T13:46:47.549Z</time></trkpt><trkpt lat="44.1001467" lon="8.1233833"><ele>103.0</ele><time>2026-04-22T13:46:48.549Z</time></trkpt><trkpt lat="44.0999883" lon="8.1235767"><ele>104.0</ele><time>2026-04-22T13:46:49.549Z</time></trkpt><trkpt lat="44.0998467" lon="8.123775"><ele>104.0</ele><time>2026-04-22T13:46:50.549Z</time></trkpt><trkpt lat="44.0997117" lon="8.1239567"><ele>104.0</ele><time>2026-04-22T13:46:51.549Z</time></trkpt><trkpt lat="44.0995783" lon="8.1241567"><ele>104.0</ele><time>2026-04-22T13:46:52.549Z</time></trkpt><trkpt lat="44.0994267" lon="8.12436"><ele>100.0</ele><time>2026-04-22T13:46:53.549Z</time></trkpt><trkpt lat="44.0992683" lon="8.1245667"><ele>96.0</ele><time>2026-04-22T13:46:54.549Z</time></trkpt><trkpt lat="44.0991233" lon="8.1247433"><ele>92.0</ele><time>2026-04-22T13:46:55.549Z</time></trkpt><trkpt lat="44.0989833" lon="8.124905"><ele>92.0</ele><time>2026-04-22T13:46:56.549Z</time></trkpt><trkpt lat="44.0988433" lon="8.125055"><ele>92.0</ele><time>2026-04-22T13:46:57.549Z</time></trkpt><trkpt lat="44.0987033" lon="8.1251733"><ele>92.0</ele><time>2026-04-22T13:46:58.548Z</time></trkpt><trkpt lat="44.098565" lon="8.1252683"><ele>92.0</ele><time>2026-04-22T13:46:59.549Z</time></trkpt><trkpt lat="44.0984267" lon="8.1253283"><ele>92.0</ele><time>2026-04-22T13:47:00.549Z</time></trkpt><trkpt lat="44.0982967" lon="8.12536"><ele>92.0</ele><time>2026-04-22T13:47:01.549Z</time></trkpt><trkpt lat="44.0981683" lon="8.12537"><ele>92.0</ele><time>2026-04-22T13:47:02.549Z</time></trkpt><trkpt lat="44.0980467" lon="8.12536"><ele>92.19999999999999</ele><time>2026-04-22T13:47:03.549Z</time></trkpt><trkpt lat="44.0979333" lon="8.1253333"><ele>92.4</ele><time>2026-04-22T13:47:04.549Z</time></trkpt><trkpt lat="44.0978317" lon="8.1252867"><ele>92.6</ele><time>2026-04-22T13:47:05.548Z</time></trkpt><trkpt lat="44.0977333" lon="8.12525"><ele>92.80000000000001</ele><time>2026-04-22T13:47:06.549Z</time></trkpt><trkpt lat="44.097635" lon="8.125215"><ele>93.0</ele><time>2026-04-22T13:47:07.549Z</time></trkpt><trkpt lat="44.0975383" lon="8.1251867"><ele>93.0</ele><time>2026-04-22T13:47:08.549Z</time></trkpt><trkpt lat="44.097445" lon="8.125165"><ele>93.0</ele><time>2026-04-22T13:47:09.549Z</time></trkpt><trkpt lat="44.0973567" lon="8.1251417"><ele>93.0</ele><time>2026-04-22T13:47:10.549Z</time></trkpt><trkpt lat="44.0972667" lon="8.1251417"><ele>93.0</ele><time>2026-04-22T13:47:11.549Z</time></trkpt><trkpt lat="44.09717" lon="8.1251733"><ele>93.0</ele><time>2026-04-22T13:47:12.548Z</time></trkpt><trkpt lat="44.097075" lon="8.125225"><ele>92.2</ele><time>2026-04-22T13:47:13.549Z</time></trkpt><trkpt lat="44.096985" lon="8.1253133"><ele>91.4</ele><time>2026-04-22T13:47:14.549Z</time></trkpt><trkpt lat="44.096905" lon="8.1254233"><ele>90.60000000000001</ele><time>2026-04-22T13:47:15.549Z</time></trkpt><trkpt lat="44.0968267" lon="8.125535"><ele>89.80000000000001</ele><time>2026-04-22T13:47:16.548Z</time></trkpt><trkpt lat="44.0967417" lon="8.125635"><ele>89.0</ele><time>2026-04-22T13:47:17.549Z</time></trkpt><trkpt lat="44.096675" lon="8.1257317"><ele>89.0</ele><time>2026-04-22T13:47:18.549Z</time></trkpt><trkpt lat="44.0966117" lon="8.12584"><ele>89.0</ele><time>2026-04-22T13:47:19.549Z</time></trkpt><trkpt lat="44.09655" lon="8.125945"><ele>89.0</ele><time>2026-04-22T13:47:20.548Z</time></trkpt><trkpt lat="44.09648" lon="8.1260633"><ele>89.0</ele><time>2026-04-22T13:47:21.548Z</time></trkpt><trkpt lat="44.0964067" lon="8.1261867"><ele>89.0</ele><time>2026-04-22T13:47:22.549Z</time></trkpt><trkpt lat="44.0963267" lon="8.1263167"><ele>88.0</ele><time>2026-04-22T13:47:23.549Z</time></trkpt><trkpt lat="44.0962533" lon="8.1264517"><ele>87.0</ele><time>2026-04-22T13:47:24.549Z</time></trkpt><trkpt lat="44.0961767" lon="8.1265917"><ele>86.0</ele><time>2026-04-22T13:47:25.549Z</time></trkpt><trkpt lat="44.0961033" lon="8.1267317"><ele>85.0</ele><time>2026-04-22T13:47:26.549Z</time></trkpt><trkpt lat="44.0960267" lon="8.1268717"><ele>84.25</ele><time>2026-04-22T13:47:27.549Z</time></trkpt><trkpt lat="44.09596" lon="8.1270017"><ele>83.5</ele><time>2026-04-22T13:47:28.549Z</time></trkpt><trkpt lat="44.09589" lon="8.1271317"><ele>82.75</ele><time>2026-04-22T13:47:29.549Z</time></trkpt><trkpt lat="44.0958017" lon="8.1272433"><ele>82.0</ele><time>2026-04-22T13:47:30.549Z</time></trkpt><trkpt lat="44.095715" lon="8.127345"><ele>81.0</ele><time>2026-04-22T13:47:31.549Z</time></trkpt><trkpt lat="44.095625" lon="8.1274417"><ele>80.0</ele><time>2026-04-22T13:47:32.548Z</time></trkpt><trkpt lat="44.0955367" lon="8.12753"><ele>79.0</ele><time>2026-04-22T13:47:33.549Z</time></trkpt><trkpt lat="44.0954417" lon="8.1275983"><ele>78.0</ele><time>2026-04-22T13:47:34.549Z</time></trkpt><trkpt lat="44.0953483" lon="8.1276483"><ele>77.0</ele><time>2026-04-22T13:47:35.549Z</time></trkpt><trkpt lat="44.0952567" lon="8.127695"><ele>77.0</ele><time>2026-04-22T13:47:36.549Z</time></trkpt><trkpt lat="44.095155" lon="8.1277383"><ele>77.0</ele><time>2026-04-22T13:47:37.549Z</time></trkpt><trkpt lat="44.09505" lon="8.1277883"><ele>77.0</ele><time>2026-04-22T13:47:38.549Z</time></trkpt><trkpt lat="44.0949483" lon="8.1278317"><ele>77.0</ele><time>2026-04-22T13:47:39.549Z</time></trkpt><trkpt lat="44.0948433" lon="8.1278833"><ele>77.0</ele><time>2026-04-22T13:47:40.549Z</time></trkpt><trkpt lat="44.0947367" lon="8.1279283"><ele>76.8</ele><time>2026-04-22T13:47:41.549Z</time></trkpt><trkpt lat="44.0946383" lon="8.127955"><ele>76.6</ele><time>2026-04-22T13:47:42.549Z</time></trkpt><trkpt lat="44.0945333" lon="8.1279767"><ele>76.39999999999999</ele><time>2026-04-22T13:47:43.549Z</time></trkpt><trkpt lat="44.0944283" lon="8.1279883"><ele>76.2</ele><time>2026-04-22T13:47:44.549Z</time></trkpt><trkpt lat="44.094315" lon="8.128"><ele>76.0</ele><time>2026-04-22T13:47:45.549Z</time></trkpt><trkpt lat="44.094205" lon="8.1279933"><ele>76.0</ele><time>2026-04-22T13:47:46.549Z</time></trkpt><trkpt lat="44.094095" lon="8.1279783"><ele>76.0</ele><time>2026-04-22T13:47:47.548Z</time></trkpt><trkpt lat="44.0939933" lon="8.1279517"><ele>76.0</ele><time>2026-04-22T13:47:48.549Z</time></trkpt><trkpt lat="44.0939" lon="8.1279317"><ele>76.0</ele><time>2026-04-22T13:47:49.549Z</time></trkpt><trkpt lat="44.0937933" lon="8.127905"><ele>76.0</ele><time>2026-04-22T13:47:50.549Z</time></trkpt><trkpt lat="44.0936967" lon="8.12791"><ele>76.0</ele><time>2026-04-22T13:47:51.549Z</time></trkpt><trkpt lat="44.093605" lon="8.1279267"><ele>76.0</ele><time>2026-04-22T13:47:52.549Z</time></trkpt><trkpt lat="44.093505" lon="8.1279483"><ele>76.0</ele><time>2026-04-22T13:47:53.549Z</time></trkpt><trkpt lat="44.093405" lon="8.1279783"><ele>76.0</ele><time>2026-04-22T13:47:54.549Z</time></trkpt><trkpt lat="44.0933117" lon="8.1280067"><ele>76.0</ele><time>2026-04-22T13:47:55.549Z</time></trkpt><trkpt lat="44.09321" lon="8.1280383"><ele>75.6</ele><time>2026-04-22T13:47:56.549Z</time></trkpt><trkpt lat="44.0931167" lon="8.12806"><ele>75.19999999999999</ele><time>2026-04-22T13:47:57.549Z</time></trkpt><trkpt lat="44.0930233" lon="8.1280917"><ele>74.80000000000001</ele><time>2026-04-22T13:47:58.549Z</time></trkpt><trkpt lat="44.0929333" lon="8.128115"><ele>74.4</ele><time>2026-04-22T13:47:59.548Z</time></trkpt><trkpt lat="44.0928483" lon="8.1281517"><ele>74.0</ele><time>2026-04-22T13:48:00.549Z</time></trkpt><trkpt lat="44.0927617" lon="8.1281867"><ele>74.0</ele><time>2026-04-22T13:48:01.549Z</time></trkpt><trkpt lat="44.0926733" lon="8.1282233"><ele>74.0</ele><time>2026-04-22T13:48:02.548Z</time></trkpt><trkpt lat="44.0925933" lon="8.1282633"><ele>74.0</ele><time>2026-04-22T13:48:03.549Z</time></trkpt><trkpt lat="44.0925283" lon="8.1283183"><ele>74.0</ele><time>2026-04-22T13:48:04.548Z</time></trkpt><trkpt lat="44.0924717" lon="8.1283783"><ele>74.0</ele><time>2026-04-22T13:48:05.549Z</time></trkpt><trkpt lat="44.09243" lon="8.12845"><ele>74.0</ele><time>2026-04-22T13:48:06.549Z</time></trkpt><trkpt lat="44.0923683" lon="8.1285617"><ele>73.0</ele><time>2026-04-22T13:48:08.549Z</time></trkpt><trkpt lat="44.0922917" lon="8.1287017"><ele>72.0</ele><time>2026-04-22T13:48:10.549Z</time></trkpt><trkpt lat="44.0922233" lon="8.128805"><ele>71.0</ele><time>2026-04-22T13:48:11.548Z</time></trkpt><trkpt lat="44.092145" lon="8.1289383"><ele>70.0</ele><time>2026-04-22T13:48:12.549Z</time></trkpt><trkpt lat="44.0920733" lon="8.1291033"><ele>69.33333333333333</ele><time>2026-04-22T13:48:13.549Z</time></trkpt><trkpt lat="44.0920083" lon="8.1292883"><ele>68.66666666666667</ele><time>2026-04-22T13:48:14.549Z</time></trkpt><trkpt lat="44.0919567" lon="8.129485"><ele>68.0</ele><time>2026-04-22T13:48:15.548Z</time></trkpt><trkpt lat="44.0919167" lon="8.12969"><ele>67.0</ele><time>2026-04-22T13:48:16.548Z</time></trkpt><trkpt lat="44.0919" lon="8.1299117"><ele>66.0</ele><time>2026-04-22T13:48:17.548Z</time></trkpt><trkpt lat="44.091875" lon="8.1301567"><ele>65.0</ele><time>2026-04-22T13:48:18.548Z</time></trkpt><trkpt lat="44.091845" lon="8.13043"><ele>65.0</ele><time>2026-04-22T13:48:19.548Z</time></trkpt><trkpt lat="44.0918267" lon="8.1307217"><ele>65.0</ele><time>2026-04-22T13:48:20.549Z</time></trkpt><trkpt lat="44.091825" lon="8.13103"><ele>65.0</ele><time>2026-04-22T13:48:21.549Z</time></trkpt><trkpt lat="44.09184" lon="8.1313283"><ele>65.66666666666667</ele><time>2026-04-22T13:48:22.548Z</time></trkpt><trkpt lat="44.091855" lon="8.1316117"><ele>66.33333333333333</ele><time>2026-04-22T13:48:23.549Z</time></trkpt><trkpt lat="44.0918633" lon="8.1318633"><ele>67.0</ele><time>2026-04-22T13:48:24.548Z</time></trkpt><trkpt lat="44.0918583" lon="8.13211"><ele>67.0</ele><time>2026-04-22T13:48:25.549Z</time></trkpt><trkpt lat="44.0918383" lon="8.13232"><ele>67.0</ele><time>2026-04-22T13:48:26.549Z</time></trkpt><trkpt lat="44.0917883" lon="8.1325333"><ele>67.0</ele><time>2026-04-22T13:48:27.549Z</time></trkpt><trkpt lat="44.0917167" lon="8.13278"><ele>67.33333333333333</ele><time>2026-04-22T13:48:28.549Z</time></trkpt><trkpt lat="44.0916617" lon="8.1330533"><ele>67.66666666666667</ele><time>2026-04-22T13:48:29.549Z</time></trkpt><trkpt lat="44.0916183" lon="8.133365"><ele>68.0</ele><time>2026-04-22T13:48:30.549Z</time></trkpt><trkpt lat="44.0915817" lon="8.1336767"><ele>67.0</ele><time>2026-04-22T13:48:31.549Z</time></trkpt><trkpt lat="44.0915417" lon="8.1339683"><ele>66.0</ele><time>2026-04-22T13:48:32.549Z</time></trkpt><trkpt lat="44.0914817" lon="8.13426"><ele>65.0</ele><time>2026-04-22T13:48:33.548Z</time></trkpt><trkpt lat="44.0914317" lon="8.134545"><ele>65.0</ele><time>2026-04-22T13:48:34.549Z</time></trkpt><trkpt lat="44.09139" lon="8.1348033"><ele>65.0</ele><time>2026-04-22T13:48:35.549Z</time></trkpt><trkpt lat="44.09135" lon="8.1350567"><ele>65.0</ele><time>2026-04-22T13:48:36.549Z</time></trkpt><trkpt lat="44.0912967" lon="8.1353017"><ele>63.333333333333336</ele><time>2026-04-22T13:48:37.549Z</time></trkpt><trkpt lat="44.09121" lon="8.1355367"><ele>61.66666666666667</ele><time>2026-04-22T13:48:38.549Z</time></trkpt><trkpt lat="44.0910967" lon="8.1357683"><ele>60.0</ele><time>2026-04-22T13:48:39.549Z</time></trkpt><trkpt lat="44.0909583" lon="8.136015"><ele>60.0</ele><time>2026-04-22T13:48:40.549Z</time></trkpt><trkpt lat="44.0908233" lon="8.136285"><ele>60.0</ele><time>2026-04-22T13:48:41.549Z</time></trkpt><trkpt lat="44.09068" lon="8.136575"><ele>59.0</ele><time>2026-04-22T13:48:42.549Z</time></trkpt><trkpt lat="44.0905283" lon="8.1368767"><ele>58.0</ele><time>2026-04-22T13:48:43.549Z</time></trkpt><trkpt lat="44.09039" lon="8.1371883"><ele>59.0</ele><time>2026-04-22T13:48:44.549Z</time></trkpt><trkpt lat="44.0902483" lon="8.137495"><ele>60.0</ele><time>2026-04-22T13:48:45.549Z</time></trkpt><trkpt lat="44.0901033" lon="8.1377967"><ele>60.0</ele><time>2026-04-22T13:48:46.549Z</time></trkpt><trkpt lat="44.0899567" lon="8.1380883"><ele>60.0</ele><time>2026-04-22T13:48:47.548Z</time></trkpt><trkpt lat="44.0898183" lon="8.1383767"><ele>56.5</ele><time>2026-04-22T13:48:48.549Z</time></trkpt><trkpt lat="44.0896717" lon="8.1386433"><ele>53.0</ele><time>2026-04-22T13:48:49.549Z</time></trkpt><trkpt lat="44.0895317" lon="8.1388983"><ele>55.66666666666667</ele><time>2026-04-22T13:48:50.548Z</time></trkpt><trkpt lat="44.089405" lon="8.139155"><ele>58.33333333333333</ele><time>2026-04-22T13:48:51.549Z</time></trkpt><trkpt lat="44.0892967" lon="8.13939"><ele>61.0</ele><time>2026-04-22T13:48:52.548Z</time></trkpt><trkpt lat="44.0891917" lon="8.1396117"><ele>61.0</ele><time>2026-04-22T13:48:53.549Z</time></trkpt><trkpt lat="44.0891017" lon="8.1398417"><ele>61.0</ele><time>2026-04-22T13:48:54.549Z</time></trkpt><trkpt lat="44.0890183" lon="8.1400833"><ele>61.0</ele><time>2026-04-22T13:48:55.548Z</time></trkpt><trkpt lat="44.0889567" lon="8.1403383"><ele>58.33333333333333</ele><time>2026-04-22T13:48:56.548Z</time></trkpt><trkpt lat="44.08892" lon="8.14061"><ele>55.66666666666667</ele><time>2026-04-22T13:48:57.549Z</time></trkpt><trkpt lat="44.0888967" lon="8.140905"><ele>53.0</ele><time>2026-04-22T13:48:58.549Z</time></trkpt><trkpt lat="44.0888617" lon="8.1412067"><ele>53.0</ele><time>2026-04-22T13:48:59.549Z</time></trkpt><trkpt lat="44.088815" lon="8.14151"><ele>53.0</ele><time>2026-04-22T13:49:00.549Z</time></trkpt><trkpt lat="44.0887783" lon="8.141805"><ele>53.0</ele><time>2026-04-22T13:49:01.548Z</time></trkpt><trkpt lat="44.088745" lon="8.1420983"><ele>52.0</ele><time>2026-04-22T13:49:02.549Z</time></trkpt><trkpt lat="44.0887117" lon="8.1423917"><ele>51.0</ele><time>2026-04-22T13:49:03.549Z</time></trkpt><trkpt lat="44.088675" lon="8.1426633"><ele>50.0</ele><time>2026-04-22T13:49:04.548Z</time></trkpt><trkpt lat="44.0886133" lon="8.1429417"><ele>51.66666666666667</ele><time>2026-04-22T13:49:05.548Z</time></trkpt><trkpt lat="44.08855" lon="8.1432233"><ele>53.33333333333333</ele><time>2026-04-22T13:49:06.549Z</time></trkpt><trkpt lat="44.0884683" lon="8.1435067"><ele>55.0</ele><time>2026-04-22T13:49:07.549Z</time></trkpt><trkpt lat="44.08839" lon="8.1437917"><ele>53.666666666666664</ele><time>2026-04-22T13:49:08.549Z</time></trkpt><trkpt lat="44.0883117" lon="8.1440817"><ele>52.33333333333333</ele><time>2026-04-22T13:49:09.549Z</time></trkpt><trkpt lat="44.0882333" lon="8.144365"><ele>51.0</ele><time>2026-04-22T13:49:10.549Z</time></trkpt><trkpt lat="44.08815" lon="8.14465"><ele>52.33333333333333</ele><time>2026-04-22T13:49:11.549Z</time></trkpt><trkpt lat="44.088065" lon="8.1449367"><ele>53.666666666666664</ele><time>2026-04-22T13:49:12.549Z</time></trkpt><trkpt lat="44.08798" lon="8.1452083"><ele>55.0</ele><time>2026-04-22T13:49:13.549Z</time></trkpt><trkpt lat="44.0879017" lon="8.1454817"><ele>56.33333333333333</ele><time>2026-04-22T13:49:14.549Z</time></trkpt><trkpt lat="44.0878233" lon="8.14575"><ele>57.66666666666667</ele><time>2026-04-22T13:49:15.548Z</time></trkpt><trkpt lat="44.08775" lon="8.1460067"><ele>59.0</ele><time>2026-04-22T13:49:16.549Z</time></trkpt><trkpt lat="44.0876867" lon="8.1462467"><ele>59.0</ele><time>2026-04-22T13:49:17.549Z</time></trkpt><trkpt lat="44.08762" lon="8.14646"><ele>59.0</ele><time>2026-04-22T13:49:18.549Z</time></trkpt><trkpt lat="44.087535" lon="8.1466567"><ele>59.0</ele><time>2026-04-22T13:49:19.548Z</time></trkpt><trkpt lat="44.0874283" lon="8.146855"><ele>58.66666666666667</ele><time>2026-04-22T13:49:20.549Z</time></trkpt><trkpt lat="44.0872933" lon="8.14703"><ele>58.33333333333333</ele><time>2026-04-22T13:49:21.549Z</time></trkpt><trkpt lat="44.0871517" lon="8.1471883"><ele>58.0</ele><time>2026-04-22T13:49:22.549Z</time></trkpt><trkpt lat="44.0870267" lon="8.1473467"><ele>57.666666666666664</ele><time>2026-04-22T13:49:23.549Z</time></trkpt><trkpt lat="44.0869067" lon="8.1475033"><ele>57.33333333333333</ele><time>2026-04-22T13:49:24.548Z</time></trkpt><trkpt lat="44.0867933" lon="8.14765"><ele>57.0</ele><time>2026-04-22T13:49:25.549Z</time></trkpt><trkpt lat="44.086695" lon="8.1477883"><ele>57.0</ele><time>2026-04-22T13:49:26.549Z</time></trkpt><trkpt lat="44.0866083" lon="8.1479"><ele>57.0</ele><time>2026-04-22T13:49:27.549Z</time></trkpt><trkpt lat="44.0865467" lon="8.1479783"><ele>57.0</ele><time>2026-04-22T13:49:28.549Z</time></trkpt><trkpt lat="44.0864967" lon="8.1480483"><ele>57.0</ele><time>2026-04-22T13:49:29.549Z</time></trkpt><trkpt lat="44.0864383" lon="8.1481267"><ele>57.0</ele><time>2026-04-22T13:49:31.549Z</time></trkpt><trkpt lat="44.0863817" lon="8.1482017"><ele>57.0</ele><time>2026-04-22T13:49:45.549Z</time></trkpt><trkpt lat="44.08633" lon="8.1482783"><ele>56.5</ele><time>2026-04-22T13:49:46.549Z</time></trkpt><trkpt lat="44.086275" lon="8.1483667"><ele>56.0</ele><time>2026-04-22T13:49:47.549Z</time></trkpt><trkpt lat="44.086225" lon="8.1484483"><ele>55.5</ele><time>2026-04-22T13:49:48.549Z</time></trkpt><trkpt lat="44.0861683" lon="8.1485233"><ele>55.0</ele><time>2026-04-22T13:49:49.549Z</time></trkpt><trkpt lat="44.086115" lon="8.1486"><ele>54.5</ele><time>2026-04-22T13:49:50.549Z</time></trkpt><trkpt lat="44.0860517" lon="8.148685"><ele>54.0</ele><time>2026-04-22T13:49:51.549Z</time></trkpt><trkpt lat="44.0859783" lon="8.14877"><ele>54.0</ele><time>2026-04-22T13:49:52.549Z</time></trkpt><trkpt lat="44.0859083" lon="8.148855"><ele>54.0</ele><time>2026-04-22T13:49:53.549Z</time></trkpt><trkpt lat="44.0858483" lon="8.1489367"><ele>54.0</ele><time>2026-04-22T13:49:54.548Z</time></trkpt><trkpt lat="44.0857883" lon="8.14901"><ele>54.0</ele><time>2026-04-22T13:49:55.549Z</time></trkpt><trkpt lat="44.085725" lon="8.1490917"><ele>54.0</ele><time>2026-04-22T13:49:56.549Z</time></trkpt><trkpt lat="44.085645" lon="8.1491717"><ele>54.0</ele><time>2026-04-22T13:49:57.549Z</time></trkpt><trkpt lat="44.08556" lon="8.1492533"><ele>53.2</ele><time>2026-04-22T13:49:58.549Z</time></trkpt><trkpt lat="44.0854733" lon="8.149355"><ele>52.400000000000006</ele><time>2026-04-22T13:49:59.548Z</time></trkpt><trkpt lat="44.0854033" lon="8.1494633"><ele>51.6</ele><time>2026-04-22T13:50:00.549Z</time></trkpt><trkpt lat="44.0853483" lon="8.149575"><ele>50.8</ele><time>2026-04-22T13:50:01.549Z</time></trkpt><trkpt lat="44.0853017" lon="8.149675"><ele>50.0</ele><time>2026-04-22T13:50:02.548Z</time></trkpt><trkpt lat="44.0852517" lon="8.1497683"><ele>50.0</ele><time>2026-04-22T13:50:03.549Z</time></trkpt><trkpt lat="44.0851967" lon="8.1498917"><ele>50.0</ele><time>2026-04-22T13:50:04.549Z</time></trkpt><trkpt lat="44.08513" lon="8.15005"><ele>50.0</ele><time>2026-04-22T13:50:05.549Z</time></trkpt><trkpt lat="44.0850283" lon="8.1502567"><ele>50.0</ele><time>2026-04-22T13:50:06.549Z</time></trkpt><trkpt lat="44.0849" lon="8.1504867"><ele>49.5</ele><time>2026-04-22T13:50:07.549Z</time></trkpt><trkpt lat="44.084745" lon="8.1507417"><ele>49.0</ele><time>2026-04-22T13:50:08.549Z</time></trkpt><trkpt lat="44.08458" lon="8.1510067"><ele>49.0</ele><time>2026-04-22T13:50:09.549Z</time></trkpt><trkpt lat="44.0844083" lon="8.15127"><ele>49.0</ele><time>2026-04-22T13:50:10.549Z</time></trkpt><trkpt lat="44.08424" lon="8.151535"><ele>48.5</ele><time>2026-04-22T13:50:11.549Z</time></trkpt><trkpt lat="44.0840683" lon="8.1517917"><ele>48.0</ele><time>2026-04-22T13:50:12.549Z</time></trkpt><trkpt lat="44.0839133" lon="8.1520417"><ele>48.0</ele><time>2026-04-22T13:50:13.548Z</time></trkpt><trkpt lat="44.083765" lon="8.1522783"><ele>48.0</ele><time>2026-04-22T13:50:14.549Z</time></trkpt><trkpt lat="44.0836117" lon="8.152515"><ele>49.5</ele><time>2026-04-22T13:50:15.549Z</time></trkpt><trkpt lat="44.0834567" lon="8.1527583"><ele>51.0</ele><time>2026-04-22T13:50:16.549Z</time></trkpt><trkpt lat="44.083305" lon="8.153005"><ele>49.0</ele><time>2026-04-22T13:50:17.549Z</time></trkpt><trkpt lat="44.0831517" lon="8.1532517"><ele>47.0</ele><time>2026-04-22T13:50:18.549Z</time></trkpt><trkpt lat="44.083" lon="8.1534883"><ele>47.0</ele><time>2026-04-22T13:50:19.549Z</time></trkpt><trkpt lat="44.08286" lon="8.1537167"><ele>47.0</ele><time>2026-04-22T13:50:20.548Z</time></trkpt><trkpt lat="44.0827033" lon="8.153955"><ele>47.0</ele><time>2026-04-22T13:50:21.549Z</time></trkpt><trkpt lat="44.0825483" lon="8.1541917"><ele>46.33333333333333</ele><time>2026-04-22T13:50:22.549Z</time></trkpt><trkpt lat="44.0823867" lon="8.1544117"><ele>45.666666666666664</ele><time>2026-04-22T13:50:23.549Z</time></trkpt><trkpt lat="44.0822233" lon="8.1546133"><ele>45.0</ele><time>2026-04-22T13:50:24.548Z</time></trkpt><trkpt lat="44.0820583" lon="8.15479"><ele>44.666666666666664</ele><time>2026-04-22T13:50:25.549Z</time></trkpt><trkpt lat="44.0818883" lon="8.15496"><ele>44.33333333333333</ele><time>2026-04-22T13:50:26.549Z</time></trkpt><trkpt lat="44.0817217" lon="8.1551183"><ele>44.0</ele><time>2026-04-22T13:50:27.549Z</time></trkpt><trkpt lat="44.08155" lon="8.1552733"><ele>43.0</ele><time>2026-04-22T13:50:28.549Z</time></trkpt><trkpt lat="44.0813783" lon="8.15545"><ele>42.0</ele><time>2026-04-22T13:50:29.548Z</time></trkpt><trkpt lat="44.08119" lon="8.1556383"><ele>41.0</ele><time>2026-04-22T13:50:30.549Z</time></trkpt><trkpt lat="44.0810033" lon="8.15581"><ele>41.0</ele><time>2026-04-22T13:50:31.549Z</time></trkpt><trkpt lat="44.08083" lon="8.1559617"><ele>41.0</ele><time>2026-04-22T13:50:32.549Z</time></trkpt><trkpt lat="44.0806633" lon="8.156105"><ele>41.0</ele><time>2026-04-22T13:50:33.548Z</time></trkpt><trkpt lat="44.0804917" lon="8.1562383"><ele>40.33333333333333</ele><time>2026-04-22T13:50:34.549Z</time></trkpt><trkpt lat="44.0803067" lon="8.1563667"><ele>39.666666666666664</ele><time>2026-04-22T13:50:35.549Z</time></trkpt><trkpt lat="44.0801183" lon="8.1564783"><ele>39.0</ele><time>2026-04-22T13:50:36.548Z</time></trkpt><trkpt lat="44.0799383" lon="8.1565917"><ele>38.0</ele><time>2026-04-22T13:50:37.549Z</time></trkpt><trkpt lat="44.0797717" lon="8.1566817"><ele>37.0</ele><time>2026-04-22T13:50:38.548Z</time></trkpt><trkpt lat="44.07961" lon="8.1567633"><ele>36.0</ele><time>2026-04-22T13:50:39.549Z</time></trkpt><trkpt lat="44.079475" lon="8.1568233"><ele>36.0</ele><time>2026-04-22T13:50:40.549Z</time></trkpt><trkpt lat="44.0793633" lon="8.1568867"><ele>36.0</ele><time>2026-04-22T13:50:41.548Z</time></trkpt><trkpt lat="44.0792817" lon="8.1569617"><ele>36.0</ele><time>2026-04-22T13:50:42.549Z</time></trkpt><trkpt lat="44.079205" lon="8.157075"><ele>36.0</ele><time>2026-04-22T13:50:43.549Z</time></trkpt><trkpt lat="44.0791467" lon="8.15724"><ele>36.666666666666664</ele><time>2026-04-22T13:50:44.548Z</time></trkpt><trkpt lat="44.0790717" lon="8.15745"><ele>37.33333333333333</ele><time>2026-04-22T13:50:45.548Z</time></trkpt><trkpt lat="44.0789717" lon="8.1576833"><ele>38.0</ele><time>2026-04-22T13:50:46.549Z</time></trkpt><trkpt lat="44.0788567" lon="8.1579317"><ele>38.0</ele><time>2026-04-22T13:50:47.549Z</time></trkpt><trkpt lat="44.07875" lon="8.1581783"><ele>38.0</ele><time>2026-04-22T13:50:48.549Z</time></trkpt><trkpt lat="44.07865" lon="8.1584067"><ele>38.0</ele><time>2026-04-22T13:50:49.549Z</time></trkpt><trkpt lat="44.078565" lon="8.1586117"><ele>38.5</ele><time>2026-04-22T13:50:50.549Z</time></trkpt><trkpt lat="44.0784933" lon="8.1587883"><ele>39.0</ele><time>2026-04-22T13:50:51.549Z</time></trkpt><trkpt lat="44.0784483" lon="8.1589383"><ele>39.5</ele><time>2026-04-22T13:50:52.549Z</time></trkpt><trkpt lat="44.07846" lon="8.1590983"><ele>40.0</ele><time>2026-04-22T13:50:53.548Z</time></trkpt><trkpt lat="44.078515" lon="8.1592433"><ele>40.4</ele><time>2026-04-22T13:50:54.55Z</time></trkpt><trkpt lat="44.0786117" lon="8.1593633"><ele>40.8</ele><time>2026-04-22T13:50:55.55Z</time></trkpt><trkpt lat="44.0787" lon="8.1594883"><ele>41.2</ele><time>2026-04-22T13:50:56.55Z</time></trkpt><trkpt lat="44.078735" lon="8.1596133"><ele>41.6</ele><time>2026-04-22T13:50:57.55Z</time></trkpt><trkpt lat="44.0787417" lon="8.15973"><ele>42.0</ele><time>2026-04-22T13:50:58.55Z</time></trkpt><trkpt lat="44.0787267" lon="8.1598467"><ele>43.5</ele><time>2026-04-22T13:50:59.55Z</time></trkpt><trkpt lat="44.0786867" lon="8.1599717"><ele>45.0</ele><time>2026-04-22T13:51:00.55Z</time></trkpt><trkpt lat="44.078595" lon="8.160105"><ele>46.5</ele><time>2026-04-22T13:51:01.55Z</time></trkpt><trkpt lat="44.0784767" lon="8.160265"><ele>48.0</ele><time>2026-04-22T13:51:02.55Z</time></trkpt><trkpt lat="44.078355" lon="8.1604383"><ele>47.0</ele><time>2026-04-22T13:51:03.55Z</time></trkpt><trkpt lat="44.0782517" lon="8.16067"><ele>46.0</ele><time>2026-04-22T13:51:04.55Z</time></trkpt><trkpt lat="44.078175" lon="8.1609283"><ele>45.0</ele><time>2026-04-22T13:51:05.55Z</time></trkpt><trkpt lat="44.0781267" lon="8.1612067"><ele>48.0</ele><time>2026-04-22T13:51:06.549Z</time></trkpt><trkpt lat="44.0781083" lon="8.161505"><ele>51.0</ele><time>2026-04-22T13:51:07.55Z</time></trkpt><trkpt lat="44.0780817" lon="8.1618217"><ele>54.0</ele><time>2026-04-22T13:51:08.55Z</time></trkpt><trkpt lat="44.07806" lon="8.1621383"><ele>54.33333333333333</ele><time>2026-04-22T13:51:09.55Z</time></trkpt><trkpt lat="44.078045" lon="8.1624417"><ele>54.666666666666664</ele><time>2026-04-22T13:51:10.55Z</time></trkpt><trkpt lat="44.07802" lon="8.1627483"><ele>55.0</ele><time>2026-04-22T13:51:11.55Z</time></trkpt><trkpt lat="44.0780017" lon="8.1630433"><ele>55.33333333333333</ele><time>2026-04-22T13:51:12.55Z</time></trkpt><trkpt lat="44.0779833" lon="8.163335"><ele>55.66666666666667</ele><time>2026-04-22T13:51:13.55Z</time></trkpt><trkpt lat="44.07797" lon="8.1636167"><ele>56.0</ele><time>2026-04-22T13:51:14.55Z</time></trkpt><trkpt lat="44.0779583" lon="8.1638817"><ele>56.0</ele><time>2026-04-22T13:51:15.55Z</time></trkpt><trkpt lat="44.0779633" lon="8.16414"><ele>56.0</ele><time>2026-04-22T13:51:16.55Z</time></trkpt><trkpt lat="44.07798" lon="8.1643833"><ele>56.0</ele><time>2026-04-22T13:51:17.55Z</time></trkpt><trkpt lat="44.077995" lon="8.164615"><ele>56.0</ele><time>2026-04-22T13:51:18.55Z</time></trkpt><trkpt lat="44.0780067" lon="8.1648383"><ele>56.0</ele><time>2026-04-22T13:51:19.55Z</time></trkpt><trkpt lat="44.0780133" lon="8.1650767"><ele>56.0</ele><time>2026-04-22T13:51:20.55Z</time></trkpt><trkpt lat="44.0780217" lon="8.165325"><ele>55.66666666666667</ele><time>2026-04-22T13:51:21.55Z</time></trkpt><trkpt lat="44.0780267" lon="8.1655833"><ele>55.33333333333333</ele><time>2026-04-22T13:51:22.55Z</time></trkpt><trkpt lat="44.0780333" lon="8.16587"><ele>55.0</ele><time>2026-04-22T13:51:23.55Z</time></trkpt><trkpt lat="44.0780433" lon="8.166175"><ele>55.0</ele><time>2026-04-22T13:51:24.549Z</time></trkpt><trkpt lat="44.0780633" lon="8.1664983"><ele>55.0</ele><time>2026-04-22T13:51:25.55Z</time></trkpt><trkpt lat="44.0780867" lon="8.1668233"><ele>55.0</ele><time>2026-04-22T13:51:26.55Z</time></trkpt><trkpt lat="44.0781267" lon="8.1671467"><ele>55.0</ele><time>2026-04-22T13:51:27.55Z</time></trkpt><trkpt lat="44.0782033" lon="8.167455"><ele>56.5</ele><time>2026-04-22T13:51:28.55Z</time></trkpt><trkpt lat="44.0782817" lon="8.1677683"><ele>58.0</ele><time>2026-04-22T13:51:29.549Z</time></trkpt><trkpt lat="44.0783517" lon="8.168085"><ele>58.0</ele><time>2026-04-22T13:51:30.55Z</time></trkpt><trkpt lat="44.0784183" lon="8.16841"><ele>58.0</ele><time>2026-04-22T13:51:31.55Z</time></trkpt><trkpt lat="44.0784667" lon="8.168725"><ele>58.33333333333333</ele><time>2026-04-22T13:51:32.55Z</time></trkpt><trkpt lat="44.0785133" lon="8.16903"><ele>58.66666666666667</ele><time>2026-04-22T13:51:33.55Z</time></trkpt><trkpt lat="44.078555" lon="8.1693267"><ele>59.0</ele><time>2026-04-22T13:51:34.55Z</time></trkpt><trkpt lat="44.0785967" lon="8.1696117"><ele>59.333333333333336</ele><time>2026-04-22T13:51:35.55Z</time></trkpt><trkpt lat="44.0786267" lon="8.1698783"><ele>59.66666666666667</ele><time>2026-04-22T13:51:36.55Z</time></trkpt><trkpt lat="44.0786483" lon="8.1701233"><ele>60.0</ele><time>2026-04-22T13:51:37.55Z</time></trkpt><trkpt lat="44.0786567" lon="8.1703617"><ele>60.0</ele><time>2026-04-22T13:51:38.55Z</time></trkpt><trkpt lat="44.07865" lon="8.1705883"><ele>60.0</ele><time>2026-04-22T13:51:39.55Z</time></trkpt><trkpt lat="44.0786533" lon="8.1708017"><ele>60.0</ele><time>2026-04-22T13:51:40.55Z</time></trkpt><trkpt lat="44.07865" lon="8.1710067"><ele>59.25</ele><time>2026-04-22T13:51:41.55Z</time></trkpt><trkpt lat="44.0786517" lon="8.1712033"><ele>58.5</ele><time>2026-04-22T13:51:42.549Z</time></trkpt><trkpt lat="44.0786483" lon="8.1713883"><ele>57.75</ele><time>2026-04-22T13:51:43.55Z</time></trkpt><trkpt lat="44.0786433" lon="8.1715783"><ele>57.0</ele><time>2026-04-22T13:51:44.55Z</time></trkpt><trkpt lat="44.0786367" lon="8.1717667"><ele>56.25</ele><time>2026-04-22T13:51:45.55Z</time></trkpt><trkpt lat="44.07863" lon="8.1719567"><ele>55.5</ele><time>2026-04-22T13:51:46.55Z</time></trkpt><trkpt lat="44.07862" lon="8.1721417"><ele>54.75</ele><time>2026-04-22T13:51:47.55Z</time></trkpt><trkpt lat="44.0786183" lon="8.1723417"><ele>54.0</ele><time>2026-04-22T13:51:48.55Z</time></trkpt><trkpt lat="44.0786183" lon="8.1725517"><ele>54.0</ele><time>2026-04-22T13:51:49.549Z</time></trkpt><trkpt lat="44.0786233" lon="8.1727667"><ele>54.0</ele><time>2026-04-22T13:51:50.55Z</time></trkpt><trkpt lat="44.0786333" lon="8.17298"><ele>54.0</ele><time>2026-04-22T13:51:51.55Z</time></trkpt><trkpt lat="44.0786267" lon="8.1732017"><ele>53.0</ele><time>2026-04-22T13:51:52.55Z</time></trkpt><trkpt lat="44.0786183" lon="8.1734217"><ele>52.0</ele><time>2026-04-22T13:51:53.55Z</time></trkpt><trkpt lat="44.0786083" lon="8.1736567"><ele>51.0</ele><time>2026-04-22T13:51:54.55Z</time></trkpt><trkpt lat="44.0786067" lon="8.1738967"><ele>49.666666666666664</ele><time>2026-04-22T13:51:55.55Z</time></trkpt><trkpt lat="44.0786017" lon="8.1741317"><ele>48.33333333333333</ele><time>2026-04-22T13:51:56.55Z</time></trkpt><trkpt lat="44.0786083" lon="8.17437"><ele>47.0</ele><time>2026-04-22T13:51:57.55Z</time></trkpt><trkpt lat="44.0786167" lon="8.1746183"><ele>47.0</ele><time>2026-04-22T13:51:58.55Z</time></trkpt><trkpt lat="44.0786233" lon="8.17485"><ele>47.0</ele><time>2026-04-22T13:51:59.55Z</time></trkpt><trkpt lat="44.0786417" lon="8.1750667"><ele>47.0</ele><time>2026-04-22T13:52:00.55Z</time></trkpt><trkpt lat="44.0786683" lon="8.1752667"><ele>47.25</ele><time>2026-04-22T13:52:01.55Z</time></trkpt><trkpt lat="44.0787183" lon="8.1754567"><ele>47.5</ele><time>2026-04-22T13:52:02.549Z</time></trkpt><trkpt lat="44.0787767" lon="8.17565"><ele>47.75</ele><time>2026-04-22T13:52:03.55Z</time></trkpt><trkpt lat="44.0788283" lon="8.1758367"><ele>48.0</ele><time>2026-04-22T13:52:04.55Z</time></trkpt><trkpt lat="44.078875" lon="8.1760117"><ele>48.0</ele><time>2026-04-22T13:52:05.55Z</time></trkpt><trkpt lat="44.0789083" lon="8.176185"><ele>48.0</ele><time>2026-04-22T13:52:06.549Z</time></trkpt><trkpt lat="44.07894" lon="8.176335"><ele>48.0</ele><time>2026-04-22T13:52:07.55Z</time></trkpt><trkpt lat="44.078975" lon="8.1764933"><ele>48.0</ele><time>2026-04-22T13:52:08.549Z</time></trkpt><trkpt lat="44.079025" lon="8.1766633"><ele>48.25</ele><time>2026-04-22T13:52:09.55Z</time></trkpt><trkpt lat="44.0790817" lon="8.1768417"><ele>48.5</ele><time>2026-04-22T13:52:10.549Z</time></trkpt><trkpt lat="44.07913" lon="8.1770183"><ele>48.75</ele><time>2026-04-22T13:52:11.55Z</time></trkpt><trkpt lat="44.079165" lon="8.1771817"><ele>49.0</ele><time>2026-04-22T13:52:12.55Z</time></trkpt><trkpt lat="44.079195" lon="8.17735"><ele>50.0</ele><time>2026-04-22T13:52:13.55Z</time></trkpt><trkpt lat="44.0792083" lon="8.1775133"><ele>51.0</ele><time>2026-04-22T13:52:14.55Z</time></trkpt><trkpt lat="44.0792133" lon="8.177685"><ele>52.0</ele><time>2026-04-22T13:52:15.55Z</time></trkpt><trkpt lat="44.0792083" lon="8.1778683"><ele>53.0</ele><time>2026-04-22T13:52:16.55Z</time></trkpt><trkpt lat="44.0792067" lon="8.1780517"><ele>52.25</ele><time>2026-04-22T13:52:17.55Z</time></trkpt><trkpt lat="44.0791883" lon="8.1782233"><ele>51.5</ele><time>2026-04-22T13:52:18.55Z</time></trkpt><trkpt lat="44.0791617" lon="8.1783917"><ele>50.75</ele><time>2026-04-22T13:52:19.55Z</time></trkpt><trkpt lat="44.07913" lon="8.1785467"><ele>50.0</ele><time>2026-04-22T13:52:20.55Z</time></trkpt><trkpt lat="44.07909" lon="8.1787017"><ele>49.2</ele><time>2026-04-22T13:52:21.55Z</time></trkpt><trkpt lat="44.07905" lon="8.178845"><ele>48.4</ele><time>2026-04-22T13:52:22.55Z</time></trkpt><trkpt lat="44.0790133" lon="8.1789883"><ele>47.599999999999994</ele><time>2026-04-22T13:52:23.55Z</time></trkpt><trkpt lat="44.0789783" lon="8.1791333"><ele>46.8</ele><time>2026-04-22T13:52:24.549Z</time></trkpt><trkpt lat="44.07894" lon="8.179265"><ele>46.0</ele><time>2026-04-22T13:52:25.55Z</time></trkpt><trkpt lat="44.0789067" lon="8.1793967"><ele>46.0</ele><time>2026-04-22T13:52:26.55Z</time></trkpt><trkpt lat="44.0788733" lon="8.17953"><ele>46.0</ele><time>2026-04-22T13:52:27.55Z</time></trkpt><trkpt lat="44.0788367" lon="8.1796767"><ele>46.0</ele><time>2026-04-22T13:52:28.549Z</time></trkpt><trkpt lat="44.0788083" lon="8.179815"><ele>46.0</ele><time>2026-04-22T13:52:29.55Z</time></trkpt><trkpt lat="44.078785" lon="8.17996"><ele>46.0</ele><time>2026-04-22T13:52:30.55Z</time></trkpt><trkpt lat="44.07877" lon="8.1801117"><ele>45.599999999999994</ele><time>2026-04-22T13:52:31.55Z</time></trkpt><trkpt lat="44.0787733" lon="8.18027"><ele>45.2</ele><time>2026-04-22T13:52:32.55Z</time></trkpt><trkpt lat="44.0788017" lon="8.1804217"><ele>44.8</ele><time>2026-04-22T13:52:33.55Z</time></trkpt><trkpt lat="44.07883" lon="8.1805717"><ele>44.400000000000006</ele><time>2026-04-22T13:52:34.55Z</time></trkpt><trkpt lat="44.07885" lon="8.1807183"><ele>44.0</ele><time>2026-04-22T13:52:35.55Z</time></trkpt><trkpt lat="44.078865" lon="8.1808633"><ele>42.75</ele><time>2026-04-22T13:52:36.55Z</time></trkpt><trkpt lat="44.0788817" lon="8.1810167"><ele>41.5</ele><time>2026-04-22T13:52:37.55Z</time></trkpt><trkpt lat="44.07889" lon="8.1811733"><ele>40.25</ele><time>2026-04-22T13:52:38.55Z</time></trkpt><trkpt lat="44.0788983" lon="8.181325"><ele>39.0</ele><time>2026-04-22T13:52:39.55Z</time></trkpt><trkpt lat="44.0789133" lon="8.1814883"><ele>38.75</ele><time>2026-04-22T13:52:40.55Z</time></trkpt><trkpt lat="44.0789267" lon="8.1816683"><ele>38.5</ele><time>2026-04-22T13:52:41.55Z</time></trkpt><trkpt lat="44.0789367" lon="8.1818433"><ele>38.25</ele><time>2026-04-22T13:52:42.549Z</time></trkpt><trkpt lat="44.0789267" lon="8.18201"><ele>38.0</ele><time>2026-04-22T13:52:43.55Z</time></trkpt><trkpt lat="44.0789083" lon="8.18216"><ele>38.0</ele><time>2026-04-22T13:52:44.55Z</time></trkpt><trkpt lat="44.07886" lon="8.1823233"><ele>38.0</ele><time>2026-04-22T13:52:45.55Z</time></trkpt><trkpt lat="44.0787983" lon="8.18247"><ele>38.0</ele><time>2026-04-22T13:52:46.55Z</time></trkpt><trkpt lat="44.0787167" lon="8.1825917"><ele>38.0</ele><time>2026-04-22T13:52:47.549Z</time></trkpt><trkpt lat="44.0786417" lon="8.1827"><ele>38.599999999999994</ele><time>2026-04-22T13:52:48.55Z</time></trkpt><trkpt lat="44.078565" lon="8.1828017"><ele>39.199999999999996</ele><time>2026-04-22T13:52:49.55Z</time></trkpt><trkpt lat="44.0784967" lon="8.1829083"><ele>39.8</ele><time>2026-04-22T13:52:50.55Z</time></trkpt><trkpt lat="44.0784267" lon="8.1830083"><ele>40.4</ele><time>2026-04-22T13:52:51.55Z</time></trkpt><trkpt lat="44.07835" lon="8.1831167"><ele>41.0</ele><time>2026-04-22T13:52:52.55Z</time></trkpt><trkpt lat="44.07827" lon="8.1832283"><ele>40.5</ele><time>2026-04-22T13:52:53.55Z</time></trkpt><trkpt lat="44.07819" lon="8.18334"><ele>40.0</ele><time>2026-04-22T13:52:54.55Z</time></trkpt><trkpt lat="44.0781033" lon="8.1834567"><ele>39.5</ele><time>2026-04-22T13:52:55.55Z</time></trkpt><trkpt lat="44.078025" lon="8.1835767"><ele>39.0</ele><time>2026-04-22T13:52:56.55Z</time></trkpt><trkpt lat="44.0779333" lon="8.1836983"><ele>39.0</ele><time>2026-04-22T13:52:57.55Z</time></trkpt><trkpt lat="44.0778367" lon="8.1837967"><ele>39.0</ele><time>2026-04-22T13:52:58.55Z</time></trkpt><trkpt lat="44.0777367" lon="8.18389"><ele>39.0</ele><time>2026-04-22T13:52:59.55Z</time></trkpt><trkpt lat="44.07762" lon="8.1839767"><ele>39.0</ele><time>2026-04-22T13:53:00.549Z</time></trkpt><trkpt lat="44.0775133" lon="8.184065"><ele>37.75</ele><time>2026-04-22T13:53:01.55Z</time></trkpt><trkpt lat="44.0774" lon="8.1841483"><ele>36.5</ele><time>2026-04-22T13:53:02.55Z</time></trkpt><trkpt lat="44.0772833" lon="8.1842333"><ele>35.25</ele><time>2026-04-22T13:53:03.55Z</time></trkpt><trkpt lat="44.0771633" lon="8.18432"><ele>34.0</ele><time>2026-04-22T13:53:04.55Z</time></trkpt><trkpt lat="44.0770417" lon="8.1844083"><ele>34.0</ele><time>2026-04-22T13:53:05.55Z</time></trkpt><trkpt lat="44.0769217" lon="8.1844983"><ele>34.0</ele><time>2026-04-22T13:53:06.55Z</time></trkpt><trkpt lat="44.076795" lon="8.1845667"><ele>34.0</ele><time>2026-04-22T13:53:07.55Z</time></trkpt><trkpt lat="44.076665" lon="8.1846167"><ele>34.0</ele><time>2026-04-22T13:53:08.549Z</time></trkpt><trkpt lat="44.0765333" lon="8.184665"><ele>33.5</ele><time>2026-04-22T13:53:09.549Z</time></trkpt><trkpt lat="44.0763917" lon="8.18471"><ele>33.0</ele><time>2026-04-22T13:53:10.55Z</time></trkpt><trkpt lat="44.07626" lon="8.1847483"><ele>32.5</ele><time>2026-04-22T13:53:11.55Z</time></trkpt><trkpt lat="44.0761283" lon="8.1847767"><ele>32.0</ele><time>2026-04-22T13:53:12.55Z</time></trkpt><trkpt lat="44.0760017" lon="8.1848133"><ele>31.5</ele><time>2026-04-22T13:53:13.55Z</time></trkpt><trkpt lat="44.075875" lon="8.1848817"><ele>31.0</ele><time>2026-04-22T13:53:14.549Z</time></trkpt><trkpt lat="44.0757433" lon="8.184965"><ele>30.5</ele><time>2026-04-22T13:53:15.55Z</time></trkpt><trkpt lat="44.0756233" lon="8.1850533"><ele>30.0</ele><time>2026-04-22T13:53:16.55Z</time></trkpt><trkpt lat="44.0755117" lon="8.18514"><ele>29.5</ele><time>2026-04-22T13:53:17.55Z</time></trkpt><trkpt lat="44.075405" lon="8.1852233"><ele>29.0</ele><time>2026-04-22T13:53:18.55Z</time></trkpt><trkpt lat="44.07531" lon="8.1853"><ele>28.5</ele><time>2026-04-22T13:53:19.549Z</time></trkpt><trkpt lat="44.0752117" lon="8.1853733"><ele>28.0</ele><time>2026-04-22T13:53:20.55Z</time></trkpt><trkpt lat="44.0751183" lon="8.185445"><ele>28.0</ele><time>2026-04-22T13:53:21.55Z</time></trkpt><trkpt lat="44.07503" lon="8.1855217"><ele>27.999999999999996</ele><time>2026-04-22T13:53:22.55Z</time></trkpt><trkpt lat="44.074945" lon="8.1856217"><ele>27.999999999999996</ele><time>2026-04-22T13:53:23.549Z</time></trkpt><trkpt lat="44.0748683" lon="8.1857383"><ele>28.0</ele><time>2026-04-22T13:53:24.549Z</time></trkpt><trkpt lat="44.0748" lon="8.1858633"><ele>28.0</ele><time>2026-04-22T13:53:25.55Z</time></trkpt><trkpt lat="44.0747367" lon="8.1860017"><ele>28.0</ele><time>2026-04-22T13:53:26.55Z</time></trkpt><trkpt lat="44.074685" lon="8.1861367"><ele>28.0</ele><time>2026-04-22T13:53:27.55Z</time></trkpt><trkpt lat="44.0746317" lon="8.1862767"><ele>28.0</ele><time>2026-04-22T13:53:28.55Z</time></trkpt><trkpt lat="44.0745733" lon="8.1864183"><ele>28.0</ele><time>2026-04-22T13:53:29.55Z</time></trkpt><trkpt lat="44.0745117" lon="8.1865767"><ele>28.0</ele><time>2026-04-22T13:53:30.55Z</time></trkpt><trkpt lat="44.0744517" lon="8.1867267"><ele>28.0</ele><time>2026-04-22T13:53:31.55Z</time></trkpt><trkpt lat="44.0744083" lon="8.186875"><ele>28.0</ele><time>2026-04-22T13:53:32.55Z</time></trkpt><trkpt lat="44.0743617" lon="8.1870133"><ele>28.0</ele><time>2026-04-22T13:53:33.55Z</time></trkpt><trkpt lat="44.07435" lon="8.187175"><ele>27.75</ele><time>2026-04-22T13:53:34.55Z</time></trkpt><trkpt lat="44.0743567" lon="8.1873467"><ele>27.5</ele><time>2026-04-22T13:53:35.55Z</time></trkpt><trkpt lat="44.07437" lon="8.1875233"><ele>27.25</ele><time>2026-04-22T13:53:36.55Z</time></trkpt><trkpt lat="44.07438" lon="8.187695"><ele>27.0</ele><time>2026-04-22T13:53:37.55Z</time></trkpt><trkpt lat="44.0743983" lon="8.1878733"><ele>27.0</ele><time>2026-04-22T13:53:38.55Z</time></trkpt><trkpt lat="44.0744167" lon="8.188045"><ele>27.0</ele><time>2026-04-22T13:53:39.549Z</time></trkpt><trkpt lat="44.0744133" lon="8.1882117"><ele>27.0</ele><time>2026-04-22T13:53:40.55Z</time></trkpt><trkpt lat="44.0744133" lon="8.18837"><ele>27.0</ele><time>2026-04-22T13:53:41.55Z</time></trkpt><trkpt lat="44.0744183" lon="8.1885233"><ele>27.0</ele><time>2026-04-22T13:53:42.55Z</time></trkpt><trkpt lat="44.0744333" lon="8.188675"><ele>27.000000000000004</ele><time>2026-04-22T13:53:43.55Z</time></trkpt><trkpt lat="44.07444" lon="8.18882"><ele>27.000000000000004</ele><time>2026-04-22T13:53:44.549Z</time></trkpt><trkpt lat="44.0744417" lon="8.18895"><ele>27.0</ele><time>2026-04-22T13:53:45.55Z</time></trkpt><trkpt lat="44.07445" lon="8.1890817"><ele>27.0</ele><time>2026-04-22T13:53:46.55Z</time></trkpt><trkpt lat="44.07445" lon="8.1891983"><ele>27.200000000000003</ele><time>2026-04-22T13:53:47.55Z</time></trkpt><trkpt lat="44.0744483" lon="8.1892983"><ele>27.400000000000002</ele><time>2026-04-22T13:53:48.55Z</time></trkpt><trkpt lat="44.07444" lon="8.18939"><ele>27.599999999999998</ele><time>2026-04-22T13:53:49.55Z</time></trkpt><trkpt lat="44.0744367" lon="8.1895567"><ele>27.799999999999997</ele><time>2026-04-22T13:53:51.549Z</time></trkpt><trkpt lat="44.074435" lon="8.1897217"><ele>28.0</ele><time>2026-04-22T13:53:53.55Z</time></trkpt><trkpt lat="44.0744383" lon="8.1898233"><ele>28.4</ele><time>2026-04-22T13:53:54.55Z</time></trkpt><trkpt lat="44.0744417" lon="8.1899433"><ele>28.799999999999997</ele><time>2026-04-22T13:53:55.55Z</time></trkpt><trkpt lat="44.0744417" lon="8.190095"><ele>29.2</ele><time>2026-04-22T13:53:56.549Z</time></trkpt><trkpt lat="44.0744383" lon="8.19026"><ele>29.6</ele><time>2026-04-22T13:53:57.55Z</time></trkpt><trkpt lat="44.0744467" lon="8.190435"><ele>30.0</ele><time>2026-04-22T13:53:58.55Z</time></trkpt><trkpt lat="44.07446" lon="8.1906183"><ele>29.666666666666664</ele><time>2026-04-22T13:53:59.55Z</time></trkpt><trkpt lat="44.074455" lon="8.1908217"><ele>29.333333333333332</ele><time>2026-04-22T13:54:00.55Z</time></trkpt><trkpt lat="44.0744467" lon="8.1910383"><ele>29.0</ele><time>2026-04-22T13:54:01.55Z</time></trkpt><trkpt lat="44.0744533" lon="8.1912517"><ele>29.0</ele><time>2026-04-22T13:54:02.55Z</time></trkpt><trkpt lat="44.07448" lon="8.1914767"><ele>29.0</ele><time>2026-04-22T13:54:03.549Z</time></trkpt><trkpt lat="44.0745033" lon="8.1916967"><ele>29.0</ele><time>2026-04-22T13:54:04.549Z</time></trkpt><trkpt lat="44.0745033" lon="8.1919183"><ele>28.666666666666664</ele><time>2026-04-22T13:54:05.549Z</time></trkpt><trkpt lat="44.07452" lon="8.1921467"><ele>28.333333333333336</ele><time>2026-04-22T13:54:06.55Z</time></trkpt><trkpt lat="44.0745417" lon="8.1923783"><ele>28.0</ele><time>2026-04-22T13:54:07.55Z</time></trkpt><trkpt lat="44.0745783" lon="8.19262"><ele>27.333333333333336</ele><time>2026-04-22T13:54:08.55Z</time></trkpt><trkpt lat="44.0746233" lon="8.1928583"><ele>26.666666666666664</ele><time>2026-04-22T13:54:09.55Z</time></trkpt><trkpt lat="44.0746883" lon="8.193105"><ele>26.0</ele><time>2026-04-22T13:54:10.55Z</time></trkpt><trkpt lat="44.0747683" lon="8.1933533"><ele>25.666666666666664</ele><time>2026-04-22T13:54:11.55Z</time></trkpt><trkpt lat="44.0748567" lon="8.193595"><ele>25.333333333333336</ele><time>2026-04-22T13:54:12.55Z</time></trkpt><trkpt lat="44.074955" lon="8.1938267"><ele>25.0</ele><time>2026-04-22T13:54:13.55Z</time></trkpt><trkpt lat="44.0750617" lon="8.19407"><ele>25.0</ele><time>2026-04-22T13:54:14.55Z</time></trkpt><trkpt lat="44.0751533" lon="8.1943117"><ele>25.0</ele><time>2026-04-22T13:54:15.55Z</time></trkpt><trkpt lat="44.0752433" lon="8.1945567"><ele>25.0</ele><time>2026-04-22T13:54:16.55Z</time></trkpt><trkpt lat="44.0753417" lon="8.1947917"><ele>24.333333333333336</ele><time>2026-04-22T13:54:17.55Z</time></trkpt><trkpt lat="44.0754283" lon="8.1950133"><ele>23.666666666666668</ele><time>2026-04-22T13:54:18.549Z</time></trkpt><trkpt lat="44.0755117" lon="8.1952267"><ele>23.0</ele><time>2026-04-22T13:54:19.55Z</time></trkpt><trkpt lat="44.0755817" lon="8.1954333"><ele>23.0</ele><time>2026-04-22T13:54:20.55Z</time></trkpt><trkpt lat="44.0756433" lon="8.19564"><ele>23.0</ele><time>2026-04-22T13:54:21.549Z</time></trkpt><trkpt lat="44.07569" lon="8.1958367"><ele>23.0</ele><time>2026-04-22T13:54:22.549Z</time></trkpt><trkpt lat="44.0757183" lon="8.1960217"><ele>23.0</ele><time>2026-04-22T13:54:23.55Z</time></trkpt><trkpt lat="44.0757333" lon="8.1961667"><ele>22.799999999999997</ele><time>2026-04-22T13:54:24.549Z</time></trkpt><trkpt lat="44.0757467" lon="8.19627"><ele>22.6</ele><time>2026-04-22T13:54:25.55Z</time></trkpt><trkpt lat="44.0758167" lon="8.1963417"><ele>22.4</ele><time>2026-04-22T13:54:27.55Z</time></trkpt><trkpt lat="44.0759367" lon="8.1962117"><ele>22.200000000000003</ele><time>2026-04-22T13:54:29.55Z</time></trkpt><trkpt lat="44.0760217" lon="8.19611"><ele>22.0</ele><time>2026-04-22T13:54:30.55Z</time></trkpt><trkpt lat="44.0761083" lon="8.1960033"><ele>22.0</ele><time>2026-04-22T13:54:31.55Z</time></trkpt><trkpt lat="44.0762033" lon="8.195915"><ele>22.0</ele><time>2026-04-22T13:54:32.549Z</time></trkpt><trkpt lat="44.0762967" lon="8.1958233"><ele>22.0</ele><time>2026-04-22T13:54:33.55Z</time></trkpt><trkpt lat="44.0764" lon="8.1957367"><ele>22.0</ele><time>2026-04-22T13:54:34.549Z</time></trkpt><trkpt lat="44.0765117" lon="8.1956333"><ele>23.5</ele><time>2026-04-22T13:54:35.55Z</time></trkpt><trkpt lat="44.0766333" lon="8.1955233"><ele>25.0</ele><time>2026-04-22T13:54:36.549Z</time></trkpt><trkpt lat="44.0767517" lon="8.1954217"><ele>26.5</ele><time>2026-04-22T13:54:37.55Z</time></trkpt><trkpt lat="44.0768883" lon="8.1952967"><ele>28.0</ele><time>2026-04-22T13:54:38.55Z</time></trkpt><trkpt lat="44.0770167" lon="8.19518"><ele>28.0</ele><time>2026-04-22T13:54:39.549Z</time></trkpt><trkpt lat="44.077125" lon="8.19508"><ele>27.999999999999996</ele><time>2026-04-22T13:54:40.55Z</time></trkpt><trkpt lat="44.0772283" lon="8.1950033"><ele>27.999999999999996</ele><time>2026-04-22T13:54:41.55Z</time></trkpt><trkpt lat="44.07732" lon="8.19494"><ele>28.0</ele><time>2026-04-22T13:54:42.55Z</time></trkpt><trkpt lat="44.0774033" lon="8.194865"><ele>28.0</ele><time>2026-04-22T13:54:43.55Z</time></trkpt><trkpt lat="44.0774933" lon="8.1947483"><ele>29.25</ele><time>2026-04-22T13:54:44.55Z</time></trkpt><trkpt lat="44.0775867" lon="8.19461"><ele>30.5</ele><time>2026-04-22T13:54:45.55Z</time></trkpt><trkpt lat="44.077695" lon="8.1944683"><ele>31.75</ele><time>2026-04-22T13:54:46.55Z</time></trkpt><trkpt lat="44.0778" lon="8.19433"><ele>33.0</ele><time>2026-04-22T13:54:47.55Z</time></trkpt><trkpt lat="44.0778933" lon="8.194195"><ele>33.0</ele><time>2026-04-22T13:54:48.55Z</time></trkpt><trkpt lat="44.0779833" lon="8.1940567"><ele>33.0</ele><time>2026-04-22T13:54:49.55Z</time></trkpt><trkpt lat="44.0780783" lon="8.19393"><ele>33.0</ele><time>2026-04-22T13:54:50.55Z</time></trkpt><trkpt lat="44.0781783" lon="8.1937917"><ele>33.0</ele><time>2026-04-22T13:54:51.55Z</time></trkpt><trkpt lat="44.0782783" lon="8.1936617"><ele>33.199999999999996</ele><time>2026-04-22T13:54:52.55Z</time></trkpt><trkpt lat="44.0783567" lon="8.19355"><ele>33.4</ele><time>2026-04-22T13:54:53.55Z</time></trkpt><trkpt lat="44.078425" lon="8.19346"><ele>33.599999999999994</ele><time>2026-04-22T13:54:54.55Z</time></trkpt><trkpt lat="44.07849" lon="8.1933733"><ele>33.8</ele><time>2026-04-22T13:54:55.55Z</time></trkpt><trkpt lat="44.0785417" lon="8.193315"><ele>34.0</ele><time>2026-04-22T13:54:56.55Z</time></trkpt><trkpt lat="44.0786283" lon="8.193255"><ele>34.0</ele><time>2026-04-22T13:54:58.55Z</time></trkpt><trkpt lat="44.078725" lon="8.1931683"><ele>34.0</ele><time>2026-04-22T13:55:00.55Z</time></trkpt><trkpt lat="44.0788283" lon="8.1930683"><ele>34.0</ele><time>2026-04-22T13:55:02.549Z</time></trkpt><trkpt lat="44.0789333" lon="8.1929683"><ele>34.0</ele><time>2026-04-22T13:55:04.55Z</time></trkpt><trkpt lat="44.0789867" lon="8.1928967"><ele>34.0</ele><time>2026-04-22T13:55:05.55Z</time></trkpt><trkpt lat="44.0790433" lon="8.19283"><ele>34.4</ele><time>2026-04-22T13:55:06.549Z</time></trkpt><trkpt lat="44.079125" lon="8.1927133"><ele>34.8</ele><time>2026-04-22T13:55:08.55Z</time></trkpt><trkpt lat="44.079185" lon="8.1926433"><ele>35.2</ele><time>2026-04-22T13:55:10.549Z</time></trkpt><trkpt lat="44.0792617" lon="8.1926267"><ele>35.6</ele><time>2026-04-22T13:55:12.55Z</time></trkpt><trkpt lat="44.0793733" lon="8.1926433"><ele>36.0</ele><time>2026-04-22T13:55:14.55Z</time></trkpt><trkpt lat="44.0794833" lon="8.1926917"><ele>36.0</ele><time>2026-04-22T13:55:16.55Z</time></trkpt><trkpt lat="44.0795433" lon="8.1927217"><ele>36.0</ele><time>2026-04-22T13:55:17.55Z</time></trkpt><trkpt lat="44.07965" lon="8.1927733"><ele>36.0</ele><time>2026-04-22T13:55:19.549Z</time></trkpt><trkpt lat="44.0797267" lon="8.1928367"><ele>36.0</ele><time>2026-04-22T13:55:21.549Z</time></trkpt><trkpt lat="44.0797383" lon="8.1929517"><ele>36.0</ele><time>2026-04-22T13:55:23.55Z</time></trkpt><trkpt lat="44.0796783" lon="8.1930467"><ele>36.0</ele><time>2026-04-22T13:55:25.549Z</time></trkpt><trkpt lat="44.079615" lon="8.1931617"><ele>35.833333333333336</ele><time>2026-04-22T13:55:27.55Z</time></trkpt><trkpt lat="44.07964" lon="8.1933167"><ele>35.666666666666664</ele><time>2026-04-22T13:55:29.55Z</time></trkpt><trkpt lat="44.0796783" lon="8.1933983"><ele>35.5</ele><time>2026-04-22T13:55:30.55Z</time></trkpt><trkpt lat="44.079735" lon="8.1934867"><ele>35.33333333333333</ele><time>2026-04-22T13:55:31.55Z</time></trkpt><trkpt lat="44.0797833" lon="8.1935933"><ele>35.166666666666664</ele><time>2026-04-22T13:55:32.55Z</time></trkpt><trkpt lat="44.0798283" lon="8.19368"><ele>35.0</ele><time>2026-04-22T13:55:33.55Z</time></trkpt><trkpt lat="44.079875" lon="8.19375"><ele>34.666666666666664</ele><time>2026-04-22T13:55:34.55Z</time></trkpt><trkpt lat="44.0799383" lon="8.1937867"><ele>34.33333333333333</ele><time>2026-04-22T13:55:35.55Z</time></trkpt><trkpt lat="44.080015" lon="8.19381"><ele>34.0</ele><time>2026-04-22T13:55:36.55Z</time></trkpt><trkpt lat="44.0801067" lon="8.193885"><ele>33.666666666666664</ele><time>2026-04-22T13:55:38.55Z</time></trkpt><trkpt lat="44.0801517" lon="8.193955"><ele>33.333333333333336</ele><time>2026-04-22T13:55:39.55Z</time></trkpt><trkpt lat="44.0802" lon="8.19403"><ele>33.0</ele><time>2026-04-22T13:55:40.549Z</time></trkpt><trkpt lat="44.08028" lon="8.19409"><ele>33.0</ele><time>2026-04-22T13:55:41.55Z</time></trkpt><trkpt lat="44.080365" lon="8.19414"><ele>33.0</ele><time>2026-04-22T13:55:42.55Z</time></trkpt><trkpt lat="44.080445" lon="8.1941933"><ele>33.0</ele><time>2026-04-22T13:55:43.55Z</time></trkpt><trkpt lat="44.0805183" lon="8.1942783"><ele>33.0</ele><time>2026-04-22T13:55:44.549Z</time></trkpt><trkpt lat="44.0805883" lon="8.1943733"><ele>33.0</ele><time>2026-04-22T13:55:45.55Z</time></trkpt><trkpt lat="44.0806483" lon="8.1944433"><ele>33.0</ele><time>2026-04-22T13:55:46.55Z</time></trkpt><trkpt lat="44.0807167" lon="8.1945117"><ele>33.0</ele><time>2026-04-22T13:55:48.549Z</time></trkpt><trkpt lat="44.0807817" lon="8.1945567"><ele>33.0</ele><time>2026-04-22T13:55:50.55Z</time></trkpt><trkpt lat="44.0808867" lon="8.194585"><ele>33.0</ele><time>2026-04-22T13:56:10.55Z</time></trkpt><trkpt lat="44.080945" lon="8.194625"><ele>33.0</ele><time>2026-04-22T13:56:12.55Z</time></trkpt><trkpt lat="44.0809867" lon="8.194695"><ele>33.0</ele><time>2026-04-22T13:56:14.55Z</time></trkpt><trkpt lat="44.0809633" lon="8.1948183"><ele>33.333333333333336</ele><time>2026-04-22T13:56:17.55Z</time></trkpt><trkpt lat="44.0809817" lon="8.1949067"><ele>33.666666666666664</ele><time>2026-04-22T13:56:21.549Z</time></trkpt><trkpt lat="44.0810183" lon="8.1949783"><ele>34.0</ele><time>2026-04-22T13:56:29.55Z</time></trkpt><trkpt lat="44.081075" lon="8.1950767"><ele>34.33333333333333</ele><time>2026-04-22T13:56:31.55Z</time></trkpt><trkpt lat="44.0811883" lon="8.1951333"><ele>34.666666666666664</ele><time>2026-04-22T13:56:33.55Z</time></trkpt><trkpt lat="44.08125" lon="8.195165"><ele>35.0</ele><time>2026-04-22T13:56:34.549Z</time></trkpt><trkpt lat="44.08132" lon="8.19517"><ele>35.0</ele><time>2026-04-22T13:56:35.549Z</time></trkpt><trkpt lat="44.0813917" lon="8.1951983"><ele>35.0</ele><time>2026-04-22T13:56:36.55Z</time></trkpt><trkpt lat="44.0814717" lon="8.1952333"><ele>35.0</ele><time>2026-04-22T13:56:37.55Z</time></trkpt><trkpt lat="44.0815533" lon="8.1952617"><ele>35.0</ele><time>2026-04-22T13:56:38.55Z</time></trkpt><trkpt lat="44.0816333" lon="8.1953117"><ele>35.0</ele><time>2026-04-22T13:56:39.55Z</time></trkpt><trkpt lat="44.0817017" lon="8.1953583"><ele>35.0</ele><time>2026-04-22T13:56:40.548Z</time></trkpt><trkpt lat="44.081765" lon="8.1954083"><ele>36.0</ele><time>2026-04-22T13:56:41.55Z</time></trkpt><trkpt lat="44.0818217" lon="8.195455"><ele>37.0</ele><time>2026-04-22T13:56:42.549Z</time></trkpt><trkpt lat="44.0818917" lon="8.1955583"><ele>38.0</ele><time>2026-04-22T13:56:44.55Z</time></trkpt><trkpt lat="44.0819017" lon="8.1956817"><ele>39.0</ele><time>2026-04-22T13:56:47.55Z</time></trkpt><trkpt lat="44.0818783" lon="8.19582"><ele>40.0</ele><time>2026-04-22T13:56:49.55Z</time></trkpt><trkpt lat="44.08183" lon="8.1959833"><ele>40.16666666666667</ele><time>2026-04-22T13:56:51.55Z</time></trkpt><trkpt lat="44.081795" lon="8.1960633"><ele>40.333333333333336</ele><time>2026-04-22T13:56:52.55Z</time></trkpt><trkpt lat="44.081755" lon="8.196135"><ele>40.5</ele><time>2026-04-22T13:56:53.55Z</time></trkpt><trkpt lat="44.0817567" lon="8.1962817"><ele>40.666666666666664</ele><time>2026-04-22T13:56:55.549Z</time></trkpt><trkpt lat="44.0817933" lon="8.19636"><ele>40.83333333333333</ele><time>2026-04-22T13:56:56.55Z</time></trkpt><trkpt lat="44.08185" lon="8.1964383"><ele>41.0</ele><time>2026-04-22T13:56:57.55Z</time></trkpt><trkpt lat="44.0819" lon="8.1964983"><ele>41.0</ele><time>2026-04-22T13:56:58.55Z</time></trkpt><trkpt lat="44.08202" lon="8.1964917"><ele>41.0</ele><time>2026-04-22T13:57:00.55Z</time></trkpt><trkpt lat="44.0821283" lon="8.19651"><ele>41.0</ele><time>2026-04-22T13:57:02.55Z</time></trkpt><trkpt lat="44.08224" lon="8.1965633"><ele>41.0</ele><time>2026-04-22T13:57:04.55Z</time></trkpt><trkpt lat="44.08236" lon="8.1965933"><ele>40.4</ele><time>2026-04-22T13:57:06.549Z</time></trkpt><trkpt lat="44.08247" lon="8.1966333"><ele>39.8</ele><time>2026-04-22T13:57:08.55Z</time></trkpt><trkpt lat="44.08257" lon="8.1966583"><ele>39.199999999999996</ele><time>2026-04-22T13:57:10.55Z</time></trkpt><trkpt lat="44.0826683" lon="8.196705"><ele>38.599999999999994</ele><time>2026-04-22T13:57:12.55Z</time></trkpt><trkpt lat="44.0827367" lon="8.19675"><ele>38.0</ele><time>2026-04-22T13:57:14.549Z</time></trkpt><trkpt lat="44.08284" lon="8.196715"><ele>38.0</ele><time>2026-04-22T13:57:16.549Z</time></trkpt><trkpt lat="44.0829117" lon="8.1966917"><ele>38.0</ele><time>2026-04-22T13:57:17.55Z</time></trkpt><trkpt lat="44.083005" lon="8.1966867"><ele>38.0</ele><time>2026-04-22T13:57:18.55Z</time></trkpt><trkpt lat="44.0831083" lon="8.1966683"><ele>38.0</ele><time>2026-04-22T13:57:19.55Z</time></trkpt><trkpt lat="44.0832067" lon="8.1966383"><ele>38.0</ele><time>2026-04-22T13:57:20.55Z</time></trkpt><trkpt lat="44.0832967" lon="8.19663"><ele>38.166666666666664</ele><time>2026-04-22T13:57:21.549Z</time></trkpt><trkpt lat="44.0833767" lon="8.1966217"><ele>38.33333333333333</ele><time>2026-04-22T13:57:22.55Z</time></trkpt><trkpt lat="44.0834783" lon="8.196575"><ele>38.5</ele><time>2026-04-22T13:57:24.55Z</time></trkpt><trkpt lat="44.0835167" lon="8.1964733"><ele>38.666666666666664</ele><time>2026-04-22T13:57:27.55Z</time></trkpt><trkpt lat="44.0836183" lon="8.1964983"><ele>38.833333333333336</ele><time>2026-04-22T13:57:30.55Z</time></trkpt><trkpt lat="44.0836767" lon="8.196555"><ele>39.0</ele><time>2026-04-22T13:57:31.55Z</time></trkpt><trkpt lat="44.083725" lon="8.19664"><ele>39.0</ele><time>2026-04-22T13:57:32.55Z</time></trkpt><trkpt lat="44.0837617" lon="8.196715"><ele>39.0</ele><time>2026-04-22T13:57:33.55Z</time></trkpt><trkpt lat="44.083885" lon="8.1967567"><ele>39.0</ele><time>2026-04-22T13:57:35.55Z</time></trkpt><trkpt lat="44.0839717" lon="8.1966867"><ele>39.0</ele><time>2026-04-22T13:57:36.55Z</time></trkpt><trkpt lat="44.0840467" lon="8.1966217"><ele>39.0</ele><time>2026-04-22T13:57:37.55Z</time></trkpt><trkpt lat="44.084115" lon="8.1966083"><ele>39.0</ele><time>2026-04-22T13:57:39.55Z</time></trkpt><trkpt lat="44.0840817" lon="8.1967217"><ele>39.0</ele><time>2026-04-22T13:57:43.55Z</time></trkpt><trkpt lat="44.08412" lon="8.1968133"><ele>39.0</ele><time>2026-04-22T13:57:45.55Z</time></trkpt><trkpt lat="44.0842033" lon="8.19687"><ele>39.0</ele><time>2026-04-22T13:57:47.55Z</time></trkpt><trkpt lat="44.084325" lon="8.1968517"><ele>39.0</ele><time>2026-04-22T13:57:49.549Z</time></trkpt><trkpt lat="44.08439" lon="8.1968217"><ele>39.0</ele><time>2026-04-22T13:57:50.55Z</time></trkpt><trkpt lat="44.0844567" lon="8.1968133"><ele>40.166666666666664</ele><time>2026-04-22T13:57:51.55Z</time></trkpt><trkpt lat="44.0845217" lon="8.196815"><ele>41.333333333333336</ele><time>2026-04-22T13:57:52.55Z</time></trkpt><trkpt lat="44.0846117" lon="8.1968167"><ele>42.5</ele><time>2026-04-22T13:57:54.549Z</time></trkpt><trkpt lat="44.084715" lon="8.1967317"><ele>43.66666666666667</ele><time>2026-04-22T13:57:56.55Z</time></trkpt><trkpt lat="44.0847733" lon="8.196695"><ele>44.833333333333336</ele><time>2026-04-22T13:57:57.549Z</time></trkpt><trkpt lat="44.08486" lon="8.1966933"><ele>46.0</ele><time>2026-04-22T13:57:59.55Z</time></trkpt><trkpt lat="44.0849383" lon="8.1967767"><ele>48.16666666666667</ele><time>2026-04-22T13:58:01.55Z</time></trkpt><trkpt lat="44.0850133" lon="8.1967483"><ele>50.333333333333336</ele><time>2026-04-22T13:58:03.55Z</time></trkpt><trkpt lat="44.0850667" lon="8.196695"><ele>52.5</ele><time>2026-04-22T13:58:05.549Z</time></trkpt><trkpt lat="44.0851667" lon="8.1967617"><ele>54.66666666666667</ele><time>2026-04-22T13:58:07.55Z</time></trkpt><trkpt lat="44.0852433" lon="8.1968"><ele>56.833333333333336</ele><time>2026-04-22T13:58:08.55Z</time></trkpt><trkpt lat="44.085315" lon="8.196825"><ele>59.0</ele><time>2026-04-22T13:58:09.549Z</time></trkpt><trkpt lat="44.0854083" lon="8.1967767"><ele>59.0</ele><time>2026-04-22T13:58:11.55Z</time></trkpt><trkpt lat="44.0854783" lon="8.196695"><ele>59.00000000000001</ele><time>2026-04-22T13:58:13.55Z</time></trkpt><trkpt lat="44.085555" lon="8.1966883"><ele>59.00000000000001</ele><time>2026-04-22T13:58:15.55Z</time></trkpt><trkpt lat="44.0856667" lon="8.19672"><ele>59.0</ele><time>2026-04-22T13:58:17.55Z</time></trkpt><trkpt lat="44.0857317" lon="8.1967167"><ele>59.0</ele><time>2026-04-22T13:58:18.55Z</time></trkpt><trkpt lat="44.08585" lon="8.1966467"><ele>60.333333333333336</ele><time>2026-04-22T13:58:20.55Z</time></trkpt><trkpt lat="44.0859083" lon="8.1966117"><ele>61.66666666666667</ele><time>2026-04-22T13:58:21.549Z</time></trkpt><trkpt lat="44.0859883" lon="8.196585"><ele>63.0</ele><time>2026-04-22T13:58:22.55Z</time></trkpt><trkpt lat="44.0860783" lon="8.1965533"><ele>64.33333333333333</ele><time>2026-04-22T13:58:23.55Z</time></trkpt><trkpt lat="44.086165" lon="8.1965083"><ele>65.66666666666666</ele><time>2026-04-22T13:58:24.55Z</time></trkpt><trkpt lat="44.0862533" lon="8.1964583"><ele>67.0</ele><time>2026-04-22T13:58:25.55Z</time></trkpt><trkpt lat="44.0863283" lon="8.1964"><ele>67.2</ele><time>2026-04-22T13:58:26.55Z</time></trkpt><trkpt lat="44.08642" lon="8.19632"><ele>67.4</ele><time>2026-04-22T13:58:27.55Z</time></trkpt><trkpt lat="44.0865133" lon="8.1962333"><ele>67.6</ele><time>2026-04-22T13:58:28.55Z</time></trkpt><trkpt lat="44.0866017" lon="8.196145"><ele>67.8</ele><time>2026-04-22T13:58:29.55Z</time></trkpt><trkpt lat="44.086675" lon="8.196055"><ele>68.0</ele><time>2026-04-22T13:58:30.55Z</time></trkpt><trkpt lat="44.0867333" lon="8.1959817"><ele>69.28571428571428</ele><time>2026-04-22T13:58:31.55Z</time></trkpt><trkpt lat="44.0867933" lon="8.1959317"><ele>70.57142857142857</ele><time>2026-04-22T13:58:32.55Z</time></trkpt><trkpt lat="44.0868517" lon="8.1958917"><ele>71.85714285714286</ele><time>2026-04-22T13:58:34.55Z</time></trkpt><trkpt lat="44.0868583" lon="8.19599"><ele>73.14285714285714</ele><time>2026-04-22T13:58:38.55Z</time></trkpt><trkpt lat="44.0868483" lon="8.1960983"><ele>74.42857142857143</ele><time>2026-04-22T13:58:41.55Z</time></trkpt><trkpt lat="44.0868833" lon="8.1962233"><ele>75.71428571428571</ele><time>2026-04-22T13:58:45.549Z</time></trkpt><trkpt lat="44.0868917" lon="8.196315"><ele>77.0</ele><time>2026-04-22T13:58:47.55Z</time></trkpt><trkpt lat="44.0868683" lon="8.19645"><ele>75.2</ele><time>2026-04-22T13:58:49.55Z</time></trkpt><trkpt lat="44.0868333" lon="8.1965667"><ele>73.4</ele><time>2026-04-22T13:58:51.55Z</time></trkpt><trkpt lat="44.0867817" lon="8.196695"><ele>71.6</ele><time>2026-04-22T13:58:53.55Z</time></trkpt><trkpt lat="44.086725" lon="8.1968183"><ele>69.8</ele><time>2026-04-22T13:58:55.55Z</time></trkpt><trkpt lat="44.0866717" lon="8.196925"><ele>68.0</ele><time>2026-04-22T13:58:57.55Z</time></trkpt><trkpt lat="44.0865933" lon="8.1970217"><ele>67.8</ele><time>2026-04-22T13:58:59.55Z</time></trkpt><trkpt lat="44.0864633" lon="8.1970883"><ele>67.6</ele><time>2026-04-22T13:59:01.549Z</time></trkpt><trkpt lat="44.0863917" lon="8.1971333"><ele>67.4</ele><time>2026-04-22T13:59:02.55Z</time></trkpt><trkpt lat="44.0863267" lon="8.1971733"><ele>67.2</ele><time>2026-04-22T13:59:03.55Z</time></trkpt><trkpt lat="44.08623" lon="8.1972817"><ele>67.0</ele><time>2026-04-22T13:59:05.55Z</time></trkpt><trkpt lat="44.0861467" lon="8.19735"><ele>64.66666666666666</ele><time>2026-04-22T13:59:07.55Z</time></trkpt><trkpt lat="44.08611" lon="8.1974267"><ele>62.33333333333333</ele><time>2026-04-22T13:59:10.55Z</time></trkpt><trkpt lat="44.0861733" lon="8.197465"><ele>60.0</ele><time>2026-04-22T13:59:14.55Z</time></trkpt><trkpt lat="44.0862517" lon="8.197505"><ele>57.66666666666667</ele><time>2026-04-22T13:59:16.549Z</time></trkpt><trkpt lat="44.0862783" lon="8.1976333"><ele>55.333333333333336</ele><time>2026-04-22T13:59:18.55Z</time></trkpt><trkpt lat="44.0862583" lon="8.1977317"><ele>53.0</ele><time>2026-04-22T13:59:19.55Z</time></trkpt><trkpt lat="44.0862333" lon="8.197835"><ele>53.0</ele><time>2026-04-22T13:59:20.549Z</time></trkpt><trkpt lat="44.0862133" lon="8.1979683"><ele>53.0</ele><time>2026-04-22T13:59:21.55Z</time></trkpt><trkpt lat="44.0862067" lon="8.1980983"><ele>53.0</ele><time>2026-04-22T13:59:22.55Z</time></trkpt><trkpt lat="44.0862267" lon="8.1982367"><ele>53.0</ele><time>2026-04-22T13:59:23.55Z</time></trkpt><trkpt lat="44.08624" lon="8.1983867"><ele>53.0</ele><time>2026-04-22T13:59:24.549Z</time></trkpt><trkpt lat="44.0862483" lon="8.1985283"><ele>52.66666666666667</ele><time>2026-04-22T13:59:25.55Z</time></trkpt><trkpt lat="44.0862467" lon="8.1986683"><ele>52.333333333333336</ele><time>2026-04-22T13:59:26.55Z</time></trkpt><trkpt lat="44.08624" lon="8.1987983"><ele>52.0</ele><time>2026-04-22T13:59:27.55Z</time></trkpt><trkpt lat="44.0862317" lon="8.198925"><ele>51.66666666666667</ele><time>2026-04-22T13:59:28.55Z</time></trkpt><trkpt lat="44.0862283" lon="8.1990383"><ele>51.333333333333336</ele><time>2026-04-22T13:59:29.55Z</time></trkpt><trkpt lat="44.086235" lon="8.1991383"><ele>51.0</ele><time>2026-04-22T13:59:30.55Z</time></trkpt><trkpt lat="44.0862317" lon="8.199235"><ele>51.0</ele><time>2026-04-22T13:59:31.55Z</time></trkpt><trkpt lat="44.086225" lon="8.1993617"><ele>51.0</ele><time>2026-04-22T13:59:33.55Z</time></trkpt><trkpt lat="44.086245" lon="8.1994783"><ele>51.0</ele><time>2026-04-22T13:59:35.55Z</time></trkpt><trkpt lat="44.0863367" lon="8.1996083"><ele>51.0</ele><time>2026-04-22T13:59:37.55Z</time></trkpt><trkpt lat="44.0863917" lon="8.1997033"><ele>51.0</ele><time>2026-04-22T13:59:38.549Z</time></trkpt><trkpt lat="44.0864333" lon="8.1998167"><ele>51.166666666666664</ele><time>2026-04-22T13:59:39.55Z</time></trkpt><trkpt lat="44.0864767" lon="8.1999367"><ele>51.33333333333333</ele><time>2026-04-22T13:59:40.55Z</time></trkpt><trkpt lat="44.0865133" lon="8.2000583"><ele>51.5</ele><time>2026-04-22T13:59:41.549Z</time></trkpt><trkpt lat="44.086545" lon="8.2001533"><ele>51.666666666666664</ele><time>2026-04-22T13:59:42.55Z</time></trkpt><trkpt lat="44.0866" lon="8.200235"><ele>51.83333333333333</ele><time>2026-04-22T13:59:43.55Z</time></trkpt><trkpt lat="44.0866683" lon="8.200305"><ele>52.0</ele><time>2026-04-22T13:59:44.549Z</time></trkpt><trkpt lat="44.0867567" lon="8.2003533"><ele>52.49999999999999</ele><time>2026-04-22T13:59:45.55Z</time></trkpt><trkpt lat="44.08685" lon="8.2003933"><ele>53.0</ele><time>2026-04-22T13:59:46.55Z</time></trkpt><trkpt lat="44.08692" lon="8.2004433"><ele>53.5</ele><time>2026-04-22T13:59:47.55Z</time></trkpt><trkpt lat="44.086975" lon="8.2004917"><ele>54.0</ele><time>2026-04-22T13:59:48.55Z</time></trkpt><trkpt lat="44.0869967" lon="8.20061"><ele>54.49999999999999</ele><time>2026-04-22T13:59:50.55Z</time></trkpt><trkpt lat="44.08696" lon="8.2006933"><ele>55.0</ele><time>2026-04-22T13:59:51.55Z</time></trkpt><trkpt lat="44.08692" lon="8.2007983"><ele>55.0</ele><time>2026-04-22T13:59:52.55Z</time></trkpt><trkpt lat="44.0868983" lon="8.2008883"><ele>55.0</ele><time>2026-04-22T13:59:53.55Z</time></trkpt><trkpt lat="44.08696" lon="8.2010533"><ele>55.0</ele><time>2026-04-22T13:59:55.55Z</time></trkpt><trkpt lat="44.0870367" lon="8.2011433"><ele>55.0</ele><time>2026-04-22T13:59:56.55Z</time></trkpt><trkpt lat="44.0871133" lon="8.201235"><ele>55.0</ele><time>2026-04-22T13:59:57.55Z</time></trkpt><trkpt lat="44.087195" lon="8.201315"><ele>55.0</ele><time>2026-04-22T13:59:58.55Z</time></trkpt><trkpt lat="44.0872567" lon="8.2013983"><ele>55.0</ele><time>2026-04-22T13:59:59.55Z</time></trkpt><trkpt lat="44.087305" lon="8.2015217"><ele>55.0</ele><time>2026-04-22T14:00:01.55Z</time></trkpt><trkpt lat="44.0872433" lon="8.2016283"><ele>55.0</ele><time>2026-04-22T14:00:03.55Z</time></trkpt><trkpt lat="44.0871667" lon="8.2016917"><ele>55.0</ele><time>2026-04-22T14:00:04.55Z</time></trkpt><trkpt lat="44.08707" lon="8.2017617"><ele>54.8</ele><time>2026-04-22T14:00:05.55Z</time></trkpt><trkpt lat="44.0869633" lon="8.2018517"><ele>54.6</ele><time>2026-04-22T14:00:06.55Z</time></trkpt><trkpt lat="44.0868833" lon="8.2019633"><ele>54.400000000000006</ele><time>2026-04-22T14:00:07.55Z</time></trkpt><trkpt lat="44.08682" lon="8.2020717"><ele>54.2</ele><time>2026-04-22T14:00:08.55Z</time></trkpt><trkpt lat="44.0867683" lon="8.2021817"><ele>54.0</ele><time>2026-04-22T14:00:09.55Z</time></trkpt><trkpt lat="44.0867383" lon="8.202285"><ele>54.6</ele><time>2026-04-22T14:00:10.55Z</time></trkpt><trkpt lat="44.08671" lon="8.2023733"><ele>55.2</ele><time>2026-04-22T14:00:11.55Z</time></trkpt><trkpt lat="44.0866383" lon="8.202535"><ele>55.800000000000004</ele><time>2026-04-22T14:00:13.55Z</time></trkpt><trkpt lat="44.0865783" lon="8.20262"><ele>56.400000000000006</ele><time>2026-04-22T14:00:14.55Z</time></trkpt><trkpt lat="44.0865117" lon="8.2027183"><ele>57.0</ele><time>2026-04-22T14:00:15.55Z</time></trkpt><trkpt lat="44.08646" lon="8.2028367"><ele>57.0</ele><time>2026-04-22T14:00:16.55Z</time></trkpt><trkpt lat="44.0864317" lon="8.2029733"><ele>57.0</ele><time>2026-04-22T14:00:17.55Z</time></trkpt><trkpt lat="44.0864333" lon="8.2031167"><ele>57.0</ele><time>2026-04-22T14:00:18.55Z</time></trkpt><trkpt lat="44.08644" lon="8.20325"><ele>57.0</ele><time>2026-04-22T14:00:19.55Z</time></trkpt><trkpt lat="44.0864333" lon="8.2033767"><ele>57.0</ele><time>2026-04-22T14:00:20.55Z</time></trkpt><trkpt lat="44.0864133" lon="8.2034883"><ele>56.75</ele><time>2026-04-22T14:00:21.55Z</time></trkpt><trkpt lat="44.0863817" lon="8.20361"><ele>56.5</ele><time>2026-04-22T14:00:22.549Z</time></trkpt><trkpt lat="44.0863017" lon="8.2037733"><ele>56.25</ele><time>2026-04-22T14:00:23.549Z</time></trkpt><trkpt lat="44.0862283" lon="8.20389"><ele>56.0</ele><time>2026-04-22T14:00:24.55Z</time></trkpt><trkpt lat="44.0861117" lon="8.2040267"><ele>55.75</ele><time>2026-04-22T14:00:25.55Z</time></trkpt><trkpt lat="44.0860067" lon="8.2041767"><ele>55.5</ele><time>2026-04-22T14:00:26.55Z</time></trkpt><trkpt lat="44.0859017" lon="8.204315"><ele>55.25</ele><time>2026-04-22T14:00:27.55Z</time></trkpt><trkpt lat="44.085805" lon="8.204465"><ele>55.0</ele><time>2026-04-22T14:00:28.55Z</time></trkpt><trkpt lat="44.0857183" lon="8.2045917"><ele>54.25</ele><time>2026-04-22T14:00:29.55Z</time></trkpt><trkpt lat="44.085615" lon="8.2047133"><ele>53.5</ele><time>2026-04-22T14:00:30.55Z</time></trkpt><trkpt lat="44.08551" lon="8.2048183"><ele>52.75</ele><time>2026-04-22T14:00:31.549Z</time></trkpt><trkpt lat="44.0854083" lon="8.2049033"><ele>52.0</ele><time>2026-04-22T14:00:32.549Z</time></trkpt><trkpt lat="44.0853133" lon="8.2049783"><ele>51.75</ele><time>2026-04-22T14:00:33.55Z</time></trkpt><trkpt lat="44.0852117" lon="8.2050517"><ele>51.5</ele><time>2026-04-22T14:00:34.549Z</time></trkpt><trkpt lat="44.0850983" lon="8.2051267"><ele>51.25</ele><time>2026-04-22T14:00:35.55Z</time></trkpt><trkpt lat="44.0849767" lon="8.2052017"><ele>51.0</ele><time>2026-04-22T14:00:36.549Z</time></trkpt><trkpt lat="44.08485" lon="8.2052667"><ele>50.25</ele><time>2026-04-22T14:00:37.55Z</time></trkpt><trkpt lat="44.0847367" lon="8.2053367"><ele>49.5</ele><time>2026-04-22T14:00:38.55Z</time></trkpt><trkpt lat="44.08464" lon="8.20541"><ele>48.75</ele><time>2026-04-22T14:00:39.549Z</time></trkpt><trkpt lat="44.084535" lon="8.2054683"><ele>48.0</ele><time>2026-04-22T14:00:40.55Z</time></trkpt><trkpt lat="44.08443" lon="8.2055"><ele>48.0</ele><time>2026-04-22T14:00:41.55Z</time></trkpt><trkpt lat="44.0843233" lon="8.205505"><ele>48.0</ele><time>2026-04-22T14:00:42.55Z</time></trkpt><trkpt lat="44.08421" lon="8.2055133"><ele>48.0</ele><time>2026-04-22T14:00:43.55Z</time></trkpt><trkpt lat="44.0840817" lon="8.2055133"><ele>48.0</ele><time>2026-04-22T14:00:44.549Z</time></trkpt><trkpt lat="44.0839483" lon="8.2055067"><ele>46.0</ele><time>2026-04-22T14:00:45.55Z</time></trkpt><trkpt lat="44.083805" lon="8.20551"><ele>44.0</ele><time>2026-04-22T14:00:46.55Z</time></trkpt><trkpt lat="44.0836733" lon="8.2055033"><ele>42.0</ele><time>2026-04-22T14:00:47.549Z</time></trkpt><trkpt lat="44.0835517" lon="8.2054733"><ele>40.0</ele><time>2026-04-22T14:00:48.55Z</time></trkpt><trkpt lat="44.0834317" lon="8.2054433"><ele>40.0</ele><time>2026-04-22T14:00:49.55Z</time></trkpt><trkpt lat="44.0833167" lon="8.2054033"><ele>40.0</ele><time>2026-04-22T14:00:50.55Z</time></trkpt><trkpt lat="44.0832017" lon="8.20534"><ele>40.0</ele><time>2026-04-22T14:00:51.55Z</time></trkpt><trkpt lat="44.0831117" lon="8.2052583"><ele>40.0</ele><time>2026-04-22T14:00:52.55Z</time></trkpt><trkpt lat="44.0830083" lon="8.20516"><ele>39.0</ele><time>2026-04-22T14:00:53.55Z</time></trkpt><trkpt lat="44.08291" lon="8.20505"><ele>38.0</ele><time>2026-04-22T14:00:54.55Z</time></trkpt><trkpt lat="44.0828217" lon="8.2049483"><ele>37.0</ele><time>2026-04-22T14:00:55.55Z</time></trkpt><trkpt lat="44.08273" lon="8.2048417"><ele>36.0</ele><time>2026-04-22T14:00:56.55Z</time></trkpt><trkpt lat="44.082635" lon="8.2047617"><ele>36.0</ele><time>2026-04-22T14:00:57.55Z</time></trkpt><trkpt lat="44.0825283" lon="8.2047167"><ele>36.0</ele><time>2026-04-22T14:00:58.55Z</time></trkpt><trkpt lat="44.0824017" lon="8.204705"><ele>36.0</ele><time>2026-04-22T14:00:59.55Z</time></trkpt><trkpt lat="44.08227" lon="8.2047317"><ele>36.0</ele><time>2026-04-22T14:01:00.55Z</time></trkpt><trkpt lat="44.0821417" lon="8.2047567"><ele>34.75</ele><time>2026-04-22T14:01:01.55Z</time></trkpt><trkpt lat="44.0820117" lon="8.20478"><ele>33.5</ele><time>2026-04-22T14:01:02.55Z</time></trkpt><trkpt lat="44.0818783" lon="8.2047767"><ele>32.25</ele><time>2026-04-22T14:01:03.549Z</time></trkpt><trkpt lat="44.0817467" lon="8.20475"><ele>31.0</ele><time>2026-04-22T14:01:04.55Z</time></trkpt><trkpt lat="44.081615" lon="8.20472"><ele>30.0</ele><time>2026-04-22T14:01:05.549Z</time></trkpt><trkpt lat="44.0815" lon="8.2046917"><ele>29.0</ele><time>2026-04-22T14:01:06.55Z</time></trkpt><trkpt lat="44.08139" lon="8.2046767"><ele>28.0</ele><time>2026-04-22T14:01:07.55Z</time></trkpt><trkpt lat="44.081285" lon="8.204725"><ele>27.0</ele><time>2026-04-22T14:01:08.55Z</time></trkpt><trkpt lat="44.0811767" lon="8.2048133"><ele>27.25</ele><time>2026-04-22T14:01:09.55Z</time></trkpt><trkpt lat="44.08107" lon="8.2049183"><ele>27.5</ele><time>2026-04-22T14:01:10.55Z</time></trkpt><trkpt lat="44.0809517" lon="8.2050317"><ele>27.75</ele><time>2026-04-22T14:01:11.55Z</time></trkpt><trkpt lat="44.0808283" lon="8.20515"><ele>28.0</ele><time>2026-04-22T14:01:12.55Z</time></trkpt><trkpt lat="44.0807117" lon="8.205265"><ele>27.0</ele><time>2026-04-22T14:01:13.55Z</time></trkpt><trkpt lat="44.0806017" lon="8.20538"><ele>26.0</ele><time>2026-04-22T14:01:14.549Z</time></trkpt><trkpt lat="44.0805" lon="8.2054983"><ele>25.0</ele><time>2026-04-22T14:01:15.55Z</time></trkpt><trkpt lat="44.080395" lon="8.2056267"><ele>24.0</ele><time>2026-04-22T14:01:16.55Z</time></trkpt><trkpt lat="44.080285" lon="8.20576"><ele>24.0</ele><time>2026-04-22T14:01:17.549Z</time></trkpt><trkpt lat="44.0801767" lon="8.2058983"><ele>24.0</ele><time>2026-04-22T14:01:18.55Z</time></trkpt><trkpt lat="44.0800667" lon="8.20603"><ele>24.0</ele><time>2026-04-22T14:01:19.55Z</time></trkpt><trkpt lat="44.0799583" lon="8.20616"><ele>24.0</ele><time>2026-04-22T14:01:20.55Z</time></trkpt><trkpt lat="44.07986" lon="8.206285"><ele>22.5</ele><time>2026-04-22T14:01:21.55Z</time></trkpt><trkpt lat="44.0797733" lon="8.2064083"><ele>21.0</ele><time>2026-04-22T14:01:22.55Z</time></trkpt><trkpt lat="44.0796817" lon="8.2065317"><ele>19.5</ele><time>2026-04-22T14:01:23.55Z</time></trkpt><trkpt lat="44.0795967" lon="8.206655"><ele>18.0</ele><time>2026-04-22T14:01:24.55Z</time></trkpt><trkpt lat="44.0795033" lon="8.2067767"><ele>18.0</ele><time>2026-04-22T14:01:25.55Z</time></trkpt><trkpt lat="44.0794167" lon="8.206885"><ele>18.0</ele><time>2026-04-22T14:01:26.549Z</time></trkpt><trkpt lat="44.07932" lon="8.2069783"><ele>18.0</ele><time>2026-04-22T14:01:27.55Z</time></trkpt><trkpt lat="44.0792033" lon="8.207065"><ele>18.0</ele><time>2026-04-22T14:01:28.55Z</time></trkpt><trkpt lat="44.0790767" lon="8.207155"><ele>17.25</ele><time>2026-04-22T14:01:29.55Z</time></trkpt><trkpt lat="44.07894" lon="8.207235"><ele>16.5</ele><time>2026-04-22T14:01:30.55Z</time></trkpt><trkpt lat="44.0787967" lon="8.2073067"><ele>15.75</ele><time>2026-04-22T14:01:31.55Z</time></trkpt><trkpt lat="44.07866" lon="8.20738"><ele>15.0</ele><time>2026-04-22T14:01:32.55Z</time></trkpt><trkpt lat="44.07853" lon="8.2074483"><ele>15.0</ele><time>2026-04-22T14:01:33.55Z</time></trkpt><trkpt lat="44.0783883" lon="8.207525"><ele>15.0</ele><time>2026-04-22T14:01:34.549Z</time></trkpt><trkpt lat="44.07826" lon="8.2076083"><ele>15.0</ele><time>2026-04-22T14:01:35.55Z</time></trkpt><trkpt lat="44.0781367" lon="8.2076867"><ele>15.0</ele><time>2026-04-22T14:01:36.55Z</time></trkpt><trkpt lat="44.0780183" lon="8.2077667"><ele>14.0</ele><time>2026-04-22T14:01:37.55Z</time></trkpt><trkpt lat="44.0779033" lon="8.2078467"><ele>13.0</ele><time>2026-04-22T14:01:38.549Z</time></trkpt><trkpt lat="44.0777867" lon="8.2079167"><ele>12.0</ele><time>2026-04-22T14:01:39.549Z</time></trkpt><trkpt lat="44.0776783" lon="8.20799"><ele>11.0</ele><time>2026-04-22T14:01:40.55Z</time></trkpt><trkpt lat="44.07758" lon="8.2080583"><ele>11.0</ele><time>2026-04-22T14:01:41.55Z</time></trkpt><trkpt lat="44.077485" lon="8.20814"><ele>11.0</ele><time>2026-04-22T14:01:42.55Z</time></trkpt><trkpt lat="44.0773983" lon="8.2082383"><ele>11.0</ele><time>2026-04-22T14:01:43.55Z</time></trkpt><trkpt lat="44.077325" lon="8.208355"><ele>11.0</ele><time>2026-04-22T14:01:44.549Z</time></trkpt><trkpt lat="44.0772583" lon="8.2084717"><ele>11.0</ele><time>2026-04-22T14:01:45.55Z</time></trkpt><trkpt lat="44.0771867" lon="8.2085733"><ele>10.666666666666666</ele><time>2026-04-22T14:01:46.55Z</time></trkpt><trkpt lat="44.0771133" lon="8.2086667"><ele>10.333333333333332</ele><time>2026-04-22T14:01:47.55Z</time></trkpt><trkpt lat="44.0770433" lon="8.20875"><ele>10.0</ele><time>2026-04-22T14:01:48.549Z</time></trkpt><trkpt lat="44.07699" lon="8.2088"><ele>9.666666666666666</ele><time>2026-04-22T14:01:49.55Z</time></trkpt><trkpt lat="44.07692" lon="8.2088383"><ele>9.333333333333334</ele><time>2026-04-22T14:01:51.549Z</time></trkpt><trkpt lat="44.0768433" lon="8.208915"><ele>9.0</ele><time>2026-04-22T14:01:54.55Z</time></trkpt><trkpt lat="44.0768117" lon="8.209025"><ele>9.0</ele><time>2026-04-22T14:01:55.55Z</time></trkpt><trkpt lat="44.076795" lon="8.2091783"><ele>9.0</ele><time>2026-04-22T14:01:56.55Z</time></trkpt><trkpt lat="44.076815" lon="8.2093233"><ele>9.0</ele><time>2026-04-22T14:01:57.55Z</time></trkpt><trkpt lat="44.0768717" lon="8.20947"><ele>9.0</ele><time>2026-04-22T14:01:58.55Z</time></trkpt><trkpt lat="44.0769567" lon="8.2095983"><ele>9.0</ele><time>2026-04-22T14:01:59.55Z</time></trkpt><trkpt lat="44.0770383" lon="8.2097383"><ele>9.0</ele><time>2026-04-22T14:02:00.55Z</time></trkpt><trkpt lat="44.0771017" lon="8.2099017"><ele>9.0</ele><time>2026-04-22T14:02:01.55Z</time></trkpt><trkpt lat="44.0771233" lon="8.210075"><ele>9.0</ele><time>2026-04-22T14:02:02.55Z</time></trkpt><trkpt lat="44.0771317" lon="8.2102683"><ele>8.25</ele><time>2026-04-22T14:02:03.551Z</time></trkpt><trkpt lat="44.0771217" lon="8.2104683"><ele>7.5</ele><time>2026-04-22T14:02:04.551Z</time></trkpt><trkpt lat="44.0771233" lon="8.210675"><ele>6.75</ele><time>2026-04-22T14:02:05.551Z</time></trkpt><trkpt lat="44.0771233" lon="8.2108767"><ele>6.0</ele><time>2026-04-22T14:02:06.551Z</time></trkpt><trkpt lat="44.0771367" lon="8.21108"><ele>5.5</ele><time>2026-04-22T14:02:07.551Z</time></trkpt><trkpt lat="44.0771633" lon="8.2112733"><ele>5.0</ele><time>2026-04-22T14:02:08.551Z</time></trkpt><trkpt lat="44.0771967" lon="8.2114633"><ele>4.5</ele><time>2026-04-22T14:02:09.551Z</time></trkpt><trkpt lat="44.077235" lon="8.211645"><ele>4.0</ele><time>2026-04-22T14:02:10.551Z</time></trkpt><trkpt lat="44.0772833" lon="8.2118067"><ele>4.0</ele><time>2026-04-22T14:02:11.55Z</time></trkpt><trkpt lat="44.0773367" lon="8.2119633"><ele>4.0</ele><time>2026-04-22T14:02:12.551Z</time></trkpt><trkpt lat="44.0774067" lon="8.21211"><ele>4.0</ele><time>2026-04-22T14:02:13.55Z</time></trkpt><trkpt lat="44.0774733" lon="8.21226"><ele>4.0</ele><time>2026-04-22T14:02:14.551Z</time></trkpt><trkpt lat="44.0775467" lon="8.2124067"><ele>4.6</ele><time>2026-04-22T14:02:15.551Z</time></trkpt><trkpt lat="44.077605" lon="8.212545"><ele>5.2</ele><time>2026-04-22T14:02:16.551Z</time></trkpt><trkpt lat="44.0776467" lon="8.2126783"><ele>5.799999999999999</ele><time>2026-04-22T14:02:17.551Z</time></trkpt><trkpt lat="44.0776867" lon="8.2128183"><ele>6.3999999999999995</ele><time>2026-04-22T14:02:18.551Z</time></trkpt><trkpt lat="44.0777317" lon="8.2129517"><ele>7.0</ele><time>2026-04-22T14:02:19.551Z</time></trkpt><trkpt lat="44.0777767" lon="8.2130783"><ele>6.8</ele><time>2026-04-22T14:02:20.551Z</time></trkpt><trkpt lat="44.077805" lon="8.2131783"><ele>6.6</ele><time>2026-04-22T14:02:21.551Z</time></trkpt><trkpt lat="44.077825" lon="8.2132733"><ele>6.3999999999999995</ele><time>2026-04-22T14:02:22.551Z</time></trkpt><trkpt lat="44.07777" lon="8.2134033"><ele>6.199999999999999</ele><time>2026-04-22T14:02:24.55Z</time></trkpt><trkpt lat="44.07769" lon="8.2134617"><ele>6.0</ele><time>2026-04-22T14:02:25.551Z</time></trkpt><trkpt lat="44.0775983" lon="8.2135417"><ele>6.0</ele><time>2026-04-22T14:02:26.551Z</time></trkpt><trkpt lat="44.0775017" lon="8.21363"><ele>6.0</ele><time>2026-04-22T14:02:27.551Z</time></trkpt><trkpt lat="44.0774067" lon="8.2137217"><ele>6.0</ele><time>2026-04-22T14:02:28.551Z</time></trkpt><trkpt lat="44.0772983" lon="8.21381"><ele>6.0</ele><time>2026-04-22T14:02:29.551Z</time></trkpt><trkpt lat="44.0772067" lon="8.2139"><ele>5.8</ele><time>2026-04-22T14:02:30.551Z</time></trkpt><trkpt lat="44.077115" lon="8.21399"><ele>5.6</ele><time>2026-04-22T14:02:31.551Z</time></trkpt><trkpt lat="44.0770233" lon="8.21408"><ele>5.4</ele><time>2026-04-22T14:02:32.551Z</time></trkpt><trkpt lat="44.07695" lon="8.2141767"><ele>5.2</ele><time>2026-04-22T14:02:33.551Z</time></trkpt><trkpt lat="44.0768933" lon="8.2142683"><ele>5.0</ele><time>2026-04-22T14:02:34.551Z</time></trkpt><trkpt lat="44.0768467" lon="8.2143417"><ele>5.0</ele><time>2026-04-22T14:02:35.551Z</time></trkpt><trkpt lat="44.0767417" lon="8.2143683"><ele>5.0</ele><time>2026-04-22T14:02:37.551Z</time></trkpt><trkpt lat="44.076615" lon="8.2142883"><ele>5.0</ele><time>2026-04-22T14:02:39.551Z</time></trkpt><trkpt lat="44.0765383" lon="8.21425"><ele>5.0</ele><time>2026-04-22T14:02:40.55Z</time></trkpt><trkpt lat="44.0764433" lon="8.2142133"><ele>5.0</ele><time>2026-04-22T14:02:41.551Z</time></trkpt><trkpt lat="44.076355" lon="8.2141717"><ele>4.6</ele><time>2026-04-22T14:02:42.551Z</time></trkpt><trkpt lat="44.0762567" lon="8.214135"><ele>4.2</ele><time>2026-04-22T14:02:43.551Z</time></trkpt><trkpt lat="44.0761633" lon="8.2140883"><ele>3.8</ele><time>2026-04-22T14:02:44.551Z</time></trkpt><trkpt lat="44.0760783" lon="8.2140317"><ele>3.4</ele><time>2026-04-22T14:02:45.551Z</time></trkpt><trkpt lat="44.0759983" lon="8.2139583"><ele>3.0</ele><time>2026-04-22T14:02:46.551Z</time></trkpt><trkpt lat="44.075925" lon="8.2138867"><ele>3.0</ele><time>2026-04-22T14:02:47.551Z</time></trkpt><trkpt lat="44.07585" lon="8.2138117"><ele>3.0</ele><time>2026-04-22T14:02:48.551Z</time></trkpt><trkpt lat="44.0757783" lon="8.213745"><ele>3.0</ele><time>2026-04-22T14:02:49.551Z</time></trkpt><trkpt lat="44.0757017" lon="8.2136717"><ele>3.0</ele><time>2026-04-22T14:02:50.55Z</time></trkpt><trkpt lat="44.0756233" lon="8.2136017"><ele>3.0</ele><time>2026-04-22T14:02:51.551Z</time></trkpt><trkpt lat="44.0755417" lon="8.21354"><ele>3.1428571428571423</ele><time>2026-04-22T14:02:52.551Z</time></trkpt><trkpt lat="44.0754717" lon="8.2134767"><ele>3.2857142857142856</ele><time>2026-04-22T14:02:53.551Z</time></trkpt><trkpt lat="44.07541" lon="8.2134167"><ele>3.4285714285714284</ele><time>2026-04-22T14:02:54.551Z</time></trkpt><trkpt lat="44.0753533" lon="8.213365"><ele>3.571428571428571</ele><time>2026-04-22T14:02:55.551Z</time></trkpt><trkpt lat="44.0752967" lon="8.2133133"><ele>3.714285714285714</ele><time>2026-04-22T14:02:56.551Z</time></trkpt><trkpt lat="44.07524" lon="8.2132633"><ele>3.8571428571428568</ele><time>2026-04-22T14:02:57.551Z</time></trkpt><trkpt lat="44.0751767" lon="8.2132067"><ele>4.0</ele><time>2026-04-22T14:02:58.55Z</time></trkpt><trkpt lat="44.0751183" lon="8.2131517"><ele>3.9999999999999996</ele><time>2026-04-22T14:02:59.551Z</time></trkpt><trkpt lat="44.075045" lon="8.2131017"><ele>4.0</ele><time>2026-04-22T14:03:00.551Z</time></trkpt><trkpt lat="44.0749733" lon="8.2130467"><ele>4.0</ele><time>2026-04-22T14:03:01.55Z</time></trkpt><trkpt lat="44.0748983" lon="8.2129983"><ele>4.0</ele><time>2026-04-22T14:03:02.551Z</time></trkpt><trkpt lat="44.0748167" lon="8.2129567"><ele>3.9999999999999996</ele><time>2026-04-22T14:03:03.55Z</time></trkpt><trkpt lat="44.07474" lon="8.212905"><ele>4.0</ele><time>2026-04-22T14:03:04.551Z</time></trkpt><trkpt lat="44.0746667" lon="8.21286"><ele>4.0</ele><time>2026-04-22T14:03:05.55Z</time></trkpt><trkpt lat="44.0745983" lon="8.2128183"><ele>4.0</ele><time>2026-04-22T14:03:06.55Z</time></trkpt><trkpt lat="44.0745367" lon="8.2127883"><ele>4.0</ele><time>2026-04-22T14:03:07.551Z</time></trkpt><trkpt lat="44.0744467" lon="8.2127983"><ele>4.0</ele><time>2026-04-22T14:03:09.551Z</time></trkpt><trkpt lat="44.0743767" lon="8.21276"><ele>4.0</ele><time>2026-04-22T14:03:12.55Z</time></trkpt><trkpt lat="44.0744033" lon="8.2126783"><ele>4.0</ele><time>2026-04-22T14:03:17.551Z</time></trkpt><trkpt lat="44.07441" lon="8.2125883"><ele>4.0</ele><time>2026-04-22T14:03:20.551Z</time></trkpt></trkseg></trk></gpx>